<?xml version="1.0" encoding="UTF-8" standalone="no" ?>
<gpx xmlns="http://www.topografix.com/GPX/1/1" xmlns:xsi="http://www.w3.org/2001/XMLSchema-instance" xsi:schemaLocation="http://www.topografix.com/GPX/1/1 http://www.topografix.com/GPX/1/1/gpx.xsd" version="1.1" creator="VisuGPX - https://www.visugpx.com">
  <metadata>
    <name>Mtp_Cournonterral_20092020</name>
  </metadata>
  <trk>
    <name><![CDATA[Move]]></name>
    <trkseg>
      <trkpt lat="43.61144" lon="3.87749">
        <ele>85.400001525879</ele>
        <time>2020-09-20T07:03:08.000Z</time>
      </trkpt>
      <trkpt lat="43.6114" lon="3.87759">
        <ele>79.5</ele>
        <time>2020-09-20T07:05:13.000Z</time>
      </trkpt>
      <trkpt lat="43.61139" lon="3.8776">
        <ele>47</ele>
        <time>2020-09-20T07:05:15.000Z</time>
      </trkpt>
      <trkpt lat="43.61137" lon="3.87761">
        <ele>47</ele>
        <time>2020-09-20T07:05:17.000Z</time>
      </trkpt>
      <trkpt lat="43.61134" lon="3.8776">
        <ele>47</ele>
        <time>2020-09-20T07:05:19.000Z</time>
      </trkpt>
      <trkpt lat="43.61133" lon="3.87757">
        <ele>47</ele>
        <time>2020-09-20T07:05:20.000Z</time>
      </trkpt>
      <trkpt lat="43.61133" lon="3.87753">
        <ele>47</ele>
        <time>2020-09-20T07:05:21.000Z</time>
      </trkpt>
      <trkpt lat="43.61133" lon="3.8775">
        <ele>47</ele>
        <time>2020-09-20T07:05:22.000Z</time>
      </trkpt>
      <trkpt lat="43.61134" lon="3.87745">
        <ele>74.851311159127</ele>
        <time>2020-09-20T07:05:23.000Z</time>
      </trkpt>
      <trkpt lat="43.61134" lon="3.87741">
        <ele>74.559766241617</ele>
        <time>2020-09-20T07:05:24.000Z</time>
      </trkpt>
      <trkpt lat="43.61133" lon="3.87738">
        <ele>74.268221324108</ele>
        <time>2020-09-20T07:05:25.000Z</time>
      </trkpt>
      <trkpt lat="43.61132" lon="3.87735">
        <ele>73.976676406599</ele>
        <time>2020-09-20T07:05:26.000Z</time>
      </trkpt>
      <trkpt lat="43.61131" lon="3.87731">
        <ele>73.68513148909</ele>
        <time>2020-09-20T07:05:27.000Z</time>
      </trkpt>
      <trkpt lat="43.6113" lon="3.87728">
        <ele>73.393586571581</ele>
        <time>2020-09-20T07:05:28.000Z</time>
      </trkpt>
      <trkpt lat="43.61128" lon="3.87725">
        <ele>73.102041654072</ele>
        <time>2020-09-20T07:05:29.000Z</time>
      </trkpt>
      <trkpt lat="43.61126" lon="3.87723">
        <ele>72.810496736563</ele>
        <time>2020-09-20T07:05:30.000Z</time>
      </trkpt>
      <trkpt lat="43.61124" lon="3.87722">
        <ele>72.518951819054</ele>
        <time>2020-09-20T07:05:31.000Z</time>
      </trkpt>
      <trkpt lat="43.61121" lon="3.87721">
        <ele>72.227406901545</ele>
        <time>2020-09-20T07:05:32.000Z</time>
      </trkpt>
      <trkpt lat="43.61118" lon="3.8772">
        <ele>71.954687164263</ele>
        <time>2020-09-20T07:05:33.000Z</time>
      </trkpt>
      <trkpt lat="43.61115" lon="3.87719">
        <ele>71.748713737142</ele>
        <time>2020-09-20T07:05:34.000Z</time>
      </trkpt>
      <trkpt lat="43.61112" lon="3.87719">
        <ele>71.542740310021</ele>
        <time>2020-09-20T07:05:35.000Z</time>
      </trkpt>
      <trkpt lat="43.6111" lon="3.87718">
        <ele>71.3367668829</ele>
        <time>2020-09-20T07:05:36.000Z</time>
      </trkpt>
      <trkpt lat="43.61107" lon="3.87718">
        <ele>71.130793455779</ele>
        <time>2020-09-20T07:05:37.000Z</time>
      </trkpt>
      <trkpt lat="43.61104" lon="3.87717">
        <ele>70.924820028658</ele>
        <time>2020-09-20T07:05:38.000Z</time>
      </trkpt>
      <trkpt lat="43.61102" lon="3.87716">
        <ele>70.718846601537</ele>
        <time>2020-09-20T07:05:39.000Z</time>
      </trkpt>
      <trkpt lat="43.61099" lon="3.87714">
        <ele>70.512873174416</ele>
        <time>2020-09-20T07:05:40.000Z</time>
      </trkpt>
      <trkpt lat="43.61095" lon="3.87713">
        <ele>70.306899747295</ele>
        <time>2020-09-20T07:05:41.000Z</time>
      </trkpt>
      <trkpt lat="43.61092" lon="3.87711">
        <ele>70.100926320174</ele>
        <time>2020-09-20T07:05:42.000Z</time>
      </trkpt>
      <trkpt lat="43.6109" lon="3.87708">
        <ele>69.949152239553</ele>
        <time>2020-09-20T07:05:43.000Z</time>
      </trkpt>
      <trkpt lat="43.61088" lon="3.87704">
        <ele>69.849451374053</ele>
        <time>2020-09-20T07:05:44.000Z</time>
      </trkpt>
      <trkpt lat="43.61087" lon="3.877">
        <ele>69.749750508554</ele>
        <time>2020-09-20T07:05:45.000Z</time>
      </trkpt>
      <trkpt lat="43.61087" lon="3.87695">
        <ele>69.650049643055</ele>
        <time>2020-09-20T07:05:46.000Z</time>
      </trkpt>
      <trkpt lat="43.61087" lon="3.87691">
        <ele>69.550348777556</ele>
        <time>2020-09-20T07:05:47.000Z</time>
      </trkpt>
      <trkpt lat="43.61088" lon="3.87686">
        <ele>69.450647912056</ele>
        <time>2020-09-20T07:05:48.000Z</time>
      </trkpt>
      <trkpt lat="43.61089" lon="3.87682">
        <ele>69.350947046557</ele>
        <time>2020-09-20T07:05:49.000Z</time>
      </trkpt>
      <trkpt lat="43.6109" lon="3.87679">
        <ele>69.251246181058</ele>
        <time>2020-09-20T07:05:50.000Z</time>
      </trkpt>
      <trkpt lat="43.61091" lon="3.87676">
        <ele>69.151545315559</ele>
        <time>2020-09-20T07:05:51.000Z</time>
      </trkpt>
      <trkpt lat="43.61092" lon="3.87673">
        <ele>69.05184445006</ele>
        <time>2020-09-20T07:05:52.000Z</time>
      </trkpt>
      <trkpt lat="43.61092" lon="3.87671">
        <ele>68.860465116279</ele>
        <time>2020-09-20T07:05:53.000Z</time>
      </trkpt>
      <trkpt lat="43.61092" lon="3.87668">
        <ele>68.569767441861</ele>
        <time>2020-09-20T07:05:54.000Z</time>
      </trkpt>
      <trkpt lat="43.61093" lon="3.87664">
        <ele>68.279069767442</ele>
        <time>2020-09-20T07:05:55.000Z</time>
      </trkpt>
      <trkpt lat="43.61093" lon="3.87661">
        <ele>67.988372093023</ele>
        <time>2020-09-20T07:05:56.000Z</time>
      </trkpt>
      <trkpt lat="43.61093" lon="3.87657">
        <ele>67.697674418605</ele>
        <time>2020-09-20T07:05:57.000Z</time>
      </trkpt>
      <trkpt lat="43.61094" lon="3.87654">
        <ele>67.406976744186</ele>
        <time>2020-09-20T07:05:58.000Z</time>
      </trkpt>
      <trkpt lat="43.61094" lon="3.8765">
        <ele>67.116279069767</ele>
        <time>2020-09-20T07:05:59.000Z</time>
      </trkpt>
      <trkpt lat="43.61094" lon="3.87646">
        <ele>66.825581395349</ele>
        <time>2020-09-20T07:06:00.000Z</time>
      </trkpt>
      <trkpt lat="43.61094" lon="3.87643">
        <ele>66.53488372093</ele>
        <time>2020-09-20T07:06:01.000Z</time>
      </trkpt>
      <trkpt lat="43.61093" lon="3.87639">
        <ele>66.244186046512</ele>
        <time>2020-09-20T07:06:02.000Z</time>
      </trkpt>
      <trkpt lat="43.61091" lon="3.87636">
        <ele>65.983419683621</ele>
        <time>2020-09-20T07:06:03.000Z</time>
      </trkpt>
      <trkpt lat="43.61089" lon="3.87633">
        <ele>65.879792706253</ele>
        <time>2020-09-20T07:06:04.000Z</time>
      </trkpt>
      <trkpt lat="43.61087" lon="3.87632">
        <ele>65.776165728884</ele>
        <time>2020-09-20T07:06:05.000Z</time>
      </trkpt>
      <trkpt lat="43.61084" lon="3.87632">
        <ele>65.672538751515</ele>
        <time>2020-09-20T07:06:06.000Z</time>
      </trkpt>
      <trkpt lat="43.61081" lon="3.87632">
        <ele>65.568911774147</ele>
        <time>2020-09-20T07:06:07.000Z</time>
      </trkpt>
      <trkpt lat="43.61078" lon="3.87633">
        <ele>65.465284796778</ele>
        <time>2020-09-20T07:06:08.000Z</time>
      </trkpt>
      <trkpt lat="43.61075" lon="3.87635">
        <ele>65.36165781941</ele>
        <time>2020-09-20T07:06:09.000Z</time>
      </trkpt>
      <trkpt lat="43.61073" lon="3.87638">
        <ele>65.258030842041</ele>
        <time>2020-09-20T07:06:10.000Z</time>
      </trkpt>
      <trkpt lat="43.6107" lon="3.87641">
        <ele>65.154403864673</ele>
        <time>2020-09-20T07:06:11.000Z</time>
      </trkpt>
      <trkpt lat="43.61068" lon="3.87645">
        <ele>65.050776887304</ele>
        <time>2020-09-20T07:06:12.000Z</time>
      </trkpt>
      <trkpt lat="43.61065" lon="3.87649">
        <ele>64.94899968</ele>
        <time>2020-09-20T07:06:13.000Z</time>
      </trkpt>
      <trkpt lat="43.61063" lon="3.87653">
        <ele>64.84899968</ele>
        <time>2020-09-20T07:06:14.000Z</time>
      </trkpt>
      <trkpt lat="43.6106" lon="3.87657">
        <ele>64.74899968</ele>
        <time>2020-09-20T07:06:15.000Z</time>
      </trkpt>
      <trkpt lat="43.61057" lon="3.87661">
        <ele>64.64899968</ele>
        <time>2020-09-20T07:06:16.000Z</time>
      </trkpt>
      <trkpt lat="43.61054" lon="3.87663">
        <ele>64.54899968</ele>
        <time>2020-09-20T07:06:17.000Z</time>
      </trkpt>
      <trkpt lat="43.61051" lon="3.87664">
        <ele>64.44899968</ele>
        <time>2020-09-20T07:06:18.000Z</time>
      </trkpt>
      <trkpt lat="43.61048" lon="3.87663">
        <ele>64.34899968</ele>
        <time>2020-09-20T07:06:19.000Z</time>
      </trkpt>
      <trkpt lat="43.61045" lon="3.87661">
        <ele>64.24899968</ele>
        <time>2020-09-20T07:06:20.000Z</time>
      </trkpt>
      <trkpt lat="43.61043" lon="3.87658">
        <ele>64.14899968</ele>
        <time>2020-09-20T07:06:21.000Z</time>
      </trkpt>
      <trkpt lat="43.6104" lon="3.87655">
        <ele>64.04899968</ele>
        <time>2020-09-20T07:06:22.000Z</time>
      </trkpt>
      <trkpt lat="43.61038" lon="3.87652">
        <ele>64.101898773834</ele>
        <time>2020-09-20T07:06:23.000Z</time>
      </trkpt>
      <trkpt lat="43.61036" lon="3.87649">
        <ele>64.301699037506</ele>
        <time>2020-09-20T07:06:24.000Z</time>
      </trkpt>
      <trkpt lat="43.61034" lon="3.87646">
        <ele>64.501499301179</ele>
        <time>2020-09-20T07:06:25.000Z</time>
      </trkpt>
      <trkpt lat="43.61031" lon="3.87643">
        <ele>64.701299564851</ele>
        <time>2020-09-20T07:06:26.000Z</time>
      </trkpt>
      <trkpt lat="43.61028" lon="3.8764">
        <ele>64.901099828523</ele>
        <time>2020-09-20T07:06:27.000Z</time>
      </trkpt>
      <trkpt lat="43.61025" lon="3.87638">
        <ele>65.100900092196</ele>
        <time>2020-09-20T07:06:28.000Z</time>
      </trkpt>
      <trkpt lat="43.61022" lon="3.87634">
        <ele>65.300700355868</ele>
        <time>2020-09-20T07:06:29.000Z</time>
      </trkpt>
      <trkpt lat="43.61019" lon="3.8763">
        <ele>65.500500619541</ele>
        <time>2020-09-20T07:06:30.000Z</time>
      </trkpt>
      <trkpt lat="43.61016" lon="3.87627">
        <ele>65.700300883213</ele>
        <time>2020-09-20T07:06:31.000Z</time>
      </trkpt>
      <trkpt lat="43.61012" lon="3.87622">
        <ele>65.900101146886</ele>
        <time>2020-09-20T07:06:32.000Z</time>
      </trkpt>
      <trkpt lat="43.6101" lon="3.87617">
        <ele>66</ele>
        <time>2020-09-20T07:06:33.000Z</time>
      </trkpt>
      <trkpt lat="43.61007" lon="3.87612">
        <ele>66</ele>
        <time>2020-09-20T07:06:34.000Z</time>
      </trkpt>
      <trkpt lat="43.61004" lon="3.87607">
        <ele>66</ele>
        <time>2020-09-20T07:06:35.000Z</time>
      </trkpt>
      <trkpt lat="43.61001" lon="3.87602">
        <ele>66</ele>
        <time>2020-09-20T07:06:36.000Z</time>
      </trkpt>
      <trkpt lat="43.60998" lon="3.87598">
        <ele>66</ele>
        <time>2020-09-20T07:06:37.000Z</time>
      </trkpt>
      <trkpt lat="43.60995" lon="3.87593">
        <ele>66</ele>
        <time>2020-09-20T07:06:38.000Z</time>
      </trkpt>
      <trkpt lat="43.60991" lon="3.87588">
        <ele>66</ele>
        <time>2020-09-20T07:06:39.000Z</time>
      </trkpt>
      <trkpt lat="43.60988" lon="3.87583">
        <ele>66</ele>
        <time>2020-09-20T07:06:40.000Z</time>
      </trkpt>
      <trkpt lat="43.60984" lon="3.87577">
        <ele>66</ele>
        <time>2020-09-20T07:06:41.000Z</time>
      </trkpt>
      <trkpt lat="43.6098" lon="3.87571">
        <ele>66</ele>
        <time>2020-09-20T07:06:42.000Z</time>
      </trkpt>
      <trkpt lat="43.60977" lon="3.87565">
        <ele>66</ele>
        <time>2020-09-20T07:06:43.000Z</time>
      </trkpt>
      <trkpt lat="43.60973" lon="3.87559">
        <ele>66</ele>
        <time>2020-09-20T07:06:44.000Z</time>
      </trkpt>
      <trkpt lat="43.60969" lon="3.87553">
        <ele>66</ele>
        <time>2020-09-20T07:06:45.000Z</time>
      </trkpt>
      <trkpt lat="43.60965" lon="3.87546">
        <ele>66</ele>
        <time>2020-09-20T07:06:46.000Z</time>
      </trkpt>
      <trkpt lat="43.60962" lon="3.8754">
        <ele>66</ele>
        <time>2020-09-20T07:06:47.000Z</time>
      </trkpt>
      <trkpt lat="43.60958" lon="3.87533">
        <ele>66</ele>
        <time>2020-09-20T07:06:48.000Z</time>
      </trkpt>
      <trkpt lat="43.60955" lon="3.87525">
        <ele>66</ele>
        <time>2020-09-20T07:06:49.000Z</time>
      </trkpt>
      <trkpt lat="43.60951" lon="3.87519">
        <ele>66</ele>
        <time>2020-09-20T07:06:50.000Z</time>
      </trkpt>
      <trkpt lat="43.60947" lon="3.87512">
        <ele>66</ele>
        <time>2020-09-20T07:06:51.000Z</time>
      </trkpt>
      <trkpt lat="43.60943" lon="3.87504">
        <ele>66</ele>
        <time>2020-09-20T07:06:52.000Z</time>
      </trkpt>
      <trkpt lat="43.60939" lon="3.87497">
        <ele>65.84699904</ele>
        <time>2020-09-20T07:06:53.000Z</time>
      </trkpt>
      <trkpt lat="43.60936" lon="3.87489">
        <ele>65.54699904</ele>
        <time>2020-09-20T07:06:54.000Z</time>
      </trkpt>
      <trkpt lat="43.60932" lon="3.87482">
        <ele>65.24699904</ele>
        <time>2020-09-20T07:06:55.000Z</time>
      </trkpt>
      <trkpt lat="43.60927" lon="3.87475">
        <ele>64.94699904</ele>
        <time>2020-09-20T07:06:56.000Z</time>
      </trkpt>
      <trkpt lat="43.60923" lon="3.87467">
        <ele>64.64699904</ele>
        <time>2020-09-20T07:06:57.000Z</time>
      </trkpt>
      <trkpt lat="43.60919" lon="3.8746">
        <ele>64.34699904</ele>
        <time>2020-09-20T07:06:58.000Z</time>
      </trkpt>
      <trkpt lat="43.60915" lon="3.87452">
        <ele>64.04699904</ele>
        <time>2020-09-20T07:06:59.000Z</time>
      </trkpt>
      <trkpt lat="43.60912" lon="3.87443">
        <ele>63.74699904</ele>
        <time>2020-09-20T07:07:00.000Z</time>
      </trkpt>
      <trkpt lat="43.60908" lon="3.87435">
        <ele>63.44699904</ele>
        <time>2020-09-20T07:07:01.000Z</time>
      </trkpt>
      <trkpt lat="43.60905" lon="3.87427">
        <ele>63.14699904</ele>
        <time>2020-09-20T07:07:02.000Z</time>
      </trkpt>
      <trkpt lat="43.60901" lon="3.87419">
        <ele>62.79599872</ele>
        <time>2020-09-20T07:07:03.000Z</time>
      </trkpt>
      <trkpt lat="43.60898" lon="3.87411">
        <ele>62.39599872</ele>
        <time>2020-09-20T07:07:04.000Z</time>
      </trkpt>
      <trkpt lat="43.60896" lon="3.87404">
        <ele>61.99599872</ele>
        <time>2020-09-20T07:07:05.000Z</time>
      </trkpt>
      <trkpt lat="43.60893" lon="3.87396">
        <ele>61.59599872</ele>
        <time>2020-09-20T07:07:06.000Z</time>
      </trkpt>
      <trkpt lat="43.60891" lon="3.87388">
        <ele>61.19599872</ele>
        <time>2020-09-20T07:07:07.000Z</time>
      </trkpt>
      <trkpt lat="43.60889" lon="3.87381">
        <ele>60.79599872</ele>
        <time>2020-09-20T07:07:08.000Z</time>
      </trkpt>
      <trkpt lat="43.60886" lon="3.87373">
        <ele>60.39599872</ele>
        <time>2020-09-20T07:07:09.000Z</time>
      </trkpt>
      <trkpt lat="43.60884" lon="3.87366">
        <ele>59.99599872</ele>
        <time>2020-09-20T07:07:10.000Z</time>
      </trkpt>
      <trkpt lat="43.60881" lon="3.87359">
        <ele>59.59599872</ele>
        <time>2020-09-20T07:07:11.000Z</time>
      </trkpt>
      <trkpt lat="43.60878" lon="3.87352">
        <ele>59.19599872</ele>
        <time>2020-09-20T07:07:12.000Z</time>
      </trkpt>
      <trkpt lat="43.60874" lon="3.87345">
        <ele>58.847456718658</ele>
        <time>2020-09-20T07:07:13.000Z</time>
      </trkpt>
      <trkpt lat="43.60872" lon="3.87339">
        <ele>58.54835412216</ele>
        <time>2020-09-20T07:07:14.000Z</time>
      </trkpt>
      <trkpt lat="43.60869" lon="3.87332">
        <ele>58.249251525663</ele>
        <time>2020-09-20T07:07:15.000Z</time>
      </trkpt>
      <trkpt lat="43.60867" lon="3.87327">
        <ele>57.950148929165</ele>
        <time>2020-09-20T07:07:16.000Z</time>
      </trkpt>
      <trkpt lat="43.60866" lon="3.87321">
        <ele>57.651046332667</ele>
        <time>2020-09-20T07:07:17.000Z</time>
      </trkpt>
      <trkpt lat="43.60866" lon="3.87315">
        <ele>57.35194373617</ele>
        <time>2020-09-20T07:07:18.000Z</time>
      </trkpt>
      <trkpt lat="43.60865" lon="3.8731">
        <ele>57.052841139672</ele>
        <time>2020-09-20T07:07:19.000Z</time>
      </trkpt>
      <trkpt lat="43.60865" lon="3.87305">
        <ele>56.753738543174</ele>
        <time>2020-09-20T07:07:20.000Z</time>
      </trkpt>
      <trkpt lat="43.60863" lon="3.87301">
        <ele>56.454635946676</ele>
        <time>2020-09-20T07:07:21.000Z</time>
      </trkpt>
      <trkpt lat="43.60862" lon="3.87296">
        <ele>56.155533350179</ele>
        <time>2020-09-20T07:07:22.000Z</time>
      </trkpt>
      <trkpt lat="43.6086" lon="3.87291">
        <ele>55.903711102495</ele>
        <time>2020-09-20T07:07:23.000Z</time>
      </trkpt>
      <trkpt lat="43.60859" lon="3.87286">
        <ele>55.703109232693</ele>
        <time>2020-09-20T07:07:24.000Z</time>
      </trkpt>
      <trkpt lat="43.60858" lon="3.87281">
        <ele>55.502507362891</ele>
        <time>2020-09-20T07:07:25.000Z</time>
      </trkpt>
      <trkpt lat="43.60856" lon="3.87275">
        <ele>55.301905493089</ele>
        <time>2020-09-20T07:07:26.000Z</time>
      </trkpt>
      <trkpt lat="43.60854" lon="3.8727">
        <ele>55.101303623287</ele>
        <time>2020-09-20T07:07:27.000Z</time>
      </trkpt>
      <trkpt lat="43.60853" lon="3.87265">
        <ele>54.900701753485</ele>
        <time>2020-09-20T07:07:28.000Z</time>
      </trkpt>
      <trkpt lat="43.60851" lon="3.8726">
        <ele>54.700099883683</ele>
        <time>2020-09-20T07:07:29.000Z</time>
      </trkpt>
      <trkpt lat="43.60849" lon="3.87254">
        <ele>54.499498013881</ele>
        <time>2020-09-20T07:07:30.000Z</time>
      </trkpt>
      <trkpt lat="43.60848" lon="3.87249">
        <ele>54.298896144079</ele>
        <time>2020-09-20T07:07:31.000Z</time>
      </trkpt>
      <trkpt lat="43.60846" lon="3.87244">
        <ele>54.098294274277</ele>
        <time>2020-09-20T07:07:32.000Z</time>
      </trkpt>
      <trkpt lat="43.60844" lon="3.87238">
        <ele>53.808089164075</ele>
        <time>2020-09-20T07:07:33.000Z</time>
      </trkpt>
      <trkpt lat="43.60843" lon="3.87233">
        <ele>53.431795768415</ele>
        <time>2020-09-20T07:07:34.000Z</time>
      </trkpt>
      <trkpt lat="43.60841" lon="3.87228">
        <ele>53.055502372756</ele>
        <time>2020-09-20T07:07:35.000Z</time>
      </trkpt>
      <trkpt lat="43.60839" lon="3.87223">
        <ele>52.679208977096</ele>
        <time>2020-09-20T07:07:36.000Z</time>
      </trkpt>
      <trkpt lat="43.60838" lon="3.87218">
        <ele>52.302915581437</ele>
        <time>2020-09-20T07:07:37.000Z</time>
      </trkpt>
      <trkpt lat="43.60836" lon="3.87212">
        <ele>51.926622185777</ele>
        <time>2020-09-20T07:07:38.000Z</time>
      </trkpt>
      <trkpt lat="43.60835" lon="3.87207">
        <ele>51.550328790117</ele>
        <time>2020-09-20T07:07:39.000Z</time>
      </trkpt>
      <trkpt lat="43.60834" lon="3.87201">
        <ele>51.174035394458</ele>
        <time>2020-09-20T07:07:40.000Z</time>
      </trkpt>
      <trkpt lat="43.60833" lon="3.87195">
        <ele>50.797741998798</ele>
        <time>2020-09-20T07:07:41.000Z</time>
      </trkpt>
      <trkpt lat="43.60833" lon="3.87188">
        <ele>50.421448603139</ele>
        <time>2020-09-20T07:07:42.000Z</time>
      </trkpt>
      <trkpt lat="43.60833" lon="3.87182">
        <ele>50.045155207479</ele>
        <time>2020-09-20T07:07:43.000Z</time>
      </trkpt>
      <trkpt lat="43.60833" lon="3.87176">
        <ele>49.812566624046</ele>
        <time>2020-09-20T07:07:44.000Z</time>
      </trkpt>
      <trkpt lat="43.60833" lon="3.8717">
        <ele>49.59957415137</ele>
        <time>2020-09-20T07:07:45.000Z</time>
      </trkpt>
      <trkpt lat="43.60833" lon="3.87164">
        <ele>49.386581678694</ele>
        <time>2020-09-20T07:07:46.000Z</time>
      </trkpt>
      <trkpt lat="43.60833" lon="3.87158">
        <ele>49.173589206019</ele>
        <time>2020-09-20T07:07:47.000Z</time>
      </trkpt>
      <trkpt lat="43.60834" lon="3.87153">
        <ele>48.960596733343</ele>
        <time>2020-09-20T07:07:48.000Z</time>
      </trkpt>
      <trkpt lat="43.60834" lon="3.87149">
        <ele>48.747604260667</ele>
        <time>2020-09-20T07:07:49.000Z</time>
      </trkpt>
      <trkpt lat="43.60833" lon="3.87148">
        <ele>48</ele>
        <time>2020-09-20T07:07:56.000Z</time>
      </trkpt>
      <trkpt lat="43.60831" lon="3.87139">
        <ele>47.974332960547</ele>
        <time>2020-09-20T07:08:07.000Z</time>
      </trkpt>
      <trkpt lat="43.60831" lon="3.87135">
        <ele>47.871663488567</ele>
        <time>2020-09-20T07:08:08.000Z</time>
      </trkpt>
      <trkpt lat="43.60831" lon="3.87131">
        <ele>47.768994016587</ele>
        <time>2020-09-20T07:08:09.000Z</time>
      </trkpt>
      <trkpt lat="43.60831" lon="3.87126">
        <ele>47.666324544607</ele>
        <time>2020-09-20T07:08:10.000Z</time>
      </trkpt>
      <trkpt lat="43.60831" lon="3.87121">
        <ele>47.563655072628</ele>
        <time>2020-09-20T07:08:11.000Z</time>
      </trkpt>
      <trkpt lat="43.60831" lon="3.87116">
        <ele>47.460985600648</ele>
        <time>2020-09-20T07:08:12.000Z</time>
      </trkpt>
      <trkpt lat="43.60831" lon="3.8711">
        <ele>47.358316128668</ele>
        <time>2020-09-20T07:08:13.000Z</time>
      </trkpt>
      <trkpt lat="43.60832" lon="3.87105">
        <ele>47.255646656688</ele>
        <time>2020-09-20T07:08:14.000Z</time>
      </trkpt>
      <trkpt lat="43.60832" lon="3.87099">
        <ele>47.152977184708</ele>
        <time>2020-09-20T07:08:15.000Z</time>
      </trkpt>
      <trkpt lat="43.60833" lon="3.87093">
        <ele>47.050307712728</ele>
        <time>2020-09-20T07:08:16.000Z</time>
      </trkpt>
      <trkpt lat="43.60834" lon="3.87087">
        <ele>47</ele>
        <time>2020-09-20T07:08:17.000Z</time>
      </trkpt>
      <trkpt lat="43.60834" lon="3.87081">
        <ele>47</ele>
        <time>2020-09-20T07:08:18.000Z</time>
      </trkpt>
      <trkpt lat="43.60835" lon="3.87075">
        <ele>47</ele>
        <time>2020-09-20T07:08:19.000Z</time>
      </trkpt>
      <trkpt lat="43.60836" lon="3.87069">
        <ele>47</ele>
        <time>2020-09-20T07:08:20.000Z</time>
      </trkpt>
      <trkpt lat="43.60836" lon="3.87062">
        <ele>47</ele>
        <time>2020-09-20T07:08:21.000Z</time>
      </trkpt>
      <trkpt lat="43.60837" lon="3.87056">
        <ele>47</ele>
        <time>2020-09-20T07:08:22.000Z</time>
      </trkpt>
      <trkpt lat="43.60838" lon="3.8705">
        <ele>47</ele>
        <time>2020-09-20T07:08:23.000Z</time>
      </trkpt>
      <trkpt lat="43.60839" lon="3.87044">
        <ele>47</ele>
        <time>2020-09-20T07:08:24.000Z</time>
      </trkpt>
      <trkpt lat="43.60839" lon="3.87038">
        <ele>47</ele>
        <time>2020-09-20T07:08:25.000Z</time>
      </trkpt>
      <trkpt lat="43.6084" lon="3.87032">
        <ele>47</ele>
        <time>2020-09-20T07:08:26.000Z</time>
      </trkpt>
      <trkpt lat="43.60841" lon="3.87026">
        <ele>46.977343582132</ele>
        <time>2020-09-20T07:08:27.000Z</time>
      </trkpt>
      <trkpt lat="43.60842" lon="3.8702">
        <ele>46.874356868571</ele>
        <time>2020-09-20T07:08:28.000Z</time>
      </trkpt>
      <trkpt lat="43.60843" lon="3.87015">
        <ele>46.771370155011</ele>
        <time>2020-09-20T07:08:29.000Z</time>
      </trkpt>
      <trkpt lat="43.60844" lon="3.87009">
        <ele>46.66838344145</ele>
        <time>2020-09-20T07:08:30.000Z</time>
      </trkpt>
      <trkpt lat="43.60845" lon="3.87003">
        <ele>46.56539672789</ele>
        <time>2020-09-20T07:08:31.000Z</time>
      </trkpt>
      <trkpt lat="43.60846" lon="3.86998">
        <ele>46.462410014329</ele>
        <time>2020-09-20T07:08:32.000Z</time>
      </trkpt>
      <trkpt lat="43.60846" lon="3.86992">
        <ele>46.359423300769</ele>
        <time>2020-09-20T07:08:33.000Z</time>
      </trkpt>
      <trkpt lat="43.60846" lon="3.86987">
        <ele>46.256436587208</ele>
        <time>2020-09-20T07:08:34.000Z</time>
      </trkpt>
      <trkpt lat="43.60847" lon="3.86981">
        <ele>46.153449873648</ele>
        <time>2020-09-20T07:08:35.000Z</time>
      </trkpt>
      <trkpt lat="43.60847" lon="3.86975">
        <ele>46.050463160087</ele>
        <time>2020-09-20T07:08:36.000Z</time>
      </trkpt>
      <trkpt lat="43.60847" lon="3.86969">
        <ele>46.05100032</ele>
        <time>2020-09-20T07:08:37.000Z</time>
      </trkpt>
      <trkpt lat="43.60848" lon="3.86963">
        <ele>46.15100032</ele>
        <time>2020-09-20T07:08:38.000Z</time>
      </trkpt>
      <trkpt lat="43.60848" lon="3.86957">
        <ele>46.25100032</ele>
        <time>2020-09-20T07:08:39.000Z</time>
      </trkpt>
      <trkpt lat="43.60849" lon="3.86951">
        <ele>46.35100032</ele>
        <time>2020-09-20T07:08:40.000Z</time>
      </trkpt>
      <trkpt lat="43.6085" lon="3.86945">
        <ele>46.45100032</ele>
        <time>2020-09-20T07:08:41.000Z</time>
      </trkpt>
      <trkpt lat="43.60852" lon="3.86939">
        <ele>46.55100032</ele>
        <time>2020-09-20T07:08:42.000Z</time>
      </trkpt>
      <trkpt lat="43.60853" lon="3.86933">
        <ele>46.65100032</ele>
        <time>2020-09-20T07:08:43.000Z</time>
      </trkpt>
      <trkpt lat="43.60854" lon="3.86927">
        <ele>46.75100032</ele>
        <time>2020-09-20T07:08:44.000Z</time>
      </trkpt>
      <trkpt lat="43.60855" lon="3.86922">
        <ele>46.85100032</ele>
        <time>2020-09-20T07:08:45.000Z</time>
      </trkpt>
      <trkpt lat="43.60856" lon="3.86916">
        <ele>46.95100032</ele>
        <time>2020-09-20T07:08:46.000Z</time>
      </trkpt>
      <trkpt lat="43.60857" lon="3.8691">
        <ele>46.949152239553</ele>
        <time>2020-09-20T07:08:47.000Z</time>
      </trkpt>
      <trkpt lat="43.60858" lon="3.86904">
        <ele>46.849451374053</ele>
        <time>2020-09-20T07:08:48.000Z</time>
      </trkpt>
      <trkpt lat="43.6086" lon="3.86899">
        <ele>46.749750508554</ele>
        <time>2020-09-20T07:08:49.000Z</time>
      </trkpt>
      <trkpt lat="43.60861" lon="3.86893">
        <ele>46.650049643055</ele>
        <time>2020-09-20T07:08:50.000Z</time>
      </trkpt>
      <trkpt lat="43.60861" lon="3.86887">
        <ele>46.550348777556</ele>
        <time>2020-09-20T07:08:51.000Z</time>
      </trkpt>
      <trkpt lat="43.60862" lon="3.86882">
        <ele>46.450647912057</ele>
        <time>2020-09-20T07:08:52.000Z</time>
      </trkpt>
      <trkpt lat="43.60862" lon="3.86877">
        <ele>46.350947046557</ele>
        <time>2020-09-20T07:08:53.000Z</time>
      </trkpt>
      <trkpt lat="43.60863" lon="3.86872">
        <ele>46.251246181058</ele>
        <time>2020-09-20T07:08:54.000Z</time>
      </trkpt>
      <trkpt lat="43.60864" lon="3.86866">
        <ele>46.151545315559</ele>
        <time>2020-09-20T07:08:55.000Z</time>
      </trkpt>
      <trkpt lat="43.60864" lon="3.8686">
        <ele>46.05184445006</ele>
        <time>2020-09-20T07:08:56.000Z</time>
      </trkpt>
      <trkpt lat="43.60865" lon="3.86855">
        <ele>46</ele>
        <time>2020-09-20T07:08:57.000Z</time>
      </trkpt>
      <trkpt lat="43.60866" lon="3.86849">
        <ele>46</ele>
        <time>2020-09-20T07:08:58.000Z</time>
      </trkpt>
      <trkpt lat="43.60866" lon="3.86843">
        <ele>46</ele>
        <time>2020-09-20T07:08:59.000Z</time>
      </trkpt>
      <trkpt lat="43.60868" lon="3.86837">
        <ele>46</ele>
        <time>2020-09-20T07:09:00.000Z</time>
      </trkpt>
      <trkpt lat="43.60869" lon="3.86832">
        <ele>46</ele>
        <time>2020-09-20T07:09:01.000Z</time>
      </trkpt>
      <trkpt lat="43.6087" lon="3.86827">
        <ele>46</ele>
        <time>2020-09-20T07:09:02.000Z</time>
      </trkpt>
      <trkpt lat="43.60871" lon="3.86822">
        <ele>46</ele>
        <time>2020-09-20T07:09:03.000Z</time>
      </trkpt>
      <trkpt lat="43.60872" lon="3.86817">
        <ele>46</ele>
        <time>2020-09-20T07:09:04.000Z</time>
      </trkpt>
      <trkpt lat="43.60873" lon="3.86811">
        <ele>46</ele>
        <time>2020-09-20T07:09:05.000Z</time>
      </trkpt>
      <trkpt lat="43.60874" lon="3.86806">
        <ele>46</ele>
        <time>2020-09-20T07:09:06.000Z</time>
      </trkpt>
      <trkpt lat="43.60875" lon="3.86801">
        <ele>45.84699904</ele>
        <time>2020-09-20T07:09:07.000Z</time>
      </trkpt>
      <trkpt lat="43.60876" lon="3.86795">
        <ele>45.54699904</ele>
        <time>2020-09-20T07:09:08.000Z</time>
      </trkpt>
      <trkpt lat="43.60877" lon="3.86789">
        <ele>45.24699904</ele>
        <time>2020-09-20T07:09:09.000Z</time>
      </trkpt>
      <trkpt lat="43.60878" lon="3.86783">
        <ele>44.94699904</ele>
        <time>2020-09-20T07:09:10.000Z</time>
      </trkpt>
      <trkpt lat="43.6088" lon="3.86778">
        <ele>44.64699904</ele>
        <time>2020-09-20T07:09:11.000Z</time>
      </trkpt>
      <trkpt lat="43.60881" lon="3.86773">
        <ele>44.34699904</ele>
        <time>2020-09-20T07:09:12.000Z</time>
      </trkpt>
      <trkpt lat="43.60883" lon="3.86767">
        <ele>44.04699904</ele>
        <time>2020-09-20T07:09:13.000Z</time>
      </trkpt>
      <trkpt lat="43.60885" lon="3.86762">
        <ele>43.74699904</ele>
        <time>2020-09-20T07:09:14.000Z</time>
      </trkpt>
      <trkpt lat="43.60887" lon="3.86757">
        <ele>43.44699904</ele>
        <time>2020-09-20T07:09:15.000Z</time>
      </trkpt>
      <trkpt lat="43.6089" lon="3.86752">
        <ele>43.14699904</ele>
        <time>2020-09-20T07:09:16.000Z</time>
      </trkpt>
      <trkpt lat="43.60892" lon="3.86747">
        <ele>42.950437053042</ele>
        <time>2020-09-20T07:09:17.000Z</time>
      </trkpt>
      <trkpt lat="43.60894" lon="3.86742">
        <ele>42.853255413873</ele>
        <time>2020-09-20T07:09:18.000Z</time>
      </trkpt>
      <trkpt lat="43.60896" lon="3.86737">
        <ele>42.756073774703</ele>
        <time>2020-09-20T07:09:19.000Z</time>
      </trkpt>
      <trkpt lat="43.60898" lon="3.86732">
        <ele>42.658892135533</ele>
        <time>2020-09-20T07:09:20.000Z</time>
      </trkpt>
      <trkpt lat="43.609" lon="3.86727">
        <ele>42.561710496363</ele>
        <time>2020-09-20T07:09:21.000Z</time>
      </trkpt>
      <trkpt lat="43.60902" lon="3.86722">
        <ele>42.464528857194</ele>
        <time>2020-09-20T07:09:22.000Z</time>
      </trkpt>
      <trkpt lat="43.60903" lon="3.86717">
        <ele>42.367347218024</ele>
        <time>2020-09-20T07:09:23.000Z</time>
      </trkpt>
      <trkpt lat="43.60905" lon="3.86712">
        <ele>42.270165578854</ele>
        <time>2020-09-20T07:09:24.000Z</time>
      </trkpt>
      <trkpt lat="43.60907" lon="3.86708">
        <ele>42.172983939685</ele>
        <time>2020-09-20T07:09:25.000Z</time>
      </trkpt>
      <trkpt lat="43.60908" lon="3.86704">
        <ele>42.075802300515</ele>
        <time>2020-09-20T07:09:26.000Z</time>
      </trkpt>
      <trkpt lat="43.60909" lon="3.86701">
        <ele>41.977343582132</ele>
        <time>2020-09-20T07:09:27.000Z</time>
      </trkpt>
      <trkpt lat="43.6091" lon="3.86698">
        <ele>41.874356868571</ele>
        <time>2020-09-20T07:09:28.000Z</time>
      </trkpt>
      <trkpt lat="43.6091" lon="3.86696">
        <ele>41.771370155011</ele>
        <time>2020-09-20T07:09:29.000Z</time>
      </trkpt>
      <trkpt lat="43.6091" lon="3.86692">
        <ele>41.66838344145</ele>
        <time>2020-09-20T07:09:30.000Z</time>
      </trkpt>
      <trkpt lat="43.6091" lon="3.86689">
        <ele>41.56539672789</ele>
        <time>2020-09-20T07:09:31.000Z</time>
      </trkpt>
      <trkpt lat="43.60911" lon="3.86685">
        <ele>41.462410014329</ele>
        <time>2020-09-20T07:09:32.000Z</time>
      </trkpt>
      <trkpt lat="43.60913" lon="3.86681">
        <ele>41.359423300769</ele>
        <time>2020-09-20T07:09:33.000Z</time>
      </trkpt>
      <trkpt lat="43.60914" lon="3.86676">
        <ele>41.256436587208</ele>
        <time>2020-09-20T07:09:34.000Z</time>
      </trkpt>
      <trkpt lat="43.60916" lon="3.86671">
        <ele>41.153449873648</ele>
        <time>2020-09-20T07:09:35.000Z</time>
      </trkpt>
      <trkpt lat="43.60917" lon="3.86666">
        <ele>41.050463160087</ele>
        <time>2020-09-20T07:09:36.000Z</time>
      </trkpt>
      <trkpt lat="43.60918" lon="3.8666">
        <ele>41.05100032</ele>
        <time>2020-09-20T07:09:37.000Z</time>
      </trkpt>
      <trkpt lat="43.60919" lon="3.86655">
        <ele>41.15100032</ele>
        <time>2020-09-20T07:09:38.000Z</time>
      </trkpt>
      <trkpt lat="43.6092" lon="3.86649">
        <ele>41.25100032</ele>
        <time>2020-09-20T07:09:39.000Z</time>
      </trkpt>
      <trkpt lat="43.60921" lon="3.86644">
        <ele>41.35100032</ele>
        <time>2020-09-20T07:09:40.000Z</time>
      </trkpt>
      <trkpt lat="43.60923" lon="3.86638">
        <ele>41.45100032</ele>
        <time>2020-09-20T07:09:41.000Z</time>
      </trkpt>
      <trkpt lat="43.60924" lon="3.86633">
        <ele>41.55100032</ele>
        <time>2020-09-20T07:09:42.000Z</time>
      </trkpt>
      <trkpt lat="43.60925" lon="3.86627">
        <ele>41.65100032</ele>
        <time>2020-09-20T07:09:43.000Z</time>
      </trkpt>
      <trkpt lat="43.60926" lon="3.86622">
        <ele>41.75100032</ele>
        <time>2020-09-20T07:09:44.000Z</time>
      </trkpt>
      <trkpt lat="43.60927" lon="3.86617">
        <ele>41.85100032</ele>
        <time>2020-09-20T07:09:45.000Z</time>
      </trkpt>
      <trkpt lat="43.60928" lon="3.86612">
        <ele>41.95100032</ele>
        <time>2020-09-20T07:09:46.000Z</time>
      </trkpt>
      <trkpt lat="43.60929" lon="3.86607">
        <ele>42.05100032</ele>
        <time>2020-09-20T07:09:47.000Z</time>
      </trkpt>
      <trkpt lat="43.60929" lon="3.86601">
        <ele>42.15100032</ele>
        <time>2020-09-20T07:09:48.000Z</time>
      </trkpt>
      <trkpt lat="43.6093" lon="3.86596">
        <ele>42.25100032</ele>
        <time>2020-09-20T07:09:49.000Z</time>
      </trkpt>
      <trkpt lat="43.60931" lon="3.86591">
        <ele>42.35100032</ele>
        <time>2020-09-20T07:09:50.000Z</time>
      </trkpt>
      <trkpt lat="43.60932" lon="3.86586">
        <ele>42.45100032</ele>
        <time>2020-09-20T07:09:51.000Z</time>
      </trkpt>
      <trkpt lat="43.60933" lon="3.86581">
        <ele>42.55100032</ele>
        <time>2020-09-20T07:09:52.000Z</time>
      </trkpt>
      <trkpt lat="43.60934" lon="3.86576">
        <ele>42.65100032</ele>
        <time>2020-09-20T07:09:53.000Z</time>
      </trkpt>
      <trkpt lat="43.60935" lon="3.86571">
        <ele>42.75100032</ele>
        <time>2020-09-20T07:09:54.000Z</time>
      </trkpt>
      <trkpt lat="43.60936" lon="3.86567">
        <ele>42.85100032</ele>
        <time>2020-09-20T07:09:55.000Z</time>
      </trkpt>
      <trkpt lat="43.60937" lon="3.86562">
        <ele>42.95100032</ele>
        <time>2020-09-20T07:09:56.000Z</time>
      </trkpt>
      <trkpt lat="43.60937" lon="3.86558">
        <ele>43.05100032</ele>
        <time>2020-09-20T07:09:57.000Z</time>
      </trkpt>
      <trkpt lat="43.60938" lon="3.86553">
        <ele>43.15100032</ele>
        <time>2020-09-20T07:09:58.000Z</time>
      </trkpt>
      <trkpt lat="43.60939" lon="3.86549">
        <ele>43.25100032</ele>
        <time>2020-09-20T07:09:59.000Z</time>
      </trkpt>
      <trkpt lat="43.6094" lon="3.86544">
        <ele>43.35100032</ele>
        <time>2020-09-20T07:10:00.000Z</time>
      </trkpt>
      <trkpt lat="43.60941" lon="3.8654">
        <ele>43.45100032</ele>
        <time>2020-09-20T07:10:01.000Z</time>
      </trkpt>
      <trkpt lat="43.60942" lon="3.86536">
        <ele>43.55100032</ele>
        <time>2020-09-20T07:10:02.000Z</time>
      </trkpt>
      <trkpt lat="43.60943" lon="3.86531">
        <ele>43.65100032</ele>
        <time>2020-09-20T07:10:03.000Z</time>
      </trkpt>
      <trkpt lat="43.60943" lon="3.86527">
        <ele>43.75100032</ele>
        <time>2020-09-20T07:10:04.000Z</time>
      </trkpt>
      <trkpt lat="43.60944" lon="3.86522">
        <ele>43.85100032</ele>
        <time>2020-09-20T07:10:05.000Z</time>
      </trkpt>
      <trkpt lat="43.60945" lon="3.86518">
        <ele>43.95100032</ele>
        <time>2020-09-20T07:10:06.000Z</time>
      </trkpt>
      <trkpt lat="43.60946" lon="3.86513">
        <ele>44.05100032</ele>
        <time>2020-09-20T07:10:07.000Z</time>
      </trkpt>
      <trkpt lat="43.60946" lon="3.86509">
        <ele>44.15100032</ele>
        <time>2020-09-20T07:10:08.000Z</time>
      </trkpt>
      <trkpt lat="43.60947" lon="3.86504">
        <ele>44.25100032</ele>
        <time>2020-09-20T07:10:09.000Z</time>
      </trkpt>
      <trkpt lat="43.60948" lon="3.865">
        <ele>44.35100032</ele>
        <time>2020-09-20T07:10:10.000Z</time>
      </trkpt>
      <trkpt lat="43.60948" lon="3.86496">
        <ele>44.45100032</ele>
        <time>2020-09-20T07:10:11.000Z</time>
      </trkpt>
      <trkpt lat="43.60949" lon="3.86491">
        <ele>44.55100032</ele>
        <time>2020-09-20T07:10:12.000Z</time>
      </trkpt>
      <trkpt lat="43.6095" lon="3.86487">
        <ele>44.65100032</ele>
        <time>2020-09-20T07:10:13.000Z</time>
      </trkpt>
      <trkpt lat="43.60951" lon="3.86483">
        <ele>44.75100032</ele>
        <time>2020-09-20T07:10:14.000Z</time>
      </trkpt>
      <trkpt lat="43.60952" lon="3.86478">
        <ele>44.85100032</ele>
        <time>2020-09-20T07:10:15.000Z</time>
      </trkpt>
      <trkpt lat="43.60952" lon="3.86474">
        <ele>44.95100032</ele>
        <time>2020-09-20T07:10:16.000Z</time>
      </trkpt>
      <trkpt lat="43.60953" lon="3.8647">
        <ele>45.05100032</ele>
        <time>2020-09-20T07:10:17.000Z</time>
      </trkpt>
      <trkpt lat="43.60954" lon="3.86465">
        <ele>45.15100032</ele>
        <time>2020-09-20T07:10:18.000Z</time>
      </trkpt>
      <trkpt lat="43.60955" lon="3.86461">
        <ele>45.25100032</ele>
        <time>2020-09-20T07:10:19.000Z</time>
      </trkpt>
      <trkpt lat="43.60956" lon="3.86457">
        <ele>45.35100032</ele>
        <time>2020-09-20T07:10:20.000Z</time>
      </trkpt>
      <trkpt lat="43.60957" lon="3.86453">
        <ele>45.45100032</ele>
        <time>2020-09-20T07:10:21.000Z</time>
      </trkpt>
      <trkpt lat="43.60958" lon="3.86449">
        <ele>45.55100032</ele>
        <time>2020-09-20T07:10:22.000Z</time>
      </trkpt>
      <trkpt lat="43.60959" lon="3.86444">
        <ele>45.65100032</ele>
        <time>2020-09-20T07:10:23.000Z</time>
      </trkpt>
      <trkpt lat="43.60959" lon="3.8644">
        <ele>45.75100032</ele>
        <time>2020-09-20T07:10:24.000Z</time>
      </trkpt>
      <trkpt lat="43.6096" lon="3.86436">
        <ele>45.85100032</ele>
        <time>2020-09-20T07:10:25.000Z</time>
      </trkpt>
      <trkpt lat="43.60961" lon="3.86432">
        <ele>45.95100032</ele>
        <time>2020-09-20T07:10:26.000Z</time>
      </trkpt>
      <trkpt lat="43.60962" lon="3.86427">
        <ele>46.05100032</ele>
        <time>2020-09-20T07:10:27.000Z</time>
      </trkpt>
      <trkpt lat="43.60963" lon="3.86423">
        <ele>46.15100032</ele>
        <time>2020-09-20T07:10:28.000Z</time>
      </trkpt>
      <trkpt lat="43.60963" lon="3.86419">
        <ele>46.25100032</ele>
        <time>2020-09-20T07:10:29.000Z</time>
      </trkpt>
      <trkpt lat="43.60964" lon="3.86414">
        <ele>46.35100032</ele>
        <time>2020-09-20T07:10:30.000Z</time>
      </trkpt>
      <trkpt lat="43.60965" lon="3.8641">
        <ele>46.45100032</ele>
        <time>2020-09-20T07:10:31.000Z</time>
      </trkpt>
      <trkpt lat="43.60965" lon="3.86406">
        <ele>46.55100032</ele>
        <time>2020-09-20T07:10:32.000Z</time>
      </trkpt>
      <trkpt lat="43.60966" lon="3.86402">
        <ele>46.65100032</ele>
        <time>2020-09-20T07:10:33.000Z</time>
      </trkpt>
      <trkpt lat="43.60967" lon="3.86398">
        <ele>46.75100032</ele>
        <time>2020-09-20T07:10:34.000Z</time>
      </trkpt>
      <trkpt lat="43.60968" lon="3.86393">
        <ele>46.85100032</ele>
        <time>2020-09-20T07:10:35.000Z</time>
      </trkpt>
      <trkpt lat="43.60969" lon="3.86389">
        <ele>46.95100032</ele>
        <time>2020-09-20T07:10:36.000Z</time>
      </trkpt>
      <trkpt lat="43.6097" lon="3.86385">
        <ele>47.099804869007</ele>
        <time>2020-09-20T07:10:37.000Z</time>
      </trkpt>
      <trkpt lat="43.60971" lon="3.86381">
        <ele>47.295499462701</ele>
        <time>2020-09-20T07:10:38.000Z</time>
      </trkpt>
      <trkpt lat="43.60971" lon="3.86376">
        <ele>47.491194056395</ele>
        <time>2020-09-20T07:10:39.000Z</time>
      </trkpt>
      <trkpt lat="43.60972" lon="3.86372">
        <ele>47.686888650089</ele>
        <time>2020-09-20T07:10:40.000Z</time>
      </trkpt>
      <trkpt lat="43.60973" lon="3.86368">
        <ele>47.882583243784</ele>
        <time>2020-09-20T07:10:41.000Z</time>
      </trkpt>
      <trkpt lat="43.60974" lon="3.86364">
        <ele>48.078277837478</ele>
        <time>2020-09-20T07:10:42.000Z</time>
      </trkpt>
      <trkpt lat="43.60974" lon="3.8636">
        <ele>48.273972431172</ele>
        <time>2020-09-20T07:10:43.000Z</time>
      </trkpt>
      <trkpt lat="43.60975" lon="3.86356">
        <ele>48.469667024866</ele>
        <time>2020-09-20T07:10:44.000Z</time>
      </trkpt>
      <trkpt lat="43.60976" lon="3.86351">
        <ele>48.66536161856</ele>
        <time>2020-09-20T07:10:45.000Z</time>
      </trkpt>
      <trkpt lat="43.60977" lon="3.86347">
        <ele>48.861056212254</ele>
        <time>2020-09-20T07:10:46.000Z</time>
      </trkpt>
      <trkpt lat="43.60977" lon="3.86343">
        <ele>49.028798084195</ele>
        <time>2020-09-20T07:10:47.000Z</time>
      </trkpt>
      <trkpt lat="43.60978" lon="3.86339">
        <ele>49.128102918577</ele>
        <time>2020-09-20T07:10:48.000Z</time>
      </trkpt>
      <trkpt lat="43.60979" lon="3.86334">
        <ele>49.227407752959</ele>
        <time>2020-09-20T07:10:49.000Z</time>
      </trkpt>
      <trkpt lat="43.60979" lon="3.8633">
        <ele>49.326712587341</ele>
        <time>2020-09-20T07:10:50.000Z</time>
      </trkpt>
      <trkpt lat="43.6098" lon="3.86326">
        <ele>49.426017421722</ele>
        <time>2020-09-20T07:10:51.000Z</time>
      </trkpt>
      <trkpt lat="43.6098" lon="3.86322">
        <ele>49.525322256104</ele>
        <time>2020-09-20T07:10:52.000Z</time>
      </trkpt>
      <trkpt lat="43.60981" lon="3.86318">
        <ele>49.624627090486</ele>
        <time>2020-09-20T07:10:53.000Z</time>
      </trkpt>
      <trkpt lat="43.60981" lon="3.86314">
        <ele>49.723931924868</ele>
        <time>2020-09-20T07:10:54.000Z</time>
      </trkpt>
      <trkpt lat="43.60982" lon="3.86311">
        <ele>49.823236759249</ele>
        <time>2020-09-20T07:10:55.000Z</time>
      </trkpt>
      <trkpt lat="43.60983" lon="3.86307">
        <ele>49.922541593631</ele>
        <time>2020-09-20T07:10:56.000Z</time>
      </trkpt>
      <trkpt lat="43.60984" lon="3.86303">
        <ele>50.022656417868</ele>
        <time>2020-09-20T07:10:57.000Z</time>
      </trkpt>
      <trkpt lat="43.60984" lon="3.86299">
        <ele>50.125643131429</ele>
        <time>2020-09-20T07:10:58.000Z</time>
      </trkpt>
      <trkpt lat="43.60984" lon="3.86295">
        <ele>50.228629844989</ele>
        <time>2020-09-20T07:10:59.000Z</time>
      </trkpt>
      <trkpt lat="43.60985" lon="3.86292">
        <ele>50.33161655855</ele>
        <time>2020-09-20T07:11:00.000Z</time>
      </trkpt>
      <trkpt lat="43.60985" lon="3.86288">
        <ele>50.43460327211</ele>
        <time>2020-09-20T07:11:01.000Z</time>
      </trkpt>
      <trkpt lat="43.60986" lon="3.86284">
        <ele>50.537589985671</ele>
        <time>2020-09-20T07:11:02.000Z</time>
      </trkpt>
      <trkpt lat="43.60986" lon="3.8628">
        <ele>50.640576699231</ele>
        <time>2020-09-20T07:11:03.000Z</time>
      </trkpt>
      <trkpt lat="43.60987" lon="3.86276">
        <ele>50.743563412792</ele>
        <time>2020-09-20T07:11:04.000Z</time>
      </trkpt>
      <trkpt lat="43.60987" lon="3.86273">
        <ele>50.846550126352</ele>
        <time>2020-09-20T07:11:05.000Z</time>
      </trkpt>
      <trkpt lat="43.60988" lon="3.86269">
        <ele>50.949536839913</ele>
        <time>2020-09-20T07:11:06.000Z</time>
      </trkpt>
      <trkpt lat="43.60988" lon="3.86265">
        <ele>51.050696110889</ele>
        <time>2020-09-20T07:11:07.000Z</time>
      </trkpt>
      <trkpt lat="43.60988" lon="3.86261">
        <ele>51.150099626179</ele>
        <time>2020-09-20T07:11:08.000Z</time>
      </trkpt>
      <trkpt lat="43.60989" lon="3.86258">
        <ele>51.249503141469</ele>
        <time>2020-09-20T07:11:09.000Z</time>
      </trkpt>
      <trkpt lat="43.60989" lon="3.86254">
        <ele>51.348906656759</ele>
        <time>2020-09-20T07:11:10.000Z</time>
      </trkpt>
      <trkpt lat="43.6099" lon="3.8625">
        <ele>51.448310172049</ele>
        <time>2020-09-20T07:11:11.000Z</time>
      </trkpt>
      <trkpt lat="43.6099" lon="3.86246">
        <ele>51.547713687339</ele>
        <time>2020-09-20T07:11:12.000Z</time>
      </trkpt>
      <trkpt lat="43.60991" lon="3.86242">
        <ele>51.647117202629</ele>
        <time>2020-09-20T07:11:13.000Z</time>
      </trkpt>
      <trkpt lat="43.60991" lon="3.86239">
        <ele>51.746520717919</ele>
        <time>2020-09-20T07:11:14.000Z</time>
      </trkpt>
      <trkpt lat="43.60992" lon="3.86235">
        <ele>51.845924233209</ele>
        <time>2020-09-20T07:11:15.000Z</time>
      </trkpt>
      <trkpt lat="43.60992" lon="3.86231">
        <ele>51.945327748499</ele>
        <time>2020-09-20T07:11:16.000Z</time>
      </trkpt>
      <trkpt lat="43.60993" lon="3.86227">
        <ele>52.045271336996</ele>
        <time>2020-09-20T07:11:17.000Z</time>
      </trkpt>
      <trkpt lat="43.60993" lon="3.86224">
        <ele>52.145875023501</ele>
        <time>2020-09-20T07:11:18.000Z</time>
      </trkpt>
      <trkpt lat="43.60994" lon="3.8622">
        <ele>52.246478710006</ele>
        <time>2020-09-20T07:11:19.000Z</time>
      </trkpt>
      <trkpt lat="43.60994" lon="3.86216">
        <ele>52.347082396512</ele>
        <time>2020-09-20T07:11:20.000Z</time>
      </trkpt>
      <trkpt lat="43.60994" lon="3.86213">
        <ele>52.447686083017</ele>
        <time>2020-09-20T07:11:21.000Z</time>
      </trkpt>
      <trkpt lat="43.60995" lon="3.86209">
        <ele>52.548289769523</ele>
        <time>2020-09-20T07:11:22.000Z</time>
      </trkpt>
      <trkpt lat="43.60995" lon="3.86205">
        <ele>52.648893456028</ele>
        <time>2020-09-20T07:11:23.000Z</time>
      </trkpt>
      <trkpt lat="43.60996" lon="3.86201">
        <ele>52.749497142533</ele>
        <time>2020-09-20T07:11:24.000Z</time>
      </trkpt>
      <trkpt lat="43.60996" lon="3.86198">
        <ele>52.850100829039</ele>
        <time>2020-09-20T07:11:25.000Z</time>
      </trkpt>
      <trkpt lat="43.60997" lon="3.86194">
        <ele>52.950704515544</ele>
        <time>2020-09-20T07:11:26.000Z</time>
      </trkpt>
      <trkpt lat="43.60998" lon="3.86191">
        <ele>53.049562946958</ele>
        <time>2020-09-20T07:11:27.000Z</time>
      </trkpt>
      <trkpt lat="43.61" lon="3.86188">
        <ele>53.146744586127</ele>
        <time>2020-09-20T07:11:28.000Z</time>
      </trkpt>
      <trkpt lat="43.61001" lon="3.86184">
        <ele>53.243926225297</ele>
        <time>2020-09-20T07:11:29.000Z</time>
      </trkpt>
      <trkpt lat="43.61002" lon="3.86181">
        <ele>53.341107864467</ele>
        <time>2020-09-20T07:11:30.000Z</time>
      </trkpt>
      <trkpt lat="43.61003" lon="3.86178">
        <ele>53.438289503637</ele>
        <time>2020-09-20T07:11:31.000Z</time>
      </trkpt>
      <trkpt lat="43.61003" lon="3.86174">
        <ele>53.535471142806</ele>
        <time>2020-09-20T07:11:32.000Z</time>
      </trkpt>
      <trkpt lat="43.61004" lon="3.86171">
        <ele>53.632652781976</ele>
        <time>2020-09-20T07:11:33.000Z</time>
      </trkpt>
      <trkpt lat="43.61004" lon="3.86167">
        <ele>53.729834421146</ele>
        <time>2020-09-20T07:11:34.000Z</time>
      </trkpt>
      <trkpt lat="43.61004" lon="3.86163">
        <ele>53.827016060315</ele>
        <time>2020-09-20T07:11:35.000Z</time>
      </trkpt>
      <trkpt lat="43.61005" lon="3.8616">
        <ele>53.924197699485</ele>
        <time>2020-09-20T07:11:36.000Z</time>
      </trkpt>
      <trkpt lat="43.61005" lon="3.86156">
        <ele>54.045312835737</ele>
        <time>2020-09-20T07:11:37.000Z</time>
      </trkpt>
      <trkpt lat="43.61006" lon="3.86153">
        <ele>54.251286262858</ele>
        <time>2020-09-20T07:11:38.000Z</time>
      </trkpt>
      <trkpt lat="43.61006" lon="3.8615">
        <ele>54.457259689979</ele>
        <time>2020-09-20T07:11:39.000Z</time>
      </trkpt>
      <trkpt lat="43.61006" lon="3.86146">
        <ele>54.6632331171</ele>
        <time>2020-09-20T07:11:40.000Z</time>
      </trkpt>
      <trkpt lat="43.61007" lon="3.86143">
        <ele>54.869206544221</ele>
        <time>2020-09-20T07:11:41.000Z</time>
      </trkpt>
      <trkpt lat="43.61008" lon="3.86139">
        <ele>55.075179971342</ele>
        <time>2020-09-20T07:11:42.000Z</time>
      </trkpt>
      <trkpt lat="43.61008" lon="3.86135">
        <ele>55.281153398463</ele>
        <time>2020-09-20T07:11:43.000Z</time>
      </trkpt>
      <trkpt lat="43.61008" lon="3.86132">
        <ele>55.487126825584</ele>
        <time>2020-09-20T07:11:44.000Z</time>
      </trkpt>
      <trkpt lat="43.61007" lon="3.86128">
        <ele>55.693100252705</ele>
        <time>2020-09-20T07:11:45.000Z</time>
      </trkpt>
      <trkpt lat="43.61007" lon="3.86124">
        <ele>55.899073679826</ele>
        <time>2020-09-20T07:11:46.000Z</time>
      </trkpt>
      <trkpt lat="43.61007" lon="3.8612">
        <ele>56.049418914729</ele>
        <time>2020-09-20T07:11:47.000Z</time>
      </trkpt>
      <trkpt lat="43.61007" lon="3.86117">
        <ele>56.146318139535</ele>
        <time>2020-09-20T07:11:48.000Z</time>
      </trkpt>
      <trkpt lat="43.61007" lon="3.86113">
        <ele>56.243217364341</ele>
        <time>2020-09-20T07:11:49.000Z</time>
      </trkpt>
      <trkpt lat="43.61008" lon="3.86109">
        <ele>56.340116589147</ele>
        <time>2020-09-20T07:11:50.000Z</time>
      </trkpt>
      <trkpt lat="43.61008" lon="3.86106">
        <ele>56.437015813954</ele>
        <time>2020-09-20T07:11:51.000Z</time>
      </trkpt>
      <trkpt lat="43.61008" lon="3.86102">
        <ele>56.53391503876</ele>
        <time>2020-09-20T07:11:52.000Z</time>
      </trkpt>
      <trkpt lat="43.61009" lon="3.86099">
        <ele>56.630814263566</ele>
        <time>2020-09-20T07:11:53.000Z</time>
      </trkpt>
      <trkpt lat="43.61009" lon="3.86095">
        <ele>56.727713488372</ele>
        <time>2020-09-20T07:11:54.000Z</time>
      </trkpt>
      <trkpt lat="43.61009" lon="3.86092">
        <ele>56.824612713178</ele>
        <time>2020-09-20T07:11:55.000Z</time>
      </trkpt>
      <trkpt lat="43.6101" lon="3.86088">
        <ele>56.921511937984</ele>
        <time>2020-09-20T07:11:56.000Z</time>
      </trkpt>
      <trkpt lat="43.6101" lon="3.86085">
        <ele>57.019038384585</ele>
        <time>2020-09-20T07:11:57.000Z</time>
      </trkpt>
      <trkpt lat="43.6101" lon="3.86081">
        <ele>57.119238721129</ele>
        <time>2020-09-20T07:11:58.000Z</time>
      </trkpt>
      <trkpt lat="43.61011" lon="3.86078">
        <ele>57.219439057674</ele>
        <time>2020-09-20T07:11:59.000Z</time>
      </trkpt>
      <trkpt lat="43.61011" lon="3.86074">
        <ele>57.319639394219</ele>
        <time>2020-09-20T07:12:00.000Z</time>
      </trkpt>
      <trkpt lat="43.61011" lon="3.8607">
        <ele>57.419839730764</ele>
        <time>2020-09-20T07:12:01.000Z</time>
      </trkpt>
      <trkpt lat="43.61012" lon="3.86067">
        <ele>57.520040067309</ele>
        <time>2020-09-20T07:12:02.000Z</time>
      </trkpt>
      <trkpt lat="43.61012" lon="3.86063">
        <ele>57.620240403854</ele>
        <time>2020-09-20T07:12:03.000Z</time>
      </trkpt>
      <trkpt lat="43.61012" lon="3.8606">
        <ele>57.720440740399</ele>
        <time>2020-09-20T07:12:04.000Z</time>
      </trkpt>
      <trkpt lat="43.61013" lon="3.86056">
        <ele>57.820641076944</ele>
        <time>2020-09-20T07:12:05.000Z</time>
      </trkpt>
      <trkpt lat="43.61013" lon="3.86052">
        <ele>57.920841413489</ele>
        <time>2020-09-20T07:12:06.000Z</time>
      </trkpt>
      <trkpt lat="43.61013" lon="3.86048">
        <ele>58.021649168923</ele>
        <time>2020-09-20T07:12:07.000Z</time>
      </trkpt>
      <trkpt lat="43.61014" lon="3.86044">
        <ele>58.124742020448</ele>
        <time>2020-09-20T07:12:08.000Z</time>
      </trkpt>
      <trkpt lat="43.61014" lon="3.86041">
        <ele>58.227834871973</ele>
        <time>2020-09-20T07:12:09.000Z</time>
      </trkpt>
      <trkpt lat="43.61014" lon="3.86037">
        <ele>58.330927723499</ele>
        <time>2020-09-20T07:12:10.000Z</time>
      </trkpt>
      <trkpt lat="43.61015" lon="3.86033">
        <ele>58.434020575024</ele>
        <time>2020-09-20T07:12:11.000Z</time>
      </trkpt>
      <trkpt lat="43.61015" lon="3.86029">
        <ele>58.537113426549</ele>
        <time>2020-09-20T07:12:12.000Z</time>
      </trkpt>
      <trkpt lat="43.61015" lon="3.86025">
        <ele>58.640206278074</ele>
        <time>2020-09-20T07:12:13.000Z</time>
      </trkpt>
      <trkpt lat="43.61016" lon="3.86021">
        <ele>58.743299129599</ele>
        <time>2020-09-20T07:12:14.000Z</time>
      </trkpt>
      <trkpt lat="43.61016" lon="3.86017">
        <ele>58.846391981125</ele>
        <time>2020-09-20T07:12:15.000Z</time>
      </trkpt>
      <trkpt lat="43.61017" lon="3.86013">
        <ele>58.94948483265</ele>
        <time>2020-09-20T07:12:16.000Z</time>
      </trkpt>
      <trkpt lat="43.61017" lon="3.8601">
        <ele>59.05100032</ele>
        <time>2020-09-20T07:12:17.000Z</time>
      </trkpt>
      <trkpt lat="43.61018" lon="3.86006">
        <ele>59.15100032</ele>
        <time>2020-09-20T07:12:18.000Z</time>
      </trkpt>
      <trkpt lat="43.61019" lon="3.86002">
        <ele>59.25100032</ele>
        <time>2020-09-20T07:12:19.000Z</time>
      </trkpt>
      <trkpt lat="43.61019" lon="3.85998">
        <ele>59.35100032</ele>
        <time>2020-09-20T07:12:20.000Z</time>
      </trkpt>
      <trkpt lat="43.6102" lon="3.85995">
        <ele>59.45100032</ele>
        <time>2020-09-20T07:12:21.000Z</time>
      </trkpt>
      <trkpt lat="43.6102" lon="3.85991">
        <ele>59.55100032</ele>
        <time>2020-09-20T07:12:22.000Z</time>
      </trkpt>
      <trkpt lat="43.6102" lon="3.85987">
        <ele>59.65100032</ele>
        <time>2020-09-20T07:12:23.000Z</time>
      </trkpt>
      <trkpt lat="43.61021" lon="3.85984">
        <ele>59.75100032</ele>
        <time>2020-09-20T07:12:24.000Z</time>
      </trkpt>
      <trkpt lat="43.61022" lon="3.8598">
        <ele>59.85100032</ele>
        <time>2020-09-20T07:12:25.000Z</time>
      </trkpt>
      <trkpt lat="43.61022" lon="3.85976">
        <ele>59.95100032</ele>
        <time>2020-09-20T07:12:26.000Z</time>
      </trkpt>
      <trkpt lat="43.61023" lon="3.85973">
        <ele>60.101898773834</ele>
        <time>2020-09-20T07:12:27.000Z</time>
      </trkpt>
      <trkpt lat="43.61023" lon="3.85969">
        <ele>60.301699037506</ele>
        <time>2020-09-20T07:12:28.000Z</time>
      </trkpt>
      <trkpt lat="43.61024" lon="3.85965">
        <ele>60.501499301179</ele>
        <time>2020-09-20T07:12:29.000Z</time>
      </trkpt>
      <trkpt lat="43.61025" lon="3.85961">
        <ele>60.701299564851</ele>
        <time>2020-09-20T07:12:30.000Z</time>
      </trkpt>
      <trkpt lat="43.61025" lon="3.85958">
        <ele>60.901099828523</ele>
        <time>2020-09-20T07:12:31.000Z</time>
      </trkpt>
      <trkpt lat="43.61026" lon="3.85954">
        <ele>61.100900092196</ele>
        <time>2020-09-20T07:12:32.000Z</time>
      </trkpt>
      <trkpt lat="43.61027" lon="3.8595">
        <ele>61.300700355868</ele>
        <time>2020-09-20T07:12:33.000Z</time>
      </trkpt>
      <trkpt lat="43.61028" lon="3.85946">
        <ele>61.500500619541</ele>
        <time>2020-09-20T07:12:34.000Z</time>
      </trkpt>
      <trkpt lat="43.61028" lon="3.85942">
        <ele>61.700300883213</ele>
        <time>2020-09-20T07:12:35.000Z</time>
      </trkpt>
      <trkpt lat="43.61029" lon="3.85938">
        <ele>61.900101146885</ele>
        <time>2020-09-20T07:12:36.000Z</time>
      </trkpt>
      <trkpt lat="43.6103" lon="3.85934">
        <ele>62.05000064</ele>
        <time>2020-09-20T07:12:37.000Z</time>
      </trkpt>
      <trkpt lat="43.6103" lon="3.85931">
        <ele>62.15000064</ele>
        <time>2020-09-20T07:12:38.000Z</time>
      </trkpt>
      <trkpt lat="43.61031" lon="3.85927">
        <ele>62.25000064</ele>
        <time>2020-09-20T07:12:39.000Z</time>
      </trkpt>
      <trkpt lat="43.61032" lon="3.85923">
        <ele>62.35000064</ele>
        <time>2020-09-20T07:12:40.000Z</time>
      </trkpt>
      <trkpt lat="43.61033" lon="3.85919">
        <ele>62.45000064</ele>
        <time>2020-09-20T07:12:41.000Z</time>
      </trkpt>
      <trkpt lat="43.61033" lon="3.85916">
        <ele>62.55000064</ele>
        <time>2020-09-20T07:12:42.000Z</time>
      </trkpt>
      <trkpt lat="43.61034" lon="3.85912">
        <ele>62.65000064</ele>
        <time>2020-09-20T07:12:43.000Z</time>
      </trkpt>
      <trkpt lat="43.61035" lon="3.85908">
        <ele>62.75000064</ele>
        <time>2020-09-20T07:12:44.000Z</time>
      </trkpt>
      <trkpt lat="43.61036" lon="3.85904">
        <ele>62.85000064</ele>
        <time>2020-09-20T07:12:45.000Z</time>
      </trkpt>
      <trkpt lat="43.61037" lon="3.85901">
        <ele>62.95000064</ele>
        <time>2020-09-20T07:12:46.000Z</time>
      </trkpt>
      <trkpt lat="43.61037" lon="3.85897">
        <ele>63</ele>
        <time>2020-09-20T07:12:47.000Z</time>
      </trkpt>
      <trkpt lat="43.61038" lon="3.85893">
        <ele>63</ele>
        <time>2020-09-20T07:12:48.000Z</time>
      </trkpt>
      <trkpt lat="43.61039" lon="3.8589">
        <ele>63</ele>
        <time>2020-09-20T07:12:49.000Z</time>
      </trkpt>
      <trkpt lat="43.6104" lon="3.85886">
        <ele>63</ele>
        <time>2020-09-20T07:12:50.000Z</time>
      </trkpt>
      <trkpt lat="43.6104" lon="3.85882">
        <ele>63</ele>
        <time>2020-09-20T07:12:51.000Z</time>
      </trkpt>
      <trkpt lat="43.61041" lon="3.85878">
        <ele>63</ele>
        <time>2020-09-20T07:12:52.000Z</time>
      </trkpt>
      <trkpt lat="43.61042" lon="3.85875">
        <ele>63</ele>
        <time>2020-09-20T07:12:53.000Z</time>
      </trkpt>
      <trkpt lat="43.61043" lon="3.85871">
        <ele>63</ele>
        <time>2020-09-20T07:12:54.000Z</time>
      </trkpt>
      <trkpt lat="43.61044" lon="3.85868">
        <ele>63</ele>
        <time>2020-09-20T07:12:55.000Z</time>
      </trkpt>
      <trkpt lat="43.61044" lon="3.85864">
        <ele>63</ele>
        <time>2020-09-20T07:12:56.000Z</time>
      </trkpt>
      <trkpt lat="43.61045" lon="3.8586">
        <ele>63.050847760447</ele>
        <time>2020-09-20T07:12:57.000Z</time>
      </trkpt>
      <trkpt lat="43.61045" lon="3.85856">
        <ele>63.150548625947</ele>
        <time>2020-09-20T07:12:58.000Z</time>
      </trkpt>
      <trkpt lat="43.61045" lon="3.85852">
        <ele>63.250249491446</ele>
        <time>2020-09-20T07:12:59.000Z</time>
      </trkpt>
      <trkpt lat="43.61044" lon="3.85849">
        <ele>63.349950356945</ele>
        <time>2020-09-20T07:13:00.000Z</time>
      </trkpt>
      <trkpt lat="43.61044" lon="3.85845">
        <ele>63.449651222444</ele>
        <time>2020-09-20T07:13:01.000Z</time>
      </trkpt>
      <trkpt lat="43.61043" lon="3.85841">
        <ele>63.549352087943</ele>
        <time>2020-09-20T07:13:02.000Z</time>
      </trkpt>
      <trkpt lat="43.61043" lon="3.85837">
        <ele>63.649052953443</ele>
        <time>2020-09-20T07:13:03.000Z</time>
      </trkpt>
      <trkpt lat="43.61043" lon="3.85833">
        <ele>63.748753818942</ele>
        <time>2020-09-20T07:13:04.000Z</time>
      </trkpt>
      <trkpt lat="43.61043" lon="3.85829">
        <ele>63.848454684441</ele>
        <time>2020-09-20T07:13:05.000Z</time>
      </trkpt>
      <trkpt lat="43.61043" lon="3.85826">
        <ele>63.94815554994</ele>
        <time>2020-09-20T07:13:06.000Z</time>
      </trkpt>
      <trkpt lat="43.61043" lon="3.85822">
        <ele>64.048144448752</ele>
        <time>2020-09-20T07:13:07.000Z</time>
      </trkpt>
      <trkpt lat="43.61044" lon="3.85818">
        <ele>64.148445383653</ele>
        <time>2020-09-20T07:13:08.000Z</time>
      </trkpt>
      <trkpt lat="43.61045" lon="3.85814">
        <ele>64.248746318554</ele>
        <time>2020-09-20T07:13:09.000Z</time>
      </trkpt>
      <trkpt lat="43.61045" lon="3.8581">
        <ele>64.349047253455</ele>
        <time>2020-09-20T07:13:10.000Z</time>
      </trkpt>
      <trkpt lat="43.61046" lon="3.85806">
        <ele>64.449348188356</ele>
        <time>2020-09-20T07:13:11.000Z</time>
      </trkpt>
      <trkpt lat="43.61046" lon="3.85802">
        <ele>64.549649123257</ele>
        <time>2020-09-20T07:13:12.000Z</time>
      </trkpt>
      <trkpt lat="43.61047" lon="3.85798">
        <ele>64.649950058158</ele>
        <time>2020-09-20T07:13:13.000Z</time>
      </trkpt>
      <trkpt lat="43.61047" lon="3.85794">
        <ele>64.750250993059</ele>
        <time>2020-09-20T07:13:14.000Z</time>
      </trkpt>
      <trkpt lat="43.61047" lon="3.85789">
        <ele>64.85055192796</ele>
        <time>2020-09-20T07:13:15.000Z</time>
      </trkpt>
      <trkpt lat="43.61047" lon="3.85785">
        <ele>64.950852862861</ele>
        <time>2020-09-20T07:13:16.000Z</time>
      </trkpt>
      <trkpt lat="43.61047" lon="3.85781">
        <ele>65</ele>
        <time>2020-09-20T07:13:17.000Z</time>
      </trkpt>
      <trkpt lat="43.61046" lon="3.85777">
        <ele>65</ele>
        <time>2020-09-20T07:13:18.000Z</time>
      </trkpt>
      <trkpt lat="43.61046" lon="3.85772">
        <ele>65</ele>
        <time>2020-09-20T07:13:19.000Z</time>
      </trkpt>
      <trkpt lat="43.61045" lon="3.85768">
        <ele>65</ele>
        <time>2020-09-20T07:13:20.000Z</time>
      </trkpt>
      <trkpt lat="43.61044" lon="3.85762">
        <ele>65</ele>
        <time>2020-09-20T07:13:21.000Z</time>
      </trkpt>
      <trkpt lat="43.61044" lon="3.85757">
        <ele>65</ele>
        <time>2020-09-20T07:13:22.000Z</time>
      </trkpt>
      <trkpt lat="43.61043" lon="3.85752">
        <ele>65</ele>
        <time>2020-09-20T07:13:23.000Z</time>
      </trkpt>
      <trkpt lat="43.61042" lon="3.85746">
        <ele>65</ele>
        <time>2020-09-20T07:13:24.000Z</time>
      </trkpt>
      <trkpt lat="43.61043" lon="3.85741">
        <ele>65</ele>
        <time>2020-09-20T07:13:25.000Z</time>
      </trkpt>
      <trkpt lat="43.61042" lon="3.85735">
        <ele>65</ele>
        <time>2020-09-20T07:13:26.000Z</time>
      </trkpt>
      <trkpt lat="43.61042" lon="3.85729">
        <ele>64.971340829917</ele>
        <time>2020-09-20T07:13:27.000Z</time>
      </trkpt>
      <trkpt lat="43.61042" lon="3.85724">
        <ele>64.86898665105</ele>
        <time>2020-09-20T07:13:28.000Z</time>
      </trkpt>
      <trkpt lat="43.61041" lon="3.85719">
        <ele>64.766632472183</ele>
        <time>2020-09-20T07:13:29.000Z</time>
      </trkpt>
      <trkpt lat="43.6104" lon="3.85713">
        <ele>64.664278293315</ele>
        <time>2020-09-20T07:13:30.000Z</time>
      </trkpt>
      <trkpt lat="43.6104" lon="3.85707">
        <ele>64.561924114448</ele>
        <time>2020-09-20T07:13:31.000Z</time>
      </trkpt>
      <trkpt lat="43.61039" lon="3.85702">
        <ele>64.459569935581</ele>
        <time>2020-09-20T07:13:32.000Z</time>
      </trkpt>
      <trkpt lat="43.61039" lon="3.85696">
        <ele>64.357215756714</ele>
        <time>2020-09-20T07:13:33.000Z</time>
      </trkpt>
      <trkpt lat="43.61038" lon="3.8569">
        <ele>64.254861577846</ele>
        <time>2020-09-20T07:13:34.000Z</time>
      </trkpt>
      <trkpt lat="43.61038" lon="3.85685">
        <ele>64.152507398979</ele>
        <time>2020-09-20T07:13:35.000Z</time>
      </trkpt>
      <trkpt lat="43.61037" lon="3.85679">
        <ele>64.050153220112</ele>
        <time>2020-09-20T07:13:36.000Z</time>
      </trkpt>
      <trkpt lat="43.61037" lon="3.85673">
        <ele>63.94899968</ele>
        <time>2020-09-20T07:13:37.000Z</time>
      </trkpt>
      <trkpt lat="43.61037" lon="3.85667">
        <ele>63.84899968</ele>
        <time>2020-09-20T07:13:38.000Z</time>
      </trkpt>
      <trkpt lat="43.61036" lon="3.85661">
        <ele>63.74899968</ele>
        <time>2020-09-20T07:13:39.000Z</time>
      </trkpt>
      <trkpt lat="43.61036" lon="3.85655">
        <ele>63.64899968</ele>
        <time>2020-09-20T07:13:40.000Z</time>
      </trkpt>
      <trkpt lat="43.61035" lon="3.85649">
        <ele>63.54899968</ele>
        <time>2020-09-20T07:13:41.000Z</time>
      </trkpt>
      <trkpt lat="43.61034" lon="3.85643">
        <ele>63.44899968</ele>
        <time>2020-09-20T07:13:42.000Z</time>
      </trkpt>
      <trkpt lat="43.61033" lon="3.85638">
        <ele>63.34899968</ele>
        <time>2020-09-20T07:13:43.000Z</time>
      </trkpt>
      <trkpt lat="43.61033" lon="3.85632">
        <ele>63.24899968</ele>
        <time>2020-09-20T07:13:44.000Z</time>
      </trkpt>
      <trkpt lat="43.61032" lon="3.85626">
        <ele>63.14899968</ele>
        <time>2020-09-20T07:13:45.000Z</time>
      </trkpt>
      <trkpt lat="43.61031" lon="3.8562">
        <ele>63.04899968</ele>
        <time>2020-09-20T07:13:46.000Z</time>
      </trkpt>
      <trkpt lat="43.6103" lon="3.85615">
        <ele>63</ele>
        <time>2020-09-20T07:13:47.000Z</time>
      </trkpt>
      <trkpt lat="43.6103" lon="3.85609">
        <ele>63</ele>
        <time>2020-09-20T07:13:48.000Z</time>
      </trkpt>
      <trkpt lat="43.61029" lon="3.85604">
        <ele>63</ele>
        <time>2020-09-20T07:13:49.000Z</time>
      </trkpt>
      <trkpt lat="43.61029" lon="3.85598">
        <ele>63</ele>
        <time>2020-09-20T07:13:50.000Z</time>
      </trkpt>
      <trkpt lat="43.61028" lon="3.85593">
        <ele>63</ele>
        <time>2020-09-20T07:13:51.000Z</time>
      </trkpt>
      <trkpt lat="43.61027" lon="3.85588">
        <ele>63</ele>
        <time>2020-09-20T07:13:52.000Z</time>
      </trkpt>
      <trkpt lat="43.61026" lon="3.85582">
        <ele>63</ele>
        <time>2020-09-20T07:13:53.000Z</time>
      </trkpt>
      <trkpt lat="43.61026" lon="3.85577">
        <ele>63</ele>
        <time>2020-09-20T07:13:54.000Z</time>
      </trkpt>
      <trkpt lat="43.61025" lon="3.85572">
        <ele>63</ele>
        <time>2020-09-20T07:13:55.000Z</time>
      </trkpt>
      <trkpt lat="43.61025" lon="3.85566">
        <ele>63</ele>
        <time>2020-09-20T07:13:56.000Z</time>
      </trkpt>
      <trkpt lat="43.61024" lon="3.85561">
        <ele>63.019628429752</ele>
        <time>2020-09-20T07:13:57.000Z</time>
      </trkpt>
      <trkpt lat="43.61024" lon="3.85556">
        <ele>63.122934214876</ele>
        <time>2020-09-20T07:13:58.000Z</time>
      </trkpt>
      <trkpt lat="43.61023" lon="3.8555">
        <ele>63.22624</ele>
        <time>2020-09-20T07:13:59.000Z</time>
      </trkpt>
      <trkpt lat="43.61023" lon="3.85545">
        <ele>63.329545785124</ele>
        <time>2020-09-20T07:14:00.000Z</time>
      </trkpt>
      <trkpt lat="43.61022" lon="3.8554">
        <ele>63.432851570248</ele>
        <time>2020-09-20T07:14:01.000Z</time>
      </trkpt>
      <trkpt lat="43.61022" lon="3.85535">
        <ele>63.536157355372</ele>
        <time>2020-09-20T07:14:02.000Z</time>
      </trkpt>
      <trkpt lat="43.61021" lon="3.8553">
        <ele>63.639463140496</ele>
        <time>2020-09-20T07:14:03.000Z</time>
      </trkpt>
      <trkpt lat="43.6102" lon="3.85524">
        <ele>63.74276892562</ele>
        <time>2020-09-20T07:14:04.000Z</time>
      </trkpt>
      <trkpt lat="43.6102" lon="3.85519">
        <ele>63.846074710744</ele>
        <time>2020-09-20T07:14:05.000Z</time>
      </trkpt>
      <trkpt lat="43.61019" lon="3.85514">
        <ele>63.949380495868</ele>
        <time>2020-09-20T07:14:06.000Z</time>
      </trkpt>
      <trkpt lat="43.61019" lon="3.85509">
        <ele>64.05100032</ele>
        <time>2020-09-20T07:14:07.000Z</time>
      </trkpt>
      <trkpt lat="43.61018" lon="3.85504">
        <ele>64.15100032</ele>
        <time>2020-09-20T07:14:08.000Z</time>
      </trkpt>
      <trkpt lat="43.61018" lon="3.85498">
        <ele>64.25100032</ele>
        <time>2020-09-20T07:14:09.000Z</time>
      </trkpt>
      <trkpt lat="43.61017" lon="3.85493">
        <ele>64.35100032</ele>
        <time>2020-09-20T07:14:10.000Z</time>
      </trkpt>
      <trkpt lat="43.61016" lon="3.85487">
        <ele>64.45100032</ele>
        <time>2020-09-20T07:14:11.000Z</time>
      </trkpt>
      <trkpt lat="43.61016" lon="3.85482">
        <ele>64.55100032</ele>
        <time>2020-09-20T07:14:12.000Z</time>
      </trkpt>
      <trkpt lat="43.61015" lon="3.85476">
        <ele>64.65100032</ele>
        <time>2020-09-20T07:14:13.000Z</time>
      </trkpt>
      <trkpt lat="43.61015" lon="3.85471">
        <ele>64.75100032</ele>
        <time>2020-09-20T07:14:14.000Z</time>
      </trkpt>
      <trkpt lat="43.61014" lon="3.85465">
        <ele>64.85100032</ele>
        <time>2020-09-20T07:14:15.000Z</time>
      </trkpt>
      <trkpt lat="43.61014" lon="3.85459">
        <ele>64.95100032</ele>
        <time>2020-09-20T07:14:16.000Z</time>
      </trkpt>
      <trkpt lat="43.61013" lon="3.85453">
        <ele>65.05064578331</ele>
        <time>2020-09-20T07:14:17.000Z</time>
      </trkpt>
      <trkpt lat="43.61013" lon="3.85447">
        <ele>65.149950617692</ele>
        <time>2020-09-20T07:14:18.000Z</time>
      </trkpt>
      <trkpt lat="43.61012" lon="3.85441">
        <ele>65.249255452074</ele>
        <time>2020-09-20T07:14:19.000Z</time>
      </trkpt>
      <trkpt lat="43.61011" lon="3.85435">
        <ele>65.348560286455</ele>
        <time>2020-09-20T07:14:20.000Z</time>
      </trkpt>
      <trkpt lat="43.61011" lon="3.8543">
        <ele>65.447865120837</ele>
        <time>2020-09-20T07:14:21.000Z</time>
      </trkpt>
      <trkpt lat="43.6101" lon="3.85424">
        <ele>65.547169955219</ele>
        <time>2020-09-20T07:14:22.000Z</time>
      </trkpt>
      <trkpt lat="43.6101" lon="3.85418">
        <ele>65.646474789601</ele>
        <time>2020-09-20T07:14:23.000Z</time>
      </trkpt>
      <trkpt lat="43.61009" lon="3.85413">
        <ele>65.745779623983</ele>
        <time>2020-09-20T07:14:24.000Z</time>
      </trkpt>
      <trkpt lat="43.61009" lon="3.85407">
        <ele>65.845084458364</ele>
        <time>2020-09-20T07:14:25.000Z</time>
      </trkpt>
      <trkpt lat="43.61009" lon="3.85402">
        <ele>65.944389292746</ele>
        <time>2020-09-20T07:14:26.000Z</time>
      </trkpt>
      <trkpt lat="43.61009" lon="3.85397">
        <ele>66</ele>
        <time>2020-09-20T07:14:27.000Z</time>
      </trkpt>
      <trkpt lat="43.61008" lon="3.85391">
        <ele>66</ele>
        <time>2020-09-20T07:14:28.000Z</time>
      </trkpt>
      <trkpt lat="43.61008" lon="3.85386">
        <ele>66</ele>
        <time>2020-09-20T07:14:29.000Z</time>
      </trkpt>
      <trkpt lat="43.61008" lon="3.85381">
        <ele>66</ele>
        <time>2020-09-20T07:14:30.000Z</time>
      </trkpt>
      <trkpt lat="43.61008" lon="3.85375">
        <ele>66</ele>
        <time>2020-09-20T07:14:31.000Z</time>
      </trkpt>
      <trkpt lat="43.61008" lon="3.8537">
        <ele>66</ele>
        <time>2020-09-20T07:14:32.000Z</time>
      </trkpt>
      <trkpt lat="43.61009" lon="3.85365">
        <ele>66</ele>
        <time>2020-09-20T07:14:33.000Z</time>
      </trkpt>
      <trkpt lat="43.61009" lon="3.8536">
        <ele>66</ele>
        <time>2020-09-20T07:14:34.000Z</time>
      </trkpt>
      <trkpt lat="43.61009" lon="3.85355">
        <ele>66</ele>
        <time>2020-09-20T07:14:35.000Z</time>
      </trkpt>
      <trkpt lat="43.61009" lon="3.8535">
        <ele>66</ele>
        <time>2020-09-20T07:14:36.000Z</time>
      </trkpt>
      <trkpt lat="43.61009" lon="3.85346">
        <ele>66.046783596548</ele>
        <time>2020-09-20T07:14:37.000Z</time>
      </trkpt>
      <trkpt lat="43.61009" lon="3.85341">
        <ele>66.14424942269</ele>
        <time>2020-09-20T07:14:38.000Z</time>
      </trkpt>
      <trkpt lat="43.61009" lon="3.85337">
        <ele>66.241715248833</ele>
        <time>2020-09-20T07:14:39.000Z</time>
      </trkpt>
      <trkpt lat="43.61009" lon="3.85333">
        <ele>66.339181074975</ele>
        <time>2020-09-20T07:14:40.000Z</time>
      </trkpt>
      <trkpt lat="43.61009" lon="3.85329">
        <ele>66.436646901117</ele>
        <time>2020-09-20T07:14:41.000Z</time>
      </trkpt>
      <trkpt lat="43.61009" lon="3.85325">
        <ele>66.534112727259</ele>
        <time>2020-09-20T07:14:42.000Z</time>
      </trkpt>
      <trkpt lat="43.61009" lon="3.8532">
        <ele>66.631578553401</ele>
        <time>2020-09-20T07:14:43.000Z</time>
      </trkpt>
      <trkpt lat="43.61009" lon="3.85315">
        <ele>66.729044379543</ele>
        <time>2020-09-20T07:14:44.000Z</time>
      </trkpt>
      <trkpt lat="43.61008" lon="3.8531">
        <ele>66.826510205686</ele>
        <time>2020-09-20T07:14:45.000Z</time>
      </trkpt>
      <trkpt lat="43.61008" lon="3.85305">
        <ele>66.923976031828</ele>
        <time>2020-09-20T07:14:46.000Z</time>
      </trkpt>
      <trkpt lat="43.61008" lon="3.853">
        <ele>67.021911741083</ele>
        <time>2020-09-20T07:14:47.000Z</time>
      </trkpt>
      <trkpt lat="43.61009" lon="3.85295">
        <ele>67.12151346169</ele>
        <time>2020-09-20T07:14:48.000Z</time>
      </trkpt>
      <trkpt lat="43.61009" lon="3.85289">
        <ele>67.221115182298</ele>
        <time>2020-09-20T07:14:49.000Z</time>
      </trkpt>
      <trkpt lat="43.61009" lon="3.85284">
        <ele>67.320716902906</ele>
        <time>2020-09-20T07:14:50.000Z</time>
      </trkpt>
      <trkpt lat="43.6101" lon="3.85278">
        <ele>67.420318623514</ele>
        <time>2020-09-20T07:14:51.000Z</time>
      </trkpt>
      <trkpt lat="43.6101" lon="3.85273">
        <ele>67.519920344122</ele>
        <time>2020-09-20T07:14:52.000Z</time>
      </trkpt>
      <trkpt lat="43.6101" lon="3.85268">
        <ele>67.619522064729</ele>
        <time>2020-09-20T07:14:53.000Z</time>
      </trkpt>
      <trkpt lat="43.61011" lon="3.85262">
        <ele>67.719123785337</ele>
        <time>2020-09-20T07:14:54.000Z</time>
      </trkpt>
      <trkpt lat="43.61011" lon="3.85257">
        <ele>67.818725505945</ele>
        <time>2020-09-20T07:14:55.000Z</time>
      </trkpt>
      <trkpt lat="43.61011" lon="3.85252">
        <ele>67.918327226553</ele>
        <time>2020-09-20T07:14:56.000Z</time>
      </trkpt>
      <trkpt lat="43.61011" lon="3.85246">
        <ele>68.018200831676</ele>
        <time>2020-09-20T07:14:57.000Z</time>
      </trkpt>
      <trkpt lat="43.61011" lon="3.85241">
        <ele>68.119312968109</ele>
        <time>2020-09-20T07:14:58.000Z</time>
      </trkpt>
      <trkpt lat="43.61011" lon="3.85235">
        <ele>68.220425104542</ele>
        <time>2020-09-20T07:14:59.000Z</time>
      </trkpt>
      <trkpt lat="43.61011" lon="3.8523">
        <ele>68.321537240975</ele>
        <time>2020-09-20T07:15:00.000Z</time>
      </trkpt>
      <trkpt lat="43.61012" lon="3.85225">
        <ele>68.422649377408</ele>
        <time>2020-09-20T07:15:01.000Z</time>
      </trkpt>
      <trkpt lat="43.61012" lon="3.8522">
        <ele>68.523761513841</ele>
        <time>2020-09-20T07:15:02.000Z</time>
      </trkpt>
      <trkpt lat="43.61012" lon="3.85215">
        <ele>68.624873650274</ele>
        <time>2020-09-20T07:15:03.000Z</time>
      </trkpt>
      <trkpt lat="43.61013" lon="3.8521">
        <ele>68.725985786707</ele>
        <time>2020-09-20T07:15:04.000Z</time>
      </trkpt>
      <trkpt lat="43.61013" lon="3.85205">
        <ele>68.82709792314</ele>
        <time>2020-09-20T07:15:05.000Z</time>
      </trkpt>
      <trkpt lat="43.61013" lon="3.852">
        <ele>68.928210059574</ele>
        <time>2020-09-20T07:15:06.000Z</time>
      </trkpt>
      <trkpt lat="43.61014" lon="3.85194">
        <ele>69.028798084195</ele>
        <time>2020-09-20T07:15:07.000Z</time>
      </trkpt>
      <trkpt lat="43.61014" lon="3.85189">
        <ele>69.128102918577</ele>
        <time>2020-09-20T07:15:08.000Z</time>
      </trkpt>
      <trkpt lat="43.61015" lon="3.85184">
        <ele>69.227407752959</ele>
        <time>2020-09-20T07:15:09.000Z</time>
      </trkpt>
      <trkpt lat="43.61016" lon="3.85179">
        <ele>69.326712587341</ele>
        <time>2020-09-20T07:15:10.000Z</time>
      </trkpt>
      <trkpt lat="43.61016" lon="3.85174">
        <ele>69.426017421722</ele>
        <time>2020-09-20T07:15:11.000Z</time>
      </trkpt>
      <trkpt lat="43.61017" lon="3.85169">
        <ele>69.525322256104</ele>
        <time>2020-09-20T07:15:12.000Z</time>
      </trkpt>
      <trkpt lat="43.61018" lon="3.85163">
        <ele>69.624627090486</ele>
        <time>2020-09-20T07:15:13.000Z</time>
      </trkpt>
      <trkpt lat="43.61018" lon="3.85158">
        <ele>69.723931924868</ele>
        <time>2020-09-20T07:15:14.000Z</time>
      </trkpt>
      <trkpt lat="43.61019" lon="3.85153">
        <ele>69.823236759249</ele>
        <time>2020-09-20T07:15:15.000Z</time>
      </trkpt>
      <trkpt lat="43.6102" lon="3.85147">
        <ele>69.922541593631</ele>
        <time>2020-09-20T07:15:16.000Z</time>
      </trkpt>
      <trkpt lat="43.6102" lon="3.85142">
        <ele>70</ele>
        <time>2020-09-20T07:15:17.000Z</time>
      </trkpt>
      <trkpt lat="43.61021" lon="3.85137">
        <ele>70</ele>
        <time>2020-09-20T07:15:18.000Z</time>
      </trkpt>
      <trkpt lat="43.61021" lon="3.85132">
        <ele>70</ele>
        <time>2020-09-20T07:15:19.000Z</time>
      </trkpt>
      <trkpt lat="43.61021" lon="3.85128">
        <ele>70</ele>
        <time>2020-09-20T07:15:20.000Z</time>
      </trkpt>
      <trkpt lat="43.61022" lon="3.85123">
        <ele>70</ele>
        <time>2020-09-20T07:15:21.000Z</time>
      </trkpt>
      <trkpt lat="43.61023" lon="3.85119">
        <ele>70</ele>
        <time>2020-09-20T07:15:22.000Z</time>
      </trkpt>
      <trkpt lat="43.61024" lon="3.85115">
        <ele>70</ele>
        <time>2020-09-20T07:15:23.000Z</time>
      </trkpt>
      <trkpt lat="43.61025" lon="3.85111">
        <ele>70</ele>
        <time>2020-09-20T07:15:24.000Z</time>
      </trkpt>
      <trkpt lat="43.61026" lon="3.85107">
        <ele>70</ele>
        <time>2020-09-20T07:15:25.000Z</time>
      </trkpt>
      <trkpt lat="43.61027" lon="3.85103">
        <ele>70</ele>
        <time>2020-09-20T07:15:26.000Z</time>
      </trkpt>
      <trkpt lat="43.61027" lon="3.85099">
        <ele>70.050696110889</ele>
        <time>2020-09-20T07:15:27.000Z</time>
      </trkpt>
      <trkpt lat="43.61027" lon="3.85096">
        <ele>70.150099626179</ele>
        <time>2020-09-20T07:15:28.000Z</time>
      </trkpt>
      <trkpt lat="43.61027" lon="3.85093">
        <ele>70.249503141469</ele>
        <time>2020-09-20T07:15:29.000Z</time>
      </trkpt>
      <trkpt lat="43.61027" lon="3.85089">
        <ele>70.348906656759</ele>
        <time>2020-09-20T07:15:30.000Z</time>
      </trkpt>
      <trkpt lat="43.61028" lon="3.85085">
        <ele>70.448310172049</ele>
        <time>2020-09-20T07:15:31.000Z</time>
      </trkpt>
      <trkpt lat="43.61029" lon="3.85081">
        <ele>70.547713687339</ele>
        <time>2020-09-20T07:15:32.000Z</time>
      </trkpt>
      <trkpt lat="43.61029" lon="3.85076">
        <ele>70.647117202629</ele>
        <time>2020-09-20T07:15:33.000Z</time>
      </trkpt>
      <trkpt lat="43.6103" lon="3.85071">
        <ele>70.746520717919</ele>
        <time>2020-09-20T07:15:34.000Z</time>
      </trkpt>
      <trkpt lat="43.6103" lon="3.85066">
        <ele>70.845924233209</ele>
        <time>2020-09-20T07:15:35.000Z</time>
      </trkpt>
      <trkpt lat="43.61031" lon="3.8506">
        <ele>70.945327748499</ele>
        <time>2020-09-20T07:15:36.000Z</time>
      </trkpt>
      <trkpt lat="43.61032" lon="3.85055">
        <ele>71</ele>
        <time>2020-09-20T07:15:37.000Z</time>
      </trkpt>
      <trkpt lat="43.61032" lon="3.8505">
        <ele>71</ele>
        <time>2020-09-20T07:15:38.000Z</time>
      </trkpt>
      <trkpt lat="43.61033" lon="3.85044">
        <ele>71</ele>
        <time>2020-09-20T07:15:39.000Z</time>
      </trkpt>
      <trkpt lat="43.61034" lon="3.85039">
        <ele>71</ele>
        <time>2020-09-20T07:15:40.000Z</time>
      </trkpt>
      <trkpt lat="43.61034" lon="3.85034">
        <ele>71</ele>
        <time>2020-09-20T07:15:41.000Z</time>
      </trkpt>
      <trkpt lat="43.61035" lon="3.85028">
        <ele>71</ele>
        <time>2020-09-20T07:15:42.000Z</time>
      </trkpt>
      <trkpt lat="43.61035" lon="3.85023">
        <ele>71</ele>
        <time>2020-09-20T07:15:43.000Z</time>
      </trkpt>
      <trkpt lat="43.61036" lon="3.85018">
        <ele>71</ele>
        <time>2020-09-20T07:15:44.000Z</time>
      </trkpt>
      <trkpt lat="43.61037" lon="3.85013">
        <ele>71</ele>
        <time>2020-09-20T07:15:45.000Z</time>
      </trkpt>
      <trkpt lat="43.61038" lon="3.85007">
        <ele>71</ele>
        <time>2020-09-20T07:15:46.000Z</time>
      </trkpt>
      <trkpt lat="43.61039" lon="3.85002">
        <ele>71</ele>
        <time>2020-09-20T07:15:47.000Z</time>
      </trkpt>
      <trkpt lat="43.6104" lon="3.84997">
        <ele>71</ele>
        <time>2020-09-20T07:15:48.000Z</time>
      </trkpt>
      <trkpt lat="43.61041" lon="3.84993">
        <ele>71</ele>
        <time>2020-09-20T07:15:49.000Z</time>
      </trkpt>
      <trkpt lat="43.61042" lon="3.84988">
        <ele>71</ele>
        <time>2020-09-20T07:15:50.000Z</time>
      </trkpt>
      <trkpt lat="43.61043" lon="3.84983">
        <ele>71</ele>
        <time>2020-09-20T07:15:51.000Z</time>
      </trkpt>
      <trkpt lat="43.61043" lon="3.84978">
        <ele>71</ele>
        <time>2020-09-20T07:15:52.000Z</time>
      </trkpt>
      <trkpt lat="43.61042" lon="3.84974">
        <ele>71</ele>
        <time>2020-09-20T07:15:53.000Z</time>
      </trkpt>
      <trkpt lat="43.6104" lon="3.8497">
        <ele>71</ele>
        <time>2020-09-20T07:15:54.000Z</time>
      </trkpt>
      <trkpt lat="43.61037" lon="3.84967">
        <ele>71</ele>
        <time>2020-09-20T07:15:55.000Z</time>
      </trkpt>
      <trkpt lat="43.61033" lon="3.84964">
        <ele>71</ele>
        <time>2020-09-20T07:15:56.000Z</time>
      </trkpt>
      <trkpt lat="43.61029" lon="3.84961">
        <ele>71.050898490444</ele>
        <time>2020-09-20T07:15:57.000Z</time>
      </trkpt>
      <trkpt lat="43.61026" lon="3.84958">
        <ele>71.150698825901</ele>
        <time>2020-09-20T07:15:58.000Z</time>
      </trkpt>
      <trkpt lat="43.61022" lon="3.84956">
        <ele>71.250499161358</ele>
        <time>2020-09-20T07:15:59.000Z</time>
      </trkpt>
      <trkpt lat="43.61018" lon="3.84953">
        <ele>71.350299496815</ele>
        <time>2020-09-20T07:16:00.000Z</time>
      </trkpt>
      <trkpt lat="43.61015" lon="3.8495">
        <ele>71.450099832272</ele>
        <time>2020-09-20T07:16:01.000Z</time>
      </trkpt>
      <trkpt lat="43.61011" lon="3.84947">
        <ele>71.549900167728</ele>
        <time>2020-09-20T07:16:02.000Z</time>
      </trkpt>
      <trkpt lat="43.61008" lon="3.84944">
        <ele>71.649700503185</ele>
        <time>2020-09-20T07:16:03.000Z</time>
      </trkpt>
      <trkpt lat="43.61004" lon="3.84941">
        <ele>71.749500838642</ele>
        <time>2020-09-20T07:16:04.000Z</time>
      </trkpt>
      <trkpt lat="43.61001" lon="3.84939">
        <ele>71.849301174099</ele>
        <time>2020-09-20T07:16:05.000Z</time>
      </trkpt>
      <trkpt lat="43.60998" lon="3.84936">
        <ele>71.949101509556</ele>
        <time>2020-09-20T07:16:06.000Z</time>
      </trkpt>
      <trkpt lat="43.60994" lon="3.84933">
        <ele>72.049097907237</ele>
        <time>2020-09-20T07:16:07.000Z</time>
      </trkpt>
      <trkpt lat="43.60991" lon="3.8493">
        <ele>72.149298372296</ele>
        <time>2020-09-20T07:16:08.000Z</time>
      </trkpt>
      <trkpt lat="43.60987" lon="3.84928">
        <ele>72.249498837354</ele>
        <time>2020-09-20T07:16:09.000Z</time>
      </trkpt>
      <trkpt lat="43.60984" lon="3.84925">
        <ele>72.349699302412</ele>
        <time>2020-09-20T07:16:10.000Z</time>
      </trkpt>
      <trkpt lat="43.60981" lon="3.84922">
        <ele>72.449899767471</ele>
        <time>2020-09-20T07:16:11.000Z</time>
      </trkpt>
      <trkpt lat="43.60977" lon="3.84919">
        <ele>72.550100232529</ele>
        <time>2020-09-20T07:16:12.000Z</time>
      </trkpt>
      <trkpt lat="43.60974" lon="3.84916">
        <ele>72.650300697588</ele>
        <time>2020-09-20T07:16:13.000Z</time>
      </trkpt>
      <trkpt lat="43.60971" lon="3.84913">
        <ele>72.750501162646</ele>
        <time>2020-09-20T07:16:14.000Z</time>
      </trkpt>
      <trkpt lat="43.60967" lon="3.8491">
        <ele>72.850701627704</ele>
        <time>2020-09-20T07:16:15.000Z</time>
      </trkpt>
      <trkpt lat="43.60964" lon="3.84907">
        <ele>72.950902092763</ele>
        <time>2020-09-20T07:16:16.000Z</time>
      </trkpt>
      <trkpt lat="43.60961" lon="3.84903">
        <ele>72.94899968</ele>
        <time>2020-09-20T07:16:17.000Z</time>
      </trkpt>
      <trkpt lat="43.60958" lon="3.84898">
        <ele>72.84899968</ele>
        <time>2020-09-20T07:16:18.000Z</time>
      </trkpt>
      <trkpt lat="43.60956" lon="3.84894">
        <ele>72.74899968</ele>
        <time>2020-09-20T07:16:19.000Z</time>
      </trkpt>
      <trkpt lat="43.60954" lon="3.84889">
        <ele>72.64899968</ele>
        <time>2020-09-20T07:16:20.000Z</time>
      </trkpt>
      <trkpt lat="43.60951" lon="3.84885">
        <ele>72.54899968</ele>
        <time>2020-09-20T07:16:21.000Z</time>
      </trkpt>
      <trkpt lat="43.6095" lon="3.8488">
        <ele>72.44899968</ele>
        <time>2020-09-20T07:16:22.000Z</time>
      </trkpt>
      <trkpt lat="43.60948" lon="3.84876">
        <ele>72.34899968</ele>
        <time>2020-09-20T07:16:23.000Z</time>
      </trkpt>
      <trkpt lat="43.60946" lon="3.84871">
        <ele>72.24899968</ele>
        <time>2020-09-20T07:16:24.000Z</time>
      </trkpt>
      <trkpt lat="43.60943" lon="3.84866">
        <ele>72.14899968</ele>
        <time>2020-09-20T07:16:25.000Z</time>
      </trkpt>
      <trkpt lat="43.60941" lon="3.84862">
        <ele>72.04899968</ele>
        <time>2020-09-20T07:16:26.000Z</time>
      </trkpt>
      <trkpt lat="43.60939" lon="3.84857">
        <ele>72</ele>
        <time>2020-09-20T07:16:27.000Z</time>
      </trkpt>
      <trkpt lat="43.60936" lon="3.84853">
        <ele>72</ele>
        <time>2020-09-20T07:16:28.000Z</time>
      </trkpt>
      <trkpt lat="43.60933" lon="3.84848">
        <ele>72</ele>
        <time>2020-09-20T07:16:29.000Z</time>
      </trkpt>
      <trkpt lat="43.60931" lon="3.84844">
        <ele>72</ele>
        <time>2020-09-20T07:16:30.000Z</time>
      </trkpt>
      <trkpt lat="43.60928" lon="3.84839">
        <ele>72</ele>
        <time>2020-09-20T07:16:31.000Z</time>
      </trkpt>
      <trkpt lat="43.60925" lon="3.84834">
        <ele>72</ele>
        <time>2020-09-20T07:16:32.000Z</time>
      </trkpt>
      <trkpt lat="43.60922" lon="3.8483">
        <ele>72</ele>
        <time>2020-09-20T07:16:33.000Z</time>
      </trkpt>
      <trkpt lat="43.60919" lon="3.84826">
        <ele>72</ele>
        <time>2020-09-20T07:16:34.000Z</time>
      </trkpt>
      <trkpt lat="43.60916" lon="3.84822">
        <ele>72</ele>
        <time>2020-09-20T07:16:35.000Z</time>
      </trkpt>
      <trkpt lat="43.60913" lon="3.84817">
        <ele>72</ele>
        <time>2020-09-20T07:16:36.000Z</time>
      </trkpt>
      <trkpt lat="43.6091" lon="3.84813">
        <ele>72.046647244827</ele>
        <time>2020-09-20T07:16:37.000Z</time>
      </trkpt>
      <trkpt lat="43.60907" lon="3.84809">
        <ele>72.143829004884</ele>
        <time>2020-09-20T07:16:38.000Z</time>
      </trkpt>
      <trkpt lat="43.60904" lon="3.84805">
        <ele>72.24101076494</ele>
        <time>2020-09-20T07:16:39.000Z</time>
      </trkpt>
      <trkpt lat="43.60901" lon="3.84801">
        <ele>72.338192524997</ele>
        <time>2020-09-20T07:16:40.000Z</time>
      </trkpt>
      <trkpt lat="43.60898" lon="3.84797">
        <ele>72.435374285053</ele>
        <time>2020-09-20T07:16:41.000Z</time>
      </trkpt>
      <trkpt lat="43.60896" lon="3.84793">
        <ele>72.53255604511</ele>
        <time>2020-09-20T07:16:42.000Z</time>
      </trkpt>
      <trkpt lat="43.60895" lon="3.84791">
        <ele>72.629737805166</ele>
        <time>2020-09-20T07:16:43.000Z</time>
      </trkpt>
      <trkpt lat="43.60893" lon="3.84788">
        <ele>72.726919565223</ele>
        <time>2020-09-20T07:16:44.000Z</time>
      </trkpt>
      <trkpt lat="43.60892" lon="3.84785">
        <ele>72.824101325279</ele>
        <time>2020-09-20T07:16:45.000Z</time>
      </trkpt>
      <trkpt lat="43.60892" lon="3.84781">
        <ele>72.921283085336</ele>
        <time>2020-09-20T07:16:46.000Z</time>
      </trkpt>
      <trkpt lat="43.60892" lon="3.84777">
        <ele>72.98039182015</ele>
        <time>2020-09-20T07:16:47.000Z</time>
      </trkpt>
      <trkpt lat="43.60892" lon="3.84772">
        <ele>72.877192611663</ele>
        <time>2020-09-20T07:16:48.000Z</time>
      </trkpt>
      <trkpt lat="43.60892" lon="3.84768">
        <ele>72.773993403176</ele>
        <time>2020-09-20T07:16:49.000Z</time>
      </trkpt>
      <trkpt lat="43.60892" lon="3.84763">
        <ele>72.67079419469</ele>
        <time>2020-09-20T07:16:50.000Z</time>
      </trkpt>
      <trkpt lat="43.6089" lon="3.84759">
        <ele>72.567594986203</ele>
        <time>2020-09-20T07:16:51.000Z</time>
      </trkpt>
      <trkpt lat="43.60888" lon="3.84756">
        <ele>72.464395777716</ele>
        <time>2020-09-20T07:16:52.000Z</time>
      </trkpt>
      <trkpt lat="43.60887" lon="3.84752">
        <ele>72.361196569229</ele>
        <time>2020-09-20T07:16:53.000Z</time>
      </trkpt>
      <trkpt lat="43.60886" lon="3.84747">
        <ele>72.257997360742</ele>
        <time>2020-09-20T07:16:54.000Z</time>
      </trkpt>
      <trkpt lat="43.60886" lon="3.84742">
        <ele>72.154798152255</ele>
        <time>2020-09-20T07:16:55.000Z</time>
      </trkpt>
      <trkpt lat="43.60886" lon="3.84737">
        <ele>72.051598943768</ele>
        <time>2020-09-20T07:16:56.000Z</time>
      </trkpt>
      <trkpt lat="43.60886" lon="3.84731">
        <ele>71.949949325342</ele>
        <time>2020-09-20T07:16:57.000Z</time>
      </trkpt>
      <trkpt lat="43.60887" lon="3.84724">
        <ele>71.849849257306</ele>
        <time>2020-09-20T07:16:58.000Z</time>
      </trkpt>
      <trkpt lat="43.60887" lon="3.84718">
        <ele>71.749749189269</ele>
        <time>2020-09-20T07:16:59.000Z</time>
      </trkpt>
      <trkpt lat="43.60887" lon="3.84711">
        <ele>71.649649121233</ele>
        <time>2020-09-20T07:17:00.000Z</time>
      </trkpt>
      <trkpt lat="43.60887" lon="3.84704">
        <ele>71.549549053197</ele>
        <time>2020-09-20T07:17:01.000Z</time>
      </trkpt>
      <trkpt lat="43.60887" lon="3.84697">
        <ele>71.449448985161</ele>
        <time>2020-09-20T07:17:02.000Z</time>
      </trkpt>
      <trkpt lat="43.60888" lon="3.8469">
        <ele>71.349348917125</ele>
        <time>2020-09-20T07:17:03.000Z</time>
      </trkpt>
      <trkpt lat="43.60888" lon="3.84683">
        <ele>71.249248849089</ele>
        <time>2020-09-20T07:17:04.000Z</time>
      </trkpt>
      <trkpt lat="43.60888" lon="3.84676">
        <ele>71.149148781053</ele>
        <time>2020-09-20T07:17:05.000Z</time>
      </trkpt>
      <trkpt lat="43.60888" lon="3.84669">
        <ele>71.049048713017</ele>
        <time>2020-09-20T07:17:06.000Z</time>
      </trkpt>
      <trkpt lat="43.60889" lon="3.84662">
        <ele>71</ele>
        <time>2020-09-20T07:17:07.000Z</time>
      </trkpt>
      <trkpt lat="43.60889" lon="3.84655">
        <ele>71</ele>
        <time>2020-09-20T07:17:08.000Z</time>
      </trkpt>
      <trkpt lat="43.60889" lon="3.84647">
        <ele>71</ele>
        <time>2020-09-20T07:17:09.000Z</time>
      </trkpt>
      <trkpt lat="43.6089" lon="3.8464">
        <ele>71</ele>
        <time>2020-09-20T07:17:10.000Z</time>
      </trkpt>
      <trkpt lat="43.6089" lon="3.84632">
        <ele>71</ele>
        <time>2020-09-20T07:17:11.000Z</time>
      </trkpt>
      <trkpt lat="43.6089" lon="3.84625">
        <ele>71</ele>
        <time>2020-09-20T07:17:12.000Z</time>
      </trkpt>
      <trkpt lat="43.60891" lon="3.84617">
        <ele>71</ele>
        <time>2020-09-20T07:17:13.000Z</time>
      </trkpt>
      <trkpt lat="43.60892" lon="3.8461">
        <ele>71</ele>
        <time>2020-09-20T07:17:14.000Z</time>
      </trkpt>
      <trkpt lat="43.60894" lon="3.84602">
        <ele>71</ele>
        <time>2020-09-20T07:17:15.000Z</time>
      </trkpt>
      <trkpt lat="43.60895" lon="3.84595">
        <ele>71</ele>
        <time>2020-09-20T07:17:16.000Z</time>
      </trkpt>
      <trkpt lat="43.60896" lon="3.84587">
        <ele>71</ele>
        <time>2020-09-20T07:17:17.000Z</time>
      </trkpt>
      <trkpt lat="43.60896" lon="3.8458">
        <ele>71</ele>
        <time>2020-09-20T07:17:18.000Z</time>
      </trkpt>
      <trkpt lat="43.60897" lon="3.84574">
        <ele>71</ele>
        <time>2020-09-20T07:17:19.000Z</time>
      </trkpt>
      <trkpt lat="43.60896" lon="3.84567">
        <ele>71</ele>
        <time>2020-09-20T07:17:20.000Z</time>
      </trkpt>
      <trkpt lat="43.60896" lon="3.84559">
        <ele>71</ele>
        <time>2020-09-20T07:17:21.000Z</time>
      </trkpt>
      <trkpt lat="43.60896" lon="3.84551">
        <ele>71</ele>
        <time>2020-09-20T07:17:22.000Z</time>
      </trkpt>
      <trkpt lat="43.60896" lon="3.84543">
        <ele>71</ele>
        <time>2020-09-20T07:17:23.000Z</time>
      </trkpt>
      <trkpt lat="43.60895" lon="3.84535">
        <ele>71</ele>
        <time>2020-09-20T07:17:24.000Z</time>
      </trkpt>
      <trkpt lat="43.60895" lon="3.84528">
        <ele>71</ele>
        <time>2020-09-20T07:17:25.000Z</time>
      </trkpt>
      <trkpt lat="43.60894" lon="3.8452">
        <ele>71</ele>
        <time>2020-09-20T07:17:26.000Z</time>
      </trkpt>
      <trkpt lat="43.60893" lon="3.84512">
        <ele>70.898101226166</ele>
        <time>2020-09-20T07:17:27.000Z</time>
      </trkpt>
      <trkpt lat="43.60892" lon="3.84504">
        <ele>70.698300962494</ele>
        <time>2020-09-20T07:17:28.000Z</time>
      </trkpt>
      <trkpt lat="43.60892" lon="3.84496">
        <ele>70.498500698821</ele>
        <time>2020-09-20T07:17:29.000Z</time>
      </trkpt>
      <trkpt lat="43.60891" lon="3.84488">
        <ele>70.298700435149</ele>
        <time>2020-09-20T07:17:30.000Z</time>
      </trkpt>
      <trkpt lat="43.60891" lon="3.8448">
        <ele>70.098900171477</ele>
        <time>2020-09-20T07:17:31.000Z</time>
      </trkpt>
      <trkpt lat="43.60891" lon="3.84473">
        <ele>69.899099907804</ele>
        <time>2020-09-20T07:17:32.000Z</time>
      </trkpt>
      <trkpt lat="43.60892" lon="3.84465">
        <ele>69.699299644132</ele>
        <time>2020-09-20T07:17:33.000Z</time>
      </trkpt>
      <trkpt lat="43.60893" lon="3.84458">
        <ele>69.499499380459</ele>
        <time>2020-09-20T07:17:34.000Z</time>
      </trkpt>
      <trkpt lat="43.60893" lon="3.84451">
        <ele>69.299699116787</ele>
        <time>2020-09-20T07:17:35.000Z</time>
      </trkpt>
      <trkpt lat="43.60894" lon="3.84443">
        <ele>69.099898853114</ele>
        <time>2020-09-20T07:17:36.000Z</time>
      </trkpt>
      <trkpt lat="43.60895" lon="3.84436">
        <ele>68.949949325342</ele>
        <time>2020-09-20T07:17:37.000Z</time>
      </trkpt>
      <trkpt lat="43.60895" lon="3.84428">
        <ele>68.849849257306</ele>
        <time>2020-09-20T07:17:38.000Z</time>
      </trkpt>
      <trkpt lat="43.60896" lon="3.84421">
        <ele>68.749749189269</ele>
        <time>2020-09-20T07:17:39.000Z</time>
      </trkpt>
      <trkpt lat="43.60896" lon="3.84414">
        <ele>68.649649121233</ele>
        <time>2020-09-20T07:17:40.000Z</time>
      </trkpt>
      <trkpt lat="43.60896" lon="3.84407">
        <ele>68.549549053197</ele>
        <time>2020-09-20T07:17:41.000Z</time>
      </trkpt>
      <trkpt lat="43.60897" lon="3.844">
        <ele>68.449448985161</ele>
        <time>2020-09-20T07:17:42.000Z</time>
      </trkpt>
      <trkpt lat="43.60897" lon="3.84392">
        <ele>68.349348917125</ele>
        <time>2020-09-20T07:17:43.000Z</time>
      </trkpt>
      <trkpt lat="43.60896" lon="3.84385">
        <ele>68.249248849089</ele>
        <time>2020-09-20T07:17:44.000Z</time>
      </trkpt>
      <trkpt lat="43.60895" lon="3.84378">
        <ele>68.149148781053</ele>
        <time>2020-09-20T07:17:45.000Z</time>
      </trkpt>
      <trkpt lat="43.60895" lon="3.84371">
        <ele>68.049048713017</ele>
        <time>2020-09-20T07:17:46.000Z</time>
      </trkpt>
      <trkpt lat="43.60895" lon="3.84363">
        <ele>67.951289107533</ele>
        <time>2020-09-20T07:17:47.000Z</time>
      </trkpt>
      <trkpt lat="43.60896" lon="3.84355">
        <ele>67.855778152962</ele>
        <time>2020-09-20T07:17:48.000Z</time>
      </trkpt>
      <trkpt lat="43.60896" lon="3.84347">
        <ele>67.76026719839</ele>
        <time>2020-09-20T07:17:49.000Z</time>
      </trkpt>
      <trkpt lat="43.60896" lon="3.84339">
        <ele>67.664756243819</ele>
        <time>2020-09-20T07:17:50.000Z</time>
      </trkpt>
      <trkpt lat="43.60897" lon="3.84331">
        <ele>67.569245289247</ele>
        <time>2020-09-20T07:17:51.000Z</time>
      </trkpt>
      <trkpt lat="43.60898" lon="3.84325">
        <ele>67.473734334675</ele>
        <time>2020-09-20T07:17:52.000Z</time>
      </trkpt>
      <trkpt lat="43.60899" lon="3.84318">
        <ele>67.378223380104</ele>
        <time>2020-09-20T07:17:53.000Z</time>
      </trkpt>
      <trkpt lat="43.60899" lon="3.84312">
        <ele>67.282712425532</ele>
        <time>2020-09-20T07:17:54.000Z</time>
      </trkpt>
      <trkpt lat="43.609" lon="3.84306">
        <ele>67.18720147096</ele>
        <time>2020-09-20T07:17:55.000Z</time>
      </trkpt>
      <trkpt lat="43.60901" lon="3.843">
        <ele>67.091690516389</ele>
        <time>2020-09-20T07:17:56.000Z</time>
      </trkpt>
      <trkpt lat="43.60902" lon="3.84293">
        <ele>67</ele>
        <time>2020-09-20T07:17:57.000Z</time>
      </trkpt>
      <trkpt lat="43.60902" lon="3.84286">
        <ele>67</ele>
        <time>2020-09-20T07:17:58.000Z</time>
      </trkpt>
      <trkpt lat="43.60902" lon="3.84279">
        <ele>67</ele>
        <time>2020-09-20T07:17:59.000Z</time>
      </trkpt>
      <trkpt lat="43.60902" lon="3.84272">
        <ele>67</ele>
        <time>2020-09-20T07:18:00.000Z</time>
      </trkpt>
      <trkpt lat="43.60902" lon="3.84265">
        <ele>67</ele>
        <time>2020-09-20T07:18:01.000Z</time>
      </trkpt>
      <trkpt lat="43.60902" lon="3.84257">
        <ele>67</ele>
        <time>2020-09-20T07:18:02.000Z</time>
      </trkpt>
      <trkpt lat="43.60901" lon="3.84249">
        <ele>67</ele>
        <time>2020-09-20T07:18:03.000Z</time>
      </trkpt>
      <trkpt lat="43.60901" lon="3.84242">
        <ele>67</ele>
        <time>2020-09-20T07:18:04.000Z</time>
      </trkpt>
      <trkpt lat="43.609" lon="3.84234">
        <ele>67</ele>
        <time>2020-09-20T07:18:05.000Z</time>
      </trkpt>
      <trkpt lat="43.609" lon="3.84227">
        <ele>67</ele>
        <time>2020-09-20T07:18:06.000Z</time>
      </trkpt>
      <trkpt lat="43.60899" lon="3.84219">
        <ele>66.94899968</ele>
        <time>2020-09-20T07:18:07.000Z</time>
      </trkpt>
      <trkpt lat="43.60899" lon="3.84211">
        <ele>66.84899968</ele>
        <time>2020-09-20T07:18:08.000Z</time>
      </trkpt>
      <trkpt lat="43.60899" lon="3.84204">
        <ele>66.74899968</ele>
        <time>2020-09-20T07:18:09.000Z</time>
      </trkpt>
      <trkpt lat="43.60898" lon="3.84196">
        <ele>66.64899968</ele>
        <time>2020-09-20T07:18:10.000Z</time>
      </trkpt>
      <trkpt lat="43.60898" lon="3.84189">
        <ele>66.54899968</ele>
        <time>2020-09-20T07:18:11.000Z</time>
      </trkpt>
      <trkpt lat="43.60897" lon="3.84182">
        <ele>66.44899968</ele>
        <time>2020-09-20T07:18:12.000Z</time>
      </trkpt>
      <trkpt lat="43.60897" lon="3.84176">
        <ele>66.34899968</ele>
        <time>2020-09-20T07:18:13.000Z</time>
      </trkpt>
      <trkpt lat="43.60897" lon="3.84169">
        <ele>66.24899968</ele>
        <time>2020-09-20T07:18:14.000Z</time>
      </trkpt>
      <trkpt lat="43.60897" lon="3.84162">
        <ele>66.14899968</ele>
        <time>2020-09-20T07:18:15.000Z</time>
      </trkpt>
      <trkpt lat="43.60898" lon="3.84156">
        <ele>66.04899968</ele>
        <time>2020-09-20T07:18:16.000Z</time>
      </trkpt>
      <trkpt lat="43.60899" lon="3.84149">
        <ele>66</ele>
        <time>2020-09-20T07:18:17.000Z</time>
      </trkpt>
      <trkpt lat="43.609" lon="3.84142">
        <ele>66</ele>
        <time>2020-09-20T07:18:18.000Z</time>
      </trkpt>
      <trkpt lat="43.60902" lon="3.84136">
        <ele>66</ele>
        <time>2020-09-20T07:18:19.000Z</time>
      </trkpt>
      <trkpt lat="43.60903" lon="3.84129">
        <ele>66</ele>
        <time>2020-09-20T07:18:20.000Z</time>
      </trkpt>
      <trkpt lat="43.60905" lon="3.84122">
        <ele>66</ele>
        <time>2020-09-20T07:18:21.000Z</time>
      </trkpt>
      <trkpt lat="43.60906" lon="3.84115">
        <ele>66</ele>
        <time>2020-09-20T07:18:22.000Z</time>
      </trkpt>
      <trkpt lat="43.60908" lon="3.84109">
        <ele>66</ele>
        <time>2020-09-20T07:18:23.000Z</time>
      </trkpt>
      <trkpt lat="43.6091" lon="3.84102">
        <ele>66</ele>
        <time>2020-09-20T07:18:24.000Z</time>
      </trkpt>
      <trkpt lat="43.60912" lon="3.84095">
        <ele>66</ele>
        <time>2020-09-20T07:18:25.000Z</time>
      </trkpt>
      <trkpt lat="43.60913" lon="3.84088">
        <ele>66</ele>
        <time>2020-09-20T07:18:26.000Z</time>
      </trkpt>
      <trkpt lat="43.60915" lon="3.84081">
        <ele>65.98</ele>
        <time>2020-09-20T07:18:27.000Z</time>
      </trkpt>
      <trkpt lat="43.60917" lon="3.84074">
        <ele>65.88</ele>
        <time>2020-09-20T07:18:28.000Z</time>
      </trkpt>
      <trkpt lat="43.60918" lon="3.84067">
        <ele>65.78</ele>
        <time>2020-09-20T07:18:29.000Z</time>
      </trkpt>
      <trkpt lat="43.60919" lon="3.8406">
        <ele>65.68</ele>
        <time>2020-09-20T07:18:30.000Z</time>
      </trkpt>
      <trkpt lat="43.60921" lon="3.84052">
        <ele>65.58</ele>
        <time>2020-09-20T07:18:31.000Z</time>
      </trkpt>
      <trkpt lat="43.60922" lon="3.84046">
        <ele>65.48</ele>
        <time>2020-09-20T07:18:32.000Z</time>
      </trkpt>
      <trkpt lat="43.60924" lon="3.84039">
        <ele>65.38</ele>
        <time>2020-09-20T07:18:33.000Z</time>
      </trkpt>
      <trkpt lat="43.60928" lon="3.84034">
        <ele>65.28</ele>
        <time>2020-09-20T07:18:34.000Z</time>
      </trkpt>
      <trkpt lat="43.60931" lon="3.84029">
        <ele>65.18</ele>
        <time>2020-09-20T07:18:35.000Z</time>
      </trkpt>
      <trkpt lat="43.60933" lon="3.84024">
        <ele>65.08</ele>
        <time>2020-09-20T07:18:36.000Z</time>
      </trkpt>
      <trkpt lat="43.60934" lon="3.84018">
        <ele>65</ele>
        <time>2020-09-20T07:18:37.000Z</time>
      </trkpt>
      <trkpt lat="43.60934" lon="3.84012">
        <ele>65</ele>
        <time>2020-09-20T07:18:38.000Z</time>
      </trkpt>
      <trkpt lat="43.60933" lon="3.84006">
        <ele>65</ele>
        <time>2020-09-20T07:18:39.000Z</time>
      </trkpt>
      <trkpt lat="43.60933" lon="3.84">
        <ele>65</ele>
        <time>2020-09-20T07:18:40.000Z</time>
      </trkpt>
      <trkpt lat="43.60933" lon="3.83993">
        <ele>65</ele>
        <time>2020-09-20T07:18:41.000Z</time>
      </trkpt>
      <trkpt lat="43.60934" lon="3.83987">
        <ele>65</ele>
        <time>2020-09-20T07:18:42.000Z</time>
      </trkpt>
      <trkpt lat="43.60935" lon="3.83981">
        <ele>65</ele>
        <time>2020-09-20T07:18:43.000Z</time>
      </trkpt>
      <trkpt lat="43.60936" lon="3.83974">
        <ele>65</ele>
        <time>2020-09-20T07:18:44.000Z</time>
      </trkpt>
      <trkpt lat="43.60937" lon="3.83968">
        <ele>65</ele>
        <time>2020-09-20T07:18:45.000Z</time>
      </trkpt>
      <trkpt lat="43.60938" lon="3.83962">
        <ele>65</ele>
        <time>2020-09-20T07:18:46.000Z</time>
      </trkpt>
      <trkpt lat="43.60939" lon="3.83955">
        <ele>65</ele>
        <time>2020-09-20T07:18:47.000Z</time>
      </trkpt>
      <trkpt lat="43.60941" lon="3.83949">
        <ele>65</ele>
        <time>2020-09-20T07:18:48.000Z</time>
      </trkpt>
      <trkpt lat="43.60942" lon="3.83943">
        <ele>65</ele>
        <time>2020-09-20T07:18:49.000Z</time>
      </trkpt>
      <trkpt lat="43.60943" lon="3.83936">
        <ele>65</ele>
        <time>2020-09-20T07:18:50.000Z</time>
      </trkpt>
      <trkpt lat="43.60944" lon="3.8393">
        <ele>65</ele>
        <time>2020-09-20T07:18:51.000Z</time>
      </trkpt>
      <trkpt lat="43.60945" lon="3.83924">
        <ele>65</ele>
        <time>2020-09-20T07:18:52.000Z</time>
      </trkpt>
      <trkpt lat="43.60946" lon="3.83917">
        <ele>65</ele>
        <time>2020-09-20T07:18:53.000Z</time>
      </trkpt>
      <trkpt lat="43.60947" lon="3.83911">
        <ele>65</ele>
        <time>2020-09-20T07:18:54.000Z</time>
      </trkpt>
      <trkpt lat="43.60949" lon="3.83905">
        <ele>65</ele>
        <time>2020-09-20T07:18:55.000Z</time>
      </trkpt>
      <trkpt lat="43.6095" lon="3.83899">
        <ele>65</ele>
        <time>2020-09-20T07:18:56.000Z</time>
      </trkpt>
      <trkpt lat="43.60951" lon="3.83893">
        <ele>65</ele>
        <time>2020-09-20T07:18:57.000Z</time>
      </trkpt>
      <trkpt lat="43.60952" lon="3.83887">
        <ele>65</ele>
        <time>2020-09-20T07:18:58.000Z</time>
      </trkpt>
      <trkpt lat="43.60953" lon="3.83882">
        <ele>65</ele>
        <time>2020-09-20T07:18:59.000Z</time>
      </trkpt>
      <trkpt lat="43.60954" lon="3.83876">
        <ele>65</ele>
        <time>2020-09-20T07:19:00.000Z</time>
      </trkpt>
      <trkpt lat="43.60956" lon="3.83871">
        <ele>65</ele>
        <time>2020-09-20T07:19:01.000Z</time>
      </trkpt>
      <trkpt lat="43.60957" lon="3.83866">
        <ele>65</ele>
        <time>2020-09-20T07:19:02.000Z</time>
      </trkpt>
      <trkpt lat="43.60958" lon="3.8386">
        <ele>65</ele>
        <time>2020-09-20T07:19:03.000Z</time>
      </trkpt>
      <trkpt lat="43.60959" lon="3.83855">
        <ele>65</ele>
        <time>2020-09-20T07:19:04.000Z</time>
      </trkpt>
      <trkpt lat="43.60961" lon="3.8385">
        <ele>65</ele>
        <time>2020-09-20T07:19:05.000Z</time>
      </trkpt>
      <trkpt lat="43.60963" lon="3.83844">
        <ele>65</ele>
        <time>2020-09-20T07:19:06.000Z</time>
      </trkpt>
      <trkpt lat="43.60964" lon="3.83838">
        <ele>65</ele>
        <time>2020-09-20T07:19:07.000Z</time>
      </trkpt>
      <trkpt lat="43.60965" lon="3.83831">
        <ele>65</ele>
        <time>2020-09-20T07:19:08.000Z</time>
      </trkpt>
      <trkpt lat="43.60966" lon="3.83825">
        <ele>65</ele>
        <time>2020-09-20T07:19:09.000Z</time>
      </trkpt>
      <trkpt lat="43.60967" lon="3.83819">
        <ele>65</ele>
        <time>2020-09-20T07:19:10.000Z</time>
      </trkpt>
      <trkpt lat="43.60968" lon="3.83813">
        <ele>65</ele>
        <time>2020-09-20T07:19:11.000Z</time>
      </trkpt>
      <trkpt lat="43.60969" lon="3.83807">
        <ele>65</ele>
        <time>2020-09-20T07:19:12.000Z</time>
      </trkpt>
      <trkpt lat="43.60971" lon="3.83801">
        <ele>65</ele>
        <time>2020-09-20T07:19:13.000Z</time>
      </trkpt>
      <trkpt lat="43.60972" lon="3.83795">
        <ele>65</ele>
        <time>2020-09-20T07:19:14.000Z</time>
      </trkpt>
      <trkpt lat="43.60973" lon="3.8379">
        <ele>65</ele>
        <time>2020-09-20T07:19:15.000Z</time>
      </trkpt>
      <trkpt lat="43.60974" lon="3.83784">
        <ele>65</ele>
        <time>2020-09-20T07:19:16.000Z</time>
      </trkpt>
      <trkpt lat="43.60975" lon="3.83778">
        <ele>64.94899968</ele>
        <time>2020-09-20T07:19:17.000Z</time>
      </trkpt>
      <trkpt lat="43.60976" lon="3.83772">
        <ele>64.84899968</ele>
        <time>2020-09-20T07:19:18.000Z</time>
      </trkpt>
      <trkpt lat="43.60976" lon="3.83768">
        <ele>64.74899968</ele>
        <time>2020-09-20T07:19:19.000Z</time>
      </trkpt>
      <trkpt lat="43.60976" lon="3.83764">
        <ele>64.64899968</ele>
        <time>2020-09-20T07:19:20.000Z</time>
      </trkpt>
      <trkpt lat="43.60975" lon="3.83759">
        <ele>64.54899968</ele>
        <time>2020-09-20T07:19:21.000Z</time>
      </trkpt>
      <trkpt lat="43.60975" lon="3.83755">
        <ele>64.44899968</ele>
        <time>2020-09-20T07:19:22.000Z</time>
      </trkpt>
      <trkpt lat="43.60976" lon="3.8375">
        <ele>64.34899968</ele>
        <time>2020-09-20T07:19:23.000Z</time>
      </trkpt>
      <trkpt lat="43.60977" lon="3.83745">
        <ele>64.24899968</ele>
        <time>2020-09-20T07:19:24.000Z</time>
      </trkpt>
      <trkpt lat="43.60978" lon="3.8374">
        <ele>64.14899968</ele>
        <time>2020-09-20T07:19:25.000Z</time>
      </trkpt>
      <trkpt lat="43.60979" lon="3.83734">
        <ele>64.04899968</ele>
        <time>2020-09-20T07:19:26.000Z</time>
      </trkpt>
      <trkpt lat="43.6098" lon="3.83729">
        <ele>63.94899968</ele>
        <time>2020-09-20T07:19:27.000Z</time>
      </trkpt>
      <trkpt lat="43.60982" lon="3.83723">
        <ele>63.84899968</ele>
        <time>2020-09-20T07:19:28.000Z</time>
      </trkpt>
      <trkpt lat="43.60983" lon="3.83717">
        <ele>63.74899968</ele>
        <time>2020-09-20T07:19:29.000Z</time>
      </trkpt>
      <trkpt lat="43.60985" lon="3.83711">
        <ele>63.64899968</ele>
        <time>2020-09-20T07:19:30.000Z</time>
      </trkpt>
      <trkpt lat="43.60987" lon="3.83705">
        <ele>63.54899968</ele>
        <time>2020-09-20T07:19:31.000Z</time>
      </trkpt>
      <trkpt lat="43.60988" lon="3.837">
        <ele>63.44899968</ele>
        <time>2020-09-20T07:19:32.000Z</time>
      </trkpt>
      <trkpt lat="43.6099" lon="3.83694">
        <ele>63.34899968</ele>
        <time>2020-09-20T07:19:33.000Z</time>
      </trkpt>
      <trkpt lat="43.60991" lon="3.83688">
        <ele>63.24899968</ele>
        <time>2020-09-20T07:19:34.000Z</time>
      </trkpt>
      <trkpt lat="43.60993" lon="3.83681">
        <ele>63.14899968</ele>
        <time>2020-09-20T07:19:35.000Z</time>
      </trkpt>
      <trkpt lat="43.60994" lon="3.83675">
        <ele>63.04899968</ele>
        <time>2020-09-20T07:19:36.000Z</time>
      </trkpt>
      <trkpt lat="43.60995" lon="3.83669">
        <ele>63</ele>
        <time>2020-09-20T07:19:37.000Z</time>
      </trkpt>
      <trkpt lat="43.60996" lon="3.83663">
        <ele>63</ele>
        <time>2020-09-20T07:19:38.000Z</time>
      </trkpt>
      <trkpt lat="43.60998" lon="3.83656">
        <ele>63</ele>
        <time>2020-09-20T07:19:39.000Z</time>
      </trkpt>
      <trkpt lat="43.60999" lon="3.8365">
        <ele>63</ele>
        <time>2020-09-20T07:19:40.000Z</time>
      </trkpt>
      <trkpt lat="43.61" lon="3.83644">
        <ele>63</ele>
        <time>2020-09-20T07:19:41.000Z</time>
      </trkpt>
      <trkpt lat="43.61002" lon="3.83638">
        <ele>63</ele>
        <time>2020-09-20T07:19:42.000Z</time>
      </trkpt>
      <trkpt lat="43.61003" lon="3.83632">
        <ele>63</ele>
        <time>2020-09-20T07:19:43.000Z</time>
      </trkpt>
      <trkpt lat="43.61004" lon="3.83626">
        <ele>63</ele>
        <time>2020-09-20T07:19:44.000Z</time>
      </trkpt>
      <trkpt lat="43.61006" lon="3.8362">
        <ele>63</ele>
        <time>2020-09-20T07:19:45.000Z</time>
      </trkpt>
      <trkpt lat="43.61007" lon="3.83613">
        <ele>63</ele>
        <time>2020-09-20T07:19:46.000Z</time>
      </trkpt>
      <trkpt lat="43.61008" lon="3.83607">
        <ele>63</ele>
        <time>2020-09-20T07:19:47.000Z</time>
      </trkpt>
      <trkpt lat="43.61009" lon="3.83601">
        <ele>63</ele>
        <time>2020-09-20T07:19:48.000Z</time>
      </trkpt>
      <trkpt lat="43.6101" lon="3.83595">
        <ele>63</ele>
        <time>2020-09-20T07:19:49.000Z</time>
      </trkpt>
      <trkpt lat="43.61012" lon="3.83589">
        <ele>63</ele>
        <time>2020-09-20T07:19:50.000Z</time>
      </trkpt>
      <trkpt lat="43.61013" lon="3.83583">
        <ele>63</ele>
        <time>2020-09-20T07:19:51.000Z</time>
      </trkpt>
      <trkpt lat="43.61014" lon="3.83577">
        <ele>63</ele>
        <time>2020-09-20T07:19:52.000Z</time>
      </trkpt>
      <trkpt lat="43.61015" lon="3.83572">
        <ele>63</ele>
        <time>2020-09-20T07:19:53.000Z</time>
      </trkpt>
      <trkpt lat="43.61016" lon="3.83566">
        <ele>63</ele>
        <time>2020-09-20T07:19:54.000Z</time>
      </trkpt>
      <trkpt lat="43.61017" lon="3.8356">
        <ele>63</ele>
        <time>2020-09-20T07:19:55.000Z</time>
      </trkpt>
      <trkpt lat="43.61018" lon="3.83554">
        <ele>63</ele>
        <time>2020-09-20T07:19:56.000Z</time>
      </trkpt>
      <trkpt lat="43.61019" lon="3.83548">
        <ele>63.046783596548</ele>
        <time>2020-09-20T07:19:57.000Z</time>
      </trkpt>
      <trkpt lat="43.61021" lon="3.83542">
        <ele>63.14424942269</ele>
        <time>2020-09-20T07:19:58.000Z</time>
      </trkpt>
      <trkpt lat="43.61022" lon="3.83536">
        <ele>63.241715248833</ele>
        <time>2020-09-20T07:19:59.000Z</time>
      </trkpt>
      <trkpt lat="43.61023" lon="3.8353">
        <ele>63.339181074975</ele>
        <time>2020-09-20T07:20:00.000Z</time>
      </trkpt>
      <trkpt lat="43.61024" lon="3.83524">
        <ele>63.436646901117</ele>
        <time>2020-09-20T07:20:01.000Z</time>
      </trkpt>
      <trkpt lat="43.61025" lon="3.83517">
        <ele>63.534112727259</ele>
        <time>2020-09-20T07:20:02.000Z</time>
      </trkpt>
      <trkpt lat="43.61026" lon="3.83511">
        <ele>63.631578553401</ele>
        <time>2020-09-20T07:20:03.000Z</time>
      </trkpt>
      <trkpt lat="43.61028" lon="3.83505">
        <ele>63.729044379544</ele>
        <time>2020-09-20T07:20:04.000Z</time>
      </trkpt>
      <trkpt lat="43.61029" lon="3.83499">
        <ele>63.826510205686</ele>
        <time>2020-09-20T07:20:05.000Z</time>
      </trkpt>
      <trkpt lat="43.6103" lon="3.83492">
        <ele>63.923976031828</ele>
        <time>2020-09-20T07:20:06.000Z</time>
      </trkpt>
      <trkpt lat="43.61031" lon="3.83486">
        <ele>64.022656417868</ele>
        <time>2020-09-20T07:20:07.000Z</time>
      </trkpt>
      <trkpt lat="43.61032" lon="3.8348">
        <ele>64.125643131429</ele>
        <time>2020-09-20T07:20:08.000Z</time>
      </trkpt>
      <trkpt lat="43.61034" lon="3.83474">
        <ele>64.228629844989</ele>
        <time>2020-09-20T07:20:09.000Z</time>
      </trkpt>
      <trkpt lat="43.61035" lon="3.83468">
        <ele>64.33161655855</ele>
        <time>2020-09-20T07:20:10.000Z</time>
      </trkpt>
      <trkpt lat="43.61035" lon="3.83462">
        <ele>64.43460327211</ele>
        <time>2020-09-20T07:20:11.000Z</time>
      </trkpt>
      <trkpt lat="43.61037" lon="3.83456">
        <ele>64.537589985671</ele>
        <time>2020-09-20T07:20:12.000Z</time>
      </trkpt>
      <trkpt lat="43.61039" lon="3.83451">
        <ele>64.640576699231</ele>
        <time>2020-09-20T07:20:13.000Z</time>
      </trkpt>
      <trkpt lat="43.61042" lon="3.83448">
        <ele>64.743563412792</ele>
        <time>2020-09-20T07:20:14.000Z</time>
      </trkpt>
      <trkpt lat="43.61045" lon="3.83447">
        <ele>64.846550126352</ele>
        <time>2020-09-20T07:20:15.000Z</time>
      </trkpt>
      <trkpt lat="43.61049" lon="3.83446">
        <ele>64.949536839913</ele>
        <time>2020-09-20T07:20:16.000Z</time>
      </trkpt>
      <trkpt lat="43.61052" lon="3.83444">
        <ele>65</ele>
        <time>2020-09-20T07:20:17.000Z</time>
      </trkpt>
      <trkpt lat="43.61054" lon="3.8344">
        <ele>65</ele>
        <time>2020-09-20T07:20:18.000Z</time>
      </trkpt>
      <trkpt lat="43.61056" lon="3.83435">
        <ele>65</ele>
        <time>2020-09-20T07:20:19.000Z</time>
      </trkpt>
      <trkpt lat="43.61058" lon="3.8343">
        <ele>65</ele>
        <time>2020-09-20T07:20:20.000Z</time>
      </trkpt>
      <trkpt lat="43.61059" lon="3.83425">
        <ele>65</ele>
        <time>2020-09-20T07:20:21.000Z</time>
      </trkpt>
      <trkpt lat="43.6106" lon="3.8342">
        <ele>65</ele>
        <time>2020-09-20T07:20:22.000Z</time>
      </trkpt>
      <trkpt lat="43.61062" lon="3.83415">
        <ele>65</ele>
        <time>2020-09-20T07:20:23.000Z</time>
      </trkpt>
      <trkpt lat="43.61063" lon="3.8341">
        <ele>65</ele>
        <time>2020-09-20T07:20:24.000Z</time>
      </trkpt>
      <trkpt lat="43.61064" lon="3.83404">
        <ele>65</ele>
        <time>2020-09-20T07:20:25.000Z</time>
      </trkpt>
      <trkpt lat="43.61066" lon="3.83398">
        <ele>65</ele>
        <time>2020-09-20T07:20:26.000Z</time>
      </trkpt>
      <trkpt lat="43.61067" lon="3.83392">
        <ele>65</ele>
        <time>2020-09-20T07:20:27.000Z</time>
      </trkpt>
      <trkpt lat="43.61068" lon="3.83386">
        <ele>65</ele>
        <time>2020-09-20T07:20:28.000Z</time>
      </trkpt>
      <trkpt lat="43.6107" lon="3.8338">
        <ele>65</ele>
        <time>2020-09-20T07:20:29.000Z</time>
      </trkpt>
      <trkpt lat="43.61072" lon="3.83374">
        <ele>65</ele>
        <time>2020-09-20T07:20:30.000Z</time>
      </trkpt>
      <trkpt lat="43.61073" lon="3.83368">
        <ele>65</ele>
        <time>2020-09-20T07:20:31.000Z</time>
      </trkpt>
      <trkpt lat="43.61075" lon="3.83362">
        <ele>65</ele>
        <time>2020-09-20T07:20:32.000Z</time>
      </trkpt>
      <trkpt lat="43.61077" lon="3.83357">
        <ele>65</ele>
        <time>2020-09-20T07:20:33.000Z</time>
      </trkpt>
      <trkpt lat="43.61079" lon="3.83352">
        <ele>65</ele>
        <time>2020-09-20T07:20:34.000Z</time>
      </trkpt>
      <trkpt lat="43.6108" lon="3.83346">
        <ele>65</ele>
        <time>2020-09-20T07:20:35.000Z</time>
      </trkpt>
      <trkpt lat="43.61082" lon="3.83341">
        <ele>65</ele>
        <time>2020-09-20T07:20:36.000Z</time>
      </trkpt>
      <trkpt lat="43.61084" lon="3.83336">
        <ele>65</ele>
        <time>2020-09-20T07:20:37.000Z</time>
      </trkpt>
      <trkpt lat="43.61085" lon="3.83331">
        <ele>65</ele>
        <time>2020-09-20T07:20:38.000Z</time>
      </trkpt>
      <trkpt lat="43.61086" lon="3.83325">
        <ele>65</ele>
        <time>2020-09-20T07:20:39.000Z</time>
      </trkpt>
      <trkpt lat="43.61088" lon="3.8332">
        <ele>65</ele>
        <time>2020-09-20T07:20:40.000Z</time>
      </trkpt>
      <trkpt lat="43.61089" lon="3.83315">
        <ele>65</ele>
        <time>2020-09-20T07:20:41.000Z</time>
      </trkpt>
      <trkpt lat="43.61091" lon="3.83309">
        <ele>65</ele>
        <time>2020-09-20T07:20:42.000Z</time>
      </trkpt>
      <trkpt lat="43.61093" lon="3.83303">
        <ele>65</ele>
        <time>2020-09-20T07:20:43.000Z</time>
      </trkpt>
      <trkpt lat="43.61095" lon="3.83297">
        <ele>65</ele>
        <time>2020-09-20T07:20:44.000Z</time>
      </trkpt>
      <trkpt lat="43.61097" lon="3.83292">
        <ele>65</ele>
        <time>2020-09-20T07:20:45.000Z</time>
      </trkpt>
      <trkpt lat="43.61099" lon="3.83286">
        <ele>65</ele>
        <time>2020-09-20T07:20:46.000Z</time>
      </trkpt>
      <trkpt lat="43.61101" lon="3.8328">
        <ele>65</ele>
        <time>2020-09-20T07:20:47.000Z</time>
      </trkpt>
      <trkpt lat="43.61103" lon="3.83273">
        <ele>65</ele>
        <time>2020-09-20T07:20:48.000Z</time>
      </trkpt>
      <trkpt lat="43.61105" lon="3.83267">
        <ele>65</ele>
        <time>2020-09-20T07:20:49.000Z</time>
      </trkpt>
      <trkpt lat="43.61106" lon="3.8326">
        <ele>65</ele>
        <time>2020-09-20T07:20:50.000Z</time>
      </trkpt>
      <trkpt lat="43.61108" lon="3.83253">
        <ele>65</ele>
        <time>2020-09-20T07:20:51.000Z</time>
      </trkpt>
      <trkpt lat="43.6111" lon="3.83246">
        <ele>65</ele>
        <time>2020-09-20T07:20:52.000Z</time>
      </trkpt>
      <trkpt lat="43.61111" lon="3.83239">
        <ele>65</ele>
        <time>2020-09-20T07:20:53.000Z</time>
      </trkpt>
      <trkpt lat="43.61113" lon="3.83232">
        <ele>65</ele>
        <time>2020-09-20T07:20:54.000Z</time>
      </trkpt>
      <trkpt lat="43.61115" lon="3.83225">
        <ele>65</ele>
        <time>2020-09-20T07:20:55.000Z</time>
      </trkpt>
      <trkpt lat="43.61118" lon="3.83218">
        <ele>65</ele>
        <time>2020-09-20T07:20:56.000Z</time>
      </trkpt>
      <trkpt lat="43.6112" lon="3.83211">
        <ele>65</ele>
        <time>2020-09-20T07:20:57.000Z</time>
      </trkpt>
      <trkpt lat="43.61122" lon="3.83204">
        <ele>65</ele>
        <time>2020-09-20T07:20:58.000Z</time>
      </trkpt>
      <trkpt lat="43.61124" lon="3.83197">
        <ele>65</ele>
        <time>2020-09-20T07:20:59.000Z</time>
      </trkpt>
      <trkpt lat="43.61126" lon="3.8319">
        <ele>65</ele>
        <time>2020-09-20T07:21:00.000Z</time>
      </trkpt>
      <trkpt lat="43.61128" lon="3.83182">
        <ele>65</ele>
        <time>2020-09-20T07:21:01.000Z</time>
      </trkpt>
      <trkpt lat="43.6113" lon="3.83175">
        <ele>65</ele>
        <time>2020-09-20T07:21:02.000Z</time>
      </trkpt>
      <trkpt lat="43.61132" lon="3.83168">
        <ele>65</ele>
        <time>2020-09-20T07:21:03.000Z</time>
      </trkpt>
      <trkpt lat="43.61134" lon="3.83161">
        <ele>65</ele>
        <time>2020-09-20T07:21:04.000Z</time>
      </trkpt>
      <trkpt lat="43.61136" lon="3.83154">
        <ele>65</ele>
        <time>2020-09-20T07:21:05.000Z</time>
      </trkpt>
      <trkpt lat="43.61137" lon="3.83147">
        <ele>65</ele>
        <time>2020-09-20T07:21:06.000Z</time>
      </trkpt>
      <trkpt lat="43.61139" lon="3.83141">
        <ele>64.995802726817</ele>
        <time>2020-09-20T07:21:07.000Z</time>
      </trkpt>
      <trkpt lat="43.6114" lon="3.83134">
        <ele>64.890870897249</ele>
        <time>2020-09-20T07:21:08.000Z</time>
      </trkpt>
      <trkpt lat="43.61141" lon="3.83128">
        <ele>64.785939067681</ele>
        <time>2020-09-20T07:21:09.000Z</time>
      </trkpt>
      <trkpt lat="43.61142" lon="3.83121">
        <ele>64.681007238114</ele>
        <time>2020-09-20T07:21:10.000Z</time>
      </trkpt>
      <trkpt lat="43.61144" lon="3.83114">
        <ele>64.576075408546</ele>
        <time>2020-09-20T07:21:11.000Z</time>
      </trkpt>
      <trkpt lat="43.61145" lon="3.83108">
        <ele>64.471143578978</ele>
        <time>2020-09-20T07:21:12.000Z</time>
      </trkpt>
      <trkpt lat="43.61147" lon="3.83101">
        <ele>64.36621174941</ele>
        <time>2020-09-20T07:21:13.000Z</time>
      </trkpt>
      <trkpt lat="43.61149" lon="3.83094">
        <ele>64.261279919842</ele>
        <time>2020-09-20T07:21:14.000Z</time>
      </trkpt>
      <trkpt lat="43.6115" lon="3.83087">
        <ele>64.156348090274</ele>
        <time>2020-09-20T07:21:15.000Z</time>
      </trkpt>
      <trkpt lat="43.61152" lon="3.8308">
        <ele>64.051416260706</ele>
        <time>2020-09-20T07:21:16.000Z</time>
      </trkpt>
      <trkpt lat="43.61154" lon="3.83073">
        <ele>63.950581085271</ele>
        <time>2020-09-20T07:21:17.000Z</time>
      </trkpt>
      <trkpt lat="43.61157" lon="3.83066">
        <ele>63.853681860465</ele>
        <time>2020-09-20T07:21:18.000Z</time>
      </trkpt>
      <trkpt lat="43.6116" lon="3.83059">
        <ele>63.756782635659</ele>
        <time>2020-09-20T07:21:19.000Z</time>
      </trkpt>
      <trkpt lat="43.61162" lon="3.83052">
        <ele>63.659883410853</ele>
        <time>2020-09-20T07:21:20.000Z</time>
      </trkpt>
      <trkpt lat="43.61164" lon="3.83045">
        <ele>63.562984186046</ele>
        <time>2020-09-20T07:21:21.000Z</time>
      </trkpt>
      <trkpt lat="43.61166" lon="3.83038">
        <ele>63.46608496124</ele>
        <time>2020-09-20T07:21:22.000Z</time>
      </trkpt>
      <trkpt lat="43.61168" lon="3.83031">
        <ele>63.369185736434</ele>
        <time>2020-09-20T07:21:23.000Z</time>
      </trkpt>
      <trkpt lat="43.6117" lon="3.83024">
        <ele>63.272286511628</ele>
        <time>2020-09-20T07:21:24.000Z</time>
      </trkpt>
      <trkpt lat="43.61173" lon="3.83017">
        <ele>63.175387286822</ele>
        <time>2020-09-20T07:21:25.000Z</time>
      </trkpt>
      <trkpt lat="43.61176" lon="3.8301">
        <ele>63.078488062016</ele>
        <time>2020-09-20T07:21:26.000Z</time>
      </trkpt>
      <trkpt lat="43.61178" lon="3.83003">
        <ele>63</ele>
        <time>2020-09-20T07:21:27.000Z</time>
      </trkpt>
      <trkpt lat="43.61181" lon="3.82997">
        <ele>63</ele>
        <time>2020-09-20T07:21:28.000Z</time>
      </trkpt>
      <trkpt lat="43.61184" lon="3.8299">
        <ele>63</ele>
        <time>2020-09-20T07:21:29.000Z</time>
      </trkpt>
      <trkpt lat="43.61186" lon="3.82984">
        <ele>63</ele>
        <time>2020-09-20T07:21:30.000Z</time>
      </trkpt>
      <trkpt lat="43.61189" lon="3.82977">
        <ele>63</ele>
        <time>2020-09-20T07:21:31.000Z</time>
      </trkpt>
      <trkpt lat="43.61191" lon="3.8297">
        <ele>63</ele>
        <time>2020-09-20T07:21:32.000Z</time>
      </trkpt>
      <trkpt lat="43.61191" lon="3.82962">
        <ele>63</ele>
        <time>2020-09-20T07:21:33.000Z</time>
      </trkpt>
      <trkpt lat="43.61191" lon="3.82955">
        <ele>63</ele>
        <time>2020-09-20T07:21:34.000Z</time>
      </trkpt>
      <trkpt lat="43.61191" lon="3.82947">
        <ele>63</ele>
        <time>2020-09-20T07:21:35.000Z</time>
      </trkpt>
      <trkpt lat="43.6119" lon="3.82939">
        <ele>63</ele>
        <time>2020-09-20T07:21:36.000Z</time>
      </trkpt>
      <trkpt lat="43.61189" lon="3.82932">
        <ele>63.05100032</ele>
        <time>2020-09-20T07:21:37.000Z</time>
      </trkpt>
      <trkpt lat="43.61187" lon="3.82924">
        <ele>63.15100032</ele>
        <time>2020-09-20T07:21:38.000Z</time>
      </trkpt>
      <trkpt lat="43.61186" lon="3.82917">
        <ele>63.25100032</ele>
        <time>2020-09-20T07:21:39.000Z</time>
      </trkpt>
      <trkpt lat="43.61184" lon="3.8291">
        <ele>63.35100032</ele>
        <time>2020-09-20T07:21:40.000Z</time>
      </trkpt>
      <trkpt lat="43.61183" lon="3.82903">
        <ele>63.45100032</ele>
        <time>2020-09-20T07:21:41.000Z</time>
      </trkpt>
      <trkpt lat="43.61181" lon="3.82896">
        <ele>63.55100032</ele>
        <time>2020-09-20T07:21:42.000Z</time>
      </trkpt>
      <trkpt lat="43.61179" lon="3.8289">
        <ele>63.65100032</ele>
        <time>2020-09-20T07:21:43.000Z</time>
      </trkpt>
      <trkpt lat="43.61177" lon="3.82883">
        <ele>63.75100032</ele>
        <time>2020-09-20T07:21:44.000Z</time>
      </trkpt>
      <trkpt lat="43.61176" lon="3.82876">
        <ele>63.85100032</ele>
        <time>2020-09-20T07:21:45.000Z</time>
      </trkpt>
      <trkpt lat="43.61174" lon="3.8287">
        <ele>63.95100032</ele>
        <time>2020-09-20T07:21:46.000Z</time>
      </trkpt>
      <trkpt lat="43.61173" lon="3.82863">
        <ele>63.94899968</ele>
        <time>2020-09-20T07:21:47.000Z</time>
      </trkpt>
      <trkpt lat="43.61171" lon="3.82857">
        <ele>63.84899968</ele>
        <time>2020-09-20T07:21:48.000Z</time>
      </trkpt>
      <trkpt lat="43.6117" lon="3.8285">
        <ele>63.74899968</ele>
        <time>2020-09-20T07:21:49.000Z</time>
      </trkpt>
      <trkpt lat="43.61168" lon="3.82844">
        <ele>63.64899968</ele>
        <time>2020-09-20T07:21:50.000Z</time>
      </trkpt>
      <trkpt lat="43.61167" lon="3.82837">
        <ele>63.54899968</ele>
        <time>2020-09-20T07:21:51.000Z</time>
      </trkpt>
      <trkpt lat="43.61165" lon="3.8283">
        <ele>63.44899968</ele>
        <time>2020-09-20T07:21:52.000Z</time>
      </trkpt>
      <trkpt lat="43.61164" lon="3.82823">
        <ele>63.34899968</ele>
        <time>2020-09-20T07:21:53.000Z</time>
      </trkpt>
      <trkpt lat="43.61163" lon="3.82816">
        <ele>63.24899968</ele>
        <time>2020-09-20T07:21:54.000Z</time>
      </trkpt>
      <trkpt lat="43.61162" lon="3.82809">
        <ele>63.14899968</ele>
        <time>2020-09-20T07:21:55.000Z</time>
      </trkpt>
      <trkpt lat="43.61162" lon="3.82802">
        <ele>63.04899968</ele>
        <time>2020-09-20T07:21:56.000Z</time>
      </trkpt>
      <trkpt lat="43.61163" lon="3.82795">
        <ele>62.94899968</ele>
        <time>2020-09-20T07:21:57.000Z</time>
      </trkpt>
      <trkpt lat="43.61164" lon="3.82788">
        <ele>62.84899968</ele>
        <time>2020-09-20T07:21:58.000Z</time>
      </trkpt>
      <trkpt lat="43.61165" lon="3.82782">
        <ele>62.74899968</ele>
        <time>2020-09-20T07:21:59.000Z</time>
      </trkpt>
      <trkpt lat="43.61167" lon="3.82776">
        <ele>62.64899968</ele>
        <time>2020-09-20T07:22:00.000Z</time>
      </trkpt>
      <trkpt lat="43.6117" lon="3.8277">
        <ele>62.54899968</ele>
        <time>2020-09-20T07:22:01.000Z</time>
      </trkpt>
      <trkpt lat="43.61172" lon="3.82766">
        <ele>62.44899968</ele>
        <time>2020-09-20T07:22:02.000Z</time>
      </trkpt>
      <trkpt lat="43.61174" lon="3.82761">
        <ele>62.34899968</ele>
        <time>2020-09-20T07:22:03.000Z</time>
      </trkpt>
      <trkpt lat="43.61175" lon="3.82757">
        <ele>62.24899968</ele>
        <time>2020-09-20T07:22:04.000Z</time>
      </trkpt>
      <trkpt lat="43.61175" lon="3.82754">
        <ele>62.14899968</ele>
        <time>2020-09-20T07:22:05.000Z</time>
      </trkpt>
      <trkpt lat="43.61173" lon="3.82753">
        <ele>62.04899968</ele>
        <time>2020-09-20T07:22:06.000Z</time>
      </trkpt>
      <trkpt lat="43.61173" lon="3.82753">
        <ele>62.000042541384</ele>
        <time>2020-09-20T07:22:13.000Z</time>
      </trkpt>
      <trkpt lat="43.61168" lon="3.82747">
        <ele>62.998947704554</ele>
        <time>2020-09-20T07:26:08.000Z</time>
      </trkpt>
      <trkpt lat="43.61169" lon="3.82744">
        <ele>62.893684475745</ele>
        <time>2020-09-20T07:26:09.000Z</time>
      </trkpt>
      <trkpt lat="43.6117" lon="3.82739">
        <ele>62.788421246936</ele>
        <time>2020-09-20T07:26:10.000Z</time>
      </trkpt>
      <trkpt lat="43.6117" lon="3.82735">
        <ele>62.683158018128</ele>
        <time>2020-09-20T07:26:11.000Z</time>
      </trkpt>
      <trkpt lat="43.61171" lon="3.82731">
        <ele>62.577894789319</ele>
        <time>2020-09-20T07:26:12.000Z</time>
      </trkpt>
      <trkpt lat="43.6117" lon="3.82726">
        <ele>62.47263156051</ele>
        <time>2020-09-20T07:26:13.000Z</time>
      </trkpt>
      <trkpt lat="43.61171" lon="3.8272">
        <ele>62.367368331701</ele>
        <time>2020-09-20T07:26:14.000Z</time>
      </trkpt>
      <trkpt lat="43.61171" lon="3.82713">
        <ele>62.262105102892</ele>
        <time>2020-09-20T07:26:15.000Z</time>
      </trkpt>
      <trkpt lat="43.61173" lon="3.82706">
        <ele>62.156841874083</ele>
        <time>2020-09-20T07:26:16.000Z</time>
      </trkpt>
      <trkpt lat="43.61174" lon="3.82699">
        <ele>62.051578645274</ele>
        <time>2020-09-20T07:26:17.000Z</time>
      </trkpt>
      <trkpt lat="43.61175" lon="3.82693">
        <ele>62</ele>
        <time>2020-09-20T07:26:18.000Z</time>
      </trkpt>
      <trkpt lat="43.61176" lon="3.82686">
        <ele>62</ele>
        <time>2020-09-20T07:26:19.000Z</time>
      </trkpt>
      <trkpt lat="43.61177" lon="3.8268">
        <ele>62</ele>
        <time>2020-09-20T07:26:20.000Z</time>
      </trkpt>
      <trkpt lat="43.61178" lon="3.82674">
        <ele>62</ele>
        <time>2020-09-20T07:26:21.000Z</time>
      </trkpt>
      <trkpt lat="43.61179" lon="3.82668">
        <ele>62</ele>
        <time>2020-09-20T07:26:22.000Z</time>
      </trkpt>
      <trkpt lat="43.6118" lon="3.82662">
        <ele>62</ele>
        <time>2020-09-20T07:26:23.000Z</time>
      </trkpt>
      <trkpt lat="43.61181" lon="3.82656">
        <ele>62</ele>
        <time>2020-09-20T07:26:24.000Z</time>
      </trkpt>
      <trkpt lat="43.61182" lon="3.8265">
        <ele>62</ele>
        <time>2020-09-20T07:26:25.000Z</time>
      </trkpt>
      <trkpt lat="43.61183" lon="3.82644">
        <ele>62</ele>
        <time>2020-09-20T07:26:26.000Z</time>
      </trkpt>
      <trkpt lat="43.61184" lon="3.82638">
        <ele>62</ele>
        <time>2020-09-20T07:26:27.000Z</time>
      </trkpt>
      <trkpt lat="43.61185" lon="3.82631">
        <ele>62</ele>
        <time>2020-09-20T07:26:28.000Z</time>
      </trkpt>
      <trkpt lat="43.61186" lon="3.82625">
        <ele>62</ele>
        <time>2020-09-20T07:26:29.000Z</time>
      </trkpt>
      <trkpt lat="43.61186" lon="3.82618">
        <ele>62</ele>
        <time>2020-09-20T07:26:30.000Z</time>
      </trkpt>
      <trkpt lat="43.61187" lon="3.82612">
        <ele>62</ele>
        <time>2020-09-20T07:26:31.000Z</time>
      </trkpt>
      <trkpt lat="43.61188" lon="3.82605">
        <ele>62</ele>
        <time>2020-09-20T07:26:32.000Z</time>
      </trkpt>
      <trkpt lat="43.61189" lon="3.82598">
        <ele>62</ele>
        <time>2020-09-20T07:26:33.000Z</time>
      </trkpt>
      <trkpt lat="43.61191" lon="3.82591">
        <ele>62</ele>
        <time>2020-09-20T07:26:34.000Z</time>
      </trkpt>
      <trkpt lat="43.61192" lon="3.82584">
        <ele>62</ele>
        <time>2020-09-20T07:26:35.000Z</time>
      </trkpt>
      <trkpt lat="43.61193" lon="3.82577">
        <ele>62</ele>
        <time>2020-09-20T07:26:36.000Z</time>
      </trkpt>
      <trkpt lat="43.61194" lon="3.8257">
        <ele>62</ele>
        <time>2020-09-20T07:26:37.000Z</time>
      </trkpt>
      <trkpt lat="43.61195" lon="3.82564">
        <ele>61.94899968</ele>
        <time>2020-09-20T07:26:38.000Z</time>
      </trkpt>
      <trkpt lat="43.61196" lon="3.82557">
        <ele>61.84899968</ele>
        <time>2020-09-20T07:26:39.000Z</time>
      </trkpt>
      <trkpt lat="43.61198" lon="3.82551">
        <ele>61.74899968</ele>
        <time>2020-09-20T07:26:40.000Z</time>
      </trkpt>
      <trkpt lat="43.61202" lon="3.82545">
        <ele>61.64899968</ele>
        <time>2020-09-20T07:26:41.000Z</time>
      </trkpt>
      <trkpt lat="43.61205" lon="3.82542">
        <ele>61.54899968</ele>
        <time>2020-09-20T07:26:42.000Z</time>
      </trkpt>
      <trkpt lat="43.61208" lon="3.82539">
        <ele>61.44899968</ele>
        <time>2020-09-20T07:26:43.000Z</time>
      </trkpt>
      <trkpt lat="43.61211" lon="3.82536">
        <ele>61.34899968</ele>
        <time>2020-09-20T07:26:44.000Z</time>
      </trkpt>
      <trkpt lat="43.61215" lon="3.82534">
        <ele>61.24899968</ele>
        <time>2020-09-20T07:26:45.000Z</time>
      </trkpt>
      <trkpt lat="43.61218" lon="3.82532">
        <ele>61.14899968</ele>
        <time>2020-09-20T07:26:46.000Z</time>
      </trkpt>
      <trkpt lat="43.61222" lon="3.8253">
        <ele>61.04899968</ele>
        <time>2020-09-20T07:26:47.000Z</time>
      </trkpt>
      <trkpt lat="43.61226" lon="3.82528">
        <ele>60.94899968</ele>
        <time>2020-09-20T07:26:48.000Z</time>
      </trkpt>
      <trkpt lat="43.6123" lon="3.82526">
        <ele>60.84899968</ele>
        <time>2020-09-20T07:26:49.000Z</time>
      </trkpt>
      <trkpt lat="43.61234" lon="3.82524">
        <ele>60.74899968</ele>
        <time>2020-09-20T07:26:50.000Z</time>
      </trkpt>
      <trkpt lat="43.61239" lon="3.82522">
        <ele>60.64899968</ele>
        <time>2020-09-20T07:26:51.000Z</time>
      </trkpt>
      <trkpt lat="43.61243" lon="3.8252">
        <ele>60.54899968</ele>
        <time>2020-09-20T07:26:52.000Z</time>
      </trkpt>
      <trkpt lat="43.61247" lon="3.82518">
        <ele>60.44899968</ele>
        <time>2020-09-20T07:26:53.000Z</time>
      </trkpt>
      <trkpt lat="43.61252" lon="3.82515">
        <ele>60.34899968</ele>
        <time>2020-09-20T07:26:54.000Z</time>
      </trkpt>
      <trkpt lat="43.61257" lon="3.82513">
        <ele>60.24899968</ele>
        <time>2020-09-20T07:26:55.000Z</time>
      </trkpt>
      <trkpt lat="43.61267" lon="3.82508">
        <ele>60.04899968</ele>
        <time>2020-09-20T07:26:57.000Z</time>
      </trkpt>
      <trkpt lat="43.61276" lon="3.82503">
        <ele>60</ele>
        <time>2020-09-20T07:26:59.000Z</time>
      </trkpt>
      <trkpt lat="43.61283" lon="3.82496">
        <ele>60</ele>
        <time>2020-09-20T07:27:01.000Z</time>
      </trkpt>
      <trkpt lat="43.61291" lon="3.82487">
        <ele>60</ele>
        <time>2020-09-20T07:27:03.000Z</time>
      </trkpt>
      <trkpt lat="43.61296" lon="3.82476">
        <ele>60</ele>
        <time>2020-09-20T07:27:05.000Z</time>
      </trkpt>
      <trkpt lat="43.61299" lon="3.82471">
        <ele>60</ele>
        <time>2020-09-20T07:27:06.000Z</time>
      </trkpt>
      <trkpt lat="43.61302" lon="3.82465">
        <ele>60</ele>
        <time>2020-09-20T07:27:07.000Z</time>
      </trkpt>
      <trkpt lat="43.61304" lon="3.8246">
        <ele>59.97734229377</ele>
        <time>2020-09-20T07:27:08.000Z</time>
      </trkpt>
      <trkpt lat="43.61306" lon="3.82454">
        <ele>59.874355715969</ele>
        <time>2020-09-20T07:27:09.000Z</time>
      </trkpt>
      <trkpt lat="43.61307" lon="3.82448">
        <ele>59.771369138169</ele>
        <time>2020-09-20T07:27:10.000Z</time>
      </trkpt>
      <trkpt lat="43.61309" lon="3.82442">
        <ele>59.668382560368</ele>
        <time>2020-09-20T07:27:11.000Z</time>
      </trkpt>
      <trkpt lat="43.61309" lon="3.82436">
        <ele>59.565395982568</ele>
        <time>2020-09-20T07:27:12.000Z</time>
      </trkpt>
      <trkpt lat="43.6131" lon="3.82429">
        <ele>59.462409404767</ele>
        <time>2020-09-20T07:27:13.000Z</time>
      </trkpt>
      <trkpt lat="43.6131" lon="3.82423">
        <ele>59.359422826967</ele>
        <time>2020-09-20T07:27:14.000Z</time>
      </trkpt>
      <trkpt lat="43.6131" lon="3.82417">
        <ele>59.256436249166</ele>
        <time>2020-09-20T07:27:15.000Z</time>
      </trkpt>
      <trkpt lat="43.6131" lon="3.82411">
        <ele>59.153449671366</ele>
        <time>2020-09-20T07:27:16.000Z</time>
      </trkpt>
      <trkpt lat="43.61311" lon="3.82406">
        <ele>59.050463093565</ele>
        <time>2020-09-20T07:27:17.000Z</time>
      </trkpt>
      <trkpt lat="43.61311" lon="3.82399">
        <ele>58.94899968</ele>
        <time>2020-09-20T07:27:18.000Z</time>
      </trkpt>
      <trkpt lat="43.61309" lon="3.82393">
        <ele>58.84899968</ele>
        <time>2020-09-20T07:27:19.000Z</time>
      </trkpt>
      <trkpt lat="43.61308" lon="3.82386">
        <ele>58.74899968</ele>
        <time>2020-09-20T07:27:20.000Z</time>
      </trkpt>
      <trkpt lat="43.61307" lon="3.82378">
        <ele>58.64899968</ele>
        <time>2020-09-20T07:27:21.000Z</time>
      </trkpt>
      <trkpt lat="43.61306" lon="3.82371">
        <ele>58.54899968</ele>
        <time>2020-09-20T07:27:22.000Z</time>
      </trkpt>
      <trkpt lat="43.61305" lon="3.82364">
        <ele>58.44899968</ele>
        <time>2020-09-20T07:27:23.000Z</time>
      </trkpt>
      <trkpt lat="43.61304" lon="3.82357">
        <ele>58.34899968</ele>
        <time>2020-09-20T07:27:24.000Z</time>
      </trkpt>
      <trkpt lat="43.61304" lon="3.82351">
        <ele>58.24899968</ele>
        <time>2020-09-20T07:27:25.000Z</time>
      </trkpt>
      <trkpt lat="43.61303" lon="3.82345">
        <ele>58.14899968</ele>
        <time>2020-09-20T07:27:26.000Z</time>
      </trkpt>
      <trkpt lat="43.61303" lon="3.82339">
        <ele>58.04899968</ele>
        <time>2020-09-20T07:27:27.000Z</time>
      </trkpt>
      <trkpt lat="43.61303" lon="3.82334">
        <ele>58</ele>
        <time>2020-09-20T07:27:28.000Z</time>
      </trkpt>
      <trkpt lat="43.61304" lon="3.82328">
        <ele>58</ele>
        <time>2020-09-20T07:27:29.000Z</time>
      </trkpt>
      <trkpt lat="43.61306" lon="3.82322">
        <ele>58</ele>
        <time>2020-09-20T07:27:30.000Z</time>
      </trkpt>
      <trkpt lat="43.61308" lon="3.82317">
        <ele>58</ele>
        <time>2020-09-20T07:27:31.000Z</time>
      </trkpt>
      <trkpt lat="43.61311" lon="3.82311">
        <ele>58</ele>
        <time>2020-09-20T07:27:32.000Z</time>
      </trkpt>
      <trkpt lat="43.61315" lon="3.82307">
        <ele>58</ele>
        <time>2020-09-20T07:27:33.000Z</time>
      </trkpt>
      <trkpt lat="43.6132" lon="3.82303">
        <ele>58</ele>
        <time>2020-09-20T07:27:34.000Z</time>
      </trkpt>
      <trkpt lat="43.61323" lon="3.823">
        <ele>58</ele>
        <time>2020-09-20T07:27:35.000Z</time>
      </trkpt>
      <trkpt lat="43.61327" lon="3.82298">
        <ele>58</ele>
        <time>2020-09-20T07:27:36.000Z</time>
      </trkpt>
      <trkpt lat="43.6133" lon="3.82296">
        <ele>58</ele>
        <time>2020-09-20T07:27:37.000Z</time>
      </trkpt>
      <trkpt lat="43.61333" lon="3.82293">
        <ele>57.94899968</ele>
        <time>2020-09-20T07:27:38.000Z</time>
      </trkpt>
      <trkpt lat="43.61336" lon="3.82291">
        <ele>57.84899968</ele>
        <time>2020-09-20T07:27:39.000Z</time>
      </trkpt>
      <trkpt lat="43.6134" lon="3.82287">
        <ele>57.74899968</ele>
        <time>2020-09-20T07:27:40.000Z</time>
      </trkpt>
      <trkpt lat="43.61344" lon="3.82283">
        <ele>57.64899968</ele>
        <time>2020-09-20T07:27:41.000Z</time>
      </trkpt>
      <trkpt lat="43.61349" lon="3.82279">
        <ele>57.54899968</ele>
        <time>2020-09-20T07:27:42.000Z</time>
      </trkpt>
      <trkpt lat="43.61356" lon="3.82274">
        <ele>57.44899968</ele>
        <time>2020-09-20T07:27:43.000Z</time>
      </trkpt>
      <trkpt lat="43.61363" lon="3.8227">
        <ele>57.34899968</ele>
        <time>2020-09-20T07:27:44.000Z</time>
      </trkpt>
      <trkpt lat="43.6137" lon="3.82266">
        <ele>57.24899968</ele>
        <time>2020-09-20T07:27:45.000Z</time>
      </trkpt>
      <trkpt lat="43.61376" lon="3.82264">
        <ele>57.14899968</ele>
        <time>2020-09-20T07:27:46.000Z</time>
      </trkpt>
      <trkpt lat="43.61383" lon="3.82262">
        <ele>57.04899968</ele>
        <time>2020-09-20T07:27:47.000Z</time>
      </trkpt>
      <trkpt lat="43.61388" lon="3.8226">
        <ele>56.89799936</ele>
        <time>2020-09-20T07:27:48.000Z</time>
      </trkpt>
      <trkpt lat="43.61393" lon="3.82257">
        <ele>56.69799936</ele>
        <time>2020-09-20T07:27:49.000Z</time>
      </trkpt>
      <trkpt lat="43.61398" lon="3.82253">
        <ele>56.49799936</ele>
        <time>2020-09-20T07:27:50.000Z</time>
      </trkpt>
      <trkpt lat="43.61403" lon="3.82249">
        <ele>56.29799936</ele>
        <time>2020-09-20T07:27:51.000Z</time>
      </trkpt>
      <trkpt lat="43.61408" lon="3.82245">
        <ele>56.09799936</ele>
        <time>2020-09-20T07:27:52.000Z</time>
      </trkpt>
      <trkpt lat="43.61413" lon="3.82241">
        <ele>55.89799936</ele>
        <time>2020-09-20T07:27:53.000Z</time>
      </trkpt>
      <trkpt lat="43.61418" lon="3.82237">
        <ele>55.69799936</ele>
        <time>2020-09-20T07:27:54.000Z</time>
      </trkpt>
      <trkpt lat="43.61423" lon="3.82234">
        <ele>55.49799936</ele>
        <time>2020-09-20T07:27:55.000Z</time>
      </trkpt>
      <trkpt lat="43.61427" lon="3.82231">
        <ele>55.29799936</ele>
        <time>2020-09-20T07:27:56.000Z</time>
      </trkpt>
      <trkpt lat="43.61432" lon="3.82228">
        <ele>55.09799936</ele>
        <time>2020-09-20T07:27:57.000Z</time>
      </trkpt>
      <trkpt lat="43.61436" lon="3.82225">
        <ele>54.847456718658</ele>
        <time>2020-09-20T07:27:58.000Z</time>
      </trkpt>
      <trkpt lat="43.61442" lon="3.82222">
        <ele>54.54835412216</ele>
        <time>2020-09-20T07:27:59.000Z</time>
      </trkpt>
      <trkpt lat="43.61447" lon="3.82218">
        <ele>54.249251525663</ele>
        <time>2020-09-20T07:28:00.000Z</time>
      </trkpt>
      <trkpt lat="43.61453" lon="3.82215">
        <ele>53.950148929165</ele>
        <time>2020-09-20T07:28:01.000Z</time>
      </trkpt>
      <trkpt lat="43.61458" lon="3.82213">
        <ele>53.651046332667</ele>
        <time>2020-09-20T07:28:02.000Z</time>
      </trkpt>
      <trkpt lat="43.61463" lon="3.82211">
        <ele>53.35194373617</ele>
        <time>2020-09-20T07:28:03.000Z</time>
      </trkpt>
      <trkpt lat="43.61468" lon="3.82209">
        <ele>53.052841139672</ele>
        <time>2020-09-20T07:28:04.000Z</time>
      </trkpt>
      <trkpt lat="43.61472" lon="3.82207">
        <ele>52.753738543174</ele>
        <time>2020-09-20T07:28:05.000Z</time>
      </trkpt>
      <trkpt lat="43.61477" lon="3.82206">
        <ele>52.454635946676</ele>
        <time>2020-09-20T07:28:06.000Z</time>
      </trkpt>
      <trkpt lat="43.61481" lon="3.82205">
        <ele>52.155533350179</ele>
        <time>2020-09-20T07:28:07.000Z</time>
      </trkpt>
      <trkpt lat="43.61486" lon="3.82204">
        <ele>51.90438247012</ele>
        <time>2020-09-20T07:28:08.000Z</time>
      </trkpt>
      <trkpt lat="43.6149" lon="3.82204">
        <ele>51.705179282868</ele>
        <time>2020-09-20T07:28:09.000Z</time>
      </trkpt>
      <trkpt lat="43.61494" lon="3.82204">
        <ele>51.505976095617</ele>
        <time>2020-09-20T07:28:10.000Z</time>
      </trkpt>
      <trkpt lat="43.61498" lon="3.82205">
        <ele>51.306772908366</ele>
        <time>2020-09-20T07:28:11.000Z</time>
      </trkpt>
      <trkpt lat="43.61502" lon="3.82205">
        <ele>51.107569721116</ele>
        <time>2020-09-20T07:28:12.000Z</time>
      </trkpt>
      <trkpt lat="43.61505" lon="3.82205">
        <ele>50.908366533865</ele>
        <time>2020-09-20T07:28:13.000Z</time>
      </trkpt>
      <trkpt lat="43.61509" lon="3.82205">
        <ele>50.709163346614</ele>
        <time>2020-09-20T07:28:14.000Z</time>
      </trkpt>
      <trkpt lat="43.61512" lon="3.82203">
        <ele>50.509960159362</ele>
        <time>2020-09-20T07:28:15.000Z</time>
      </trkpt>
      <trkpt lat="43.61514" lon="3.822">
        <ele>50.310756972112</ele>
        <time>2020-09-20T07:28:16.000Z</time>
      </trkpt>
      <trkpt lat="43.61516" lon="3.82197">
        <ele>50.111553784861</ele>
        <time>2020-09-20T07:28:17.000Z</time>
      </trkpt>
      <trkpt lat="43.61517" lon="3.82192">
        <ele>49.955689814522</ele>
        <time>2020-09-20T07:28:18.000Z</time>
      </trkpt>
      <trkpt lat="43.61518" lon="3.82188">
        <ele>49.854984847528</ele>
        <time>2020-09-20T07:28:19.000Z</time>
      </trkpt>
      <trkpt lat="43.61519" lon="3.82185">
        <ele>49.754279880533</ele>
        <time>2020-09-20T07:28:20.000Z</time>
      </trkpt>
      <trkpt lat="43.61522" lon="3.82184">
        <ele>49.653574913539</ele>
        <time>2020-09-20T07:28:21.000Z</time>
      </trkpt>
      <trkpt lat="43.61525" lon="3.82185">
        <ele>49.552869946544</ele>
        <time>2020-09-20T07:28:22.000Z</time>
      </trkpt>
      <trkpt lat="43.61528" lon="3.82186">
        <ele>49.45216497955</ele>
        <time>2020-09-20T07:28:23.000Z</time>
      </trkpt>
      <trkpt lat="43.61532" lon="3.82187">
        <ele>49.351460012555</ele>
        <time>2020-09-20T07:28:24.000Z</time>
      </trkpt>
      <trkpt lat="43.61535" lon="3.82187">
        <ele>49.250755045561</ele>
        <time>2020-09-20T07:28:25.000Z</time>
      </trkpt>
      <trkpt lat="43.61538" lon="3.82184">
        <ele>49.150050078566</ele>
        <time>2020-09-20T07:28:26.000Z</time>
      </trkpt>
      <trkpt lat="43.61541" lon="3.82179">
        <ele>49.049345111571</ele>
        <time>2020-09-20T07:28:27.000Z</time>
      </trkpt>
      <trkpt lat="43.61543" lon="3.82173">
        <ele>48.89799936</ele>
        <time>2020-09-20T07:28:28.000Z</time>
      </trkpt>
      <trkpt lat="43.61545" lon="3.82167">
        <ele>48.69799936</ele>
        <time>2020-09-20T07:28:29.000Z</time>
      </trkpt>
      <trkpt lat="43.61546" lon="3.82161">
        <ele>48.49799936</ele>
        <time>2020-09-20T07:28:30.000Z</time>
      </trkpt>
      <trkpt lat="43.61546" lon="3.82155">
        <ele>48.29799936</ele>
        <time>2020-09-20T07:28:31.000Z</time>
      </trkpt>
      <trkpt lat="43.61546" lon="3.82149">
        <ele>48.09799936</ele>
        <time>2020-09-20T07:28:32.000Z</time>
      </trkpt>
      <trkpt lat="43.61546" lon="3.82143">
        <ele>47.89799936</ele>
        <time>2020-09-20T07:28:33.000Z</time>
      </trkpt>
      <trkpt lat="43.61547" lon="3.82136">
        <ele>47.69799936</ele>
        <time>2020-09-20T07:28:34.000Z</time>
      </trkpt>
      <trkpt lat="43.61548" lon="3.8213">
        <ele>47.49799936</ele>
        <time>2020-09-20T07:28:35.000Z</time>
      </trkpt>
      <trkpt lat="43.6155" lon="3.82123">
        <ele>47.29799936</ele>
        <time>2020-09-20T07:28:36.000Z</time>
      </trkpt>
      <trkpt lat="43.61551" lon="3.82116">
        <ele>47.09799936</ele>
        <time>2020-09-20T07:28:37.000Z</time>
      </trkpt>
      <trkpt lat="43.61552" lon="3.8211">
        <ele>46.949152239553</ele>
        <time>2020-09-20T07:28:38.000Z</time>
      </trkpt>
      <trkpt lat="43.61553" lon="3.82103">
        <ele>46.849451374053</ele>
        <time>2020-09-20T07:28:39.000Z</time>
      </trkpt>
      <trkpt lat="43.61554" lon="3.82097">
        <ele>46.749750508554</ele>
        <time>2020-09-20T07:28:40.000Z</time>
      </trkpt>
      <trkpt lat="43.61555" lon="3.8209">
        <ele>46.650049643055</ele>
        <time>2020-09-20T07:28:41.000Z</time>
      </trkpt>
      <trkpt lat="43.61557" lon="3.82084">
        <ele>46.550348777556</ele>
        <time>2020-09-20T07:28:42.000Z</time>
      </trkpt>
      <trkpt lat="43.61559" lon="3.82076">
        <ele>46.450647912057</ele>
        <time>2020-09-20T07:28:43.000Z</time>
      </trkpt>
      <trkpt lat="43.61559" lon="3.82069">
        <ele>46.350947046557</ele>
        <time>2020-09-20T07:28:44.000Z</time>
      </trkpt>
      <trkpt lat="43.61559" lon="3.82061">
        <ele>46.251246181058</ele>
        <time>2020-09-20T07:28:45.000Z</time>
      </trkpt>
      <trkpt lat="43.6156" lon="3.82055">
        <ele>46.151545315559</ele>
        <time>2020-09-20T07:28:46.000Z</time>
      </trkpt>
      <trkpt lat="43.6156" lon="3.82051">
        <ele>46.05184445006</ele>
        <time>2020-09-20T07:28:47.000Z</time>
      </trkpt>
      <trkpt lat="43.6156" lon="3.82047">
        <ele>46</ele>
        <time>2020-09-20T07:28:48.000Z</time>
      </trkpt>
      <trkpt lat="43.6156" lon="3.82044">
        <ele>46</ele>
        <time>2020-09-20T07:28:49.000Z</time>
      </trkpt>
      <trkpt lat="43.6156" lon="3.82041">
        <ele>46</ele>
        <time>2020-09-20T07:28:50.000Z</time>
      </trkpt>
      <trkpt lat="43.6156" lon="3.82038">
        <ele>46</ele>
        <time>2020-09-20T07:28:51.000Z</time>
      </trkpt>
      <trkpt lat="43.6156" lon="3.82035">
        <ele>46</ele>
        <time>2020-09-20T07:28:52.000Z</time>
      </trkpt>
      <trkpt lat="43.61561" lon="3.82033">
        <ele>46</ele>
        <time>2020-09-20T07:28:53.000Z</time>
      </trkpt>
      <trkpt lat="43.61563" lon="3.82032">
        <ele>46</ele>
        <time>2020-09-20T07:28:55.000Z</time>
      </trkpt>
      <trkpt lat="43.61562" lon="3.82032">
        <ele>46</ele>
        <time>2020-09-20T07:29:00.000Z</time>
      </trkpt>
      <trkpt lat="43.61555" lon="3.82028">
        <ele>46</ele>
        <time>2020-09-20T07:29:09.000Z</time>
      </trkpt>
      <trkpt lat="43.61554" lon="3.82026">
        <ele>45.8955692827</ele>
        <time>2020-09-20T07:29:10.000Z</time>
      </trkpt>
      <trkpt lat="43.61552" lon="3.82023">
        <ele>45.790084050633</ele>
        <time>2020-09-20T07:29:11.000Z</time>
      </trkpt>
      <trkpt lat="43.61553" lon="3.8202">
        <ele>45.684598818565</ele>
        <time>2020-09-20T07:29:12.000Z</time>
      </trkpt>
      <trkpt lat="43.61553" lon="3.82017">
        <ele>45.579113586498</ele>
        <time>2020-09-20T07:29:13.000Z</time>
      </trkpt>
      <trkpt lat="43.61554" lon="3.82014">
        <ele>45.47362835443</ele>
        <time>2020-09-20T07:29:14.000Z</time>
      </trkpt>
      <trkpt lat="43.61554" lon="3.82011">
        <ele>45.368143122363</ele>
        <time>2020-09-20T07:29:15.000Z</time>
      </trkpt>
      <trkpt lat="43.61554" lon="3.82008">
        <ele>45.262657890295</ele>
        <time>2020-09-20T07:29:16.000Z</time>
      </trkpt>
      <trkpt lat="43.61554" lon="3.82007">
        <ele>44.998489902147</ele>
        <time>2020-09-20T07:29:22.000Z</time>
      </trkpt>
      <trkpt lat="43.61555" lon="3.81994">
        <ele>42</ele>
        <time>2020-09-20T07:32:21.000Z</time>
      </trkpt>
      <trkpt lat="43.61556" lon="3.81991">
        <ele>42</ele>
        <time>2020-09-20T07:32:22.000Z</time>
      </trkpt>
      <trkpt lat="43.61559" lon="3.81989">
        <ele>42</ele>
        <time>2020-09-20T07:32:23.000Z</time>
      </trkpt>
      <trkpt lat="43.61561" lon="3.81988">
        <ele>42</ele>
        <time>2020-09-20T07:32:24.000Z</time>
      </trkpt>
      <trkpt lat="43.61563" lon="3.81986">
        <ele>42</ele>
        <time>2020-09-20T07:32:25.000Z</time>
      </trkpt>
      <trkpt lat="43.61566" lon="3.81985">
        <ele>42</ele>
        <time>2020-09-20T07:32:26.000Z</time>
      </trkpt>
      <trkpt lat="43.61568" lon="3.81984">
        <ele>42</ele>
        <time>2020-09-20T07:32:27.000Z</time>
      </trkpt>
      <trkpt lat="43.6157" lon="3.81982">
        <ele>42</ele>
        <time>2020-09-20T07:32:29.000Z</time>
      </trkpt>
      <trkpt lat="43.61568" lon="3.8198">
        <ele>42</ele>
        <time>2020-09-20T07:32:31.000Z</time>
      </trkpt>
      <trkpt lat="43.61566" lon="3.81981">
        <ele>42</ele>
        <time>2020-09-20T07:32:32.000Z</time>
      </trkpt>
      <trkpt lat="43.61563" lon="3.81983">
        <ele>42</ele>
        <time>2020-09-20T07:32:33.000Z</time>
      </trkpt>
      <trkpt lat="43.61561" lon="3.81986">
        <ele>42</ele>
        <time>2020-09-20T07:32:34.000Z</time>
      </trkpt>
      <trkpt lat="43.61558" lon="3.81989">
        <ele>42</ele>
        <time>2020-09-20T07:32:35.000Z</time>
      </trkpt>
      <trkpt lat="43.61557" lon="3.81992">
        <ele>42</ele>
        <time>2020-09-20T07:32:36.000Z</time>
      </trkpt>
      <trkpt lat="43.61556" lon="3.81995">
        <ele>42</ele>
        <time>2020-09-20T07:32:37.000Z</time>
      </trkpt>
      <trkpt lat="43.61555" lon="3.81998">
        <ele>42</ele>
        <time>2020-09-20T07:32:38.000Z</time>
      </trkpt>
      <trkpt lat="43.61555" lon="3.82001">
        <ele>42</ele>
        <time>2020-09-20T07:32:39.000Z</time>
      </trkpt>
      <trkpt lat="43.61554" lon="3.82005">
        <ele>42.045187297564</ele>
        <time>2020-09-20T07:32:41.000Z</time>
      </trkpt>
      <trkpt lat="43.61554" lon="3.82004">
        <ele>42.998345495039</ele>
        <time>2020-09-20T07:32:46.000Z</time>
      </trkpt>
      <trkpt lat="43.61555" lon="3.82006">
        <ele>41</ele>
        <time>2020-09-20T07:34:35.000Z</time>
      </trkpt>
      <trkpt lat="43.61556" lon="3.82004">
        <ele>41</ele>
        <time>2020-09-20T07:34:38.000Z</time>
      </trkpt>
      <trkpt lat="43.61555" lon="3.82002">
        <ele>41</ele>
        <time>2020-09-20T07:34:44.000Z</time>
      </trkpt>
      <trkpt lat="43.61557" lon="3.81995">
        <ele>41</ele>
        <time>2020-09-20T07:37:29.000Z</time>
      </trkpt>
      <trkpt lat="43.61558" lon="3.81992">
        <ele>41.102547551774</ele>
        <time>2020-09-20T07:37:30.000Z</time>
      </trkpt>
      <trkpt lat="43.61559" lon="3.81989">
        <ele>41.208267026079</ele>
        <time>2020-09-20T07:37:31.000Z</time>
      </trkpt>
      <trkpt lat="43.6156" lon="3.81986">
        <ele>41.313986500384</ele>
        <time>2020-09-20T07:37:32.000Z</time>
      </trkpt>
      <trkpt lat="43.61562" lon="3.81982">
        <ele>41.41970597469</ele>
        <time>2020-09-20T07:37:33.000Z</time>
      </trkpt>
      <trkpt lat="43.61563" lon="3.81979">
        <ele>41.525425448995</ele>
        <time>2020-09-20T07:37:34.000Z</time>
      </trkpt>
      <trkpt lat="43.61566" lon="3.81977">
        <ele>41.6311449233</ele>
        <time>2020-09-20T07:37:35.000Z</time>
      </trkpt>
      <trkpt lat="43.61569" lon="3.81977">
        <ele>41.736864397605</ele>
        <time>2020-09-20T07:37:36.000Z</time>
      </trkpt>
      <trkpt lat="43.61572" lon="3.81975">
        <ele>41.842583871911</ele>
        <time>2020-09-20T07:37:37.000Z</time>
      </trkpt>
      <trkpt lat="43.61575" lon="3.81974">
        <ele>41.948303346216</ele>
        <time>2020-09-20T07:37:38.000Z</time>
      </trkpt>
      <trkpt lat="43.61578" lon="3.81973">
        <ele>42</ele>
        <time>2020-09-20T07:37:39.000Z</time>
      </trkpt>
      <trkpt lat="43.6158" lon="3.81971">
        <ele>42</ele>
        <time>2020-09-20T07:37:40.000Z</time>
      </trkpt>
      <trkpt lat="43.61583" lon="3.8197">
        <ele>42</ele>
        <time>2020-09-20T07:37:41.000Z</time>
      </trkpt>
      <trkpt lat="43.61586" lon="3.81969">
        <ele>42</ele>
        <time>2020-09-20T07:37:42.000Z</time>
      </trkpt>
      <trkpt lat="43.61588" lon="3.81967">
        <ele>42</ele>
        <time>2020-09-20T07:37:43.000Z</time>
      </trkpt>
      <trkpt lat="43.6159" lon="3.81966">
        <ele>42</ele>
        <time>2020-09-20T07:37:44.000Z</time>
      </trkpt>
      <trkpt lat="43.61592" lon="3.81965">
        <ele>42</ele>
        <time>2020-09-20T07:37:45.000Z</time>
      </trkpt>
      <trkpt lat="43.61594" lon="3.81961">
        <ele>42</ele>
        <time>2020-09-20T07:37:47.000Z</time>
      </trkpt>
      <trkpt lat="43.61594" lon="3.81957">
        <ele>42</ele>
        <time>2020-09-20T07:37:49.000Z</time>
      </trkpt>
      <trkpt lat="43.61593" lon="3.81954">
        <ele>42</ele>
        <time>2020-09-20T07:37:50.000Z</time>
      </trkpt>
      <trkpt lat="43.61591" lon="3.8195">
        <ele>42</ele>
        <time>2020-09-20T07:37:51.000Z</time>
      </trkpt>
      <trkpt lat="43.6159" lon="3.81946">
        <ele>42</ele>
        <time>2020-09-20T07:37:52.000Z</time>
      </trkpt>
      <trkpt lat="43.61589" lon="3.81941">
        <ele>42</ele>
        <time>2020-09-20T07:37:53.000Z</time>
      </trkpt>
      <trkpt lat="43.61587" lon="3.81936">
        <ele>42</ele>
        <time>2020-09-20T07:37:54.000Z</time>
      </trkpt>
      <trkpt lat="43.61586" lon="3.81932">
        <ele>42</ele>
        <time>2020-09-20T07:37:55.000Z</time>
      </trkpt>
      <trkpt lat="43.61585" lon="3.81928">
        <ele>42</ele>
        <time>2020-09-20T07:37:56.000Z</time>
      </trkpt>
      <trkpt lat="43.61584" lon="3.81924">
        <ele>42</ele>
        <time>2020-09-20T07:37:57.000Z</time>
      </trkpt>
      <trkpt lat="43.61583" lon="3.81921">
        <ele>42</ele>
        <time>2020-09-20T07:37:58.000Z</time>
      </trkpt>
      <trkpt lat="43.61582" lon="3.81917">
        <ele>41.977343582132</ele>
        <time>2020-09-20T07:37:59.000Z</time>
      </trkpt>
      <trkpt lat="43.61582" lon="3.81913">
        <ele>41.874356868571</ele>
        <time>2020-09-20T07:38:00.000Z</time>
      </trkpt>
      <trkpt lat="43.6158" lon="3.81909">
        <ele>41.771370155011</ele>
        <time>2020-09-20T07:38:01.000Z</time>
      </trkpt>
      <trkpt lat="43.61579" lon="3.81906">
        <ele>41.66838344145</ele>
        <time>2020-09-20T07:38:02.000Z</time>
      </trkpt>
      <trkpt lat="43.61578" lon="3.81901">
        <ele>41.56539672789</ele>
        <time>2020-09-20T07:38:03.000Z</time>
      </trkpt>
      <trkpt lat="43.61577" lon="3.81896">
        <ele>41.462410014329</ele>
        <time>2020-09-20T07:38:04.000Z</time>
      </trkpt>
      <trkpt lat="43.61575" lon="3.8189">
        <ele>41.359423300769</ele>
        <time>2020-09-20T07:38:05.000Z</time>
      </trkpt>
      <trkpt lat="43.61574" lon="3.81884">
        <ele>41.256436587208</ele>
        <time>2020-09-20T07:38:06.000Z</time>
      </trkpt>
      <trkpt lat="43.61572" lon="3.81878">
        <ele>41.153449873648</ele>
        <time>2020-09-20T07:38:07.000Z</time>
      </trkpt>
      <trkpt lat="43.61571" lon="3.81872">
        <ele>41.050463160087</ele>
        <time>2020-09-20T07:38:08.000Z</time>
      </trkpt>
      <trkpt lat="43.61569" lon="3.81866">
        <ele>41.050847760447</ele>
        <time>2020-09-20T07:38:09.000Z</time>
      </trkpt>
      <trkpt lat="43.61567" lon="3.8186">
        <ele>41.150548625947</ele>
        <time>2020-09-20T07:38:10.000Z</time>
      </trkpt>
      <trkpt lat="43.61566" lon="3.81854">
        <ele>41.250249491446</ele>
        <time>2020-09-20T07:38:11.000Z</time>
      </trkpt>
      <trkpt lat="43.61565" lon="3.81848">
        <ele>41.349950356945</ele>
        <time>2020-09-20T07:38:12.000Z</time>
      </trkpt>
      <trkpt lat="43.61564" lon="3.81842">
        <ele>41.449651222444</ele>
        <time>2020-09-20T07:38:13.000Z</time>
      </trkpt>
      <trkpt lat="43.61563" lon="3.81837">
        <ele>41.549352087943</ele>
        <time>2020-09-20T07:38:14.000Z</time>
      </trkpt>
      <trkpt lat="43.61561" lon="3.81832">
        <ele>41.649052953443</ele>
        <time>2020-09-20T07:38:15.000Z</time>
      </trkpt>
      <trkpt lat="43.6156" lon="3.81827">
        <ele>41.748753818942</ele>
        <time>2020-09-20T07:38:16.000Z</time>
      </trkpt>
      <trkpt lat="43.61559" lon="3.81822">
        <ele>41.848454684441</ele>
        <time>2020-09-20T07:38:17.000Z</time>
      </trkpt>
      <trkpt lat="43.61557" lon="3.81817">
        <ele>41.94815554994</ele>
        <time>2020-09-20T07:38:18.000Z</time>
      </trkpt>
      <trkpt lat="43.61556" lon="3.81812">
        <ele>42</ele>
        <time>2020-09-20T07:38:19.000Z</time>
      </trkpt>
      <trkpt lat="43.61554" lon="3.81808">
        <ele>42</ele>
        <time>2020-09-20T07:38:20.000Z</time>
      </trkpt>
      <trkpt lat="43.61553" lon="3.81803">
        <ele>42</ele>
        <time>2020-09-20T07:38:21.000Z</time>
      </trkpt>
      <trkpt lat="43.61552" lon="3.81799">
        <ele>42</ele>
        <time>2020-09-20T07:38:22.000Z</time>
      </trkpt>
      <trkpt lat="43.6155" lon="3.81795">
        <ele>42</ele>
        <time>2020-09-20T07:38:23.000Z</time>
      </trkpt>
      <trkpt lat="43.61549" lon="3.81791">
        <ele>42</ele>
        <time>2020-09-20T07:38:24.000Z</time>
      </trkpt>
      <trkpt lat="43.61548" lon="3.81787">
        <ele>42</ele>
        <time>2020-09-20T07:38:25.000Z</time>
      </trkpt>
      <trkpt lat="43.61547" lon="3.81783">
        <ele>42</ele>
        <time>2020-09-20T07:38:26.000Z</time>
      </trkpt>
      <trkpt lat="43.61546" lon="3.81778">
        <ele>42</ele>
        <time>2020-09-20T07:38:27.000Z</time>
      </trkpt>
      <trkpt lat="43.61545" lon="3.81774">
        <ele>42</ele>
        <time>2020-09-20T07:38:28.000Z</time>
      </trkpt>
      <trkpt lat="43.61543" lon="3.81769">
        <ele>42</ele>
        <time>2020-09-20T07:38:29.000Z</time>
      </trkpt>
      <trkpt lat="43.61542" lon="3.81765">
        <ele>42</ele>
        <time>2020-09-20T07:38:30.000Z</time>
      </trkpt>
      <trkpt lat="43.61541" lon="3.81761">
        <ele>42</ele>
        <time>2020-09-20T07:38:31.000Z</time>
      </trkpt>
      <trkpt lat="43.6154" lon="3.81756">
        <ele>42</ele>
        <time>2020-09-20T07:38:32.000Z</time>
      </trkpt>
      <trkpt lat="43.61538" lon="3.81751">
        <ele>42</ele>
        <time>2020-09-20T07:38:33.000Z</time>
      </trkpt>
      <trkpt lat="43.61537" lon="3.81747">
        <ele>42</ele>
        <time>2020-09-20T07:38:34.000Z</time>
      </trkpt>
      <trkpt lat="43.61536" lon="3.81742">
        <ele>42</ele>
        <time>2020-09-20T07:38:35.000Z</time>
      </trkpt>
      <trkpt lat="43.61535" lon="3.81738">
        <ele>42</ele>
        <time>2020-09-20T07:38:36.000Z</time>
      </trkpt>
      <trkpt lat="43.61533" lon="3.81733">
        <ele>42</ele>
        <time>2020-09-20T07:38:37.000Z</time>
      </trkpt>
      <trkpt lat="43.61532" lon="3.81728">
        <ele>42</ele>
        <time>2020-09-20T07:38:38.000Z</time>
      </trkpt>
      <trkpt lat="43.61531" lon="3.81724">
        <ele>42</ele>
        <time>2020-09-20T07:38:39.000Z</time>
      </trkpt>
      <trkpt lat="43.6153" lon="3.8172">
        <ele>42</ele>
        <time>2020-09-20T07:38:40.000Z</time>
      </trkpt>
      <trkpt lat="43.61529" lon="3.81716">
        <ele>42</ele>
        <time>2020-09-20T07:38:41.000Z</time>
      </trkpt>
      <trkpt lat="43.61527" lon="3.81713">
        <ele>42</ele>
        <time>2020-09-20T07:38:42.000Z</time>
      </trkpt>
      <trkpt lat="43.61526" lon="3.81709">
        <ele>42</ele>
        <time>2020-09-20T07:38:43.000Z</time>
      </trkpt>
      <trkpt lat="43.61524" lon="3.81705">
        <ele>42</ele>
        <time>2020-09-20T07:38:44.000Z</time>
      </trkpt>
      <trkpt lat="43.61523" lon="3.817">
        <ele>42</ele>
        <time>2020-09-20T07:38:45.000Z</time>
      </trkpt>
      <trkpt lat="43.61522" lon="3.81695">
        <ele>42</ele>
        <time>2020-09-20T07:38:46.000Z</time>
      </trkpt>
      <trkpt lat="43.61521" lon="3.8169">
        <ele>42</ele>
        <time>2020-09-20T07:38:47.000Z</time>
      </trkpt>
      <trkpt lat="43.6152" lon="3.81685">
        <ele>42</ele>
        <time>2020-09-20T07:38:48.000Z</time>
      </trkpt>
      <trkpt lat="43.61518" lon="3.81681">
        <ele>42</ele>
        <time>2020-09-20T07:38:49.000Z</time>
      </trkpt>
      <trkpt lat="43.61517" lon="3.81676">
        <ele>42</ele>
        <time>2020-09-20T07:38:50.000Z</time>
      </trkpt>
      <trkpt lat="43.61516" lon="3.81671">
        <ele>42</ele>
        <time>2020-09-20T07:38:51.000Z</time>
      </trkpt>
      <trkpt lat="43.61515" lon="3.81667">
        <ele>42</ele>
        <time>2020-09-20T07:38:52.000Z</time>
      </trkpt>
      <trkpt lat="43.61513" lon="3.81662">
        <ele>42</ele>
        <time>2020-09-20T07:38:53.000Z</time>
      </trkpt>
      <trkpt lat="43.61512" lon="3.81658">
        <ele>42</ele>
        <time>2020-09-20T07:38:54.000Z</time>
      </trkpt>
      <trkpt lat="43.61511" lon="3.81653">
        <ele>42</ele>
        <time>2020-09-20T07:38:55.000Z</time>
      </trkpt>
      <trkpt lat="43.6151" lon="3.81649">
        <ele>42</ele>
        <time>2020-09-20T07:38:56.000Z</time>
      </trkpt>
      <trkpt lat="43.61508" lon="3.81644">
        <ele>42</ele>
        <time>2020-09-20T07:38:57.000Z</time>
      </trkpt>
      <trkpt lat="43.61507" lon="3.81639">
        <ele>42</ele>
        <time>2020-09-20T07:38:58.000Z</time>
      </trkpt>
      <trkpt lat="43.61505" lon="3.81634">
        <ele>42</ele>
        <time>2020-09-20T07:38:59.000Z</time>
      </trkpt>
      <trkpt lat="43.61504" lon="3.81629">
        <ele>42</ele>
        <time>2020-09-20T07:39:00.000Z</time>
      </trkpt>
      <trkpt lat="43.61503" lon="3.81623">
        <ele>42</ele>
        <time>2020-09-20T07:39:01.000Z</time>
      </trkpt>
      <trkpt lat="43.61502" lon="3.81618">
        <ele>42</ele>
        <time>2020-09-20T07:39:02.000Z</time>
      </trkpt>
      <trkpt lat="43.61501" lon="3.81612">
        <ele>42</ele>
        <time>2020-09-20T07:39:03.000Z</time>
      </trkpt>
      <trkpt lat="43.61499" lon="3.81606">
        <ele>42</ele>
        <time>2020-09-20T07:39:04.000Z</time>
      </trkpt>
      <trkpt lat="43.61498" lon="3.816">
        <ele>42</ele>
        <time>2020-09-20T07:39:05.000Z</time>
      </trkpt>
      <trkpt lat="43.61497" lon="3.81594">
        <ele>42</ele>
        <time>2020-09-20T07:39:06.000Z</time>
      </trkpt>
      <trkpt lat="43.61496" lon="3.81589">
        <ele>42</ele>
        <time>2020-09-20T07:39:07.000Z</time>
      </trkpt>
      <trkpt lat="43.61496" lon="3.81583">
        <ele>42</ele>
        <time>2020-09-20T07:39:08.000Z</time>
      </trkpt>
      <trkpt lat="43.61495" lon="3.81578">
        <ele>42.05100032</ele>
        <time>2020-09-20T07:39:09.000Z</time>
      </trkpt>
      <trkpt lat="43.61494" lon="3.81573">
        <ele>42.15100032</ele>
        <time>2020-09-20T07:39:10.000Z</time>
      </trkpt>
      <trkpt lat="43.61494" lon="3.81568">
        <ele>42.25100032</ele>
        <time>2020-09-20T07:39:11.000Z</time>
      </trkpt>
      <trkpt lat="43.61494" lon="3.81564">
        <ele>42.35100032</ele>
        <time>2020-09-20T07:39:12.000Z</time>
      </trkpt>
      <trkpt lat="43.61494" lon="3.8156">
        <ele>42.45100032</ele>
        <time>2020-09-20T07:39:13.000Z</time>
      </trkpt>
      <trkpt lat="43.61493" lon="3.81556">
        <ele>42.55100032</ele>
        <time>2020-09-20T07:39:14.000Z</time>
      </trkpt>
      <trkpt lat="43.61493" lon="3.81552">
        <ele>42.65100032</ele>
        <time>2020-09-20T07:39:15.000Z</time>
      </trkpt>
      <trkpt lat="43.61491" lon="3.81549">
        <ele>42.75100032</ele>
        <time>2020-09-20T07:39:16.000Z</time>
      </trkpt>
      <trkpt lat="43.6149" lon="3.81546">
        <ele>42.85100032</ele>
        <time>2020-09-20T07:39:17.000Z</time>
      </trkpt>
      <trkpt lat="43.61488" lon="3.81544">
        <ele>42.95100032</ele>
        <time>2020-09-20T07:39:18.000Z</time>
      </trkpt>
      <trkpt lat="43.61486" lon="3.81541">
        <ele>43.049562946958</ele>
        <time>2020-09-20T07:39:19.000Z</time>
      </trkpt>
      <trkpt lat="43.61485" lon="3.81538">
        <ele>43.146744586127</ele>
        <time>2020-09-20T07:39:20.000Z</time>
      </trkpt>
      <trkpt lat="43.61485" lon="3.81534">
        <ele>43.243926225297</ele>
        <time>2020-09-20T07:39:21.000Z</time>
      </trkpt>
      <trkpt lat="43.61485" lon="3.81531">
        <ele>43.341107864467</ele>
        <time>2020-09-20T07:39:22.000Z</time>
      </trkpt>
      <trkpt lat="43.61486" lon="3.81528">
        <ele>43.438289503637</ele>
        <time>2020-09-20T07:39:23.000Z</time>
      </trkpt>
      <trkpt lat="43.61486" lon="3.81525">
        <ele>43.535471142806</ele>
        <time>2020-09-20T07:39:24.000Z</time>
      </trkpt>
      <trkpt lat="43.61487" lon="3.81522">
        <ele>43.632652781976</ele>
        <time>2020-09-20T07:39:25.000Z</time>
      </trkpt>
      <trkpt lat="43.61486" lon="3.8152">
        <ele>43.729834421146</ele>
        <time>2020-09-20T07:39:26.000Z</time>
      </trkpt>
      <trkpt lat="43.61485" lon="3.81517">
        <ele>43.827016060315</ele>
        <time>2020-09-20T07:39:27.000Z</time>
      </trkpt>
      <trkpt lat="43.61482" lon="3.81515">
        <ele>43.924197699485</ele>
        <time>2020-09-20T07:39:28.000Z</time>
      </trkpt>
      <trkpt lat="43.61479" lon="3.81515">
        <ele>44</ele>
        <time>2020-09-20T07:39:29.000Z</time>
      </trkpt>
      <trkpt lat="43.61476" lon="3.81515">
        <ele>44</ele>
        <time>2020-09-20T07:39:30.000Z</time>
      </trkpt>
      <trkpt lat="43.61474" lon="3.81517">
        <ele>44</ele>
        <time>2020-09-20T07:39:31.000Z</time>
      </trkpt>
      <trkpt lat="43.61472" lon="3.8152">
        <ele>44</ele>
        <time>2020-09-20T07:39:32.000Z</time>
      </trkpt>
      <trkpt lat="43.6147" lon="3.8152">
        <ele>44</ele>
        <time>2020-09-20T07:39:33.000Z</time>
      </trkpt>
      <trkpt lat="43.61468" lon="3.81519">
        <ele>44</ele>
        <time>2020-09-20T07:39:34.000Z</time>
      </trkpt>
      <trkpt lat="43.61467" lon="3.81516">
        <ele>44</ele>
        <time>2020-09-20T07:39:35.000Z</time>
      </trkpt>
      <trkpt lat="43.61465" lon="3.81512">
        <ele>44</ele>
        <time>2020-09-20T07:39:36.000Z</time>
      </trkpt>
      <trkpt lat="43.61464" lon="3.81508">
        <ele>44</ele>
        <time>2020-09-20T07:39:37.000Z</time>
      </trkpt>
      <trkpt lat="43.61463" lon="3.81504">
        <ele>44</ele>
        <time>2020-09-20T07:39:38.000Z</time>
      </trkpt>
      <trkpt lat="43.61462" lon="3.815">
        <ele>44.05100032</ele>
        <time>2020-09-20T07:39:39.000Z</time>
      </trkpt>
      <trkpt lat="43.61461" lon="3.81497">
        <ele>44.15100032</ele>
        <time>2020-09-20T07:39:40.000Z</time>
      </trkpt>
      <trkpt lat="43.61459" lon="3.81493">
        <ele>44.25100032</ele>
        <time>2020-09-20T07:39:41.000Z</time>
      </trkpt>
      <trkpt lat="43.61458" lon="3.8149">
        <ele>44.35100032</ele>
        <time>2020-09-20T07:39:42.000Z</time>
      </trkpt>
      <trkpt lat="43.61457" lon="3.81486">
        <ele>44.45100032</ele>
        <time>2020-09-20T07:39:43.000Z</time>
      </trkpt>
      <trkpt lat="43.61456" lon="3.81482">
        <ele>44.55100032</ele>
        <time>2020-09-20T07:39:44.000Z</time>
      </trkpt>
      <trkpt lat="43.61455" lon="3.81478">
        <ele>44.65100032</ele>
        <time>2020-09-20T07:39:45.000Z</time>
      </trkpt>
      <trkpt lat="43.61454" lon="3.81474">
        <ele>44.75100032</ele>
        <time>2020-09-20T07:39:46.000Z</time>
      </trkpt>
      <trkpt lat="43.61453" lon="3.8147">
        <ele>44.85100032</ele>
        <time>2020-09-20T07:39:47.000Z</time>
      </trkpt>
      <trkpt lat="43.61451" lon="3.81466">
        <ele>44.95100032</ele>
        <time>2020-09-20T07:39:48.000Z</time>
      </trkpt>
      <trkpt lat="43.6145" lon="3.81463">
        <ele>45.101796980888</ele>
        <time>2020-09-20T07:39:49.000Z</time>
      </trkpt>
      <trkpt lat="43.61449" lon="3.81459">
        <ele>45.301397651802</ele>
        <time>2020-09-20T07:39:50.000Z</time>
      </trkpt>
      <trkpt lat="43.61447" lon="3.81456">
        <ele>45.500998322716</ele>
        <time>2020-09-20T07:39:51.000Z</time>
      </trkpt>
      <trkpt lat="43.61446" lon="3.81452">
        <ele>45.700598993629</ele>
        <time>2020-09-20T07:39:52.000Z</time>
      </trkpt>
      <trkpt lat="43.61444" lon="3.81448">
        <ele>45.900199664543</ele>
        <time>2020-09-20T07:39:53.000Z</time>
      </trkpt>
      <trkpt lat="43.61443" lon="3.81443">
        <ele>46.099800335457</ele>
        <time>2020-09-20T07:39:54.000Z</time>
      </trkpt>
      <trkpt lat="43.61442" lon="3.8144">
        <ele>46.299401006371</ele>
        <time>2020-09-20T07:39:55.000Z</time>
      </trkpt>
      <trkpt lat="43.61441" lon="3.81435">
        <ele>46.499001677284</ele>
        <time>2020-09-20T07:39:56.000Z</time>
      </trkpt>
      <trkpt lat="43.61439" lon="3.8143">
        <ele>46.698602348198</ele>
        <time>2020-09-20T07:39:57.000Z</time>
      </trkpt>
      <trkpt lat="43.61438" lon="3.81425">
        <ele>46.898203019112</ele>
        <time>2020-09-20T07:39:58.000Z</time>
      </trkpt>
      <trkpt lat="43.61437" lon="3.81421">
        <ele>47.049097907237</ele>
        <time>2020-09-20T07:39:59.000Z</time>
      </trkpt>
      <trkpt lat="43.61436" lon="3.81416">
        <ele>47.149298372295</ele>
        <time>2020-09-20T07:40:00.000Z</time>
      </trkpt>
      <trkpt lat="43.61434" lon="3.81412">
        <ele>47.249498837354</ele>
        <time>2020-09-20T07:40:01.000Z</time>
      </trkpt>
      <trkpt lat="43.61433" lon="3.81408">
        <ele>47.349699302412</ele>
        <time>2020-09-20T07:40:02.000Z</time>
      </trkpt>
      <trkpt lat="43.61432" lon="3.81404">
        <ele>47.449899767471</ele>
        <time>2020-09-20T07:40:03.000Z</time>
      </trkpt>
      <trkpt lat="43.61431" lon="3.814">
        <ele>47.550100232529</ele>
        <time>2020-09-20T07:40:04.000Z</time>
      </trkpt>
      <trkpt lat="43.6143" lon="3.81396">
        <ele>47.650300697588</ele>
        <time>2020-09-20T07:40:05.000Z</time>
      </trkpt>
      <trkpt lat="43.61429" lon="3.81393">
        <ele>47.750501162646</ele>
        <time>2020-09-20T07:40:06.000Z</time>
      </trkpt>
      <trkpt lat="43.61428" lon="3.8139">
        <ele>47.850701627705</ele>
        <time>2020-09-20T07:40:07.000Z</time>
      </trkpt>
      <trkpt lat="43.61427" lon="3.81387">
        <ele>47.950902092763</ele>
        <time>2020-09-20T07:40:08.000Z</time>
      </trkpt>
      <trkpt lat="43.61426" lon="3.81383">
        <ele>48.049562946958</ele>
        <time>2020-09-20T07:40:09.000Z</time>
      </trkpt>
      <trkpt lat="43.61425" lon="3.81379">
        <ele>48.146744586127</ele>
        <time>2020-09-20T07:40:10.000Z</time>
      </trkpt>
      <trkpt lat="43.61424" lon="3.81377">
        <ele>48.243926225297</ele>
        <time>2020-09-20T07:40:11.000Z</time>
      </trkpt>
      <trkpt lat="43.61423" lon="3.81374">
        <ele>48.341107864467</ele>
        <time>2020-09-20T07:40:12.000Z</time>
      </trkpt>
      <trkpt lat="43.61421" lon="3.8137">
        <ele>48.438289503637</ele>
        <time>2020-09-20T07:40:13.000Z</time>
      </trkpt>
      <trkpt lat="43.6142" lon="3.81365">
        <ele>48.535471142806</ele>
        <time>2020-09-20T07:40:14.000Z</time>
      </trkpt>
      <trkpt lat="43.61418" lon="3.81361">
        <ele>48.632652781976</ele>
        <time>2020-09-20T07:40:15.000Z</time>
      </trkpt>
      <trkpt lat="43.61418" lon="3.81356">
        <ele>48.729834421146</ele>
        <time>2020-09-20T07:40:16.000Z</time>
      </trkpt>
      <trkpt lat="43.61417" lon="3.81351">
        <ele>48.827016060315</ele>
        <time>2020-09-20T07:40:17.000Z</time>
      </trkpt>
      <trkpt lat="43.61416" lon="3.81346">
        <ele>48.924197699485</ele>
        <time>2020-09-20T07:40:18.000Z</time>
      </trkpt>
      <trkpt lat="43.61416" lon="3.81341">
        <ele>48.977343582132</ele>
        <time>2020-09-20T07:40:19.000Z</time>
      </trkpt>
      <trkpt lat="43.61415" lon="3.81337">
        <ele>48.874356868571</ele>
        <time>2020-09-20T07:40:20.000Z</time>
      </trkpt>
      <trkpt lat="43.61413" lon="3.81332">
        <ele>48.771370155011</ele>
        <time>2020-09-20T07:40:21.000Z</time>
      </trkpt>
      <trkpt lat="43.61412" lon="3.81327">
        <ele>48.66838344145</ele>
        <time>2020-09-20T07:40:22.000Z</time>
      </trkpt>
      <trkpt lat="43.61411" lon="3.81322">
        <ele>48.56539672789</ele>
        <time>2020-09-20T07:40:23.000Z</time>
      </trkpt>
      <trkpt lat="43.61411" lon="3.81317">
        <ele>48.462410014329</ele>
        <time>2020-09-20T07:40:24.000Z</time>
      </trkpt>
      <trkpt lat="43.6141" lon="3.81312">
        <ele>48.359423300769</ele>
        <time>2020-09-20T07:40:25.000Z</time>
      </trkpt>
      <trkpt lat="43.61409" lon="3.81308">
        <ele>48.256436587208</ele>
        <time>2020-09-20T07:40:26.000Z</time>
      </trkpt>
      <trkpt lat="43.61408" lon="3.81303">
        <ele>48.153449873648</ele>
        <time>2020-09-20T07:40:27.000Z</time>
      </trkpt>
      <trkpt lat="43.61407" lon="3.81299">
        <ele>48.050463160087</ele>
        <time>2020-09-20T07:40:28.000Z</time>
      </trkpt>
      <trkpt lat="43.61406" lon="3.81295">
        <ele>48.050797131474</ele>
        <time>2020-09-20T07:40:29.000Z</time>
      </trkpt>
      <trkpt lat="43.61406" lon="3.8129">
        <ele>48.1503987251</ele>
        <time>2020-09-20T07:40:30.000Z</time>
      </trkpt>
      <trkpt lat="43.61405" lon="3.81286">
        <ele>48.250000318725</ele>
        <time>2020-09-20T07:40:31.000Z</time>
      </trkpt>
      <trkpt lat="43.61405" lon="3.81281">
        <ele>48.349601912351</ele>
        <time>2020-09-20T07:40:32.000Z</time>
      </trkpt>
      <trkpt lat="43.61405" lon="3.81276">
        <ele>48.449203505976</ele>
        <time>2020-09-20T07:40:33.000Z</time>
      </trkpt>
      <trkpt lat="43.61405" lon="3.81271">
        <ele>48.548805099602</ele>
        <time>2020-09-20T07:40:34.000Z</time>
      </trkpt>
      <trkpt lat="43.61404" lon="3.81267">
        <ele>48.648406693227</ele>
        <time>2020-09-20T07:40:35.000Z</time>
      </trkpt>
      <trkpt lat="43.61404" lon="3.81262">
        <ele>48.748008286853</ele>
        <time>2020-09-20T07:40:36.000Z</time>
      </trkpt>
      <trkpt lat="43.61403" lon="3.81258">
        <ele>48.847609880478</ele>
        <time>2020-09-20T07:40:37.000Z</time>
      </trkpt>
      <trkpt lat="43.61403" lon="3.81253">
        <ele>48.947211474104</ele>
        <time>2020-09-20T07:40:38.000Z</time>
      </trkpt>
      <trkpt lat="43.61403" lon="3.81248">
        <ele>49.047189076305</ele>
        <time>2020-09-20T07:40:39.000Z</time>
      </trkpt>
      <trkpt lat="43.61403" lon="3.81243">
        <ele>49.147590682731</ele>
        <time>2020-09-20T07:40:40.000Z</time>
      </trkpt>
      <trkpt lat="43.61402" lon="3.81239">
        <ele>49.247992289157</ele>
        <time>2020-09-20T07:40:41.000Z</time>
      </trkpt>
      <trkpt lat="43.61402" lon="3.81234">
        <ele>49.348393895582</ele>
        <time>2020-09-20T07:40:42.000Z</time>
      </trkpt>
      <trkpt lat="43.61402" lon="3.81229">
        <ele>49.448795502008</ele>
        <time>2020-09-20T07:40:43.000Z</time>
      </trkpt>
      <trkpt lat="43.61402" lon="3.81225">
        <ele>49.549197108434</ele>
        <time>2020-09-20T07:40:44.000Z</time>
      </trkpt>
      <trkpt lat="43.61402" lon="3.8122">
        <ele>49.649598714859</ele>
        <time>2020-09-20T07:40:45.000Z</time>
      </trkpt>
      <trkpt lat="43.61402" lon="3.81216">
        <ele>49.750000321285</ele>
        <time>2020-09-20T07:40:46.000Z</time>
      </trkpt>
      <trkpt lat="43.61402" lon="3.81211">
        <ele>49.850401927711</ele>
        <time>2020-09-20T07:40:47.000Z</time>
      </trkpt>
      <trkpt lat="43.61402" lon="3.81207">
        <ele>49.950803534136</ele>
        <time>2020-09-20T07:40:48.000Z</time>
      </trkpt>
      <trkpt lat="43.61402" lon="3.81202">
        <ele>50.049562946958</ele>
        <time>2020-09-20T07:40:49.000Z</time>
      </trkpt>
      <trkpt lat="43.61402" lon="3.81198">
        <ele>50.146744586127</ele>
        <time>2020-09-20T07:40:50.000Z</time>
      </trkpt>
      <trkpt lat="43.61402" lon="3.81193">
        <ele>50.243926225297</ele>
        <time>2020-09-20T07:40:51.000Z</time>
      </trkpt>
      <trkpt lat="43.61403" lon="3.81188">
        <ele>50.341107864467</ele>
        <time>2020-09-20T07:40:52.000Z</time>
      </trkpt>
      <trkpt lat="43.61403" lon="3.81183">
        <ele>50.438289503637</ele>
        <time>2020-09-20T07:40:53.000Z</time>
      </trkpt>
      <trkpt lat="43.61403" lon="3.81179">
        <ele>50.535471142806</ele>
        <time>2020-09-20T07:40:54.000Z</time>
      </trkpt>
      <trkpt lat="43.61403" lon="3.81174">
        <ele>50.632652781976</ele>
        <time>2020-09-20T07:40:55.000Z</time>
      </trkpt>
      <trkpt lat="43.61403" lon="3.8117">
        <ele>50.729834421146</ele>
        <time>2020-09-20T07:40:56.000Z</time>
      </trkpt>
      <trkpt lat="43.61403" lon="3.81166">
        <ele>50.827016060315</ele>
        <time>2020-09-20T07:40:57.000Z</time>
      </trkpt>
      <trkpt lat="43.61403" lon="3.81162">
        <ele>50.924197699485</ele>
        <time>2020-09-20T07:40:58.000Z</time>
      </trkpt>
      <trkpt lat="43.61403" lon="3.81158">
        <ele>51.022494247849</ele>
        <time>2020-09-20T07:40:59.000Z</time>
      </trkpt>
      <trkpt lat="43.61403" lon="3.81153">
        <ele>51.124743803513</ele>
        <time>2020-09-20T07:41:00.000Z</time>
      </trkpt>
      <trkpt lat="43.61404" lon="3.81149">
        <ele>51.226993359178</ele>
        <time>2020-09-20T07:41:01.000Z</time>
      </trkpt>
      <trkpt lat="43.61404" lon="3.81145">
        <ele>51.329242914842</ele>
        <time>2020-09-20T07:41:02.000Z</time>
      </trkpt>
      <trkpt lat="43.61404" lon="3.8114">
        <ele>51.431492470506</ele>
        <time>2020-09-20T07:41:03.000Z</time>
      </trkpt>
      <trkpt lat="43.61404" lon="3.81136">
        <ele>51.533742026171</ele>
        <time>2020-09-20T07:41:04.000Z</time>
      </trkpt>
      <trkpt lat="43.61404" lon="3.81132">
        <ele>51.635991581835</ele>
        <time>2020-09-20T07:41:05.000Z</time>
      </trkpt>
      <trkpt lat="43.61404" lon="3.81128">
        <ele>51.738241137499</ele>
        <time>2020-09-20T07:41:06.000Z</time>
      </trkpt>
      <trkpt lat="43.61404" lon="3.81124">
        <ele>51.840490693164</ele>
        <time>2020-09-20T07:41:07.000Z</time>
      </trkpt>
      <trkpt lat="43.61404" lon="3.81121">
        <ele>51.942740248828</ele>
        <time>2020-09-20T07:41:08.000Z</time>
      </trkpt>
      <trkpt lat="43.61403" lon="3.81117">
        <ele>52.042885017004</ele>
        <time>2020-09-20T07:41:09.000Z</time>
      </trkpt>
      <trkpt lat="43.61403" lon="3.81113">
        <ele>52.140350964741</ele>
        <time>2020-09-20T07:41:10.000Z</time>
      </trkpt>
      <trkpt lat="43.61402" lon="3.81109">
        <ele>52.237816912478</ele>
        <time>2020-09-20T07:41:11.000Z</time>
      </trkpt>
      <trkpt lat="43.61402" lon="3.81105">
        <ele>52.335282860215</ele>
        <time>2020-09-20T07:41:12.000Z</time>
      </trkpt>
      <trkpt lat="43.61402" lon="3.81101">
        <ele>52.432748807952</ele>
        <time>2020-09-20T07:41:13.000Z</time>
      </trkpt>
      <trkpt lat="43.61403" lon="3.81096">
        <ele>52.530214755689</ele>
        <time>2020-09-20T07:41:14.000Z</time>
      </trkpt>
      <trkpt lat="43.61403" lon="3.81092">
        <ele>52.627680703427</ele>
        <time>2020-09-20T07:41:15.000Z</time>
      </trkpt>
      <trkpt lat="43.61405" lon="3.81088">
        <ele>52.725146651164</ele>
        <time>2020-09-20T07:41:16.000Z</time>
      </trkpt>
      <trkpt lat="43.61406" lon="3.81084">
        <ele>52.822612598901</ele>
        <time>2020-09-20T07:41:17.000Z</time>
      </trkpt>
      <trkpt lat="43.61407" lon="3.81081">
        <ele>52.920078546638</ele>
        <time>2020-09-20T07:41:18.000Z</time>
      </trkpt>
      <trkpt lat="43.61409" lon="3.81078">
        <ele>53.018256215331</ele>
        <time>2020-09-20T07:41:19.000Z</time>
      </trkpt>
      <trkpt lat="43.6141" lon="3.81075">
        <ele>53.119676027797</ele>
        <time>2020-09-20T07:41:20.000Z</time>
      </trkpt>
      <trkpt lat="43.61412" lon="3.81072">
        <ele>53.221095840262</ele>
        <time>2020-09-20T07:41:21.000Z</time>
      </trkpt>
      <trkpt lat="43.61414" lon="3.8107">
        <ele>53.322515652728</ele>
        <time>2020-09-20T07:41:22.000Z</time>
      </trkpt>
      <trkpt lat="43.61416" lon="3.81068">
        <ele>53.423935465194</ele>
        <time>2020-09-20T07:41:23.000Z</time>
      </trkpt>
      <trkpt lat="43.61417" lon="3.81065">
        <ele>53.52535527766</ele>
        <time>2020-09-20T07:41:24.000Z</time>
      </trkpt>
      <trkpt lat="43.61416" lon="3.81061">
        <ele>53.626775090126</ele>
        <time>2020-09-20T07:41:25.000Z</time>
      </trkpt>
      <trkpt lat="43.61414" lon="3.81057">
        <ele>53.728194902591</ele>
        <time>2020-09-20T07:41:26.000Z</time>
      </trkpt>
      <trkpt lat="43.61412" lon="3.81055">
        <ele>53.829614715057</ele>
        <time>2020-09-20T07:41:27.000Z</time>
      </trkpt>
      <trkpt lat="43.61408" lon="3.81052">
        <ele>53.931034527523</ele>
        <time>2020-09-20T07:41:28.000Z</time>
      </trkpt>
      <trkpt lat="43.61405" lon="3.81049">
        <ele>54.03168314824</ele>
        <time>2020-09-20T07:41:29.000Z</time>
      </trkpt>
      <trkpt lat="43.61402" lon="3.81045">
        <ele>54.130692986492</ele>
        <time>2020-09-20T07:41:30.000Z</time>
      </trkpt>
      <trkpt lat="43.614" lon="3.8104">
        <ele>54.229702824743</ele>
        <time>2020-09-20T07:41:31.000Z</time>
      </trkpt>
      <trkpt lat="43.61398" lon="3.81035">
        <ele>54.328712662994</ele>
        <time>2020-09-20T07:41:32.000Z</time>
      </trkpt>
      <trkpt lat="43.61397" lon="3.8103">
        <ele>54.427722501245</ele>
        <time>2020-09-20T07:41:33.000Z</time>
      </trkpt>
      <trkpt lat="43.61396" lon="3.81025">
        <ele>54.526732339496</ele>
        <time>2020-09-20T07:41:34.000Z</time>
      </trkpt>
      <trkpt lat="43.61396" lon="3.8102">
        <ele>54.625742177747</ele>
        <time>2020-09-20T07:41:35.000Z</time>
      </trkpt>
      <trkpt lat="43.61395" lon="3.81016">
        <ele>54.724752015999</ele>
        <time>2020-09-20T07:41:36.000Z</time>
      </trkpt>
      <trkpt lat="43.61395" lon="3.81011">
        <ele>54.82376185425</ele>
        <time>2020-09-20T07:41:37.000Z</time>
      </trkpt>
      <trkpt lat="43.61394" lon="3.81007">
        <ele>54.922771692501</ele>
        <time>2020-09-20T07:41:38.000Z</time>
      </trkpt>
      <trkpt lat="43.61394" lon="3.81002">
        <ele>55</ele>
        <time>2020-09-20T07:41:39.000Z</time>
      </trkpt>
      <trkpt lat="43.61393" lon="3.80998">
        <ele>55</ele>
        <time>2020-09-20T07:41:40.000Z</time>
      </trkpt>
      <trkpt lat="43.61393" lon="3.80993">
        <ele>55</ele>
        <time>2020-09-20T07:41:41.000Z</time>
      </trkpt>
      <trkpt lat="43.61392" lon="3.80989">
        <ele>55</ele>
        <time>2020-09-20T07:41:42.000Z</time>
      </trkpt>
      <trkpt lat="43.61392" lon="3.80984">
        <ele>55</ele>
        <time>2020-09-20T07:41:43.000Z</time>
      </trkpt>
      <trkpt lat="43.61391" lon="3.8098">
        <ele>55</ele>
        <time>2020-09-20T07:41:44.000Z</time>
      </trkpt>
      <trkpt lat="43.6139" lon="3.80975">
        <ele>55</ele>
        <time>2020-09-20T07:41:45.000Z</time>
      </trkpt>
      <trkpt lat="43.6139" lon="3.80971">
        <ele>55</ele>
        <time>2020-09-20T07:41:46.000Z</time>
      </trkpt>
      <trkpt lat="43.61389" lon="3.80966">
        <ele>55</ele>
        <time>2020-09-20T07:41:47.000Z</time>
      </trkpt>
      <trkpt lat="43.61389" lon="3.80962">
        <ele>55</ele>
        <time>2020-09-20T07:41:48.000Z</time>
      </trkpt>
      <trkpt lat="43.61388" lon="3.80958">
        <ele>55.05100032</ele>
        <time>2020-09-20T07:41:49.000Z</time>
      </trkpt>
      <trkpt lat="43.61388" lon="3.80954">
        <ele>55.15100032</ele>
        <time>2020-09-20T07:41:50.000Z</time>
      </trkpt>
      <trkpt lat="43.61387" lon="3.80949">
        <ele>55.25100032</ele>
        <time>2020-09-20T07:41:51.000Z</time>
      </trkpt>
      <trkpt lat="43.61387" lon="3.80944">
        <ele>55.35100032</ele>
        <time>2020-09-20T07:41:52.000Z</time>
      </trkpt>
      <trkpt lat="43.61386" lon="3.80939">
        <ele>55.45100032</ele>
        <time>2020-09-20T07:41:53.000Z</time>
      </trkpt>
      <trkpt lat="43.61386" lon="3.80934">
        <ele>55.55100032</ele>
        <time>2020-09-20T07:41:54.000Z</time>
      </trkpt>
      <trkpt lat="43.61386" lon="3.80929">
        <ele>55.65100032</ele>
        <time>2020-09-20T07:41:55.000Z</time>
      </trkpt>
      <trkpt lat="43.61385" lon="3.80924">
        <ele>55.75100032</ele>
        <time>2020-09-20T07:41:56.000Z</time>
      </trkpt>
      <trkpt lat="43.61385" lon="3.80919">
        <ele>55.85100032</ele>
        <time>2020-09-20T07:41:57.000Z</time>
      </trkpt>
      <trkpt lat="43.61384" lon="3.80915">
        <ele>55.95100032</ele>
        <time>2020-09-20T07:41:58.000Z</time>
      </trkpt>
      <trkpt lat="43.61384" lon="3.8091">
        <ele>56.098837829457</ele>
        <time>2020-09-20T07:41:59.000Z</time>
      </trkpt>
      <trkpt lat="43.61383" lon="3.80906">
        <ele>56.29263627907</ele>
        <time>2020-09-20T07:42:00.000Z</time>
      </trkpt>
      <trkpt lat="43.61383" lon="3.80901">
        <ele>56.486434728682</ele>
        <time>2020-09-20T07:42:01.000Z</time>
      </trkpt>
      <trkpt lat="43.61383" lon="3.80897">
        <ele>56.680233178295</ele>
        <time>2020-09-20T07:42:02.000Z</time>
      </trkpt>
      <trkpt lat="43.61382" lon="3.80892">
        <ele>56.874031627907</ele>
        <time>2020-09-20T07:42:03.000Z</time>
      </trkpt>
      <trkpt lat="43.61382" lon="3.80888">
        <ele>57.067830077519</ele>
        <time>2020-09-20T07:42:04.000Z</time>
      </trkpt>
      <trkpt lat="43.61381" lon="3.80883">
        <ele>57.261628527132</ele>
        <time>2020-09-20T07:42:05.000Z</time>
      </trkpt>
      <trkpt lat="43.61381" lon="3.80879">
        <ele>57.455426976744</ele>
        <time>2020-09-20T07:42:06.000Z</time>
      </trkpt>
      <trkpt lat="43.61381" lon="3.80874">
        <ele>57.649225426357</ele>
        <time>2020-09-20T07:42:07.000Z</time>
      </trkpt>
      <trkpt lat="43.6138" lon="3.80869">
        <ele>57.843023875969</ele>
        <time>2020-09-20T07:42:08.000Z</time>
      </trkpt>
      <trkpt lat="43.6138" lon="3.80864">
        <ele>58</ele>
        <time>2020-09-20T07:42:09.000Z</time>
      </trkpt>
      <trkpt lat="43.6138" lon="3.80859">
        <ele>58</ele>
        <time>2020-09-20T07:42:10.000Z</time>
      </trkpt>
      <trkpt lat="43.6138" lon="3.80854">
        <ele>58</ele>
        <time>2020-09-20T07:42:11.000Z</time>
      </trkpt>
      <trkpt lat="43.61379" lon="3.80849">
        <ele>58</ele>
        <time>2020-09-20T07:42:12.000Z</time>
      </trkpt>
      <trkpt lat="43.61379" lon="3.80844">
        <ele>58</ele>
        <time>2020-09-20T07:42:13.000Z</time>
      </trkpt>
      <trkpt lat="43.61379" lon="3.80839">
        <ele>58</ele>
        <time>2020-09-20T07:42:14.000Z</time>
      </trkpt>
      <trkpt lat="43.61378" lon="3.80834">
        <ele>58</ele>
        <time>2020-09-20T07:42:15.000Z</time>
      </trkpt>
      <trkpt lat="43.61378" lon="3.80829">
        <ele>58</ele>
        <time>2020-09-20T07:42:16.000Z</time>
      </trkpt>
      <trkpt lat="43.61378" lon="3.80824">
        <ele>58</ele>
        <time>2020-09-20T07:42:17.000Z</time>
      </trkpt>
      <trkpt lat="43.61378" lon="3.80819">
        <ele>58</ele>
        <time>2020-09-20T07:42:18.000Z</time>
      </trkpt>
      <trkpt lat="43.61377" lon="3.80814">
        <ele>58.049097907237</ele>
        <time>2020-09-20T07:42:19.000Z</time>
      </trkpt>
      <trkpt lat="43.61377" lon="3.80809">
        <ele>58.149298372295</ele>
        <time>2020-09-20T07:42:20.000Z</time>
      </trkpt>
      <trkpt lat="43.61377" lon="3.80804">
        <ele>58.249498837354</ele>
        <time>2020-09-20T07:42:21.000Z</time>
      </trkpt>
      <trkpt lat="43.61377" lon="3.80799">
        <ele>58.349699302412</ele>
        <time>2020-09-20T07:42:22.000Z</time>
      </trkpt>
      <trkpt lat="43.61377" lon="3.80794">
        <ele>58.449899767471</ele>
        <time>2020-09-20T07:42:23.000Z</time>
      </trkpt>
      <trkpt lat="43.61377" lon="3.80789">
        <ele>58.550100232529</ele>
        <time>2020-09-20T07:42:24.000Z</time>
      </trkpt>
      <trkpt lat="43.61377" lon="3.80783">
        <ele>58.650300697588</ele>
        <time>2020-09-20T07:42:25.000Z</time>
      </trkpt>
      <trkpt lat="43.61377" lon="3.80778">
        <ele>58.750501162646</ele>
        <time>2020-09-20T07:42:26.000Z</time>
      </trkpt>
      <trkpt lat="43.61377" lon="3.80773">
        <ele>58.850701627705</ele>
        <time>2020-09-20T07:42:27.000Z</time>
      </trkpt>
      <trkpt lat="43.61377" lon="3.80768">
        <ele>58.950902092763</ele>
        <time>2020-09-20T07:42:28.000Z</time>
      </trkpt>
      <trkpt lat="43.61377" lon="3.80763">
        <ele>59.05100032</ele>
        <time>2020-09-20T07:42:29.000Z</time>
      </trkpt>
      <trkpt lat="43.61378" lon="3.80758">
        <ele>59.15100032</ele>
        <time>2020-09-20T07:42:30.000Z</time>
      </trkpt>
      <trkpt lat="43.61378" lon="3.80753">
        <ele>59.25100032</ele>
        <time>2020-09-20T07:42:31.000Z</time>
      </trkpt>
      <trkpt lat="43.61378" lon="3.80747">
        <ele>59.35100032</ele>
        <time>2020-09-20T07:42:32.000Z</time>
      </trkpt>
      <trkpt lat="43.61379" lon="3.80742">
        <ele>59.45100032</ele>
        <time>2020-09-20T07:42:33.000Z</time>
      </trkpt>
      <trkpt lat="43.61379" lon="3.80737">
        <ele>59.55100032</ele>
        <time>2020-09-20T07:42:34.000Z</time>
      </trkpt>
      <trkpt lat="43.61379" lon="3.80732">
        <ele>59.65100032</ele>
        <time>2020-09-20T07:42:35.000Z</time>
      </trkpt>
      <trkpt lat="43.6138" lon="3.80727">
        <ele>59.75100032</ele>
        <time>2020-09-20T07:42:36.000Z</time>
      </trkpt>
      <trkpt lat="43.6138" lon="3.80722">
        <ele>59.85100032</ele>
        <time>2020-09-20T07:42:37.000Z</time>
      </trkpt>
      <trkpt lat="43.61381" lon="3.80717">
        <ele>59.95100032</ele>
        <time>2020-09-20T07:42:38.000Z</time>
      </trkpt>
      <trkpt lat="43.61382" lon="3.80711">
        <ele>60</ele>
        <time>2020-09-20T07:42:39.000Z</time>
      </trkpt>
      <trkpt lat="43.61383" lon="3.80706">
        <ele>60</ele>
        <time>2020-09-20T07:42:40.000Z</time>
      </trkpt>
      <trkpt lat="43.61384" lon="3.80701">
        <ele>60</ele>
        <time>2020-09-20T07:42:41.000Z</time>
      </trkpt>
      <trkpt lat="43.61385" lon="3.80696">
        <ele>60</ele>
        <time>2020-09-20T07:42:42.000Z</time>
      </trkpt>
      <trkpt lat="43.61385" lon="3.80691">
        <ele>60</ele>
        <time>2020-09-20T07:42:43.000Z</time>
      </trkpt>
      <trkpt lat="43.61386" lon="3.80686">
        <ele>60</ele>
        <time>2020-09-20T07:42:44.000Z</time>
      </trkpt>
      <trkpt lat="43.61386" lon="3.8068">
        <ele>60</ele>
        <time>2020-09-20T07:42:45.000Z</time>
      </trkpt>
      <trkpt lat="43.61386" lon="3.80675">
        <ele>60</ele>
        <time>2020-09-20T07:42:46.000Z</time>
      </trkpt>
      <trkpt lat="43.61387" lon="3.8067">
        <ele>60</ele>
        <time>2020-09-20T07:42:47.000Z</time>
      </trkpt>
      <trkpt lat="43.61387" lon="3.80665">
        <ele>60</ele>
        <time>2020-09-20T07:42:48.000Z</time>
      </trkpt>
      <trkpt lat="43.61387" lon="3.80659">
        <ele>60</ele>
        <time>2020-09-20T07:42:49.000Z</time>
      </trkpt>
      <trkpt lat="43.61388" lon="3.80654">
        <ele>60</ele>
        <time>2020-09-20T07:42:50.000Z</time>
      </trkpt>
      <trkpt lat="43.61388" lon="3.80649">
        <ele>60</ele>
        <time>2020-09-20T07:42:51.000Z</time>
      </trkpt>
      <trkpt lat="43.61389" lon="3.80644">
        <ele>60</ele>
        <time>2020-09-20T07:42:52.000Z</time>
      </trkpt>
      <trkpt lat="43.61389" lon="3.80639">
        <ele>60</ele>
        <time>2020-09-20T07:42:53.000Z</time>
      </trkpt>
      <trkpt lat="43.6139" lon="3.80634">
        <ele>60</ele>
        <time>2020-09-20T07:42:54.000Z</time>
      </trkpt>
      <trkpt lat="43.61391" lon="3.80629">
        <ele>60</ele>
        <time>2020-09-20T07:42:55.000Z</time>
      </trkpt>
      <trkpt lat="43.61393" lon="3.80624">
        <ele>60</ele>
        <time>2020-09-20T07:42:56.000Z</time>
      </trkpt>
      <trkpt lat="43.61394" lon="3.8062">
        <ele>60</ele>
        <time>2020-09-20T07:42:57.000Z</time>
      </trkpt>
      <trkpt lat="43.61395" lon="3.80615">
        <ele>60</ele>
        <time>2020-09-20T07:42:58.000Z</time>
      </trkpt>
      <trkpt lat="43.61395" lon="3.80609">
        <ele>60.038499895603</ele>
        <time>2020-09-20T07:42:59.000Z</time>
      </trkpt>
      <trkpt lat="43.61395" lon="3.80604">
        <ele>60.139817116742</ele>
        <time>2020-09-20T07:43:00.000Z</time>
      </trkpt>
      <trkpt lat="43.61395" lon="3.80598">
        <ele>60.241134337881</ele>
        <time>2020-09-20T07:43:01.000Z</time>
      </trkpt>
      <trkpt lat="43.61394" lon="3.80593">
        <ele>60.342451559021</ele>
        <time>2020-09-20T07:43:02.000Z</time>
      </trkpt>
      <trkpt lat="43.61393" lon="3.80588">
        <ele>60.44376878016</ele>
        <time>2020-09-20T07:43:03.000Z</time>
      </trkpt>
      <trkpt lat="43.61393" lon="3.80583">
        <ele>60.5450860013</ele>
        <time>2020-09-20T07:43:04.000Z</time>
      </trkpt>
      <trkpt lat="43.61393" lon="3.80578">
        <ele>60.646403222439</ele>
        <time>2020-09-20T07:43:05.000Z</time>
      </trkpt>
      <trkpt lat="43.61393" lon="3.80572">
        <ele>60.747720443578</ele>
        <time>2020-09-20T07:43:06.000Z</time>
      </trkpt>
      <trkpt lat="43.61394" lon="3.80568">
        <ele>60.849037664717</ele>
        <time>2020-09-20T07:43:07.000Z</time>
      </trkpt>
      <trkpt lat="43.61396" lon="3.80563">
        <ele>60.950354885857</ele>
        <time>2020-09-20T07:43:08.000Z</time>
      </trkpt>
      <trkpt lat="43.61397" lon="3.80559">
        <ele>61.05100032</ele>
        <time>2020-09-20T07:43:09.000Z</time>
      </trkpt>
      <trkpt lat="43.61398" lon="3.80554">
        <ele>61.15100032</ele>
        <time>2020-09-20T07:43:10.000Z</time>
      </trkpt>
      <trkpt lat="43.61397" lon="3.80549">
        <ele>61.25100032</ele>
        <time>2020-09-20T07:43:11.000Z</time>
      </trkpt>
      <trkpt lat="43.61397" lon="3.80545">
        <ele>61.35100032</ele>
        <time>2020-09-20T07:43:12.000Z</time>
      </trkpt>
      <trkpt lat="43.61396" lon="3.8054">
        <ele>61.45100032</ele>
        <time>2020-09-20T07:43:13.000Z</time>
      </trkpt>
      <trkpt lat="43.61396" lon="3.80535">
        <ele>61.55100032</ele>
        <time>2020-09-20T07:43:14.000Z</time>
      </trkpt>
      <trkpt lat="43.61396" lon="3.80529">
        <ele>61.65100032</ele>
        <time>2020-09-20T07:43:15.000Z</time>
      </trkpt>
      <trkpt lat="43.61396" lon="3.80524">
        <ele>61.75100032</ele>
        <time>2020-09-20T07:43:16.000Z</time>
      </trkpt>
      <trkpt lat="43.61396" lon="3.80519">
        <ele>61.85100032</ele>
        <time>2020-09-20T07:43:17.000Z</time>
      </trkpt>
      <trkpt lat="43.61396" lon="3.80514">
        <ele>61.95100032</ele>
        <time>2020-09-20T07:43:18.000Z</time>
      </trkpt>
      <trkpt lat="43.61397" lon="3.80508">
        <ele>62.049562946958</ele>
        <time>2020-09-20T07:43:19.000Z</time>
      </trkpt>
      <trkpt lat="43.61397" lon="3.80503">
        <ele>62.146744586127</ele>
        <time>2020-09-20T07:43:20.000Z</time>
      </trkpt>
      <trkpt lat="43.61397" lon="3.80498">
        <ele>62.243926225297</ele>
        <time>2020-09-20T07:43:21.000Z</time>
      </trkpt>
      <trkpt lat="43.61398" lon="3.80492">
        <ele>62.341107864467</ele>
        <time>2020-09-20T07:43:22.000Z</time>
      </trkpt>
      <trkpt lat="43.61398" lon="3.80487">
        <ele>62.438289503637</ele>
        <time>2020-09-20T07:43:23.000Z</time>
      </trkpt>
      <trkpt lat="43.61398" lon="3.80481">
        <ele>62.535471142806</ele>
        <time>2020-09-20T07:43:24.000Z</time>
      </trkpt>
      <trkpt lat="43.61399" lon="3.80476">
        <ele>62.632652781976</ele>
        <time>2020-09-20T07:43:25.000Z</time>
      </trkpt>
      <trkpt lat="43.61399" lon="3.80471">
        <ele>62.729834421146</ele>
        <time>2020-09-20T07:43:26.000Z</time>
      </trkpt>
      <trkpt lat="43.61399" lon="3.80466">
        <ele>62.827016060315</ele>
        <time>2020-09-20T07:43:27.000Z</time>
      </trkpt>
      <trkpt lat="43.61399" lon="3.80461">
        <ele>62.924197699485</ele>
        <time>2020-09-20T07:43:28.000Z</time>
      </trkpt>
      <trkpt lat="43.614" lon="3.80456">
        <ele>63</ele>
        <time>2020-09-20T07:43:29.000Z</time>
      </trkpt>
      <trkpt lat="43.614" lon="3.8045">
        <ele>63</ele>
        <time>2020-09-20T07:43:30.000Z</time>
      </trkpt>
      <trkpt lat="43.614" lon="3.80445">
        <ele>63</ele>
        <time>2020-09-20T07:43:31.000Z</time>
      </trkpt>
      <trkpt lat="43.614" lon="3.80441">
        <ele>63</ele>
        <time>2020-09-20T07:43:32.000Z</time>
      </trkpt>
      <trkpt lat="43.61401" lon="3.80436">
        <ele>63</ele>
        <time>2020-09-20T07:43:33.000Z</time>
      </trkpt>
      <trkpt lat="43.61401" lon="3.80431">
        <ele>63</ele>
        <time>2020-09-20T07:43:34.000Z</time>
      </trkpt>
      <trkpt lat="43.61402" lon="3.80426">
        <ele>63</ele>
        <time>2020-09-20T07:43:35.000Z</time>
      </trkpt>
      <trkpt lat="43.61402" lon="3.80421">
        <ele>63</ele>
        <time>2020-09-20T07:43:36.000Z</time>
      </trkpt>
      <trkpt lat="43.61402" lon="3.80417">
        <ele>63</ele>
        <time>2020-09-20T07:43:37.000Z</time>
      </trkpt>
      <trkpt lat="43.61403" lon="3.80412">
        <ele>63</ele>
        <time>2020-09-20T07:43:38.000Z</time>
      </trkpt>
      <trkpt lat="43.61403" lon="3.80408">
        <ele>63.05100032</ele>
        <time>2020-09-20T07:43:39.000Z</time>
      </trkpt>
      <trkpt lat="43.61403" lon="3.80404">
        <ele>63.15100032</ele>
        <time>2020-09-20T07:43:40.000Z</time>
      </trkpt>
      <trkpt lat="43.61404" lon="3.80399">
        <ele>63.25100032</ele>
        <time>2020-09-20T07:43:41.000Z</time>
      </trkpt>
      <trkpt lat="43.61404" lon="3.80395">
        <ele>63.35100032</ele>
        <time>2020-09-20T07:43:42.000Z</time>
      </trkpt>
      <trkpt lat="43.61404" lon="3.8039">
        <ele>63.45100032</ele>
        <time>2020-09-20T07:43:43.000Z</time>
      </trkpt>
      <trkpt lat="43.61404" lon="3.80385">
        <ele>63.55100032</ele>
        <time>2020-09-20T07:43:44.000Z</time>
      </trkpt>
      <trkpt lat="43.61404" lon="3.80381">
        <ele>63.65100032</ele>
        <time>2020-09-20T07:43:45.000Z</time>
      </trkpt>
      <trkpt lat="43.61404" lon="3.80376">
        <ele>63.75100032</ele>
        <time>2020-09-20T07:43:46.000Z</time>
      </trkpt>
      <trkpt lat="43.61405" lon="3.8037">
        <ele>63.85100032</ele>
        <time>2020-09-20T07:43:47.000Z</time>
      </trkpt>
      <trkpt lat="43.61405" lon="3.80365">
        <ele>63.95100032</ele>
        <time>2020-09-20T07:43:48.000Z</time>
      </trkpt>
      <trkpt lat="43.61405" lon="3.8036">
        <ele>64.050949386917</ele>
        <time>2020-09-20T07:43:49.000Z</time>
      </trkpt>
      <trkpt lat="43.61405" lon="3.80356">
        <ele>64.150849518753</ele>
        <time>2020-09-20T07:43:50.000Z</time>
      </trkpt>
      <trkpt lat="43.61406" lon="3.80351">
        <ele>64.250749650589</ele>
        <time>2020-09-20T07:43:51.000Z</time>
      </trkpt>
      <trkpt lat="43.61406" lon="3.80347">
        <ele>64.350649782426</ele>
        <time>2020-09-20T07:43:52.000Z</time>
      </trkpt>
      <trkpt lat="43.61407" lon="3.80342">
        <ele>64.450549914262</ele>
        <time>2020-09-20T07:43:53.000Z</time>
      </trkpt>
      <trkpt lat="43.61407" lon="3.80338">
        <ele>64.550450046098</ele>
        <time>2020-09-20T07:43:54.000Z</time>
      </trkpt>
      <trkpt lat="43.61407" lon="3.80334">
        <ele>64.650350177934</ele>
        <time>2020-09-20T07:43:55.000Z</time>
      </trkpt>
      <trkpt lat="43.61407" lon="3.80329">
        <ele>64.75025030977</ele>
        <time>2020-09-20T07:43:56.000Z</time>
      </trkpt>
      <trkpt lat="43.61408" lon="3.80325">
        <ele>64.850150441607</ele>
        <time>2020-09-20T07:43:57.000Z</time>
      </trkpt>
      <trkpt lat="43.61408" lon="3.8032">
        <ele>64.950050573443</ele>
        <time>2020-09-20T07:43:58.000Z</time>
      </trkpt>
      <trkpt lat="43.61408" lon="3.80316">
        <ele>65</ele>
        <time>2020-09-20T07:43:59.000Z</time>
      </trkpt>
      <trkpt lat="43.61409" lon="3.80312">
        <ele>65</ele>
        <time>2020-09-20T07:44:00.000Z</time>
      </trkpt>
      <trkpt lat="43.61409" lon="3.80308">
        <ele>65</ele>
        <time>2020-09-20T07:44:01.000Z</time>
      </trkpt>
      <trkpt lat="43.61409" lon="3.80304">
        <ele>65</ele>
        <time>2020-09-20T07:44:02.000Z</time>
      </trkpt>
      <trkpt lat="43.6141" lon="3.803">
        <ele>65</ele>
        <time>2020-09-20T07:44:03.000Z</time>
      </trkpt>
      <trkpt lat="43.6141" lon="3.80296">
        <ele>65</ele>
        <time>2020-09-20T07:44:04.000Z</time>
      </trkpt>
      <trkpt lat="43.6141" lon="3.80292">
        <ele>65</ele>
        <time>2020-09-20T07:44:05.000Z</time>
      </trkpt>
      <trkpt lat="43.61411" lon="3.80288">
        <ele>65</ele>
        <time>2020-09-20T07:44:06.000Z</time>
      </trkpt>
      <trkpt lat="43.61412" lon="3.80284">
        <ele>65</ele>
        <time>2020-09-20T07:44:07.000Z</time>
      </trkpt>
      <trkpt lat="43.61412" lon="3.80279">
        <ele>65</ele>
        <time>2020-09-20T07:44:08.000Z</time>
      </trkpt>
      <trkpt lat="43.61413" lon="3.80275">
        <ele>65.022656417868</ele>
        <time>2020-09-20T07:44:09.000Z</time>
      </trkpt>
      <trkpt lat="43.61413" lon="3.8027">
        <ele>65.125643131429</ele>
        <time>2020-09-20T07:44:10.000Z</time>
      </trkpt>
      <trkpt lat="43.61414" lon="3.80266">
        <ele>65.228629844989</ele>
        <time>2020-09-20T07:44:11.000Z</time>
      </trkpt>
      <trkpt lat="43.61414" lon="3.80261">
        <ele>65.33161655855</ele>
        <time>2020-09-20T07:44:12.000Z</time>
      </trkpt>
      <trkpt lat="43.61415" lon="3.80257">
        <ele>65.43460327211</ele>
        <time>2020-09-20T07:44:13.000Z</time>
      </trkpt>
      <trkpt lat="43.61415" lon="3.80252">
        <ele>65.537589985671</ele>
        <time>2020-09-20T07:44:14.000Z</time>
      </trkpt>
      <trkpt lat="43.61416" lon="3.80248">
        <ele>65.640576699231</ele>
        <time>2020-09-20T07:44:15.000Z</time>
      </trkpt>
      <trkpt lat="43.61416" lon="3.80244">
        <ele>65.743563412792</ele>
        <time>2020-09-20T07:44:16.000Z</time>
      </trkpt>
      <trkpt lat="43.61417" lon="3.80239">
        <ele>65.846550126352</ele>
        <time>2020-09-20T07:44:17.000Z</time>
      </trkpt>
      <trkpt lat="43.61418" lon="3.80235">
        <ele>65.949536839913</ele>
        <time>2020-09-20T07:44:18.000Z</time>
      </trkpt>
      <trkpt lat="43.61419" lon="3.80231">
        <ele>66.049418914729</ele>
        <time>2020-09-20T07:44:19.000Z</time>
      </trkpt>
      <trkpt lat="43.61419" lon="3.80227">
        <ele>66.146318139535</ele>
        <time>2020-09-20T07:44:20.000Z</time>
      </trkpt>
      <trkpt lat="43.6142" lon="3.80223">
        <ele>66.243217364341</ele>
        <time>2020-09-20T07:44:21.000Z</time>
      </trkpt>
      <trkpt lat="43.61421" lon="3.80219">
        <ele>66.340116589147</ele>
        <time>2020-09-20T07:44:22.000Z</time>
      </trkpt>
      <trkpt lat="43.61422" lon="3.80215">
        <ele>66.437015813953</ele>
        <time>2020-09-20T07:44:23.000Z</time>
      </trkpt>
      <trkpt lat="43.61422" lon="3.8021">
        <ele>66.53391503876</ele>
        <time>2020-09-20T07:44:24.000Z</time>
      </trkpt>
      <trkpt lat="43.61423" lon="3.80206">
        <ele>66.630814263566</ele>
        <time>2020-09-20T07:44:25.000Z</time>
      </trkpt>
      <trkpt lat="43.61424" lon="3.80202">
        <ele>66.727713488372</ele>
        <time>2020-09-20T07:44:26.000Z</time>
      </trkpt>
      <trkpt lat="43.61425" lon="3.80198">
        <ele>66.824612713178</ele>
        <time>2020-09-20T07:44:27.000Z</time>
      </trkpt>
      <trkpt lat="43.61426" lon="3.80193">
        <ele>66.921511937985</ele>
        <time>2020-09-20T07:44:28.000Z</time>
      </trkpt>
      <trkpt lat="43.61427" lon="3.80189">
        <ele>67</ele>
        <time>2020-09-20T07:44:29.000Z</time>
      </trkpt>
      <trkpt lat="43.61428" lon="3.80185">
        <ele>67</ele>
        <time>2020-09-20T07:44:30.000Z</time>
      </trkpt>
      <trkpt lat="43.61429" lon="3.8018">
        <ele>67</ele>
        <time>2020-09-20T07:44:31.000Z</time>
      </trkpt>
      <trkpt lat="43.61429" lon="3.80176">
        <ele>67</ele>
        <time>2020-09-20T07:44:32.000Z</time>
      </trkpt>
      <trkpt lat="43.6143" lon="3.80171">
        <ele>67</ele>
        <time>2020-09-20T07:44:33.000Z</time>
      </trkpt>
      <trkpt lat="43.61431" lon="3.80167">
        <ele>67</ele>
        <time>2020-09-20T07:44:34.000Z</time>
      </trkpt>
      <trkpt lat="43.61432" lon="3.80162">
        <ele>67</ele>
        <time>2020-09-20T07:44:35.000Z</time>
      </trkpt>
      <trkpt lat="43.61433" lon="3.80158">
        <ele>67</ele>
        <time>2020-09-20T07:44:36.000Z</time>
      </trkpt>
      <trkpt lat="43.61434" lon="3.80153">
        <ele>67</ele>
        <time>2020-09-20T07:44:37.000Z</time>
      </trkpt>
      <trkpt lat="43.61434" lon="3.80149">
        <ele>67</ele>
        <time>2020-09-20T07:44:38.000Z</time>
      </trkpt>
      <trkpt lat="43.61435" lon="3.80145">
        <ele>67.05000064</ele>
        <time>2020-09-20T07:44:39.000Z</time>
      </trkpt>
      <trkpt lat="43.61436" lon="3.80141">
        <ele>67.15000064</ele>
        <time>2020-09-20T07:44:40.000Z</time>
      </trkpt>
      <trkpt lat="43.61437" lon="3.80136">
        <ele>67.25000064</ele>
        <time>2020-09-20T07:44:41.000Z</time>
      </trkpt>
      <trkpt lat="43.61438" lon="3.80132">
        <ele>67.35000064</ele>
        <time>2020-09-20T07:44:42.000Z</time>
      </trkpt>
      <trkpt lat="43.61438" lon="3.80128">
        <ele>67.45000064</ele>
        <time>2020-09-20T07:44:43.000Z</time>
      </trkpt>
      <trkpt lat="43.61439" lon="3.80124">
        <ele>67.55000064</ele>
        <time>2020-09-20T07:44:44.000Z</time>
      </trkpt>
      <trkpt lat="43.6144" lon="3.80119">
        <ele>67.65000064</ele>
        <time>2020-09-20T07:44:45.000Z</time>
      </trkpt>
      <trkpt lat="43.61442" lon="3.80115">
        <ele>67.75000064</ele>
        <time>2020-09-20T07:44:46.000Z</time>
      </trkpt>
      <trkpt lat="43.61442" lon="3.80111">
        <ele>67.85000064</ele>
        <time>2020-09-20T07:44:47.000Z</time>
      </trkpt>
      <trkpt lat="43.61443" lon="3.80107">
        <ele>67.95000064</ele>
        <time>2020-09-20T07:44:48.000Z</time>
      </trkpt>
      <trkpt lat="43.61444" lon="3.80103">
        <ele>68.050050674658</ele>
        <time>2020-09-20T07:44:49.000Z</time>
      </trkpt>
      <trkpt lat="43.61445" lon="3.80099">
        <ele>68.150150742694</ele>
        <time>2020-09-20T07:44:50.000Z</time>
      </trkpt>
      <trkpt lat="43.61446" lon="3.80095">
        <ele>68.250250810731</ele>
        <time>2020-09-20T07:44:51.000Z</time>
      </trkpt>
      <trkpt lat="43.61447" lon="3.80091">
        <ele>68.350350878767</ele>
        <time>2020-09-20T07:44:52.000Z</time>
      </trkpt>
      <trkpt lat="43.61448" lon="3.80087">
        <ele>68.450450946803</ele>
        <time>2020-09-20T07:44:53.000Z</time>
      </trkpt>
      <trkpt lat="43.61449" lon="3.80083">
        <ele>68.550551014839</ele>
        <time>2020-09-20T07:44:54.000Z</time>
      </trkpt>
      <trkpt lat="43.6145" lon="3.80079">
        <ele>68.650651082875</ele>
        <time>2020-09-20T07:44:55.000Z</time>
      </trkpt>
      <trkpt lat="43.61451" lon="3.80075">
        <ele>68.750751150911</ele>
        <time>2020-09-20T07:44:56.000Z</time>
      </trkpt>
      <trkpt lat="43.61452" lon="3.80071">
        <ele>68.850851218947</ele>
        <time>2020-09-20T07:44:57.000Z</time>
      </trkpt>
      <trkpt lat="43.61454" lon="3.80067">
        <ele>68.950951286983</ele>
        <time>2020-09-20T07:44:58.000Z</time>
      </trkpt>
      <trkpt lat="43.61455" lon="3.80063">
        <ele>68.949202868526</ele>
        <time>2020-09-20T07:44:59.000Z</time>
      </trkpt>
      <trkpt lat="43.61458" lon="3.80061">
        <ele>68.8496012749</ele>
        <time>2020-09-20T07:45:00.000Z</time>
      </trkpt>
      <trkpt lat="43.61461" lon="3.80059">
        <ele>68.749999681275</ele>
        <time>2020-09-20T07:45:01.000Z</time>
      </trkpt>
      <trkpt lat="43.61464" lon="3.80058">
        <ele>68.650398087649</ele>
        <time>2020-09-20T07:45:02.000Z</time>
      </trkpt>
      <trkpt lat="43.61466" lon="3.80057">
        <ele>68.550796494024</ele>
        <time>2020-09-20T07:45:03.000Z</time>
      </trkpt>
      <trkpt lat="43.61467" lon="3.80054">
        <ele>68.451194900398</ele>
        <time>2020-09-20T07:45:04.000Z</time>
      </trkpt>
      <trkpt lat="43.61467" lon="3.80051">
        <ele>68.351593306773</ele>
        <time>2020-09-20T07:45:05.000Z</time>
      </trkpt>
      <trkpt lat="43.61466" lon="3.80048">
        <ele>68.251991713147</ele>
        <time>2020-09-20T07:45:06.000Z</time>
      </trkpt>
      <trkpt lat="43.61465" lon="3.80044">
        <ele>68.152390119522</ele>
        <time>2020-09-20T07:45:07.000Z</time>
      </trkpt>
      <trkpt lat="43.61464" lon="3.8004">
        <ele>68.052788525896</ele>
        <time>2020-09-20T07:45:08.000Z</time>
      </trkpt>
      <trkpt lat="43.61462" lon="3.80037">
        <ele>68</ele>
        <time>2020-09-20T07:45:09.000Z</time>
      </trkpt>
      <trkpt lat="43.6146" lon="3.80034">
        <ele>68</ele>
        <time>2020-09-20T07:45:10.000Z</time>
      </trkpt>
      <trkpt lat="43.61458" lon="3.80032">
        <ele>68</ele>
        <time>2020-09-20T07:45:11.000Z</time>
      </trkpt>
      <trkpt lat="43.61455" lon="3.80031">
        <ele>68</ele>
        <time>2020-09-20T07:45:12.000Z</time>
      </trkpt>
      <trkpt lat="43.61453" lon="3.8003">
        <ele>68</ele>
        <time>2020-09-20T07:45:13.000Z</time>
      </trkpt>
      <trkpt lat="43.6145" lon="3.8003">
        <ele>68</ele>
        <time>2020-09-20T07:45:14.000Z</time>
      </trkpt>
      <trkpt lat="43.61448" lon="3.8003">
        <ele>68</ele>
        <time>2020-09-20T07:45:15.000Z</time>
      </trkpt>
      <trkpt lat="43.61445" lon="3.80029">
        <ele>68</ele>
        <time>2020-09-20T07:45:16.000Z</time>
      </trkpt>
      <trkpt lat="43.61442" lon="3.80028">
        <ele>68</ele>
        <time>2020-09-20T07:45:17.000Z</time>
      </trkpt>
      <trkpt lat="43.6144" lon="3.80025">
        <ele>68</ele>
        <time>2020-09-20T07:45:18.000Z</time>
      </trkpt>
      <trkpt lat="43.61437" lon="3.8002">
        <ele>67.84699904</ele>
        <time>2020-09-20T07:45:19.000Z</time>
      </trkpt>
      <trkpt lat="43.61435" lon="3.80014">
        <ele>67.54699904</ele>
        <time>2020-09-20T07:45:20.000Z</time>
      </trkpt>
      <trkpt lat="43.61433" lon="3.80007">
        <ele>67.24699904</ele>
        <time>2020-09-20T07:45:21.000Z</time>
      </trkpt>
      <trkpt lat="43.61432" lon="3.79999">
        <ele>66.94699904</ele>
        <time>2020-09-20T07:45:22.000Z</time>
      </trkpt>
      <trkpt lat="43.6143" lon="3.79992">
        <ele>66.64699904</ele>
        <time>2020-09-20T07:45:23.000Z</time>
      </trkpt>
      <trkpt lat="43.61429" lon="3.79984">
        <ele>66.34699904</ele>
        <time>2020-09-20T07:45:24.000Z</time>
      </trkpt>
      <trkpt lat="43.61426" lon="3.79977">
        <ele>66.04699904</ele>
        <time>2020-09-20T07:45:25.000Z</time>
      </trkpt>
      <trkpt lat="43.61423" lon="3.7997">
        <ele>65.74699904</ele>
        <time>2020-09-20T07:45:26.000Z</time>
      </trkpt>
      <trkpt lat="43.61419" lon="3.79962">
        <ele>65.44699904</ele>
        <time>2020-09-20T07:45:27.000Z</time>
      </trkpt>
      <trkpt lat="43.61415" lon="3.79955">
        <ele>65.14699904</ele>
        <time>2020-09-20T07:45:28.000Z</time>
      </trkpt>
      <trkpt lat="43.61412" lon="3.79947">
        <ele>65.049466832367</ele>
        <time>2020-09-20T07:45:29.000Z</time>
      </trkpt>
      <trkpt lat="43.61408" lon="3.7994">
        <ele>65.146460012738</ele>
        <time>2020-09-20T07:45:30.000Z</time>
      </trkpt>
      <trkpt lat="43.61405" lon="3.79932">
        <ele>65.243453193109</ele>
        <time>2020-09-20T07:45:31.000Z</time>
      </trkpt>
      <trkpt lat="43.61401" lon="3.79925">
        <ele>65.340446373479</ele>
        <time>2020-09-20T07:45:32.000Z</time>
      </trkpt>
      <trkpt lat="43.61398" lon="3.7992">
        <ele>65.43743955385</ele>
        <time>2020-09-20T07:45:33.000Z</time>
      </trkpt>
      <trkpt lat="43.61396" lon="3.79915">
        <ele>65.534432734221</ele>
        <time>2020-09-20T07:45:34.000Z</time>
      </trkpt>
      <trkpt lat="43.61394" lon="3.79911">
        <ele>65.631425914591</ele>
        <time>2020-09-20T07:45:35.000Z</time>
      </trkpt>
      <trkpt lat="43.61392" lon="3.79906">
        <ele>65.728419094962</ele>
        <time>2020-09-20T07:45:36.000Z</time>
      </trkpt>
      <trkpt lat="43.6139" lon="3.79902">
        <ele>65.825412275333</ele>
        <time>2020-09-20T07:45:37.000Z</time>
      </trkpt>
      <trkpt lat="43.61387" lon="3.79898">
        <ele>65.922405455703</ele>
        <time>2020-09-20T07:45:38.000Z</time>
      </trkpt>
      <trkpt lat="43.61385" lon="3.79894">
        <ele>65.979360158303</ele>
        <time>2020-09-20T07:45:39.000Z</time>
      </trkpt>
      <trkpt lat="43.61383" lon="3.7989">
        <ele>65.876160949816</ele>
        <time>2020-09-20T07:45:40.000Z</time>
      </trkpt>
      <trkpt lat="43.61381" lon="3.79886">
        <ele>65.772961741329</ele>
        <time>2020-09-20T07:45:41.000Z</time>
      </trkpt>
      <trkpt lat="43.6138" lon="3.79881">
        <ele>65.669762532842</ele>
        <time>2020-09-20T07:45:42.000Z</time>
      </trkpt>
      <trkpt lat="43.6138" lon="3.79876">
        <ele>65.566563324355</ele>
        <time>2020-09-20T07:45:43.000Z</time>
      </trkpt>
      <trkpt lat="43.6138" lon="3.79871">
        <ele>65.463364115868</ele>
        <time>2020-09-20T07:45:44.000Z</time>
      </trkpt>
      <trkpt lat="43.61382" lon="3.79865">
        <ele>65.360164907382</ele>
        <time>2020-09-20T07:45:45.000Z</time>
      </trkpt>
      <trkpt lat="43.61383" lon="3.7986">
        <ele>65.256965698895</ele>
        <time>2020-09-20T07:45:46.000Z</time>
      </trkpt>
      <trkpt lat="43.61385" lon="3.79854">
        <ele>65.153766490408</ele>
        <time>2020-09-20T07:45:47.000Z</time>
      </trkpt>
      <trkpt lat="43.61387" lon="3.79849">
        <ele>65.050567281921</ele>
        <time>2020-09-20T07:45:48.000Z</time>
      </trkpt>
      <trkpt lat="43.61389" lon="3.79843">
        <ele>64.89799936</ele>
        <time>2020-09-20T07:45:49.000Z</time>
      </trkpt>
      <trkpt lat="43.61391" lon="3.79836">
        <ele>64.69799936</ele>
        <time>2020-09-20T07:45:50.000Z</time>
      </trkpt>
      <trkpt lat="43.61392" lon="3.7983">
        <ele>64.49799936</ele>
        <time>2020-09-20T07:45:51.000Z</time>
      </trkpt>
      <trkpt lat="43.61393" lon="3.79823">
        <ele>64.29799936</ele>
        <time>2020-09-20T07:45:52.000Z</time>
      </trkpt>
      <trkpt lat="43.61394" lon="3.79816">
        <ele>64.09799936</ele>
        <time>2020-09-20T07:45:53.000Z</time>
      </trkpt>
      <trkpt lat="43.61396" lon="3.79809">
        <ele>63.89799936</ele>
        <time>2020-09-20T07:45:54.000Z</time>
      </trkpt>
      <trkpt lat="43.61397" lon="3.79802">
        <ele>63.69799936</ele>
        <time>2020-09-20T07:45:55.000Z</time>
      </trkpt>
      <trkpt lat="43.61399" lon="3.79795">
        <ele>63.49799936</ele>
        <time>2020-09-20T07:45:56.000Z</time>
      </trkpt>
      <trkpt lat="43.61401" lon="3.79788">
        <ele>63.29799936</ele>
        <time>2020-09-20T07:45:57.000Z</time>
      </trkpt>
      <trkpt lat="43.61402" lon="3.79781">
        <ele>63.09799936</ele>
        <time>2020-09-20T07:45:58.000Z</time>
      </trkpt>
      <trkpt lat="43.61404" lon="3.79773">
        <ele>62.949101509556</ele>
        <time>2020-09-20T07:45:59.000Z</time>
      </trkpt>
      <trkpt lat="43.61406" lon="3.79766">
        <ele>62.849301174099</ele>
        <time>2020-09-20T07:46:00.000Z</time>
      </trkpt>
      <trkpt lat="43.61408" lon="3.79758">
        <ele>62.749500838642</ele>
        <time>2020-09-20T07:46:01.000Z</time>
      </trkpt>
      <trkpt lat="43.6141" lon="3.79751">
        <ele>62.649700503185</ele>
        <time>2020-09-20T07:46:02.000Z</time>
      </trkpt>
      <trkpt lat="43.61413" lon="3.79744">
        <ele>62.549900167728</ele>
        <time>2020-09-20T07:46:03.000Z</time>
      </trkpt>
      <trkpt lat="43.61415" lon="3.79737">
        <ele>62.450099832272</ele>
        <time>2020-09-20T07:46:04.000Z</time>
      </trkpt>
      <trkpt lat="43.61417" lon="3.7973">
        <ele>62.350299496815</ele>
        <time>2020-09-20T07:46:05.000Z</time>
      </trkpt>
      <trkpt lat="43.61419" lon="3.79722">
        <ele>62.250499161358</ele>
        <time>2020-09-20T07:46:06.000Z</time>
      </trkpt>
      <trkpt lat="43.61421" lon="3.79715">
        <ele>62.150698825901</ele>
        <time>2020-09-20T07:46:07.000Z</time>
      </trkpt>
      <trkpt lat="43.61423" lon="3.79707">
        <ele>62.050898490444</ele>
        <time>2020-09-20T07:46:08.000Z</time>
      </trkpt>
      <trkpt lat="43.61425" lon="3.79699">
        <ele>61.901804185526</ele>
        <time>2020-09-20T07:46:09.000Z</time>
      </trkpt>
      <trkpt lat="43.61427" lon="3.79691">
        <ele>61.701403255409</ele>
        <time>2020-09-20T07:46:10.000Z</time>
      </trkpt>
      <trkpt lat="43.6143" lon="3.79683">
        <ele>61.501002325292</ele>
        <time>2020-09-20T07:46:11.000Z</time>
      </trkpt>
      <trkpt lat="43.61432" lon="3.79676">
        <ele>61.300601395175</ele>
        <time>2020-09-20T07:46:12.000Z</time>
      </trkpt>
      <trkpt lat="43.61434" lon="3.79668">
        <ele>61.100200465058</ele>
        <time>2020-09-20T07:46:13.000Z</time>
      </trkpt>
      <trkpt lat="43.61436" lon="3.7966">
        <ele>60.899799534942</ele>
        <time>2020-09-20T07:46:14.000Z</time>
      </trkpt>
      <trkpt lat="43.61438" lon="3.79653">
        <ele>60.699398604825</ele>
        <time>2020-09-20T07:46:15.000Z</time>
      </trkpt>
      <trkpt lat="43.6144" lon="3.79646">
        <ele>60.498997674708</ele>
        <time>2020-09-20T07:46:16.000Z</time>
      </trkpt>
      <trkpt lat="43.61441" lon="3.7964">
        <ele>60.298596744591</ele>
        <time>2020-09-20T07:46:17.000Z</time>
      </trkpt>
      <trkpt lat="43.61443" lon="3.79633">
        <ele>60.098195814474</ele>
        <time>2020-09-20T07:46:18.000Z</time>
      </trkpt>
      <trkpt lat="43.61443" lon="3.79627">
        <ele>59.949152239553</ele>
        <time>2020-09-20T07:46:19.000Z</time>
      </trkpt>
      <trkpt lat="43.61444" lon="3.7962">
        <ele>59.849451374053</ele>
        <time>2020-09-20T07:46:20.000Z</time>
      </trkpt>
      <trkpt lat="43.61445" lon="3.79612">
        <ele>59.749750508554</ele>
        <time>2020-09-20T07:46:21.000Z</time>
      </trkpt>
      <trkpt lat="43.61446" lon="3.79605">
        <ele>59.650049643055</ele>
        <time>2020-09-20T07:46:22.000Z</time>
      </trkpt>
      <trkpt lat="43.61447" lon="3.79598">
        <ele>59.550348777556</ele>
        <time>2020-09-20T07:46:23.000Z</time>
      </trkpt>
      <trkpt lat="43.61448" lon="3.7959">
        <ele>59.450647912057</ele>
        <time>2020-09-20T07:46:24.000Z</time>
      </trkpt>
      <trkpt lat="43.61449" lon="3.79583">
        <ele>59.350947046557</ele>
        <time>2020-09-20T07:46:25.000Z</time>
      </trkpt>
      <trkpt lat="43.61451" lon="3.79577">
        <ele>59.251246181058</ele>
        <time>2020-09-20T07:46:26.000Z</time>
      </trkpt>
      <trkpt lat="43.61453" lon="3.7957">
        <ele>59.151545315559</ele>
        <time>2020-09-20T07:46:27.000Z</time>
      </trkpt>
      <trkpt lat="43.61454" lon="3.79564">
        <ele>59.05184445006</ele>
        <time>2020-09-20T07:46:28.000Z</time>
      </trkpt>
      <trkpt lat="43.61454" lon="3.79558">
        <ele>58.95219123506</ele>
        <time>2020-09-20T07:46:29.000Z</time>
      </trkpt>
      <trkpt lat="43.61453" lon="3.79551">
        <ele>58.852589641434</ele>
        <time>2020-09-20T07:46:30.000Z</time>
      </trkpt>
      <trkpt lat="43.61453" lon="3.79544">
        <ele>58.752988047809</ele>
        <time>2020-09-20T07:46:31.000Z</time>
      </trkpt>
      <trkpt lat="43.61454" lon="3.79536">
        <ele>58.653386454183</ele>
        <time>2020-09-20T07:46:32.000Z</time>
      </trkpt>
      <trkpt lat="43.61454" lon="3.79529">
        <ele>58.553784860558</ele>
        <time>2020-09-20T07:46:33.000Z</time>
      </trkpt>
      <trkpt lat="43.61455" lon="3.79522">
        <ele>58.454183266932</ele>
        <time>2020-09-20T07:46:34.000Z</time>
      </trkpt>
      <trkpt lat="43.61455" lon="3.79515">
        <ele>58.354581673307</ele>
        <time>2020-09-20T07:46:35.000Z</time>
      </trkpt>
      <trkpt lat="43.61456" lon="3.79508">
        <ele>58.254980079681</ele>
        <time>2020-09-20T07:46:36.000Z</time>
      </trkpt>
      <trkpt lat="43.61456" lon="3.79501">
        <ele>58.155378486056</ele>
        <time>2020-09-20T07:46:37.000Z</time>
      </trkpt>
      <trkpt lat="43.61457" lon="3.79495">
        <ele>58.05577689243</ele>
        <time>2020-09-20T07:46:38.000Z</time>
      </trkpt>
      <trkpt lat="43.61457" lon="3.79488">
        <ele>58</ele>
        <time>2020-09-20T07:46:39.000Z</time>
      </trkpt>
      <trkpt lat="43.61457" lon="3.79482">
        <ele>58</ele>
        <time>2020-09-20T07:46:40.000Z</time>
      </trkpt>
      <trkpt lat="43.61458" lon="3.79475">
        <ele>58</ele>
        <time>2020-09-20T07:46:41.000Z</time>
      </trkpt>
      <trkpt lat="43.61459" lon="3.79469">
        <ele>58</ele>
        <time>2020-09-20T07:46:42.000Z</time>
      </trkpt>
      <trkpt lat="43.61459" lon="3.79463">
        <ele>58</ele>
        <time>2020-09-20T07:46:43.000Z</time>
      </trkpt>
      <trkpt lat="43.6146" lon="3.79456">
        <ele>58</ele>
        <time>2020-09-20T07:46:44.000Z</time>
      </trkpt>
      <trkpt lat="43.6146" lon="3.7945">
        <ele>58</ele>
        <time>2020-09-20T07:46:45.000Z</time>
      </trkpt>
      <trkpt lat="43.61461" lon="3.79445">
        <ele>58</ele>
        <time>2020-09-20T07:46:46.000Z</time>
      </trkpt>
      <trkpt lat="43.61462" lon="3.79439">
        <ele>58</ele>
        <time>2020-09-20T07:46:47.000Z</time>
      </trkpt>
      <trkpt lat="43.61463" lon="3.79433">
        <ele>58</ele>
        <time>2020-09-20T07:46:48.000Z</time>
      </trkpt>
      <trkpt lat="43.61463" lon="3.79428">
        <ele>57.951855551247</ele>
        <time>2020-09-20T07:46:49.000Z</time>
      </trkpt>
      <trkpt lat="43.61464" lon="3.79423">
        <ele>57.851554616346</ele>
        <time>2020-09-20T07:46:50.000Z</time>
      </trkpt>
      <trkpt lat="43.61465" lon="3.79417">
        <ele>57.751253681445</ele>
        <time>2020-09-20T07:46:51.000Z</time>
      </trkpt>
      <trkpt lat="43.61466" lon="3.79411">
        <ele>57.650952746544</ele>
        <time>2020-09-20T07:46:52.000Z</time>
      </trkpt>
      <trkpt lat="43.61466" lon="3.79405">
        <ele>57.550651811643</ele>
        <time>2020-09-20T07:46:53.000Z</time>
      </trkpt>
      <trkpt lat="43.61467" lon="3.79399">
        <ele>57.450350876742</ele>
        <time>2020-09-20T07:46:54.000Z</time>
      </trkpt>
      <trkpt lat="43.61468" lon="3.79392">
        <ele>57.350049941841</ele>
        <time>2020-09-20T07:46:55.000Z</time>
      </trkpt>
      <trkpt lat="43.6147" lon="3.79386">
        <ele>57.24974900694</ele>
        <time>2020-09-20T07:46:56.000Z</time>
      </trkpt>
      <trkpt lat="43.61472" lon="3.79379">
        <ele>57.149448072039</ele>
        <time>2020-09-20T07:46:57.000Z</time>
      </trkpt>
      <trkpt lat="43.61474" lon="3.79373">
        <ele>57.049147137138</ele>
        <time>2020-09-20T07:46:58.000Z</time>
      </trkpt>
      <trkpt lat="43.61476" lon="3.79367">
        <ele>57.05064578331</ele>
        <time>2020-09-20T07:46:59.000Z</time>
      </trkpt>
      <trkpt lat="43.61478" lon="3.79361">
        <ele>57.149950617692</ele>
        <time>2020-09-20T07:47:00.000Z</time>
      </trkpt>
      <trkpt lat="43.61479" lon="3.79355">
        <ele>57.249255452074</ele>
        <time>2020-09-20T07:47:01.000Z</time>
      </trkpt>
      <trkpt lat="43.61481" lon="3.7935">
        <ele>57.348560286456</ele>
        <time>2020-09-20T07:47:02.000Z</time>
      </trkpt>
      <trkpt lat="43.61482" lon="3.79344">
        <ele>57.447865120837</ele>
        <time>2020-09-20T07:47:03.000Z</time>
      </trkpt>
      <trkpt lat="43.61484" lon="3.79339">
        <ele>57.547169955219</ele>
        <time>2020-09-20T07:47:04.000Z</time>
      </trkpt>
      <trkpt lat="43.61486" lon="3.79333">
        <ele>57.646474789601</ele>
        <time>2020-09-20T07:47:05.000Z</time>
      </trkpt>
      <trkpt lat="43.61487" lon="3.79328">
        <ele>57.745779623983</ele>
        <time>2020-09-20T07:47:06.000Z</time>
      </trkpt>
      <trkpt lat="43.61489" lon="3.79322">
        <ele>57.845084458364</ele>
        <time>2020-09-20T07:47:07.000Z</time>
      </trkpt>
      <trkpt lat="43.61491" lon="3.79316">
        <ele>57.944389292746</ele>
        <time>2020-09-20T07:47:08.000Z</time>
      </trkpt>
      <trkpt lat="43.61493" lon="3.7931">
        <ele>57.956947189387</ele>
        <time>2020-09-20T07:47:09.000Z</time>
      </trkpt>
      <trkpt lat="43.61495" lon="3.79304">
        <ele>57.85909989254</ele>
        <time>2020-09-20T07:47:10.000Z</time>
      </trkpt>
      <trkpt lat="43.61497" lon="3.79298">
        <ele>57.761252595693</ele>
        <time>2020-09-20T07:47:11.000Z</time>
      </trkpt>
      <trkpt lat="43.61499" lon="3.79293">
        <ele>57.663405298846</ele>
        <time>2020-09-20T07:47:12.000Z</time>
      </trkpt>
      <trkpt lat="43.61501" lon="3.79287">
        <ele>57.565558001999</ele>
        <time>2020-09-20T07:47:13.000Z</time>
      </trkpt>
      <trkpt lat="43.61503" lon="3.79281">
        <ele>57.467710705152</ele>
        <time>2020-09-20T07:47:14.000Z</time>
      </trkpt>
      <trkpt lat="43.61505" lon="3.79275">
        <ele>57.369863408305</ele>
        <time>2020-09-20T07:47:15.000Z</time>
      </trkpt>
      <trkpt lat="43.61506" lon="3.79269">
        <ele>57.272016111458</ele>
        <time>2020-09-20T07:47:16.000Z</time>
      </trkpt>
      <trkpt lat="43.61508" lon="3.79263">
        <ele>57.174168814611</ele>
        <time>2020-09-20T07:47:17.000Z</time>
      </trkpt>
      <trkpt lat="43.6151" lon="3.79257">
        <ele>57.076321517763</ele>
        <time>2020-09-20T07:47:18.000Z</time>
      </trkpt>
      <trkpt lat="43.61512" lon="3.79252">
        <ele>57.022656417868</ele>
        <time>2020-09-20T07:47:19.000Z</time>
      </trkpt>
      <trkpt lat="43.61513" lon="3.79246">
        <ele>57.125643131429</ele>
        <time>2020-09-20T07:47:20.000Z</time>
      </trkpt>
      <trkpt lat="43.61515" lon="3.7924">
        <ele>57.228629844989</ele>
        <time>2020-09-20T07:47:21.000Z</time>
      </trkpt>
      <trkpt lat="43.61517" lon="3.79234">
        <ele>57.33161655855</ele>
        <time>2020-09-20T07:47:22.000Z</time>
      </trkpt>
      <trkpt lat="43.61518" lon="3.79228">
        <ele>57.43460327211</ele>
        <time>2020-09-20T07:47:23.000Z</time>
      </trkpt>
      <trkpt lat="43.6152" lon="3.79223">
        <ele>57.537589985671</ele>
        <time>2020-09-20T07:47:24.000Z</time>
      </trkpt>
      <trkpt lat="43.61522" lon="3.79217">
        <ele>57.640576699231</ele>
        <time>2020-09-20T07:47:25.000Z</time>
      </trkpt>
      <trkpt lat="43.61523" lon="3.79211">
        <ele>57.743563412792</ele>
        <time>2020-09-20T07:47:26.000Z</time>
      </trkpt>
      <trkpt lat="43.61524" lon="3.79206">
        <ele>57.846550126352</ele>
        <time>2020-09-20T07:47:27.000Z</time>
      </trkpt>
      <trkpt lat="43.61526" lon="3.792">
        <ele>57.949536839913</ele>
        <time>2020-09-20T07:47:28.000Z</time>
      </trkpt>
      <trkpt lat="43.61527" lon="3.79195">
        <ele>58</ele>
        <time>2020-09-20T07:47:29.000Z</time>
      </trkpt>
      <trkpt lat="43.61528" lon="3.79189">
        <ele>58</ele>
        <time>2020-09-20T07:47:30.000Z</time>
      </trkpt>
      <trkpt lat="43.6153" lon="3.79184">
        <ele>58</ele>
        <time>2020-09-20T07:47:31.000Z</time>
      </trkpt>
      <trkpt lat="43.61531" lon="3.79179">
        <ele>58</ele>
        <time>2020-09-20T07:47:32.000Z</time>
      </trkpt>
      <trkpt lat="43.61533" lon="3.79174">
        <ele>58</ele>
        <time>2020-09-20T07:47:33.000Z</time>
      </trkpt>
      <trkpt lat="43.61534" lon="3.7917">
        <ele>58</ele>
        <time>2020-09-20T07:47:34.000Z</time>
      </trkpt>
      <trkpt lat="43.61536" lon="3.79165">
        <ele>58</ele>
        <time>2020-09-20T07:47:35.000Z</time>
      </trkpt>
      <trkpt lat="43.61537" lon="3.79161">
        <ele>58</ele>
        <time>2020-09-20T07:47:36.000Z</time>
      </trkpt>
      <trkpt lat="43.61539" lon="3.79157">
        <ele>58</ele>
        <time>2020-09-20T07:47:37.000Z</time>
      </trkpt>
      <trkpt lat="43.61541" lon="3.79154">
        <ele>58</ele>
        <time>2020-09-20T07:47:38.000Z</time>
      </trkpt>
      <trkpt lat="43.61542" lon="3.79151">
        <ele>58.048113509434</ele>
        <time>2020-09-20T07:47:39.000Z</time>
      </trkpt>
      <trkpt lat="43.61543" lon="3.79148">
        <ele>58.142453132076</ele>
        <time>2020-09-20T07:47:40.000Z</time>
      </trkpt>
      <trkpt lat="43.61544" lon="3.79144">
        <ele>58.236792754717</ele>
        <time>2020-09-20T07:47:41.000Z</time>
      </trkpt>
      <trkpt lat="43.61544" lon="3.79141">
        <ele>58.331132377359</ele>
        <time>2020-09-20T07:47:42.000Z</time>
      </trkpt>
      <trkpt lat="43.61544" lon="3.79137">
        <ele>58.425472</ele>
        <time>2020-09-20T07:47:43.000Z</time>
      </trkpt>
      <trkpt lat="43.61544" lon="3.79134">
        <ele>58.519811622641</ele>
        <time>2020-09-20T07:47:44.000Z</time>
      </trkpt>
      <trkpt lat="43.61545" lon="3.7913">
        <ele>58.614151245283</ele>
        <time>2020-09-20T07:47:45.000Z</time>
      </trkpt>
      <trkpt lat="43.61546" lon="3.79126">
        <ele>58.708490867925</ele>
        <time>2020-09-20T07:47:46.000Z</time>
      </trkpt>
      <trkpt lat="43.61547" lon="3.79122">
        <ele>58.802830490566</ele>
        <time>2020-09-20T07:47:47.000Z</time>
      </trkpt>
      <trkpt lat="43.61548" lon="3.79118">
        <ele>58.897170113208</ele>
        <time>2020-09-20T07:47:48.000Z</time>
      </trkpt>
      <trkpt lat="43.61549" lon="3.79115">
        <ele>58.991509735849</ele>
        <time>2020-09-20T07:47:49.000Z</time>
      </trkpt>
      <trkpt lat="43.61549" lon="3.79111">
        <ele>59</ele>
        <time>2020-09-20T07:47:50.000Z</time>
      </trkpt>
      <trkpt lat="43.6155" lon="3.79107">
        <ele>59</ele>
        <time>2020-09-20T07:47:51.000Z</time>
      </trkpt>
      <trkpt lat="43.6155" lon="3.79104">
        <ele>59</ele>
        <time>2020-09-20T07:47:52.000Z</time>
      </trkpt>
      <trkpt lat="43.61551" lon="3.791">
        <ele>59</ele>
        <time>2020-09-20T07:47:53.000Z</time>
      </trkpt>
      <trkpt lat="43.61552" lon="3.79096">
        <ele>59</ele>
        <time>2020-09-20T07:47:54.000Z</time>
      </trkpt>
      <trkpt lat="43.61553" lon="3.79092">
        <ele>59</ele>
        <time>2020-09-20T07:47:55.000Z</time>
      </trkpt>
      <trkpt lat="43.61553" lon="3.79088">
        <ele>59</ele>
        <time>2020-09-20T07:47:56.000Z</time>
      </trkpt>
      <trkpt lat="43.61554" lon="3.79084">
        <ele>59</ele>
        <time>2020-09-20T07:47:57.000Z</time>
      </trkpt>
      <trkpt lat="43.61555" lon="3.7908">
        <ele>59</ele>
        <time>2020-09-20T07:47:58.000Z</time>
      </trkpt>
      <trkpt lat="43.61555" lon="3.79076">
        <ele>59</ele>
        <time>2020-09-20T07:47:59.000Z</time>
      </trkpt>
      <trkpt lat="43.61556" lon="3.79072">
        <ele>59</ele>
        <time>2020-09-20T07:48:00.000Z</time>
      </trkpt>
      <trkpt lat="43.61557" lon="3.79069">
        <ele>59</ele>
        <time>2020-09-20T07:48:01.000Z</time>
      </trkpt>
      <trkpt lat="43.61557" lon="3.79065">
        <ele>59</ele>
        <time>2020-09-20T07:48:02.000Z</time>
      </trkpt>
      <trkpt lat="43.61558" lon="3.79061">
        <ele>59</ele>
        <time>2020-09-20T07:48:03.000Z</time>
      </trkpt>
      <trkpt lat="43.61559" lon="3.79057">
        <ele>59</ele>
        <time>2020-09-20T07:48:04.000Z</time>
      </trkpt>
      <trkpt lat="43.6156" lon="3.79054">
        <ele>59</ele>
        <time>2020-09-20T07:48:05.000Z</time>
      </trkpt>
      <trkpt lat="43.6156" lon="3.7905">
        <ele>59</ele>
        <time>2020-09-20T07:48:06.000Z</time>
      </trkpt>
      <trkpt lat="43.61561" lon="3.79046">
        <ele>59</ele>
        <time>2020-09-20T07:48:07.000Z</time>
      </trkpt>
      <trkpt lat="43.61562" lon="3.79043">
        <ele>59</ele>
        <time>2020-09-20T07:48:08.000Z</time>
      </trkpt>
      <trkpt lat="43.61563" lon="3.79039">
        <ele>59.050898490444</ele>
        <time>2020-09-20T07:48:09.000Z</time>
      </trkpt>
      <trkpt lat="43.61563" lon="3.79035">
        <ele>59.150698825901</ele>
        <time>2020-09-20T07:48:10.000Z</time>
      </trkpt>
      <trkpt lat="43.61564" lon="3.79031">
        <ele>59.250499161358</ele>
        <time>2020-09-20T07:48:11.000Z</time>
      </trkpt>
      <trkpt lat="43.61564" lon="3.79027">
        <ele>59.350299496815</ele>
        <time>2020-09-20T07:48:12.000Z</time>
      </trkpt>
      <trkpt lat="43.61565" lon="3.79023">
        <ele>59.450099832272</ele>
        <time>2020-09-20T07:48:13.000Z</time>
      </trkpt>
      <trkpt lat="43.61565" lon="3.79019">
        <ele>59.549900167728</ele>
        <time>2020-09-20T07:48:14.000Z</time>
      </trkpt>
      <trkpt lat="43.61565" lon="3.79015">
        <ele>59.649700503185</ele>
        <time>2020-09-20T07:48:15.000Z</time>
      </trkpt>
      <trkpt lat="43.61565" lon="3.7901">
        <ele>59.749500838642</ele>
        <time>2020-09-20T07:48:16.000Z</time>
      </trkpt>
      <trkpt lat="43.61565" lon="3.79006">
        <ele>59.849301174099</ele>
        <time>2020-09-20T07:48:17.000Z</time>
      </trkpt>
      <trkpt lat="43.61565" lon="3.79002">
        <ele>59.949101509556</ele>
        <time>2020-09-20T07:48:18.000Z</time>
      </trkpt>
      <trkpt lat="43.61565" lon="3.78998">
        <ele>59.950902092763</ele>
        <time>2020-09-20T07:48:19.000Z</time>
      </trkpt>
      <trkpt lat="43.61565" lon="3.78993">
        <ele>59.850701627705</ele>
        <time>2020-09-20T07:48:20.000Z</time>
      </trkpt>
      <trkpt lat="43.61565" lon="3.78989">
        <ele>59.750501162646</ele>
        <time>2020-09-20T07:48:21.000Z</time>
      </trkpt>
      <trkpt lat="43.61565" lon="3.78984">
        <ele>59.650300697588</ele>
        <time>2020-09-20T07:48:22.000Z</time>
      </trkpt>
      <trkpt lat="43.61564" lon="3.7898">
        <ele>59.550100232529</ele>
        <time>2020-09-20T07:48:23.000Z</time>
      </trkpt>
      <trkpt lat="43.61564" lon="3.78975">
        <ele>59.449899767471</ele>
        <time>2020-09-20T07:48:24.000Z</time>
      </trkpt>
      <trkpt lat="43.61564" lon="3.78971">
        <ele>59.349699302412</ele>
        <time>2020-09-20T07:48:25.000Z</time>
      </trkpt>
      <trkpt lat="43.61563" lon="3.78966">
        <ele>59.249498837354</ele>
        <time>2020-09-20T07:48:26.000Z</time>
      </trkpt>
      <trkpt lat="43.61563" lon="3.78961">
        <ele>59.149298372295</ele>
        <time>2020-09-20T07:48:27.000Z</time>
      </trkpt>
      <trkpt lat="43.61563" lon="3.78957">
        <ele>59.049097907237</ele>
        <time>2020-09-20T07:48:28.000Z</time>
      </trkpt>
      <trkpt lat="43.61563" lon="3.78952">
        <ele>59.05100032</ele>
        <time>2020-09-20T07:48:29.000Z</time>
      </trkpt>
      <trkpt lat="43.61563" lon="3.78948">
        <ele>59.15100032</ele>
        <time>2020-09-20T07:48:30.000Z</time>
      </trkpt>
      <trkpt lat="43.61562" lon="3.78944">
        <ele>59.25100032</ele>
        <time>2020-09-20T07:48:31.000Z</time>
      </trkpt>
      <trkpt lat="43.61562" lon="3.78942">
        <ele>59.35100032</ele>
        <time>2020-09-20T07:48:32.000Z</time>
      </trkpt>
      <trkpt lat="43.6156" lon="3.78939">
        <ele>59.55100032</ele>
        <time>2020-09-20T07:48:34.000Z</time>
      </trkpt>
      <trkpt lat="43.61558" lon="3.78936">
        <ele>59.75100032</ele>
        <time>2020-09-20T07:48:36.000Z</time>
      </trkpt>
      <trkpt lat="43.61556" lon="3.78931">
        <ele>59.95100032</ele>
        <time>2020-09-20T07:48:38.000Z</time>
      </trkpt>
      <trkpt lat="43.61556" lon="3.78927">
        <ele>60</ele>
        <time>2020-09-20T07:48:39.000Z</time>
      </trkpt>
      <trkpt lat="43.61556" lon="3.78923">
        <ele>60</ele>
        <time>2020-09-20T07:48:40.000Z</time>
      </trkpt>
      <trkpt lat="43.61556" lon="3.78919">
        <ele>60</ele>
        <time>2020-09-20T07:48:41.000Z</time>
      </trkpt>
      <trkpt lat="43.61557" lon="3.78917">
        <ele>60</ele>
        <time>2020-09-20T07:48:42.000Z</time>
      </trkpt>
      <trkpt lat="43.61557" lon="3.78914">
        <ele>60</ele>
        <time>2020-09-20T07:48:44.000Z</time>
      </trkpt>
      <trkpt lat="43.61556" lon="3.78911">
        <ele>60</ele>
        <time>2020-09-20T07:48:46.000Z</time>
      </trkpt>
      <trkpt lat="43.61556" lon="3.78909">
        <ele>60</ele>
        <time>2020-09-20T07:48:48.000Z</time>
      </trkpt>
      <trkpt lat="43.61555" lon="3.78905">
        <ele>60.15100032</ele>
        <time>2020-09-20T07:48:50.000Z</time>
      </trkpt>
      <trkpt lat="43.61553" lon="3.78903">
        <ele>60.25100032</ele>
        <time>2020-09-20T07:48:51.000Z</time>
      </trkpt>
      <trkpt lat="43.61552" lon="3.789">
        <ele>60.35100032</ele>
        <time>2020-09-20T07:48:52.000Z</time>
      </trkpt>
      <trkpt lat="43.61551" lon="3.78897">
        <ele>60.45100032</ele>
        <time>2020-09-20T07:48:53.000Z</time>
      </trkpt>
      <trkpt lat="43.61549" lon="3.78894">
        <ele>60.55100032</ele>
        <time>2020-09-20T07:48:54.000Z</time>
      </trkpt>
      <trkpt lat="43.61548" lon="3.7889">
        <ele>60.65100032</ele>
        <time>2020-09-20T07:48:55.000Z</time>
      </trkpt>
      <trkpt lat="43.61547" lon="3.78886">
        <ele>60.75100032</ele>
        <time>2020-09-20T07:48:56.000Z</time>
      </trkpt>
      <trkpt lat="43.61546" lon="3.78882">
        <ele>60.85100032</ele>
        <time>2020-09-20T07:48:57.000Z</time>
      </trkpt>
      <trkpt lat="43.61546" lon="3.78878">
        <ele>60.95100032</ele>
        <time>2020-09-20T07:48:58.000Z</time>
      </trkpt>
      <trkpt lat="43.61545" lon="3.78873">
        <ele>61.05100032</ele>
        <time>2020-09-20T07:48:59.000Z</time>
      </trkpt>
      <trkpt lat="43.61545" lon="3.78869">
        <ele>61.15100032</ele>
        <time>2020-09-20T07:49:00.000Z</time>
      </trkpt>
      <trkpt lat="43.61545" lon="3.78864">
        <ele>61.25100032</ele>
        <time>2020-09-20T07:49:01.000Z</time>
      </trkpt>
      <trkpt lat="43.61544" lon="3.78859">
        <ele>61.35100032</ele>
        <time>2020-09-20T07:49:02.000Z</time>
      </trkpt>
      <trkpt lat="43.61544" lon="3.78855">
        <ele>61.45100032</ele>
        <time>2020-09-20T07:49:03.000Z</time>
      </trkpt>
      <trkpt lat="43.61544" lon="3.78851">
        <ele>61.55100032</ele>
        <time>2020-09-20T07:49:04.000Z</time>
      </trkpt>
      <trkpt lat="43.61544" lon="3.78846">
        <ele>61.65100032</ele>
        <time>2020-09-20T07:49:05.000Z</time>
      </trkpt>
      <trkpt lat="43.61544" lon="3.78842">
        <ele>61.75100032</ele>
        <time>2020-09-20T07:49:06.000Z</time>
      </trkpt>
      <trkpt lat="43.61544" lon="3.78837">
        <ele>61.85100032</ele>
        <time>2020-09-20T07:49:07.000Z</time>
      </trkpt>
      <trkpt lat="43.61544" lon="3.78833">
        <ele>61.95100032</ele>
        <time>2020-09-20T07:49:08.000Z</time>
      </trkpt>
      <trkpt lat="43.61544" lon="3.78828">
        <ele>62.05100032</ele>
        <time>2020-09-20T07:49:09.000Z</time>
      </trkpt>
      <trkpt lat="43.61543" lon="3.78823">
        <ele>62.15100032</ele>
        <time>2020-09-20T07:49:10.000Z</time>
      </trkpt>
      <trkpt lat="43.61544" lon="3.78819">
        <ele>62.25100032</ele>
        <time>2020-09-20T07:49:11.000Z</time>
      </trkpt>
      <trkpt lat="43.61544" lon="3.78814">
        <ele>62.35100032</ele>
        <time>2020-09-20T07:49:12.000Z</time>
      </trkpt>
      <trkpt lat="43.61545" lon="3.78809">
        <ele>62.45100032</ele>
        <time>2020-09-20T07:49:13.000Z</time>
      </trkpt>
      <trkpt lat="43.61547" lon="3.78805">
        <ele>62.55100032</ele>
        <time>2020-09-20T07:49:14.000Z</time>
      </trkpt>
      <trkpt lat="43.61548" lon="3.788">
        <ele>62.65100032</ele>
        <time>2020-09-20T07:49:15.000Z</time>
      </trkpt>
      <trkpt lat="43.6155" lon="3.78797">
        <ele>62.75100032</ele>
        <time>2020-09-20T07:49:16.000Z</time>
      </trkpt>
      <trkpt lat="43.61552" lon="3.78793">
        <ele>62.85100032</ele>
        <time>2020-09-20T07:49:17.000Z</time>
      </trkpt>
      <trkpt lat="43.61555" lon="3.7879">
        <ele>62.95100032</ele>
        <time>2020-09-20T07:49:18.000Z</time>
      </trkpt>
      <trkpt lat="43.61557" lon="3.78785">
        <ele>63.049418914729</ele>
        <time>2020-09-20T07:49:19.000Z</time>
      </trkpt>
      <trkpt lat="43.61559" lon="3.7878">
        <ele>63.146318139535</ele>
        <time>2020-09-20T07:49:20.000Z</time>
      </trkpt>
      <trkpt lat="43.61562" lon="3.78776">
        <ele>63.243217364341</ele>
        <time>2020-09-20T07:49:21.000Z</time>
      </trkpt>
      <trkpt lat="43.61565" lon="3.78771">
        <ele>63.340116589147</ele>
        <time>2020-09-20T07:49:22.000Z</time>
      </trkpt>
      <trkpt lat="43.61567" lon="3.78766">
        <ele>63.437015813954</ele>
        <time>2020-09-20T07:49:23.000Z</time>
      </trkpt>
      <trkpt lat="43.6157" lon="3.78762">
        <ele>63.53391503876</ele>
        <time>2020-09-20T07:49:24.000Z</time>
      </trkpt>
      <trkpt lat="43.61572" lon="3.78758">
        <ele>63.630814263566</ele>
        <time>2020-09-20T07:49:25.000Z</time>
      </trkpt>
      <trkpt lat="43.61578" lon="3.78748">
        <ele>64.019250571266</ele>
        <time>2020-09-20T07:49:29.000Z</time>
      </trkpt>
      <trkpt lat="43.61585" lon="3.78744">
        <ele>64.323201840502</ele>
        <time>2020-09-20T07:49:32.000Z</time>
      </trkpt>
      <trkpt lat="43.61586" lon="3.78741">
        <ele>64.424518930247</ele>
        <time>2020-09-20T07:49:33.000Z</time>
      </trkpt>
      <trkpt lat="43.61587" lon="3.78739">
        <ele>64.525836019992</ele>
        <time>2020-09-20T07:49:34.000Z</time>
      </trkpt>
      <trkpt lat="43.61589" lon="3.78737">
        <ele>64.627153109738</ele>
        <time>2020-09-20T07:49:35.000Z</time>
      </trkpt>
      <trkpt lat="43.61591" lon="3.78735">
        <ele>64.728470199483</ele>
        <time>2020-09-20T07:49:36.000Z</time>
      </trkpt>
      <trkpt lat="43.61592" lon="3.78733">
        <ele>64.829787289228</ele>
        <time>2020-09-20T07:49:37.000Z</time>
      </trkpt>
      <trkpt lat="43.61594" lon="3.78731">
        <ele>64.931104378973</ele>
        <time>2020-09-20T07:49:38.000Z</time>
      </trkpt>
      <trkpt lat="43.61595" lon="3.78729">
        <ele>65.032619786379</ele>
        <time>2020-09-20T07:49:39.000Z</time>
      </trkpt>
      <trkpt lat="43.61598" lon="3.78726">
        <ele>65.236493451252</ele>
        <time>2020-09-20T07:49:41.000Z</time>
      </trkpt>
      <trkpt lat="43.61601" lon="3.78722">
        <ele>65.440367116124</ele>
        <time>2020-09-20T07:49:43.000Z</time>
      </trkpt>
      <trkpt lat="43.61603" lon="3.78719">
        <ele>65.644240780996</ele>
        <time>2020-09-20T07:49:45.000Z</time>
      </trkpt>
      <trkpt lat="43.61605" lon="3.78717">
        <ele>65.746177613432</ele>
        <time>2020-09-20T07:49:46.000Z</time>
      </trkpt>
      <trkpt lat="43.61606" lon="3.78715">
        <ele>65.848114445868</ele>
        <time>2020-09-20T07:49:47.000Z</time>
      </trkpt>
      <trkpt lat="43.61608" lon="3.78712">
        <ele>65.950051278304</ele>
        <time>2020-09-20T07:49:48.000Z</time>
      </trkpt>
      <trkpt lat="43.6161" lon="3.78709">
        <ele>66</ele>
        <time>2020-09-20T07:49:49.000Z</time>
      </trkpt>
      <trkpt lat="43.61612" lon="3.78706">
        <ele>66</ele>
        <time>2020-09-20T07:49:50.000Z</time>
      </trkpt>
      <trkpt lat="43.61614" lon="3.78704">
        <ele>66</ele>
        <time>2020-09-20T07:49:51.000Z</time>
      </trkpt>
      <trkpt lat="43.61615" lon="3.78701">
        <ele>66</ele>
        <time>2020-09-20T07:49:52.000Z</time>
      </trkpt>
      <trkpt lat="43.61617" lon="3.78698">
        <ele>66</ele>
        <time>2020-09-20T07:49:53.000Z</time>
      </trkpt>
      <trkpt lat="43.61618" lon="3.78696">
        <ele>66</ele>
        <time>2020-09-20T07:49:54.000Z</time>
      </trkpt>
      <trkpt lat="43.6162" lon="3.78694">
        <ele>66</ele>
        <time>2020-09-20T07:49:55.000Z</time>
      </trkpt>
      <trkpt lat="43.61621" lon="3.78692">
        <ele>66</ele>
        <time>2020-09-20T07:49:56.000Z</time>
      </trkpt>
      <trkpt lat="43.61622" lon="3.7869">
        <ele>66</ele>
        <time>2020-09-20T07:49:57.000Z</time>
      </trkpt>
      <trkpt lat="43.61623" lon="3.78687">
        <ele>66</ele>
        <time>2020-09-20T07:49:58.000Z</time>
      </trkpt>
      <trkpt lat="43.61624" lon="3.78685">
        <ele>66.022656417868</ele>
        <time>2020-09-20T07:49:59.000Z</time>
      </trkpt>
      <trkpt lat="43.61626" lon="3.78683">
        <ele>66.125643131429</ele>
        <time>2020-09-20T07:50:00.000Z</time>
      </trkpt>
      <trkpt lat="43.61627" lon="3.78681">
        <ele>66.228629844989</ele>
        <time>2020-09-20T07:50:01.000Z</time>
      </trkpt>
      <trkpt lat="43.61628" lon="3.78679">
        <ele>66.33161655855</ele>
        <time>2020-09-20T07:50:02.000Z</time>
      </trkpt>
      <trkpt lat="43.6163" lon="3.78677">
        <ele>66.43460327211</ele>
        <time>2020-09-20T07:50:03.000Z</time>
      </trkpt>
      <trkpt lat="43.61631" lon="3.78675">
        <ele>66.537589985671</ele>
        <time>2020-09-20T07:50:04.000Z</time>
      </trkpt>
      <trkpt lat="43.61633" lon="3.78672">
        <ele>66.743563412792</ele>
        <time>2020-09-20T07:50:06.000Z</time>
      </trkpt>
      <trkpt lat="43.61636" lon="3.78668">
        <ele>66.949536839913</ele>
        <time>2020-09-20T07:50:08.000Z</time>
      </trkpt>
      <trkpt lat="43.61638" lon="3.78665">
        <ele>67.16466757025</ele>
        <time>2020-09-20T07:50:10.000Z</time>
      </trkpt>
      <trkpt lat="43.61641" lon="3.78664">
        <ele>67.382769850099</ele>
        <time>2020-09-20T07:50:12.000Z</time>
      </trkpt>
      <trkpt lat="43.61643" lon="3.78663">
        <ele>67.600872129948</ele>
        <time>2020-09-20T07:50:14.000Z</time>
      </trkpt>
      <trkpt lat="43.61644" lon="3.78663">
        <ele>68.000695429797</ele>
        <time>2020-09-20T07:50:18.000Z</time>
      </trkpt>
      <trkpt lat="43.61647" lon="3.78645">
        <ele>70</ele>
        <time>2020-09-20T07:50:47.000Z</time>
      </trkpt>
      <trkpt lat="43.61649" lon="3.78643">
        <ele>70</ele>
        <time>2020-09-20T07:50:48.000Z</time>
      </trkpt>
      <trkpt lat="43.61651" lon="3.78641">
        <ele>70</ele>
        <time>2020-09-20T07:50:49.000Z</time>
      </trkpt>
      <trkpt lat="43.61652" lon="3.78639">
        <ele>70</ele>
        <time>2020-09-20T07:50:50.000Z</time>
      </trkpt>
      <trkpt lat="43.61654" lon="3.78637">
        <ele>70</ele>
        <time>2020-09-20T07:50:51.000Z</time>
      </trkpt>
      <trkpt lat="43.61655" lon="3.78634">
        <ele>70</ele>
        <time>2020-09-20T07:50:52.000Z</time>
      </trkpt>
      <trkpt lat="43.61657" lon="3.78632">
        <ele>70</ele>
        <time>2020-09-20T07:50:53.000Z</time>
      </trkpt>
      <trkpt lat="43.61658" lon="3.78629">
        <ele>70</ele>
        <time>2020-09-20T07:50:54.000Z</time>
      </trkpt>
      <trkpt lat="43.6166" lon="3.78627">
        <ele>70</ele>
        <time>2020-09-20T07:50:55.000Z</time>
      </trkpt>
      <trkpt lat="43.61662" lon="3.78625">
        <ele>70</ele>
        <time>2020-09-20T07:50:56.000Z</time>
      </trkpt>
      <trkpt lat="43.61664" lon="3.78622">
        <ele>70.026865964387</ele>
        <time>2020-09-20T07:50:57.000Z</time>
      </trkpt>
      <trkpt lat="43.61665" lon="3.7862">
        <ele>70.126368356902</ele>
        <time>2020-09-20T07:50:58.000Z</time>
      </trkpt>
      <trkpt lat="43.61667" lon="3.78618">
        <ele>70.225870749417</ele>
        <time>2020-09-20T07:50:59.000Z</time>
      </trkpt>
      <trkpt lat="43.61668" lon="3.78616">
        <ele>70.325373141932</ele>
        <time>2020-09-20T07:51:00.000Z</time>
      </trkpt>
      <trkpt lat="43.6167" lon="3.78614">
        <ele>70.424875534447</ele>
        <time>2020-09-20T07:51:01.000Z</time>
      </trkpt>
      <trkpt lat="43.61671" lon="3.78611">
        <ele>70.524377926962</ele>
        <time>2020-09-20T07:51:02.000Z</time>
      </trkpt>
      <trkpt lat="43.61672" lon="3.78609">
        <ele>70.623880319477</ele>
        <time>2020-09-20T07:51:03.000Z</time>
      </trkpt>
      <trkpt lat="43.61673" lon="3.78607">
        <ele>70.723382711993</ele>
        <time>2020-09-20T07:51:04.000Z</time>
      </trkpt>
      <trkpt lat="43.61674" lon="3.78604">
        <ele>70.822885104508</ele>
        <time>2020-09-20T07:51:05.000Z</time>
      </trkpt>
      <trkpt lat="43.61675" lon="3.78602">
        <ele>70.922387497023</ele>
        <time>2020-09-20T07:51:06.000Z</time>
      </trkpt>
      <trkpt lat="43.61676" lon="3.78599">
        <ele>71.090625671473</ele>
        <time>2020-09-20T07:51:07.000Z</time>
      </trkpt>
      <trkpt lat="43.61678" lon="3.78597">
        <ele>71.502572525715</ele>
        <time>2020-09-20T07:51:08.000Z</time>
      </trkpt>
      <trkpt lat="43.61679" lon="3.78594">
        <ele>71.914519379957</ele>
        <time>2020-09-20T07:51:09.000Z</time>
      </trkpt>
      <trkpt lat="43.6168" lon="3.78592">
        <ele>72.326466234199</ele>
        <time>2020-09-20T07:51:10.000Z</time>
      </trkpt>
      <trkpt lat="43.61681" lon="3.78589">
        <ele>72.738413088441</ele>
        <time>2020-09-20T07:51:11.000Z</time>
      </trkpt>
      <trkpt lat="43.61682" lon="3.78587">
        <ele>73.150359942683</ele>
        <time>2020-09-20T07:51:12.000Z</time>
      </trkpt>
      <trkpt lat="43.61683" lon="3.78584">
        <ele>73.562306796925</ele>
        <time>2020-09-20T07:51:13.000Z</time>
      </trkpt>
      <trkpt lat="43.61684" lon="3.78582">
        <ele>73.974253651167</ele>
        <time>2020-09-20T07:51:14.000Z</time>
      </trkpt>
      <trkpt lat="43.61685" lon="3.78579">
        <ele>74.386200505409</ele>
        <time>2020-09-20T07:51:15.000Z</time>
      </trkpt>
      <trkpt lat="43.61686" lon="3.78576">
        <ele>74.798147359651</ele>
        <time>2020-09-20T07:51:16.000Z</time>
      </trkpt>
      <trkpt lat="43.61688" lon="3.78573">
        <ele>75.099415766446</ele>
        <time>2020-09-20T07:51:17.000Z</time>
      </trkpt>
      <trkpt lat="43.61689" lon="3.78571">
        <ele>75.294347418731</ele>
        <time>2020-09-20T07:51:18.000Z</time>
      </trkpt>
      <trkpt lat="43.61691" lon="3.78568">
        <ele>75.489279071015</ele>
        <time>2020-09-20T07:51:19.000Z</time>
      </trkpt>
      <trkpt lat="43.61692" lon="3.78565">
        <ele>75.684210723299</ele>
        <time>2020-09-20T07:51:20.000Z</time>
      </trkpt>
      <trkpt lat="43.61694" lon="3.78563">
        <ele>75.879142375584</ele>
        <time>2020-09-20T07:51:21.000Z</time>
      </trkpt>
      <trkpt lat="43.61695" lon="3.7856">
        <ele>76.074074027868</ele>
        <time>2020-09-20T07:51:22.000Z</time>
      </trkpt>
      <trkpt lat="43.61697" lon="3.78558">
        <ele>76.269005680152</ele>
        <time>2020-09-20T07:51:23.000Z</time>
      </trkpt>
      <trkpt lat="43.61698" lon="3.78555">
        <ele>76.463937332437</ele>
        <time>2020-09-20T07:51:24.000Z</time>
      </trkpt>
      <trkpt lat="43.61699" lon="3.78553">
        <ele>76.658868984721</ele>
        <time>2020-09-20T07:51:25.000Z</time>
      </trkpt>
      <trkpt lat="43.617" lon="3.78551">
        <ele>76.853800637005</ele>
        <time>2020-09-20T07:51:26.000Z</time>
      </trkpt>
      <trkpt lat="43.61701" lon="3.78548">
        <ele>77.051334078905</ele>
        <time>2020-09-20T07:51:27.000Z</time>
      </trkpt>
      <trkpt lat="43.61703" lon="3.78545">
        <ele>77.256673022865</ele>
        <time>2020-09-20T07:51:28.000Z</time>
      </trkpt>
      <trkpt lat="43.61704" lon="3.78543">
        <ele>77.462011966825</ele>
        <time>2020-09-20T07:51:29.000Z</time>
      </trkpt>
      <trkpt lat="43.61704" lon="3.78541">
        <ele>77.667350910785</ele>
        <time>2020-09-20T07:51:30.000Z</time>
      </trkpt>
      <trkpt lat="43.61705" lon="3.78538">
        <ele>77.872689854745</ele>
        <time>2020-09-20T07:51:31.000Z</time>
      </trkpt>
      <trkpt lat="43.61707" lon="3.78536">
        <ele>78.078028798705</ele>
        <time>2020-09-20T07:51:32.000Z</time>
      </trkpt>
      <trkpt lat="43.61708" lon="3.78534">
        <ele>78.283367742665</ele>
        <time>2020-09-20T07:51:33.000Z</time>
      </trkpt>
      <trkpt lat="43.61709" lon="3.78532">
        <ele>78.488706686624</ele>
        <time>2020-09-20T07:51:34.000Z</time>
      </trkpt>
      <trkpt lat="43.6171" lon="3.78529">
        <ele>78.694045630584</ele>
        <time>2020-09-20T07:51:35.000Z</time>
      </trkpt>
      <trkpt lat="43.61711" lon="3.78526">
        <ele>78.899384574544</ele>
        <time>2020-09-20T07:51:36.000Z</time>
      </trkpt>
      <trkpt lat="43.61711" lon="3.78524">
        <ele>79.148256744186</ele>
        <time>2020-09-20T07:51:37.000Z</time>
      </trkpt>
      <trkpt lat="43.61712" lon="3.78521">
        <ele>79.438954418605</ele>
        <time>2020-09-20T07:51:38.000Z</time>
      </trkpt>
      <trkpt lat="43.61713" lon="3.78518">
        <ele>79.729652093023</ele>
        <time>2020-09-20T07:51:39.000Z</time>
      </trkpt>
      <trkpt lat="43.61714" lon="3.78515">
        <ele>80.020349767442</ele>
        <time>2020-09-20T07:51:40.000Z</time>
      </trkpt>
      <trkpt lat="43.61715" lon="3.78512">
        <ele>80.31104744186</ele>
        <time>2020-09-20T07:51:41.000Z</time>
      </trkpt>
      <trkpt lat="43.61716" lon="3.78509">
        <ele>80.601745116279</ele>
        <time>2020-09-20T07:51:42.000Z</time>
      </trkpt>
      <trkpt lat="43.61717" lon="3.78506">
        <ele>80.892442790698</ele>
        <time>2020-09-20T07:51:43.000Z</time>
      </trkpt>
      <trkpt lat="43.61719" lon="3.78503">
        <ele>81.183140465116</ele>
        <time>2020-09-20T07:51:44.000Z</time>
      </trkpt>
      <trkpt lat="43.61719" lon="3.785">
        <ele>81.473838139535</ele>
        <time>2020-09-20T07:51:45.000Z</time>
      </trkpt>
      <trkpt lat="43.6172" lon="3.78497">
        <ele>81.764535813954</ele>
        <time>2020-09-20T07:51:46.000Z</time>
      </trkpt>
      <trkpt lat="43.61721" lon="3.78494">
        <ele>82.019628429752</ele>
        <time>2020-09-20T07:51:47.000Z</time>
      </trkpt>
      <trkpt lat="43.61722" lon="3.78491">
        <ele>82.122934214876</ele>
        <time>2020-09-20T07:51:48.000Z</time>
      </trkpt>
      <trkpt lat="43.61723" lon="3.78488">
        <ele>82.22624</ele>
        <time>2020-09-20T07:51:49.000Z</time>
      </trkpt>
      <trkpt lat="43.61724" lon="3.78485">
        <ele>82.329545785124</ele>
        <time>2020-09-20T07:51:50.000Z</time>
      </trkpt>
      <trkpt lat="43.61725" lon="3.78482">
        <ele>82.432851570248</ele>
        <time>2020-09-20T07:51:51.000Z</time>
      </trkpt>
      <trkpt lat="43.61726" lon="3.78478">
        <ele>82.536157355372</ele>
        <time>2020-09-20T07:51:52.000Z</time>
      </trkpt>
      <trkpt lat="43.61726" lon="3.78475">
        <ele>82.639463140496</ele>
        <time>2020-09-20T07:51:53.000Z</time>
      </trkpt>
      <trkpt lat="43.61727" lon="3.78472">
        <ele>82.74276892562</ele>
        <time>2020-09-20T07:51:54.000Z</time>
      </trkpt>
      <trkpt lat="43.61727" lon="3.78468">
        <ele>82.846074710744</ele>
        <time>2020-09-20T07:51:55.000Z</time>
      </trkpt>
      <trkpt lat="43.61728" lon="3.78465">
        <ele>82.949380495868</ele>
        <time>2020-09-20T07:51:56.000Z</time>
      </trkpt>
      <trkpt lat="43.61728" lon="3.78462">
        <ele>83.05100032</ele>
        <time>2020-09-20T07:51:57.000Z</time>
      </trkpt>
      <trkpt lat="43.61728" lon="3.78458">
        <ele>83.15100032</ele>
        <time>2020-09-20T07:51:58.000Z</time>
      </trkpt>
      <trkpt lat="43.61728" lon="3.78455">
        <ele>83.25100032</ele>
        <time>2020-09-20T07:51:59.000Z</time>
      </trkpt>
      <trkpt lat="43.61728" lon="3.78451">
        <ele>83.35100032</ele>
        <time>2020-09-20T07:52:00.000Z</time>
      </trkpt>
      <trkpt lat="43.61728" lon="3.78447">
        <ele>83.45100032</ele>
        <time>2020-09-20T07:52:01.000Z</time>
      </trkpt>
      <trkpt lat="43.61728" lon="3.78444">
        <ele>83.55100032</ele>
        <time>2020-09-20T07:52:02.000Z</time>
      </trkpt>
      <trkpt lat="43.61728" lon="3.78439">
        <ele>83.65100032</ele>
        <time>2020-09-20T07:52:03.000Z</time>
      </trkpt>
      <trkpt lat="43.61728" lon="3.78436">
        <ele>83.75100032</ele>
        <time>2020-09-20T07:52:04.000Z</time>
      </trkpt>
      <trkpt lat="43.61728" lon="3.78432">
        <ele>83.85100032</ele>
        <time>2020-09-20T07:52:05.000Z</time>
      </trkpt>
      <trkpt lat="43.61728" lon="3.78428">
        <ele>83.95100032</ele>
        <time>2020-09-20T07:52:06.000Z</time>
      </trkpt>
      <trkpt lat="43.61728" lon="3.78425">
        <ele>84</ele>
        <time>2020-09-20T07:52:07.000Z</time>
      </trkpt>
      <trkpt lat="43.61727" lon="3.78421">
        <ele>84</ele>
        <time>2020-09-20T07:52:08.000Z</time>
      </trkpt>
      <trkpt lat="43.61727" lon="3.78417">
        <ele>84</ele>
        <time>2020-09-20T07:52:09.000Z</time>
      </trkpt>
      <trkpt lat="43.61726" lon="3.78414">
        <ele>84</ele>
        <time>2020-09-20T07:52:10.000Z</time>
      </trkpt>
      <trkpt lat="43.61725" lon="3.7841">
        <ele>84</ele>
        <time>2020-09-20T07:52:11.000Z</time>
      </trkpt>
      <trkpt lat="43.61724" lon="3.78406">
        <ele>84</ele>
        <time>2020-09-20T07:52:12.000Z</time>
      </trkpt>
      <trkpt lat="43.61723" lon="3.78402">
        <ele>84</ele>
        <time>2020-09-20T07:52:13.000Z</time>
      </trkpt>
      <trkpt lat="43.61722" lon="3.78398">
        <ele>84</ele>
        <time>2020-09-20T07:52:14.000Z</time>
      </trkpt>
      <trkpt lat="43.61721" lon="3.78393">
        <ele>84</ele>
        <time>2020-09-20T07:52:15.000Z</time>
      </trkpt>
      <trkpt lat="43.6172" lon="3.78388">
        <ele>84</ele>
        <time>2020-09-20T07:52:16.000Z</time>
      </trkpt>
      <trkpt lat="43.61718" lon="3.78382">
        <ele>84</ele>
        <time>2020-09-20T07:52:17.000Z</time>
      </trkpt>
      <trkpt lat="43.61717" lon="3.78377">
        <ele>84</ele>
        <time>2020-09-20T07:52:18.000Z</time>
      </trkpt>
      <trkpt lat="43.61715" lon="3.78371">
        <ele>84</ele>
        <time>2020-09-20T07:52:19.000Z</time>
      </trkpt>
      <trkpt lat="43.61714" lon="3.78364">
        <ele>84</ele>
        <time>2020-09-20T07:52:20.000Z</time>
      </trkpt>
      <trkpt lat="43.61713" lon="3.78357">
        <ele>84</ele>
        <time>2020-09-20T07:52:21.000Z</time>
      </trkpt>
      <trkpt lat="43.61713" lon="3.78351">
        <ele>84</ele>
        <time>2020-09-20T07:52:22.000Z</time>
      </trkpt>
      <trkpt lat="43.61713" lon="3.78344">
        <ele>84</ele>
        <time>2020-09-20T07:52:23.000Z</time>
      </trkpt>
      <trkpt lat="43.61713" lon="3.78338">
        <ele>84</ele>
        <time>2020-09-20T07:52:24.000Z</time>
      </trkpt>
      <trkpt lat="43.61713" lon="3.78332">
        <ele>84</ele>
        <time>2020-09-20T07:52:25.000Z</time>
      </trkpt>
      <trkpt lat="43.61714" lon="3.78327">
        <ele>84</ele>
        <time>2020-09-20T07:52:26.000Z</time>
      </trkpt>
      <trkpt lat="43.61714" lon="3.78321">
        <ele>84.049418914729</ele>
        <time>2020-09-20T07:52:27.000Z</time>
      </trkpt>
      <trkpt lat="43.61715" lon="3.78316">
        <ele>84.146318139535</ele>
        <time>2020-09-20T07:52:28.000Z</time>
      </trkpt>
      <trkpt lat="43.61716" lon="3.78311">
        <ele>84.243217364341</ele>
        <time>2020-09-20T07:52:29.000Z</time>
      </trkpt>
      <trkpt lat="43.61716" lon="3.78306">
        <ele>84.340116589147</ele>
        <time>2020-09-20T07:52:30.000Z</time>
      </trkpt>
      <trkpt lat="43.61717" lon="3.78301">
        <ele>84.437015813953</ele>
        <time>2020-09-20T07:52:31.000Z</time>
      </trkpt>
      <trkpt lat="43.61717" lon="3.78297">
        <ele>84.53391503876</ele>
        <time>2020-09-20T07:52:32.000Z</time>
      </trkpt>
      <trkpt lat="43.61718" lon="3.78292">
        <ele>84.630814263566</ele>
        <time>2020-09-20T07:52:33.000Z</time>
      </trkpt>
      <trkpt lat="43.61719" lon="3.78288">
        <ele>84.727713488372</ele>
        <time>2020-09-20T07:52:34.000Z</time>
      </trkpt>
      <trkpt lat="43.6172" lon="3.78283">
        <ele>84.824612713178</ele>
        <time>2020-09-20T07:52:35.000Z</time>
      </trkpt>
      <trkpt lat="43.6172" lon="3.78279">
        <ele>84.921511937985</ele>
        <time>2020-09-20T07:52:36.000Z</time>
      </trkpt>
      <trkpt lat="43.61721" lon="3.78275">
        <ele>85.019057474127</ele>
        <time>2020-09-20T07:52:37.000Z</time>
      </trkpt>
      <trkpt lat="43.61722" lon="3.7827">
        <ele>85.119358280257</ele>
        <time>2020-09-20T07:52:38.000Z</time>
      </trkpt>
      <trkpt lat="43.61723" lon="3.78266">
        <ele>85.219659086386</ele>
        <time>2020-09-20T07:52:39.000Z</time>
      </trkpt>
      <trkpt lat="43.61724" lon="3.78262">
        <ele>85.319959892516</ele>
        <time>2020-09-20T07:52:40.000Z</time>
      </trkpt>
      <trkpt lat="43.61726" lon="3.78257">
        <ele>85.420260698646</ele>
        <time>2020-09-20T07:52:41.000Z</time>
      </trkpt>
      <trkpt lat="43.61726" lon="3.78253">
        <ele>85.520561504775</ele>
        <time>2020-09-20T07:52:42.000Z</time>
      </trkpt>
      <trkpt lat="43.61727" lon="3.78249">
        <ele>85.620862310905</ele>
        <time>2020-09-20T07:52:43.000Z</time>
      </trkpt>
      <trkpt lat="43.61728" lon="3.78245">
        <ele>85.721163117034</ele>
        <time>2020-09-20T07:52:44.000Z</time>
      </trkpt>
      <trkpt lat="43.61729" lon="3.7824">
        <ele>85.821463923164</ele>
        <time>2020-09-20T07:52:45.000Z</time>
      </trkpt>
      <trkpt lat="43.6173" lon="3.78236">
        <ele>85.921764729294</ele>
        <time>2020-09-20T07:52:46.000Z</time>
      </trkpt>
      <trkpt lat="43.61731" lon="3.78231">
        <ele>86.022656417868</ele>
        <time>2020-09-20T07:52:47.000Z</time>
      </trkpt>
      <trkpt lat="43.61732" lon="3.78227">
        <ele>86.125643131429</ele>
        <time>2020-09-20T07:52:48.000Z</time>
      </trkpt>
      <trkpt lat="43.61734" lon="3.78222">
        <ele>86.228629844989</ele>
        <time>2020-09-20T07:52:49.000Z</time>
      </trkpt>
      <trkpt lat="43.61735" lon="3.78218">
        <ele>86.33161655855</ele>
        <time>2020-09-20T07:52:50.000Z</time>
      </trkpt>
      <trkpt lat="43.61736" lon="3.78213">
        <ele>86.43460327211</ele>
        <time>2020-09-20T07:52:51.000Z</time>
      </trkpt>
      <trkpt lat="43.61737" lon="3.78208">
        <ele>86.537589985671</ele>
        <time>2020-09-20T07:52:52.000Z</time>
      </trkpt>
      <trkpt lat="43.61738" lon="3.78204">
        <ele>86.640576699231</ele>
        <time>2020-09-20T07:52:53.000Z</time>
      </trkpt>
      <trkpt lat="43.61739" lon="3.78199">
        <ele>86.743563412792</ele>
        <time>2020-09-20T07:52:54.000Z</time>
      </trkpt>
      <trkpt lat="43.6174" lon="3.78194">
        <ele>86.846550126352</ele>
        <time>2020-09-20T07:52:55.000Z</time>
      </trkpt>
      <trkpt lat="43.61742" lon="3.78189">
        <ele>86.949536839913</ele>
        <time>2020-09-20T07:52:56.000Z</time>
      </trkpt>
      <trkpt lat="43.61743" lon="3.78184">
        <ele>87.049418914729</ele>
        <time>2020-09-20T07:52:57.000Z</time>
      </trkpt>
      <trkpt lat="43.61744" lon="3.78179">
        <ele>87.146318139535</ele>
        <time>2020-09-20T07:52:58.000Z</time>
      </trkpt>
      <trkpt lat="43.61745" lon="3.78175">
        <ele>87.243217364341</ele>
        <time>2020-09-20T07:52:59.000Z</time>
      </trkpt>
      <trkpt lat="43.61746" lon="3.7817">
        <ele>87.340116589147</ele>
        <time>2020-09-20T07:53:00.000Z</time>
      </trkpt>
      <trkpt lat="43.61747" lon="3.78165">
        <ele>87.437015813953</ele>
        <time>2020-09-20T07:53:01.000Z</time>
      </trkpt>
      <trkpt lat="43.61748" lon="3.78161">
        <ele>87.53391503876</ele>
        <time>2020-09-20T07:53:02.000Z</time>
      </trkpt>
      <trkpt lat="43.61749" lon="3.78156">
        <ele>87.630814263566</ele>
        <time>2020-09-20T07:53:03.000Z</time>
      </trkpt>
      <trkpt lat="43.6175" lon="3.78152">
        <ele>87.727713488372</ele>
        <time>2020-09-20T07:53:04.000Z</time>
      </trkpt>
      <trkpt lat="43.61752" lon="3.78147">
        <ele>87.824612713178</ele>
        <time>2020-09-20T07:53:05.000Z</time>
      </trkpt>
      <trkpt lat="43.61753" lon="3.78142">
        <ele>87.921511937985</ele>
        <time>2020-09-20T07:53:06.000Z</time>
      </trkpt>
      <trkpt lat="43.61754" lon="3.78138">
        <ele>88</ele>
        <time>2020-09-20T07:53:07.000Z</time>
      </trkpt>
      <trkpt lat="43.61755" lon="3.78133">
        <ele>88</ele>
        <time>2020-09-20T07:53:08.000Z</time>
      </trkpt>
      <trkpt lat="43.61756" lon="3.78128">
        <ele>88</ele>
        <time>2020-09-20T07:53:09.000Z</time>
      </trkpt>
      <trkpt lat="43.61758" lon="3.78124">
        <ele>88</ele>
        <time>2020-09-20T07:53:10.000Z</time>
      </trkpt>
      <trkpt lat="43.61759" lon="3.78119">
        <ele>88</ele>
        <time>2020-09-20T07:53:11.000Z</time>
      </trkpt>
      <trkpt lat="43.61761" lon="3.78115">
        <ele>88</ele>
        <time>2020-09-20T07:53:12.000Z</time>
      </trkpt>
      <trkpt lat="43.61763" lon="3.78111">
        <ele>88</ele>
        <time>2020-09-20T07:53:13.000Z</time>
      </trkpt>
      <trkpt lat="43.61765" lon="3.78106">
        <ele>88</ele>
        <time>2020-09-20T07:53:14.000Z</time>
      </trkpt>
      <trkpt lat="43.61767" lon="3.78103">
        <ele>88</ele>
        <time>2020-09-20T07:53:15.000Z</time>
      </trkpt>
      <trkpt lat="43.61769" lon="3.78099">
        <ele>88</ele>
        <time>2020-09-20T07:53:16.000Z</time>
      </trkpt>
      <trkpt lat="43.61771" lon="3.78095">
        <ele>88</ele>
        <time>2020-09-20T07:53:17.000Z</time>
      </trkpt>
      <trkpt lat="43.61773" lon="3.78091">
        <ele>88</ele>
        <time>2020-09-20T07:53:18.000Z</time>
      </trkpt>
      <trkpt lat="43.61775" lon="3.78087">
        <ele>88</ele>
        <time>2020-09-20T07:53:19.000Z</time>
      </trkpt>
      <trkpt lat="43.61778" lon="3.78083">
        <ele>88</ele>
        <time>2020-09-20T07:53:20.000Z</time>
      </trkpt>
      <trkpt lat="43.6178" lon="3.7808">
        <ele>88</ele>
        <time>2020-09-20T07:53:21.000Z</time>
      </trkpt>
      <trkpt lat="43.61783" lon="3.78077">
        <ele>88</ele>
        <time>2020-09-20T07:53:22.000Z</time>
      </trkpt>
      <trkpt lat="43.61786" lon="3.78074">
        <ele>88</ele>
        <time>2020-09-20T07:53:23.000Z</time>
      </trkpt>
      <trkpt lat="43.61789" lon="3.78071">
        <ele>88</ele>
        <time>2020-09-20T07:53:24.000Z</time>
      </trkpt>
      <trkpt lat="43.61792" lon="3.78068">
        <ele>88</ele>
        <time>2020-09-20T07:53:25.000Z</time>
      </trkpt>
      <trkpt lat="43.61795" lon="3.78065">
        <ele>88</ele>
        <time>2020-09-20T07:53:26.000Z</time>
      </trkpt>
      <trkpt lat="43.61798" lon="3.78062">
        <ele>88</ele>
        <time>2020-09-20T07:53:27.000Z</time>
      </trkpt>
      <trkpt lat="43.61801" lon="3.78059">
        <ele>88</ele>
        <time>2020-09-20T07:53:28.000Z</time>
      </trkpt>
      <trkpt lat="43.61804" lon="3.78056">
        <ele>88</ele>
        <time>2020-09-20T07:53:29.000Z</time>
      </trkpt>
      <trkpt lat="43.61807" lon="3.78052">
        <ele>88</ele>
        <time>2020-09-20T07:53:30.000Z</time>
      </trkpt>
      <trkpt lat="43.6181" lon="3.78048">
        <ele>88</ele>
        <time>2020-09-20T07:53:31.000Z</time>
      </trkpt>
      <trkpt lat="43.61813" lon="3.78044">
        <ele>88</ele>
        <time>2020-09-20T07:53:32.000Z</time>
      </trkpt>
      <trkpt lat="43.61816" lon="3.7804">
        <ele>88</ele>
        <time>2020-09-20T07:53:33.000Z</time>
      </trkpt>
      <trkpt lat="43.61818" lon="3.78035">
        <ele>88</ele>
        <time>2020-09-20T07:53:34.000Z</time>
      </trkpt>
      <trkpt lat="43.61821" lon="3.78031">
        <ele>88</ele>
        <time>2020-09-20T07:53:35.000Z</time>
      </trkpt>
      <trkpt lat="43.61823" lon="3.78026">
        <ele>88</ele>
        <time>2020-09-20T07:53:36.000Z</time>
      </trkpt>
      <trkpt lat="43.61825" lon="3.78021">
        <ele>88.063241106719</ele>
        <time>2020-09-20T07:53:37.000Z</time>
      </trkpt>
      <trkpt lat="43.61826" lon="3.78016">
        <ele>88.260869565217</ele>
        <time>2020-09-20T07:53:38.000Z</time>
      </trkpt>
      <trkpt lat="43.61827" lon="3.78011">
        <ele>88.458498023715</ele>
        <time>2020-09-20T07:53:39.000Z</time>
      </trkpt>
      <trkpt lat="43.61829" lon="3.78007">
        <ele>88.656126482213</ele>
        <time>2020-09-20T07:53:40.000Z</time>
      </trkpt>
      <trkpt lat="43.6183" lon="3.78002">
        <ele>88.853754940711</ele>
        <time>2020-09-20T07:53:41.000Z</time>
      </trkpt>
      <trkpt lat="43.61831" lon="3.77998">
        <ele>89.051383399209</ele>
        <time>2020-09-20T07:53:42.000Z</time>
      </trkpt>
      <trkpt lat="43.61832" lon="3.77993">
        <ele>89.249011857708</ele>
        <time>2020-09-20T07:53:43.000Z</time>
      </trkpt>
      <trkpt lat="43.61833" lon="3.77989">
        <ele>89.446640316206</ele>
        <time>2020-09-20T07:53:44.000Z</time>
      </trkpt>
      <trkpt lat="43.61834" lon="3.77984">
        <ele>89.644268774704</ele>
        <time>2020-09-20T07:53:45.000Z</time>
      </trkpt>
      <trkpt lat="43.61835" lon="3.7798">
        <ele>89.841897233202</ele>
        <time>2020-09-20T07:53:46.000Z</time>
      </trkpt>
      <trkpt lat="43.61836" lon="3.77975">
        <ele>90.020576131687</ele>
        <time>2020-09-20T07:53:47.000Z</time>
      </trkpt>
      <trkpt lat="43.61837" lon="3.77971">
        <ele>90.123456790123</ele>
        <time>2020-09-20T07:53:48.000Z</time>
      </trkpt>
      <trkpt lat="43.61837" lon="3.77967">
        <ele>90.22633744856</ele>
        <time>2020-09-20T07:53:49.000Z</time>
      </trkpt>
      <trkpt lat="43.61838" lon="3.77962">
        <ele>90.329218106996</ele>
        <time>2020-09-20T07:53:50.000Z</time>
      </trkpt>
      <trkpt lat="43.61838" lon="3.77958">
        <ele>90.432098765432</ele>
        <time>2020-09-20T07:53:51.000Z</time>
      </trkpt>
      <trkpt lat="43.61838" lon="3.77953">
        <ele>90.534979423868</ele>
        <time>2020-09-20T07:53:52.000Z</time>
      </trkpt>
      <trkpt lat="43.61838" lon="3.77949">
        <ele>90.637860082304</ele>
        <time>2020-09-20T07:53:53.000Z</time>
      </trkpt>
      <trkpt lat="43.61838" lon="3.77945">
        <ele>90.740740740741</ele>
        <time>2020-09-20T07:53:54.000Z</time>
      </trkpt>
      <trkpt lat="43.61838" lon="3.7794">
        <ele>90.843621399177</ele>
        <time>2020-09-20T07:53:55.000Z</time>
      </trkpt>
      <trkpt lat="43.61838" lon="3.77936">
        <ele>90.946502057613</ele>
        <time>2020-09-20T07:53:56.000Z</time>
      </trkpt>
      <trkpt lat="43.61838" lon="3.77931">
        <ele>91.048144448752</ele>
        <time>2020-09-20T07:53:57.000Z</time>
      </trkpt>
      <trkpt lat="43.61838" lon="3.77927">
        <ele>91.148445383653</ele>
        <time>2020-09-20T07:53:58.000Z</time>
      </trkpt>
      <trkpt lat="43.61838" lon="3.77923">
        <ele>91.248746318554</ele>
        <time>2020-09-20T07:53:59.000Z</time>
      </trkpt>
      <trkpt lat="43.61838" lon="3.77918">
        <ele>91.349047253455</ele>
        <time>2020-09-20T07:54:00.000Z</time>
      </trkpt>
      <trkpt lat="43.61838" lon="3.77914">
        <ele>91.449348188356</ele>
        <time>2020-09-20T07:54:01.000Z</time>
      </trkpt>
      <trkpt lat="43.61838" lon="3.7791">
        <ele>91.549649123257</ele>
        <time>2020-09-20T07:54:02.000Z</time>
      </trkpt>
      <trkpt lat="43.61838" lon="3.77906">
        <ele>91.649950058158</ele>
        <time>2020-09-20T07:54:03.000Z</time>
      </trkpt>
      <trkpt lat="43.61838" lon="3.77902">
        <ele>91.750250993059</ele>
        <time>2020-09-20T07:54:04.000Z</time>
      </trkpt>
      <trkpt lat="43.61838" lon="3.77898">
        <ele>91.85055192796</ele>
        <time>2020-09-20T07:54:05.000Z</time>
      </trkpt>
      <trkpt lat="43.61838" lon="3.77893">
        <ele>91.950852862861</ele>
        <time>2020-09-20T07:54:06.000Z</time>
      </trkpt>
      <trkpt lat="43.61838" lon="3.77889">
        <ele>92.098646592714</ele>
        <time>2020-09-20T07:54:07.000Z</time>
      </trkpt>
      <trkpt lat="43.61838" lon="3.77885">
        <ele>92.292070070672</ele>
        <time>2020-09-20T07:54:08.000Z</time>
      </trkpt>
      <trkpt lat="43.61838" lon="3.77882">
        <ele>92.485493548631</ele>
        <time>2020-09-20T07:54:09.000Z</time>
      </trkpt>
      <trkpt lat="43.61838" lon="3.77878">
        <ele>92.678917026589</ele>
        <time>2020-09-20T07:54:10.000Z</time>
      </trkpt>
      <trkpt lat="43.61837" lon="3.77875">
        <ele>92.872340504547</ele>
        <time>2020-09-20T07:54:11.000Z</time>
      </trkpt>
      <trkpt lat="43.61837" lon="3.77872">
        <ele>93.065763982506</ele>
        <time>2020-09-20T07:54:12.000Z</time>
      </trkpt>
      <trkpt lat="43.61836" lon="3.77869">
        <ele>93.259187460464</ele>
        <time>2020-09-20T07:54:13.000Z</time>
      </trkpt>
      <trkpt lat="43.61834" lon="3.77868">
        <ele>93.452610938423</ele>
        <time>2020-09-20T07:54:14.000Z</time>
      </trkpt>
      <trkpt lat="43.61832" lon="3.77867">
        <ele>93.646034416381</ele>
        <time>2020-09-20T07:54:15.000Z</time>
      </trkpt>
      <trkpt lat="43.61829" lon="3.77866">
        <ele>93.839457894339</ele>
        <time>2020-09-20T07:54:16.000Z</time>
      </trkpt>
      <trkpt lat="43.61827" lon="3.77866">
        <ele>94.017598024081</ele>
        <time>2020-09-20T07:54:17.000Z</time>
      </trkpt>
      <trkpt lat="43.61824" lon="3.77865">
        <ele>94.121117761403</ele>
        <time>2020-09-20T07:54:18.000Z</time>
      </trkpt>
      <trkpt lat="43.61822" lon="3.77865">
        <ele>94.224637498725</ele>
        <time>2020-09-20T07:54:19.000Z</time>
      </trkpt>
      <trkpt lat="43.6182" lon="3.77864">
        <ele>94.328157236046</ele>
        <time>2020-09-20T07:54:20.000Z</time>
      </trkpt>
      <trkpt lat="43.61818" lon="3.77864">
        <ele>94.431676973368</ele>
        <time>2020-09-20T07:54:21.000Z</time>
      </trkpt>
      <trkpt lat="43.61816" lon="3.77863">
        <ele>94.535196710689</ele>
        <time>2020-09-20T07:54:22.000Z</time>
      </trkpt>
      <trkpt lat="43.61814" lon="3.77862">
        <ele>94.638716448011</ele>
        <time>2020-09-20T07:54:23.000Z</time>
      </trkpt>
      <trkpt lat="43.61811" lon="3.77862">
        <ele>94.742236185333</ele>
        <time>2020-09-20T07:54:24.000Z</time>
      </trkpt>
      <trkpt lat="43.61809" lon="3.77862">
        <ele>94.845755922654</ele>
        <time>2020-09-20T07:54:25.000Z</time>
      </trkpt>
      <trkpt lat="43.61807" lon="3.77862">
        <ele>94.949275659976</ele>
        <time>2020-09-20T07:54:26.000Z</time>
      </trkpt>
      <trkpt lat="43.61804" lon="3.77862">
        <ele>95.050898490444</ele>
        <time>2020-09-20T07:54:27.000Z</time>
      </trkpt>
      <trkpt lat="43.61802" lon="3.77863">
        <ele>95.150698825901</ele>
        <time>2020-09-20T07:54:28.000Z</time>
      </trkpt>
      <trkpt lat="43.61799" lon="3.77864">
        <ele>95.250499161358</ele>
        <time>2020-09-20T07:54:29.000Z</time>
      </trkpt>
      <trkpt lat="43.61797" lon="3.77863">
        <ele>95.350299496815</ele>
        <time>2020-09-20T07:54:30.000Z</time>
      </trkpt>
      <trkpt lat="43.61796" lon="3.7786">
        <ele>95.450099832272</ele>
        <time>2020-09-20T07:54:31.000Z</time>
      </trkpt>
      <trkpt lat="43.61794" lon="3.77858">
        <ele>95.549900167728</ele>
        <time>2020-09-20T07:54:32.000Z</time>
      </trkpt>
      <trkpt lat="43.61793" lon="3.77855">
        <ele>95.649700503185</ele>
        <time>2020-09-20T07:54:33.000Z</time>
      </trkpt>
      <trkpt lat="43.61793" lon="3.77852">
        <ele>95.749500838642</ele>
        <time>2020-09-20T07:54:34.000Z</time>
      </trkpt>
      <trkpt lat="43.61792" lon="3.77849">
        <ele>95.849301174099</ele>
        <time>2020-09-20T07:54:35.000Z</time>
      </trkpt>
      <trkpt lat="43.61791" lon="3.77846">
        <ele>95.949101509556</ele>
        <time>2020-09-20T07:54:36.000Z</time>
      </trkpt>
      <trkpt lat="43.61791" lon="3.77843">
        <ele>96.097901489839</ele>
        <time>2020-09-20T07:54:37.000Z</time>
      </trkpt>
      <trkpt lat="43.61791" lon="3.7784">
        <ele>96.297701753511</ele>
        <time>2020-09-20T07:54:38.000Z</time>
      </trkpt>
      <trkpt lat="43.61791" lon="3.77837">
        <ele>96.497502017184</ele>
        <time>2020-09-20T07:54:39.000Z</time>
      </trkpt>
      <trkpt lat="43.61791" lon="3.77834">
        <ele>96.697302280856</ele>
        <time>2020-09-20T07:54:40.000Z</time>
      </trkpt>
      <trkpt lat="43.61792" lon="3.77831">
        <ele>96.897102544528</ele>
        <time>2020-09-20T07:54:41.000Z</time>
      </trkpt>
      <trkpt lat="43.61793" lon="3.77828">
        <ele>97.096902808201</ele>
        <time>2020-09-20T07:54:42.000Z</time>
      </trkpt>
      <trkpt lat="43.61793" lon="3.77824">
        <ele>97.296703071873</ele>
        <time>2020-09-20T07:54:43.000Z</time>
      </trkpt>
      <trkpt lat="43.61794" lon="3.77821">
        <ele>97.496503335545</ele>
        <time>2020-09-20T07:54:44.000Z</time>
      </trkpt>
      <trkpt lat="43.61795" lon="3.77818">
        <ele>97.696303599218</ele>
        <time>2020-09-20T07:54:45.000Z</time>
      </trkpt>
      <trkpt lat="43.61796" lon="3.77814">
        <ele>97.89610386289</ele>
        <time>2020-09-20T07:54:46.000Z</time>
      </trkpt>
      <trkpt lat="43.61797" lon="3.77811">
        <ele>98.048</ele>
        <time>2020-09-20T07:54:47.000Z</time>
      </trkpt>
      <trkpt lat="43.61797" lon="3.77808">
        <ele>98.148</ele>
        <time>2020-09-20T07:54:48.000Z</time>
      </trkpt>
      <trkpt lat="43.61798" lon="3.77804">
        <ele>98.248</ele>
        <time>2020-09-20T07:54:49.000Z</time>
      </trkpt>
      <trkpt lat="43.61799" lon="3.77801">
        <ele>98.348</ele>
        <time>2020-09-20T07:54:50.000Z</time>
      </trkpt>
      <trkpt lat="43.618" lon="3.77797">
        <ele>98.448</ele>
        <time>2020-09-20T07:54:51.000Z</time>
      </trkpt>
      <trkpt lat="43.61801" lon="3.77794">
        <ele>98.548</ele>
        <time>2020-09-20T07:54:52.000Z</time>
      </trkpt>
      <trkpt lat="43.61801" lon="3.7779">
        <ele>98.648</ele>
        <time>2020-09-20T07:54:53.000Z</time>
      </trkpt>
      <trkpt lat="43.61802" lon="3.77787">
        <ele>98.748</ele>
        <time>2020-09-20T07:54:54.000Z</time>
      </trkpt>
      <trkpt lat="43.61803" lon="3.77783">
        <ele>98.848</ele>
        <time>2020-09-20T07:54:55.000Z</time>
      </trkpt>
      <trkpt lat="43.61804" lon="3.7778">
        <ele>98.948</ele>
        <time>2020-09-20T07:54:56.000Z</time>
      </trkpt>
      <trkpt lat="43.61805" lon="3.77776">
        <ele>99.048096223228</ele>
        <time>2020-09-20T07:54:57.000Z</time>
      </trkpt>
      <trkpt lat="43.61806" lon="3.77772">
        <ele>99.148296688286</ele>
        <time>2020-09-20T07:54:58.000Z</time>
      </trkpt>
      <trkpt lat="43.61806" lon="3.77769">
        <ele>99.248497153345</ele>
        <time>2020-09-20T07:54:59.000Z</time>
      </trkpt>
      <trkpt lat="43.61807" lon="3.77765">
        <ele>99.348697618403</ele>
        <time>2020-09-20T07:55:00.000Z</time>
      </trkpt>
      <trkpt lat="43.61808" lon="3.77762">
        <ele>99.448898083462</ele>
        <time>2020-09-20T07:55:01.000Z</time>
      </trkpt>
      <trkpt lat="43.61809" lon="3.77758">
        <ele>99.54909854852</ele>
        <time>2020-09-20T07:55:02.000Z</time>
      </trkpt>
      <trkpt lat="43.6181" lon="3.77754">
        <ele>99.649299013578</ele>
        <time>2020-09-20T07:55:03.000Z</time>
      </trkpt>
      <trkpt lat="43.61811" lon="3.77751">
        <ele>99.749499478637</ele>
        <time>2020-09-20T07:55:04.000Z</time>
      </trkpt>
      <trkpt lat="43.61812" lon="3.77747">
        <ele>99.849699943695</ele>
        <time>2020-09-20T07:55:05.000Z</time>
      </trkpt>
      <trkpt lat="43.61813" lon="3.77743">
        <ele>99.949900408754</ele>
        <time>2020-09-20T07:55:06.000Z</time>
      </trkpt>
      <trkpt lat="43.61813" lon="3.7774">
        <ele>100.05005067466</ele>
        <time>2020-09-20T07:55:07.000Z</time>
      </trkpt>
      <trkpt lat="43.61814" lon="3.77736">
        <ele>100.15015074269</ele>
        <time>2020-09-20T07:55:08.000Z</time>
      </trkpt>
      <trkpt lat="43.61815" lon="3.77732">
        <ele>100.25025081073</ele>
        <time>2020-09-20T07:55:09.000Z</time>
      </trkpt>
      <trkpt lat="43.61816" lon="3.77729">
        <ele>100.35035087877</ele>
        <time>2020-09-20T07:55:10.000Z</time>
      </trkpt>
      <trkpt lat="43.61817" lon="3.77725">
        <ele>100.4504509468</ele>
        <time>2020-09-20T07:55:11.000Z</time>
      </trkpt>
      <trkpt lat="43.61818" lon="3.77722">
        <ele>100.55055101484</ele>
        <time>2020-09-20T07:55:12.000Z</time>
      </trkpt>
      <trkpt lat="43.6182" lon="3.77719">
        <ele>100.65065108288</ele>
        <time>2020-09-20T07:55:13.000Z</time>
      </trkpt>
      <trkpt lat="43.61821" lon="3.77716">
        <ele>100.75075115091</ele>
        <time>2020-09-20T07:55:14.000Z</time>
      </trkpt>
      <trkpt lat="43.61822" lon="3.77713">
        <ele>100.85085121895</ele>
        <time>2020-09-20T07:55:15.000Z</time>
      </trkpt>
      <trkpt lat="43.61823" lon="3.77709">
        <ele>100.95095128698</ele>
        <time>2020-09-20T07:55:16.000Z</time>
      </trkpt>
      <trkpt lat="43.61824" lon="3.77706">
        <ele>101</ele>
        <time>2020-09-20T07:55:17.000Z</time>
      </trkpt>
      <trkpt lat="43.61825" lon="3.77702">
        <ele>101</ele>
        <time>2020-09-20T07:55:18.000Z</time>
      </trkpt>
      <trkpt lat="43.61825" lon="3.77699">
        <ele>101</ele>
        <time>2020-09-20T07:55:19.000Z</time>
      </trkpt>
      <trkpt lat="43.61826" lon="3.77695">
        <ele>101</ele>
        <time>2020-09-20T07:55:20.000Z</time>
      </trkpt>
      <trkpt lat="43.61827" lon="3.77692">
        <ele>101</ele>
        <time>2020-09-20T07:55:21.000Z</time>
      </trkpt>
      <trkpt lat="43.61828" lon="3.77688">
        <ele>101</ele>
        <time>2020-09-20T07:55:22.000Z</time>
      </trkpt>
      <trkpt lat="43.61828" lon="3.77684">
        <ele>101</ele>
        <time>2020-09-20T07:55:23.000Z</time>
      </trkpt>
      <trkpt lat="43.61829" lon="3.7768">
        <ele>101</ele>
        <time>2020-09-20T07:55:24.000Z</time>
      </trkpt>
      <trkpt lat="43.61829" lon="3.77675">
        <ele>101</ele>
        <time>2020-09-20T07:55:25.000Z</time>
      </trkpt>
      <trkpt lat="43.6183" lon="3.77671">
        <ele>101</ele>
        <time>2020-09-20T07:55:26.000Z</time>
      </trkpt>
      <trkpt lat="43.6183" lon="3.77668">
        <ele>101.05100032</ele>
        <time>2020-09-20T07:55:27.000Z</time>
      </trkpt>
      <trkpt lat="43.61831" lon="3.77664">
        <ele>101.15100032</ele>
        <time>2020-09-20T07:55:28.000Z</time>
      </trkpt>
      <trkpt lat="43.61832" lon="3.77661">
        <ele>101.25100032</ele>
        <time>2020-09-20T07:55:29.000Z</time>
      </trkpt>
      <trkpt lat="43.61834" lon="3.77658">
        <ele>101.35100032</ele>
        <time>2020-09-20T07:55:30.000Z</time>
      </trkpt>
      <trkpt lat="43.61835" lon="3.77654">
        <ele>101.45100032</ele>
        <time>2020-09-20T07:55:31.000Z</time>
      </trkpt>
      <trkpt lat="43.61837" lon="3.7765">
        <ele>101.55100032</ele>
        <time>2020-09-20T07:55:32.000Z</time>
      </trkpt>
      <trkpt lat="43.61838" lon="3.77647">
        <ele>101.65100032</ele>
        <time>2020-09-20T07:55:33.000Z</time>
      </trkpt>
      <trkpt lat="43.6184" lon="3.77643">
        <ele>101.75100032</ele>
        <time>2020-09-20T07:55:34.000Z</time>
      </trkpt>
      <trkpt lat="43.61841" lon="3.7764">
        <ele>101.85100032</ele>
        <time>2020-09-20T07:55:35.000Z</time>
      </trkpt>
      <trkpt lat="43.61842" lon="3.77637">
        <ele>101.95100032</ele>
        <time>2020-09-20T07:55:36.000Z</time>
      </trkpt>
      <trkpt lat="43.61843" lon="3.77634">
        <ele>102.05100032</ele>
        <time>2020-09-20T07:55:37.000Z</time>
      </trkpt>
      <trkpt lat="43.61845" lon="3.77631">
        <ele>102.15100032</ele>
        <time>2020-09-20T07:55:38.000Z</time>
      </trkpt>
      <trkpt lat="43.61846" lon="3.77627">
        <ele>102.25100032</ele>
        <time>2020-09-20T07:55:39.000Z</time>
      </trkpt>
      <trkpt lat="43.61847" lon="3.77624">
        <ele>102.35100032</ele>
        <time>2020-09-20T07:55:40.000Z</time>
      </trkpt>
      <trkpt lat="43.61848" lon="3.7762">
        <ele>102.45100032</ele>
        <time>2020-09-20T07:55:41.000Z</time>
      </trkpt>
      <trkpt lat="43.61849" lon="3.77616">
        <ele>102.55100032</ele>
        <time>2020-09-20T07:55:42.000Z</time>
      </trkpt>
      <trkpt lat="43.61849" lon="3.77612">
        <ele>102.65100032</ele>
        <time>2020-09-20T07:55:43.000Z</time>
      </trkpt>
      <trkpt lat="43.6185" lon="3.77609">
        <ele>102.75100032</ele>
        <time>2020-09-20T07:55:44.000Z</time>
      </trkpt>
      <trkpt lat="43.61851" lon="3.77605">
        <ele>102.85100032</ele>
        <time>2020-09-20T07:55:45.000Z</time>
      </trkpt>
      <trkpt lat="43.61852" lon="3.77601">
        <ele>102.95100032</ele>
        <time>2020-09-20T07:55:46.000Z</time>
      </trkpt>
      <trkpt lat="43.61853" lon="3.77597">
        <ele>103.05100032</ele>
        <time>2020-09-20T07:55:47.000Z</time>
      </trkpt>
      <trkpt lat="43.61854" lon="3.77593">
        <ele>103.15100032</ele>
        <time>2020-09-20T07:55:48.000Z</time>
      </trkpt>
      <trkpt lat="43.61855" lon="3.77589">
        <ele>103.25100032</ele>
        <time>2020-09-20T07:55:49.000Z</time>
      </trkpt>
      <trkpt lat="43.61856" lon="3.77586">
        <ele>103.35100032</ele>
        <time>2020-09-20T07:55:50.000Z</time>
      </trkpt>
      <trkpt lat="43.61858" lon="3.77582">
        <ele>103.45100032</ele>
        <time>2020-09-20T07:55:51.000Z</time>
      </trkpt>
      <trkpt lat="43.61859" lon="3.77579">
        <ele>103.55100032</ele>
        <time>2020-09-20T07:55:52.000Z</time>
      </trkpt>
      <trkpt lat="43.6186" lon="3.77575">
        <ele>103.65100032</ele>
        <time>2020-09-20T07:55:53.000Z</time>
      </trkpt>
      <trkpt lat="43.61861" lon="3.77572">
        <ele>103.75100032</ele>
        <time>2020-09-20T07:55:54.000Z</time>
      </trkpt>
      <trkpt lat="43.61862" lon="3.77568">
        <ele>103.85100032</ele>
        <time>2020-09-20T07:55:55.000Z</time>
      </trkpt>
      <trkpt lat="43.61863" lon="3.77565">
        <ele>103.95100032</ele>
        <time>2020-09-20T07:55:56.000Z</time>
      </trkpt>
      <trkpt lat="43.61864" lon="3.77561">
        <ele>104.04956294696</ele>
        <time>2020-09-20T07:55:57.000Z</time>
      </trkpt>
      <trkpt lat="43.61865" lon="3.77557">
        <ele>104.14674458613</ele>
        <time>2020-09-20T07:55:58.000Z</time>
      </trkpt>
      <trkpt lat="43.61866" lon="3.77554">
        <ele>104.2439262253</ele>
        <time>2020-09-20T07:55:59.000Z</time>
      </trkpt>
      <trkpt lat="43.61867" lon="3.7755">
        <ele>104.34110786447</ele>
        <time>2020-09-20T07:56:00.000Z</time>
      </trkpt>
      <trkpt lat="43.61868" lon="3.77547">
        <ele>104.43828950364</ele>
        <time>2020-09-20T07:56:01.000Z</time>
      </trkpt>
      <trkpt lat="43.61869" lon="3.77543">
        <ele>104.53547114281</ele>
        <time>2020-09-20T07:56:02.000Z</time>
      </trkpt>
      <trkpt lat="43.6187" lon="3.77539">
        <ele>104.63265278198</ele>
        <time>2020-09-20T07:56:03.000Z</time>
      </trkpt>
      <trkpt lat="43.61871" lon="3.77536">
        <ele>104.72983442115</ele>
        <time>2020-09-20T07:56:04.000Z</time>
      </trkpt>
      <trkpt lat="43.61872" lon="3.77532">
        <ele>104.82701606032</ele>
        <time>2020-09-20T07:56:05.000Z</time>
      </trkpt>
      <trkpt lat="43.61873" lon="3.77529">
        <ele>104.92419769949</ele>
        <time>2020-09-20T07:56:06.000Z</time>
      </trkpt>
      <trkpt lat="43.61875" lon="3.77525">
        <ele>105</ele>
        <time>2020-09-20T07:56:07.000Z</time>
      </trkpt>
      <trkpt lat="43.61876" lon="3.77522">
        <ele>105</ele>
        <time>2020-09-20T07:56:08.000Z</time>
      </trkpt>
      <trkpt lat="43.61877" lon="3.77518">
        <ele>105</ele>
        <time>2020-09-20T07:56:09.000Z</time>
      </trkpt>
      <trkpt lat="43.61878" lon="3.77515">
        <ele>105</ele>
        <time>2020-09-20T07:56:10.000Z</time>
      </trkpt>
      <trkpt lat="43.61879" lon="3.77511">
        <ele>105</ele>
        <time>2020-09-20T07:56:11.000Z</time>
      </trkpt>
      <trkpt lat="43.6188" lon="3.77508">
        <ele>105</ele>
        <time>2020-09-20T07:56:12.000Z</time>
      </trkpt>
      <trkpt lat="43.61881" lon="3.77505">
        <ele>105</ele>
        <time>2020-09-20T07:56:13.000Z</time>
      </trkpt>
      <trkpt lat="43.61882" lon="3.77501">
        <ele>105</ele>
        <time>2020-09-20T07:56:14.000Z</time>
      </trkpt>
      <trkpt lat="43.61883" lon="3.77498">
        <ele>105</ele>
        <time>2020-09-20T07:56:15.000Z</time>
      </trkpt>
      <trkpt lat="43.61884" lon="3.77494">
        <ele>105</ele>
        <time>2020-09-20T07:56:16.000Z</time>
      </trkpt>
      <trkpt lat="43.61885" lon="3.77491">
        <ele>105.04814444875</ele>
        <time>2020-09-20T07:56:17.000Z</time>
      </trkpt>
      <trkpt lat="43.61886" lon="3.77487">
        <ele>105.14844538365</ele>
        <time>2020-09-20T07:56:18.000Z</time>
      </trkpt>
      <trkpt lat="43.61887" lon="3.77484">
        <ele>105.24874631855</ele>
        <time>2020-09-20T07:56:19.000Z</time>
      </trkpt>
      <trkpt lat="43.61888" lon="3.7748">
        <ele>105.34904725345</ele>
        <time>2020-09-20T07:56:20.000Z</time>
      </trkpt>
      <trkpt lat="43.61889" lon="3.77476">
        <ele>105.44934818836</ele>
        <time>2020-09-20T07:56:21.000Z</time>
      </trkpt>
      <trkpt lat="43.6189" lon="3.77473">
        <ele>105.54964912326</ele>
        <time>2020-09-20T07:56:22.000Z</time>
      </trkpt>
      <trkpt lat="43.61892" lon="3.77469">
        <ele>105.64995005816</ele>
        <time>2020-09-20T07:56:23.000Z</time>
      </trkpt>
      <trkpt lat="43.61893" lon="3.77465">
        <ele>105.75025099306</ele>
        <time>2020-09-20T07:56:24.000Z</time>
      </trkpt>
      <trkpt lat="43.61894" lon="3.77462">
        <ele>105.85055192796</ele>
        <time>2020-09-20T07:56:25.000Z</time>
      </trkpt>
      <trkpt lat="43.61895" lon="3.77459">
        <ele>105.95085286286</ele>
        <time>2020-09-20T07:56:26.000Z</time>
      </trkpt>
      <trkpt lat="43.61896" lon="3.77455">
        <ele>106</ele>
        <time>2020-09-20T07:56:27.000Z</time>
      </trkpt>
      <trkpt lat="43.61897" lon="3.77452">
        <ele>106</ele>
        <time>2020-09-20T07:56:28.000Z</time>
      </trkpt>
      <trkpt lat="43.61898" lon="3.77448">
        <ele>106</ele>
        <time>2020-09-20T07:56:29.000Z</time>
      </trkpt>
      <trkpt lat="43.619" lon="3.77445">
        <ele>106</ele>
        <time>2020-09-20T07:56:30.000Z</time>
      </trkpt>
      <trkpt lat="43.61901" lon="3.77443">
        <ele>106</ele>
        <time>2020-09-20T07:56:31.000Z</time>
      </trkpt>
      <trkpt lat="43.61901" lon="3.77439">
        <ele>106</ele>
        <time>2020-09-20T07:56:33.000Z</time>
      </trkpt>
      <trkpt lat="43.61902" lon="3.77435">
        <ele>106</ele>
        <time>2020-09-20T07:56:35.000Z</time>
      </trkpt>
      <trkpt lat="43.61904" lon="3.77433">
        <ele>106</ele>
        <time>2020-09-20T07:56:36.000Z</time>
      </trkpt>
      <trkpt lat="43.61905" lon="3.7743">
        <ele>106.01861492662</ele>
        <time>2020-09-20T07:56:37.000Z</time>
      </trkpt>
      <trkpt lat="43.61907" lon="3.77426">
        <ele>106.12202750874</ele>
        <time>2020-09-20T07:56:38.000Z</time>
      </trkpt>
      <trkpt lat="43.61908" lon="3.77423">
        <ele>106.22544009086</ele>
        <time>2020-09-20T07:56:39.000Z</time>
      </trkpt>
      <trkpt lat="43.61909" lon="3.77419">
        <ele>106.32885267298</ele>
        <time>2020-09-20T07:56:40.000Z</time>
      </trkpt>
      <trkpt lat="43.6191" lon="3.77415">
        <ele>106.43226525509</ele>
        <time>2020-09-20T07:56:41.000Z</time>
      </trkpt>
      <trkpt lat="43.61912" lon="3.77411">
        <ele>106.53567783721</ele>
        <time>2020-09-20T07:56:42.000Z</time>
      </trkpt>
      <trkpt lat="43.61913" lon="3.77407">
        <ele>106.63909041933</ele>
        <time>2020-09-20T07:56:43.000Z</time>
      </trkpt>
      <trkpt lat="43.61914" lon="3.77403">
        <ele>106.74250300145</ele>
        <time>2020-09-20T07:56:44.000Z</time>
      </trkpt>
      <trkpt lat="43.61916" lon="3.77399">
        <ele>106.84591558357</ele>
        <time>2020-09-20T07:56:45.000Z</time>
      </trkpt>
      <trkpt lat="43.61917" lon="3.77395">
        <ele>106.94932816568</ele>
        <time>2020-09-20T07:56:46.000Z</time>
      </trkpt>
      <trkpt lat="43.61919" lon="3.77391">
        <ele>107</ele>
        <time>2020-09-20T07:56:47.000Z</time>
      </trkpt>
      <trkpt lat="43.61921" lon="3.77388">
        <ele>107</ele>
        <time>2020-09-20T07:56:48.000Z</time>
      </trkpt>
      <trkpt lat="43.61922" lon="3.77384">
        <ele>107</ele>
        <time>2020-09-20T07:56:49.000Z</time>
      </trkpt>
      <trkpt lat="43.61924" lon="3.7738">
        <ele>107</ele>
        <time>2020-09-20T07:56:50.000Z</time>
      </trkpt>
      <trkpt lat="43.61925" lon="3.77377">
        <ele>107</ele>
        <time>2020-09-20T07:56:51.000Z</time>
      </trkpt>
      <trkpt lat="43.61927" lon="3.77373">
        <ele>107</ele>
        <time>2020-09-20T07:56:52.000Z</time>
      </trkpt>
      <trkpt lat="43.61929" lon="3.77369">
        <ele>107</ele>
        <time>2020-09-20T07:56:53.000Z</time>
      </trkpt>
      <trkpt lat="43.6193" lon="3.77365">
        <ele>107</ele>
        <time>2020-09-20T07:56:54.000Z</time>
      </trkpt>
      <trkpt lat="43.61932" lon="3.77362">
        <ele>107</ele>
        <time>2020-09-20T07:56:55.000Z</time>
      </trkpt>
      <trkpt lat="43.61933" lon="3.77358">
        <ele>107</ele>
        <time>2020-09-20T07:56:56.000Z</time>
      </trkpt>
      <trkpt lat="43.61935" lon="3.77354">
        <ele>107</ele>
        <time>2020-09-20T07:56:57.000Z</time>
      </trkpt>
      <trkpt lat="43.61937" lon="3.7735">
        <ele>107</ele>
        <time>2020-09-20T07:56:58.000Z</time>
      </trkpt>
      <trkpt lat="43.61938" lon="3.77346">
        <ele>107</ele>
        <time>2020-09-20T07:56:59.000Z</time>
      </trkpt>
      <trkpt lat="43.6194" lon="3.77342">
        <ele>107</ele>
        <time>2020-09-20T07:57:00.000Z</time>
      </trkpt>
      <trkpt lat="43.61942" lon="3.77337">
        <ele>107</ele>
        <time>2020-09-20T07:57:01.000Z</time>
      </trkpt>
      <trkpt lat="43.61944" lon="3.77333">
        <ele>107</ele>
        <time>2020-09-20T07:57:02.000Z</time>
      </trkpt>
      <trkpt lat="43.61945" lon="3.77329">
        <ele>107</ele>
        <time>2020-09-20T07:57:03.000Z</time>
      </trkpt>
      <trkpt lat="43.61946" lon="3.77325">
        <ele>107</ele>
        <time>2020-09-20T07:57:04.000Z</time>
      </trkpt>
      <trkpt lat="43.61948" lon="3.7732">
        <ele>107</ele>
        <time>2020-09-20T07:57:05.000Z</time>
      </trkpt>
      <trkpt lat="43.6195" lon="3.77316">
        <ele>107</ele>
        <time>2020-09-20T07:57:06.000Z</time>
      </trkpt>
      <trkpt lat="43.61952" lon="3.77312">
        <ele>107.05100032</ele>
        <time>2020-09-20T07:57:07.000Z</time>
      </trkpt>
      <trkpt lat="43.61953" lon="3.77308">
        <ele>107.15100032</ele>
        <time>2020-09-20T07:57:08.000Z</time>
      </trkpt>
      <trkpt lat="43.61955" lon="3.77304">
        <ele>107.25100032</ele>
        <time>2020-09-20T07:57:09.000Z</time>
      </trkpt>
      <trkpt lat="43.61957" lon="3.77299">
        <ele>107.35100032</ele>
        <time>2020-09-20T07:57:10.000Z</time>
      </trkpt>
      <trkpt lat="43.61958" lon="3.77295">
        <ele>107.45100032</ele>
        <time>2020-09-20T07:57:11.000Z</time>
      </trkpt>
      <trkpt lat="43.6196" lon="3.77291">
        <ele>107.55100032</ele>
        <time>2020-09-20T07:57:12.000Z</time>
      </trkpt>
      <trkpt lat="43.61961" lon="3.77287">
        <ele>107.65100032</ele>
        <time>2020-09-20T07:57:13.000Z</time>
      </trkpt>
      <trkpt lat="43.61963" lon="3.77283">
        <ele>107.75100032</ele>
        <time>2020-09-20T07:57:14.000Z</time>
      </trkpt>
      <trkpt lat="43.61965" lon="3.77279">
        <ele>107.85100032</ele>
        <time>2020-09-20T07:57:15.000Z</time>
      </trkpt>
      <trkpt lat="43.61967" lon="3.77275">
        <ele>107.95100032</ele>
        <time>2020-09-20T07:57:16.000Z</time>
      </trkpt>
      <trkpt lat="43.61968" lon="3.77271">
        <ele>108.04956294696</ele>
        <time>2020-09-20T07:57:17.000Z</time>
      </trkpt>
      <trkpt lat="43.6197" lon="3.77266">
        <ele>108.14674458613</ele>
        <time>2020-09-20T07:57:18.000Z</time>
      </trkpt>
      <trkpt lat="43.61972" lon="3.77262">
        <ele>108.2439262253</ele>
        <time>2020-09-20T07:57:19.000Z</time>
      </trkpt>
      <trkpt lat="43.61974" lon="3.77258">
        <ele>108.34110786447</ele>
        <time>2020-09-20T07:57:20.000Z</time>
      </trkpt>
      <trkpt lat="43.61975" lon="3.77254">
        <ele>108.43828950364</ele>
        <time>2020-09-20T07:57:21.000Z</time>
      </trkpt>
      <trkpt lat="43.61977" lon="3.7725">
        <ele>108.53547114281</ele>
        <time>2020-09-20T07:57:22.000Z</time>
      </trkpt>
      <trkpt lat="43.61978" lon="3.77246">
        <ele>108.63265278198</ele>
        <time>2020-09-20T07:57:23.000Z</time>
      </trkpt>
      <trkpt lat="43.6198" lon="3.77242">
        <ele>108.72983442115</ele>
        <time>2020-09-20T07:57:24.000Z</time>
      </trkpt>
      <trkpt lat="43.61982" lon="3.77238">
        <ele>108.82701606032</ele>
        <time>2020-09-20T07:57:25.000Z</time>
      </trkpt>
      <trkpt lat="43.61983" lon="3.77234">
        <ele>108.92419769949</ele>
        <time>2020-09-20T07:57:26.000Z</time>
      </trkpt>
      <trkpt lat="43.61985" lon="3.77231">
        <ele>109</ele>
        <time>2020-09-20T07:57:27.000Z</time>
      </trkpt>
      <trkpt lat="43.61986" lon="3.77226">
        <ele>109</ele>
        <time>2020-09-20T07:57:28.000Z</time>
      </trkpt>
      <trkpt lat="43.61988" lon="3.77223">
        <ele>109</ele>
        <time>2020-09-20T07:57:29.000Z</time>
      </trkpt>
      <trkpt lat="43.61989" lon="3.77218">
        <ele>109</ele>
        <time>2020-09-20T07:57:30.000Z</time>
      </trkpt>
      <trkpt lat="43.6199" lon="3.77214">
        <ele>109</ele>
        <time>2020-09-20T07:57:31.000Z</time>
      </trkpt>
      <trkpt lat="43.61992" lon="3.77211">
        <ele>109</ele>
        <time>2020-09-20T07:57:32.000Z</time>
      </trkpt>
      <trkpt lat="43.61993" lon="3.77207">
        <ele>109</ele>
        <time>2020-09-20T07:57:33.000Z</time>
      </trkpt>
      <trkpt lat="43.61995" lon="3.77203">
        <ele>109</ele>
        <time>2020-09-20T07:57:34.000Z</time>
      </trkpt>
      <trkpt lat="43.61996" lon="3.772">
        <ele>109</ele>
        <time>2020-09-20T07:57:35.000Z</time>
      </trkpt>
      <trkpt lat="43.61998" lon="3.77196">
        <ele>109</ele>
        <time>2020-09-20T07:57:36.000Z</time>
      </trkpt>
      <trkpt lat="43.61999" lon="3.77193">
        <ele>109.04956294696</ele>
        <time>2020-09-20T07:57:37.000Z</time>
      </trkpt>
      <trkpt lat="43.62001" lon="3.77189">
        <ele>109.14674458613</ele>
        <time>2020-09-20T07:57:38.000Z</time>
      </trkpt>
      <trkpt lat="43.62003" lon="3.77185">
        <ele>109.2439262253</ele>
        <time>2020-09-20T07:57:39.000Z</time>
      </trkpt>
      <trkpt lat="43.62004" lon="3.77181">
        <ele>109.34110786447</ele>
        <time>2020-09-20T07:57:40.000Z</time>
      </trkpt>
      <trkpt lat="43.62006" lon="3.77178">
        <ele>109.43828950364</ele>
        <time>2020-09-20T07:57:41.000Z</time>
      </trkpt>
      <trkpt lat="43.62008" lon="3.77173">
        <ele>109.53547114281</ele>
        <time>2020-09-20T07:57:42.000Z</time>
      </trkpt>
      <trkpt lat="43.62009" lon="3.77169">
        <ele>109.63265278198</ele>
        <time>2020-09-20T07:57:43.000Z</time>
      </trkpt>
      <trkpt lat="43.62011" lon="3.77165">
        <ele>109.72983442115</ele>
        <time>2020-09-20T07:57:44.000Z</time>
      </trkpt>
      <trkpt lat="43.62013" lon="3.77161">
        <ele>109.82701606032</ele>
        <time>2020-09-20T07:57:45.000Z</time>
      </trkpt>
      <trkpt lat="43.62015" lon="3.77157">
        <ele>109.92419769949</ele>
        <time>2020-09-20T07:57:46.000Z</time>
      </trkpt>
      <trkpt lat="43.62017" lon="3.77153">
        <ele>110</ele>
        <time>2020-09-20T07:57:47.000Z</time>
      </trkpt>
      <trkpt lat="43.62019" lon="3.77149">
        <ele>110</ele>
        <time>2020-09-20T07:57:48.000Z</time>
      </trkpt>
      <trkpt lat="43.6202" lon="3.77145">
        <ele>110</ele>
        <time>2020-09-20T07:57:49.000Z</time>
      </trkpt>
      <trkpt lat="43.62022" lon="3.77141">
        <ele>110</ele>
        <time>2020-09-20T07:57:50.000Z</time>
      </trkpt>
      <trkpt lat="43.62024" lon="3.77136">
        <ele>110</ele>
        <time>2020-09-20T07:57:51.000Z</time>
      </trkpt>
      <trkpt lat="43.62025" lon="3.77132">
        <ele>110</ele>
        <time>2020-09-20T07:57:52.000Z</time>
      </trkpt>
      <trkpt lat="43.62027" lon="3.77128">
        <ele>110</ele>
        <time>2020-09-20T07:57:53.000Z</time>
      </trkpt>
      <trkpt lat="43.62029" lon="3.77124">
        <ele>110</ele>
        <time>2020-09-20T07:57:54.000Z</time>
      </trkpt>
      <trkpt lat="43.62031" lon="3.7712">
        <ele>110</ele>
        <time>2020-09-20T07:57:55.000Z</time>
      </trkpt>
      <trkpt lat="43.62032" lon="3.77116">
        <ele>110</ele>
        <time>2020-09-20T07:57:56.000Z</time>
      </trkpt>
      <trkpt lat="43.62034" lon="3.77112">
        <ele>110.05009851467</ele>
        <time>2020-09-20T07:57:57.000Z</time>
      </trkpt>
      <trkpt lat="43.62036" lon="3.77108">
        <ele>110.14833028003</ele>
        <time>2020-09-20T07:57:58.000Z</time>
      </trkpt>
      <trkpt lat="43.62038" lon="3.77104">
        <ele>110.24656204538</ele>
        <time>2020-09-20T07:57:59.000Z</time>
      </trkpt>
      <trkpt lat="43.62039" lon="3.771">
        <ele>110.34479381074</ele>
        <time>2020-09-20T07:58:00.000Z</time>
      </trkpt>
      <trkpt lat="43.62041" lon="3.77096">
        <ele>110.44302557609</ele>
        <time>2020-09-20T07:58:01.000Z</time>
      </trkpt>
      <trkpt lat="43.62042" lon="3.77092">
        <ele>110.54125734145</ele>
        <time>2020-09-20T07:58:02.000Z</time>
      </trkpt>
      <trkpt lat="43.62044" lon="3.77088">
        <ele>110.6394891068</ele>
        <time>2020-09-20T07:58:03.000Z</time>
      </trkpt>
      <trkpt lat="43.62046" lon="3.77084">
        <ele>110.73772087216</ele>
        <time>2020-09-20T07:58:04.000Z</time>
      </trkpt>
      <trkpt lat="43.62048" lon="3.7708">
        <ele>110.83595263752</ele>
        <time>2020-09-20T07:58:05.000Z</time>
      </trkpt>
      <trkpt lat="43.62049" lon="3.77076">
        <ele>110.93418440287</ele>
        <time>2020-09-20T07:58:06.000Z</time>
      </trkpt>
      <trkpt lat="43.62051" lon="3.77073">
        <ele>111</ele>
        <time>2020-09-20T07:58:07.000Z</time>
      </trkpt>
      <trkpt lat="43.62052" lon="3.77069">
        <ele>111</ele>
        <time>2020-09-20T07:58:08.000Z</time>
      </trkpt>
      <trkpt lat="43.62054" lon="3.77065">
        <ele>111</ele>
        <time>2020-09-20T07:58:09.000Z</time>
      </trkpt>
      <trkpt lat="43.62055" lon="3.77061">
        <ele>111</ele>
        <time>2020-09-20T07:58:10.000Z</time>
      </trkpt>
      <trkpt lat="43.62057" lon="3.77057">
        <ele>111</ele>
        <time>2020-09-20T07:58:11.000Z</time>
      </trkpt>
      <trkpt lat="43.62059" lon="3.77053">
        <ele>111</ele>
        <time>2020-09-20T07:58:12.000Z</time>
      </trkpt>
      <trkpt lat="43.6206" lon="3.77049">
        <ele>111</ele>
        <time>2020-09-20T07:58:13.000Z</time>
      </trkpt>
      <trkpt lat="43.62062" lon="3.77045">
        <ele>111</ele>
        <time>2020-09-20T07:58:14.000Z</time>
      </trkpt>
      <trkpt lat="43.62063" lon="3.77041">
        <ele>111</ele>
        <time>2020-09-20T07:58:15.000Z</time>
      </trkpt>
      <trkpt lat="43.62065" lon="3.77037">
        <ele>111</ele>
        <time>2020-09-20T07:58:16.000Z</time>
      </trkpt>
      <trkpt lat="43.62067" lon="3.77033">
        <ele>111.05100032</ele>
        <time>2020-09-20T07:58:17.000Z</time>
      </trkpt>
      <trkpt lat="43.62068" lon="3.77029">
        <ele>111.15100032</ele>
        <time>2020-09-20T07:58:18.000Z</time>
      </trkpt>
      <trkpt lat="43.6207" lon="3.77025">
        <ele>111.25100032</ele>
        <time>2020-09-20T07:58:19.000Z</time>
      </trkpt>
      <trkpt lat="43.62072" lon="3.77021">
        <ele>111.35100032</ele>
        <time>2020-09-20T07:58:20.000Z</time>
      </trkpt>
      <trkpt lat="43.62074" lon="3.77017">
        <ele>111.45100032</ele>
        <time>2020-09-20T07:58:21.000Z</time>
      </trkpt>
      <trkpt lat="43.62075" lon="3.77014">
        <ele>111.55100032</ele>
        <time>2020-09-20T07:58:22.000Z</time>
      </trkpt>
      <trkpt lat="43.62077" lon="3.77009">
        <ele>111.65100032</ele>
        <time>2020-09-20T07:58:23.000Z</time>
      </trkpt>
      <trkpt lat="43.62079" lon="3.77005">
        <ele>111.75100032</ele>
        <time>2020-09-20T07:58:24.000Z</time>
      </trkpt>
      <trkpt lat="43.6208" lon="3.77001">
        <ele>111.85100032</ele>
        <time>2020-09-20T07:58:25.000Z</time>
      </trkpt>
      <trkpt lat="43.62082" lon="3.76997">
        <ele>111.95100032</ele>
        <time>2020-09-20T07:58:26.000Z</time>
      </trkpt>
      <trkpt lat="43.62083" lon="3.76993">
        <ele>112.05100032</ele>
        <time>2020-09-20T07:58:27.000Z</time>
      </trkpt>
      <trkpt lat="43.62085" lon="3.76989">
        <ele>112.15100032</ele>
        <time>2020-09-20T07:58:28.000Z</time>
      </trkpt>
      <trkpt lat="43.62087" lon="3.76986">
        <ele>112.25100032</ele>
        <time>2020-09-20T07:58:29.000Z</time>
      </trkpt>
      <trkpt lat="43.62088" lon="3.76982">
        <ele>112.35100032</ele>
        <time>2020-09-20T07:58:30.000Z</time>
      </trkpt>
      <trkpt lat="43.6209" lon="3.76978">
        <ele>112.45100032</ele>
        <time>2020-09-20T07:58:31.000Z</time>
      </trkpt>
      <trkpt lat="43.62092" lon="3.76974">
        <ele>112.55100032</ele>
        <time>2020-09-20T07:58:32.000Z</time>
      </trkpt>
      <trkpt lat="43.62093" lon="3.7697">
        <ele>112.65100032</ele>
        <time>2020-09-20T07:58:33.000Z</time>
      </trkpt>
      <trkpt lat="43.62095" lon="3.76966">
        <ele>112.75100032</ele>
        <time>2020-09-20T07:58:34.000Z</time>
      </trkpt>
      <trkpt lat="43.62097" lon="3.76963">
        <ele>112.85100032</ele>
        <time>2020-09-20T07:58:35.000Z</time>
      </trkpt>
      <trkpt lat="43.62098" lon="3.76959">
        <ele>112.95100032</ele>
        <time>2020-09-20T07:58:36.000Z</time>
      </trkpt>
      <trkpt lat="43.621" lon="3.76956">
        <ele>113.05084776045</ele>
        <time>2020-09-20T07:58:37.000Z</time>
      </trkpt>
      <trkpt lat="43.62101" lon="3.76952">
        <ele>113.15054862595</ele>
        <time>2020-09-20T07:58:38.000Z</time>
      </trkpt>
      <trkpt lat="43.62103" lon="3.76948">
        <ele>113.25024949145</ele>
        <time>2020-09-20T07:58:39.000Z</time>
      </trkpt>
      <trkpt lat="43.62104" lon="3.76944">
        <ele>113.34995035695</ele>
        <time>2020-09-20T07:58:40.000Z</time>
      </trkpt>
      <trkpt lat="43.62106" lon="3.7694">
        <ele>113.44965122244</ele>
        <time>2020-09-20T07:58:41.000Z</time>
      </trkpt>
      <trkpt lat="43.62107" lon="3.76937">
        <ele>113.54935208794</ele>
        <time>2020-09-20T07:58:42.000Z</time>
      </trkpt>
      <trkpt lat="43.62109" lon="3.76933">
        <ele>113.64905295344</ele>
        <time>2020-09-20T07:58:43.000Z</time>
      </trkpt>
      <trkpt lat="43.6211" lon="3.7693">
        <ele>113.74875381894</ele>
        <time>2020-09-20T07:58:44.000Z</time>
      </trkpt>
      <trkpt lat="43.62112" lon="3.76926">
        <ele>113.84845468444</ele>
        <time>2020-09-20T07:58:45.000Z</time>
      </trkpt>
      <trkpt lat="43.62113" lon="3.76922">
        <ele>113.94815554994</ele>
        <time>2020-09-20T07:58:46.000Z</time>
      </trkpt>
      <trkpt lat="43.62115" lon="3.76918">
        <ele>114</ele>
        <time>2020-09-20T07:58:47.000Z</time>
      </trkpt>
      <trkpt lat="43.62117" lon="3.76914">
        <ele>114</ele>
        <time>2020-09-20T07:58:48.000Z</time>
      </trkpt>
      <trkpt lat="43.62119" lon="3.7691">
        <ele>114</ele>
        <time>2020-09-20T07:58:49.000Z</time>
      </trkpt>
      <trkpt lat="43.6212" lon="3.76906">
        <ele>114</ele>
        <time>2020-09-20T07:58:50.000Z</time>
      </trkpt>
      <trkpt lat="43.62122" lon="3.76902">
        <ele>114</ele>
        <time>2020-09-20T07:58:51.000Z</time>
      </trkpt>
      <trkpt lat="43.62123" lon="3.76898">
        <ele>114</ele>
        <time>2020-09-20T07:58:52.000Z</time>
      </trkpt>
      <trkpt lat="43.62125" lon="3.76894">
        <ele>114</ele>
        <time>2020-09-20T07:58:53.000Z</time>
      </trkpt>
      <trkpt lat="43.62127" lon="3.7689">
        <ele>114</ele>
        <time>2020-09-20T07:58:54.000Z</time>
      </trkpt>
      <trkpt lat="43.62128" lon="3.76886">
        <ele>114</ele>
        <time>2020-09-20T07:58:55.000Z</time>
      </trkpt>
      <trkpt lat="43.62129" lon="3.76882">
        <ele>114</ele>
        <time>2020-09-20T07:58:56.000Z</time>
      </trkpt>
      <trkpt lat="43.6213" lon="3.76878">
        <ele>114.05039557312</ele>
        <time>2020-09-20T07:58:57.000Z</time>
      </trkpt>
      <trkpt lat="43.62131" lon="3.76875">
        <ele>114.14920980237</ele>
        <time>2020-09-20T07:58:58.000Z</time>
      </trkpt>
      <trkpt lat="43.62132" lon="3.76871">
        <ele>114.24802403162</ele>
        <time>2020-09-20T07:58:59.000Z</time>
      </trkpt>
      <trkpt lat="43.62134" lon="3.76867">
        <ele>114.34683826087</ele>
        <time>2020-09-20T07:59:00.000Z</time>
      </trkpt>
      <trkpt lat="43.62135" lon="3.76863">
        <ele>114.44565249012</ele>
        <time>2020-09-20T07:59:01.000Z</time>
      </trkpt>
      <trkpt lat="43.62136" lon="3.76859">
        <ele>114.54446671937</ele>
        <time>2020-09-20T07:59:02.000Z</time>
      </trkpt>
      <trkpt lat="43.62138" lon="3.76855">
        <ele>114.64328094862</ele>
        <time>2020-09-20T07:59:03.000Z</time>
      </trkpt>
      <trkpt lat="43.62139" lon="3.76851">
        <ele>114.74209517787</ele>
        <time>2020-09-20T07:59:04.000Z</time>
      </trkpt>
      <trkpt lat="43.6214" lon="3.76847">
        <ele>114.84090940712</ele>
        <time>2020-09-20T07:59:05.000Z</time>
      </trkpt>
      <trkpt lat="43.62142" lon="3.76843">
        <ele>114.93972363636</ele>
        <time>2020-09-20T07:59:06.000Z</time>
      </trkpt>
      <trkpt lat="43.62143" lon="3.76839">
        <ele>115.0394740081</ele>
        <time>2020-09-20T07:59:07.000Z</time>
      </trkpt>
      <trkpt lat="43.62145" lon="3.76836">
        <ele>115.140688583</ele>
        <time>2020-09-20T07:59:08.000Z</time>
      </trkpt>
      <trkpt lat="43.62146" lon="3.76831">
        <ele>115.24190315789</ele>
        <time>2020-09-20T07:59:09.000Z</time>
      </trkpt>
      <trkpt lat="43.62147" lon="3.76827">
        <ele>115.34311773279</ele>
        <time>2020-09-20T07:59:10.000Z</time>
      </trkpt>
      <trkpt lat="43.62149" lon="3.76823">
        <ele>115.44433230769</ele>
        <time>2020-09-20T07:59:11.000Z</time>
      </trkpt>
      <trkpt lat="43.6215" lon="3.76819">
        <ele>115.54554688259</ele>
        <time>2020-09-20T07:59:12.000Z</time>
      </trkpt>
      <trkpt lat="43.62151" lon="3.76816">
        <ele>115.64676145749</ele>
        <time>2020-09-20T07:59:13.000Z</time>
      </trkpt>
      <trkpt lat="43.62152" lon="3.76812">
        <ele>115.74797603239</ele>
        <time>2020-09-20T07:59:14.000Z</time>
      </trkpt>
      <trkpt lat="43.62153" lon="3.76808">
        <ele>115.84919060729</ele>
        <time>2020-09-20T07:59:15.000Z</time>
      </trkpt>
      <trkpt lat="43.62154" lon="3.76804">
        <ele>115.95040518219</ele>
        <time>2020-09-20T07:59:16.000Z</time>
      </trkpt>
      <trkpt lat="43.62155" lon="3.768">
        <ele>116.05100032</ele>
        <time>2020-09-20T07:59:17.000Z</time>
      </trkpt>
      <trkpt lat="43.62156" lon="3.76795">
        <ele>116.15100032</ele>
        <time>2020-09-20T07:59:18.000Z</time>
      </trkpt>
      <trkpt lat="43.62157" lon="3.76791">
        <ele>116.25100032</ele>
        <time>2020-09-20T07:59:19.000Z</time>
      </trkpt>
      <trkpt lat="43.62159" lon="3.76787">
        <ele>116.35100032</ele>
        <time>2020-09-20T07:59:20.000Z</time>
      </trkpt>
      <trkpt lat="43.6216" lon="3.76783">
        <ele>116.45100032</ele>
        <time>2020-09-20T07:59:21.000Z</time>
      </trkpt>
      <trkpt lat="43.62161" lon="3.76779">
        <ele>116.55100032</ele>
        <time>2020-09-20T07:59:22.000Z</time>
      </trkpt>
      <trkpt lat="43.62162" lon="3.76774">
        <ele>116.65100032</ele>
        <time>2020-09-20T07:59:23.000Z</time>
      </trkpt>
      <trkpt lat="43.62164" lon="3.7677">
        <ele>116.75100032</ele>
        <time>2020-09-20T07:59:24.000Z</time>
      </trkpt>
      <trkpt lat="43.62165" lon="3.76767">
        <ele>116.85100032</ele>
        <time>2020-09-20T07:59:25.000Z</time>
      </trkpt>
      <trkpt lat="43.62166" lon="3.76763">
        <ele>116.95100032</ele>
        <time>2020-09-20T07:59:26.000Z</time>
      </trkpt>
      <trkpt lat="43.62167" lon="3.76759">
        <ele>117.07511089244</ele>
        <time>2020-09-20T07:59:27.000Z</time>
      </trkpt>
      <trkpt lat="43.62169" lon="3.76755">
        <ele>117.22238622804</ele>
        <time>2020-09-20T07:59:28.000Z</time>
      </trkpt>
      <trkpt lat="43.6217" lon="3.76751">
        <ele>117.36966156364</ele>
        <time>2020-09-20T07:59:29.000Z</time>
      </trkpt>
      <trkpt lat="43.62171" lon="3.76747">
        <ele>117.51693689923</ele>
        <time>2020-09-20T07:59:30.000Z</time>
      </trkpt>
      <trkpt lat="43.62172" lon="3.76743">
        <ele>117.66421223483</ele>
        <time>2020-09-20T07:59:31.000Z</time>
      </trkpt>
      <trkpt lat="43.62173" lon="3.76738">
        <ele>117.81148757043</ele>
        <time>2020-09-20T07:59:32.000Z</time>
      </trkpt>
      <trkpt lat="43.62174" lon="3.76733">
        <ele>117.95876290603</ele>
        <time>2020-09-20T07:59:33.000Z</time>
      </trkpt>
      <trkpt lat="43.62175" lon="3.76728">
        <ele>118</ele>
        <time>2020-09-20T07:59:34.000Z</time>
      </trkpt>
      <trkpt lat="43.62176" lon="3.76724">
        <ele>118</ele>
        <time>2020-09-20T07:59:35.000Z</time>
      </trkpt>
      <trkpt lat="43.62176" lon="3.76719">
        <ele>118</ele>
        <time>2020-09-20T07:59:36.000Z</time>
      </trkpt>
      <trkpt lat="43.62177" lon="3.76715">
        <ele>118.05079713147</ele>
        <time>2020-09-20T07:59:37.000Z</time>
      </trkpt>
      <trkpt lat="43.62178" lon="3.7671">
        <ele>118.1503987251</ele>
        <time>2020-09-20T07:59:38.000Z</time>
      </trkpt>
      <trkpt lat="43.62179" lon="3.76706">
        <ele>118.25000031873</ele>
        <time>2020-09-20T07:59:39.000Z</time>
      </trkpt>
      <trkpt lat="43.6218" lon="3.76702">
        <ele>118.34960191235</ele>
        <time>2020-09-20T07:59:40.000Z</time>
      </trkpt>
      <trkpt lat="43.62181" lon="3.76697">
        <ele>118.44920350598</ele>
        <time>2020-09-20T07:59:41.000Z</time>
      </trkpt>
      <trkpt lat="43.62182" lon="3.76693">
        <ele>118.5488050996</ele>
        <time>2020-09-20T07:59:42.000Z</time>
      </trkpt>
      <trkpt lat="43.62183" lon="3.76689">
        <ele>118.64840669323</ele>
        <time>2020-09-20T07:59:43.000Z</time>
      </trkpt>
      <trkpt lat="43.62185" lon="3.76685">
        <ele>118.74800828685</ele>
        <time>2020-09-20T07:59:44.000Z</time>
      </trkpt>
      <trkpt lat="43.62186" lon="3.76681">
        <ele>118.84760988048</ele>
        <time>2020-09-20T07:59:45.000Z</time>
      </trkpt>
      <trkpt lat="43.62188" lon="3.76676">
        <ele>118.9472114741</ele>
        <time>2020-09-20T07:59:46.000Z</time>
      </trkpt>
      <trkpt lat="43.62189" lon="3.76671">
        <ele>119.04718907631</ele>
        <time>2020-09-20T07:59:47.000Z</time>
      </trkpt>
      <trkpt lat="43.6219" lon="3.76667">
        <ele>119.14759068273</ele>
        <time>2020-09-20T07:59:48.000Z</time>
      </trkpt>
      <trkpt lat="43.62192" lon="3.76662">
        <ele>119.24799228916</ele>
        <time>2020-09-20T07:59:49.000Z</time>
      </trkpt>
      <trkpt lat="43.62193" lon="3.76658">
        <ele>119.34839389558</ele>
        <time>2020-09-20T07:59:50.000Z</time>
      </trkpt>
      <trkpt lat="43.62195" lon="3.76653">
        <ele>119.44879550201</ele>
        <time>2020-09-20T07:59:51.000Z</time>
      </trkpt>
      <trkpt lat="43.62196" lon="3.76649">
        <ele>119.54919710843</ele>
        <time>2020-09-20T07:59:52.000Z</time>
      </trkpt>
      <trkpt lat="43.62198" lon="3.76644">
        <ele>119.64959871486</ele>
        <time>2020-09-20T07:59:53.000Z</time>
      </trkpt>
      <trkpt lat="43.62199" lon="3.7664">
        <ele>119.75000032129</ele>
        <time>2020-09-20T07:59:54.000Z</time>
      </trkpt>
      <trkpt lat="43.622" lon="3.76635">
        <ele>119.85040192771</ele>
        <time>2020-09-20T07:59:55.000Z</time>
      </trkpt>
      <trkpt lat="43.62202" lon="3.7663">
        <ele>119.95080353414</ele>
        <time>2020-09-20T07:59:56.000Z</time>
      </trkpt>
      <trkpt lat="43.62203" lon="3.76626">
        <ele>120.05100032</ele>
        <time>2020-09-20T07:59:57.000Z</time>
      </trkpt>
      <trkpt lat="43.62204" lon="3.76621">
        <ele>120.15100032</ele>
        <time>2020-09-20T07:59:58.000Z</time>
      </trkpt>
      <trkpt lat="43.62205" lon="3.76617">
        <ele>120.25100032</ele>
        <time>2020-09-20T07:59:59.000Z</time>
      </trkpt>
      <trkpt lat="43.62206" lon="3.76612">
        <ele>120.35100032</ele>
        <time>2020-09-20T08:00:00.000Z</time>
      </trkpt>
      <trkpt lat="43.62207" lon="3.76607">
        <ele>120.45100032</ele>
        <time>2020-09-20T08:00:01.000Z</time>
      </trkpt>
      <trkpt lat="43.62208" lon="3.76603">
        <ele>120.55100032</ele>
        <time>2020-09-20T08:00:02.000Z</time>
      </trkpt>
      <trkpt lat="43.6221" lon="3.76598">
        <ele>120.65100032</ele>
        <time>2020-09-20T08:00:03.000Z</time>
      </trkpt>
      <trkpt lat="43.62211" lon="3.76593">
        <ele>120.75100032</ele>
        <time>2020-09-20T08:00:04.000Z</time>
      </trkpt>
      <trkpt lat="43.62212" lon="3.76588">
        <ele>120.85100032</ele>
        <time>2020-09-20T08:00:05.000Z</time>
      </trkpt>
      <trkpt lat="43.62214" lon="3.76584">
        <ele>120.95100032</ele>
        <time>2020-09-20T08:00:06.000Z</time>
      </trkpt>
      <trkpt lat="43.62215" lon="3.76579">
        <ele>121.05100032</ele>
        <time>2020-09-20T08:00:07.000Z</time>
      </trkpt>
      <trkpt lat="43.62216" lon="3.76574">
        <ele>121.15100032</ele>
        <time>2020-09-20T08:00:08.000Z</time>
      </trkpt>
      <trkpt lat="43.62217" lon="3.76569">
        <ele>121.25100032</ele>
        <time>2020-09-20T08:00:09.000Z</time>
      </trkpt>
      <trkpt lat="43.62218" lon="3.76564">
        <ele>121.35100032</ele>
        <time>2020-09-20T08:00:10.000Z</time>
      </trkpt>
      <trkpt lat="43.6222" lon="3.76559">
        <ele>121.45100032</ele>
        <time>2020-09-20T08:00:11.000Z</time>
      </trkpt>
      <trkpt lat="43.62221" lon="3.76554">
        <ele>121.55100032</ele>
        <time>2020-09-20T08:00:12.000Z</time>
      </trkpt>
      <trkpt lat="43.62222" lon="3.76549">
        <ele>121.65100032</ele>
        <time>2020-09-20T08:00:13.000Z</time>
      </trkpt>
      <trkpt lat="43.62223" lon="3.76544">
        <ele>121.75100032</ele>
        <time>2020-09-20T08:00:14.000Z</time>
      </trkpt>
      <trkpt lat="43.62224" lon="3.76539">
        <ele>121.85100032</ele>
        <time>2020-09-20T08:00:15.000Z</time>
      </trkpt>
      <trkpt lat="43.62226" lon="3.76535">
        <ele>121.95100032</ele>
        <time>2020-09-20T08:00:16.000Z</time>
      </trkpt>
      <trkpt lat="43.62228" lon="3.7653">
        <ele>122.05100032</ele>
        <time>2020-09-20T08:00:17.000Z</time>
      </trkpt>
      <trkpt lat="43.62228" lon="3.76526">
        <ele>122.15100032</ele>
        <time>2020-09-20T08:00:18.000Z</time>
      </trkpt>
      <trkpt lat="43.62229" lon="3.76521">
        <ele>122.25100032</ele>
        <time>2020-09-20T08:00:19.000Z</time>
      </trkpt>
      <trkpt lat="43.6223" lon="3.76516">
        <ele>122.35100032</ele>
        <time>2020-09-20T08:00:20.000Z</time>
      </trkpt>
      <trkpt lat="43.62231" lon="3.76512">
        <ele>122.45100032</ele>
        <time>2020-09-20T08:00:21.000Z</time>
      </trkpt>
      <trkpt lat="43.62232" lon="3.76507">
        <ele>122.55100032</ele>
        <time>2020-09-20T08:00:22.000Z</time>
      </trkpt>
      <trkpt lat="43.62233" lon="3.76503">
        <ele>122.65100032</ele>
        <time>2020-09-20T08:00:23.000Z</time>
      </trkpt>
      <trkpt lat="43.62235" lon="3.76498">
        <ele>122.75100032</ele>
        <time>2020-09-20T08:00:24.000Z</time>
      </trkpt>
      <trkpt lat="43.62236" lon="3.76493">
        <ele>122.85100032</ele>
        <time>2020-09-20T08:00:25.000Z</time>
      </trkpt>
      <trkpt lat="43.62238" lon="3.76488">
        <ele>122.95100032</ele>
        <time>2020-09-20T08:00:26.000Z</time>
      </trkpt>
      <trkpt lat="43.62239" lon="3.76483">
        <ele>123</ele>
        <time>2020-09-20T08:00:27.000Z</time>
      </trkpt>
      <trkpt lat="43.6224" lon="3.76478">
        <ele>123</ele>
        <time>2020-09-20T08:00:28.000Z</time>
      </trkpt>
      <trkpt lat="43.62241" lon="3.76473">
        <ele>123</ele>
        <time>2020-09-20T08:00:29.000Z</time>
      </trkpt>
      <trkpt lat="43.62242" lon="3.76468">
        <ele>123</ele>
        <time>2020-09-20T08:00:30.000Z</time>
      </trkpt>
      <trkpt lat="43.62243" lon="3.76463">
        <ele>123</ele>
        <time>2020-09-20T08:00:31.000Z</time>
      </trkpt>
      <trkpt lat="43.62244" lon="3.76458">
        <ele>123</ele>
        <time>2020-09-20T08:00:32.000Z</time>
      </trkpt>
      <trkpt lat="43.62245" lon="3.76454">
        <ele>123</ele>
        <time>2020-09-20T08:00:33.000Z</time>
      </trkpt>
      <trkpt lat="43.62246" lon="3.76449">
        <ele>123</ele>
        <time>2020-09-20T08:00:34.000Z</time>
      </trkpt>
      <trkpt lat="43.62247" lon="3.76445">
        <ele>123</ele>
        <time>2020-09-20T08:00:35.000Z</time>
      </trkpt>
      <trkpt lat="43.62248" lon="3.7644">
        <ele>123</ele>
        <time>2020-09-20T08:00:36.000Z</time>
      </trkpt>
      <trkpt lat="43.62249" lon="3.76436">
        <ele>123.02265641787</ele>
        <time>2020-09-20T08:00:37.000Z</time>
      </trkpt>
      <trkpt lat="43.6225" lon="3.76431">
        <ele>123.12564313143</ele>
        <time>2020-09-20T08:00:38.000Z</time>
      </trkpt>
      <trkpt lat="43.6225" lon="3.76427">
        <ele>123.22862984499</ele>
        <time>2020-09-20T08:00:39.000Z</time>
      </trkpt>
      <trkpt lat="43.62252" lon="3.76422">
        <ele>123.33161655855</ele>
        <time>2020-09-20T08:00:40.000Z</time>
      </trkpt>
      <trkpt lat="43.62253" lon="3.76418">
        <ele>123.43460327211</ele>
        <time>2020-09-20T08:00:41.000Z</time>
      </trkpt>
      <trkpt lat="43.62254" lon="3.76413">
        <ele>123.53758998567</ele>
        <time>2020-09-20T08:00:42.000Z</time>
      </trkpt>
      <trkpt lat="43.62255" lon="3.76409">
        <ele>123.64057669923</ele>
        <time>2020-09-20T08:00:43.000Z</time>
      </trkpt>
      <trkpt lat="43.62256" lon="3.76405">
        <ele>123.74356341279</ele>
        <time>2020-09-20T08:00:44.000Z</time>
      </trkpt>
      <trkpt lat="43.62258" lon="3.764">
        <ele>123.84655012635</ele>
        <time>2020-09-20T08:00:45.000Z</time>
      </trkpt>
      <trkpt lat="43.62259" lon="3.76396">
        <ele>123.94953683991</ele>
        <time>2020-09-20T08:00:46.000Z</time>
      </trkpt>
      <trkpt lat="43.6226" lon="3.76392">
        <ele>124.05100032</ele>
        <time>2020-09-20T08:00:47.000Z</time>
      </trkpt>
      <trkpt lat="43.6226" lon="3.76386">
        <ele>124.15100032</ele>
        <time>2020-09-20T08:00:48.000Z</time>
      </trkpt>
      <trkpt lat="43.62261" lon="3.76381">
        <ele>124.25100032</ele>
        <time>2020-09-20T08:00:49.000Z</time>
      </trkpt>
      <trkpt lat="43.62261" lon="3.76376">
        <ele>124.35100032</ele>
        <time>2020-09-20T08:00:50.000Z</time>
      </trkpt>
      <trkpt lat="43.62262" lon="3.76371">
        <ele>124.45100032</ele>
        <time>2020-09-20T08:00:51.000Z</time>
      </trkpt>
      <trkpt lat="43.62262" lon="3.76366">
        <ele>124.55100032</ele>
        <time>2020-09-20T08:00:52.000Z</time>
      </trkpt>
      <trkpt lat="43.62262" lon="3.76361">
        <ele>124.65100032</ele>
        <time>2020-09-20T08:00:53.000Z</time>
      </trkpt>
      <trkpt lat="43.62262" lon="3.76356">
        <ele>124.75100032</ele>
        <time>2020-09-20T08:00:54.000Z</time>
      </trkpt>
      <trkpt lat="43.62262" lon="3.76352">
        <ele>124.85100032</ele>
        <time>2020-09-20T08:00:55.000Z</time>
      </trkpt>
      <trkpt lat="43.62263" lon="3.76347">
        <ele>124.95100032</ele>
        <time>2020-09-20T08:00:56.000Z</time>
      </trkpt>
      <trkpt lat="43.62263" lon="3.76342">
        <ele>125.05100032</ele>
        <time>2020-09-20T08:00:57.000Z</time>
      </trkpt>
      <trkpt lat="43.62263" lon="3.76337">
        <ele>125.15100032</ele>
        <time>2020-09-20T08:00:58.000Z</time>
      </trkpt>
      <trkpt lat="43.62264" lon="3.76332">
        <ele>125.25100032</ele>
        <time>2020-09-20T08:00:59.000Z</time>
      </trkpt>
      <trkpt lat="43.62264" lon="3.76328">
        <ele>125.35100032</ele>
        <time>2020-09-20T08:01:00.000Z</time>
      </trkpt>
      <trkpt lat="43.62265" lon="3.76323">
        <ele>125.45100032</ele>
        <time>2020-09-20T08:01:01.000Z</time>
      </trkpt>
      <trkpt lat="43.62266" lon="3.76318">
        <ele>125.55100032</ele>
        <time>2020-09-20T08:01:02.000Z</time>
      </trkpt>
      <trkpt lat="43.62266" lon="3.76313">
        <ele>125.65100032</ele>
        <time>2020-09-20T08:01:03.000Z</time>
      </trkpt>
      <trkpt lat="43.62267" lon="3.76308">
        <ele>125.75100032</ele>
        <time>2020-09-20T08:01:04.000Z</time>
      </trkpt>
      <trkpt lat="43.62267" lon="3.76304">
        <ele>125.85100032</ele>
        <time>2020-09-20T08:01:05.000Z</time>
      </trkpt>
      <trkpt lat="43.62268" lon="3.76299">
        <ele>125.95100032</ele>
        <time>2020-09-20T08:01:06.000Z</time>
      </trkpt>
      <trkpt lat="43.62269" lon="3.76294">
        <ele>126.05100032</ele>
        <time>2020-09-20T08:01:07.000Z</time>
      </trkpt>
      <trkpt lat="43.62269" lon="3.76289">
        <ele>126.15100032</ele>
        <time>2020-09-20T08:01:08.000Z</time>
      </trkpt>
      <trkpt lat="43.6227" lon="3.76284">
        <ele>126.25100032</ele>
        <time>2020-09-20T08:01:09.000Z</time>
      </trkpt>
      <trkpt lat="43.62271" lon="3.76279">
        <ele>126.35100032</ele>
        <time>2020-09-20T08:01:10.000Z</time>
      </trkpt>
      <trkpt lat="43.62271" lon="3.76275">
        <ele>126.45100032</ele>
        <time>2020-09-20T08:01:11.000Z</time>
      </trkpt>
      <trkpt lat="43.62272" lon="3.7627">
        <ele>126.55100032</ele>
        <time>2020-09-20T08:01:12.000Z</time>
      </trkpt>
      <trkpt lat="43.62272" lon="3.76265">
        <ele>126.65100032</ele>
        <time>2020-09-20T08:01:13.000Z</time>
      </trkpt>
      <trkpt lat="43.62273" lon="3.7626">
        <ele>126.75100032</ele>
        <time>2020-09-20T08:01:14.000Z</time>
      </trkpt>
      <trkpt lat="43.62273" lon="3.76255">
        <ele>126.85100032</ele>
        <time>2020-09-20T08:01:15.000Z</time>
      </trkpt>
      <trkpt lat="43.62274" lon="3.7625">
        <ele>126.95100032</ele>
        <time>2020-09-20T08:01:16.000Z</time>
      </trkpt>
      <trkpt lat="43.62274" lon="3.76245">
        <ele>127</ele>
        <time>2020-09-20T08:01:17.000Z</time>
      </trkpt>
      <trkpt lat="43.62275" lon="3.76241">
        <ele>127</ele>
        <time>2020-09-20T08:01:18.000Z</time>
      </trkpt>
      <trkpt lat="43.62274" lon="3.76236">
        <ele>127</ele>
        <time>2020-09-20T08:01:19.000Z</time>
      </trkpt>
      <trkpt lat="43.62275" lon="3.76233">
        <ele>127</ele>
        <time>2020-09-20T08:01:20.000Z</time>
      </trkpt>
      <trkpt lat="43.62276" lon="3.76229">
        <ele>127</ele>
        <time>2020-09-20T08:01:21.000Z</time>
      </trkpt>
      <trkpt lat="43.62277" lon="3.76226">
        <ele>127</ele>
        <time>2020-09-20T08:01:22.000Z</time>
      </trkpt>
      <trkpt lat="43.62278" lon="3.76223">
        <ele>127</ele>
        <time>2020-09-20T08:01:23.000Z</time>
      </trkpt>
      <trkpt lat="43.62279" lon="3.7622">
        <ele>127</ele>
        <time>2020-09-20T08:01:24.000Z</time>
      </trkpt>
      <trkpt lat="43.62279" lon="3.76216">
        <ele>127</ele>
        <time>2020-09-20T08:01:26.000Z</time>
      </trkpt>
      <trkpt lat="43.62277" lon="3.76213">
        <ele>127.05100032</ele>
        <time>2020-09-20T08:01:27.000Z</time>
      </trkpt>
      <trkpt lat="43.62275" lon="3.76211">
        <ele>127.15100032</ele>
        <time>2020-09-20T08:01:28.000Z</time>
      </trkpt>
      <trkpt lat="43.62274" lon="3.76208">
        <ele>127.25100032</ele>
        <time>2020-09-20T08:01:29.000Z</time>
      </trkpt>
      <trkpt lat="43.62273" lon="3.76205">
        <ele>127.35100032</ele>
        <time>2020-09-20T08:01:30.000Z</time>
      </trkpt>
      <trkpt lat="43.62273" lon="3.76202">
        <ele>127.45100032</ele>
        <time>2020-09-20T08:01:31.000Z</time>
      </trkpt>
      <trkpt lat="43.62273" lon="3.76199">
        <ele>127.55100032</ele>
        <time>2020-09-20T08:01:32.000Z</time>
      </trkpt>
      <trkpt lat="43.62273" lon="3.76197">
        <ele>127.65100032</ele>
        <time>2020-09-20T08:01:33.000Z</time>
      </trkpt>
      <trkpt lat="43.62273" lon="3.76193">
        <ele>127.75100032</ele>
        <time>2020-09-20T08:01:34.000Z</time>
      </trkpt>
      <trkpt lat="43.62274" lon="3.76189">
        <ele>127.85100032</ele>
        <time>2020-09-20T08:01:35.000Z</time>
      </trkpt>
      <trkpt lat="43.62274" lon="3.76185">
        <ele>127.95100032</ele>
        <time>2020-09-20T08:01:36.000Z</time>
      </trkpt>
      <trkpt lat="43.62275" lon="3.7618">
        <ele>128</ele>
        <time>2020-09-20T08:01:37.000Z</time>
      </trkpt>
      <trkpt lat="43.62276" lon="3.76175">
        <ele>128</ele>
        <time>2020-09-20T08:01:38.000Z</time>
      </trkpt>
      <trkpt lat="43.62276" lon="3.76171">
        <ele>128</ele>
        <time>2020-09-20T08:01:39.000Z</time>
      </trkpt>
      <trkpt lat="43.62277" lon="3.76167">
        <ele>128</ele>
        <time>2020-09-20T08:01:40.000Z</time>
      </trkpt>
      <trkpt lat="43.62277" lon="3.76164">
        <ele>128</ele>
        <time>2020-09-20T08:01:41.000Z</time>
      </trkpt>
      <trkpt lat="43.62277" lon="3.76161">
        <ele>128</ele>
        <time>2020-09-20T08:01:42.000Z</time>
      </trkpt>
      <trkpt lat="43.62277" lon="3.76159">
        <ele>128</ele>
        <time>2020-09-20T08:01:43.000Z</time>
      </trkpt>
      <trkpt lat="43.62277" lon="3.76154">
        <ele>128</ele>
        <time>2020-09-20T08:01:45.000Z</time>
      </trkpt>
      <trkpt lat="43.62277" lon="3.76151">
        <ele>128</ele>
        <time>2020-09-20T08:01:47.000Z</time>
      </trkpt>
      <trkpt lat="43.62277" lon="3.76151">
        <ele>128</ele>
        <time>2020-09-20T08:01:52.000Z</time>
      </trkpt>
      <trkpt lat="43.62275" lon="3.76145">
        <ele>126</ele>
        <time>2020-09-20T08:03:51.000Z</time>
      </trkpt>
      <trkpt lat="43.62275" lon="3.76142">
        <ele>126</ele>
        <time>2020-09-20T08:03:52.000Z</time>
      </trkpt>
      <trkpt lat="43.62275" lon="3.76138">
        <ele>126</ele>
        <time>2020-09-20T08:03:53.000Z</time>
      </trkpt>
      <trkpt lat="43.62275" lon="3.76135">
        <ele>126</ele>
        <time>2020-09-20T08:03:54.000Z</time>
      </trkpt>
      <trkpt lat="43.62275" lon="3.76131">
        <ele>126</ele>
        <time>2020-09-20T08:03:55.000Z</time>
      </trkpt>
      <trkpt lat="43.62275" lon="3.76128">
        <ele>126</ele>
        <time>2020-09-20T08:03:56.000Z</time>
      </trkpt>
      <trkpt lat="43.62275" lon="3.76124">
        <ele>126</ele>
        <time>2020-09-20T08:03:57.000Z</time>
      </trkpt>
      <trkpt lat="43.62275" lon="3.76121">
        <ele>126</ele>
        <time>2020-09-20T08:03:58.000Z</time>
      </trkpt>
      <trkpt lat="43.62275" lon="3.76118">
        <ele>126</ele>
        <time>2020-09-20T08:03:59.000Z</time>
      </trkpt>
      <trkpt lat="43.62275" lon="3.76114">
        <ele>126</ele>
        <time>2020-09-20T08:04:00.000Z</time>
      </trkpt>
      <trkpt lat="43.62275" lon="3.7611">
        <ele>126.04956294696</ele>
        <time>2020-09-20T08:04:01.000Z</time>
      </trkpt>
      <trkpt lat="43.62275" lon="3.76106">
        <ele>126.14674458613</ele>
        <time>2020-09-20T08:04:02.000Z</time>
      </trkpt>
      <trkpt lat="43.62275" lon="3.76102">
        <ele>126.2439262253</ele>
        <time>2020-09-20T08:04:03.000Z</time>
      </trkpt>
      <trkpt lat="43.62275" lon="3.76098">
        <ele>126.34110786447</ele>
        <time>2020-09-20T08:04:04.000Z</time>
      </trkpt>
      <trkpt lat="43.62276" lon="3.76095">
        <ele>126.43828950364</ele>
        <time>2020-09-20T08:04:05.000Z</time>
      </trkpt>
      <trkpt lat="43.62276" lon="3.76091">
        <ele>126.53547114281</ele>
        <time>2020-09-20T08:04:06.000Z</time>
      </trkpt>
      <trkpt lat="43.62276" lon="3.76087">
        <ele>126.63265278198</ele>
        <time>2020-09-20T08:04:07.000Z</time>
      </trkpt>
      <trkpt lat="43.62276" lon="3.76083">
        <ele>126.72983442115</ele>
        <time>2020-09-20T08:04:08.000Z</time>
      </trkpt>
      <trkpt lat="43.62277" lon="3.7608">
        <ele>126.82701606032</ele>
        <time>2020-09-20T08:04:09.000Z</time>
      </trkpt>
      <trkpt lat="43.62277" lon="3.76076">
        <ele>126.92419769949</ele>
        <time>2020-09-20T08:04:10.000Z</time>
      </trkpt>
      <trkpt lat="43.62277" lon="3.76072">
        <ele>127</ele>
        <time>2020-09-20T08:04:11.000Z</time>
      </trkpt>
      <trkpt lat="43.62277" lon="3.76068">
        <ele>127</ele>
        <time>2020-09-20T08:04:12.000Z</time>
      </trkpt>
      <trkpt lat="43.62277" lon="3.76063">
        <ele>127</ele>
        <time>2020-09-20T08:04:13.000Z</time>
      </trkpt>
      <trkpt lat="43.62277" lon="3.76059">
        <ele>127</ele>
        <time>2020-09-20T08:04:14.000Z</time>
      </trkpt>
      <trkpt lat="43.62277" lon="3.76055">
        <ele>127</ele>
        <time>2020-09-20T08:04:15.000Z</time>
      </trkpt>
      <trkpt lat="43.62277" lon="3.7605">
        <ele>127</ele>
        <time>2020-09-20T08:04:16.000Z</time>
      </trkpt>
      <trkpt lat="43.62277" lon="3.76046">
        <ele>127</ele>
        <time>2020-09-20T08:04:17.000Z</time>
      </trkpt>
      <trkpt lat="43.62277" lon="3.76041">
        <ele>127</ele>
        <time>2020-09-20T08:04:18.000Z</time>
      </trkpt>
      <trkpt lat="43.62277" lon="3.76037">
        <ele>127</ele>
        <time>2020-09-20T08:04:19.000Z</time>
      </trkpt>
      <trkpt lat="43.62277" lon="3.76032">
        <ele>127</ele>
        <time>2020-09-20T08:04:20.000Z</time>
      </trkpt>
      <trkpt lat="43.62277" lon="3.76028">
        <ele>127.01855734858</ele>
        <time>2020-09-20T08:04:21.000Z</time>
      </trkpt>
      <trkpt lat="43.62277" lon="3.76024">
        <ele>127.12165006407</ele>
        <time>2020-09-20T08:04:22.000Z</time>
      </trkpt>
      <trkpt lat="43.62278" lon="3.7602">
        <ele>127.22474277955</ele>
        <time>2020-09-20T08:04:23.000Z</time>
      </trkpt>
      <trkpt lat="43.62278" lon="3.76016">
        <ele>127.32783549504</ele>
        <time>2020-09-20T08:04:24.000Z</time>
      </trkpt>
      <trkpt lat="43.62278" lon="3.76012">
        <ele>127.43092821052</ele>
        <time>2020-09-20T08:04:25.000Z</time>
      </trkpt>
      <trkpt lat="43.62278" lon="3.76007">
        <ele>127.53402092601</ele>
        <time>2020-09-20T08:04:26.000Z</time>
      </trkpt>
      <trkpt lat="43.62278" lon="3.76003">
        <ele>127.63711364149</ele>
        <time>2020-09-20T08:04:27.000Z</time>
      </trkpt>
      <trkpt lat="43.62278" lon="3.75999">
        <ele>127.74020635698</ele>
        <time>2020-09-20T08:04:28.000Z</time>
      </trkpt>
      <trkpt lat="43.62278" lon="3.75995">
        <ele>127.84329907246</ele>
        <time>2020-09-20T08:04:29.000Z</time>
      </trkpt>
      <trkpt lat="43.62278" lon="3.7599">
        <ele>127.94639178795</ele>
        <time>2020-09-20T08:04:30.000Z</time>
      </trkpt>
      <trkpt lat="43.62278" lon="3.75985">
        <ele>128</ele>
        <time>2020-09-20T08:04:31.000Z</time>
      </trkpt>
      <trkpt lat="43.62278" lon="3.75981">
        <ele>128</ele>
        <time>2020-09-20T08:04:32.000Z</time>
      </trkpt>
      <trkpt lat="43.62278" lon="3.75976">
        <ele>128</ele>
        <time>2020-09-20T08:04:33.000Z</time>
      </trkpt>
      <trkpt lat="43.62278" lon="3.75971">
        <ele>128</ele>
        <time>2020-09-20T08:04:34.000Z</time>
      </trkpt>
      <trkpt lat="43.62278" lon="3.75967">
        <ele>128</ele>
        <time>2020-09-20T08:04:35.000Z</time>
      </trkpt>
      <trkpt lat="43.62278" lon="3.75963">
        <ele>128</ele>
        <time>2020-09-20T08:04:36.000Z</time>
      </trkpt>
      <trkpt lat="43.62278" lon="3.75959">
        <ele>128</ele>
        <time>2020-09-20T08:04:37.000Z</time>
      </trkpt>
      <trkpt lat="43.62279" lon="3.75955">
        <ele>128</ele>
        <time>2020-09-20T08:04:38.000Z</time>
      </trkpt>
      <trkpt lat="43.62279" lon="3.75951">
        <ele>128</ele>
        <time>2020-09-20T08:04:39.000Z</time>
      </trkpt>
      <trkpt lat="43.62279" lon="3.75947">
        <ele>128</ele>
        <time>2020-09-20T08:04:40.000Z</time>
      </trkpt>
      <trkpt lat="43.62279" lon="3.75943">
        <ele>128</ele>
        <time>2020-09-20T08:04:41.000Z</time>
      </trkpt>
      <trkpt lat="43.62279" lon="3.75939">
        <ele>128</ele>
        <time>2020-09-20T08:04:42.000Z</time>
      </trkpt>
      <trkpt lat="43.62279" lon="3.75935">
        <ele>128</ele>
        <time>2020-09-20T08:04:43.000Z</time>
      </trkpt>
      <trkpt lat="43.62278" lon="3.75931">
        <ele>128</ele>
        <time>2020-09-20T08:04:44.000Z</time>
      </trkpt>
      <trkpt lat="43.62278" lon="3.75927">
        <ele>128</ele>
        <time>2020-09-20T08:04:45.000Z</time>
      </trkpt>
      <trkpt lat="43.62278" lon="3.75923">
        <ele>128</ele>
        <time>2020-09-20T08:04:46.000Z</time>
      </trkpt>
      <trkpt lat="43.62278" lon="3.75918">
        <ele>128</ele>
        <time>2020-09-20T08:04:47.000Z</time>
      </trkpt>
      <trkpt lat="43.62278" lon="3.75914">
        <ele>128</ele>
        <time>2020-09-20T08:04:48.000Z</time>
      </trkpt>
      <trkpt lat="43.62278" lon="3.75909">
        <ele>128</ele>
        <time>2020-09-20T08:04:49.000Z</time>
      </trkpt>
      <trkpt lat="43.62277" lon="3.75905">
        <ele>128</ele>
        <time>2020-09-20T08:04:50.000Z</time>
      </trkpt>
      <trkpt lat="43.62276" lon="3.759">
        <ele>128.03260837945</ele>
        <time>2020-09-20T08:04:51.000Z</time>
      </trkpt>
      <trkpt lat="43.62276" lon="3.75896">
        <ele>128.1314226087</ele>
        <time>2020-09-20T08:04:52.000Z</time>
      </trkpt>
      <trkpt lat="43.62275" lon="3.75891">
        <ele>128.23023683795</ele>
        <time>2020-09-20T08:04:53.000Z</time>
      </trkpt>
      <trkpt lat="43.62275" lon="3.75886">
        <ele>128.32905106719</ele>
        <time>2020-09-20T08:04:54.000Z</time>
      </trkpt>
      <trkpt lat="43.62275" lon="3.75882">
        <ele>128.42786529644</ele>
        <time>2020-09-20T08:04:55.000Z</time>
      </trkpt>
      <trkpt lat="43.62275" lon="3.75877">
        <ele>128.52667952569</ele>
        <time>2020-09-20T08:04:56.000Z</time>
      </trkpt>
      <trkpt lat="43.62275" lon="3.75872">
        <ele>128.62549375494</ele>
        <time>2020-09-20T08:04:57.000Z</time>
      </trkpt>
      <trkpt lat="43.62275" lon="3.75868">
        <ele>128.72430798419</ele>
        <time>2020-09-20T08:04:58.000Z</time>
      </trkpt>
      <trkpt lat="43.62275" lon="3.75863">
        <ele>128.82312221344</ele>
        <time>2020-09-20T08:04:59.000Z</time>
      </trkpt>
      <trkpt lat="43.62275" lon="3.75859">
        <ele>128.92193644269</ele>
        <time>2020-09-20T08:05:00.000Z</time>
      </trkpt>
      <trkpt lat="43.62275" lon="3.75854">
        <ele>129</ele>
        <time>2020-09-20T08:05:01.000Z</time>
      </trkpt>
      <trkpt lat="43.62276" lon="3.75849">
        <ele>129</ele>
        <time>2020-09-20T08:05:02.000Z</time>
      </trkpt>
      <trkpt lat="43.62276" lon="3.75844">
        <ele>129</ele>
        <time>2020-09-20T08:05:03.000Z</time>
      </trkpt>
      <trkpt lat="43.62277" lon="3.75839">
        <ele>129</ele>
        <time>2020-09-20T08:05:04.000Z</time>
      </trkpt>
      <trkpt lat="43.62278" lon="3.75835">
        <ele>129</ele>
        <time>2020-09-20T08:05:05.000Z</time>
      </trkpt>
      <trkpt lat="43.62278" lon="3.7583">
        <ele>129</ele>
        <time>2020-09-20T08:05:06.000Z</time>
      </trkpt>
      <trkpt lat="43.62278" lon="3.75826">
        <ele>129</ele>
        <time>2020-09-20T08:05:07.000Z</time>
      </trkpt>
      <trkpt lat="43.62279" lon="3.75822">
        <ele>129</ele>
        <time>2020-09-20T08:05:08.000Z</time>
      </trkpt>
      <trkpt lat="43.6228" lon="3.75818">
        <ele>129</ele>
        <time>2020-09-20T08:05:09.000Z</time>
      </trkpt>
      <trkpt lat="43.62281" lon="3.75814">
        <ele>129</ele>
        <time>2020-09-20T08:05:10.000Z</time>
      </trkpt>
      <trkpt lat="43.62282" lon="3.7581">
        <ele>129</ele>
        <time>2020-09-20T08:05:11.000Z</time>
      </trkpt>
      <trkpt lat="43.62283" lon="3.75806">
        <ele>129</ele>
        <time>2020-09-20T08:05:12.000Z</time>
      </trkpt>
      <trkpt lat="43.62283" lon="3.75801">
        <ele>129</ele>
        <time>2020-09-20T08:05:13.000Z</time>
      </trkpt>
      <trkpt lat="43.62283" lon="3.75797">
        <ele>129</ele>
        <time>2020-09-20T08:05:14.000Z</time>
      </trkpt>
      <trkpt lat="43.62283" lon="3.75793">
        <ele>129</ele>
        <time>2020-09-20T08:05:15.000Z</time>
      </trkpt>
      <trkpt lat="43.62283" lon="3.75788">
        <ele>129</ele>
        <time>2020-09-20T08:05:16.000Z</time>
      </trkpt>
      <trkpt lat="43.62283" lon="3.75784">
        <ele>129</ele>
        <time>2020-09-20T08:05:17.000Z</time>
      </trkpt>
      <trkpt lat="43.62283" lon="3.75779">
        <ele>129</ele>
        <time>2020-09-20T08:05:18.000Z</time>
      </trkpt>
      <trkpt lat="43.62283" lon="3.75775">
        <ele>129</ele>
        <time>2020-09-20T08:05:19.000Z</time>
      </trkpt>
      <trkpt lat="43.62283" lon="3.7577">
        <ele>129</ele>
        <time>2020-09-20T08:05:20.000Z</time>
      </trkpt>
      <trkpt lat="43.62283" lon="3.75766">
        <ele>129</ele>
        <time>2020-09-20T08:05:21.000Z</time>
      </trkpt>
      <trkpt lat="43.62282" lon="3.75761">
        <ele>129</ele>
        <time>2020-09-20T08:05:22.000Z</time>
      </trkpt>
      <trkpt lat="43.62282" lon="3.75756">
        <ele>129</ele>
        <time>2020-09-20T08:05:23.000Z</time>
      </trkpt>
      <trkpt lat="43.62281" lon="3.7575">
        <ele>129</ele>
        <time>2020-09-20T08:05:24.000Z</time>
      </trkpt>
      <trkpt lat="43.62281" lon="3.75745">
        <ele>129</ele>
        <time>2020-09-20T08:05:25.000Z</time>
      </trkpt>
      <trkpt lat="43.6228" lon="3.75739">
        <ele>129</ele>
        <time>2020-09-20T08:05:26.000Z</time>
      </trkpt>
      <trkpt lat="43.6228" lon="3.75734">
        <ele>129</ele>
        <time>2020-09-20T08:05:27.000Z</time>
      </trkpt>
      <trkpt lat="43.6228" lon="3.75729">
        <ele>129</ele>
        <time>2020-09-20T08:05:28.000Z</time>
      </trkpt>
      <trkpt lat="43.6228" lon="3.75725">
        <ele>129</ele>
        <time>2020-09-20T08:05:29.000Z</time>
      </trkpt>
      <trkpt lat="43.62279" lon="3.7572">
        <ele>129</ele>
        <time>2020-09-20T08:05:30.000Z</time>
      </trkpt>
      <trkpt lat="43.62279" lon="3.75716">
        <ele>129</ele>
        <time>2020-09-20T08:05:31.000Z</time>
      </trkpt>
      <trkpt lat="43.62279" lon="3.75711">
        <ele>129</ele>
        <time>2020-09-20T08:05:32.000Z</time>
      </trkpt>
      <trkpt lat="43.62279" lon="3.75707">
        <ele>129</ele>
        <time>2020-09-20T08:05:33.000Z</time>
      </trkpt>
      <trkpt lat="43.62278" lon="3.75702">
        <ele>129</ele>
        <time>2020-09-20T08:05:34.000Z</time>
      </trkpt>
      <trkpt lat="43.62278" lon="3.75698">
        <ele>129</ele>
        <time>2020-09-20T08:05:35.000Z</time>
      </trkpt>
      <trkpt lat="43.62276" lon="3.75693">
        <ele>129</ele>
        <time>2020-09-20T08:05:36.000Z</time>
      </trkpt>
      <trkpt lat="43.62275" lon="3.75689">
        <ele>129</ele>
        <time>2020-09-20T08:05:37.000Z</time>
      </trkpt>
      <trkpt lat="43.62274" lon="3.75683">
        <ele>129</ele>
        <time>2020-09-20T08:05:38.000Z</time>
      </trkpt>
      <trkpt lat="43.62274" lon="3.75678">
        <ele>129</ele>
        <time>2020-09-20T08:05:39.000Z</time>
      </trkpt>
      <trkpt lat="43.62273" lon="3.75673">
        <ele>129</ele>
        <time>2020-09-20T08:05:40.000Z</time>
      </trkpt>
      <trkpt lat="43.62272" lon="3.75669">
        <ele>129</ele>
        <time>2020-09-20T08:05:41.000Z</time>
      </trkpt>
      <trkpt lat="43.62271" lon="3.75664">
        <ele>129</ele>
        <time>2020-09-20T08:05:42.000Z</time>
      </trkpt>
      <trkpt lat="43.6227" lon="3.75659">
        <ele>129</ele>
        <time>2020-09-20T08:05:43.000Z</time>
      </trkpt>
      <trkpt lat="43.6227" lon="3.75654">
        <ele>129</ele>
        <time>2020-09-20T08:05:44.000Z</time>
      </trkpt>
      <trkpt lat="43.62268" lon="3.7565">
        <ele>129</ele>
        <time>2020-09-20T08:05:45.000Z</time>
      </trkpt>
      <trkpt lat="43.62267" lon="3.75646">
        <ele>129</ele>
        <time>2020-09-20T08:05:46.000Z</time>
      </trkpt>
      <trkpt lat="43.62264" lon="3.75642">
        <ele>129</ele>
        <time>2020-09-20T08:05:47.000Z</time>
      </trkpt>
      <trkpt lat="43.62262" lon="3.75637">
        <ele>129</ele>
        <time>2020-09-20T08:05:48.000Z</time>
      </trkpt>
      <trkpt lat="43.6226" lon="3.75632">
        <ele>129</ele>
        <time>2020-09-20T08:05:49.000Z</time>
      </trkpt>
      <trkpt lat="43.62259" lon="3.75627">
        <ele>129</ele>
        <time>2020-09-20T08:05:50.000Z</time>
      </trkpt>
      <trkpt lat="43.62258" lon="3.75622">
        <ele>128.98043222066</ele>
        <time>2020-09-20T08:05:51.000Z</time>
      </trkpt>
      <trkpt lat="43.62256" lon="3.75617">
        <ele>128.87744564286</ele>
        <time>2020-09-20T08:05:52.000Z</time>
      </trkpt>
      <trkpt lat="43.62254" lon="3.75613">
        <ele>128.77445906506</ele>
        <time>2020-09-20T08:05:53.000Z</time>
      </trkpt>
      <trkpt lat="43.62253" lon="3.75608">
        <ele>128.67147248726</ele>
        <time>2020-09-20T08:05:54.000Z</time>
      </trkpt>
      <trkpt lat="43.62251" lon="3.75604">
        <ele>128.56848590946</ele>
        <time>2020-09-20T08:05:55.000Z</time>
      </trkpt>
      <trkpt lat="43.62249" lon="3.75599">
        <ele>128.46549933166</ele>
        <time>2020-09-20T08:05:56.000Z</time>
      </trkpt>
      <trkpt lat="43.62247" lon="3.75595">
        <ele>128.36251275386</ele>
        <time>2020-09-20T08:05:57.000Z</time>
      </trkpt>
      <trkpt lat="43.62246" lon="3.75591">
        <ele>128.25952617606</ele>
        <time>2020-09-20T08:05:58.000Z</time>
      </trkpt>
      <trkpt lat="43.62244" lon="3.75587">
        <ele>128.15653959826</ele>
        <time>2020-09-20T08:05:59.000Z</time>
      </trkpt>
      <trkpt lat="43.62243" lon="3.75584">
        <ele>128.05355302046</ele>
        <time>2020-09-20T08:06:00.000Z</time>
      </trkpt>
      <trkpt lat="43.62241" lon="3.7558">
        <ele>127.95185555125</ele>
        <time>2020-09-20T08:06:01.000Z</time>
      </trkpt>
      <trkpt lat="43.6224" lon="3.75577">
        <ele>127.85155461635</ele>
        <time>2020-09-20T08:06:02.000Z</time>
      </trkpt>
      <trkpt lat="43.62238" lon="3.75574">
        <ele>127.75125368145</ele>
        <time>2020-09-20T08:06:03.000Z</time>
      </trkpt>
      <trkpt lat="43.62237" lon="3.7557">
        <ele>127.65095274655</ele>
        <time>2020-09-20T08:06:04.000Z</time>
      </trkpt>
      <trkpt lat="43.62235" lon="3.75567">
        <ele>127.55065181164</ele>
        <time>2020-09-20T08:06:05.000Z</time>
      </trkpt>
      <trkpt lat="43.62234" lon="3.75564">
        <ele>127.45035087674</ele>
        <time>2020-09-20T08:06:06.000Z</time>
      </trkpt>
      <trkpt lat="43.62232" lon="3.75562">
        <ele>127.24974900694</ele>
        <time>2020-09-20T08:06:08.000Z</time>
      </trkpt>
      <trkpt lat="43.62232" lon="3.75562">
        <ele>127</ele>
        <time>2020-09-20T08:06:14.000Z</time>
      </trkpt>
      <trkpt lat="43.62229" lon="3.75556">
        <ele>126.97433296055</ele>
        <time>2020-09-20T08:06:31.000Z</time>
      </trkpt>
      <trkpt lat="43.62228" lon="3.75553">
        <ele>126.87166348857</ele>
        <time>2020-09-20T08:06:32.000Z</time>
      </trkpt>
      <trkpt lat="43.62227" lon="3.75551">
        <ele>126.76899401659</ele>
        <time>2020-09-20T08:06:33.000Z</time>
      </trkpt>
      <trkpt lat="43.62225" lon="3.75548">
        <ele>126.66632454461</ele>
        <time>2020-09-20T08:06:34.000Z</time>
      </trkpt>
      <trkpt lat="43.62224" lon="3.75546">
        <ele>126.56365507263</ele>
        <time>2020-09-20T08:06:35.000Z</time>
      </trkpt>
      <trkpt lat="43.62222" lon="3.75543">
        <ele>126.46098560065</ele>
        <time>2020-09-20T08:06:36.000Z</time>
      </trkpt>
      <trkpt lat="43.62221" lon="3.7554">
        <ele>126.35831612867</ele>
        <time>2020-09-20T08:06:37.000Z</time>
      </trkpt>
      <trkpt lat="43.62219" lon="3.75537">
        <ele>126.25564665669</ele>
        <time>2020-09-20T08:06:38.000Z</time>
      </trkpt>
      <trkpt lat="43.62218" lon="3.75534">
        <ele>126.15297718471</ele>
        <time>2020-09-20T08:06:39.000Z</time>
      </trkpt>
      <trkpt lat="43.62216" lon="3.75532">
        <ele>126.05030771273</ele>
        <time>2020-09-20T08:06:40.000Z</time>
      </trkpt>
      <trkpt lat="43.62214" lon="3.75529">
        <ele>125.95072434374</ele>
        <time>2020-09-20T08:06:41.000Z</time>
      </trkpt>
      <trkpt lat="43.62213" lon="3.75527">
        <ele>125.85410601612</ele>
        <time>2020-09-20T08:06:42.000Z</time>
      </trkpt>
      <trkpt lat="43.62211" lon="3.75524">
        <ele>125.75748768851</ele>
        <time>2020-09-20T08:06:43.000Z</time>
      </trkpt>
      <trkpt lat="43.6221" lon="3.75522">
        <ele>125.66086936089</ele>
        <time>2020-09-20T08:06:44.000Z</time>
      </trkpt>
      <trkpt lat="43.62209" lon="3.7552">
        <ele>125.56425103327</ele>
        <time>2020-09-20T08:06:45.000Z</time>
      </trkpt>
      <trkpt lat="43.62208" lon="3.75517">
        <ele>125.46763270566</ele>
        <time>2020-09-20T08:06:46.000Z</time>
      </trkpt>
      <trkpt lat="43.62206" lon="3.75514">
        <ele>125.37101437804</ele>
        <time>2020-09-20T08:06:47.000Z</time>
      </trkpt>
      <trkpt lat="43.62204" lon="3.75512">
        <ele>125.27439605043</ele>
        <time>2020-09-20T08:06:48.000Z</time>
      </trkpt>
      <trkpt lat="43.62202" lon="3.75508">
        <ele>125.17777772281</ele>
        <time>2020-09-20T08:06:49.000Z</time>
      </trkpt>
      <trkpt lat="43.622" lon="3.75505">
        <ele>125.0811593952</ele>
        <time>2020-09-20T08:06:50.000Z</time>
      </trkpt>
      <trkpt lat="43.62199" lon="3.75503">
        <ele>124.98341968362</ele>
        <time>2020-09-20T08:06:51.000Z</time>
      </trkpt>
      <trkpt lat="43.62197" lon="3.755">
        <ele>124.87979270625</ele>
        <time>2020-09-20T08:06:52.000Z</time>
      </trkpt>
      <trkpt lat="43.62195" lon="3.75497">
        <ele>124.77616572888</ele>
        <time>2020-09-20T08:06:53.000Z</time>
      </trkpt>
      <trkpt lat="43.62193" lon="3.75494">
        <ele>124.67253875152</ele>
        <time>2020-09-20T08:06:54.000Z</time>
      </trkpt>
      <trkpt lat="43.62191" lon="3.7549">
        <ele>124.56891177415</ele>
        <time>2020-09-20T08:06:55.000Z</time>
      </trkpt>
      <trkpt lat="43.62189" lon="3.75487">
        <ele>124.46528479678</ele>
        <time>2020-09-20T08:06:56.000Z</time>
      </trkpt>
      <trkpt lat="43.62187" lon="3.75485">
        <ele>124.36165781941</ele>
        <time>2020-09-20T08:06:57.000Z</time>
      </trkpt>
      <trkpt lat="43.62185" lon="3.75482">
        <ele>124.25803084204</ele>
        <time>2020-09-20T08:06:58.000Z</time>
      </trkpt>
      <trkpt lat="43.62184" lon="3.75479">
        <ele>124.15440386467</ele>
        <time>2020-09-20T08:06:59.000Z</time>
      </trkpt>
      <trkpt lat="43.62182" lon="3.75476">
        <ele>124.0507768873</ele>
        <time>2020-09-20T08:07:00.000Z</time>
      </trkpt>
      <trkpt lat="43.62181" lon="3.75474">
        <ele>123.94899968</ele>
        <time>2020-09-20T08:07:01.000Z</time>
      </trkpt>
      <trkpt lat="43.62179" lon="3.75471">
        <ele>123.84899968</ele>
        <time>2020-09-20T08:07:02.000Z</time>
      </trkpt>
      <trkpt lat="43.62178" lon="3.75469">
        <ele>123.74899968</ele>
        <time>2020-09-20T08:07:03.000Z</time>
      </trkpt>
      <trkpt lat="43.62176" lon="3.75467">
        <ele>123.64899968</ele>
        <time>2020-09-20T08:07:04.000Z</time>
      </trkpt>
      <trkpt lat="43.62175" lon="3.75464">
        <ele>123.54899968</ele>
        <time>2020-09-20T08:07:05.000Z</time>
      </trkpt>
      <trkpt lat="43.62174" lon="3.75462">
        <ele>123.44899968</ele>
        <time>2020-09-20T08:07:06.000Z</time>
      </trkpt>
      <trkpt lat="43.62173" lon="3.75459">
        <ele>123.34899968</ele>
        <time>2020-09-20T08:07:07.000Z</time>
      </trkpt>
      <trkpt lat="43.62171" lon="3.75457">
        <ele>123.24899968</ele>
        <time>2020-09-20T08:07:08.000Z</time>
      </trkpt>
      <trkpt lat="43.62169" lon="3.75454">
        <ele>123.04899968</ele>
        <time>2020-09-20T08:07:10.000Z</time>
      </trkpt>
      <trkpt lat="43.62167" lon="3.7545">
        <ele>123.14995061769</ele>
        <time>2020-09-20T08:07:12.000Z</time>
      </trkpt>
      <trkpt lat="43.62166" lon="3.75447">
        <ele>123.34856028646</ele>
        <time>2020-09-20T08:07:14.000Z</time>
      </trkpt>
      <trkpt lat="43.62165" lon="3.75444">
        <ele>123.54716995522</ele>
        <time>2020-09-20T08:07:16.000Z</time>
      </trkpt>
      <trkpt lat="43.62163" lon="3.7544">
        <ele>123.74577962398</ele>
        <time>2020-09-20T08:07:18.000Z</time>
      </trkpt>
      <trkpt lat="43.62162" lon="3.75437">
        <ele>123.84508445836</ele>
        <time>2020-09-20T08:07:19.000Z</time>
      </trkpt>
      <trkpt lat="43.62162" lon="3.75435">
        <ele>123.94438929275</ele>
        <time>2020-09-20T08:07:20.000Z</time>
      </trkpt>
      <trkpt lat="43.62162" lon="3.75432">
        <ele>124</ele>
        <time>2020-09-20T08:07:21.000Z</time>
      </trkpt>
      <trkpt lat="43.62163" lon="3.75429">
        <ele>124</ele>
        <time>2020-09-20T08:07:22.000Z</time>
      </trkpt>
      <trkpt lat="43.62162" lon="3.75426">
        <ele>124</ele>
        <time>2020-09-20T08:07:24.000Z</time>
      </trkpt>
      <trkpt lat="43.62161" lon="3.75423">
        <ele>124</ele>
        <time>2020-09-20T08:07:26.000Z</time>
      </trkpt>
      <trkpt lat="43.6216" lon="3.75419">
        <ele>124</ele>
        <time>2020-09-20T08:07:28.000Z</time>
      </trkpt>
      <trkpt lat="43.62159" lon="3.75416">
        <ele>124</ele>
        <time>2020-09-20T08:07:30.000Z</time>
      </trkpt>
      <trkpt lat="43.62158" lon="3.75413">
        <ele>123.95353473711</ele>
        <time>2020-09-20T08:07:31.000Z</time>
      </trkpt>
      <trkpt lat="43.62157" lon="3.75411">
        <ele>123.75151466569</ele>
        <time>2020-09-20T08:07:32.000Z</time>
      </trkpt>
      <trkpt lat="43.62156" lon="3.75408">
        <ele>123.54949459427</ele>
        <time>2020-09-20T08:07:33.000Z</time>
      </trkpt>
      <trkpt lat="43.62155" lon="3.75406">
        <ele>123.34747452285</ele>
        <time>2020-09-20T08:07:34.000Z</time>
      </trkpt>
      <trkpt lat="43.62154" lon="3.75403">
        <ele>123.14545445142</ele>
        <time>2020-09-20T08:07:35.000Z</time>
      </trkpt>
      <trkpt lat="43.62153" lon="3.75399">
        <ele>122.94343438</ele>
        <time>2020-09-20T08:07:36.000Z</time>
      </trkpt>
      <trkpt lat="43.62151" lon="3.75396">
        <ele>122.74141430858</ele>
        <time>2020-09-20T08:07:37.000Z</time>
      </trkpt>
      <trkpt lat="43.6215" lon="3.75394">
        <ele>122.53939423716</ele>
        <time>2020-09-20T08:07:38.000Z</time>
      </trkpt>
      <trkpt lat="43.6215" lon="3.75392">
        <ele>122.33737416574</ele>
        <time>2020-09-20T08:07:39.000Z</time>
      </trkpt>
      <trkpt lat="43.62148" lon="3.75388">
        <ele>122</ele>
        <time>2020-09-20T08:07:41.000Z</time>
      </trkpt>
      <trkpt lat="43.62146" lon="3.75384">
        <ele>122</ele>
        <time>2020-09-20T08:07:43.000Z</time>
      </trkpt>
      <trkpt lat="43.62145" lon="3.75382">
        <ele>122</ele>
        <time>2020-09-20T08:07:45.000Z</time>
      </trkpt>
      <trkpt lat="43.62145" lon="3.75382">
        <ele>122</ele>
        <time>2020-09-20T08:07:50.000Z</time>
      </trkpt>
      <trkpt lat="43.6214" lon="3.75387">
        <ele>121</ele>
        <time>2020-09-20T08:08:01.000Z</time>
      </trkpt>
      <trkpt lat="43.62138" lon="3.75388">
        <ele>121</ele>
        <time>2020-09-20T08:08:08.000Z</time>
      </trkpt>
      <trkpt lat="43.62134" lon="3.75382">
        <ele>119.9723357377</ele>
        <time>2020-09-20T08:08:19.000Z</time>
      </trkpt>
      <trkpt lat="43.62133" lon="3.7538">
        <ele>119.86987672131</ele>
        <time>2020-09-20T08:08:20.000Z</time>
      </trkpt>
      <trkpt lat="43.62132" lon="3.75377">
        <ele>119.76741770492</ele>
        <time>2020-09-20T08:08:21.000Z</time>
      </trkpt>
      <trkpt lat="43.62131" lon="3.75375">
        <ele>119.66495868853</ele>
        <time>2020-09-20T08:08:22.000Z</time>
      </trkpt>
      <trkpt lat="43.6213" lon="3.75372">
        <ele>119.56249967213</ele>
        <time>2020-09-20T08:08:23.000Z</time>
      </trkpt>
      <trkpt lat="43.62129" lon="3.75369">
        <ele>119.46004065574</ele>
        <time>2020-09-20T08:08:24.000Z</time>
      </trkpt>
      <trkpt lat="43.62127" lon="3.75365">
        <ele>119.35758163934</ele>
        <time>2020-09-20T08:08:25.000Z</time>
      </trkpt>
      <trkpt lat="43.62126" lon="3.75362">
        <ele>119.25512262295</ele>
        <time>2020-09-20T08:08:26.000Z</time>
      </trkpt>
      <trkpt lat="43.62124" lon="3.75358">
        <ele>119.15266360656</ele>
        <time>2020-09-20T08:08:27.000Z</time>
      </trkpt>
      <trkpt lat="43.62123" lon="3.75355">
        <ele>119.05020459016</ele>
        <time>2020-09-20T08:08:28.000Z</time>
      </trkpt>
      <trkpt lat="43.62122" lon="3.75351">
        <ele>119</ele>
        <time>2020-09-20T08:08:29.000Z</time>
      </trkpt>
      <trkpt lat="43.6212" lon="3.75348">
        <ele>119</ele>
        <time>2020-09-20T08:08:30.000Z</time>
      </trkpt>
      <trkpt lat="43.62119" lon="3.75344">
        <ele>119</ele>
        <time>2020-09-20T08:08:31.000Z</time>
      </trkpt>
      <trkpt lat="43.62117" lon="3.75341">
        <ele>119</ele>
        <time>2020-09-20T08:08:32.000Z</time>
      </trkpt>
      <trkpt lat="43.62115" lon="3.75337">
        <ele>119</ele>
        <time>2020-09-20T08:08:33.000Z</time>
      </trkpt>
      <trkpt lat="43.62114" lon="3.75334">
        <ele>119</ele>
        <time>2020-09-20T08:08:34.000Z</time>
      </trkpt>
      <trkpt lat="43.62112" lon="3.7533">
        <ele>119</ele>
        <time>2020-09-20T08:08:35.000Z</time>
      </trkpt>
      <trkpt lat="43.62111" lon="3.75326">
        <ele>119</ele>
        <time>2020-09-20T08:08:36.000Z</time>
      </trkpt>
      <trkpt lat="43.62109" lon="3.75322">
        <ele>119</ele>
        <time>2020-09-20T08:08:37.000Z</time>
      </trkpt>
      <trkpt lat="43.62108" lon="3.75318">
        <ele>119</ele>
        <time>2020-09-20T08:08:38.000Z</time>
      </trkpt>
      <trkpt lat="43.62106" lon="3.75314">
        <ele>119</ele>
        <time>2020-09-20T08:08:39.000Z</time>
      </trkpt>
      <trkpt lat="43.62105" lon="3.7531">
        <ele>119</ele>
        <time>2020-09-20T08:08:40.000Z</time>
      </trkpt>
      <trkpt lat="43.62103" lon="3.75306">
        <ele>119</ele>
        <time>2020-09-20T08:08:41.000Z</time>
      </trkpt>
      <trkpt lat="43.62102" lon="3.75302">
        <ele>119</ele>
        <time>2020-09-20T08:08:42.000Z</time>
      </trkpt>
      <trkpt lat="43.621" lon="3.75298">
        <ele>119</ele>
        <time>2020-09-20T08:08:43.000Z</time>
      </trkpt>
      <trkpt lat="43.62099" lon="3.75294">
        <ele>119</ele>
        <time>2020-09-20T08:08:44.000Z</time>
      </trkpt>
      <trkpt lat="43.62097" lon="3.7529">
        <ele>119</ele>
        <time>2020-09-20T08:08:45.000Z</time>
      </trkpt>
      <trkpt lat="43.62096" lon="3.75286">
        <ele>119</ele>
        <time>2020-09-20T08:08:46.000Z</time>
      </trkpt>
      <trkpt lat="43.62094" lon="3.75282">
        <ele>119</ele>
        <time>2020-09-20T08:08:47.000Z</time>
      </trkpt>
      <trkpt lat="43.62093" lon="3.75278">
        <ele>119</ele>
        <time>2020-09-20T08:08:48.000Z</time>
      </trkpt>
      <trkpt lat="43.62091" lon="3.75275">
        <ele>118.94925346141</ele>
        <time>2020-09-20T08:08:49.000Z</time>
      </trkpt>
      <trkpt lat="43.6209" lon="3.75271">
        <ele>118.8497510689</ele>
        <time>2020-09-20T08:08:50.000Z</time>
      </trkpt>
      <trkpt lat="43.62089" lon="3.75267">
        <ele>118.75024867638</ele>
        <time>2020-09-20T08:08:51.000Z</time>
      </trkpt>
      <trkpt lat="43.62088" lon="3.75264">
        <ele>118.65074628386</ele>
        <time>2020-09-20T08:08:52.000Z</time>
      </trkpt>
      <trkpt lat="43.62086" lon="3.7526">
        <ele>118.55124389135</ele>
        <time>2020-09-20T08:08:53.000Z</time>
      </trkpt>
      <trkpt lat="43.62085" lon="3.75256">
        <ele>118.45174149883</ele>
        <time>2020-09-20T08:08:54.000Z</time>
      </trkpt>
      <trkpt lat="43.62083" lon="3.75251">
        <ele>118.35223910632</ele>
        <time>2020-09-20T08:08:55.000Z</time>
      </trkpt>
      <trkpt lat="43.62082" lon="3.75247">
        <ele>118.2527367138</ele>
        <time>2020-09-20T08:08:56.000Z</time>
      </trkpt>
      <trkpt lat="43.6208" lon="3.75242">
        <ele>118.15323432129</ele>
        <time>2020-09-20T08:08:57.000Z</time>
      </trkpt>
      <trkpt lat="43.62079" lon="3.75238">
        <ele>118.05373192877</ele>
        <time>2020-09-20T08:08:58.000Z</time>
      </trkpt>
      <trkpt lat="43.62078" lon="3.75234">
        <ele>118</ele>
        <time>2020-09-20T08:08:59.000Z</time>
      </trkpt>
      <trkpt lat="43.62076" lon="3.75229">
        <ele>118</ele>
        <time>2020-09-20T08:09:00.000Z</time>
      </trkpt>
      <trkpt lat="43.62075" lon="3.75224">
        <ele>118</ele>
        <time>2020-09-20T08:09:01.000Z</time>
      </trkpt>
      <trkpt lat="43.62074" lon="3.75219">
        <ele>118</ele>
        <time>2020-09-20T08:09:02.000Z</time>
      </trkpt>
      <trkpt lat="43.62072" lon="3.75214">
        <ele>118</ele>
        <time>2020-09-20T08:09:03.000Z</time>
      </trkpt>
      <trkpt lat="43.62071" lon="3.75209">
        <ele>118</ele>
        <time>2020-09-20T08:09:04.000Z</time>
      </trkpt>
      <trkpt lat="43.6207" lon="3.75204">
        <ele>118</ele>
        <time>2020-09-20T08:09:05.000Z</time>
      </trkpt>
      <trkpt lat="43.62069" lon="3.752">
        <ele>118</ele>
        <time>2020-09-20T08:09:06.000Z</time>
      </trkpt>
      <trkpt lat="43.62068" lon="3.75195">
        <ele>118</ele>
        <time>2020-09-20T08:09:07.000Z</time>
      </trkpt>
      <trkpt lat="43.62068" lon="3.75191">
        <ele>118</ele>
        <time>2020-09-20T08:09:08.000Z</time>
      </trkpt>
      <trkpt lat="43.62067" lon="3.75187">
        <ele>117.94899968</ele>
        <time>2020-09-20T08:09:09.000Z</time>
      </trkpt>
      <trkpt lat="43.62066" lon="3.75183">
        <ele>117.84899968</ele>
        <time>2020-09-20T08:09:10.000Z</time>
      </trkpt>
      <trkpt lat="43.62065" lon="3.75179">
        <ele>117.74899968</ele>
        <time>2020-09-20T08:09:11.000Z</time>
      </trkpt>
      <trkpt lat="43.62064" lon="3.75174">
        <ele>117.64899968</ele>
        <time>2020-09-20T08:09:12.000Z</time>
      </trkpt>
      <trkpt lat="43.62064" lon="3.7517">
        <ele>117.54899968</ele>
        <time>2020-09-20T08:09:13.000Z</time>
      </trkpt>
      <trkpt lat="43.62063" lon="3.75165">
        <ele>117.44899968</ele>
        <time>2020-09-20T08:09:14.000Z</time>
      </trkpt>
      <trkpt lat="43.62062" lon="3.7516">
        <ele>117.34899968</ele>
        <time>2020-09-20T08:09:15.000Z</time>
      </trkpt>
      <trkpt lat="43.62062" lon="3.75155">
        <ele>117.24899968</ele>
        <time>2020-09-20T08:09:16.000Z</time>
      </trkpt>
      <trkpt lat="43.62061" lon="3.7515">
        <ele>117.14899968</ele>
        <time>2020-09-20T08:09:17.000Z</time>
      </trkpt>
      <trkpt lat="43.62061" lon="3.75146">
        <ele>117.04899968</ele>
        <time>2020-09-20T08:09:18.000Z</time>
      </trkpt>
      <trkpt lat="43.6206" lon="3.75141">
        <ele>117</ele>
        <time>2020-09-20T08:09:19.000Z</time>
      </trkpt>
      <trkpt lat="43.6206" lon="3.75137">
        <ele>117</ele>
        <time>2020-09-20T08:09:20.000Z</time>
      </trkpt>
      <trkpt lat="43.6206" lon="3.75133">
        <ele>117</ele>
        <time>2020-09-20T08:09:21.000Z</time>
      </trkpt>
      <trkpt lat="43.6206" lon="3.75128">
        <ele>117</ele>
        <time>2020-09-20T08:09:22.000Z</time>
      </trkpt>
      <trkpt lat="43.62059" lon="3.75124">
        <ele>117</ele>
        <time>2020-09-20T08:09:23.000Z</time>
      </trkpt>
      <trkpt lat="43.62059" lon="3.7512">
        <ele>117</ele>
        <time>2020-09-20T08:09:24.000Z</time>
      </trkpt>
      <trkpt lat="43.62059" lon="3.75116">
        <ele>117</ele>
        <time>2020-09-20T08:09:25.000Z</time>
      </trkpt>
      <trkpt lat="43.62058" lon="3.75112">
        <ele>117</ele>
        <time>2020-09-20T08:09:26.000Z</time>
      </trkpt>
      <trkpt lat="43.62058" lon="3.75107">
        <ele>117</ele>
        <time>2020-09-20T08:09:27.000Z</time>
      </trkpt>
      <trkpt lat="43.62058" lon="3.75103">
        <ele>117</ele>
        <time>2020-09-20T08:09:28.000Z</time>
      </trkpt>
      <trkpt lat="43.62058" lon="3.75099">
        <ele>117</ele>
        <time>2020-09-20T08:09:29.000Z</time>
      </trkpt>
      <trkpt lat="43.62058" lon="3.75095">
        <ele>117</ele>
        <time>2020-09-20T08:09:30.000Z</time>
      </trkpt>
      <trkpt lat="43.62058" lon="3.7509">
        <ele>117</ele>
        <time>2020-09-20T08:09:31.000Z</time>
      </trkpt>
      <trkpt lat="43.62058" lon="3.75086">
        <ele>117</ele>
        <time>2020-09-20T08:09:32.000Z</time>
      </trkpt>
      <trkpt lat="43.62058" lon="3.75081">
        <ele>117</ele>
        <time>2020-09-20T08:09:33.000Z</time>
      </trkpt>
      <trkpt lat="43.62058" lon="3.75077">
        <ele>117</ele>
        <time>2020-09-20T08:09:34.000Z</time>
      </trkpt>
      <trkpt lat="43.62058" lon="3.75072">
        <ele>117</ele>
        <time>2020-09-20T08:09:35.000Z</time>
      </trkpt>
      <trkpt lat="43.62059" lon="3.75068">
        <ele>117</ele>
        <time>2020-09-20T08:09:36.000Z</time>
      </trkpt>
      <trkpt lat="43.62059" lon="3.75063">
        <ele>117</ele>
        <time>2020-09-20T08:09:37.000Z</time>
      </trkpt>
      <trkpt lat="43.6206" lon="3.75059">
        <ele>117</ele>
        <time>2020-09-20T08:09:38.000Z</time>
      </trkpt>
      <trkpt lat="43.62062" lon="3.75055">
        <ele>116.94899968</ele>
        <time>2020-09-20T08:09:39.000Z</time>
      </trkpt>
      <trkpt lat="43.62063" lon="3.75051">
        <ele>116.84899968</ele>
        <time>2020-09-20T08:09:40.000Z</time>
      </trkpt>
      <trkpt lat="43.62065" lon="3.75047">
        <ele>116.74899968</ele>
        <time>2020-09-20T08:09:41.000Z</time>
      </trkpt>
      <trkpt lat="43.62066" lon="3.75043">
        <ele>116.64899968</ele>
        <time>2020-09-20T08:09:42.000Z</time>
      </trkpt>
      <trkpt lat="43.62067" lon="3.7504">
        <ele>116.54899968</ele>
        <time>2020-09-20T08:09:43.000Z</time>
      </trkpt>
      <trkpt lat="43.62068" lon="3.75036">
        <ele>116.44899968</ele>
        <time>2020-09-20T08:09:44.000Z</time>
      </trkpt>
      <trkpt lat="43.62069" lon="3.75033">
        <ele>116.34899968</ele>
        <time>2020-09-20T08:09:45.000Z</time>
      </trkpt>
      <trkpt lat="43.6207" lon="3.75029">
        <ele>116.24899968</ele>
        <time>2020-09-20T08:09:46.000Z</time>
      </trkpt>
      <trkpt lat="43.62071" lon="3.75025">
        <ele>116.14899968</ele>
        <time>2020-09-20T08:09:47.000Z</time>
      </trkpt>
      <trkpt lat="43.62072" lon="3.75022">
        <ele>116.04899968</ele>
        <time>2020-09-20T08:09:48.000Z</time>
      </trkpt>
      <trkpt lat="43.62073" lon="3.75018">
        <ele>115.94899968</ele>
        <time>2020-09-20T08:09:49.000Z</time>
      </trkpt>
      <trkpt lat="43.62074" lon="3.75015">
        <ele>115.84899968</ele>
        <time>2020-09-20T08:09:50.000Z</time>
      </trkpt>
      <trkpt lat="43.62074" lon="3.75011">
        <ele>115.74899968</ele>
        <time>2020-09-20T08:09:51.000Z</time>
      </trkpt>
      <trkpt lat="43.62075" lon="3.75007">
        <ele>115.64899968</ele>
        <time>2020-09-20T08:09:52.000Z</time>
      </trkpt>
      <trkpt lat="43.62076" lon="3.75002">
        <ele>115.54899968</ele>
        <time>2020-09-20T08:09:53.000Z</time>
      </trkpt>
      <trkpt lat="43.62077" lon="3.74998">
        <ele>115.44899968</ele>
        <time>2020-09-20T08:09:54.000Z</time>
      </trkpt>
      <trkpt lat="43.62077" lon="3.74993">
        <ele>115.34899968</ele>
        <time>2020-09-20T08:09:55.000Z</time>
      </trkpt>
      <trkpt lat="43.62078" lon="3.74989">
        <ele>115.24899968</ele>
        <time>2020-09-20T08:09:56.000Z</time>
      </trkpt>
      <trkpt lat="43.62079" lon="3.74984">
        <ele>115.14899968</ele>
        <time>2020-09-20T08:09:57.000Z</time>
      </trkpt>
      <trkpt lat="43.6208" lon="3.7498">
        <ele>115.04899968</ele>
        <time>2020-09-20T08:09:58.000Z</time>
      </trkpt>
      <trkpt lat="43.6208" lon="3.74975">
        <ele>114.84699904</ele>
        <time>2020-09-20T08:09:59.000Z</time>
      </trkpt>
      <trkpt lat="43.62081" lon="3.7497">
        <ele>114.54699904</ele>
        <time>2020-09-20T08:10:00.000Z</time>
      </trkpt>
      <trkpt lat="43.62082" lon="3.74965">
        <ele>114.24699904</ele>
        <time>2020-09-20T08:10:01.000Z</time>
      </trkpt>
      <trkpt lat="43.62082" lon="3.74961">
        <ele>113.94699904</ele>
        <time>2020-09-20T08:10:02.000Z</time>
      </trkpt>
      <trkpt lat="43.62083" lon="3.74956">
        <ele>113.64699904</ele>
        <time>2020-09-20T08:10:03.000Z</time>
      </trkpt>
      <trkpt lat="43.62083" lon="3.74951">
        <ele>113.34699904</ele>
        <time>2020-09-20T08:10:04.000Z</time>
      </trkpt>
      <trkpt lat="43.62083" lon="3.74946">
        <ele>113.04699904</ele>
        <time>2020-09-20T08:10:05.000Z</time>
      </trkpt>
      <trkpt lat="43.62084" lon="3.74941">
        <ele>112.74699904</ele>
        <time>2020-09-20T08:10:06.000Z</time>
      </trkpt>
      <trkpt lat="43.62085" lon="3.74935">
        <ele>112.44699904</ele>
        <time>2020-09-20T08:10:07.000Z</time>
      </trkpt>
      <trkpt lat="43.62087" lon="3.7493">
        <ele>112.14699904</ele>
        <time>2020-09-20T08:10:08.000Z</time>
      </trkpt>
      <trkpt lat="43.62088" lon="3.74926">
        <ele>111.95038879377</ele>
        <time>2020-09-20T08:10:09.000Z</time>
      </trkpt>
      <trkpt lat="43.62089" lon="3.74922">
        <ele>111.85311252918</ele>
        <time>2020-09-20T08:10:10.000Z</time>
      </trkpt>
      <trkpt lat="43.62091" lon="3.74918">
        <ele>111.75583626459</ele>
        <time>2020-09-20T08:10:11.000Z</time>
      </trkpt>
      <trkpt lat="43.62092" lon="3.74915">
        <ele>111.65856</ele>
        <time>2020-09-20T08:10:12.000Z</time>
      </trkpt>
      <trkpt lat="43.62094" lon="3.74911">
        <ele>111.56128373541</ele>
        <time>2020-09-20T08:10:13.000Z</time>
      </trkpt>
      <trkpt lat="43.62095" lon="3.74908">
        <ele>111.46400747082</ele>
        <time>2020-09-20T08:10:14.000Z</time>
      </trkpt>
      <trkpt lat="43.62096" lon="3.74905">
        <ele>111.36673120623</ele>
        <time>2020-09-20T08:10:15.000Z</time>
      </trkpt>
      <trkpt lat="43.62097" lon="3.74901">
        <ele>111.26945494163</ele>
        <time>2020-09-20T08:10:16.000Z</time>
      </trkpt>
      <trkpt lat="43.62097" lon="3.74898">
        <ele>111.17217867704</ele>
        <time>2020-09-20T08:10:17.000Z</time>
      </trkpt>
      <trkpt lat="43.62098" lon="3.74894">
        <ele>111.07490241245</ele>
        <time>2020-09-20T08:10:18.000Z</time>
      </trkpt>
      <trkpt lat="43.62099" lon="3.7489">
        <ele>110.97648230578</ele>
        <time>2020-09-20T08:10:19.000Z</time>
      </trkpt>
      <trkpt lat="43.62099" lon="3.74885">
        <ele>110.87423288394</ele>
        <time>2020-09-20T08:10:20.000Z</time>
      </trkpt>
      <trkpt lat="43.621" lon="3.74881">
        <ele>110.7719834621</ele>
        <time>2020-09-20T08:10:21.000Z</time>
      </trkpt>
      <trkpt lat="43.62101" lon="3.74876">
        <ele>110.66973404026</ele>
        <time>2020-09-20T08:10:22.000Z</time>
      </trkpt>
      <trkpt lat="43.62102" lon="3.74872">
        <ele>110.56748461841</ele>
        <time>2020-09-20T08:10:23.000Z</time>
      </trkpt>
      <trkpt lat="43.62104" lon="3.74867">
        <ele>110.46523519657</ele>
        <time>2020-09-20T08:10:24.000Z</time>
      </trkpt>
      <trkpt lat="43.62105" lon="3.74864">
        <ele>110.36298577473</ele>
        <time>2020-09-20T08:10:25.000Z</time>
      </trkpt>
      <trkpt lat="43.62107" lon="3.7486">
        <ele>110.26073635289</ele>
        <time>2020-09-20T08:10:26.000Z</time>
      </trkpt>
      <trkpt lat="43.6211" lon="3.74857">
        <ele>110.15848693105</ele>
        <time>2020-09-20T08:10:27.000Z</time>
      </trkpt>
      <trkpt lat="43.62111" lon="3.74855">
        <ele>110.05623750921</ele>
        <time>2020-09-20T08:10:28.000Z</time>
      </trkpt>
      <trkpt lat="43.62113" lon="3.74851">
        <ele>109.954728663</ele>
        <time>2020-09-20T08:10:29.000Z</time>
      </trkpt>
      <trkpt lat="43.62114" lon="3.74848">
        <ele>109.8541249765</ele>
        <time>2020-09-20T08:10:30.000Z</time>
      </trkpt>
      <trkpt lat="43.62114" lon="3.74843">
        <ele>109.75352128999</ele>
        <time>2020-09-20T08:10:31.000Z</time>
      </trkpt>
      <trkpt lat="43.62113" lon="3.74838">
        <ele>109.65291760349</ele>
        <time>2020-09-20T08:10:32.000Z</time>
      </trkpt>
      <trkpt lat="43.6211" lon="3.74833">
        <ele>109.55231391698</ele>
        <time>2020-09-20T08:10:33.000Z</time>
      </trkpt>
      <trkpt lat="43.62107" lon="3.74829">
        <ele>109.45171023048</ele>
        <time>2020-09-20T08:10:34.000Z</time>
      </trkpt>
      <trkpt lat="43.62104" lon="3.74826">
        <ele>109.35110654397</ele>
        <time>2020-09-20T08:10:35.000Z</time>
      </trkpt>
      <trkpt lat="43.62101" lon="3.74825">
        <ele>109.25050285747</ele>
        <time>2020-09-20T08:10:36.000Z</time>
      </trkpt>
      <trkpt lat="43.62099" lon="3.74824">
        <ele>109.14989917096</ele>
        <time>2020-09-20T08:10:37.000Z</time>
      </trkpt>
      <trkpt lat="43.62096" lon="3.74824">
        <ele>109.04929548446</ele>
        <time>2020-09-20T08:10:38.000Z</time>
      </trkpt>
      <trkpt lat="43.62094" lon="3.74824">
        <ele>108.84699904</ele>
        <time>2020-09-20T08:10:39.000Z</time>
      </trkpt>
      <trkpt lat="43.62092" lon="3.74824">
        <ele>108.54699904</ele>
        <time>2020-09-20T08:10:40.000Z</time>
      </trkpt>
      <trkpt lat="43.6209" lon="3.74826">
        <ele>108.24699904</ele>
        <time>2020-09-20T08:10:41.000Z</time>
      </trkpt>
      <trkpt lat="43.62087" lon="3.74828">
        <ele>107.94699904</ele>
        <time>2020-09-20T08:10:42.000Z</time>
      </trkpt>
      <trkpt lat="43.62084" lon="3.74832">
        <ele>107.64699904</ele>
        <time>2020-09-20T08:10:43.000Z</time>
      </trkpt>
      <trkpt lat="43.62081" lon="3.74835">
        <ele>107.34699904</ele>
        <time>2020-09-20T08:10:44.000Z</time>
      </trkpt>
      <trkpt lat="43.62078" lon="3.74839">
        <ele>107.04699904</ele>
        <time>2020-09-20T08:10:45.000Z</time>
      </trkpt>
      <trkpt lat="43.62074" lon="3.74842">
        <ele>106.74699904</ele>
        <time>2020-09-20T08:10:46.000Z</time>
      </trkpt>
      <trkpt lat="43.62071" lon="3.74847">
        <ele>106.44699904</ele>
        <time>2020-09-20T08:10:47.000Z</time>
      </trkpt>
      <trkpt lat="43.62068" lon="3.74851">
        <ele>106.14699904</ele>
        <time>2020-09-20T08:10:48.000Z</time>
      </trkpt>
      <trkpt lat="43.62066" lon="3.74856">
        <ele>105.94899968</ele>
        <time>2020-09-20T08:10:49.000Z</time>
      </trkpt>
      <trkpt lat="43.62064" lon="3.7486">
        <ele>105.84899968</ele>
        <time>2020-09-20T08:10:50.000Z</time>
      </trkpt>
      <trkpt lat="43.62062" lon="3.74864">
        <ele>105.74899968</ele>
        <time>2020-09-20T08:10:51.000Z</time>
      </trkpt>
      <trkpt lat="43.6206" lon="3.74866">
        <ele>105.64899968</ele>
        <time>2020-09-20T08:10:52.000Z</time>
      </trkpt>
      <trkpt lat="43.62058" lon="3.74867">
        <ele>105.54899968</ele>
        <time>2020-09-20T08:10:53.000Z</time>
      </trkpt>
      <trkpt lat="43.62057" lon="3.7487">
        <ele>105.44899968</ele>
        <time>2020-09-20T08:10:54.000Z</time>
      </trkpt>
      <trkpt lat="43.62057" lon="3.74873">
        <ele>105.34899968</ele>
        <time>2020-09-20T08:10:55.000Z</time>
      </trkpt>
      <trkpt lat="43.62057" lon="3.74878">
        <ele>105.24899968</ele>
        <time>2020-09-20T08:10:56.000Z</time>
      </trkpt>
      <trkpt lat="43.62057" lon="3.74883">
        <ele>105.14899968</ele>
        <time>2020-09-20T08:10:57.000Z</time>
      </trkpt>
      <trkpt lat="43.62058" lon="3.74889">
        <ele>105.04899968</ele>
        <time>2020-09-20T08:10:58.000Z</time>
      </trkpt>
      <trkpt lat="43.62058" lon="3.74894">
        <ele>104.89799936</ele>
        <time>2020-09-20T08:10:59.000Z</time>
      </trkpt>
      <trkpt lat="43.62058" lon="3.749">
        <ele>104.69799936</ele>
        <time>2020-09-20T08:11:00.000Z</time>
      </trkpt>
      <trkpt lat="43.62058" lon="3.74905">
        <ele>104.49799936</ele>
        <time>2020-09-20T08:11:01.000Z</time>
      </trkpt>
      <trkpt lat="43.62057" lon="3.7491">
        <ele>104.29799936</ele>
        <time>2020-09-20T08:11:02.000Z</time>
      </trkpt>
      <trkpt lat="43.62056" lon="3.74914">
        <ele>104.09799936</ele>
        <time>2020-09-20T08:11:03.000Z</time>
      </trkpt>
      <trkpt lat="43.62056" lon="3.74917">
        <ele>103.89799936</ele>
        <time>2020-09-20T08:11:04.000Z</time>
      </trkpt>
      <trkpt lat="43.62056" lon="3.74921">
        <ele>103.69799936</ele>
        <time>2020-09-20T08:11:05.000Z</time>
      </trkpt>
      <trkpt lat="43.62055" lon="3.74924">
        <ele>103.49799936</ele>
        <time>2020-09-20T08:11:06.000Z</time>
      </trkpt>
      <trkpt lat="43.62054" lon="3.74927">
        <ele>103.29799936</ele>
        <time>2020-09-20T08:11:07.000Z</time>
      </trkpt>
      <trkpt lat="43.62053" lon="3.74929">
        <ele>103.09799936</ele>
        <time>2020-09-20T08:11:08.000Z</time>
      </trkpt>
      <trkpt lat="43.62051" lon="3.7493">
        <ele>103</ele>
        <time>2020-09-20T08:11:09.000Z</time>
      </trkpt>
      <trkpt lat="43.62048" lon="3.7493">
        <ele>103</ele>
        <time>2020-09-20T08:11:10.000Z</time>
      </trkpt>
      <trkpt lat="43.62046" lon="3.7493">
        <ele>103</ele>
        <time>2020-09-20T08:11:11.000Z</time>
      </trkpt>
      <trkpt lat="43.62044" lon="3.74932">
        <ele>103</ele>
        <time>2020-09-20T08:11:12.000Z</time>
      </trkpt>
      <trkpt lat="43.62043" lon="3.74934">
        <ele>103</ele>
        <time>2020-09-20T08:11:13.000Z</time>
      </trkpt>
      <trkpt lat="43.62042" lon="3.74936">
        <ele>103</ele>
        <time>2020-09-20T08:11:14.000Z</time>
      </trkpt>
      <trkpt lat="43.6204" lon="3.74939">
        <ele>103</ele>
        <time>2020-09-20T08:11:15.000Z</time>
      </trkpt>
      <trkpt lat="43.62039" lon="3.74941">
        <ele>103</ele>
        <time>2020-09-20T08:11:16.000Z</time>
      </trkpt>
      <trkpt lat="43.62038" lon="3.74944">
        <ele>103</ele>
        <time>2020-09-20T08:11:17.000Z</time>
      </trkpt>
      <trkpt lat="43.62037" lon="3.74948">
        <ele>103</ele>
        <time>2020-09-20T08:11:18.000Z</time>
      </trkpt>
      <trkpt lat="43.62036" lon="3.74952">
        <ele>103</ele>
        <time>2020-09-20T08:11:19.000Z</time>
      </trkpt>
      <trkpt lat="43.62035" lon="3.74956">
        <ele>103</ele>
        <time>2020-09-20T08:11:20.000Z</time>
      </trkpt>
      <trkpt lat="43.62034" lon="3.7496">
        <ele>103</ele>
        <time>2020-09-20T08:11:21.000Z</time>
      </trkpt>
      <trkpt lat="43.62033" lon="3.74964">
        <ele>103</ele>
        <time>2020-09-20T08:11:22.000Z</time>
      </trkpt>
      <trkpt lat="43.62032" lon="3.74968">
        <ele>103</ele>
        <time>2020-09-20T08:11:23.000Z</time>
      </trkpt>
      <trkpt lat="43.62031" lon="3.74972">
        <ele>103</ele>
        <time>2020-09-20T08:11:24.000Z</time>
      </trkpt>
      <trkpt lat="43.62029" lon="3.74975">
        <ele>103</ele>
        <time>2020-09-20T08:11:25.000Z</time>
      </trkpt>
      <trkpt lat="43.62028" lon="3.74979">
        <ele>103</ele>
        <time>2020-09-20T08:11:26.000Z</time>
      </trkpt>
      <trkpt lat="43.62025" lon="3.74981">
        <ele>103</ele>
        <time>2020-09-20T08:11:27.000Z</time>
      </trkpt>
      <trkpt lat="43.62023" lon="3.74984">
        <ele>103</ele>
        <time>2020-09-20T08:11:28.000Z</time>
      </trkpt>
      <trkpt lat="43.62021" lon="3.74986">
        <ele>103</ele>
        <time>2020-09-20T08:11:29.000Z</time>
      </trkpt>
      <trkpt lat="43.6202" lon="3.74989">
        <ele>103</ele>
        <time>2020-09-20T08:11:30.000Z</time>
      </trkpt>
      <trkpt lat="43.62019" lon="3.74992">
        <ele>103</ele>
        <time>2020-09-20T08:11:31.000Z</time>
      </trkpt>
      <trkpt lat="43.62018" lon="3.74996">
        <ele>103</ele>
        <time>2020-09-20T08:11:32.000Z</time>
      </trkpt>
      <trkpt lat="43.62017" lon="3.75">
        <ele>103</ele>
        <time>2020-09-20T08:11:33.000Z</time>
      </trkpt>
      <trkpt lat="43.62015" lon="3.75004">
        <ele>103</ele>
        <time>2020-09-20T08:11:34.000Z</time>
      </trkpt>
      <trkpt lat="43.62013" lon="3.75008">
        <ele>103</ele>
        <time>2020-09-20T08:11:35.000Z</time>
      </trkpt>
      <trkpt lat="43.62011" lon="3.75012">
        <ele>103</ele>
        <time>2020-09-20T08:11:36.000Z</time>
      </trkpt>
      <trkpt lat="43.62008" lon="3.75016">
        <ele>103</ele>
        <time>2020-09-20T08:11:37.000Z</time>
      </trkpt>
      <trkpt lat="43.62005" lon="3.75019">
        <ele>103</ele>
        <time>2020-09-20T08:11:38.000Z</time>
      </trkpt>
      <trkpt lat="43.62001" lon="3.75022">
        <ele>102.95043218201</ele>
        <time>2020-09-20T08:11:39.000Z</time>
      </trkpt>
      <trkpt lat="43.61998" lon="3.75024">
        <ele>102.85324099185</ele>
        <time>2020-09-20T08:11:40.000Z</time>
      </trkpt>
      <trkpt lat="43.61994" lon="3.75027">
        <ele>102.7560498017</ele>
        <time>2020-09-20T08:11:41.000Z</time>
      </trkpt>
      <trkpt lat="43.61992" lon="3.7503">
        <ele>102.65885861154</ele>
        <time>2020-09-20T08:11:42.000Z</time>
      </trkpt>
      <trkpt lat="43.61989" lon="3.75033">
        <ele>102.56166742139</ele>
        <time>2020-09-20T08:11:43.000Z</time>
      </trkpt>
      <trkpt lat="43.61986" lon="3.75034">
        <ele>102.46447623123</ele>
        <time>2020-09-20T08:11:44.000Z</time>
      </trkpt>
      <trkpt lat="43.61983" lon="3.75034">
        <ele>102.36728504108</ele>
        <time>2020-09-20T08:11:45.000Z</time>
      </trkpt>
      <trkpt lat="43.61981" lon="3.75035">
        <ele>102.27009385092</ele>
        <time>2020-09-20T08:11:46.000Z</time>
      </trkpt>
      <trkpt lat="43.61978" lon="3.75037">
        <ele>102.17290266077</ele>
        <time>2020-09-20T08:11:47.000Z</time>
      </trkpt>
      <trkpt lat="43.61974" lon="3.75039">
        <ele>102.07571147061</ele>
        <time>2020-09-20T08:11:48.000Z</time>
      </trkpt>
      <trkpt lat="43.6197" lon="3.75041">
        <ele>102</ele>
        <time>2020-09-20T08:11:49.000Z</time>
      </trkpt>
      <trkpt lat="43.61967" lon="3.75041">
        <ele>102</ele>
        <time>2020-09-20T08:11:50.000Z</time>
      </trkpt>
      <trkpt lat="43.61964" lon="3.75042">
        <ele>102</ele>
        <time>2020-09-20T08:11:51.000Z</time>
      </trkpt>
      <trkpt lat="43.61961" lon="3.75044">
        <ele>102</ele>
        <time>2020-09-20T08:11:52.000Z</time>
      </trkpt>
      <trkpt lat="43.61958" lon="3.75047">
        <ele>102</ele>
        <time>2020-09-20T08:11:53.000Z</time>
      </trkpt>
      <trkpt lat="43.61955" lon="3.75049">
        <ele>102</ele>
        <time>2020-09-20T08:11:54.000Z</time>
      </trkpt>
      <trkpt lat="43.61951" lon="3.75051">
        <ele>102</ele>
        <time>2020-09-20T08:11:55.000Z</time>
      </trkpt>
      <trkpt lat="43.61948" lon="3.75054">
        <ele>102</ele>
        <time>2020-09-20T08:11:56.000Z</time>
      </trkpt>
      <trkpt lat="43.61945" lon="3.75056">
        <ele>102</ele>
        <time>2020-09-20T08:11:57.000Z</time>
      </trkpt>
      <trkpt lat="43.61942" lon="3.75058">
        <ele>102</ele>
        <time>2020-09-20T08:11:58.000Z</time>
      </trkpt>
      <trkpt lat="43.61939" lon="3.7506">
        <ele>101.94899968</ele>
        <time>2020-09-20T08:11:59.000Z</time>
      </trkpt>
      <trkpt lat="43.61936" lon="3.75062">
        <ele>101.84899968</ele>
        <time>2020-09-20T08:12:00.000Z</time>
      </trkpt>
      <trkpt lat="43.61934" lon="3.75063">
        <ele>101.74899968</ele>
        <time>2020-09-20T08:12:01.000Z</time>
      </trkpt>
      <trkpt lat="43.61932" lon="3.75065">
        <ele>101.64899968</ele>
        <time>2020-09-20T08:12:02.000Z</time>
      </trkpt>
      <trkpt lat="43.61929" lon="3.75067">
        <ele>101.54899968</ele>
        <time>2020-09-20T08:12:03.000Z</time>
      </trkpt>
      <trkpt lat="43.61927" lon="3.75069">
        <ele>101.44899968</ele>
        <time>2020-09-20T08:12:04.000Z</time>
      </trkpt>
      <trkpt lat="43.61924" lon="3.7507">
        <ele>101.34899968</ele>
        <time>2020-09-20T08:12:05.000Z</time>
      </trkpt>
      <trkpt lat="43.6192" lon="3.75072">
        <ele>101.24899968</ele>
        <time>2020-09-20T08:12:06.000Z</time>
      </trkpt>
      <trkpt lat="43.61917" lon="3.75074">
        <ele>101.14899968</ele>
        <time>2020-09-20T08:12:07.000Z</time>
      </trkpt>
      <trkpt lat="43.61915" lon="3.75075">
        <ele>101.04899968</ele>
        <time>2020-09-20T08:12:08.000Z</time>
      </trkpt>
      <trkpt lat="43.61912" lon="3.75076">
        <ele>101</ele>
        <time>2020-09-20T08:12:09.000Z</time>
      </trkpt>
      <trkpt lat="43.61909" lon="3.75078">
        <ele>101</ele>
        <time>2020-09-20T08:12:10.000Z</time>
      </trkpt>
      <trkpt lat="43.61905" lon="3.75079">
        <ele>101</ele>
        <time>2020-09-20T08:12:11.000Z</time>
      </trkpt>
      <trkpt lat="43.61902" lon="3.7508">
        <ele>101</ele>
        <time>2020-09-20T08:12:12.000Z</time>
      </trkpt>
      <trkpt lat="43.61899" lon="3.75081">
        <ele>101</ele>
        <time>2020-09-20T08:12:13.000Z</time>
      </trkpt>
      <trkpt lat="43.61895" lon="3.75082">
        <ele>101</ele>
        <time>2020-09-20T08:12:14.000Z</time>
      </trkpt>
      <trkpt lat="43.61892" lon="3.75083">
        <ele>101</ele>
        <time>2020-09-20T08:12:15.000Z</time>
      </trkpt>
      <trkpt lat="43.61888" lon="3.75084">
        <ele>101</ele>
        <time>2020-09-20T08:12:16.000Z</time>
      </trkpt>
      <trkpt lat="43.61885" lon="3.75085">
        <ele>101</ele>
        <time>2020-09-20T08:12:17.000Z</time>
      </trkpt>
      <trkpt lat="43.61882" lon="3.75086">
        <ele>101</ele>
        <time>2020-09-20T08:12:18.000Z</time>
      </trkpt>
      <trkpt lat="43.61879" lon="3.75086">
        <ele>100.94899968</ele>
        <time>2020-09-20T08:12:19.000Z</time>
      </trkpt>
      <trkpt lat="43.61875" lon="3.75086">
        <ele>100.84899968</ele>
        <time>2020-09-20T08:12:20.000Z</time>
      </trkpt>
      <trkpt lat="43.61872" lon="3.75086">
        <ele>100.74899968</ele>
        <time>2020-09-20T08:12:21.000Z</time>
      </trkpt>
      <trkpt lat="43.61869" lon="3.75086">
        <ele>100.64899968</ele>
        <time>2020-09-20T08:12:22.000Z</time>
      </trkpt>
      <trkpt lat="43.61866" lon="3.75087">
        <ele>100.54899968</ele>
        <time>2020-09-20T08:12:23.000Z</time>
      </trkpt>
      <trkpt lat="43.61862" lon="3.75088">
        <ele>100.44899968</ele>
        <time>2020-09-20T08:12:24.000Z</time>
      </trkpt>
      <trkpt lat="43.61858" lon="3.75089">
        <ele>100.34899968</ele>
        <time>2020-09-20T08:12:25.000Z</time>
      </trkpt>
      <trkpt lat="43.61854" lon="3.7509">
        <ele>100.24899968</ele>
        <time>2020-09-20T08:12:26.000Z</time>
      </trkpt>
      <trkpt lat="43.6185" lon="3.75091">
        <ele>100.14899968</ele>
        <time>2020-09-20T08:12:27.000Z</time>
      </trkpt>
      <trkpt lat="43.61846" lon="3.75092">
        <ele>100.04899968</ele>
        <time>2020-09-20T08:12:28.000Z</time>
      </trkpt>
      <trkpt lat="43.61841" lon="3.75093">
        <ele>99.949101509556</ele>
        <time>2020-09-20T08:12:29.000Z</time>
      </trkpt>
      <trkpt lat="43.61838" lon="3.75095">
        <ele>99.849301174099</ele>
        <time>2020-09-20T08:12:30.000Z</time>
      </trkpt>
      <trkpt lat="43.61835" lon="3.75098">
        <ele>99.749500838642</ele>
        <time>2020-09-20T08:12:31.000Z</time>
      </trkpt>
      <trkpt lat="43.61831" lon="3.751">
        <ele>99.649700503185</ele>
        <time>2020-09-20T08:12:32.000Z</time>
      </trkpt>
      <trkpt lat="43.61828" lon="3.75102">
        <ele>99.549900167728</ele>
        <time>2020-09-20T08:12:33.000Z</time>
      </trkpt>
      <trkpt lat="43.61825" lon="3.75104">
        <ele>99.450099832272</ele>
        <time>2020-09-20T08:12:34.000Z</time>
      </trkpt>
      <trkpt lat="43.61822" lon="3.75106">
        <ele>99.350299496815</ele>
        <time>2020-09-20T08:12:35.000Z</time>
      </trkpt>
      <trkpt lat="43.61819" lon="3.75108">
        <ele>99.250499161358</ele>
        <time>2020-09-20T08:12:36.000Z</time>
      </trkpt>
      <trkpt lat="43.61817" lon="3.7511">
        <ele>99.150698825901</ele>
        <time>2020-09-20T08:12:37.000Z</time>
      </trkpt>
      <trkpt lat="43.61814" lon="3.75113">
        <ele>99.050898490444</ele>
        <time>2020-09-20T08:12:38.000Z</time>
      </trkpt>
      <trkpt lat="43.61812" lon="3.75115">
        <ele>99</ele>
        <time>2020-09-20T08:12:39.000Z</time>
      </trkpt>
      <trkpt lat="43.61809" lon="3.75117">
        <ele>99</ele>
        <time>2020-09-20T08:12:40.000Z</time>
      </trkpt>
      <trkpt lat="43.61807" lon="3.75119">
        <ele>99</ele>
        <time>2020-09-20T08:12:41.000Z</time>
      </trkpt>
      <trkpt lat="43.61804" lon="3.75121">
        <ele>99</ele>
        <time>2020-09-20T08:12:42.000Z</time>
      </trkpt>
      <trkpt lat="43.61802" lon="3.75123">
        <ele>99</ele>
        <time>2020-09-20T08:12:43.000Z</time>
      </trkpt>
      <trkpt lat="43.618" lon="3.75123">
        <ele>99</ele>
        <time>2020-09-20T08:12:44.000Z</time>
      </trkpt>
      <trkpt lat="43.61798" lon="3.75121">
        <ele>99</ele>
        <time>2020-09-20T08:12:45.000Z</time>
      </trkpt>
      <trkpt lat="43.61797" lon="3.75118">
        <ele>99</ele>
        <time>2020-09-20T08:12:46.000Z</time>
      </trkpt>
      <trkpt lat="43.61797" lon="3.75115">
        <ele>99</ele>
        <time>2020-09-20T08:12:47.000Z</time>
      </trkpt>
      <trkpt lat="43.61798" lon="3.75112">
        <ele>99</ele>
        <time>2020-09-20T08:12:48.000Z</time>
      </trkpt>
      <trkpt lat="43.61798" lon="3.75109">
        <ele>99.050246604848</ele>
        <time>2020-09-20T08:12:49.000Z</time>
      </trkpt>
      <trkpt lat="43.61799" lon="3.75106">
        <ele>99.148768741275</ele>
        <time>2020-09-20T08:12:50.000Z</time>
      </trkpt>
      <trkpt lat="43.61799" lon="3.75103">
        <ele>99.247290877701</ele>
        <time>2020-09-20T08:12:51.000Z</time>
      </trkpt>
      <trkpt lat="43.61799" lon="3.75099">
        <ele>99.444335150554</ele>
        <time>2020-09-20T08:12:53.000Z</time>
      </trkpt>
      <trkpt lat="43.61799" lon="3.75096">
        <ele>99.542857286981</ele>
        <time>2020-09-20T08:12:54.000Z</time>
      </trkpt>
      <trkpt lat="43.61799" lon="3.75091">
        <ele>99.641379423407</ele>
        <time>2020-09-20T08:12:55.000Z</time>
      </trkpt>
      <trkpt lat="43.618" lon="3.75086">
        <ele>99.739901559834</ele>
        <time>2020-09-20T08:12:56.000Z</time>
      </trkpt>
      <trkpt lat="43.61801" lon="3.75081">
        <ele>99.838423696261</ele>
        <time>2020-09-20T08:12:57.000Z</time>
      </trkpt>
      <trkpt lat="43.61802" lon="3.75076">
        <ele>99.936945832687</ele>
        <time>2020-09-20T08:12:58.000Z</time>
      </trkpt>
      <trkpt lat="43.61803" lon="3.75071">
        <ele>100.0726538615</ele>
        <time>2020-09-20T08:12:59.000Z</time>
      </trkpt>
      <trkpt lat="43.61804" lon="3.75068">
        <ele>100.27447014346</ele>
        <time>2020-09-20T08:13:00.000Z</time>
      </trkpt>
      <trkpt lat="43.61805" lon="3.75064">
        <ele>100.47628642542</ele>
        <time>2020-09-20T08:13:01.000Z</time>
      </trkpt>
      <trkpt lat="43.61806" lon="3.75061">
        <ele>100.67810270737</ele>
        <time>2020-09-20T08:13:02.000Z</time>
      </trkpt>
      <trkpt lat="43.61807" lon="3.75058">
        <ele>100.87991898933</ele>
        <time>2020-09-20T08:13:03.000Z</time>
      </trkpt>
      <trkpt lat="43.61808" lon="3.75055">
        <ele>101.08173527129</ele>
        <time>2020-09-20T08:13:04.000Z</time>
      </trkpt>
      <trkpt lat="43.61808" lon="3.75051">
        <ele>101.28355155324</ele>
        <time>2020-09-20T08:13:05.000Z</time>
      </trkpt>
      <trkpt lat="43.61808" lon="3.75048">
        <ele>101.4853678352</ele>
        <time>2020-09-20T08:13:06.000Z</time>
      </trkpt>
      <trkpt lat="43.61809" lon="3.75046">
        <ele>101.68718411715</ele>
        <time>2020-09-20T08:13:07.000Z</time>
      </trkpt>
      <trkpt lat="43.61808" lon="3.75041">
        <ele>102.09054267399</ele>
        <time>2020-09-20T08:13:09.000Z</time>
      </trkpt>
      <trkpt lat="43.61807" lon="3.75037">
        <ele>102.49295742001</ele>
        <time>2020-09-20T08:13:11.000Z</time>
      </trkpt>
      <trkpt lat="43.61807" lon="3.75034">
        <ele>102.69416479302</ele>
        <time>2020-09-20T08:13:12.000Z</time>
      </trkpt>
      <trkpt lat="43.61807" lon="3.75031">
        <ele>102.89537216603</ele>
        <time>2020-09-20T08:13:13.000Z</time>
      </trkpt>
      <trkpt lat="43.61807" lon="3.75028">
        <ele>103.09657953904</ele>
        <time>2020-09-20T08:13:14.000Z</time>
      </trkpt>
      <trkpt lat="43.61808" lon="3.75025">
        <ele>103.29778691206</ele>
        <time>2020-09-20T08:13:15.000Z</time>
      </trkpt>
      <trkpt lat="43.61808" lon="3.75022">
        <ele>103.49899428507</ele>
        <time>2020-09-20T08:13:16.000Z</time>
      </trkpt>
      <trkpt lat="43.61809" lon="3.75018">
        <ele>103.70020165808</ele>
        <time>2020-09-20T08:13:17.000Z</time>
      </trkpt>
      <trkpt lat="43.61809" lon="3.75014">
        <ele>103.90140903109</ele>
        <time>2020-09-20T08:13:18.000Z</time>
      </trkpt>
      <trkpt lat="43.61809" lon="3.7501">
        <ele>104.04961120623</ele>
        <time>2020-09-20T08:13:19.000Z</time>
      </trkpt>
      <trkpt lat="43.61809" lon="3.75007">
        <ele>104.14688747082</ele>
        <time>2020-09-20T08:13:20.000Z</time>
      </trkpt>
      <trkpt lat="43.61808" lon="3.75003">
        <ele>104.24416373541</ele>
        <time>2020-09-20T08:13:21.000Z</time>
      </trkpt>
      <trkpt lat="43.61808" lon="3.74999">
        <ele>104.34144</ele>
        <time>2020-09-20T08:13:22.000Z</time>
      </trkpt>
      <trkpt lat="43.61808" lon="3.74995">
        <ele>104.43871626459</ele>
        <time>2020-09-20T08:13:23.000Z</time>
      </trkpt>
      <trkpt lat="43.61808" lon="3.74991">
        <ele>104.53599252918</ele>
        <time>2020-09-20T08:13:24.000Z</time>
      </trkpt>
      <trkpt lat="43.61807" lon="3.74987">
        <ele>104.63326879377</ele>
        <time>2020-09-20T08:13:25.000Z</time>
      </trkpt>
      <trkpt lat="43.61806" lon="3.74983">
        <ele>104.73054505837</ele>
        <time>2020-09-20T08:13:26.000Z</time>
      </trkpt>
      <trkpt lat="43.61804" lon="3.74978">
        <ele>104.82782132296</ele>
        <time>2020-09-20T08:13:27.000Z</time>
      </trkpt>
      <trkpt lat="43.61803" lon="3.74974">
        <ele>104.92509758755</ele>
        <time>2020-09-20T08:13:28.000Z</time>
      </trkpt>
      <trkpt lat="43.61802" lon="3.74969">
        <ele>105.02366288066</ele>
        <time>2020-09-20T08:13:29.000Z</time>
      </trkpt>
      <trkpt lat="43.618" lon="3.74965">
        <ele>105.12654353909</ele>
        <time>2020-09-20T08:13:30.000Z</time>
      </trkpt>
      <trkpt lat="43.61799" lon="3.74962">
        <ele>105.22942419753</ele>
        <time>2020-09-20T08:13:31.000Z</time>
      </trkpt>
      <trkpt lat="43.61797" lon="3.74958">
        <ele>105.33230485597</ele>
        <time>2020-09-20T08:13:32.000Z</time>
      </trkpt>
      <trkpt lat="43.61794" lon="3.74955">
        <ele>105.4351855144</ele>
        <time>2020-09-20T08:13:33.000Z</time>
      </trkpt>
      <trkpt lat="43.61793" lon="3.74952">
        <ele>105.53806617284</ele>
        <time>2020-09-20T08:13:34.000Z</time>
      </trkpt>
      <trkpt lat="43.61791" lon="3.74949">
        <ele>105.64094683128</ele>
        <time>2020-09-20T08:13:35.000Z</time>
      </trkpt>
      <trkpt lat="43.61789" lon="3.74946">
        <ele>105.74382748971</ele>
        <time>2020-09-20T08:13:36.000Z</time>
      </trkpt>
      <trkpt lat="43.61787" lon="3.74943">
        <ele>105.84670814815</ele>
        <time>2020-09-20T08:13:37.000Z</time>
      </trkpt>
      <trkpt lat="43.61785" lon="3.7494">
        <ele>105.94958880658</ele>
        <time>2020-09-20T08:13:38.000Z</time>
      </trkpt>
      <trkpt lat="43.61782" lon="3.74937">
        <ele>106</ele>
        <time>2020-09-20T08:13:39.000Z</time>
      </trkpt>
      <trkpt lat="43.6178" lon="3.74934">
        <ele>106</ele>
        <time>2020-09-20T08:13:40.000Z</time>
      </trkpt>
      <trkpt lat="43.61778" lon="3.74931">
        <ele>106</ele>
        <time>2020-09-20T08:13:41.000Z</time>
      </trkpt>
      <trkpt lat="43.61777" lon="3.74929">
        <ele>106</ele>
        <time>2020-09-20T08:13:42.000Z</time>
      </trkpt>
      <trkpt lat="43.61775" lon="3.74927">
        <ele>106</ele>
        <time>2020-09-20T08:13:43.000Z</time>
      </trkpt>
      <trkpt lat="43.61773" lon="3.74925">
        <ele>106</ele>
        <time>2020-09-20T08:13:44.000Z</time>
      </trkpt>
      <trkpt lat="43.6177" lon="3.74923">
        <ele>106</ele>
        <time>2020-09-20T08:13:45.000Z</time>
      </trkpt>
      <trkpt lat="43.61768" lon="3.74921">
        <ele>106</ele>
        <time>2020-09-20T08:13:46.000Z</time>
      </trkpt>
      <trkpt lat="43.61766" lon="3.74919">
        <ele>106</ele>
        <time>2020-09-20T08:13:47.000Z</time>
      </trkpt>
      <trkpt lat="43.61764" lon="3.74918">
        <ele>106</ele>
        <time>2020-09-20T08:13:48.000Z</time>
      </trkpt>
      <trkpt lat="43.61762" lon="3.74916">
        <ele>106.10200064</ele>
        <time>2020-09-20T08:13:49.000Z</time>
      </trkpt>
      <trkpt lat="43.61759" lon="3.74914">
        <ele>106.30200064</ele>
        <time>2020-09-20T08:13:50.000Z</time>
      </trkpt>
      <trkpt lat="43.61757" lon="3.74912">
        <ele>106.50200064</ele>
        <time>2020-09-20T08:13:51.000Z</time>
      </trkpt>
      <trkpt lat="43.61755" lon="3.7491">
        <ele>106.70200064</ele>
        <time>2020-09-20T08:13:52.000Z</time>
      </trkpt>
      <trkpt lat="43.61753" lon="3.74908">
        <ele>106.90200064</ele>
        <time>2020-09-20T08:13:53.000Z</time>
      </trkpt>
      <trkpt lat="43.61751" lon="3.74907">
        <ele>107.10200064</ele>
        <time>2020-09-20T08:13:54.000Z</time>
      </trkpt>
      <trkpt lat="43.61749" lon="3.74906">
        <ele>107.30200064</ele>
        <time>2020-09-20T08:13:55.000Z</time>
      </trkpt>
      <trkpt lat="43.61745" lon="3.74904">
        <ele>107.70200064</ele>
        <time>2020-09-20T08:13:57.000Z</time>
      </trkpt>
      <trkpt lat="43.61743" lon="3.74903">
        <ele>107.90200064</ele>
        <time>2020-09-20T08:13:58.000Z</time>
      </trkpt>
      <trkpt lat="43.6174" lon="3.74902">
        <ele>108.04802287125</ele>
        <time>2020-09-20T08:13:59.000Z</time>
      </trkpt>
      <trkpt lat="43.61738" lon="3.74901">
        <ele>108.14218477307</ele>
        <time>2020-09-20T08:14:00.000Z</time>
      </trkpt>
      <trkpt lat="43.61736" lon="3.74899">
        <ele>108.2363466749</ele>
        <time>2020-09-20T08:14:01.000Z</time>
      </trkpt>
      <trkpt lat="43.61734" lon="3.74899">
        <ele>108.33050857672</ele>
        <time>2020-09-20T08:14:02.000Z</time>
      </trkpt>
      <trkpt lat="43.6173" lon="3.74897">
        <ele>108.51883238036</ele>
        <time>2020-09-20T08:14:04.000Z</time>
      </trkpt>
      <trkpt lat="43.61727" lon="3.74896">
        <ele>108.61299428219</ele>
        <time>2020-09-20T08:14:05.000Z</time>
      </trkpt>
      <trkpt lat="43.61724" lon="3.74893">
        <ele>108.70715618401</ele>
        <time>2020-09-20T08:14:06.000Z</time>
      </trkpt>
      <trkpt lat="43.61721" lon="3.7489">
        <ele>108.80131808584</ele>
        <time>2020-09-20T08:14:07.000Z</time>
      </trkpt>
      <trkpt lat="43.61719" lon="3.74888">
        <ele>108.89547998766</ele>
        <time>2020-09-20T08:14:08.000Z</time>
      </trkpt>
      <trkpt lat="43.61716" lon="3.74886">
        <ele>108.98964188948</ele>
        <time>2020-09-20T08:14:09.000Z</time>
      </trkpt>
      <trkpt lat="43.61713" lon="3.74883">
        <ele>109.1897649056</ele>
        <time>2020-09-20T08:14:10.000Z</time>
      </trkpt>
      <trkpt lat="43.61711" lon="3.7488">
        <ele>109.40298466728</ele>
        <time>2020-09-20T08:14:11.000Z</time>
      </trkpt>
      <trkpt lat="43.61709" lon="3.74878">
        <ele>109.61620442897</ele>
        <time>2020-09-20T08:14:12.000Z</time>
      </trkpt>
      <trkpt lat="43.61708" lon="3.74874">
        <ele>109.82942419065</ele>
        <time>2020-09-20T08:14:13.000Z</time>
      </trkpt>
      <trkpt lat="43.61706" lon="3.74871">
        <ele>110.04264395234</ele>
        <time>2020-09-20T08:14:14.000Z</time>
      </trkpt>
      <trkpt lat="43.61705" lon="3.74867">
        <ele>110.25586371402</ele>
        <time>2020-09-20T08:14:15.000Z</time>
      </trkpt>
      <trkpt lat="43.61704" lon="3.74862">
        <ele>110.46908347571</ele>
        <time>2020-09-20T08:14:16.000Z</time>
      </trkpt>
      <trkpt lat="43.61704" lon="3.74858">
        <ele>110.68230323739</ele>
        <time>2020-09-20T08:14:17.000Z</time>
      </trkpt>
      <trkpt lat="43.61704" lon="3.74854">
        <ele>110.89552299908</ele>
        <time>2020-09-20T08:14:18.000Z</time>
      </trkpt>
      <trkpt lat="43.61703" lon="3.7485">
        <ele>111.05100032</ele>
        <time>2020-09-20T08:14:19.000Z</time>
      </trkpt>
      <trkpt lat="43.61703" lon="3.74847">
        <ele>111.15100032</ele>
        <time>2020-09-20T08:14:20.000Z</time>
      </trkpt>
      <trkpt lat="43.61702" lon="3.74844">
        <ele>111.25100032</ele>
        <time>2020-09-20T08:14:21.000Z</time>
      </trkpt>
      <trkpt lat="43.61702" lon="3.74834">
        <ele>111.45100032</ele>
        <time>2020-09-20T08:14:23.000Z</time>
      </trkpt>
      <trkpt lat="43.61703" lon="3.74829">
        <ele>111.55100032</ele>
        <time>2020-09-20T08:14:24.000Z</time>
      </trkpt>
      <trkpt lat="43.61702" lon="3.74825">
        <ele>111.65100032</ele>
        <time>2020-09-20T08:14:25.000Z</time>
      </trkpt>
      <trkpt lat="43.61702" lon="3.74821">
        <ele>111.75100032</ele>
        <time>2020-09-20T08:14:26.000Z</time>
      </trkpt>
      <trkpt lat="43.61702" lon="3.74817">
        <ele>111.85100032</ele>
        <time>2020-09-20T08:14:27.000Z</time>
      </trkpt>
      <trkpt lat="43.61701" lon="3.74813">
        <ele>111.95100032</ele>
        <time>2020-09-20T08:14:28.000Z</time>
      </trkpt>
      <trkpt lat="43.61701" lon="3.74809">
        <ele>112.05069611089</ele>
        <time>2020-09-20T08:14:29.000Z</time>
      </trkpt>
      <trkpt lat="43.617" lon="3.74806">
        <ele>112.15009962618</ele>
        <time>2020-09-20T08:14:30.000Z</time>
      </trkpt>
      <trkpt lat="43.617" lon="3.74802">
        <ele>112.24950314147</ele>
        <time>2020-09-20T08:14:31.000Z</time>
      </trkpt>
      <trkpt lat="43.61699" lon="3.74798">
        <ele>112.34890665676</ele>
        <time>2020-09-20T08:14:32.000Z</time>
      </trkpt>
      <trkpt lat="43.61698" lon="3.74794">
        <ele>112.44831017205</ele>
        <time>2020-09-20T08:14:33.000Z</time>
      </trkpt>
      <trkpt lat="43.61696" lon="3.7479">
        <ele>112.54771368734</ele>
        <time>2020-09-20T08:14:34.000Z</time>
      </trkpt>
      <trkpt lat="43.61695" lon="3.74787">
        <ele>112.64711720263</ele>
        <time>2020-09-20T08:14:35.000Z</time>
      </trkpt>
      <trkpt lat="43.61694" lon="3.74783">
        <ele>112.74652071792</ele>
        <time>2020-09-20T08:14:36.000Z</time>
      </trkpt>
      <trkpt lat="43.61693" lon="3.74779">
        <ele>112.84592423321</ele>
        <time>2020-09-20T08:14:37.000Z</time>
      </trkpt>
      <trkpt lat="43.61691" lon="3.74776">
        <ele>112.9453277485</ele>
        <time>2020-09-20T08:14:38.000Z</time>
      </trkpt>
      <trkpt lat="43.61689" lon="3.74772">
        <ele>112.954728663</ele>
        <time>2020-09-20T08:14:39.000Z</time>
      </trkpt>
      <trkpt lat="43.61688" lon="3.74767">
        <ele>112.8541249765</ele>
        <time>2020-09-20T08:14:40.000Z</time>
      </trkpt>
      <trkpt lat="43.61686" lon="3.74763">
        <ele>112.75352128999</ele>
        <time>2020-09-20T08:14:41.000Z</time>
      </trkpt>
      <trkpt lat="43.61685" lon="3.74758">
        <ele>112.65291760349</ele>
        <time>2020-09-20T08:14:42.000Z</time>
      </trkpt>
      <trkpt lat="43.61683" lon="3.74755">
        <ele>112.55231391698</ele>
        <time>2020-09-20T08:14:43.000Z</time>
      </trkpt>
      <trkpt lat="43.61681" lon="3.74752">
        <ele>112.45171023048</ele>
        <time>2020-09-20T08:14:44.000Z</time>
      </trkpt>
      <trkpt lat="43.61678" lon="3.74749">
        <ele>112.35110654397</ele>
        <time>2020-09-20T08:14:45.000Z</time>
      </trkpt>
      <trkpt lat="43.61676" lon="3.74746">
        <ele>112.25050285747</ele>
        <time>2020-09-20T08:14:46.000Z</time>
      </trkpt>
      <trkpt lat="43.61675" lon="3.74743">
        <ele>112.14989917096</ele>
        <time>2020-09-20T08:14:47.000Z</time>
      </trkpt>
      <trkpt lat="43.61673" lon="3.74739">
        <ele>112.04929548446</ele>
        <time>2020-09-20T08:14:48.000Z</time>
      </trkpt>
      <trkpt lat="43.61671" lon="3.74736">
        <ele>112.04956294696</ele>
        <time>2020-09-20T08:14:49.000Z</time>
      </trkpt>
      <trkpt lat="43.6167" lon="3.74732">
        <ele>112.14674458613</ele>
        <time>2020-09-20T08:14:50.000Z</time>
      </trkpt>
      <trkpt lat="43.61669" lon="3.74729">
        <ele>112.2439262253</ele>
        <time>2020-09-20T08:14:51.000Z</time>
      </trkpt>
      <trkpt lat="43.61668" lon="3.74726">
        <ele>112.34110786447</ele>
        <time>2020-09-20T08:14:52.000Z</time>
      </trkpt>
      <trkpt lat="43.61667" lon="3.74723">
        <ele>112.43828950364</ele>
        <time>2020-09-20T08:14:53.000Z</time>
      </trkpt>
      <trkpt lat="43.61666" lon="3.7472">
        <ele>112.53547114281</ele>
        <time>2020-09-20T08:14:54.000Z</time>
      </trkpt>
      <trkpt lat="43.61665" lon="3.74717">
        <ele>112.63265278198</ele>
        <time>2020-09-20T08:14:55.000Z</time>
      </trkpt>
      <trkpt lat="43.61664" lon="3.74715">
        <ele>112.72983442115</ele>
        <time>2020-09-20T08:14:56.000Z</time>
      </trkpt>
      <trkpt lat="43.61663" lon="3.74712">
        <ele>112.82701606032</ele>
        <time>2020-09-20T08:14:57.000Z</time>
      </trkpt>
      <trkpt lat="43.61662" lon="3.7471">
        <ele>112.92419769949</ele>
        <time>2020-09-20T08:14:58.000Z</time>
      </trkpt>
      <trkpt lat="43.61661" lon="3.74707">
        <ele>113</ele>
        <time>2020-09-20T08:14:59.000Z</time>
      </trkpt>
      <trkpt lat="43.61659" lon="3.74704">
        <ele>113</ele>
        <time>2020-09-20T08:15:00.000Z</time>
      </trkpt>
      <trkpt lat="43.61658" lon="3.747">
        <ele>113</ele>
        <time>2020-09-20T08:15:01.000Z</time>
      </trkpt>
      <trkpt lat="43.61657" lon="3.74696">
        <ele>113</ele>
        <time>2020-09-20T08:15:02.000Z</time>
      </trkpt>
      <trkpt lat="43.61657" lon="3.74693">
        <ele>113</ele>
        <time>2020-09-20T08:15:03.000Z</time>
      </trkpt>
      <trkpt lat="43.61656" lon="3.74689">
        <ele>113</ele>
        <time>2020-09-20T08:15:04.000Z</time>
      </trkpt>
      <trkpt lat="43.61654" lon="3.74685">
        <ele>113</ele>
        <time>2020-09-20T08:15:05.000Z</time>
      </trkpt>
      <trkpt lat="43.61653" lon="3.74681">
        <ele>113</ele>
        <time>2020-09-20T08:15:06.000Z</time>
      </trkpt>
      <trkpt lat="43.61652" lon="3.74678">
        <ele>113</ele>
        <time>2020-09-20T08:15:07.000Z</time>
      </trkpt>
      <trkpt lat="43.6165" lon="3.74674">
        <ele>113</ele>
        <time>2020-09-20T08:15:08.000Z</time>
      </trkpt>
      <trkpt lat="43.61649" lon="3.7467">
        <ele>113.04871089247</ele>
        <time>2020-09-20T08:15:09.000Z</time>
      </trkpt>
      <trkpt lat="43.61647" lon="3.74667">
        <ele>113.14422184704</ele>
        <time>2020-09-20T08:15:10.000Z</time>
      </trkpt>
      <trkpt lat="43.61644" lon="3.74664">
        <ele>113.23973280161</ele>
        <time>2020-09-20T08:15:11.000Z</time>
      </trkpt>
      <trkpt lat="43.61642" lon="3.7466">
        <ele>113.33524375618</ele>
        <time>2020-09-20T08:15:12.000Z</time>
      </trkpt>
      <trkpt lat="43.6164" lon="3.74657">
        <ele>113.43075471075</ele>
        <time>2020-09-20T08:15:13.000Z</time>
      </trkpt>
      <trkpt lat="43.61638" lon="3.74654">
        <ele>113.52626566532</ele>
        <time>2020-09-20T08:15:14.000Z</time>
      </trkpt>
      <trkpt lat="43.61636" lon="3.74651">
        <ele>113.6217766199</ele>
        <time>2020-09-20T08:15:15.000Z</time>
      </trkpt>
      <trkpt lat="43.61633" lon="3.74648">
        <ele>113.71728757447</ele>
        <time>2020-09-20T08:15:16.000Z</time>
      </trkpt>
      <trkpt lat="43.61632" lon="3.74644">
        <ele>113.81279852904</ele>
        <time>2020-09-20T08:15:17.000Z</time>
      </trkpt>
      <trkpt lat="43.6163" lon="3.74641">
        <ele>113.90830948361</ele>
        <time>2020-09-20T08:15:18.000Z</time>
      </trkpt>
      <trkpt lat="43.61628" lon="3.74638">
        <ele>114.00419727318</ele>
        <time>2020-09-20T08:15:19.000Z</time>
      </trkpt>
      <trkpt lat="43.61626" lon="3.74636">
        <ele>114.10912910275</ele>
        <time>2020-09-20T08:15:20.000Z</time>
      </trkpt>
      <trkpt lat="43.61625" lon="3.74633">
        <ele>114.21406093232</ele>
        <time>2020-09-20T08:15:21.000Z</time>
      </trkpt>
      <trkpt lat="43.61623" lon="3.74629">
        <ele>114.42392459145</ele>
        <time>2020-09-20T08:15:23.000Z</time>
      </trkpt>
      <trkpt lat="43.61622" lon="3.74626">
        <ele>114.52885642102</ele>
        <time>2020-09-20T08:15:24.000Z</time>
      </trkpt>
      <trkpt lat="43.6162" lon="3.74624">
        <ele>114.63378825059</ele>
        <time>2020-09-20T08:15:25.000Z</time>
      </trkpt>
      <trkpt lat="43.61619" lon="3.74622">
        <ele>114.73872008016</ele>
        <time>2020-09-20T08:15:26.000Z</time>
      </trkpt>
      <trkpt lat="43.61618" lon="3.74619">
        <ele>114.84365190973</ele>
        <time>2020-09-20T08:15:27.000Z</time>
      </trkpt>
      <trkpt lat="43.61616" lon="3.74616">
        <ele>114.94858373929</ele>
        <time>2020-09-20T08:15:28.000Z</time>
      </trkpt>
      <trkpt lat="43.61615" lon="3.74612">
        <ele>115.10200064</ele>
        <time>2020-09-20T08:15:29.000Z</time>
      </trkpt>
      <trkpt lat="43.61614" lon="3.74608">
        <ele>115.30200064</ele>
        <time>2020-09-20T08:15:30.000Z</time>
      </trkpt>
      <trkpt lat="43.61613" lon="3.74604">
        <ele>115.50200064</ele>
        <time>2020-09-20T08:15:31.000Z</time>
      </trkpt>
      <trkpt lat="43.61611" lon="3.74601">
        <ele>115.70200064</ele>
        <time>2020-09-20T08:15:32.000Z</time>
      </trkpt>
      <trkpt lat="43.61609" lon="3.74598">
        <ele>115.90200064</ele>
        <time>2020-09-20T08:15:33.000Z</time>
      </trkpt>
      <trkpt lat="43.61608" lon="3.74595">
        <ele>116.10200064</ele>
        <time>2020-09-20T08:15:34.000Z</time>
      </trkpt>
      <trkpt lat="43.61606" lon="3.74592">
        <ele>116.30200064</ele>
        <time>2020-09-20T08:15:35.000Z</time>
      </trkpt>
      <trkpt lat="43.61605" lon="3.74589">
        <ele>116.50200064</ele>
        <time>2020-09-20T08:15:36.000Z</time>
      </trkpt>
      <trkpt lat="43.61603" lon="3.74587">
        <ele>116.70200064</ele>
        <time>2020-09-20T08:15:37.000Z</time>
      </trkpt>
      <trkpt lat="43.61601" lon="3.74584">
        <ele>116.90200064</ele>
        <time>2020-09-20T08:15:38.000Z</time>
      </trkpt>
      <trkpt lat="43.616" lon="3.74581">
        <ele>117</ele>
        <time>2020-09-20T08:15:39.000Z</time>
      </trkpt>
      <trkpt lat="43.61598" lon="3.74578">
        <ele>117</ele>
        <time>2020-09-20T08:15:40.000Z</time>
      </trkpt>
      <trkpt lat="43.61597" lon="3.74575">
        <ele>117</ele>
        <time>2020-09-20T08:15:41.000Z</time>
      </trkpt>
      <trkpt lat="43.61596" lon="3.74572">
        <ele>117</ele>
        <time>2020-09-20T08:15:42.000Z</time>
      </trkpt>
      <trkpt lat="43.61594" lon="3.74568">
        <ele>117</ele>
        <time>2020-09-20T08:15:43.000Z</time>
      </trkpt>
      <trkpt lat="43.61592" lon="3.74566">
        <ele>117</ele>
        <time>2020-09-20T08:15:44.000Z</time>
      </trkpt>
      <trkpt lat="43.61591" lon="3.74563">
        <ele>117</ele>
        <time>2020-09-20T08:15:45.000Z</time>
      </trkpt>
      <trkpt lat="43.6159" lon="3.74559">
        <ele>117</ele>
        <time>2020-09-20T08:15:47.000Z</time>
      </trkpt>
      <trkpt lat="43.61591" lon="3.74554">
        <ele>116.97441178282</ele>
        <time>2020-09-20T08:15:49.000Z</time>
      </trkpt>
      <trkpt lat="43.61591" lon="3.74552">
        <ele>116.87205760395</ele>
        <time>2020-09-20T08:15:50.000Z</time>
      </trkpt>
      <trkpt lat="43.61592" lon="3.7455">
        <ele>116.76970342508</ele>
        <time>2020-09-20T08:15:51.000Z</time>
      </trkpt>
      <trkpt lat="43.61594" lon="3.74549">
        <ele>116.66734924621</ele>
        <time>2020-09-20T08:15:52.000Z</time>
      </trkpt>
      <trkpt lat="43.61596" lon="3.74548">
        <ele>116.56499506735</ele>
        <time>2020-09-20T08:15:53.000Z</time>
      </trkpt>
      <trkpt lat="43.61598" lon="3.74546">
        <ele>116.46264088848</ele>
        <time>2020-09-20T08:15:54.000Z</time>
      </trkpt>
      <trkpt lat="43.616" lon="3.74544">
        <ele>116.36028670961</ele>
        <time>2020-09-20T08:15:55.000Z</time>
      </trkpt>
      <trkpt lat="43.61602" lon="3.74542">
        <ele>116.25793253075</ele>
        <time>2020-09-20T08:15:56.000Z</time>
      </trkpt>
      <trkpt lat="43.61605" lon="3.7454">
        <ele>116.15557835188</ele>
        <time>2020-09-20T08:15:57.000Z</time>
      </trkpt>
      <trkpt lat="43.61607" lon="3.74539">
        <ele>116.05322417301</ele>
        <time>2020-09-20T08:15:58.000Z</time>
      </trkpt>
      <trkpt lat="43.61609" lon="3.74537">
        <ele>115.85556665374</ele>
        <time>2020-09-20T08:15:59.000Z</time>
      </trkpt>
      <trkpt lat="43.61611" lon="3.74535">
        <ele>115.55466384904</ele>
        <time>2020-09-20T08:16:00.000Z</time>
      </trkpt>
      <trkpt lat="43.61614" lon="3.74534">
        <ele>115.25376104434</ele>
        <time>2020-09-20T08:16:01.000Z</time>
      </trkpt>
      <trkpt lat="43.61618" lon="3.74535">
        <ele>114.95285823963</ele>
        <time>2020-09-20T08:16:02.000Z</time>
      </trkpt>
      <trkpt lat="43.61622" lon="3.74537">
        <ele>114.65195543493</ele>
        <time>2020-09-20T08:16:03.000Z</time>
      </trkpt>
      <trkpt lat="43.61626" lon="3.74538">
        <ele>114.35105263023</ele>
        <time>2020-09-20T08:16:04.000Z</time>
      </trkpt>
      <trkpt lat="43.61628" lon="3.74539">
        <ele>114.05014982552</ele>
        <time>2020-09-20T08:16:05.000Z</time>
      </trkpt>
      <trkpt lat="43.6163" lon="3.74541">
        <ele>113.74924702082</ele>
        <time>2020-09-20T08:16:06.000Z</time>
      </trkpt>
      <trkpt lat="43.61632" lon="3.74541">
        <ele>113.44834421612</ele>
        <time>2020-09-20T08:16:07.000Z</time>
      </trkpt>
      <trkpt lat="43.61635" lon="3.74543">
        <ele>113</ele>
        <time>2020-09-20T08:16:09.000Z</time>
      </trkpt>
      <trkpt lat="43.61638" lon="3.74545">
        <ele>113</ele>
        <time>2020-09-20T08:16:11.000Z</time>
      </trkpt>
      <trkpt lat="43.61641" lon="3.74546">
        <ele>113</ele>
        <time>2020-09-20T08:16:13.000Z</time>
      </trkpt>
      <trkpt lat="43.61644" lon="3.74547">
        <ele>113</ele>
        <time>2020-09-20T08:16:15.000Z</time>
      </trkpt>
      <trkpt lat="43.61648" lon="3.74548">
        <ele>113</ele>
        <time>2020-09-20T08:16:17.000Z</time>
      </trkpt>
      <trkpt lat="43.6165" lon="3.74548">
        <ele>113</ele>
        <time>2020-09-20T08:16:18.000Z</time>
      </trkpt>
      <trkpt lat="43.61653" lon="3.74549">
        <ele>113.15100032</ele>
        <time>2020-09-20T08:16:20.000Z</time>
      </trkpt>
      <trkpt lat="43.61655" lon="3.7455">
        <ele>113.25100032</ele>
        <time>2020-09-20T08:16:21.000Z</time>
      </trkpt>
      <trkpt lat="43.61658" lon="3.74552">
        <ele>113.45100032</ele>
        <time>2020-09-20T08:16:23.000Z</time>
      </trkpt>
      <trkpt lat="43.6166" lon="3.74554">
        <ele>113.65100032</ele>
        <time>2020-09-20T08:16:25.000Z</time>
      </trkpt>
      <trkpt lat="43.61662" lon="3.74556">
        <ele>113.85100032</ele>
        <time>2020-09-20T08:16:27.000Z</time>
      </trkpt>
      <trkpt lat="43.61665" lon="3.74559">
        <ele>114</ele>
        <time>2020-09-20T08:16:29.000Z</time>
      </trkpt>
      <trkpt lat="43.61667" lon="3.74562">
        <ele>114</ele>
        <time>2020-09-20T08:16:31.000Z</time>
      </trkpt>
      <trkpt lat="43.61669" lon="3.74564">
        <ele>114</ele>
        <time>2020-09-20T08:16:32.000Z</time>
      </trkpt>
      <trkpt lat="43.61671" lon="3.74566">
        <ele>114</ele>
        <time>2020-09-20T08:16:33.000Z</time>
      </trkpt>
      <trkpt lat="43.61672" lon="3.74568">
        <ele>114</ele>
        <time>2020-09-20T08:16:34.000Z</time>
      </trkpt>
      <trkpt lat="43.61674" lon="3.7457">
        <ele>114</ele>
        <time>2020-09-20T08:16:36.000Z</time>
      </trkpt>
      <trkpt lat="43.61676" lon="3.74573">
        <ele>114</ele>
        <time>2020-09-20T08:16:38.000Z</time>
      </trkpt>
      <trkpt lat="43.61678" lon="3.74575">
        <ele>114.04956294696</ele>
        <time>2020-09-20T08:16:39.000Z</time>
      </trkpt>
      <trkpt lat="43.6168" lon="3.74578">
        <ele>114.2439262253</ele>
        <time>2020-09-20T08:16:41.000Z</time>
      </trkpt>
      <trkpt lat="43.61682" lon="3.7458">
        <ele>114.34110786447</ele>
        <time>2020-09-20T08:16:42.000Z</time>
      </trkpt>
      <trkpt lat="43.61684" lon="3.74582">
        <ele>114.43828950364</ele>
        <time>2020-09-20T08:16:43.000Z</time>
      </trkpt>
      <trkpt lat="43.61686" lon="3.74583">
        <ele>114.53547114281</ele>
        <time>2020-09-20T08:16:44.000Z</time>
      </trkpt>
      <trkpt lat="43.61687" lon="3.74585">
        <ele>114.63265278198</ele>
        <time>2020-09-20T08:16:45.000Z</time>
      </trkpt>
      <trkpt lat="43.6169" lon="3.74588">
        <ele>114.82701606032</ele>
        <time>2020-09-20T08:16:47.000Z</time>
      </trkpt>
      <trkpt lat="43.61692" lon="3.74589">
        <ele>114.92419769949</ele>
        <time>2020-09-20T08:16:48.000Z</time>
      </trkpt>
      <trkpt lat="43.61693" lon="3.74591">
        <ele>115.02265641787</ele>
        <time>2020-09-20T08:16:49.000Z</time>
      </trkpt>
      <trkpt lat="43.61696" lon="3.74594">
        <ele>115.22862984499</ele>
        <time>2020-09-20T08:16:51.000Z</time>
      </trkpt>
      <trkpt lat="43.61699" lon="3.74597">
        <ele>115.43460327211</ele>
        <time>2020-09-20T08:16:53.000Z</time>
      </trkpt>
      <trkpt lat="43.61701" lon="3.74599">
        <ele>115.64057669923</ele>
        <time>2020-09-20T08:16:55.000Z</time>
      </trkpt>
      <trkpt lat="43.61702" lon="3.74601">
        <ele>115.74356341279</ele>
        <time>2020-09-20T08:16:56.000Z</time>
      </trkpt>
      <trkpt lat="43.61706" lon="3.74603">
        <ele>115.94953683991</ele>
        <time>2020-09-20T08:16:58.000Z</time>
      </trkpt>
      <trkpt lat="43.61708" lon="3.74604">
        <ele>116.05069611089</ele>
        <time>2020-09-20T08:16:59.000Z</time>
      </trkpt>
      <trkpt lat="43.61711" lon="3.74607">
        <ele>116.24950314147</ele>
        <time>2020-09-20T08:17:01.000Z</time>
      </trkpt>
      <trkpt lat="43.61712" lon="3.74608">
        <ele>116.34890665676</ele>
        <time>2020-09-20T08:17:02.000Z</time>
      </trkpt>
      <trkpt lat="43.61714" lon="3.74609">
        <ele>116.44831017205</ele>
        <time>2020-09-20T08:17:03.000Z</time>
      </trkpt>
      <trkpt lat="43.61716" lon="3.7461">
        <ele>116.54771368734</ele>
        <time>2020-09-20T08:17:04.000Z</time>
      </trkpt>
      <trkpt lat="43.61718" lon="3.74611">
        <ele>116.64711720263</ele>
        <time>2020-09-20T08:17:05.000Z</time>
      </trkpt>
      <trkpt lat="43.61719" lon="3.74613">
        <ele>116.74652071792</ele>
        <time>2020-09-20T08:17:06.000Z</time>
      </trkpt>
      <trkpt lat="43.61721" lon="3.74616">
        <ele>116.84592423321</ele>
        <time>2020-09-20T08:17:07.000Z</time>
      </trkpt>
      <trkpt lat="43.61723" lon="3.74618">
        <ele>116.9453277485</ele>
        <time>2020-09-20T08:17:08.000Z</time>
      </trkpt>
      <trkpt lat="43.61725" lon="3.74621">
        <ele>117</ele>
        <time>2020-09-20T08:17:09.000Z</time>
      </trkpt>
      <trkpt lat="43.61727" lon="3.74624">
        <ele>117</ele>
        <time>2020-09-20T08:17:10.000Z</time>
      </trkpt>
      <trkpt lat="43.61729" lon="3.74626">
        <ele>117</ele>
        <time>2020-09-20T08:17:11.000Z</time>
      </trkpt>
      <trkpt lat="43.61731" lon="3.74629">
        <ele>117</ele>
        <time>2020-09-20T08:17:12.000Z</time>
      </trkpt>
      <trkpt lat="43.61732" lon="3.74631">
        <ele>117</ele>
        <time>2020-09-20T08:17:13.000Z</time>
      </trkpt>
      <trkpt lat="43.61734" lon="3.74633">
        <ele>117</ele>
        <time>2020-09-20T08:17:14.000Z</time>
      </trkpt>
      <trkpt lat="43.61736" lon="3.74634">
        <ele>117</ele>
        <time>2020-09-20T08:17:15.000Z</time>
      </trkpt>
      <trkpt lat="43.61738" lon="3.74635">
        <ele>117</ele>
        <time>2020-09-20T08:17:16.000Z</time>
      </trkpt>
      <trkpt lat="43.6174" lon="3.74637">
        <ele>117</ele>
        <time>2020-09-20T08:17:17.000Z</time>
      </trkpt>
      <trkpt lat="43.61742" lon="3.74638">
        <ele>117</ele>
        <time>2020-09-20T08:17:18.000Z</time>
      </trkpt>
      <trkpt lat="43.61746" lon="3.74639">
        <ele>117.15100032</ele>
        <time>2020-09-20T08:17:20.000Z</time>
      </trkpt>
      <trkpt lat="43.61748" lon="3.7464">
        <ele>117.25100032</ele>
        <time>2020-09-20T08:17:21.000Z</time>
      </trkpt>
      <trkpt lat="43.61751" lon="3.7464">
        <ele>117.35100032</ele>
        <time>2020-09-20T08:17:22.000Z</time>
      </trkpt>
      <trkpt lat="43.61754" lon="3.74642">
        <ele>117.45100032</ele>
        <time>2020-09-20T08:17:23.000Z</time>
      </trkpt>
      <trkpt lat="43.61757" lon="3.74642">
        <ele>117.55100032</ele>
        <time>2020-09-20T08:17:24.000Z</time>
      </trkpt>
      <trkpt lat="43.6176" lon="3.74641">
        <ele>117.65100032</ele>
        <time>2020-09-20T08:17:25.000Z</time>
      </trkpt>
      <trkpt lat="43.61763" lon="3.7464">
        <ele>117.75100032</ele>
        <time>2020-09-20T08:17:26.000Z</time>
      </trkpt>
      <trkpt lat="43.61765" lon="3.7464">
        <ele>117.85100032</ele>
        <time>2020-09-20T08:17:27.000Z</time>
      </trkpt>
      <trkpt lat="43.61768" lon="3.74639">
        <ele>117.95100032</ele>
        <time>2020-09-20T08:17:28.000Z</time>
      </trkpt>
      <trkpt lat="43.6177" lon="3.74639">
        <ele>118.05100032</ele>
        <time>2020-09-20T08:17:29.000Z</time>
      </trkpt>
      <trkpt lat="43.61773" lon="3.74638">
        <ele>118.15100032</ele>
        <time>2020-09-20T08:17:30.000Z</time>
      </trkpt>
      <trkpt lat="43.61776" lon="3.74637">
        <ele>118.25100032</ele>
        <time>2020-09-20T08:17:31.000Z</time>
      </trkpt>
      <trkpt lat="43.61779" lon="3.74635">
        <ele>118.35100032</ele>
        <time>2020-09-20T08:17:32.000Z</time>
      </trkpt>
      <trkpt lat="43.61782" lon="3.74634">
        <ele>118.45100032</ele>
        <time>2020-09-20T08:17:33.000Z</time>
      </trkpt>
      <trkpt lat="43.61784" lon="3.74633">
        <ele>118.55100032</ele>
        <time>2020-09-20T08:17:34.000Z</time>
      </trkpt>
      <trkpt lat="43.61786" lon="3.74632">
        <ele>118.65100032</ele>
        <time>2020-09-20T08:17:35.000Z</time>
      </trkpt>
      <trkpt lat="43.61788" lon="3.74631">
        <ele>118.75100032</ele>
        <time>2020-09-20T08:17:36.000Z</time>
      </trkpt>
      <trkpt lat="43.61791" lon="3.74629">
        <ele>118.95100032</ele>
        <time>2020-09-20T08:17:38.000Z</time>
      </trkpt>
      <trkpt lat="43.61794" lon="3.74627">
        <ele>119.14660216133</ele>
        <time>2020-09-20T08:17:40.000Z</time>
      </trkpt>
      <trkpt lat="43.61796" lon="3.74626">
        <ele>119.34077679796</ele>
        <time>2020-09-20T08:17:42.000Z</time>
      </trkpt>
      <trkpt lat="43.61799" lon="3.74627">
        <ele>119.53495143459</ele>
        <time>2020-09-20T08:17:44.000Z</time>
      </trkpt>
      <trkpt lat="43.61802" lon="3.74627">
        <ele>119.72912607122</ele>
        <time>2020-09-20T08:17:46.000Z</time>
      </trkpt>
      <trkpt lat="43.61804" lon="3.74627">
        <ele>119.82621338954</ele>
        <time>2020-09-20T08:17:47.000Z</time>
      </trkpt>
      <trkpt lat="43.61806" lon="3.74627">
        <ele>119.92330070785</ele>
        <time>2020-09-20T08:17:48.000Z</time>
      </trkpt>
      <trkpt lat="43.61809" lon="3.74626">
        <ele>120.02164916892</ele>
        <time>2020-09-20T08:17:49.000Z</time>
      </trkpt>
      <trkpt lat="43.61812" lon="3.74624">
        <ele>120.12474202045</ele>
        <time>2020-09-20T08:17:50.000Z</time>
      </trkpt>
      <trkpt lat="43.61815" lon="3.74621">
        <ele>120.22783487197</ele>
        <time>2020-09-20T08:17:51.000Z</time>
      </trkpt>
      <trkpt lat="43.61817" lon="3.74619">
        <ele>120.3309277235</ele>
        <time>2020-09-20T08:17:52.000Z</time>
      </trkpt>
      <trkpt lat="43.61819" lon="3.74617">
        <ele>120.43402057502</ele>
        <time>2020-09-20T08:17:53.000Z</time>
      </trkpt>
      <trkpt lat="43.61821" lon="3.74615">
        <ele>120.53711342655</ele>
        <time>2020-09-20T08:17:54.000Z</time>
      </trkpt>
      <trkpt lat="43.61823" lon="3.74612">
        <ele>120.7432991296</ele>
        <time>2020-09-20T08:17:56.000Z</time>
      </trkpt>
      <trkpt lat="43.61825" lon="3.74609">
        <ele>120.94948483265</ele>
        <time>2020-09-20T08:17:58.000Z</time>
      </trkpt>
      <trkpt lat="43.61827" lon="3.74606">
        <ele>121.15100032</ele>
        <time>2020-09-20T08:18:00.000Z</time>
      </trkpt>
      <trkpt lat="43.61829" lon="3.74604">
        <ele>121.35100032</ele>
        <time>2020-09-20T08:18:02.000Z</time>
      </trkpt>
      <trkpt lat="43.6183" lon="3.74602">
        <ele>121.55100032</ele>
        <time>2020-09-20T08:18:04.000Z</time>
      </trkpt>
      <trkpt lat="43.6183" lon="3.746">
        <ele>122</ele>
        <time>2020-09-20T08:18:10.000Z</time>
      </trkpt>
      <trkpt lat="43.61833" lon="3.74596">
        <ele>122</ele>
        <time>2020-09-20T08:18:19.000Z</time>
      </trkpt>
      <trkpt lat="43.61834" lon="3.74594">
        <ele>122</ele>
        <time>2020-09-20T08:18:20.000Z</time>
      </trkpt>
      <trkpt lat="43.61834" lon="3.74592">
        <ele>122</ele>
        <time>2020-09-20T08:18:22.000Z</time>
      </trkpt>
      <trkpt lat="43.61835" lon="3.74589">
        <ele>122</ele>
        <time>2020-09-20T08:18:24.000Z</time>
      </trkpt>
      <trkpt lat="43.61834" lon="3.74584">
        <ele>122</ele>
        <time>2020-09-20T08:18:26.000Z</time>
      </trkpt>
      <trkpt lat="43.61833" lon="3.74581">
        <ele>122</ele>
        <time>2020-09-20T08:18:28.000Z</time>
      </trkpt>
      <trkpt lat="43.61833" lon="3.74577">
        <ele>122.14674458613</ele>
        <time>2020-09-20T08:18:30.000Z</time>
      </trkpt>
      <trkpt lat="43.61834" lon="3.74574">
        <ele>122.2439262253</ele>
        <time>2020-09-20T08:18:31.000Z</time>
      </trkpt>
      <trkpt lat="43.61835" lon="3.74571">
        <ele>122.34110786447</ele>
        <time>2020-09-20T08:18:32.000Z</time>
      </trkpt>
      <trkpt lat="43.61836" lon="3.74569">
        <ele>122.43828950364</ele>
        <time>2020-09-20T08:18:33.000Z</time>
      </trkpt>
      <trkpt lat="43.61837" lon="3.74565">
        <ele>122.63265278198</ele>
        <time>2020-09-20T08:18:35.000Z</time>
      </trkpt>
      <trkpt lat="43.61837" lon="3.7456">
        <ele>122.82701606032</ele>
        <time>2020-09-20T08:18:37.000Z</time>
      </trkpt>
      <trkpt lat="43.61836" lon="3.74556">
        <ele>123.02199936</ele>
        <time>2020-09-20T08:18:39.000Z</time>
      </trkpt>
      <trkpt lat="43.61837" lon="3.74552">
        <ele>123.22199936</ele>
        <time>2020-09-20T08:18:41.000Z</time>
      </trkpt>
      <trkpt lat="43.61836" lon="3.74547">
        <ele>123.42199936</ele>
        <time>2020-09-20T08:18:43.000Z</time>
      </trkpt>
      <trkpt lat="43.61835" lon="3.74544">
        <ele>123.52199936</ele>
        <time>2020-09-20T08:18:44.000Z</time>
      </trkpt>
      <trkpt lat="43.61835" lon="3.74541">
        <ele>123.62199936</ele>
        <time>2020-09-20T08:18:45.000Z</time>
      </trkpt>
      <trkpt lat="43.61834" lon="3.74539">
        <ele>123.72199936</ele>
        <time>2020-09-20T08:18:46.000Z</time>
      </trkpt>
      <trkpt lat="43.61834" lon="3.74534">
        <ele>123.92199936</ele>
        <time>2020-09-20T08:18:48.000Z</time>
      </trkpt>
      <trkpt lat="43.61834" lon="3.74529">
        <ele>124.37692939429</ele>
        <time>2020-09-20T08:18:50.000Z</time>
      </trkpt>
      <trkpt lat="43.61835" lon="3.74526">
        <ele>124.99484967565</ele>
        <time>2020-09-20T08:18:52.000Z</time>
      </trkpt>
      <trkpt lat="43.61835" lon="3.74523">
        <ele>125.61276995701</ele>
        <time>2020-09-20T08:18:54.000Z</time>
      </trkpt>
      <trkpt lat="43.61835" lon="3.74519">
        <ele>126.23069023838</ele>
        <time>2020-09-20T08:18:56.000Z</time>
      </trkpt>
      <trkpt lat="43.61834" lon="3.74518">
        <ele>127.01963012998</ele>
        <time>2020-09-20T08:19:02.000Z</time>
      </trkpt>
      <trkpt lat="43.61831" lon="3.74511">
        <ele>128.00210459089</ele>
        <time>2020-09-20T08:19:19.000Z</time>
      </trkpt>
      <trkpt lat="43.6183" lon="3.74509">
        <ele>128.21263104851</ele>
        <time>2020-09-20T08:19:20.000Z</time>
      </trkpt>
      <trkpt lat="43.61829" lon="3.74506">
        <ele>128.63368396374</ele>
        <time>2020-09-20T08:19:22.000Z</time>
      </trkpt>
      <trkpt lat="43.61828" lon="3.74503">
        <ele>129.05473687898</ele>
        <time>2020-09-20T08:19:24.000Z</time>
      </trkpt>
      <trkpt lat="43.61826" lon="3.74499">
        <ele>129.47578979422</ele>
        <time>2020-09-20T08:19:26.000Z</time>
      </trkpt>
      <trkpt lat="43.61825" lon="3.74496">
        <ele>129.89684270945</ele>
        <time>2020-09-20T08:19:28.000Z</time>
      </trkpt>
      <trkpt lat="43.61823" lon="3.74492">
        <ele>130.29348917225</ele>
        <time>2020-09-20T08:19:30.000Z</time>
      </trkpt>
      <trkpt lat="43.61822" lon="3.74488">
        <ele>130.68221572893</ele>
        <time>2020-09-20T08:19:32.000Z</time>
      </trkpt>
      <trkpt lat="43.61821" lon="3.74486">
        <ele>130.87657900727</ele>
        <time>2020-09-20T08:19:33.000Z</time>
      </trkpt>
      <trkpt lat="43.6182" lon="3.74482">
        <ele>131.26530556395</ele>
        <time>2020-09-20T08:19:35.000Z</time>
      </trkpt>
      <trkpt lat="43.61818" lon="3.74478">
        <ele>131.65403212063</ele>
        <time>2020-09-20T08:19:37.000Z</time>
      </trkpt>
      <trkpt lat="43.61816" lon="3.74474">
        <ele>132.04531283574</ele>
        <time>2020-09-20T08:19:39.000Z</time>
      </trkpt>
      <trkpt lat="43.61816" lon="3.74471">
        <ele>132.45725968998</ele>
        <time>2020-09-20T08:19:41.000Z</time>
      </trkpt>
      <trkpt lat="43.61815" lon="3.74466">
        <ele>132.86920654422</ele>
        <time>2020-09-20T08:19:43.000Z</time>
      </trkpt>
      <trkpt lat="43.61814" lon="3.74463">
        <ele>133.28115339846</ele>
        <time>2020-09-20T08:19:45.000Z</time>
      </trkpt>
      <trkpt lat="43.61813" lon="3.7446">
        <ele>133.6931002527</ele>
        <time>2020-09-20T08:19:47.000Z</time>
      </trkpt>
      <trkpt lat="43.61811" lon="3.74458">
        <ele>134.04970788322</ele>
        <time>2020-09-20T08:19:49.000Z</time>
      </trkpt>
      <trkpt lat="43.61809" lon="3.74456">
        <ele>134.24463953551</ele>
        <time>2020-09-20T08:19:51.000Z</time>
      </trkpt>
      <trkpt lat="43.61808" lon="3.74454">
        <ele>134.43957118779</ele>
        <time>2020-09-20T08:19:53.000Z</time>
      </trkpt>
      <trkpt lat="43.61805" lon="3.74452">
        <ele>134.63450284008</ele>
        <time>2020-09-20T08:19:55.000Z</time>
      </trkpt>
      <trkpt lat="43.61804" lon="3.74449">
        <ele>134.82943449236</ele>
        <time>2020-09-20T08:19:57.000Z</time>
      </trkpt>
      <trkpt lat="43.61802" lon="3.74447">
        <ele>135.07700111836</ele>
        <time>2020-09-20T08:19:59.000Z</time>
      </trkpt>
      <trkpt lat="43.61799" lon="3.74445">
        <ele>135.69301795024</ele>
        <time>2020-09-20T08:20:01.000Z</time>
      </trkpt>
      <trkpt lat="43.61798" lon="3.74443">
        <ele>136.30903478212</ele>
        <time>2020-09-20T08:20:03.000Z</time>
      </trkpt>
      <trkpt lat="43.61796" lon="3.74441">
        <ele>136.925051614</ele>
        <time>2020-09-20T08:20:05.000Z</time>
      </trkpt>
      <trkpt lat="43.61794" lon="3.74437">
        <ele>137.54106844588</ele>
        <time>2020-09-20T08:20:07.000Z</time>
      </trkpt>
      <trkpt lat="43.61795" lon="3.74435">
        <ele>138.68487888699</ele>
        <time>2020-09-20T08:20:12.000Z</time>
      </trkpt>
      <trkpt lat="43.61796" lon="3.74433">
        <ele>139.27024492339</ele>
        <time>2020-09-20T08:20:15.000Z</time>
      </trkpt>
      <trkpt lat="43.61796" lon="3.7443">
        <ele>139.66048894766</ele>
        <time>2020-09-20T08:20:17.000Z</time>
      </trkpt>
      <trkpt lat="43.61795" lon="3.74428">
        <ele>140</ele>
        <time>2020-09-20T08:20:22.000Z</time>
      </trkpt>
      <trkpt lat="43.61795" lon="3.74428">
        <ele>140</ele>
        <time>2020-09-20T08:20:24.000Z</time>
      </trkpt>
      <trkpt lat="43.6179" lon="3.74421">
        <ele>140.05930408789</ele>
        <time>2020-09-20T08:20:33.000Z</time>
      </trkpt>
      <trkpt lat="43.61788" lon="3.74417">
        <ele>140.46830231054</ele>
        <time>2020-09-20T08:20:35.000Z</time>
      </trkpt>
      <trkpt lat="43.61787" lon="3.74414">
        <ele>140.8773005332</ele>
        <time>2020-09-20T08:20:37.000Z</time>
      </trkpt>
      <trkpt lat="43.61785" lon="3.74412">
        <ele>141.28629875586</ele>
        <time>2020-09-20T08:20:39.000Z</time>
      </trkpt>
      <trkpt lat="43.61783" lon="3.74409">
        <ele>141.69529697852</ele>
        <time>2020-09-20T08:20:41.000Z</time>
      </trkpt>
      <trkpt lat="43.61782" lon="3.74406">
        <ele>142.10189877383</ele>
        <time>2020-09-20T08:20:43.000Z</time>
      </trkpt>
      <trkpt lat="43.6178" lon="3.74404">
        <ele>142.50149930118</ele>
        <time>2020-09-20T08:20:45.000Z</time>
      </trkpt>
      <trkpt lat="43.61779" lon="3.744">
        <ele>142.90109982852</ele>
        <time>2020-09-20T08:20:47.000Z</time>
      </trkpt>
      <trkpt lat="43.61778" lon="3.74397">
        <ele>143.30070035587</ele>
        <time>2020-09-20T08:20:49.000Z</time>
      </trkpt>
      <trkpt lat="43.61777" lon="3.74393">
        <ele>143.70030088321</ele>
        <time>2020-09-20T08:20:51.000Z</time>
      </trkpt>
      <trkpt lat="43.61777" lon="3.7439">
        <ele>144.10010134932</ele>
        <time>2020-09-20T08:20:53.000Z</time>
      </trkpt>
      <trkpt lat="43.61776" lon="3.74386">
        <ele>144.50050162146</ele>
        <time>2020-09-20T08:20:55.000Z</time>
      </trkpt>
      <trkpt lat="43.61776" lon="3.74383">
        <ele>144.90090189361</ele>
        <time>2020-09-20T08:20:57.000Z</time>
      </trkpt>
      <trkpt lat="43.61775" lon="3.7438">
        <ele>145.30130216575</ele>
        <time>2020-09-20T08:20:59.000Z</time>
      </trkpt>
      <trkpt lat="43.61775" lon="3.74377">
        <ele>145.70170243789</ele>
        <time>2020-09-20T08:21:01.000Z</time>
      </trkpt>
      <trkpt lat="43.61774" lon="3.74374">
        <ele>146.10200064</ele>
        <time>2020-09-20T08:21:03.000Z</time>
      </trkpt>
      <trkpt lat="43.61774" lon="3.74372">
        <ele>146.50200064</ele>
        <time>2020-09-20T08:21:05.000Z</time>
      </trkpt>
      <trkpt lat="43.61773" lon="3.74368">
        <ele>146.90200064</ele>
        <time>2020-09-20T08:21:07.000Z</time>
      </trkpt>
      <trkpt lat="43.61772" lon="3.74364">
        <ele>147.30200064</ele>
        <time>2020-09-20T08:21:09.000Z</time>
      </trkpt>
      <trkpt lat="43.61771" lon="3.74361">
        <ele>147.70200064</ele>
        <time>2020-09-20T08:21:11.000Z</time>
      </trkpt>
      <trkpt lat="43.61771" lon="3.74357">
        <ele>148.09961</ele>
        <time>2020-09-20T08:21:13.000Z</time>
      </trkpt>
      <trkpt lat="43.6177" lon="3.74354">
        <ele>148.490235</ele>
        <time>2020-09-20T08:21:15.000Z</time>
      </trkpt>
      <trkpt lat="43.6177" lon="3.74351">
        <ele>148.88086</ele>
        <time>2020-09-20T08:21:17.000Z</time>
      </trkpt>
      <trkpt lat="43.6177" lon="3.74347">
        <ele>149.271485</ele>
        <time>2020-09-20T08:21:19.000Z</time>
      </trkpt>
      <trkpt lat="43.6177" lon="3.74343">
        <ele>149.66211</ele>
        <time>2020-09-20T08:21:21.000Z</time>
      </trkpt>
      <trkpt lat="43.6177" lon="3.7434">
        <ele>150.02766426229</ele>
        <time>2020-09-20T08:21:23.000Z</time>
      </trkpt>
      <trkpt lat="43.61769" lon="3.74336">
        <ele>150.23258229508</ele>
        <time>2020-09-20T08:21:25.000Z</time>
      </trkpt>
      <trkpt lat="43.61769" lon="3.74332">
        <ele>150.43750032787</ele>
        <time>2020-09-20T08:21:27.000Z</time>
      </trkpt>
      <trkpt lat="43.61769" lon="3.74329">
        <ele>150.64241836066</ele>
        <time>2020-09-20T08:21:29.000Z</time>
      </trkpt>
      <trkpt lat="43.6177" lon="3.74325">
        <ele>150.84733639344</ele>
        <time>2020-09-20T08:21:31.000Z</time>
      </trkpt>
      <trkpt lat="43.6177" lon="3.74321">
        <ele>151</ele>
        <time>2020-09-20T08:21:33.000Z</time>
      </trkpt>
      <trkpt lat="43.61771" lon="3.74317">
        <ele>151</ele>
        <time>2020-09-20T08:21:35.000Z</time>
      </trkpt>
      <trkpt lat="43.61772" lon="3.74314">
        <ele>151</ele>
        <time>2020-09-20T08:21:37.000Z</time>
      </trkpt>
      <trkpt lat="43.61773" lon="3.7431">
        <ele>151</ele>
        <time>2020-09-20T08:21:39.000Z</time>
      </trkpt>
      <trkpt lat="43.61774" lon="3.74307">
        <ele>151</ele>
        <time>2020-09-20T08:21:41.000Z</time>
      </trkpt>
      <trkpt lat="43.61774" lon="3.74305">
        <ele>151.09883782946</ele>
        <time>2020-09-20T08:21:43.000Z</time>
      </trkpt>
      <trkpt lat="43.61774" lon="3.74305">
        <ele>152.00064516316</ele>
        <time>2020-09-20T08:21:48.000Z</time>
      </trkpt>
      <trkpt lat="43.61771" lon="3.74302">
        <ele>154</ele>
        <time>2020-09-20T08:22:19.000Z</time>
      </trkpt>
      <trkpt lat="43.61771" lon="3.74302">
        <ele>154</ele>
        <time>2020-09-20T08:22:22.000Z</time>
      </trkpt>
      <trkpt lat="43.61777" lon="3.74295">
        <ele>154</ele>
        <time>2020-09-20T08:23:15.000Z</time>
      </trkpt>
      <trkpt lat="43.61778" lon="3.74294">
        <ele>154</ele>
        <time>2020-09-20T08:23:16.000Z</time>
      </trkpt>
      <trkpt lat="43.61781" lon="3.74292">
        <ele>154</ele>
        <time>2020-09-20T08:23:18.000Z</time>
      </trkpt>
      <trkpt lat="43.61783" lon="3.74288">
        <ele>154</ele>
        <time>2020-09-20T08:23:20.000Z</time>
      </trkpt>
      <trkpt lat="43.61784" lon="3.74286">
        <ele>154</ele>
        <time>2020-09-20T08:23:21.000Z</time>
      </trkpt>
      <trkpt lat="43.61785" lon="3.74284">
        <ele>154</ele>
        <time>2020-09-20T08:23:22.000Z</time>
      </trkpt>
      <trkpt lat="43.61786" lon="3.74282">
        <ele>154</ele>
        <time>2020-09-20T08:23:23.000Z</time>
      </trkpt>
      <trkpt lat="43.61788" lon="3.74278">
        <ele>154</ele>
        <time>2020-09-20T08:23:25.000Z</time>
      </trkpt>
      <trkpt lat="43.61789" lon="3.74276">
        <ele>154</ele>
        <time>2020-09-20T08:23:26.000Z</time>
      </trkpt>
      <trkpt lat="43.61791" lon="3.74272">
        <ele>154</ele>
        <time>2020-09-20T08:23:28.000Z</time>
      </trkpt>
      <trkpt lat="43.61793" lon="3.7427">
        <ele>154</ele>
        <time>2020-09-20T08:23:29.000Z</time>
      </trkpt>
      <trkpt lat="43.61794" lon="3.74268">
        <ele>154</ele>
        <time>2020-09-20T08:23:30.000Z</time>
      </trkpt>
      <trkpt lat="43.61795" lon="3.74266">
        <ele>154</ele>
        <time>2020-09-20T08:23:31.000Z</time>
      </trkpt>
      <trkpt lat="43.61796" lon="3.74264">
        <ele>154</ele>
        <time>2020-09-20T08:23:32.000Z</time>
      </trkpt>
      <trkpt lat="43.61797" lon="3.74261">
        <ele>154</ele>
        <time>2020-09-20T08:23:33.000Z</time>
      </trkpt>
      <trkpt lat="43.61799" lon="3.74259">
        <ele>154</ele>
        <time>2020-09-20T08:23:34.000Z</time>
      </trkpt>
      <trkpt lat="43.618" lon="3.74256">
        <ele>153.97736688378</ele>
        <time>2020-09-20T08:23:35.000Z</time>
      </trkpt>
      <trkpt lat="43.61802" lon="3.74254">
        <ele>153.87448608986</ele>
        <time>2020-09-20T08:23:36.000Z</time>
      </trkpt>
      <trkpt lat="43.61803" lon="3.74251">
        <ele>153.77160529594</ele>
        <time>2020-09-20T08:23:37.000Z</time>
      </trkpt>
      <trkpt lat="43.61805" lon="3.74248">
        <ele>153.66872450202</ele>
        <time>2020-09-20T08:23:38.000Z</time>
      </trkpt>
      <trkpt lat="43.61806" lon="3.74246">
        <ele>153.56584370811</ele>
        <time>2020-09-20T08:23:39.000Z</time>
      </trkpt>
      <trkpt lat="43.61808" lon="3.74243">
        <ele>153.46296291419</ele>
        <time>2020-09-20T08:23:40.000Z</time>
      </trkpt>
      <trkpt lat="43.61809" lon="3.7424">
        <ele>153.36008212027</ele>
        <time>2020-09-20T08:23:41.000Z</time>
      </trkpt>
      <trkpt lat="43.61811" lon="3.74237">
        <ele>153.25720132636</ele>
        <time>2020-09-20T08:23:42.000Z</time>
      </trkpt>
      <trkpt lat="43.61812" lon="3.74234">
        <ele>153.15432053244</ele>
        <time>2020-09-20T08:23:43.000Z</time>
      </trkpt>
      <trkpt lat="43.61814" lon="3.74231">
        <ele>153.05143973852</ele>
        <time>2020-09-20T08:23:44.000Z</time>
      </trkpt>
      <trkpt lat="43.61816" lon="3.74228">
        <ele>153</ele>
        <time>2020-09-20T08:23:45.000Z</time>
      </trkpt>
      <trkpt lat="43.61817" lon="3.74225">
        <ele>153</ele>
        <time>2020-09-20T08:23:46.000Z</time>
      </trkpt>
      <trkpt lat="43.61819" lon="3.74221">
        <ele>153</ele>
        <time>2020-09-20T08:23:47.000Z</time>
      </trkpt>
      <trkpt lat="43.6182" lon="3.74218">
        <ele>153</ele>
        <time>2020-09-20T08:23:48.000Z</time>
      </trkpt>
      <trkpt lat="43.61822" lon="3.74215">
        <ele>153</ele>
        <time>2020-09-20T08:23:49.000Z</time>
      </trkpt>
      <trkpt lat="43.61824" lon="3.74212">
        <ele>153</ele>
        <time>2020-09-20T08:23:50.000Z</time>
      </trkpt>
      <trkpt lat="43.61825" lon="3.74209">
        <ele>153</ele>
        <time>2020-09-20T08:23:51.000Z</time>
      </trkpt>
      <trkpt lat="43.61826" lon="3.74205">
        <ele>153</ele>
        <time>2020-09-20T08:23:52.000Z</time>
      </trkpt>
      <trkpt lat="43.61828" lon="3.74202">
        <ele>153</ele>
        <time>2020-09-20T08:23:53.000Z</time>
      </trkpt>
      <trkpt lat="43.61829" lon="3.74198">
        <ele>153</ele>
        <time>2020-09-20T08:23:54.000Z</time>
      </trkpt>
      <trkpt lat="43.6183" lon="3.74195">
        <ele>152.94899968</ele>
        <time>2020-09-20T08:23:55.000Z</time>
      </trkpt>
      <trkpt lat="43.61832" lon="3.74191">
        <ele>152.84899968</ele>
        <time>2020-09-20T08:23:56.000Z</time>
      </trkpt>
      <trkpt lat="43.61833" lon="3.74187">
        <ele>152.74899968</ele>
        <time>2020-09-20T08:23:57.000Z</time>
      </trkpt>
      <trkpt lat="43.61834" lon="3.74182">
        <ele>152.64899968</ele>
        <time>2020-09-20T08:23:58.000Z</time>
      </trkpt>
      <trkpt lat="43.61835" lon="3.74178">
        <ele>152.54899968</ele>
        <time>2020-09-20T08:23:59.000Z</time>
      </trkpt>
      <trkpt lat="43.61837" lon="3.74173">
        <ele>152.44899968</ele>
        <time>2020-09-20T08:24:00.000Z</time>
      </trkpt>
      <trkpt lat="43.61838" lon="3.74169">
        <ele>152.34899968</ele>
        <time>2020-09-20T08:24:01.000Z</time>
      </trkpt>
      <trkpt lat="43.6184" lon="3.74166">
        <ele>152.24899968</ele>
        <time>2020-09-20T08:24:02.000Z</time>
      </trkpt>
      <trkpt lat="43.61843" lon="3.74162">
        <ele>152.14899968</ele>
        <time>2020-09-20T08:24:03.000Z</time>
      </trkpt>
      <trkpt lat="43.61845" lon="3.7416">
        <ele>152.04899968</ele>
        <time>2020-09-20T08:24:04.000Z</time>
      </trkpt>
      <trkpt lat="43.61848" lon="3.74158">
        <ele>152</ele>
        <time>2020-09-20T08:24:05.000Z</time>
      </trkpt>
      <trkpt lat="43.61851" lon="3.74156">
        <ele>152</ele>
        <time>2020-09-20T08:24:06.000Z</time>
      </trkpt>
      <trkpt lat="43.61853" lon="3.74155">
        <ele>152</ele>
        <time>2020-09-20T08:24:07.000Z</time>
      </trkpt>
      <trkpt lat="43.61856" lon="3.74153">
        <ele>152</ele>
        <time>2020-09-20T08:24:08.000Z</time>
      </trkpt>
      <trkpt lat="43.61858" lon="3.74152">
        <ele>152</ele>
        <time>2020-09-20T08:24:09.000Z</time>
      </trkpt>
      <trkpt lat="43.61861" lon="3.7415">
        <ele>152</ele>
        <time>2020-09-20T08:24:10.000Z</time>
      </trkpt>
      <trkpt lat="43.61863" lon="3.74149">
        <ele>152</ele>
        <time>2020-09-20T08:24:11.000Z</time>
      </trkpt>
      <trkpt lat="43.61866" lon="3.74148">
        <ele>152</ele>
        <time>2020-09-20T08:24:12.000Z</time>
      </trkpt>
      <trkpt lat="43.61869" lon="3.74146">
        <ele>152</ele>
        <time>2020-09-20T08:24:13.000Z</time>
      </trkpt>
      <trkpt lat="43.61872" lon="3.74145">
        <ele>152</ele>
        <time>2020-09-20T08:24:14.000Z</time>
      </trkpt>
      <trkpt lat="43.61875" lon="3.74143">
        <ele>151.96639541598</ele>
        <time>2020-09-20T08:24:15.000Z</time>
      </trkpt>
      <trkpt lat="43.61878" lon="3.74141">
        <ele>151.86456235572</ele>
        <time>2020-09-20T08:24:16.000Z</time>
      </trkpt>
      <trkpt lat="43.6188" lon="3.74138">
        <ele>151.76272929546</ele>
        <time>2020-09-20T08:24:17.000Z</time>
      </trkpt>
      <trkpt lat="43.61882" lon="3.74135">
        <ele>151.66089623521</ele>
        <time>2020-09-20T08:24:18.000Z</time>
      </trkpt>
      <trkpt lat="43.61884" lon="3.74132">
        <ele>151.55906317495</ele>
        <time>2020-09-20T08:24:19.000Z</time>
      </trkpt>
      <trkpt lat="43.61885" lon="3.74129">
        <ele>151.45723011469</ele>
        <time>2020-09-20T08:24:20.000Z</time>
      </trkpt>
      <trkpt lat="43.61886" lon="3.74126">
        <ele>151.35539705443</ele>
        <time>2020-09-20T08:24:21.000Z</time>
      </trkpt>
      <trkpt lat="43.61887" lon="3.74123">
        <ele>151.25356399418</ele>
        <time>2020-09-20T08:24:22.000Z</time>
      </trkpt>
      <trkpt lat="43.61887" lon="3.7412">
        <ele>151.15173093392</ele>
        <time>2020-09-20T08:24:23.000Z</time>
      </trkpt>
      <trkpt lat="43.61889" lon="3.74117">
        <ele>151.04989787366</ele>
        <time>2020-09-20T08:24:24.000Z</time>
      </trkpt>
      <trkpt lat="43.61891" lon="3.74115">
        <ele>151</ele>
        <time>2020-09-20T08:24:25.000Z</time>
      </trkpt>
      <trkpt lat="43.61893" lon="3.74113">
        <ele>151</ele>
        <time>2020-09-20T08:24:26.000Z</time>
      </trkpt>
      <trkpt lat="43.61896" lon="3.74111">
        <ele>151</ele>
        <time>2020-09-20T08:24:27.000Z</time>
      </trkpt>
      <trkpt lat="43.61898" lon="3.74107">
        <ele>151</ele>
        <time>2020-09-20T08:24:28.000Z</time>
      </trkpt>
      <trkpt lat="43.619" lon="3.74103">
        <ele>151</ele>
        <time>2020-09-20T08:24:29.000Z</time>
      </trkpt>
      <trkpt lat="43.61901" lon="3.74099">
        <ele>151</ele>
        <time>2020-09-20T08:24:30.000Z</time>
      </trkpt>
      <trkpt lat="43.61901" lon="3.74095">
        <ele>151</ele>
        <time>2020-09-20T08:24:31.000Z</time>
      </trkpt>
      <trkpt lat="43.619" lon="3.74092">
        <ele>151</ele>
        <time>2020-09-20T08:24:32.000Z</time>
      </trkpt>
      <trkpt lat="43.619" lon="3.74089">
        <ele>151</ele>
        <time>2020-09-20T08:24:33.000Z</time>
      </trkpt>
      <trkpt lat="43.61899" lon="3.74086">
        <ele>151</ele>
        <time>2020-09-20T08:24:34.000Z</time>
      </trkpt>
      <trkpt lat="43.61898" lon="3.74083">
        <ele>151.09912589392</ele>
        <time>2020-09-20T08:24:35.000Z</time>
      </trkpt>
      <trkpt lat="43.61897" lon="3.7408">
        <ele>151.29348917225</ele>
        <time>2020-09-20T08:24:36.000Z</time>
      </trkpt>
      <trkpt lat="43.61896" lon="3.74078">
        <ele>151.48785245059</ele>
        <time>2020-09-20T08:24:37.000Z</time>
      </trkpt>
      <trkpt lat="43.61896" lon="3.74075">
        <ele>151.68221572893</ele>
        <time>2020-09-20T08:24:38.000Z</time>
      </trkpt>
      <trkpt lat="43.61895" lon="3.74072">
        <ele>151.87657900727</ele>
        <time>2020-09-20T08:24:39.000Z</time>
      </trkpt>
      <trkpt lat="43.61895" lon="3.74069">
        <ele>152.07094228561</ele>
        <time>2020-09-20T08:24:40.000Z</time>
      </trkpt>
      <trkpt lat="43.61894" lon="3.74066">
        <ele>152.26530556395</ele>
        <time>2020-09-20T08:24:41.000Z</time>
      </trkpt>
      <trkpt lat="43.61894" lon="3.74063">
        <ele>152.45966884229</ele>
        <time>2020-09-20T08:24:42.000Z</time>
      </trkpt>
      <trkpt lat="43.61893" lon="3.7406">
        <ele>152.65403212063</ele>
        <time>2020-09-20T08:24:43.000Z</time>
      </trkpt>
      <trkpt lat="43.61893" lon="3.74058">
        <ele>152.84839539897</ele>
        <time>2020-09-20T08:24:44.000Z</time>
      </trkpt>
      <trkpt lat="43.61892" lon="3.74055">
        <ele>153.02265641787</ele>
        <time>2020-09-20T08:24:45.000Z</time>
      </trkpt>
      <trkpt lat="43.61892" lon="3.74051">
        <ele>153.22862984499</ele>
        <time>2020-09-20T08:24:47.000Z</time>
      </trkpt>
      <trkpt lat="43.61892" lon="3.74046">
        <ele>153.43460327211</ele>
        <time>2020-09-20T08:24:49.000Z</time>
      </trkpt>
      <trkpt lat="43.61892" lon="3.74042">
        <ele>153.64057669923</ele>
        <time>2020-09-20T08:24:51.000Z</time>
      </trkpt>
      <trkpt lat="43.61892" lon="3.74037">
        <ele>153.84655012635</ele>
        <time>2020-09-20T08:24:53.000Z</time>
      </trkpt>
      <trkpt lat="43.61892" lon="3.74032">
        <ele>154.09883782946</ele>
        <time>2020-09-20T08:24:55.000Z</time>
      </trkpt>
      <trkpt lat="43.61891" lon="3.74028">
        <ele>154.48643472868</ele>
        <time>2020-09-20T08:24:57.000Z</time>
      </trkpt>
      <trkpt lat="43.61891" lon="3.74023">
        <ele>154.87403162791</ele>
        <time>2020-09-20T08:24:59.000Z</time>
      </trkpt>
      <trkpt lat="43.6189" lon="3.74019">
        <ele>155.26162852713</ele>
        <time>2020-09-20T08:25:01.000Z</time>
      </trkpt>
      <trkpt lat="43.6189" lon="3.74014">
        <ele>155.64922542636</ele>
        <time>2020-09-20T08:25:03.000Z</time>
      </trkpt>
      <trkpt lat="43.6189" lon="3.74009">
        <ele>156.0392568595</ele>
        <time>2020-09-20T08:25:05.000Z</time>
      </trkpt>
      <trkpt lat="43.61889" lon="3.74004">
        <ele>156.45248</ele>
        <time>2020-09-20T08:25:07.000Z</time>
      </trkpt>
      <trkpt lat="43.61889" lon="3.74">
        <ele>156.8657031405</ele>
        <time>2020-09-20T08:25:09.000Z</time>
      </trkpt>
      <trkpt lat="43.61889" lon="3.73995">
        <ele>157.27892628099</ele>
        <time>2020-09-20T08:25:11.000Z</time>
      </trkpt>
      <trkpt lat="43.61888" lon="3.7399">
        <ele>157.69214942149</ele>
        <time>2020-09-20T08:25:13.000Z</time>
      </trkpt>
      <trkpt lat="43.61888" lon="3.73986">
        <ele>158.10189877383</ele>
        <time>2020-09-20T08:25:15.000Z</time>
      </trkpt>
      <trkpt lat="43.61887" lon="3.73982">
        <ele>158.50149930118</ele>
        <time>2020-09-20T08:25:17.000Z</time>
      </trkpt>
      <trkpt lat="43.61887" lon="3.73977">
        <ele>158.90109982852</ele>
        <time>2020-09-20T08:25:19.000Z</time>
      </trkpt>
      <trkpt lat="43.61886" lon="3.73973">
        <ele>159.30070035587</ele>
        <time>2020-09-20T08:25:21.000Z</time>
      </trkpt>
      <trkpt lat="43.61885" lon="3.73969">
        <ele>159.70030088321</ele>
        <time>2020-09-20T08:25:23.000Z</time>
      </trkpt>
      <trkpt lat="43.61884" lon="3.73964">
        <ele>160.10010134932</ele>
        <time>2020-09-20T08:25:25.000Z</time>
      </trkpt>
      <trkpt lat="43.61883" lon="3.7396">
        <ele>160.50050162146</ele>
        <time>2020-09-20T08:25:27.000Z</time>
      </trkpt>
      <trkpt lat="43.61882" lon="3.73956">
        <ele>160.90090189361</ele>
        <time>2020-09-20T08:25:29.000Z</time>
      </trkpt>
      <trkpt lat="43.6188" lon="3.73951">
        <ele>161.30130216575</ele>
        <time>2020-09-20T08:25:31.000Z</time>
      </trkpt>
      <trkpt lat="43.61879" lon="3.73947">
        <ele>161.70170243789</ele>
        <time>2020-09-20T08:25:33.000Z</time>
      </trkpt>
      <trkpt lat="43.61877" lon="3.73943">
        <ele>162.10200064</ele>
        <time>2020-09-20T08:25:35.000Z</time>
      </trkpt>
      <trkpt lat="43.61876" lon="3.73939">
        <ele>162.50200064</ele>
        <time>2020-09-20T08:25:37.000Z</time>
      </trkpt>
      <trkpt lat="43.61874" lon="3.73934">
        <ele>162.90200064</ele>
        <time>2020-09-20T08:25:39.000Z</time>
      </trkpt>
      <trkpt lat="43.61873" lon="3.7393">
        <ele>163.30200064</ele>
        <time>2020-09-20T08:25:41.000Z</time>
      </trkpt>
      <trkpt lat="43.61872" lon="3.73926">
        <ele>163.70200064</ele>
        <time>2020-09-20T08:25:43.000Z</time>
      </trkpt>
      <trkpt lat="43.6187" lon="3.73922">
        <ele>164.10200064</ele>
        <time>2020-09-20T08:25:45.000Z</time>
      </trkpt>
      <trkpt lat="43.61868" lon="3.73918">
        <ele>164.50200064</ele>
        <time>2020-09-20T08:25:47.000Z</time>
      </trkpt>
      <trkpt lat="43.61867" lon="3.73914">
        <ele>164.90200064</ele>
        <time>2020-09-20T08:25:49.000Z</time>
      </trkpt>
      <trkpt lat="43.61866" lon="3.7391">
        <ele>165.30200064</ele>
        <time>2020-09-20T08:25:51.000Z</time>
      </trkpt>
      <trkpt lat="43.61864" lon="3.73905">
        <ele>165.70200064</ele>
        <time>2020-09-20T08:25:53.000Z</time>
      </trkpt>
      <trkpt lat="43.61863" lon="3.73903">
        <ele>165.90200064</ele>
        <time>2020-09-20T08:25:54.000Z</time>
      </trkpt>
      <trkpt lat="43.61862" lon="3.73899">
        <ele>166.15100032</ele>
        <time>2020-09-20T08:25:56.000Z</time>
      </trkpt>
      <trkpt lat="43.61861" lon="3.73894">
        <ele>166.35100032</ele>
        <time>2020-09-20T08:25:58.000Z</time>
      </trkpt>
      <trkpt lat="43.6186" lon="3.7389">
        <ele>166.55100032</ele>
        <time>2020-09-20T08:26:00.000Z</time>
      </trkpt>
      <trkpt lat="43.61859" lon="3.73885">
        <ele>166.75100032</ele>
        <time>2020-09-20T08:26:02.000Z</time>
      </trkpt>
      <trkpt lat="43.61859" lon="3.73882">
        <ele>166.85100032</ele>
        <time>2020-09-20T08:26:03.000Z</time>
      </trkpt>
      <trkpt lat="43.61859" lon="3.73877">
        <ele>167.05100032</ele>
        <time>2020-09-20T08:26:05.000Z</time>
      </trkpt>
      <trkpt lat="43.61859" lon="3.73875">
        <ele>167.15100032</ele>
        <time>2020-09-20T08:26:06.000Z</time>
      </trkpt>
      <trkpt lat="43.61859" lon="3.73872">
        <ele>167.25100032</ele>
        <time>2020-09-20T08:26:07.000Z</time>
      </trkpt>
      <trkpt lat="43.61859" lon="3.73869">
        <ele>167.35100032</ele>
        <time>2020-09-20T08:26:08.000Z</time>
      </trkpt>
      <trkpt lat="43.61859" lon="3.73867">
        <ele>167.45100032</ele>
        <time>2020-09-20T08:26:09.000Z</time>
      </trkpt>
      <trkpt lat="43.61859" lon="3.73864">
        <ele>167.55100032</ele>
        <time>2020-09-20T08:26:10.000Z</time>
      </trkpt>
      <trkpt lat="43.61859" lon="3.73861">
        <ele>167.65100032</ele>
        <time>2020-09-20T08:26:11.000Z</time>
      </trkpt>
      <trkpt lat="43.61859" lon="3.73858">
        <ele>167.75100032</ele>
        <time>2020-09-20T08:26:12.000Z</time>
      </trkpt>
      <trkpt lat="43.61859" lon="3.73855">
        <ele>167.85100032</ele>
        <time>2020-09-20T08:26:13.000Z</time>
      </trkpt>
      <trkpt lat="43.61859" lon="3.73851">
        <ele>167.95100032</ele>
        <time>2020-09-20T08:26:14.000Z</time>
      </trkpt>
      <trkpt lat="43.61859" lon="3.73848">
        <ele>168</ele>
        <time>2020-09-20T08:26:15.000Z</time>
      </trkpt>
      <trkpt lat="43.61859" lon="3.73844">
        <ele>168</ele>
        <time>2020-09-20T08:26:16.000Z</time>
      </trkpt>
      <trkpt lat="43.61859" lon="3.73841">
        <ele>168</ele>
        <time>2020-09-20T08:26:17.000Z</time>
      </trkpt>
      <trkpt lat="43.61859" lon="3.73838">
        <ele>168</ele>
        <time>2020-09-20T08:26:18.000Z</time>
      </trkpt>
      <trkpt lat="43.61859" lon="3.73834">
        <ele>168</ele>
        <time>2020-09-20T08:26:19.000Z</time>
      </trkpt>
      <trkpt lat="43.6186" lon="3.73831">
        <ele>168</ele>
        <time>2020-09-20T08:26:20.000Z</time>
      </trkpt>
      <trkpt lat="43.61859" lon="3.73828">
        <ele>168</ele>
        <time>2020-09-20T08:26:21.000Z</time>
      </trkpt>
      <trkpt lat="43.61859" lon="3.73825">
        <ele>168</ele>
        <time>2020-09-20T08:26:22.000Z</time>
      </trkpt>
      <trkpt lat="43.61859" lon="3.73822">
        <ele>168</ele>
        <time>2020-09-20T08:26:23.000Z</time>
      </trkpt>
      <trkpt lat="43.61859" lon="3.73819">
        <ele>168</ele>
        <time>2020-09-20T08:26:24.000Z</time>
      </trkpt>
      <trkpt lat="43.61859" lon="3.73815">
        <ele>168</ele>
        <time>2020-09-20T08:26:25.000Z</time>
      </trkpt>
      <trkpt lat="43.61859" lon="3.73812">
        <ele>168</ele>
        <time>2020-09-20T08:26:26.000Z</time>
      </trkpt>
      <trkpt lat="43.61859" lon="3.73809">
        <ele>168</ele>
        <time>2020-09-20T08:26:27.000Z</time>
      </trkpt>
      <trkpt lat="43.61859" lon="3.73806">
        <ele>168</ele>
        <time>2020-09-20T08:26:28.000Z</time>
      </trkpt>
      <trkpt lat="43.61858" lon="3.73803">
        <ele>168</ele>
        <time>2020-09-20T08:26:29.000Z</time>
      </trkpt>
      <trkpt lat="43.61858" lon="3.738">
        <ele>168</ele>
        <time>2020-09-20T08:26:30.000Z</time>
      </trkpt>
      <trkpt lat="43.61858" lon="3.73797">
        <ele>168</ele>
        <time>2020-09-20T08:26:31.000Z</time>
      </trkpt>
      <trkpt lat="43.61858" lon="3.73794">
        <ele>168</ele>
        <time>2020-09-20T08:26:32.000Z</time>
      </trkpt>
      <trkpt lat="43.61857" lon="3.73792">
        <ele>168</ele>
        <time>2020-09-20T08:26:33.000Z</time>
      </trkpt>
      <trkpt lat="43.61857" lon="3.73789">
        <ele>168</ele>
        <time>2020-09-20T08:26:34.000Z</time>
      </trkpt>
      <trkpt lat="43.61857" lon="3.73786">
        <ele>168.09922241245</ele>
        <time>2020-09-20T08:26:35.000Z</time>
      </trkpt>
      <trkpt lat="43.61856" lon="3.73784">
        <ele>168.29377494163</ele>
        <time>2020-09-20T08:26:36.000Z</time>
      </trkpt>
      <trkpt lat="43.61856" lon="3.73781">
        <ele>168.48832747082</ele>
        <time>2020-09-20T08:26:37.000Z</time>
      </trkpt>
      <trkpt lat="43.61856" lon="3.73778">
        <ele>168.68288</ele>
        <time>2020-09-20T08:26:38.000Z</time>
      </trkpt>
      <trkpt lat="43.61855" lon="3.73775">
        <ele>168.87743252918</ele>
        <time>2020-09-20T08:26:39.000Z</time>
      </trkpt>
      <trkpt lat="43.61855" lon="3.73772">
        <ele>169.07198505837</ele>
        <time>2020-09-20T08:26:40.000Z</time>
      </trkpt>
      <trkpt lat="43.61855" lon="3.73769">
        <ele>169.26653758755</ele>
        <time>2020-09-20T08:26:41.000Z</time>
      </trkpt>
      <trkpt lat="43.61855" lon="3.73766">
        <ele>169.46109011673</ele>
        <time>2020-09-20T08:26:42.000Z</time>
      </trkpt>
      <trkpt lat="43.61854" lon="3.73763">
        <ele>169.65564264591</ele>
        <time>2020-09-20T08:26:43.000Z</time>
      </trkpt>
      <trkpt lat="43.61854" lon="3.7376">
        <ele>169.8501951751</ele>
        <time>2020-09-20T08:26:44.000Z</time>
      </trkpt>
      <trkpt lat="43.61854" lon="3.73757">
        <ele>170.02366288066</ele>
        <time>2020-09-20T08:26:45.000Z</time>
      </trkpt>
      <trkpt lat="43.61854" lon="3.73754">
        <ele>170.12654353909</ele>
        <time>2020-09-20T08:26:46.000Z</time>
      </trkpt>
      <trkpt lat="43.61854" lon="3.73751">
        <ele>170.22942419753</ele>
        <time>2020-09-20T08:26:47.000Z</time>
      </trkpt>
      <trkpt lat="43.61854" lon="3.73748">
        <ele>170.33230485597</ele>
        <time>2020-09-20T08:26:48.000Z</time>
      </trkpt>
      <trkpt lat="43.61854" lon="3.73745">
        <ele>170.4351855144</ele>
        <time>2020-09-20T08:26:49.000Z</time>
      </trkpt>
      <trkpt lat="43.61854" lon="3.73741">
        <ele>170.53806617284</ele>
        <time>2020-09-20T08:26:50.000Z</time>
      </trkpt>
      <trkpt lat="43.61854" lon="3.73738">
        <ele>170.64094683128</ele>
        <time>2020-09-20T08:26:51.000Z</time>
      </trkpt>
      <trkpt lat="43.61854" lon="3.73735">
        <ele>170.74382748971</ele>
        <time>2020-09-20T08:26:52.000Z</time>
      </trkpt>
      <trkpt lat="43.61854" lon="3.73731">
        <ele>170.84670814815</ele>
        <time>2020-09-20T08:26:53.000Z</time>
      </trkpt>
      <trkpt lat="43.61854" lon="3.73728">
        <ele>170.94958880658</ele>
        <time>2020-09-20T08:26:54.000Z</time>
      </trkpt>
      <trkpt lat="43.61854" lon="3.73725">
        <ele>171.05100032</ele>
        <time>2020-09-20T08:26:55.000Z</time>
      </trkpt>
      <trkpt lat="43.61854" lon="3.73722">
        <ele>171.15100032</ele>
        <time>2020-09-20T08:26:56.000Z</time>
      </trkpt>
      <trkpt lat="43.61854" lon="3.7372">
        <ele>171.25100032</ele>
        <time>2020-09-20T08:26:57.000Z</time>
      </trkpt>
      <trkpt lat="43.61854" lon="3.73717">
        <ele>171.35100032</ele>
        <time>2020-09-20T08:26:58.000Z</time>
      </trkpt>
      <trkpt lat="43.61853" lon="3.73714">
        <ele>171.45100032</ele>
        <time>2020-09-20T08:26:59.000Z</time>
      </trkpt>
      <trkpt lat="43.61853" lon="3.73712">
        <ele>171.55100032</ele>
        <time>2020-09-20T08:27:00.000Z</time>
      </trkpt>
      <trkpt lat="43.61853" lon="3.73709">
        <ele>171.65100032</ele>
        <time>2020-09-20T08:27:01.000Z</time>
      </trkpt>
      <trkpt lat="43.61853" lon="3.73706">
        <ele>171.75100032</ele>
        <time>2020-09-20T08:27:02.000Z</time>
      </trkpt>
      <trkpt lat="43.61852" lon="3.73703">
        <ele>171.85100032</ele>
        <time>2020-09-20T08:27:03.000Z</time>
      </trkpt>
      <trkpt lat="43.61852" lon="3.737">
        <ele>171.95100032</ele>
        <time>2020-09-20T08:27:04.000Z</time>
      </trkpt>
      <trkpt lat="43.61852" lon="3.73697">
        <ele>172.05100032</ele>
        <time>2020-09-20T08:27:05.000Z</time>
      </trkpt>
      <trkpt lat="43.61851" lon="3.73694">
        <ele>172.15100032</ele>
        <time>2020-09-20T08:27:06.000Z</time>
      </trkpt>
      <trkpt lat="43.61851" lon="3.73691">
        <ele>172.25100032</ele>
        <time>2020-09-20T08:27:07.000Z</time>
      </trkpt>
      <trkpt lat="43.6185" lon="3.73689">
        <ele>172.35100032</ele>
        <time>2020-09-20T08:27:08.000Z</time>
      </trkpt>
      <trkpt lat="43.6185" lon="3.73686">
        <ele>172.45100032</ele>
        <time>2020-09-20T08:27:09.000Z</time>
      </trkpt>
      <trkpt lat="43.61849" lon="3.73683">
        <ele>172.55100032</ele>
        <time>2020-09-20T08:27:10.000Z</time>
      </trkpt>
      <trkpt lat="43.61849" lon="3.73681">
        <ele>172.65100032</ele>
        <time>2020-09-20T08:27:11.000Z</time>
      </trkpt>
      <trkpt lat="43.61848" lon="3.73678">
        <ele>172.75100032</ele>
        <time>2020-09-20T08:27:12.000Z</time>
      </trkpt>
      <trkpt lat="43.61848" lon="3.73675">
        <ele>172.85100032</ele>
        <time>2020-09-20T08:27:13.000Z</time>
      </trkpt>
      <trkpt lat="43.61847" lon="3.73672">
        <ele>172.95100032</ele>
        <time>2020-09-20T08:27:14.000Z</time>
      </trkpt>
      <trkpt lat="43.61847" lon="3.73669">
        <ele>173.05079713147</ele>
        <time>2020-09-20T08:27:15.000Z</time>
      </trkpt>
      <trkpt lat="43.61846" lon="3.73666">
        <ele>173.1503987251</ele>
        <time>2020-09-20T08:27:16.000Z</time>
      </trkpt>
      <trkpt lat="43.61846" lon="3.73664">
        <ele>173.25000031873</ele>
        <time>2020-09-20T08:27:17.000Z</time>
      </trkpt>
      <trkpt lat="43.61845" lon="3.73661">
        <ele>173.34960191235</ele>
        <time>2020-09-20T08:27:18.000Z</time>
      </trkpt>
      <trkpt lat="43.61845" lon="3.73658">
        <ele>173.44920350598</ele>
        <time>2020-09-20T08:27:19.000Z</time>
      </trkpt>
      <trkpt lat="43.61844" lon="3.73655">
        <ele>173.5488050996</ele>
        <time>2020-09-20T08:27:20.000Z</time>
      </trkpt>
      <trkpt lat="43.61844" lon="3.73652">
        <ele>173.64840669323</ele>
        <time>2020-09-20T08:27:21.000Z</time>
      </trkpt>
      <trkpt lat="43.61843" lon="3.73649">
        <ele>173.74800828685</ele>
        <time>2020-09-20T08:27:22.000Z</time>
      </trkpt>
      <trkpt lat="43.61843" lon="3.73645">
        <ele>173.84760988048</ele>
        <time>2020-09-20T08:27:23.000Z</time>
      </trkpt>
      <trkpt lat="43.61842" lon="3.73642">
        <ele>173.9472114741</ele>
        <time>2020-09-20T08:27:24.000Z</time>
      </trkpt>
      <trkpt lat="43.61842" lon="3.73639">
        <ele>174.0471890763</ele>
        <time>2020-09-20T08:27:25.000Z</time>
      </trkpt>
      <trkpt lat="43.61842" lon="3.73636">
        <ele>174.14759068273</ele>
        <time>2020-09-20T08:27:26.000Z</time>
      </trkpt>
      <trkpt lat="43.61841" lon="3.73634">
        <ele>174.24799228916</ele>
        <time>2020-09-20T08:27:27.000Z</time>
      </trkpt>
      <trkpt lat="43.61841" lon="3.73631">
        <ele>174.34839389558</ele>
        <time>2020-09-20T08:27:28.000Z</time>
      </trkpt>
      <trkpt lat="43.61841" lon="3.73629">
        <ele>174.44879550201</ele>
        <time>2020-09-20T08:27:29.000Z</time>
      </trkpt>
      <trkpt lat="43.6184" lon="3.73626">
        <ele>174.54919710843</ele>
        <time>2020-09-20T08:27:30.000Z</time>
      </trkpt>
      <trkpt lat="43.6184" lon="3.73623">
        <ele>174.64959871486</ele>
        <time>2020-09-20T08:27:31.000Z</time>
      </trkpt>
      <trkpt lat="43.61839" lon="3.73621">
        <ele>174.75000032129</ele>
        <time>2020-09-20T08:27:32.000Z</time>
      </trkpt>
      <trkpt lat="43.61839" lon="3.73618">
        <ele>174.85040192771</ele>
        <time>2020-09-20T08:27:33.000Z</time>
      </trkpt>
      <trkpt lat="43.61838" lon="3.73615">
        <ele>174.95080353414</ele>
        <time>2020-09-20T08:27:34.000Z</time>
      </trkpt>
      <trkpt lat="43.61838" lon="3.73613">
        <ele>175.04956294696</ele>
        <time>2020-09-20T08:27:35.000Z</time>
      </trkpt>
      <trkpt lat="43.61837" lon="3.7361">
        <ele>175.14674458613</ele>
        <time>2020-09-20T08:27:36.000Z</time>
      </trkpt>
      <trkpt lat="43.61837" lon="3.73608">
        <ele>175.2439262253</ele>
        <time>2020-09-20T08:27:37.000Z</time>
      </trkpt>
      <trkpt lat="43.61835" lon="3.73603">
        <ele>175.43828950364</ele>
        <time>2020-09-20T08:27:39.000Z</time>
      </trkpt>
      <trkpt lat="43.61835" lon="3.73601">
        <ele>175.53547114281</ele>
        <time>2020-09-20T08:27:40.000Z</time>
      </trkpt>
      <trkpt lat="43.61834" lon="3.73599">
        <ele>175.63265278198</ele>
        <time>2020-09-20T08:27:41.000Z</time>
      </trkpt>
      <trkpt lat="43.61834" lon="3.73596">
        <ele>175.72983442115</ele>
        <time>2020-09-20T08:27:42.000Z</time>
      </trkpt>
      <trkpt lat="43.61833" lon="3.73593">
        <ele>175.82701606032</ele>
        <time>2020-09-20T08:27:43.000Z</time>
      </trkpt>
      <trkpt lat="43.61833" lon="3.7359">
        <ele>175.92419769949</ele>
        <time>2020-09-20T08:27:44.000Z</time>
      </trkpt>
      <trkpt lat="43.61832" lon="3.73587">
        <ele>176.04526623245</ele>
        <time>2020-09-20T08:27:45.000Z</time>
      </trkpt>
      <trkpt lat="43.61832" lon="3.73584">
        <ele>176.25102782028</ele>
        <time>2020-09-20T08:27:46.000Z</time>
      </trkpt>
      <trkpt lat="43.61831" lon="3.73581">
        <ele>176.45678940812</ele>
        <time>2020-09-20T08:27:47.000Z</time>
      </trkpt>
      <trkpt lat="43.61831" lon="3.73579">
        <ele>176.66255099595</ele>
        <time>2020-09-20T08:27:48.000Z</time>
      </trkpt>
      <trkpt lat="43.6183" lon="3.73576">
        <ele>176.86831258379</ele>
        <time>2020-09-20T08:27:49.000Z</time>
      </trkpt>
      <trkpt lat="43.6183" lon="3.73574">
        <ele>177.07407417162</ele>
        <time>2020-09-20T08:27:50.000Z</time>
      </trkpt>
      <trkpt lat="43.6183" lon="3.73571">
        <ele>177.27983575945</ele>
        <time>2020-09-20T08:27:51.000Z</time>
      </trkpt>
      <trkpt lat="43.6183" lon="3.73568">
        <ele>177.48559734729</ele>
        <time>2020-09-20T08:27:52.000Z</time>
      </trkpt>
      <trkpt lat="43.6183" lon="3.73565">
        <ele>177.69135893512</ele>
        <time>2020-09-20T08:27:53.000Z</time>
      </trkpt>
      <trkpt lat="43.61829" lon="3.73563">
        <ele>177.89712052296</ele>
        <time>2020-09-20T08:27:54.000Z</time>
      </trkpt>
      <trkpt lat="43.61829" lon="3.7356">
        <ele>178.05005067466</ele>
        <time>2020-09-20T08:27:55.000Z</time>
      </trkpt>
      <trkpt lat="43.61829" lon="3.73557">
        <ele>178.15015074269</ele>
        <time>2020-09-20T08:27:56.000Z</time>
      </trkpt>
      <trkpt lat="43.61829" lon="3.73554">
        <ele>178.25025081073</ele>
        <time>2020-09-20T08:27:57.000Z</time>
      </trkpt>
      <trkpt lat="43.61829" lon="3.73552">
        <ele>178.35035087877</ele>
        <time>2020-09-20T08:27:58.000Z</time>
      </trkpt>
      <trkpt lat="43.61829" lon="3.73549">
        <ele>178.4504509468</ele>
        <time>2020-09-20T08:27:59.000Z</time>
      </trkpt>
      <trkpt lat="43.61829" lon="3.73546">
        <ele>178.55055101484</ele>
        <time>2020-09-20T08:28:00.000Z</time>
      </trkpt>
      <trkpt lat="43.61828" lon="3.73543">
        <ele>178.65065108287</ele>
        <time>2020-09-20T08:28:01.000Z</time>
      </trkpt>
      <trkpt lat="43.61828" lon="3.7354">
        <ele>178.75075115091</ele>
        <time>2020-09-20T08:28:02.000Z</time>
      </trkpt>
      <trkpt lat="43.61828" lon="3.73537">
        <ele>178.85085121895</ele>
        <time>2020-09-20T08:28:03.000Z</time>
      </trkpt>
      <trkpt lat="43.61828" lon="3.73534">
        <ele>178.95095128698</ele>
        <time>2020-09-20T08:28:04.000Z</time>
      </trkpt>
      <trkpt lat="43.61828" lon="3.73531">
        <ele>179</ele>
        <time>2020-09-20T08:28:05.000Z</time>
      </trkpt>
      <trkpt lat="43.61827" lon="3.73528">
        <ele>179</ele>
        <time>2020-09-20T08:28:06.000Z</time>
      </trkpt>
      <trkpt lat="43.61827" lon="3.73525">
        <ele>179</ele>
        <time>2020-09-20T08:28:07.000Z</time>
      </trkpt>
      <trkpt lat="43.61827" lon="3.73522">
        <ele>179</ele>
        <time>2020-09-20T08:28:08.000Z</time>
      </trkpt>
      <trkpt lat="43.61827" lon="3.73519">
        <ele>179</ele>
        <time>2020-09-20T08:28:09.000Z</time>
      </trkpt>
      <trkpt lat="43.61827" lon="3.73515">
        <ele>179</ele>
        <time>2020-09-20T08:28:10.000Z</time>
      </trkpt>
      <trkpt lat="43.61827" lon="3.73512">
        <ele>179</ele>
        <time>2020-09-20T08:28:11.000Z</time>
      </trkpt>
      <trkpt lat="43.61827" lon="3.73508">
        <ele>179</ele>
        <time>2020-09-20T08:28:12.000Z</time>
      </trkpt>
      <trkpt lat="43.61827" lon="3.73505">
        <ele>179</ele>
        <time>2020-09-20T08:28:13.000Z</time>
      </trkpt>
      <trkpt lat="43.61827" lon="3.73501">
        <ele>179</ele>
        <time>2020-09-20T08:28:14.000Z</time>
      </trkpt>
      <trkpt lat="43.61827" lon="3.73498">
        <ele>178.98037157025</ele>
        <time>2020-09-20T08:28:15.000Z</time>
      </trkpt>
      <trkpt lat="43.61827" lon="3.73495">
        <ele>178.87706578512</ele>
        <time>2020-09-20T08:28:16.000Z</time>
      </trkpt>
      <trkpt lat="43.61827" lon="3.73491">
        <ele>178.77376</ele>
        <time>2020-09-20T08:28:17.000Z</time>
      </trkpt>
      <trkpt lat="43.61828" lon="3.73487">
        <ele>178.67045421488</ele>
        <time>2020-09-20T08:28:18.000Z</time>
      </trkpt>
      <trkpt lat="43.61828" lon="3.73483">
        <ele>178.56714842975</ele>
        <time>2020-09-20T08:28:19.000Z</time>
      </trkpt>
      <trkpt lat="43.61829" lon="3.73479">
        <ele>178.46384264463</ele>
        <time>2020-09-20T08:28:20.000Z</time>
      </trkpt>
      <trkpt lat="43.61829" lon="3.73475">
        <ele>178.3605368595</ele>
        <time>2020-09-20T08:28:21.000Z</time>
      </trkpt>
      <trkpt lat="43.6183" lon="3.7347">
        <ele>178.25723107438</ele>
        <time>2020-09-20T08:28:22.000Z</time>
      </trkpt>
      <trkpt lat="43.61831" lon="3.73465">
        <ele>178.15392528926</ele>
        <time>2020-09-20T08:28:23.000Z</time>
      </trkpt>
      <trkpt lat="43.61832" lon="3.7346">
        <ele>178.05061950413</ele>
        <time>2020-09-20T08:28:24.000Z</time>
      </trkpt>
      <trkpt lat="43.61833" lon="3.73455">
        <ele>177.90106633527</ele>
        <time>2020-09-20T08:28:25.000Z</time>
      </trkpt>
      <trkpt lat="43.61834" lon="3.73449">
        <ele>177.70707997452</ele>
        <time>2020-09-20T08:28:26.000Z</time>
      </trkpt>
      <trkpt lat="43.61835" lon="3.73443">
        <ele>177.51309361378</ele>
        <time>2020-09-20T08:28:27.000Z</time>
      </trkpt>
      <trkpt lat="43.61837" lon="3.73436">
        <ele>177.31910725304</ele>
        <time>2020-09-20T08:28:28.000Z</time>
      </trkpt>
      <trkpt lat="43.61838" lon="3.7343">
        <ele>177.1251208923</ele>
        <time>2020-09-20T08:28:29.000Z</time>
      </trkpt>
      <trkpt lat="43.6184" lon="3.73423">
        <ele>176.93113453156</ele>
        <time>2020-09-20T08:28:30.000Z</time>
      </trkpt>
      <trkpt lat="43.61841" lon="3.73416">
        <ele>176.73714817082</ele>
        <time>2020-09-20T08:28:31.000Z</time>
      </trkpt>
      <trkpt lat="43.61843" lon="3.73409">
        <ele>176.54316181008</ele>
        <time>2020-09-20T08:28:32.000Z</time>
      </trkpt>
      <trkpt lat="43.61845" lon="3.73401">
        <ele>176.34917544933</ele>
        <time>2020-09-20T08:28:33.000Z</time>
      </trkpt>
      <trkpt lat="43.61846" lon="3.73393">
        <ele>176.15518908859</ele>
        <time>2020-09-20T08:28:34.000Z</time>
      </trkpt>
      <trkpt lat="43.61848" lon="3.73385">
        <ele>175.98056364799</ele>
        <time>2020-09-20T08:28:35.000Z</time>
      </trkpt>
      <trkpt lat="43.61849" lon="3.73377">
        <ele>175.88338188793</ele>
        <time>2020-09-20T08:28:36.000Z</time>
      </trkpt>
      <trkpt lat="43.61851" lon="3.7337">
        <ele>175.78620012788</ele>
        <time>2020-09-20T08:28:37.000Z</time>
      </trkpt>
      <trkpt lat="43.61852" lon="3.73362">
        <ele>175.68901836782</ele>
        <time>2020-09-20T08:28:38.000Z</time>
      </trkpt>
      <trkpt lat="43.61853" lon="3.73354">
        <ele>175.59183660776</ele>
        <time>2020-09-20T08:28:39.000Z</time>
      </trkpt>
      <trkpt lat="43.61853" lon="3.73347">
        <ele>175.49465484771</ele>
        <time>2020-09-20T08:28:40.000Z</time>
      </trkpt>
      <trkpt lat="43.61854" lon="3.7334">
        <ele>175.39747308765</ele>
        <time>2020-09-20T08:28:41.000Z</time>
      </trkpt>
      <trkpt lat="43.61855" lon="3.73333">
        <ele>175.30029132759</ele>
        <time>2020-09-20T08:28:42.000Z</time>
      </trkpt>
      <trkpt lat="43.61856" lon="3.73327">
        <ele>175.20310956754</ele>
        <time>2020-09-20T08:28:43.000Z</time>
      </trkpt>
      <trkpt lat="43.61857" lon="3.73321">
        <ele>175.10592780748</ele>
        <time>2020-09-20T08:28:44.000Z</time>
      </trkpt>
      <trkpt lat="43.61858" lon="3.73316">
        <ele>175.00874604742</ele>
        <time>2020-09-20T08:28:45.000Z</time>
      </trkpt>
      <trkpt lat="43.61859" lon="3.7331">
        <ele>175.09680885106</ele>
        <time>2020-09-20T08:28:46.000Z</time>
      </trkpt>
      <trkpt lat="43.61859" lon="3.73305">
        <ele>175.20319182979</ele>
        <time>2020-09-20T08:28:47.000Z</time>
      </trkpt>
      <trkpt lat="43.6186" lon="3.73299">
        <ele>175.30957480851</ele>
        <time>2020-09-20T08:28:48.000Z</time>
      </trkpt>
      <trkpt lat="43.6186" lon="3.73294">
        <ele>175.41595778723</ele>
        <time>2020-09-20T08:28:49.000Z</time>
      </trkpt>
      <trkpt lat="43.6186" lon="3.73289">
        <ele>175.52234076596</ele>
        <time>2020-09-20T08:28:50.000Z</time>
      </trkpt>
      <trkpt lat="43.6186" lon="3.73284">
        <ele>175.62872374468</ele>
        <time>2020-09-20T08:28:51.000Z</time>
      </trkpt>
      <trkpt lat="43.6186" lon="3.73279">
        <ele>175.7351067234</ele>
        <time>2020-09-20T08:28:52.000Z</time>
      </trkpt>
      <trkpt lat="43.6186" lon="3.73274">
        <ele>175.84148970213</ele>
        <time>2020-09-20T08:28:53.000Z</time>
      </trkpt>
      <trkpt lat="43.6186" lon="3.73269">
        <ele>175.94787268085</ele>
        <time>2020-09-20T08:28:54.000Z</time>
      </trkpt>
      <trkpt lat="43.6186" lon="3.73265">
        <ele>176.05100032</ele>
        <time>2020-09-20T08:28:55.000Z</time>
      </trkpt>
      <trkpt lat="43.6186" lon="3.73261">
        <ele>176.15100032</ele>
        <time>2020-09-20T08:28:56.000Z</time>
      </trkpt>
      <trkpt lat="43.61859" lon="3.73257">
        <ele>176.25100032</ele>
        <time>2020-09-20T08:28:57.000Z</time>
      </trkpt>
      <trkpt lat="43.61859" lon="3.73253">
        <ele>176.35100032</ele>
        <time>2020-09-20T08:28:58.000Z</time>
      </trkpt>
      <trkpt lat="43.61859" lon="3.7325">
        <ele>176.45100032</ele>
        <time>2020-09-20T08:28:59.000Z</time>
      </trkpt>
      <trkpt lat="43.61859" lon="3.73246">
        <ele>176.55100032</ele>
        <time>2020-09-20T08:29:00.000Z</time>
      </trkpt>
      <trkpt lat="43.61858" lon="3.73243">
        <ele>176.65100032</ele>
        <time>2020-09-20T08:29:01.000Z</time>
      </trkpt>
      <trkpt lat="43.61857" lon="3.73239">
        <ele>176.75100032</ele>
        <time>2020-09-20T08:29:02.000Z</time>
      </trkpt>
      <trkpt lat="43.61857" lon="3.73236">
        <ele>176.85100032</ele>
        <time>2020-09-20T08:29:03.000Z</time>
      </trkpt>
      <trkpt lat="43.61857" lon="3.73232">
        <ele>176.95100032</ele>
        <time>2020-09-20T08:29:04.000Z</time>
      </trkpt>
      <trkpt lat="43.61856" lon="3.73228">
        <ele>177</ele>
        <time>2020-09-20T08:29:05.000Z</time>
      </trkpt>
      <trkpt lat="43.61855" lon="3.73225">
        <ele>177</ele>
        <time>2020-09-20T08:29:06.000Z</time>
      </trkpt>
      <trkpt lat="43.61855" lon="3.73221">
        <ele>177</ele>
        <time>2020-09-20T08:29:07.000Z</time>
      </trkpt>
      <trkpt lat="43.61854" lon="3.73217">
        <ele>177</ele>
        <time>2020-09-20T08:29:08.000Z</time>
      </trkpt>
      <trkpt lat="43.61854" lon="3.73213">
        <ele>177</ele>
        <time>2020-09-20T08:29:09.000Z</time>
      </trkpt>
      <trkpt lat="43.61853" lon="3.73209">
        <ele>177</ele>
        <time>2020-09-20T08:29:10.000Z</time>
      </trkpt>
      <trkpt lat="43.61852" lon="3.73205">
        <ele>177</ele>
        <time>2020-09-20T08:29:11.000Z</time>
      </trkpt>
      <trkpt lat="43.61851" lon="3.73201">
        <ele>177</ele>
        <time>2020-09-20T08:29:12.000Z</time>
      </trkpt>
      <trkpt lat="43.6185" lon="3.73197">
        <ele>177</ele>
        <time>2020-09-20T08:29:13.000Z</time>
      </trkpt>
      <trkpt lat="43.6185" lon="3.73193">
        <ele>177</ele>
        <time>2020-09-20T08:29:14.000Z</time>
      </trkpt>
      <trkpt lat="43.61849" lon="3.73189">
        <ele>177</ele>
        <time>2020-09-20T08:29:15.000Z</time>
      </trkpt>
      <trkpt lat="43.61848" lon="3.73185">
        <ele>177.10253672899</ele>
        <time>2020-09-20T08:29:16.000Z</time>
      </trkpt>
      <trkpt lat="43.61847" lon="3.7318">
        <ele>177.20824504575</ele>
        <time>2020-09-20T08:29:17.000Z</time>
      </trkpt>
      <trkpt lat="43.61847" lon="3.73176">
        <ele>177.31395336251</ele>
        <time>2020-09-20T08:29:18.000Z</time>
      </trkpt>
      <trkpt lat="43.61846" lon="3.73171">
        <ele>177.41966167926</ele>
        <time>2020-09-20T08:29:19.000Z</time>
      </trkpt>
      <trkpt lat="43.61845" lon="3.73167">
        <ele>177.52536999602</ele>
        <time>2020-09-20T08:29:20.000Z</time>
      </trkpt>
      <trkpt lat="43.61845" lon="3.73163">
        <ele>177.63107831278</ele>
        <time>2020-09-20T08:29:21.000Z</time>
      </trkpt>
      <trkpt lat="43.61844" lon="3.73158">
        <ele>177.73678662954</ele>
        <time>2020-09-20T08:29:22.000Z</time>
      </trkpt>
      <trkpt lat="43.61844" lon="3.73154">
        <ele>177.8424949463</ele>
        <time>2020-09-20T08:29:23.000Z</time>
      </trkpt>
      <trkpt lat="43.61843" lon="3.7315">
        <ele>177.94820326306</ele>
        <time>2020-09-20T08:29:24.000Z</time>
      </trkpt>
      <trkpt lat="43.61843" lon="3.73146">
        <ele>177.94899968</ele>
        <time>2020-09-20T08:29:25.000Z</time>
      </trkpt>
      <trkpt lat="43.61843" lon="3.73142">
        <ele>177.84899968</ele>
        <time>2020-09-20T08:29:26.000Z</time>
      </trkpt>
      <trkpt lat="43.61842" lon="3.73137">
        <ele>177.74899968</ele>
        <time>2020-09-20T08:29:27.000Z</time>
      </trkpt>
      <trkpt lat="43.61842" lon="3.73133">
        <ele>177.64899968</ele>
        <time>2020-09-20T08:29:28.000Z</time>
      </trkpt>
      <trkpt lat="43.61841" lon="3.73128">
        <ele>177.54899968</ele>
        <time>2020-09-20T08:29:29.000Z</time>
      </trkpt>
      <trkpt lat="43.6184" lon="3.73124">
        <ele>177.44899968</ele>
        <time>2020-09-20T08:29:30.000Z</time>
      </trkpt>
      <trkpt lat="43.61839" lon="3.7312">
        <ele>177.34899968</ele>
        <time>2020-09-20T08:29:31.000Z</time>
      </trkpt>
      <trkpt lat="43.61838" lon="3.73115">
        <ele>177.24899968</ele>
        <time>2020-09-20T08:29:32.000Z</time>
      </trkpt>
      <trkpt lat="43.61837" lon="3.73111">
        <ele>177.14899968</ele>
        <time>2020-09-20T08:29:33.000Z</time>
      </trkpt>
      <trkpt lat="43.61837" lon="3.73106">
        <ele>177.04899968</ele>
        <time>2020-09-20T08:29:34.000Z</time>
      </trkpt>
      <trkpt lat="43.61837" lon="3.73102">
        <ele>177.05100032</ele>
        <time>2020-09-20T08:29:35.000Z</time>
      </trkpt>
      <trkpt lat="43.61836" lon="3.73097">
        <ele>177.15100032</ele>
        <time>2020-09-20T08:29:36.000Z</time>
      </trkpt>
      <trkpt lat="43.61836" lon="3.73093">
        <ele>177.25100032</ele>
        <time>2020-09-20T08:29:37.000Z</time>
      </trkpt>
      <trkpt lat="43.61836" lon="3.73088">
        <ele>177.35100032</ele>
        <time>2020-09-20T08:29:38.000Z</time>
      </trkpt>
      <trkpt lat="43.61835" lon="3.73083">
        <ele>177.45100032</ele>
        <time>2020-09-20T08:29:39.000Z</time>
      </trkpt>
      <trkpt lat="43.61835" lon="3.73078">
        <ele>177.55100032</ele>
        <time>2020-09-20T08:29:40.000Z</time>
      </trkpt>
      <trkpt lat="43.61835" lon="3.73073">
        <ele>177.65100032</ele>
        <time>2020-09-20T08:29:41.000Z</time>
      </trkpt>
      <trkpt lat="43.61834" lon="3.73069">
        <ele>177.75100032</ele>
        <time>2020-09-20T08:29:42.000Z</time>
      </trkpt>
      <trkpt lat="43.61834" lon="3.73064">
        <ele>177.85100032</ele>
        <time>2020-09-20T08:29:43.000Z</time>
      </trkpt>
      <trkpt lat="43.61833" lon="3.73059">
        <ele>177.95100032</ele>
        <time>2020-09-20T08:29:44.000Z</time>
      </trkpt>
      <trkpt lat="43.61833" lon="3.73054">
        <ele>178</ele>
        <time>2020-09-20T08:29:45.000Z</time>
      </trkpt>
      <trkpt lat="43.61832" lon="3.73049">
        <ele>178</ele>
        <time>2020-09-20T08:29:46.000Z</time>
      </trkpt>
      <trkpt lat="43.61832" lon="3.73045">
        <ele>178</ele>
        <time>2020-09-20T08:29:47.000Z</time>
      </trkpt>
      <trkpt lat="43.61831" lon="3.7304">
        <ele>178</ele>
        <time>2020-09-20T08:29:48.000Z</time>
      </trkpt>
      <trkpt lat="43.61831" lon="3.73035">
        <ele>178</ele>
        <time>2020-09-20T08:29:49.000Z</time>
      </trkpt>
      <trkpt lat="43.6183" lon="3.73031">
        <ele>178</ele>
        <time>2020-09-20T08:29:50.000Z</time>
      </trkpt>
      <trkpt lat="43.6183" lon="3.73027">
        <ele>178</ele>
        <time>2020-09-20T08:29:51.000Z</time>
      </trkpt>
      <trkpt lat="43.61829" lon="3.73022">
        <ele>178</ele>
        <time>2020-09-20T08:29:52.000Z</time>
      </trkpt>
      <trkpt lat="43.61829" lon="3.73018">
        <ele>178</ele>
        <time>2020-09-20T08:29:53.000Z</time>
      </trkpt>
      <trkpt lat="43.61828" lon="3.73014">
        <ele>178</ele>
        <time>2020-09-20T08:29:54.000Z</time>
      </trkpt>
      <trkpt lat="43.61827" lon="3.73009">
        <ele>178.03261978638</ele>
        <time>2020-09-20T08:29:55.000Z</time>
      </trkpt>
      <trkpt lat="43.61827" lon="3.73005">
        <ele>178.13455661882</ele>
        <time>2020-09-20T08:29:56.000Z</time>
      </trkpt>
      <trkpt lat="43.61826" lon="3.73001">
        <ele>178.23649345125</ele>
        <time>2020-09-20T08:29:57.000Z</time>
      </trkpt>
      <trkpt lat="43.61825" lon="3.72997">
        <ele>178.33843028369</ele>
        <time>2020-09-20T08:29:58.000Z</time>
      </trkpt>
      <trkpt lat="43.61824" lon="3.72993">
        <ele>178.44036711612</ele>
        <time>2020-09-20T08:29:59.000Z</time>
      </trkpt>
      <trkpt lat="43.61823" lon="3.72989">
        <ele>178.54230394856</ele>
        <time>2020-09-20T08:30:00.000Z</time>
      </trkpt>
      <trkpt lat="43.61822" lon="3.72985">
        <ele>178.644240781</ele>
        <time>2020-09-20T08:30:01.000Z</time>
      </trkpt>
      <trkpt lat="43.61821" lon="3.72981">
        <ele>178.74617761343</ele>
        <time>2020-09-20T08:30:02.000Z</time>
      </trkpt>
      <trkpt lat="43.6182" lon="3.72978">
        <ele>178.84811444587</ele>
        <time>2020-09-20T08:30:03.000Z</time>
      </trkpt>
      <trkpt lat="43.61818" lon="3.72974">
        <ele>178.9500512783</ele>
        <time>2020-09-20T08:30:04.000Z</time>
      </trkpt>
      <trkpt lat="43.61817" lon="3.72971">
        <ele>179.10200064</ele>
        <time>2020-09-20T08:30:05.000Z</time>
      </trkpt>
      <trkpt lat="43.61816" lon="3.72967">
        <ele>179.30200064</ele>
        <time>2020-09-20T08:30:06.000Z</time>
      </trkpt>
      <trkpt lat="43.61814" lon="3.72964">
        <ele>179.50200064</ele>
        <time>2020-09-20T08:30:07.000Z</time>
      </trkpt>
      <trkpt lat="43.61813" lon="3.72961">
        <ele>179.70200064</ele>
        <time>2020-09-20T08:30:08.000Z</time>
      </trkpt>
      <trkpt lat="43.61812" lon="3.72958">
        <ele>179.90200064</ele>
        <time>2020-09-20T08:30:09.000Z</time>
      </trkpt>
      <trkpt lat="43.6181" lon="3.72955">
        <ele>180.10200064</ele>
        <time>2020-09-20T08:30:10.000Z</time>
      </trkpt>
      <trkpt lat="43.61809" lon="3.72952">
        <ele>180.30200064</ele>
        <time>2020-09-20T08:30:11.000Z</time>
      </trkpt>
      <trkpt lat="43.61808" lon="3.7295">
        <ele>180.50200064</ele>
        <time>2020-09-20T08:30:12.000Z</time>
      </trkpt>
      <trkpt lat="43.61807" lon="3.72947">
        <ele>180.70200064</ele>
        <time>2020-09-20T08:30:13.000Z</time>
      </trkpt>
      <trkpt lat="43.61806" lon="3.72945">
        <ele>180.90200064</ele>
        <time>2020-09-20T08:30:14.000Z</time>
      </trkpt>
      <trkpt lat="43.61805" lon="3.72943">
        <ele>181.10169552089</ele>
        <time>2020-09-20T08:30:15.000Z</time>
      </trkpt>
      <trkpt lat="43.61804" lon="3.7294">
        <ele>181.30109725189</ele>
        <time>2020-09-20T08:30:16.000Z</time>
      </trkpt>
      <trkpt lat="43.61803" lon="3.72938">
        <ele>181.50049898289</ele>
        <time>2020-09-20T08:30:17.000Z</time>
      </trkpt>
      <trkpt lat="43.61802" lon="3.72935">
        <ele>181.69990071389</ele>
        <time>2020-09-20T08:30:18.000Z</time>
      </trkpt>
      <trkpt lat="43.61801" lon="3.72932">
        <ele>181.89930244489</ele>
        <time>2020-09-20T08:30:19.000Z</time>
      </trkpt>
      <trkpt lat="43.618" lon="3.7293">
        <ele>182.09870417589</ele>
        <time>2020-09-20T08:30:20.000Z</time>
      </trkpt>
      <trkpt lat="43.61799" lon="3.72927">
        <ele>182.29810590689</ele>
        <time>2020-09-20T08:30:21.000Z</time>
      </trkpt>
      <trkpt lat="43.61798" lon="3.72924">
        <ele>182.49750763788</ele>
        <time>2020-09-20T08:30:22.000Z</time>
      </trkpt>
      <trkpt lat="43.61797" lon="3.72922">
        <ele>182.69690936888</ele>
        <time>2020-09-20T08:30:23.000Z</time>
      </trkpt>
      <trkpt lat="43.61796" lon="3.72919">
        <ele>182.89631109988</ele>
        <time>2020-09-20T08:30:24.000Z</time>
      </trkpt>
      <trkpt lat="43.61795" lon="3.72916">
        <ele>183.0962888975</ele>
        <time>2020-09-20T08:30:25.000Z</time>
      </trkpt>
      <trkpt lat="43.61794" lon="3.72913">
        <ele>183.29689076731</ele>
        <time>2020-09-20T08:30:26.000Z</time>
      </trkpt>
      <trkpt lat="43.61793" lon="3.72911">
        <ele>183.49749263711</ele>
        <time>2020-09-20T08:30:27.000Z</time>
      </trkpt>
      <trkpt lat="43.61792" lon="3.72908">
        <ele>183.69809450691</ele>
        <time>2020-09-20T08:30:28.000Z</time>
      </trkpt>
      <trkpt lat="43.61791" lon="3.72905">
        <ele>183.89869637671</ele>
        <time>2020-09-20T08:30:29.000Z</time>
      </trkpt>
      <trkpt lat="43.61791" lon="3.72903">
        <ele>184.09929824651</ele>
        <time>2020-09-20T08:30:30.000Z</time>
      </trkpt>
      <trkpt lat="43.6179" lon="3.729">
        <ele>184.29990011632</ele>
        <time>2020-09-20T08:30:31.000Z</time>
      </trkpt>
      <trkpt lat="43.61789" lon="3.72898">
        <ele>184.50050198612</ele>
        <time>2020-09-20T08:30:32.000Z</time>
      </trkpt>
      <trkpt lat="43.61788" lon="3.72895">
        <ele>184.70110385592</ele>
        <time>2020-09-20T08:30:33.000Z</time>
      </trkpt>
      <trkpt lat="43.61788" lon="3.72892">
        <ele>184.90170572572</ele>
        <time>2020-09-20T08:30:34.000Z</time>
      </trkpt>
      <trkpt lat="43.61787" lon="3.7289">
        <ele>185.10189877383</ele>
        <time>2020-09-20T08:30:35.000Z</time>
      </trkpt>
      <trkpt lat="43.61786" lon="3.72887">
        <ele>185.30169903751</ele>
        <time>2020-09-20T08:30:36.000Z</time>
      </trkpt>
      <trkpt lat="43.61785" lon="3.72885">
        <ele>185.50149930118</ele>
        <time>2020-09-20T08:30:37.000Z</time>
      </trkpt>
      <trkpt lat="43.61785" lon="3.72882">
        <ele>185.70129956485</ele>
        <time>2020-09-20T08:30:38.000Z</time>
      </trkpt>
      <trkpt lat="43.61784" lon="3.7288">
        <ele>185.90109982852</ele>
        <time>2020-09-20T08:30:39.000Z</time>
      </trkpt>
      <trkpt lat="43.61783" lon="3.72877">
        <ele>186.1009000922</ele>
        <time>2020-09-20T08:30:40.000Z</time>
      </trkpt>
      <trkpt lat="43.61782" lon="3.72875">
        <ele>186.30070035587</ele>
        <time>2020-09-20T08:30:41.000Z</time>
      </trkpt>
      <trkpt lat="43.61781" lon="3.72872">
        <ele>186.50050061954</ele>
        <time>2020-09-20T08:30:42.000Z</time>
      </trkpt>
      <trkpt lat="43.6178" lon="3.7287">
        <ele>186.70030088321</ele>
        <time>2020-09-20T08:30:43.000Z</time>
      </trkpt>
      <trkpt lat="43.61779" lon="3.72868">
        <ele>186.90010114688</ele>
        <time>2020-09-20T08:30:44.000Z</time>
      </trkpt>
      <trkpt lat="43.61778" lon="3.72865">
        <ele>187</ele>
        <time>2020-09-20T08:30:45.000Z</time>
      </trkpt>
      <trkpt lat="43.61777" lon="3.72862">
        <ele>187</ele>
        <time>2020-09-20T08:30:46.000Z</time>
      </trkpt>
      <trkpt lat="43.61776" lon="3.72859">
        <ele>187</ele>
        <time>2020-09-20T08:30:47.000Z</time>
      </trkpt>
      <trkpt lat="43.61776" lon="3.72856">
        <ele>187</ele>
        <time>2020-09-20T08:30:48.000Z</time>
      </trkpt>
      <trkpt lat="43.61775" lon="3.72853">
        <ele>187</ele>
        <time>2020-09-20T08:30:49.000Z</time>
      </trkpt>
      <trkpt lat="43.61774" lon="3.7285">
        <ele>187</ele>
        <time>2020-09-20T08:30:50.000Z</time>
      </trkpt>
      <trkpt lat="43.61773" lon="3.72847">
        <ele>187</ele>
        <time>2020-09-20T08:30:51.000Z</time>
      </trkpt>
      <trkpt lat="43.61772" lon="3.72844">
        <ele>187</ele>
        <time>2020-09-20T08:30:52.000Z</time>
      </trkpt>
      <trkpt lat="43.61771" lon="3.72841">
        <ele>187</ele>
        <time>2020-09-20T08:30:53.000Z</time>
      </trkpt>
      <trkpt lat="43.6177" lon="3.72838">
        <ele>187</ele>
        <time>2020-09-20T08:30:54.000Z</time>
      </trkpt>
      <trkpt lat="43.61769" lon="3.72836">
        <ele>187.05100032</ele>
        <time>2020-09-20T08:30:55.000Z</time>
      </trkpt>
      <trkpt lat="43.61769" lon="3.72833">
        <ele>187.15100032</ele>
        <time>2020-09-20T08:30:56.000Z</time>
      </trkpt>
      <trkpt lat="43.61768" lon="3.7283">
        <ele>187.25100032</ele>
        <time>2020-09-20T08:30:57.000Z</time>
      </trkpt>
      <trkpt lat="43.61767" lon="3.72827">
        <ele>187.35100032</ele>
        <time>2020-09-20T08:30:58.000Z</time>
      </trkpt>
      <trkpt lat="43.61766" lon="3.72823">
        <ele>187.45100032</ele>
        <time>2020-09-20T08:30:59.000Z</time>
      </trkpt>
      <trkpt lat="43.61765" lon="3.7282">
        <ele>187.55100032</ele>
        <time>2020-09-20T08:31:00.000Z</time>
      </trkpt>
      <trkpt lat="43.61764" lon="3.72817">
        <ele>187.65100032</ele>
        <time>2020-09-20T08:31:01.000Z</time>
      </trkpt>
      <trkpt lat="43.61763" lon="3.72814">
        <ele>187.75100032</ele>
        <time>2020-09-20T08:31:02.000Z</time>
      </trkpt>
      <trkpt lat="43.61763" lon="3.72811">
        <ele>187.85100032</ele>
        <time>2020-09-20T08:31:03.000Z</time>
      </trkpt>
      <trkpt lat="43.61762" lon="3.72809">
        <ele>187.95100032</ele>
        <time>2020-09-20T08:31:04.000Z</time>
      </trkpt>
      <trkpt lat="43.61761" lon="3.72806">
        <ele>188.05100032</ele>
        <time>2020-09-20T08:31:05.000Z</time>
      </trkpt>
      <trkpt lat="43.6176" lon="3.72803">
        <ele>188.15100032</ele>
        <time>2020-09-20T08:31:06.000Z</time>
      </trkpt>
      <trkpt lat="43.61759" lon="3.728">
        <ele>188.25100032</ele>
        <time>2020-09-20T08:31:07.000Z</time>
      </trkpt>
      <trkpt lat="43.61758" lon="3.72798">
        <ele>188.35100032</ele>
        <time>2020-09-20T08:31:08.000Z</time>
      </trkpt>
      <trkpt lat="43.61757" lon="3.72795">
        <ele>188.45100032</ele>
        <time>2020-09-20T08:31:09.000Z</time>
      </trkpt>
      <trkpt lat="43.61756" lon="3.72792">
        <ele>188.55100032</ele>
        <time>2020-09-20T08:31:10.000Z</time>
      </trkpt>
      <trkpt lat="43.61755" lon="3.72789">
        <ele>188.65100032</ele>
        <time>2020-09-20T08:31:11.000Z</time>
      </trkpt>
      <trkpt lat="43.61754" lon="3.72786">
        <ele>188.75100032</ele>
        <time>2020-09-20T08:31:12.000Z</time>
      </trkpt>
      <trkpt lat="43.61753" lon="3.72784">
        <ele>188.85100032</ele>
        <time>2020-09-20T08:31:13.000Z</time>
      </trkpt>
      <trkpt lat="43.61751" lon="3.72781">
        <ele>188.95100032</ele>
        <time>2020-09-20T08:31:14.000Z</time>
      </trkpt>
      <trkpt lat="43.6175" lon="3.72778">
        <ele>189</ele>
        <time>2020-09-20T08:31:15.000Z</time>
      </trkpt>
      <trkpt lat="43.61749" lon="3.72775">
        <ele>189</ele>
        <time>2020-09-20T08:31:16.000Z</time>
      </trkpt>
      <trkpt lat="43.61748" lon="3.72772">
        <ele>189</ele>
        <time>2020-09-20T08:31:17.000Z</time>
      </trkpt>
      <trkpt lat="43.61746" lon="3.72769">
        <ele>189</ele>
        <time>2020-09-20T08:31:18.000Z</time>
      </trkpt>
      <trkpt lat="43.61745" lon="3.72766">
        <ele>189</ele>
        <time>2020-09-20T08:31:19.000Z</time>
      </trkpt>
      <trkpt lat="43.61743" lon="3.72764">
        <ele>189</ele>
        <time>2020-09-20T08:31:20.000Z</time>
      </trkpt>
      <trkpt lat="43.61741" lon="3.72761">
        <ele>189</ele>
        <time>2020-09-20T08:31:21.000Z</time>
      </trkpt>
      <trkpt lat="43.6174" lon="3.72758">
        <ele>189</ele>
        <time>2020-09-20T08:31:22.000Z</time>
      </trkpt>
      <trkpt lat="43.61738" lon="3.72755">
        <ele>189</ele>
        <time>2020-09-20T08:31:23.000Z</time>
      </trkpt>
      <trkpt lat="43.61737" lon="3.72752">
        <ele>189</ele>
        <time>2020-09-20T08:31:24.000Z</time>
      </trkpt>
      <trkpt lat="43.61735" lon="3.72749">
        <ele>189.04757253441</ele>
        <time>2020-09-20T08:31:25.000Z</time>
      </trkpt>
      <trkpt lat="43.61733" lon="3.72746">
        <ele>189.14465997338</ele>
        <time>2020-09-20T08:31:26.000Z</time>
      </trkpt>
      <trkpt lat="43.61732" lon="3.72742">
        <ele>189.24174741235</ele>
        <time>2020-09-20T08:31:27.000Z</time>
      </trkpt>
      <trkpt lat="43.6173" lon="3.72739">
        <ele>189.33883485131</ele>
        <time>2020-09-20T08:31:28.000Z</time>
      </trkpt>
      <trkpt lat="43.61729" lon="3.72736">
        <ele>189.43592229028</ele>
        <time>2020-09-20T08:31:29.000Z</time>
      </trkpt>
      <trkpt lat="43.61727" lon="3.72733">
        <ele>189.53300972925</ele>
        <time>2020-09-20T08:31:30.000Z</time>
      </trkpt>
      <trkpt lat="43.61726" lon="3.72731">
        <ele>189.63009716822</ele>
        <time>2020-09-20T08:31:31.000Z</time>
      </trkpt>
      <trkpt lat="43.61724" lon="3.72728">
        <ele>189.72718460718</ele>
        <time>2020-09-20T08:31:32.000Z</time>
      </trkpt>
      <trkpt lat="43.61723" lon="3.72726">
        <ele>189.82427204615</ele>
        <time>2020-09-20T08:31:33.000Z</time>
      </trkpt>
      <trkpt lat="43.61721" lon="3.72723">
        <ele>189.92135948512</ele>
        <time>2020-09-20T08:31:34.000Z</time>
      </trkpt>
      <trkpt lat="43.6172" lon="3.72721">
        <ele>190.01962842975</ele>
        <time>2020-09-20T08:31:35.000Z</time>
      </trkpt>
      <trkpt lat="43.61719" lon="3.72718">
        <ele>190.12293421488</ele>
        <time>2020-09-20T08:31:36.000Z</time>
      </trkpt>
      <trkpt lat="43.61717" lon="3.72715">
        <ele>190.22624</ele>
        <time>2020-09-20T08:31:37.000Z</time>
      </trkpt>
      <trkpt lat="43.61716" lon="3.72713">
        <ele>190.32954578512</ele>
        <time>2020-09-20T08:31:38.000Z</time>
      </trkpt>
      <trkpt lat="43.61715" lon="3.7271">
        <ele>190.43285157025</ele>
        <time>2020-09-20T08:31:39.000Z</time>
      </trkpt>
      <trkpt lat="43.61714" lon="3.72707">
        <ele>190.53615735537</ele>
        <time>2020-09-20T08:31:40.000Z</time>
      </trkpt>
      <trkpt lat="43.61712" lon="3.72704">
        <ele>190.6394631405</ele>
        <time>2020-09-20T08:31:41.000Z</time>
      </trkpt>
      <trkpt lat="43.61711" lon="3.72701">
        <ele>190.74276892562</ele>
        <time>2020-09-20T08:31:42.000Z</time>
      </trkpt>
      <trkpt lat="43.61709" lon="3.72699">
        <ele>190.84607471074</ele>
        <time>2020-09-20T08:31:43.000Z</time>
      </trkpt>
      <trkpt lat="43.61708" lon="3.72697">
        <ele>190.94938049587</ele>
        <time>2020-09-20T08:31:44.000Z</time>
      </trkpt>
      <trkpt lat="43.61706" lon="3.72695">
        <ele>191.05100032</ele>
        <time>2020-09-20T08:31:45.000Z</time>
      </trkpt>
      <trkpt lat="43.61705" lon="3.72692">
        <ele>191.15100032</ele>
        <time>2020-09-20T08:31:46.000Z</time>
      </trkpt>
      <trkpt lat="43.61704" lon="3.72689">
        <ele>191.25100032</ele>
        <time>2020-09-20T08:31:47.000Z</time>
      </trkpt>
      <trkpt lat="43.61702" lon="3.72687">
        <ele>191.35100032</ele>
        <time>2020-09-20T08:31:48.000Z</time>
      </trkpt>
      <trkpt lat="43.617" lon="3.72684">
        <ele>191.45100032</ele>
        <time>2020-09-20T08:31:49.000Z</time>
      </trkpt>
      <trkpt lat="43.61699" lon="3.72681">
        <ele>191.55100032</ele>
        <time>2020-09-20T08:31:50.000Z</time>
      </trkpt>
      <trkpt lat="43.61698" lon="3.72679">
        <ele>191.65100032</ele>
        <time>2020-09-20T08:31:51.000Z</time>
      </trkpt>
      <trkpt lat="43.61697" lon="3.72676">
        <ele>191.75100032</ele>
        <time>2020-09-20T08:31:52.000Z</time>
      </trkpt>
      <trkpt lat="43.61696" lon="3.72673">
        <ele>191.85100032</ele>
        <time>2020-09-20T08:31:53.000Z</time>
      </trkpt>
      <trkpt lat="43.61695" lon="3.72671">
        <ele>191.95100032</ele>
        <time>2020-09-20T08:31:54.000Z</time>
      </trkpt>
      <trkpt lat="43.61693" lon="3.72668">
        <ele>192.10169552089</ele>
        <time>2020-09-20T08:31:55.000Z</time>
      </trkpt>
      <trkpt lat="43.61691" lon="3.72666">
        <ele>192.30109725189</ele>
        <time>2020-09-20T08:31:56.000Z</time>
      </trkpt>
      <trkpt lat="43.6169" lon="3.72664">
        <ele>192.50049898289</ele>
        <time>2020-09-20T08:31:57.000Z</time>
      </trkpt>
      <trkpt lat="43.61688" lon="3.72661">
        <ele>192.69990071389</ele>
        <time>2020-09-20T08:31:58.000Z</time>
      </trkpt>
      <trkpt lat="43.61687" lon="3.72659">
        <ele>192.89930244489</ele>
        <time>2020-09-20T08:31:59.000Z</time>
      </trkpt>
      <trkpt lat="43.61686" lon="3.72656">
        <ele>193.09870417589</ele>
        <time>2020-09-20T08:32:00.000Z</time>
      </trkpt>
      <trkpt lat="43.61685" lon="3.72653">
        <ele>193.29810590689</ele>
        <time>2020-09-20T08:32:01.000Z</time>
      </trkpt>
      <trkpt lat="43.61684" lon="3.72651">
        <ele>193.49750763788</ele>
        <time>2020-09-20T08:32:02.000Z</time>
      </trkpt>
      <trkpt lat="43.61682" lon="3.72649">
        <ele>193.69690936888</ele>
        <time>2020-09-20T08:32:03.000Z</time>
      </trkpt>
      <trkpt lat="43.61681" lon="3.72647">
        <ele>193.89631109988</ele>
        <time>2020-09-20T08:32:04.000Z</time>
      </trkpt>
      <trkpt lat="43.6168" lon="3.72645">
        <ele>194.04678359655</ele>
        <time>2020-09-20T08:32:05.000Z</time>
      </trkpt>
      <trkpt lat="43.61679" lon="3.72643">
        <ele>194.14424942269</ele>
        <time>2020-09-20T08:32:06.000Z</time>
      </trkpt>
      <trkpt lat="43.61678" lon="3.72641">
        <ele>194.24171524883</ele>
        <time>2020-09-20T08:32:07.000Z</time>
      </trkpt>
      <trkpt lat="43.61676" lon="3.72639">
        <ele>194.33918107497</ele>
        <time>2020-09-20T08:32:08.000Z</time>
      </trkpt>
      <trkpt lat="43.61675" lon="3.72637">
        <ele>194.43664690112</ele>
        <time>2020-09-20T08:32:09.000Z</time>
      </trkpt>
      <trkpt lat="43.61674" lon="3.72635">
        <ele>194.53411272726</ele>
        <time>2020-09-20T08:32:10.000Z</time>
      </trkpt>
      <trkpt lat="43.61672" lon="3.72633">
        <ele>194.6315785534</ele>
        <time>2020-09-20T08:32:11.000Z</time>
      </trkpt>
      <trkpt lat="43.61671" lon="3.72631">
        <ele>194.72904437954</ele>
        <time>2020-09-20T08:32:12.000Z</time>
      </trkpt>
      <trkpt lat="43.6167" lon="3.72628">
        <ele>194.82651020569</ele>
        <time>2020-09-20T08:32:13.000Z</time>
      </trkpt>
      <trkpt lat="43.61669" lon="3.72626">
        <ele>194.92397603183</ele>
        <time>2020-09-20T08:32:14.000Z</time>
      </trkpt>
      <trkpt lat="43.61667" lon="3.72624">
        <ele>195.06796925361</ele>
        <time>2020-09-20T08:32:15.000Z</time>
      </trkpt>
      <trkpt lat="43.61666" lon="3.72622">
        <ele>195.37692939429</ele>
        <time>2020-09-20T08:32:16.000Z</time>
      </trkpt>
      <trkpt lat="43.61665" lon="3.7262">
        <ele>195.68588953497</ele>
        <time>2020-09-20T08:32:17.000Z</time>
      </trkpt>
      <trkpt lat="43.61663" lon="3.72618">
        <ele>195.99484967565</ele>
        <time>2020-09-20T08:32:18.000Z</time>
      </trkpt>
      <trkpt lat="43.61662" lon="3.72617">
        <ele>196.30380981633</ele>
        <time>2020-09-20T08:32:19.000Z</time>
      </trkpt>
      <trkpt lat="43.6166" lon="3.72615">
        <ele>196.61276995701</ele>
        <time>2020-09-20T08:32:20.000Z</time>
      </trkpt>
      <trkpt lat="43.61658" lon="3.72611">
        <ele>197.23069023838</ele>
        <time>2020-09-20T08:32:22.000Z</time>
      </trkpt>
      <trkpt lat="43.61656" lon="3.72609">
        <ele>197.53965037906</ele>
        <time>2020-09-20T08:32:23.000Z</time>
      </trkpt>
      <trkpt lat="43.61655" lon="3.72607">
        <ele>197.84861051974</ele>
        <time>2020-09-20T08:32:24.000Z</time>
      </trkpt>
      <trkpt lat="43.61653" lon="3.72605">
        <ele>198.05100032</ele>
        <time>2020-09-20T08:32:25.000Z</time>
      </trkpt>
      <trkpt lat="43.61652" lon="3.72604">
        <ele>198.15100032</ele>
        <time>2020-09-20T08:32:26.000Z</time>
      </trkpt>
      <trkpt lat="43.6165" lon="3.72602">
        <ele>198.25100032</ele>
        <time>2020-09-20T08:32:27.000Z</time>
      </trkpt>
      <trkpt lat="43.61648" lon="3.726">
        <ele>198.35100032</ele>
        <time>2020-09-20T08:32:28.000Z</time>
      </trkpt>
      <trkpt lat="43.61646" lon="3.72597">
        <ele>198.55100032</ele>
        <time>2020-09-20T08:32:30.000Z</time>
      </trkpt>
      <trkpt lat="43.61644" lon="3.72593">
        <ele>198.75100032</ele>
        <time>2020-09-20T08:32:32.000Z</time>
      </trkpt>
      <trkpt lat="43.61643" lon="3.72591">
        <ele>198.85100032</ele>
        <time>2020-09-20T08:32:33.000Z</time>
      </trkpt>
      <trkpt lat="43.61641" lon="3.72588">
        <ele>199.05100032</ele>
        <time>2020-09-20T08:32:35.000Z</time>
      </trkpt>
      <trkpt lat="43.61638" lon="3.72584">
        <ele>199.25100032</ele>
        <time>2020-09-20T08:32:37.000Z</time>
      </trkpt>
      <trkpt lat="43.61636" lon="3.72581">
        <ele>199.45100032</ele>
        <time>2020-09-20T08:32:39.000Z</time>
      </trkpt>
      <trkpt lat="43.61634" lon="3.72577">
        <ele>199.65100032</ele>
        <time>2020-09-20T08:32:41.000Z</time>
      </trkpt>
      <trkpt lat="43.61631" lon="3.72573">
        <ele>199.85100032</ele>
        <time>2020-09-20T08:32:43.000Z</time>
      </trkpt>
      <trkpt lat="43.61629" lon="3.7257">
        <ele>200</ele>
        <time>2020-09-20T08:32:45.000Z</time>
      </trkpt>
      <trkpt lat="43.61628" lon="3.72568">
        <ele>200</ele>
        <time>2020-09-20T08:32:46.000Z</time>
      </trkpt>
      <trkpt lat="43.61627" lon="3.72566">
        <ele>200</ele>
        <time>2020-09-20T08:32:47.000Z</time>
      </trkpt>
      <trkpt lat="43.61625" lon="3.72564">
        <ele>200</ele>
        <time>2020-09-20T08:32:48.000Z</time>
      </trkpt>
      <trkpt lat="43.61624" lon="3.72562">
        <ele>200</ele>
        <time>2020-09-20T08:32:49.000Z</time>
      </trkpt>
      <trkpt lat="43.61623" lon="3.7256">
        <ele>200</ele>
        <time>2020-09-20T08:32:50.000Z</time>
      </trkpt>
      <trkpt lat="43.61622" lon="3.72557">
        <ele>200</ele>
        <time>2020-09-20T08:32:51.000Z</time>
      </trkpt>
      <trkpt lat="43.61621" lon="3.72555">
        <ele>200</ele>
        <time>2020-09-20T08:32:52.000Z</time>
      </trkpt>
      <trkpt lat="43.6162" lon="3.72553">
        <ele>200</ele>
        <time>2020-09-20T08:32:53.000Z</time>
      </trkpt>
      <trkpt lat="43.61619" lon="3.72551">
        <ele>200</ele>
        <time>2020-09-20T08:32:54.000Z</time>
      </trkpt>
      <trkpt lat="43.61618" lon="3.72548">
        <ele>200.04956294696</ele>
        <time>2020-09-20T08:32:55.000Z</time>
      </trkpt>
      <trkpt lat="43.61617" lon="3.72546">
        <ele>200.14674458613</ele>
        <time>2020-09-20T08:32:56.000Z</time>
      </trkpt>
      <trkpt lat="43.61616" lon="3.72544">
        <ele>200.2439262253</ele>
        <time>2020-09-20T08:32:57.000Z</time>
      </trkpt>
      <trkpt lat="43.61615" lon="3.72541">
        <ele>200.34110786447</ele>
        <time>2020-09-20T08:32:58.000Z</time>
      </trkpt>
      <trkpt lat="43.61615" lon="3.72539">
        <ele>200.43828950364</ele>
        <time>2020-09-20T08:32:59.000Z</time>
      </trkpt>
      <trkpt lat="43.61614" lon="3.72536">
        <ele>200.53547114281</ele>
        <time>2020-09-20T08:33:00.000Z</time>
      </trkpt>
      <trkpt lat="43.61613" lon="3.72534">
        <ele>200.63265278198</ele>
        <time>2020-09-20T08:33:01.000Z</time>
      </trkpt>
      <trkpt lat="43.61612" lon="3.72532">
        <ele>200.72983442115</ele>
        <time>2020-09-20T08:33:02.000Z</time>
      </trkpt>
      <trkpt lat="43.61611" lon="3.72529">
        <ele>200.82701606032</ele>
        <time>2020-09-20T08:33:03.000Z</time>
      </trkpt>
      <trkpt lat="43.6161" lon="3.72526">
        <ele>200.92419769949</ele>
        <time>2020-09-20T08:33:04.000Z</time>
      </trkpt>
      <trkpt lat="43.61609" lon="3.72523">
        <ele>201.02265641787</ele>
        <time>2020-09-20T08:33:05.000Z</time>
      </trkpt>
      <trkpt lat="43.61608" lon="3.7252">
        <ele>201.12564313143</ele>
        <time>2020-09-20T08:33:06.000Z</time>
      </trkpt>
      <trkpt lat="43.61608" lon="3.72517">
        <ele>201.22862984499</ele>
        <time>2020-09-20T08:33:07.000Z</time>
      </trkpt>
      <trkpt lat="43.61607" lon="3.72514">
        <ele>201.33161655855</ele>
        <time>2020-09-20T08:33:08.000Z</time>
      </trkpt>
      <trkpt lat="43.61606" lon="3.72511">
        <ele>201.43460327211</ele>
        <time>2020-09-20T08:33:09.000Z</time>
      </trkpt>
      <trkpt lat="43.61605" lon="3.72507">
        <ele>201.53758998567</ele>
        <time>2020-09-20T08:33:10.000Z</time>
      </trkpt>
      <trkpt lat="43.61603" lon="3.72503">
        <ele>201.64057669923</ele>
        <time>2020-09-20T08:33:11.000Z</time>
      </trkpt>
      <trkpt lat="43.61602" lon="3.725">
        <ele>201.74356341279</ele>
        <time>2020-09-20T08:33:12.000Z</time>
      </trkpt>
      <trkpt lat="43.61601" lon="3.72497">
        <ele>201.84655012635</ele>
        <time>2020-09-20T08:33:13.000Z</time>
      </trkpt>
      <trkpt lat="43.616" lon="3.72493">
        <ele>201.94953683991</ele>
        <time>2020-09-20T08:33:14.000Z</time>
      </trkpt>
      <trkpt lat="43.61598" lon="3.7249">
        <ele>202</ele>
        <time>2020-09-20T08:33:15.000Z</time>
      </trkpt>
      <trkpt lat="43.61597" lon="3.72487">
        <ele>202</ele>
        <time>2020-09-20T08:33:16.000Z</time>
      </trkpt>
      <trkpt lat="43.61596" lon="3.72484">
        <ele>202</ele>
        <time>2020-09-20T08:33:17.000Z</time>
      </trkpt>
      <trkpt lat="43.61594" lon="3.72481">
        <ele>202</ele>
        <time>2020-09-20T08:33:18.000Z</time>
      </trkpt>
      <trkpt lat="43.61593" lon="3.72478">
        <ele>202</ele>
        <time>2020-09-20T08:33:19.000Z</time>
      </trkpt>
      <trkpt lat="43.61591" lon="3.72475">
        <ele>202</ele>
        <time>2020-09-20T08:33:20.000Z</time>
      </trkpt>
      <trkpt lat="43.61589" lon="3.72473">
        <ele>202</ele>
        <time>2020-09-20T08:33:21.000Z</time>
      </trkpt>
      <trkpt lat="43.61588" lon="3.72469">
        <ele>202</ele>
        <time>2020-09-20T08:33:22.000Z</time>
      </trkpt>
      <trkpt lat="43.61586" lon="3.72466">
        <ele>202</ele>
        <time>2020-09-20T08:33:23.000Z</time>
      </trkpt>
      <trkpt lat="43.61585" lon="3.72463">
        <ele>202</ele>
        <time>2020-09-20T08:33:24.000Z</time>
      </trkpt>
      <trkpt lat="43.61583" lon="3.7246">
        <ele>202</ele>
        <time>2020-09-20T08:33:25.000Z</time>
      </trkpt>
      <trkpt lat="43.61582" lon="3.72456">
        <ele>202</ele>
        <time>2020-09-20T08:33:26.000Z</time>
      </trkpt>
      <trkpt lat="43.6158" lon="3.72453">
        <ele>202</ele>
        <time>2020-09-20T08:33:27.000Z</time>
      </trkpt>
      <trkpt lat="43.61579" lon="3.7245">
        <ele>202</ele>
        <time>2020-09-20T08:33:28.000Z</time>
      </trkpt>
      <trkpt lat="43.61578" lon="3.72447">
        <ele>202</ele>
        <time>2020-09-20T08:33:29.000Z</time>
      </trkpt>
      <trkpt lat="43.61577" lon="3.72444">
        <ele>202</ele>
        <time>2020-09-20T08:33:30.000Z</time>
      </trkpt>
      <trkpt lat="43.61575" lon="3.72441">
        <ele>202</ele>
        <time>2020-09-20T08:33:31.000Z</time>
      </trkpt>
      <trkpt lat="43.61574" lon="3.72437">
        <ele>202</ele>
        <time>2020-09-20T08:33:32.000Z</time>
      </trkpt>
      <trkpt lat="43.61572" lon="3.72434">
        <ele>202</ele>
        <time>2020-09-20T08:33:33.000Z</time>
      </trkpt>
      <trkpt lat="43.61571" lon="3.72431">
        <ele>202</ele>
        <time>2020-09-20T08:33:34.000Z</time>
      </trkpt>
      <trkpt lat="43.6157" lon="3.72428">
        <ele>202</ele>
        <time>2020-09-20T08:33:35.000Z</time>
      </trkpt>
      <trkpt lat="43.61568" lon="3.72424">
        <ele>202</ele>
        <time>2020-09-20T08:33:36.000Z</time>
      </trkpt>
      <trkpt lat="43.61567" lon="3.7242">
        <ele>202</ele>
        <time>2020-09-20T08:33:37.000Z</time>
      </trkpt>
      <trkpt lat="43.61565" lon="3.72417">
        <ele>202</ele>
        <time>2020-09-20T08:33:38.000Z</time>
      </trkpt>
      <trkpt lat="43.61563" lon="3.72413">
        <ele>202</ele>
        <time>2020-09-20T08:33:39.000Z</time>
      </trkpt>
      <trkpt lat="43.61561" lon="3.72409">
        <ele>202</ele>
        <time>2020-09-20T08:33:40.000Z</time>
      </trkpt>
      <trkpt lat="43.61559" lon="3.72405">
        <ele>202</ele>
        <time>2020-09-20T08:33:41.000Z</time>
      </trkpt>
      <trkpt lat="43.61558" lon="3.72402">
        <ele>202</ele>
        <time>2020-09-20T08:33:42.000Z</time>
      </trkpt>
      <trkpt lat="43.61556" lon="3.72398">
        <ele>202</ele>
        <time>2020-09-20T08:33:43.000Z</time>
      </trkpt>
      <trkpt lat="43.61554" lon="3.72395">
        <ele>202</ele>
        <time>2020-09-20T08:33:44.000Z</time>
      </trkpt>
      <trkpt lat="43.61552" lon="3.72391">
        <ele>201.89799936</ele>
        <time>2020-09-20T08:33:45.000Z</time>
      </trkpt>
      <trkpt lat="43.6155" lon="3.72387">
        <ele>201.69799936</ele>
        <time>2020-09-20T08:33:46.000Z</time>
      </trkpt>
      <trkpt lat="43.61548" lon="3.72384">
        <ele>201.49799936</ele>
        <time>2020-09-20T08:33:47.000Z</time>
      </trkpt>
      <trkpt lat="43.61546" lon="3.7238">
        <ele>201.29799936</ele>
        <time>2020-09-20T08:33:48.000Z</time>
      </trkpt>
      <trkpt lat="43.61543" lon="3.72377">
        <ele>201.09799936</ele>
        <time>2020-09-20T08:33:49.000Z</time>
      </trkpt>
      <trkpt lat="43.61541" lon="3.72373">
        <ele>200.89799936</ele>
        <time>2020-09-20T08:33:50.000Z</time>
      </trkpt>
      <trkpt lat="43.61538" lon="3.7237">
        <ele>200.69799936</ele>
        <time>2020-09-20T08:33:51.000Z</time>
      </trkpt>
      <trkpt lat="43.61535" lon="3.72366">
        <ele>200.49799936</ele>
        <time>2020-09-20T08:33:52.000Z</time>
      </trkpt>
      <trkpt lat="43.61533" lon="3.72363">
        <ele>200.29799936</ele>
        <time>2020-09-20T08:33:53.000Z</time>
      </trkpt>
      <trkpt lat="43.6153" lon="3.72359">
        <ele>200.09799936</ele>
        <time>2020-09-20T08:33:54.000Z</time>
      </trkpt>
      <trkpt lat="43.61527" lon="3.72355">
        <ele>199.94910150956</ele>
        <time>2020-09-20T08:33:55.000Z</time>
      </trkpt>
      <trkpt lat="43.61524" lon="3.72352">
        <ele>199.8493011741</ele>
        <time>2020-09-20T08:33:56.000Z</time>
      </trkpt>
      <trkpt lat="43.61521" lon="3.72348">
        <ele>199.74950083864</ele>
        <time>2020-09-20T08:33:57.000Z</time>
      </trkpt>
      <trkpt lat="43.61518" lon="3.72344">
        <ele>199.64970050318</ele>
        <time>2020-09-20T08:33:58.000Z</time>
      </trkpt>
      <trkpt lat="43.61515" lon="3.7234">
        <ele>199.54990016773</ele>
        <time>2020-09-20T08:33:59.000Z</time>
      </trkpt>
      <trkpt lat="43.61512" lon="3.72337">
        <ele>199.45009983227</ele>
        <time>2020-09-20T08:34:00.000Z</time>
      </trkpt>
      <trkpt lat="43.61509" lon="3.72333">
        <ele>199.35029949682</ele>
        <time>2020-09-20T08:34:01.000Z</time>
      </trkpt>
      <trkpt lat="43.61507" lon="3.72329">
        <ele>199.25049916136</ele>
        <time>2020-09-20T08:34:02.000Z</time>
      </trkpt>
      <trkpt lat="43.61504" lon="3.72325">
        <ele>199.1506988259</ele>
        <time>2020-09-20T08:34:03.000Z</time>
      </trkpt>
      <trkpt lat="43.61501" lon="3.72322">
        <ele>199.05089849044</ele>
        <time>2020-09-20T08:34:04.000Z</time>
      </trkpt>
      <trkpt lat="43.61498" lon="3.72318">
        <ele>199</ele>
        <time>2020-09-20T08:34:05.000Z</time>
      </trkpt>
      <trkpt lat="43.61495" lon="3.72314">
        <ele>199</ele>
        <time>2020-09-20T08:34:06.000Z</time>
      </trkpt>
      <trkpt lat="43.61492" lon="3.7231">
        <ele>199</ele>
        <time>2020-09-20T08:34:07.000Z</time>
      </trkpt>
      <trkpt lat="43.61489" lon="3.72306">
        <ele>199</ele>
        <time>2020-09-20T08:34:08.000Z</time>
      </trkpt>
      <trkpt lat="43.61486" lon="3.72302">
        <ele>199</ele>
        <time>2020-09-20T08:34:09.000Z</time>
      </trkpt>
      <trkpt lat="43.61483" lon="3.72298">
        <ele>199</ele>
        <time>2020-09-20T08:34:10.000Z</time>
      </trkpt>
      <trkpt lat="43.6148" lon="3.72294">
        <ele>199</ele>
        <time>2020-09-20T08:34:11.000Z</time>
      </trkpt>
      <trkpt lat="43.61477" lon="3.7229">
        <ele>199</ele>
        <time>2020-09-20T08:34:12.000Z</time>
      </trkpt>
      <trkpt lat="43.61474" lon="3.72287">
        <ele>199</ele>
        <time>2020-09-20T08:34:13.000Z</time>
      </trkpt>
      <trkpt lat="43.61472" lon="3.72283">
        <ele>199</ele>
        <time>2020-09-20T08:34:14.000Z</time>
      </trkpt>
      <trkpt lat="43.61469" lon="3.72279">
        <ele>198.89799936</ele>
        <time>2020-09-20T08:34:15.000Z</time>
      </trkpt>
      <trkpt lat="43.61465" lon="3.72276">
        <ele>198.69799936</ele>
        <time>2020-09-20T08:34:16.000Z</time>
      </trkpt>
      <trkpt lat="43.61462" lon="3.72273">
        <ele>198.49799936</ele>
        <time>2020-09-20T08:34:17.000Z</time>
      </trkpt>
      <trkpt lat="43.61459" lon="3.72269">
        <ele>198.29799936</ele>
        <time>2020-09-20T08:34:18.000Z</time>
      </trkpt>
      <trkpt lat="43.61456" lon="3.72266">
        <ele>198.09799936</ele>
        <time>2020-09-20T08:34:19.000Z</time>
      </trkpt>
      <trkpt lat="43.61453" lon="3.72263">
        <ele>197.89799936</ele>
        <time>2020-09-20T08:34:20.000Z</time>
      </trkpt>
      <trkpt lat="43.61451" lon="3.7226">
        <ele>197.69799936</ele>
        <time>2020-09-20T08:34:21.000Z</time>
      </trkpt>
      <trkpt lat="43.61448" lon="3.72257">
        <ele>197.49799936</ele>
        <time>2020-09-20T08:34:22.000Z</time>
      </trkpt>
      <trkpt lat="43.61445" lon="3.72255">
        <ele>197.29799936</ele>
        <time>2020-09-20T08:34:23.000Z</time>
      </trkpt>
      <trkpt lat="43.61442" lon="3.72252">
        <ele>197.09799936</ele>
        <time>2020-09-20T08:34:24.000Z</time>
      </trkpt>
      <trkpt lat="43.6144" lon="3.72249">
        <ele>196.94899968</ele>
        <time>2020-09-20T08:34:25.000Z</time>
      </trkpt>
      <trkpt lat="43.61437" lon="3.72246">
        <ele>196.84899968</ele>
        <time>2020-09-20T08:34:26.000Z</time>
      </trkpt>
      <trkpt lat="43.61434" lon="3.72244">
        <ele>196.74899968</ele>
        <time>2020-09-20T08:34:27.000Z</time>
      </trkpt>
      <trkpt lat="43.61432" lon="3.72241">
        <ele>196.64899968</ele>
        <time>2020-09-20T08:34:28.000Z</time>
      </trkpt>
      <trkpt lat="43.61429" lon="3.72239">
        <ele>196.54899968</ele>
        <time>2020-09-20T08:34:29.000Z</time>
      </trkpt>
      <trkpt lat="43.61426" lon="3.72236">
        <ele>196.44899968</ele>
        <time>2020-09-20T08:34:30.000Z</time>
      </trkpt>
      <trkpt lat="43.61423" lon="3.72232">
        <ele>196.34899968</ele>
        <time>2020-09-20T08:34:31.000Z</time>
      </trkpt>
      <trkpt lat="43.6142" lon="3.72229">
        <ele>196.24899968</ele>
        <time>2020-09-20T08:34:32.000Z</time>
      </trkpt>
      <trkpt lat="43.61417" lon="3.72226">
        <ele>196.14899968</ele>
        <time>2020-09-20T08:34:33.000Z</time>
      </trkpt>
      <trkpt lat="43.61414" lon="3.72224">
        <ele>196.04899968</ele>
        <time>2020-09-20T08:34:34.000Z</time>
      </trkpt>
      <trkpt lat="43.61412" lon="3.72221">
        <ele>195.79640603822</ele>
        <time>2020-09-20T08:34:35.000Z</time>
      </trkpt>
      <trkpt lat="43.61409" lon="3.72219">
        <ele>195.3972046964</ele>
        <time>2020-09-20T08:34:36.000Z</time>
      </trkpt>
      <trkpt lat="43.61405" lon="3.72216">
        <ele>194.99800335457</ele>
        <time>2020-09-20T08:34:37.000Z</time>
      </trkpt>
      <trkpt lat="43.61403" lon="3.72213">
        <ele>194.59880201274</ele>
        <time>2020-09-20T08:34:38.000Z</time>
      </trkpt>
      <trkpt lat="43.614" lon="3.7221">
        <ele>194.19960067091</ele>
        <time>2020-09-20T08:34:39.000Z</time>
      </trkpt>
      <trkpt lat="43.61396" lon="3.72206">
        <ele>193.80039932909</ele>
        <time>2020-09-20T08:34:40.000Z</time>
      </trkpt>
      <trkpt lat="43.61393" lon="3.72203">
        <ele>193.40119798726</ele>
        <time>2020-09-20T08:34:41.000Z</time>
      </trkpt>
      <trkpt lat="43.61389" lon="3.722">
        <ele>193.00199664543</ele>
        <time>2020-09-20T08:34:42.000Z</time>
      </trkpt>
      <trkpt lat="43.61385" lon="3.72197">
        <ele>192.6027953036</ele>
        <time>2020-09-20T08:34:43.000Z</time>
      </trkpt>
      <trkpt lat="43.61381" lon="3.72194">
        <ele>192.20359396178</ele>
        <time>2020-09-20T08:34:44.000Z</time>
      </trkpt>
      <trkpt lat="43.61377" lon="3.72191">
        <ele>191.90180418553</ele>
        <time>2020-09-20T08:34:45.000Z</time>
      </trkpt>
      <trkpt lat="43.61372" lon="3.72189">
        <ele>191.70140325541</ele>
        <time>2020-09-20T08:34:46.000Z</time>
      </trkpt>
      <trkpt lat="43.61367" lon="3.72186">
        <ele>191.50100232529</ele>
        <time>2020-09-20T08:34:47.000Z</time>
      </trkpt>
      <trkpt lat="43.61363" lon="3.72185">
        <ele>191.30060139517</ele>
        <time>2020-09-20T08:34:48.000Z</time>
      </trkpt>
      <trkpt lat="43.61359" lon="3.72184">
        <ele>191.10020046506</ele>
        <time>2020-09-20T08:34:49.000Z</time>
      </trkpt>
      <trkpt lat="43.61355" lon="3.72184">
        <ele>190.89979953494</ele>
        <time>2020-09-20T08:34:50.000Z</time>
      </trkpt>
      <trkpt lat="43.6135" lon="3.72183">
        <ele>190.69939860483</ele>
        <time>2020-09-20T08:34:51.000Z</time>
      </trkpt>
      <trkpt lat="43.61345" lon="3.72182">
        <ele>190.49899767471</ele>
        <time>2020-09-20T08:34:52.000Z</time>
      </trkpt>
      <trkpt lat="43.61339" lon="3.7218">
        <ele>190.29859674459</ele>
        <time>2020-09-20T08:34:53.000Z</time>
      </trkpt>
      <trkpt lat="43.61334" lon="3.72178">
        <ele>190.09819581447</ele>
        <time>2020-09-20T08:34:54.000Z</time>
      </trkpt>
      <trkpt lat="43.61328" lon="3.72177">
        <ele>189.89810122617</ele>
        <time>2020-09-20T08:34:55.000Z</time>
      </trkpt>
      <trkpt lat="43.61323" lon="3.72176">
        <ele>189.69830096249</ele>
        <time>2020-09-20T08:34:56.000Z</time>
      </trkpt>
      <trkpt lat="43.61317" lon="3.72174">
        <ele>189.49850069882</ele>
        <time>2020-09-20T08:34:57.000Z</time>
      </trkpt>
      <trkpt lat="43.61311" lon="3.72172">
        <ele>189.29870043515</ele>
        <time>2020-09-20T08:34:58.000Z</time>
      </trkpt>
      <trkpt lat="43.61306" lon="3.72171">
        <ele>189.09890017148</ele>
        <time>2020-09-20T08:34:59.000Z</time>
      </trkpt>
      <trkpt lat="43.613" lon="3.72169">
        <ele>188.8990999078</ele>
        <time>2020-09-20T08:35:00.000Z</time>
      </trkpt>
      <trkpt lat="43.61295" lon="3.72168">
        <ele>188.69929964413</ele>
        <time>2020-09-20T08:35:01.000Z</time>
      </trkpt>
      <trkpt lat="43.61291" lon="3.72167">
        <ele>188.49949938046</ele>
        <time>2020-09-20T08:35:02.000Z</time>
      </trkpt>
      <trkpt lat="43.61286" lon="3.72166">
        <ele>188.29969911679</ele>
        <time>2020-09-20T08:35:03.000Z</time>
      </trkpt>
      <trkpt lat="43.61282" lon="3.72165">
        <ele>188.09989885312</ele>
        <time>2020-09-20T08:35:04.000Z</time>
      </trkpt>
      <trkpt lat="43.61278" lon="3.72164">
        <ele>187.94994932534</ele>
        <time>2020-09-20T08:35:05.000Z</time>
      </trkpt>
      <trkpt lat="43.61274" lon="3.72163">
        <ele>187.84984925731</ele>
        <time>2020-09-20T08:35:06.000Z</time>
      </trkpt>
      <trkpt lat="43.6127" lon="3.72162">
        <ele>187.74974918927</ele>
        <time>2020-09-20T08:35:07.000Z</time>
      </trkpt>
      <trkpt lat="43.61267" lon="3.72161">
        <ele>187.64964912123</ele>
        <time>2020-09-20T08:35:08.000Z</time>
      </trkpt>
      <trkpt lat="43.61263" lon="3.7216">
        <ele>187.5495490532</ele>
        <time>2020-09-20T08:35:09.000Z</time>
      </trkpt>
      <trkpt lat="43.6126" lon="3.72159">
        <ele>187.44944898516</ele>
        <time>2020-09-20T08:35:10.000Z</time>
      </trkpt>
      <trkpt lat="43.61256" lon="3.72158">
        <ele>187.34934891713</ele>
        <time>2020-09-20T08:35:11.000Z</time>
      </trkpt>
      <trkpt lat="43.61252" lon="3.72158">
        <ele>187.24924884909</ele>
        <time>2020-09-20T08:35:12.000Z</time>
      </trkpt>
      <trkpt lat="43.61248" lon="3.72156">
        <ele>187.14914878105</ele>
        <time>2020-09-20T08:35:13.000Z</time>
      </trkpt>
      <trkpt lat="43.61244" lon="3.72155">
        <ele>187.04904871302</ele>
        <time>2020-09-20T08:35:14.000Z</time>
      </trkpt>
      <trkpt lat="43.6124" lon="3.72155">
        <ele>187</ele>
        <time>2020-09-20T08:35:15.000Z</time>
      </trkpt>
      <trkpt lat="43.61236" lon="3.72154">
        <ele>187</ele>
        <time>2020-09-20T08:35:16.000Z</time>
      </trkpt>
      <trkpt lat="43.61232" lon="3.72153">
        <ele>187</ele>
        <time>2020-09-20T08:35:17.000Z</time>
      </trkpt>
      <trkpt lat="43.61228" lon="3.72153">
        <ele>187</ele>
        <time>2020-09-20T08:35:18.000Z</time>
      </trkpt>
      <trkpt lat="43.61223" lon="3.72154">
        <ele>187</ele>
        <time>2020-09-20T08:35:19.000Z</time>
      </trkpt>
      <trkpt lat="43.61219" lon="3.72156">
        <ele>187</ele>
        <time>2020-09-20T08:35:20.000Z</time>
      </trkpt>
      <trkpt lat="43.61215" lon="3.72159">
        <ele>187</ele>
        <time>2020-09-20T08:35:21.000Z</time>
      </trkpt>
      <trkpt lat="43.61212" lon="3.72162">
        <ele>187</ele>
        <time>2020-09-20T08:35:22.000Z</time>
      </trkpt>
      <trkpt lat="43.61209" lon="3.72165">
        <ele>187</ele>
        <time>2020-09-20T08:35:23.000Z</time>
      </trkpt>
      <trkpt lat="43.61207" lon="3.72169">
        <ele>187</ele>
        <time>2020-09-20T08:35:24.000Z</time>
      </trkpt>
      <trkpt lat="43.61205" lon="3.72172">
        <ele>187</ele>
        <time>2020-09-20T08:35:25.000Z</time>
      </trkpt>
      <trkpt lat="43.61203" lon="3.72175">
        <ele>187</ele>
        <time>2020-09-20T08:35:26.000Z</time>
      </trkpt>
      <trkpt lat="43.61201" lon="3.72178">
        <ele>187</ele>
        <time>2020-09-20T08:35:27.000Z</time>
      </trkpt>
      <trkpt lat="43.61198" lon="3.72181">
        <ele>187</ele>
        <time>2020-09-20T08:35:28.000Z</time>
      </trkpt>
      <trkpt lat="43.61195" lon="3.72184">
        <ele>187</ele>
        <time>2020-09-20T08:35:29.000Z</time>
      </trkpt>
      <trkpt lat="43.61193" lon="3.72186">
        <ele>187</ele>
        <time>2020-09-20T08:35:30.000Z</time>
      </trkpt>
      <trkpt lat="43.6119" lon="3.72189">
        <ele>187</ele>
        <time>2020-09-20T08:35:31.000Z</time>
      </trkpt>
      <trkpt lat="43.61188" lon="3.72193">
        <ele>187</ele>
        <time>2020-09-20T08:35:32.000Z</time>
      </trkpt>
      <trkpt lat="43.61185" lon="3.72196">
        <ele>187</ele>
        <time>2020-09-20T08:35:33.000Z</time>
      </trkpt>
      <trkpt lat="43.61182" lon="3.72199">
        <ele>187</ele>
        <time>2020-09-20T08:35:34.000Z</time>
      </trkpt>
      <trkpt lat="43.61179" lon="3.72202">
        <ele>186.94915223955</ele>
        <time>2020-09-20T08:35:35.000Z</time>
      </trkpt>
      <trkpt lat="43.61176" lon="3.72205">
        <ele>186.84945137405</ele>
        <time>2020-09-20T08:35:36.000Z</time>
      </trkpt>
      <trkpt lat="43.61173" lon="3.72209">
        <ele>186.74975050855</ele>
        <time>2020-09-20T08:35:37.000Z</time>
      </trkpt>
      <trkpt lat="43.61171" lon="3.72212">
        <ele>186.65004964306</ele>
        <time>2020-09-20T08:35:38.000Z</time>
      </trkpt>
      <trkpt lat="43.61168" lon="3.72215">
        <ele>186.55034877756</ele>
        <time>2020-09-20T08:35:39.000Z</time>
      </trkpt>
      <trkpt lat="43.61166" lon="3.72219">
        <ele>186.45064791206</ele>
        <time>2020-09-20T08:35:40.000Z</time>
      </trkpt>
      <trkpt lat="43.61166" lon="3.72222">
        <ele>186.35094704656</ele>
        <time>2020-09-20T08:35:41.000Z</time>
      </trkpt>
      <trkpt lat="43.61167" lon="3.72225">
        <ele>186.25124618106</ele>
        <time>2020-09-20T08:35:42.000Z</time>
      </trkpt>
      <trkpt lat="43.61169" lon="3.72227">
        <ele>186.15154531556</ele>
        <time>2020-09-20T08:35:43.000Z</time>
      </trkpt>
      <trkpt lat="43.61172" lon="3.72228">
        <ele>186.05184445006</ele>
        <time>2020-09-20T08:35:44.000Z</time>
      </trkpt>
      <trkpt lat="43.61175" lon="3.72229">
        <ele>185.9037111025</ele>
        <time>2020-09-20T08:35:45.000Z</time>
      </trkpt>
      <trkpt lat="43.61179" lon="3.7223">
        <ele>185.70310923269</ele>
        <time>2020-09-20T08:35:46.000Z</time>
      </trkpt>
      <trkpt lat="43.61183" lon="3.72231">
        <ele>185.50250736289</ele>
        <time>2020-09-20T08:35:47.000Z</time>
      </trkpt>
      <trkpt lat="43.61187" lon="3.72233">
        <ele>185.30190549309</ele>
        <time>2020-09-20T08:35:48.000Z</time>
      </trkpt>
      <trkpt lat="43.61191" lon="3.72234">
        <ele>185.10130362329</ele>
        <time>2020-09-20T08:35:49.000Z</time>
      </trkpt>
      <trkpt lat="43.61197" lon="3.72236">
        <ele>184.90070175349</ele>
        <time>2020-09-20T08:35:50.000Z</time>
      </trkpt>
      <trkpt lat="43.61202" lon="3.72239">
        <ele>184.70009988368</ele>
        <time>2020-09-20T08:35:51.000Z</time>
      </trkpt>
      <trkpt lat="43.61208" lon="3.72242">
        <ele>184.49949801388</ele>
        <time>2020-09-20T08:35:52.000Z</time>
      </trkpt>
      <trkpt lat="43.61213" lon="3.72246">
        <ele>184.29889614408</ele>
        <time>2020-09-20T08:35:53.000Z</time>
      </trkpt>
      <trkpt lat="43.61219" lon="3.72251">
        <ele>184.09829427428</ele>
        <time>2020-09-20T08:35:54.000Z</time>
      </trkpt>
      <trkpt lat="43.61225" lon="3.72256">
        <ele>183.80213267053</ele>
        <time>2020-09-20T08:35:55.000Z</time>
      </trkpt>
      <trkpt lat="43.61231" lon="3.72262">
        <ele>183.41415994905</ele>
        <time>2020-09-20T08:35:56.000Z</time>
      </trkpt>
      <trkpt lat="43.61237" lon="3.72268">
        <ele>183.02618722757</ele>
        <time>2020-09-20T08:35:57.000Z</time>
      </trkpt>
      <trkpt lat="43.61243" lon="3.72274">
        <ele>182.63821450608</ele>
        <time>2020-09-20T08:35:58.000Z</time>
      </trkpt>
      <trkpt lat="43.61249" lon="3.7228">
        <ele>182.2502417846</ele>
        <time>2020-09-20T08:35:59.000Z</time>
      </trkpt>
      <trkpt lat="43.61255" lon="3.72286">
        <ele>181.86226906312</ele>
        <time>2020-09-20T08:36:00.000Z</time>
      </trkpt>
      <trkpt lat="43.6126" lon="3.72291">
        <ele>181.47429634163</ele>
        <time>2020-09-20T08:36:01.000Z</time>
      </trkpt>
      <trkpt lat="43.61266" lon="3.72297">
        <ele>181.08632362015</ele>
        <time>2020-09-20T08:36:02.000Z</time>
      </trkpt>
      <trkpt lat="43.61272" lon="3.72302">
        <ele>180.69835089867</ele>
        <time>2020-09-20T08:36:03.000Z</time>
      </trkpt>
      <trkpt lat="43.61277" lon="3.72308">
        <ele>180.31037817719</ele>
        <time>2020-09-20T08:36:04.000Z</time>
      </trkpt>
      <trkpt lat="43.61281" lon="3.72313">
        <ele>179.87963887812</ele>
        <time>2020-09-20T08:36:05.000Z</time>
      </trkpt>
      <trkpt lat="43.61285" lon="3.72319">
        <ele>179.27783326871</ele>
        <time>2020-09-20T08:36:06.000Z</time>
      </trkpt>
      <trkpt lat="43.61287" lon="3.72326">
        <ele>178.67602765931</ele>
        <time>2020-09-20T08:36:07.000Z</time>
      </trkpt>
      <trkpt lat="43.61288" lon="3.72333">
        <ele>178.0742220499</ele>
        <time>2020-09-20T08:36:08.000Z</time>
      </trkpt>
      <trkpt lat="43.61288" lon="3.72342">
        <ele>177.4724164405</ele>
        <time>2020-09-20T08:36:09.000Z</time>
      </trkpt>
      <trkpt lat="43.61288" lon="3.72351">
        <ele>176.87061083109</ele>
        <time>2020-09-20T08:36:10.000Z</time>
      </trkpt>
      <trkpt lat="43.6129" lon="3.72361">
        <ele>176.26880522168</ele>
        <time>2020-09-20T08:36:11.000Z</time>
      </trkpt>
      <trkpt lat="43.61292" lon="3.72372">
        <ele>175.66699961228</ele>
        <time>2020-09-20T08:36:12.000Z</time>
      </trkpt>
      <trkpt lat="43.61295" lon="3.72383">
        <ele>175.06519400287</ele>
        <time>2020-09-20T08:36:13.000Z</time>
      </trkpt>
      <trkpt lat="43.61298" lon="3.72394">
        <ele>174.46338839347</ele>
        <time>2020-09-20T08:36:14.000Z</time>
      </trkpt>
      <trkpt lat="43.613" lon="3.72405">
        <ele>173.88168559671</ele>
        <time>2020-09-20T08:36:15.000Z</time>
      </trkpt>
      <trkpt lat="43.61303" lon="3.72415">
        <ele>173.36728230453</ele>
        <time>2020-09-20T08:36:16.000Z</time>
      </trkpt>
      <trkpt lat="43.61305" lon="3.72425">
        <ele>172.85287901235</ele>
        <time>2020-09-20T08:36:17.000Z</time>
      </trkpt>
      <trkpt lat="43.61307" lon="3.72436">
        <ele>172.33847572017</ele>
        <time>2020-09-20T08:36:18.000Z</time>
      </trkpt>
      <trkpt lat="43.61309" lon="3.72446">
        <ele>171.82407242798</ele>
        <time>2020-09-20T08:36:19.000Z</time>
      </trkpt>
      <trkpt lat="43.61311" lon="3.72456">
        <ele>171.3096691358</ele>
        <time>2020-09-20T08:36:20.000Z</time>
      </trkpt>
      <trkpt lat="43.61312" lon="3.72466">
        <ele>170.79526584362</ele>
        <time>2020-09-20T08:36:21.000Z</time>
      </trkpt>
      <trkpt lat="43.61313" lon="3.72478">
        <ele>170.28086255144</ele>
        <time>2020-09-20T08:36:22.000Z</time>
      </trkpt>
      <trkpt lat="43.61314" lon="3.72489">
        <ele>169.76645925926</ele>
        <time>2020-09-20T08:36:23.000Z</time>
      </trkpt>
      <trkpt lat="43.61315" lon="3.725">
        <ele>169.25205596708</ele>
        <time>2020-09-20T08:36:24.000Z</time>
      </trkpt>
      <trkpt lat="43.61316" lon="3.72509">
        <ele>168.79599872</ele>
        <time>2020-09-20T08:36:25.000Z</time>
      </trkpt>
      <trkpt lat="43.61317" lon="3.72517">
        <ele>168.39599872</ele>
        <time>2020-09-20T08:36:26.000Z</time>
      </trkpt>
      <trkpt lat="43.61317" lon="3.72523">
        <ele>167.99599872</ele>
        <time>2020-09-20T08:36:27.000Z</time>
      </trkpt>
      <trkpt lat="43.61316" lon="3.72528">
        <ele>167.59599872</ele>
        <time>2020-09-20T08:36:28.000Z</time>
      </trkpt>
      <trkpt lat="43.61313" lon="3.72532">
        <ele>167.19599872</ele>
        <time>2020-09-20T08:36:29.000Z</time>
      </trkpt>
      <trkpt lat="43.61309" lon="3.72533">
        <ele>166.79599872</ele>
        <time>2020-09-20T08:36:30.000Z</time>
      </trkpt>
      <trkpt lat="43.61305" lon="3.72535">
        <ele>166.39599872</ele>
        <time>2020-09-20T08:36:31.000Z</time>
      </trkpt>
      <trkpt lat="43.61301" lon="3.72536">
        <ele>165.99599872</ele>
        <time>2020-09-20T08:36:32.000Z</time>
      </trkpt>
      <trkpt lat="43.61297" lon="3.72537">
        <ele>165.59599872</ele>
        <time>2020-09-20T08:36:33.000Z</time>
      </trkpt>
      <trkpt lat="43.61293" lon="3.72537">
        <ele>165.19599872</ele>
        <time>2020-09-20T08:36:34.000Z</time>
      </trkpt>
      <trkpt lat="43.61289" lon="3.72538">
        <ele>164.89799936</ele>
        <time>2020-09-20T08:36:35.000Z</time>
      </trkpt>
      <trkpt lat="43.61285" lon="3.72538">
        <ele>164.69799936</ele>
        <time>2020-09-20T08:36:36.000Z</time>
      </trkpt>
      <trkpt lat="43.61281" lon="3.72539">
        <ele>164.49799936</ele>
        <time>2020-09-20T08:36:37.000Z</time>
      </trkpt>
      <trkpt lat="43.61277" lon="3.72539">
        <ele>164.29799936</ele>
        <time>2020-09-20T08:36:38.000Z</time>
      </trkpt>
      <trkpt lat="43.61273" lon="3.72539">
        <ele>164.09799936</ele>
        <time>2020-09-20T08:36:39.000Z</time>
      </trkpt>
      <trkpt lat="43.61269" lon="3.72539">
        <ele>163.89799936</ele>
        <time>2020-09-20T08:36:40.000Z</time>
      </trkpt>
      <trkpt lat="43.61266" lon="3.7254">
        <ele>163.69799936</ele>
        <time>2020-09-20T08:36:41.000Z</time>
      </trkpt>
      <trkpt lat="43.61262" lon="3.7254">
        <ele>163.49799936</ele>
        <time>2020-09-20T08:36:42.000Z</time>
      </trkpt>
      <trkpt lat="43.61258" lon="3.7254">
        <ele>163.29799936</ele>
        <time>2020-09-20T08:36:43.000Z</time>
      </trkpt>
      <trkpt lat="43.61254" lon="3.7254">
        <ele>163.09799936</ele>
        <time>2020-09-20T08:36:44.000Z</time>
      </trkpt>
      <trkpt lat="43.61251" lon="3.72541">
        <ele>162.94899968</ele>
        <time>2020-09-20T08:36:45.000Z</time>
      </trkpt>
      <trkpt lat="43.61248" lon="3.72541">
        <ele>162.84899968</ele>
        <time>2020-09-20T08:36:46.000Z</time>
      </trkpt>
      <trkpt lat="43.61245" lon="3.72542">
        <ele>162.74899968</ele>
        <time>2020-09-20T08:36:47.000Z</time>
      </trkpt>
      <trkpt lat="43.61242" lon="3.72542">
        <ele>162.64899968</ele>
        <time>2020-09-20T08:36:48.000Z</time>
      </trkpt>
      <trkpt lat="43.61239" lon="3.72542">
        <ele>162.54899968</ele>
        <time>2020-09-20T08:36:49.000Z</time>
      </trkpt>
      <trkpt lat="43.61236" lon="3.72543">
        <ele>162.44899968</ele>
        <time>2020-09-20T08:36:50.000Z</time>
      </trkpt>
      <trkpt lat="43.61234" lon="3.72543">
        <ele>162.34899968</ele>
        <time>2020-09-20T08:36:51.000Z</time>
      </trkpt>
      <trkpt lat="43.61231" lon="3.72543">
        <ele>162.24899968</ele>
        <time>2020-09-20T08:36:52.000Z</time>
      </trkpt>
      <trkpt lat="43.61228" lon="3.72544">
        <ele>162.14899968</ele>
        <time>2020-09-20T08:36:53.000Z</time>
      </trkpt>
      <trkpt lat="43.61225" lon="3.72544">
        <ele>162.04899968</ele>
        <time>2020-09-20T08:36:54.000Z</time>
      </trkpt>
      <trkpt lat="43.61223" lon="3.72544">
        <ele>162.05100032</ele>
        <time>2020-09-20T08:36:55.000Z</time>
      </trkpt>
      <trkpt lat="43.6122" lon="3.72544">
        <ele>162.15100032</ele>
        <time>2020-09-20T08:36:56.000Z</time>
      </trkpt>
      <trkpt lat="43.61217" lon="3.72545">
        <ele>162.25100032</ele>
        <time>2020-09-20T08:36:57.000Z</time>
      </trkpt>
      <trkpt lat="43.61215" lon="3.72545">
        <ele>162.35100032</ele>
        <time>2020-09-20T08:36:58.000Z</time>
      </trkpt>
      <trkpt lat="43.61212" lon="3.72545">
        <ele>162.45100032</ele>
        <time>2020-09-20T08:36:59.000Z</time>
      </trkpt>
      <trkpt lat="43.61209" lon="3.72545">
        <ele>162.55100032</ele>
        <time>2020-09-20T08:37:00.000Z</time>
      </trkpt>
      <trkpt lat="43.61206" lon="3.72545">
        <ele>162.65100032</ele>
        <time>2020-09-20T08:37:01.000Z</time>
      </trkpt>
      <trkpt lat="43.61203" lon="3.72545">
        <ele>162.75100032</ele>
        <time>2020-09-20T08:37:02.000Z</time>
      </trkpt>
      <trkpt lat="43.61201" lon="3.72545">
        <ele>162.85100032</ele>
        <time>2020-09-20T08:37:03.000Z</time>
      </trkpt>
      <trkpt lat="43.61198" lon="3.72546">
        <ele>162.95100032</ele>
        <time>2020-09-20T08:37:04.000Z</time>
      </trkpt>
      <trkpt lat="43.61195" lon="3.72546">
        <ele>162.94899968</ele>
        <time>2020-09-20T08:37:05.000Z</time>
      </trkpt>
      <trkpt lat="43.61192" lon="3.72547">
        <ele>162.84899968</ele>
        <time>2020-09-20T08:37:06.000Z</time>
      </trkpt>
      <trkpt lat="43.6119" lon="3.72547">
        <ele>162.74899968</ele>
        <time>2020-09-20T08:37:07.000Z</time>
      </trkpt>
      <trkpt lat="43.61187" lon="3.72547">
        <ele>162.64899968</ele>
        <time>2020-09-20T08:37:08.000Z</time>
      </trkpt>
      <trkpt lat="43.61184" lon="3.72547">
        <ele>162.54899968</ele>
        <time>2020-09-20T08:37:09.000Z</time>
      </trkpt>
      <trkpt lat="43.61181" lon="3.72547">
        <ele>162.44899968</ele>
        <time>2020-09-20T08:37:10.000Z</time>
      </trkpt>
      <trkpt lat="43.61178" lon="3.72547">
        <ele>162.34899968</ele>
        <time>2020-09-20T08:37:11.000Z</time>
      </trkpt>
      <trkpt lat="43.61175" lon="3.72547">
        <ele>162.24899968</ele>
        <time>2020-09-20T08:37:12.000Z</time>
      </trkpt>
      <trkpt lat="43.61173" lon="3.72547">
        <ele>162.14899968</ele>
        <time>2020-09-20T08:37:13.000Z</time>
      </trkpt>
      <trkpt lat="43.6117" lon="3.72546">
        <ele>162.04899968</ele>
        <time>2020-09-20T08:37:14.000Z</time>
      </trkpt>
      <trkpt lat="43.61167" lon="3.72546">
        <ele>162.05100032</ele>
        <time>2020-09-20T08:37:15.000Z</time>
      </trkpt>
      <trkpt lat="43.61164" lon="3.72546">
        <ele>162.15100032</ele>
        <time>2020-09-20T08:37:16.000Z</time>
      </trkpt>
      <trkpt lat="43.61161" lon="3.72546">
        <ele>162.25100032</ele>
        <time>2020-09-20T08:37:17.000Z</time>
      </trkpt>
      <trkpt lat="43.61159" lon="3.72546">
        <ele>162.35100032</ele>
        <time>2020-09-20T08:37:18.000Z</time>
      </trkpt>
      <trkpt lat="43.61156" lon="3.72546">
        <ele>162.45100032</ele>
        <time>2020-09-20T08:37:19.000Z</time>
      </trkpt>
      <trkpt lat="43.61153" lon="3.72545">
        <ele>162.55100032</ele>
        <time>2020-09-20T08:37:20.000Z</time>
      </trkpt>
      <trkpt lat="43.6115" lon="3.72545">
        <ele>162.65100032</ele>
        <time>2020-09-20T08:37:21.000Z</time>
      </trkpt>
      <trkpt lat="43.61148" lon="3.72545">
        <ele>162.75100032</ele>
        <time>2020-09-20T08:37:22.000Z</time>
      </trkpt>
      <trkpt lat="43.61145" lon="3.72545">
        <ele>162.85100032</ele>
        <time>2020-09-20T08:37:23.000Z</time>
      </trkpt>
      <trkpt lat="43.61142" lon="3.72544">
        <ele>162.95100032</ele>
        <time>2020-09-20T08:37:24.000Z</time>
      </trkpt>
      <trkpt lat="43.61139" lon="3.72543">
        <ele>163.10179698089</ele>
        <time>2020-09-20T08:37:25.000Z</time>
      </trkpt>
      <trkpt lat="43.61136" lon="3.72542">
        <ele>163.3013976518</ele>
        <time>2020-09-20T08:37:26.000Z</time>
      </trkpt>
      <trkpt lat="43.61134" lon="3.72541">
        <ele>163.50099832272</ele>
        <time>2020-09-20T08:37:27.000Z</time>
      </trkpt>
      <trkpt lat="43.61131" lon="3.7254">
        <ele>163.70059899363</ele>
        <time>2020-09-20T08:37:28.000Z</time>
      </trkpt>
      <trkpt lat="43.61128" lon="3.72539">
        <ele>163.90019966454</ele>
        <time>2020-09-20T08:37:29.000Z</time>
      </trkpt>
      <trkpt lat="43.61126" lon="3.72537">
        <ele>164.09980033546</ele>
        <time>2020-09-20T08:37:30.000Z</time>
      </trkpt>
      <trkpt lat="43.61123" lon="3.72536">
        <ele>164.29940100637</ele>
        <time>2020-09-20T08:37:31.000Z</time>
      </trkpt>
      <trkpt lat="43.61121" lon="3.72534">
        <ele>164.49900167728</ele>
        <time>2020-09-20T08:37:32.000Z</time>
      </trkpt>
      <trkpt lat="43.61118" lon="3.72533">
        <ele>164.6986023482</ele>
        <time>2020-09-20T08:37:33.000Z</time>
      </trkpt>
      <trkpt lat="43.61116" lon="3.72531">
        <ele>164.89820301911</ele>
        <time>2020-09-20T08:37:34.000Z</time>
      </trkpt>
      <trkpt lat="43.61113" lon="3.72529">
        <ele>165.04909790724</ele>
        <time>2020-09-20T08:37:35.000Z</time>
      </trkpt>
      <trkpt lat="43.61111" lon="3.72527">
        <ele>165.1492983723</ele>
        <time>2020-09-20T08:37:36.000Z</time>
      </trkpt>
      <trkpt lat="43.61109" lon="3.72525">
        <ele>165.24949883735</ele>
        <time>2020-09-20T08:37:37.000Z</time>
      </trkpt>
      <trkpt lat="43.61107" lon="3.72523">
        <ele>165.34969930241</ele>
        <time>2020-09-20T08:37:38.000Z</time>
      </trkpt>
      <trkpt lat="43.61106" lon="3.7252">
        <ele>165.44989976747</ele>
        <time>2020-09-20T08:37:39.000Z</time>
      </trkpt>
      <trkpt lat="43.61104" lon="3.72518">
        <ele>165.55010023253</ele>
        <time>2020-09-20T08:37:40.000Z</time>
      </trkpt>
      <trkpt lat="43.61103" lon="3.72516">
        <ele>165.65030069759</ele>
        <time>2020-09-20T08:37:41.000Z</time>
      </trkpt>
      <trkpt lat="43.61102" lon="3.72513">
        <ele>165.75050116265</ele>
        <time>2020-09-20T08:37:42.000Z</time>
      </trkpt>
      <trkpt lat="43.61101" lon="3.72511">
        <ele>165.8507016277</ele>
        <time>2020-09-20T08:37:43.000Z</time>
      </trkpt>
      <trkpt lat="43.61099" lon="3.72509">
        <ele>165.95090209276</ele>
        <time>2020-09-20T08:37:44.000Z</time>
      </trkpt>
      <trkpt lat="43.61098" lon="3.72506">
        <ele>166.05100032</ele>
        <time>2020-09-20T08:37:45.000Z</time>
      </trkpt>
      <trkpt lat="43.61097" lon="3.72504">
        <ele>166.15100032</ele>
        <time>2020-09-20T08:37:46.000Z</time>
      </trkpt>
      <trkpt lat="43.61097" lon="3.72502">
        <ele>166.25100032</ele>
        <time>2020-09-20T08:37:47.000Z</time>
      </trkpt>
      <trkpt lat="43.61095" lon="3.72497">
        <ele>166.45100032</ele>
        <time>2020-09-20T08:37:49.000Z</time>
      </trkpt>
      <trkpt lat="43.61094" lon="3.72495">
        <ele>166.55100032</ele>
        <time>2020-09-20T08:37:50.000Z</time>
      </trkpt>
      <trkpt lat="43.61093" lon="3.72493">
        <ele>166.65100032</ele>
        <time>2020-09-20T08:37:51.000Z</time>
      </trkpt>
      <trkpt lat="43.61093" lon="3.7249">
        <ele>166.75100032</ele>
        <time>2020-09-20T08:37:52.000Z</time>
      </trkpt>
      <trkpt lat="43.61091" lon="3.72487">
        <ele>166.95100032</ele>
        <time>2020-09-20T08:37:54.000Z</time>
      </trkpt>
      <trkpt lat="43.61089" lon="3.72482">
        <ele>167.30200064</ele>
        <time>2020-09-20T08:37:56.000Z</time>
      </trkpt>
      <trkpt lat="43.61088" lon="3.72478">
        <ele>167.70200064</ele>
        <time>2020-09-20T08:37:58.000Z</time>
      </trkpt>
      <trkpt lat="43.61086" lon="3.72474">
        <ele>168.10200064</ele>
        <time>2020-09-20T08:38:00.000Z</time>
      </trkpt>
      <trkpt lat="43.61084" lon="3.7247">
        <ele>168.50200064</ele>
        <time>2020-09-20T08:38:02.000Z</time>
      </trkpt>
      <trkpt lat="43.61083" lon="3.72466">
        <ele>168.90200064</ele>
        <time>2020-09-20T08:38:04.000Z</time>
      </trkpt>
      <trkpt lat="43.61081" lon="3.72462">
        <ele>169.15100032</ele>
        <time>2020-09-20T08:38:06.000Z</time>
      </trkpt>
      <trkpt lat="43.61079" lon="3.72459">
        <ele>169.35100032</ele>
        <time>2020-09-20T08:38:08.000Z</time>
      </trkpt>
      <trkpt lat="43.61077" lon="3.72454">
        <ele>169.55100032</ele>
        <time>2020-09-20T08:38:10.000Z</time>
      </trkpt>
      <trkpt lat="43.61076" lon="3.7245">
        <ele>169.75100032</ele>
        <time>2020-09-20T08:38:12.000Z</time>
      </trkpt>
      <trkpt lat="43.61074" lon="3.72446">
        <ele>169.95100032</ele>
        <time>2020-09-20T08:38:14.000Z</time>
      </trkpt>
      <trkpt lat="43.61072" lon="3.72443">
        <ele>170.15100032</ele>
        <time>2020-09-20T08:38:16.000Z</time>
      </trkpt>
      <trkpt lat="43.6107" lon="3.72439">
        <ele>170.35100032</ele>
        <time>2020-09-20T08:38:18.000Z</time>
      </trkpt>
      <trkpt lat="43.61069" lon="3.72435">
        <ele>170.55100032</ele>
        <time>2020-09-20T08:38:20.000Z</time>
      </trkpt>
      <trkpt lat="43.61067" lon="3.72431">
        <ele>170.75100032</ele>
        <time>2020-09-20T08:38:22.000Z</time>
      </trkpt>
      <trkpt lat="43.61065" lon="3.72428">
        <ele>170.95100032</ele>
        <time>2020-09-20T08:38:24.000Z</time>
      </trkpt>
      <trkpt lat="43.61063" lon="3.72425">
        <ele>171.30200064</ele>
        <time>2020-09-20T08:38:26.000Z</time>
      </trkpt>
      <trkpt lat="43.61061" lon="3.72421">
        <ele>171.70200064</ele>
        <time>2020-09-20T08:38:28.000Z</time>
      </trkpt>
      <trkpt lat="43.61059" lon="3.72418">
        <ele>172.10200064</ele>
        <time>2020-09-20T08:38:30.000Z</time>
      </trkpt>
      <trkpt lat="43.61057" lon="3.72414">
        <ele>172.50200064</ele>
        <time>2020-09-20T08:38:32.000Z</time>
      </trkpt>
      <trkpt lat="43.61055" lon="3.72411">
        <ele>172.90200064</ele>
        <time>2020-09-20T08:38:34.000Z</time>
      </trkpt>
      <trkpt lat="43.61053" lon="3.72409">
        <ele>173.15100032</ele>
        <time>2020-09-20T08:38:36.000Z</time>
      </trkpt>
      <trkpt lat="43.61051" lon="3.72405">
        <ele>173.35100032</ele>
        <time>2020-09-20T08:38:38.000Z</time>
      </trkpt>
      <trkpt lat="43.61049" lon="3.72403">
        <ele>173.55100032</ele>
        <time>2020-09-20T08:38:40.000Z</time>
      </trkpt>
      <trkpt lat="43.61046" lon="3.724">
        <ele>173.75100032</ele>
        <time>2020-09-20T08:38:42.000Z</time>
      </trkpt>
      <trkpt lat="43.61044" lon="3.72397">
        <ele>173.95100032</ele>
        <time>2020-09-20T08:38:44.000Z</time>
      </trkpt>
      <trkpt lat="43.61042" lon="3.72395">
        <ele>174.3013976518</ele>
        <time>2020-09-20T08:38:46.000Z</time>
      </trkpt>
      <trkpt lat="43.61039" lon="3.72392">
        <ele>174.70059899363</ele>
        <time>2020-09-20T08:38:48.000Z</time>
      </trkpt>
      <trkpt lat="43.61036" lon="3.72392">
        <ele>175.09980033546</ele>
        <time>2020-09-20T08:38:50.000Z</time>
      </trkpt>
      <trkpt lat="43.61033" lon="3.72394">
        <ele>175.49900167728</ele>
        <time>2020-09-20T08:38:52.000Z</time>
      </trkpt>
      <trkpt lat="43.6103" lon="3.72396">
        <ele>175.89820301911</ele>
        <time>2020-09-20T08:38:54.000Z</time>
      </trkpt>
      <trkpt lat="43.61029" lon="3.72397">
        <ele>176</ele>
        <time>2020-09-20T08:38:55.000Z</time>
      </trkpt>
      <trkpt lat="43.61026" lon="3.724">
        <ele>176</ele>
        <time>2020-09-20T08:38:57.000Z</time>
      </trkpt>
      <trkpt lat="43.61024" lon="3.72402">
        <ele>176</ele>
        <time>2020-09-20T08:38:58.000Z</time>
      </trkpt>
      <trkpt lat="43.61023" lon="3.72403">
        <ele>176</ele>
        <time>2020-09-20T08:38:59.000Z</time>
      </trkpt>
      <trkpt lat="43.61021" lon="3.72405">
        <ele>176</ele>
        <time>2020-09-20T08:39:00.000Z</time>
      </trkpt>
      <trkpt lat="43.61018" lon="3.72408">
        <ele>176</ele>
        <time>2020-09-20T08:39:02.000Z</time>
      </trkpt>
      <trkpt lat="43.61016" lon="3.72409">
        <ele>176</ele>
        <time>2020-09-20T08:39:03.000Z</time>
      </trkpt>
      <trkpt lat="43.61014" lon="3.72411">
        <ele>176</ele>
        <time>2020-09-20T08:39:04.000Z</time>
      </trkpt>
      <trkpt lat="43.61013" lon="3.72414">
        <ele>176</ele>
        <time>2020-09-20T08:39:05.000Z</time>
      </trkpt>
      <trkpt lat="43.61011" lon="3.72416">
        <ele>176</ele>
        <time>2020-09-20T08:39:06.000Z</time>
      </trkpt>
      <trkpt lat="43.61009" lon="3.72417">
        <ele>176</ele>
        <time>2020-09-20T08:39:07.000Z</time>
      </trkpt>
      <trkpt lat="43.61008" lon="3.72419">
        <ele>176</ele>
        <time>2020-09-20T08:39:08.000Z</time>
      </trkpt>
      <trkpt lat="43.61006" lon="3.72421">
        <ele>176</ele>
        <time>2020-09-20T08:39:09.000Z</time>
      </trkpt>
      <trkpt lat="43.61005" lon="3.72423">
        <ele>176</ele>
        <time>2020-09-20T08:39:10.000Z</time>
      </trkpt>
      <trkpt lat="43.61003" lon="3.72425">
        <ele>176</ele>
        <time>2020-09-20T08:39:11.000Z</time>
      </trkpt>
      <trkpt lat="43.61002" lon="3.72427">
        <ele>176</ele>
        <time>2020-09-20T08:39:12.000Z</time>
      </trkpt>
      <trkpt lat="43.61" lon="3.72429">
        <ele>176</ele>
        <time>2020-09-20T08:39:13.000Z</time>
      </trkpt>
      <trkpt lat="43.60999" lon="3.72431">
        <ele>176</ele>
        <time>2020-09-20T08:39:14.000Z</time>
      </trkpt>
      <trkpt lat="43.60998" lon="3.72433">
        <ele>176.01708510003</ele>
        <time>2020-09-20T08:39:15.000Z</time>
      </trkpt>
      <trkpt lat="43.60996" lon="3.72435">
        <ele>176.11758758027</ele>
        <time>2020-09-20T08:39:16.000Z</time>
      </trkpt>
      <trkpt lat="43.60995" lon="3.72436">
        <ele>176.21809006051</ele>
        <time>2020-09-20T08:39:17.000Z</time>
      </trkpt>
      <trkpt lat="43.60993" lon="3.72437">
        <ele>176.31859254075</ele>
        <time>2020-09-20T08:39:18.000Z</time>
      </trkpt>
      <trkpt lat="43.6099" lon="3.72439">
        <ele>176.51959750124</ele>
        <time>2020-09-20T08:39:20.000Z</time>
      </trkpt>
      <trkpt lat="43.60987" lon="3.7244">
        <ele>176.72060246172</ele>
        <time>2020-09-20T08:39:22.000Z</time>
      </trkpt>
      <trkpt lat="43.60984" lon="3.7244">
        <ele>176.9216074222</ele>
        <time>2020-09-20T08:39:24.000Z</time>
      </trkpt>
      <trkpt lat="43.60981" lon="3.72441">
        <ele>177.12564313143</ele>
        <time>2020-09-20T08:39:26.000Z</time>
      </trkpt>
      <trkpt lat="43.60978" lon="3.72442">
        <ele>177.33161655855</ele>
        <time>2020-09-20T08:39:28.000Z</time>
      </trkpt>
      <trkpt lat="43.60976" lon="3.72444">
        <ele>177.53758998567</ele>
        <time>2020-09-20T08:39:30.000Z</time>
      </trkpt>
      <trkpt lat="43.60976" lon="3.72444">
        <ele>178</ele>
        <time>2020-09-20T08:39:36.000Z</time>
      </trkpt>
      <trkpt lat="43.60974" lon="3.7243">
        <ele>178.02865917008</ele>
        <time>2020-09-20T08:41:31.000Z</time>
      </trkpt>
      <trkpt lat="43.60975" lon="3.72426">
        <ele>178.23336752782</ele>
        <time>2020-09-20T08:41:33.000Z</time>
      </trkpt>
      <trkpt lat="43.60975" lon="3.7242">
        <ele>178.43807588555</ele>
        <time>2020-09-20T08:41:35.000Z</time>
      </trkpt>
      <trkpt lat="43.60975" lon="3.72418">
        <ele>178.54043006442</ele>
        <time>2020-09-20T08:41:36.000Z</time>
      </trkpt>
      <trkpt lat="43.60975" lon="3.72415">
        <ele>178.64278424329</ele>
        <time>2020-09-20T08:41:37.000Z</time>
      </trkpt>
      <trkpt lat="43.60976" lon="3.72412">
        <ele>178.84749260102</ele>
        <time>2020-09-20T08:41:39.000Z</time>
      </trkpt>
      <trkpt lat="43.60976" lon="3.72406">
        <ele>179</ele>
        <time>2020-09-20T08:41:41.000Z</time>
      </trkpt>
      <trkpt lat="43.60976" lon="3.72403">
        <ele>179</ele>
        <time>2020-09-20T08:41:42.000Z</time>
      </trkpt>
      <trkpt lat="43.60976" lon="3.72399">
        <ele>179</ele>
        <time>2020-09-20T08:41:43.000Z</time>
      </trkpt>
      <trkpt lat="43.60975" lon="3.72397">
        <ele>179</ele>
        <time>2020-09-20T08:41:44.000Z</time>
      </trkpt>
      <trkpt lat="43.60974" lon="3.72394">
        <ele>179</ele>
        <time>2020-09-20T08:41:45.000Z</time>
      </trkpt>
      <trkpt lat="43.60973" lon="3.72392">
        <ele>179</ele>
        <time>2020-09-20T08:41:46.000Z</time>
      </trkpt>
      <trkpt lat="43.60972" lon="3.72389">
        <ele>179</ele>
        <time>2020-09-20T08:41:47.000Z</time>
      </trkpt>
      <trkpt lat="43.6097" lon="3.72387">
        <ele>179</ele>
        <time>2020-09-20T08:41:48.000Z</time>
      </trkpt>
      <trkpt lat="43.60969" lon="3.72384">
        <ele>179</ele>
        <time>2020-09-20T08:41:49.000Z</time>
      </trkpt>
      <trkpt lat="43.60968" lon="3.72381">
        <ele>179</ele>
        <time>2020-09-20T08:41:50.000Z</time>
      </trkpt>
      <trkpt lat="43.60967" lon="3.72379">
        <ele>179.04727713785</ele>
        <time>2020-09-20T08:41:51.000Z</time>
      </trkpt>
      <trkpt lat="43.60967" lon="3.72375">
        <ele>179.45837696473</ele>
        <time>2020-09-20T08:41:53.000Z</time>
      </trkpt>
      <trkpt lat="43.60966" lon="3.72371">
        <ele>179.86947679161</ele>
        <time>2020-09-20T08:41:55.000Z</time>
      </trkpt>
      <trkpt lat="43.60964" lon="3.72368">
        <ele>180.28057661848</ele>
        <time>2020-09-20T08:41:57.000Z</time>
      </trkpt>
      <trkpt lat="43.60964" lon="3.72363">
        <ele>180.69167644536</ele>
        <time>2020-09-20T08:41:59.000Z</time>
      </trkpt>
      <trkpt lat="43.60964" lon="3.72359">
        <ele>181.05005067466</ele>
        <time>2020-09-20T08:42:01.000Z</time>
      </trkpt>
      <trkpt lat="43.60964" lon="3.72355">
        <ele>181.25025081073</ele>
        <time>2020-09-20T08:42:03.000Z</time>
      </trkpt>
      <trkpt lat="43.60963" lon="3.72351">
        <ele>181.4504509468</ele>
        <time>2020-09-20T08:42:05.000Z</time>
      </trkpt>
      <trkpt lat="43.60962" lon="3.72347">
        <ele>181.65065108287</ele>
        <time>2020-09-20T08:42:07.000Z</time>
      </trkpt>
      <trkpt lat="43.6096" lon="3.72344">
        <ele>181.85085121895</ele>
        <time>2020-09-20T08:42:09.000Z</time>
      </trkpt>
      <trkpt lat="43.60959" lon="3.72341">
        <ele>182.05089849044</ele>
        <time>2020-09-20T08:42:11.000Z</time>
      </trkpt>
      <trkpt lat="43.60958" lon="3.72338">
        <ele>182.25049916136</ele>
        <time>2020-09-20T08:42:13.000Z</time>
      </trkpt>
      <trkpt lat="43.60957" lon="3.72335">
        <ele>182.45009983227</ele>
        <time>2020-09-20T08:42:15.000Z</time>
      </trkpt>
      <trkpt lat="43.60954" lon="3.72334">
        <ele>182.64970050318</ele>
        <time>2020-09-20T08:42:17.000Z</time>
      </trkpt>
      <trkpt lat="43.60952" lon="3.72332">
        <ele>182.74950083864</ele>
        <time>2020-09-20T08:42:18.000Z</time>
      </trkpt>
      <trkpt lat="43.6095" lon="3.72329">
        <ele>182.94910150956</ele>
        <time>2020-09-20T08:42:20.000Z</time>
      </trkpt>
      <trkpt lat="43.60949" lon="3.72326">
        <ele>183</ele>
        <time>2020-09-20T08:42:22.000Z</time>
      </trkpt>
      <trkpt lat="43.60949" lon="3.72325">
        <ele>183</ele>
        <time>2020-09-20T08:42:28.000Z</time>
      </trkpt>
      <trkpt lat="43.60953" lon="3.72331">
        <ele>184</ele>
        <time>2020-09-20T08:42:51.000Z</time>
      </trkpt>
      <trkpt lat="43.60955" lon="3.72332">
        <ele>184</ele>
        <time>2020-09-20T08:42:55.000Z</time>
      </trkpt>
      <trkpt lat="43.60958" lon="3.72333">
        <ele>184</ele>
        <time>2020-09-20T08:42:57.000Z</time>
      </trkpt>
      <trkpt lat="43.60959" lon="3.72337">
        <ele>184</ele>
        <time>2020-09-20T08:42:59.000Z</time>
      </trkpt>
      <trkpt lat="43.6096" lon="3.72341">
        <ele>183.95043705304</ele>
        <time>2020-09-20T08:43:01.000Z</time>
      </trkpt>
      <trkpt lat="43.60961" lon="3.72343">
        <ele>183.85325541387</ele>
        <time>2020-09-20T08:43:02.000Z</time>
      </trkpt>
      <trkpt lat="43.60962" lon="3.72346">
        <ele>183.7560737747</ele>
        <time>2020-09-20T08:43:03.000Z</time>
      </trkpt>
      <trkpt lat="43.60963" lon="3.72348">
        <ele>183.65889213553</ele>
        <time>2020-09-20T08:43:04.000Z</time>
      </trkpt>
      <trkpt lat="43.60963" lon="3.72351">
        <ele>183.56171049636</ele>
        <time>2020-09-20T08:43:05.000Z</time>
      </trkpt>
      <trkpt lat="43.60963" lon="3.72354">
        <ele>183.46452885719</ele>
        <time>2020-09-20T08:43:06.000Z</time>
      </trkpt>
      <trkpt lat="43.60963" lon="3.72358">
        <ele>183.27016557885</ele>
        <time>2020-09-20T08:43:08.000Z</time>
      </trkpt>
      <trkpt lat="43.60963" lon="3.72362">
        <ele>183.07580230051</ele>
        <time>2020-09-20T08:43:10.000Z</time>
      </trkpt>
      <trkpt lat="43.60963" lon="3.72365">
        <ele>183</ele>
        <time>2020-09-20T08:43:15.000Z</time>
      </trkpt>
      <trkpt lat="43.60965" lon="3.72369">
        <ele>183</ele>
        <time>2020-09-20T08:43:17.000Z</time>
      </trkpt>
      <trkpt lat="43.60966" lon="3.72373">
        <ele>183</ele>
        <time>2020-09-20T08:43:19.000Z</time>
      </trkpt>
      <trkpt lat="43.60967" lon="3.72378">
        <ele>182.90945732601</ele>
        <time>2020-09-20T08:43:21.000Z</time>
      </trkpt>
      <trkpt lat="43.60968" lon="3.7238">
        <ele>182.708249953</ele>
        <time>2020-09-20T08:43:22.000Z</time>
      </trkpt>
      <trkpt lat="43.60969" lon="3.72383">
        <ele>182.50704257999</ele>
        <time>2020-09-20T08:43:23.000Z</time>
      </trkpt>
      <trkpt lat="43.6097" lon="3.72386">
        <ele>182.30583520698</ele>
        <time>2020-09-20T08:43:24.000Z</time>
      </trkpt>
      <trkpt lat="43.60971" lon="3.72389">
        <ele>182.10462783397</ele>
        <time>2020-09-20T08:43:25.000Z</time>
      </trkpt>
      <trkpt lat="43.60969" lon="3.72394">
        <ele>181.70221308794</ele>
        <time>2020-09-20T08:43:27.000Z</time>
      </trkpt>
      <trkpt lat="43.60968" lon="3.72397">
        <ele>181.50100571493</ele>
        <time>2020-09-20T08:43:28.000Z</time>
      </trkpt>
      <trkpt lat="43.60966" lon="3.72399">
        <ele>181.29979834192</ele>
        <time>2020-09-20T08:43:29.000Z</time>
      </trkpt>
      <trkpt lat="43.60964" lon="3.724">
        <ele>181.09859096891</ele>
        <time>2020-09-20T08:43:30.000Z</time>
      </trkpt>
      <trkpt lat="43.60962" lon="3.724">
        <ele>181</ele>
        <time>2020-09-20T08:43:31.000Z</time>
      </trkpt>
      <trkpt lat="43.6096" lon="3.724">
        <ele>181</ele>
        <time>2020-09-20T08:43:32.000Z</time>
      </trkpt>
      <trkpt lat="43.60956" lon="3.724">
        <ele>181</ele>
        <time>2020-09-20T08:43:34.000Z</time>
      </trkpt>
      <trkpt lat="43.60953" lon="3.72399">
        <ele>181</ele>
        <time>2020-09-20T08:43:36.000Z</time>
      </trkpt>
      <trkpt lat="43.60951" lon="3.72399">
        <ele>181</ele>
        <time>2020-09-20T08:43:38.000Z</time>
      </trkpt>
      <trkpt lat="43.6095" lon="3.72399">
        <ele>181</ele>
        <time>2020-09-20T08:43:44.000Z</time>
      </trkpt>
      <trkpt lat="43.60944" lon="3.72398">
        <ele>181</ele>
        <time>2020-09-20T08:43:51.000Z</time>
      </trkpt>
      <trkpt lat="43.60943" lon="3.72398">
        <ele>181</ele>
        <time>2020-09-20T08:43:53.000Z</time>
      </trkpt>
      <trkpt lat="43.6094" lon="3.72397">
        <ele>181</ele>
        <time>2020-09-20T08:43:56.000Z</time>
      </trkpt>
      <trkpt lat="43.60937" lon="3.72395">
        <ele>181</ele>
        <time>2020-09-20T08:43:58.000Z</time>
      </trkpt>
      <trkpt lat="43.60934" lon="3.72394">
        <ele>181</ele>
        <time>2020-09-20T08:44:00.000Z</time>
      </trkpt>
      <trkpt lat="43.60933" lon="3.7239">
        <ele>180.85325541387</ele>
        <time>2020-09-20T08:44:02.000Z</time>
      </trkpt>
      <trkpt lat="43.60932" lon="3.72386">
        <ele>180.65889213553</ele>
        <time>2020-09-20T08:44:04.000Z</time>
      </trkpt>
      <trkpt lat="43.60931" lon="3.72383">
        <ele>180.56171049636</ele>
        <time>2020-09-20T08:44:05.000Z</time>
      </trkpt>
      <trkpt lat="43.6093" lon="3.72381">
        <ele>180.46452885719</ele>
        <time>2020-09-20T08:44:06.000Z</time>
      </trkpt>
      <trkpt lat="43.60929" lon="3.72379">
        <ele>180.36734721802</ele>
        <time>2020-09-20T08:44:07.000Z</time>
      </trkpt>
      <trkpt lat="43.60927" lon="3.72376">
        <ele>180.17298393968</ele>
        <time>2020-09-20T08:44:09.000Z</time>
      </trkpt>
      <trkpt lat="43.60927" lon="3.72376">
        <ele>180</ele>
        <time>2020-09-20T08:44:14.000Z</time>
      </trkpt>
      <trkpt lat="43.60931" lon="3.72381">
        <ele>177.97533401039</ele>
        <time>2020-09-20T08:44:31.000Z</time>
      </trkpt>
      <trkpt lat="43.60932" lon="3.72382">
        <ele>177.87255905367</ele>
        <time>2020-09-20T08:44:32.000Z</time>
      </trkpt>
      <trkpt lat="43.60933" lon="3.72385">
        <ele>177.46145922679</ele>
        <time>2020-09-20T08:44:36.000Z</time>
      </trkpt>
      <trkpt lat="43.60934" lon="3.72388">
        <ele>177.25590931335</ele>
        <time>2020-09-20T08:44:38.000Z</time>
      </trkpt>
      <trkpt lat="43.60936" lon="3.72391">
        <ele>177.05035939991</ele>
        <time>2020-09-20T08:44:40.000Z</time>
      </trkpt>
      <trkpt lat="43.60939" lon="3.72393">
        <ele>177.29348917225</ele>
        <time>2020-09-20T08:44:42.000Z</time>
      </trkpt>
      <trkpt lat="43.60941" lon="3.72393">
        <ele>177.48785245059</ele>
        <time>2020-09-20T08:44:43.000Z</time>
      </trkpt>
      <trkpt lat="43.60944" lon="3.72394">
        <ele>177.68221572893</ele>
        <time>2020-09-20T08:44:44.000Z</time>
      </trkpt>
      <trkpt lat="43.60946" lon="3.72395">
        <ele>178.07094228561</ele>
        <time>2020-09-20T08:44:46.000Z</time>
      </trkpt>
      <trkpt lat="43.60948" lon="3.72395">
        <ele>178.45966884229</ele>
        <time>2020-09-20T08:44:48.000Z</time>
      </trkpt>
      <trkpt lat="43.6095" lon="3.72396">
        <ele>178.84839539897</ele>
        <time>2020-09-20T08:44:50.000Z</time>
      </trkpt>
      <trkpt lat="43.60953" lon="3.72397">
        <ele>179.11996007708</ele>
        <time>2020-09-20T08:44:52.000Z</time>
      </trkpt>
      <trkpt lat="43.60957" lon="3.72398">
        <ele>179.31661697278</ele>
        <time>2020-09-20T08:44:54.000Z</time>
      </trkpt>
      <trkpt lat="43.60959" lon="3.72399">
        <ele>179.41494542063</ele>
        <time>2020-09-20T08:44:55.000Z</time>
      </trkpt>
      <trkpt lat="43.6096" lon="3.72399">
        <ele>179.51327386848</ele>
        <time>2020-09-20T08:44:56.000Z</time>
      </trkpt>
      <trkpt lat="43.60964" lon="3.72397">
        <ele>179.70993076419</ele>
        <time>2020-09-20T08:44:58.000Z</time>
      </trkpt>
      <trkpt lat="43.60966" lon="3.72395">
        <ele>179.80825921204</ele>
        <time>2020-09-20T08:44:59.000Z</time>
      </trkpt>
      <trkpt lat="43.60967" lon="3.72394">
        <ele>179.90658765989</ele>
        <time>2020-09-20T08:45:00.000Z</time>
      </trkpt>
      <trkpt lat="43.6097" lon="3.72394">
        <ele>180</ele>
        <time>2020-09-20T08:45:02.000Z</time>
      </trkpt>
      <trkpt lat="43.60971" lon="3.72396">
        <ele>180</ele>
        <time>2020-09-20T08:45:03.000Z</time>
      </trkpt>
      <trkpt lat="43.60972" lon="3.72399">
        <ele>180</ele>
        <time>2020-09-20T08:45:04.000Z</time>
      </trkpt>
      <trkpt lat="43.60972" lon="3.72402">
        <ele>180</ele>
        <time>2020-09-20T08:45:05.000Z</time>
      </trkpt>
      <trkpt lat="43.60972" lon="3.72405">
        <ele>180</ele>
        <time>2020-09-20T08:45:06.000Z</time>
      </trkpt>
      <trkpt lat="43.60972" lon="3.72409">
        <ele>180</ele>
        <time>2020-09-20T08:45:07.000Z</time>
      </trkpt>
      <trkpt lat="43.60972" lon="3.72413">
        <ele>180</ele>
        <time>2020-09-20T08:45:08.000Z</time>
      </trkpt>
      <trkpt lat="43.60973" lon="3.72418">
        <ele>180</ele>
        <time>2020-09-20T08:45:09.000Z</time>
      </trkpt>
      <trkpt lat="43.60972" lon="3.72423">
        <ele>180</ele>
        <time>2020-09-20T08:45:10.000Z</time>
      </trkpt>
      <trkpt lat="43.60973" lon="3.72429">
        <ele>179.94899968</ele>
        <time>2020-09-20T08:45:11.000Z</time>
      </trkpt>
      <trkpt lat="43.60973" lon="3.72434">
        <ele>179.84899968</ele>
        <time>2020-09-20T08:45:12.000Z</time>
      </trkpt>
      <trkpt lat="43.60973" lon="3.72439">
        <ele>179.74899968</ele>
        <time>2020-09-20T08:45:13.000Z</time>
      </trkpt>
      <trkpt lat="43.60973" lon="3.72445">
        <ele>179.64899968</ele>
        <time>2020-09-20T08:45:14.000Z</time>
      </trkpt>
      <trkpt lat="43.60971" lon="3.7245">
        <ele>179.54899968</ele>
        <time>2020-09-20T08:45:15.000Z</time>
      </trkpt>
      <trkpt lat="43.6097" lon="3.72455">
        <ele>179.44899968</ele>
        <time>2020-09-20T08:45:16.000Z</time>
      </trkpt>
      <trkpt lat="43.60968" lon="3.72458">
        <ele>179.34899968</ele>
        <time>2020-09-20T08:45:17.000Z</time>
      </trkpt>
      <trkpt lat="43.60967" lon="3.72462">
        <ele>179.24899968</ele>
        <time>2020-09-20T08:45:18.000Z</time>
      </trkpt>
      <trkpt lat="43.60966" lon="3.72466">
        <ele>179.14899968</ele>
        <time>2020-09-20T08:45:19.000Z</time>
      </trkpt>
      <trkpt lat="43.60964" lon="3.72471">
        <ele>179.04899968</ele>
        <time>2020-09-20T08:45:20.000Z</time>
      </trkpt>
      <trkpt lat="43.60962" lon="3.72477">
        <ele>178.74525306542</ele>
        <time>2020-09-20T08:45:21.000Z</time>
      </trkpt>
      <trkpt lat="43.6096" lon="3.72483">
        <ele>178.24575240623</ele>
        <time>2020-09-20T08:45:22.000Z</time>
      </trkpt>
      <trkpt lat="43.60956" lon="3.72489">
        <ele>177.74625174705</ele>
        <time>2020-09-20T08:45:23.000Z</time>
      </trkpt>
      <trkpt lat="43.60952" lon="3.72496">
        <ele>177.24675108787</ele>
        <time>2020-09-20T08:45:24.000Z</time>
      </trkpt>
      <trkpt lat="43.60948" lon="3.72504">
        <ele>176.74725042869</ele>
        <time>2020-09-20T08:45:25.000Z</time>
      </trkpt>
      <trkpt lat="43.60943" lon="3.72512">
        <ele>176.24774976951</ele>
        <time>2020-09-20T08:45:26.000Z</time>
      </trkpt>
      <trkpt lat="43.60939" lon="3.72522">
        <ele>175.74824911033</ele>
        <time>2020-09-20T08:45:27.000Z</time>
      </trkpt>
      <trkpt lat="43.60934" lon="3.72532">
        <ele>175.24874845115</ele>
        <time>2020-09-20T08:45:28.000Z</time>
      </trkpt>
      <trkpt lat="43.60929" lon="3.72543">
        <ele>174.74924779197</ele>
        <time>2020-09-20T08:45:29.000Z</time>
      </trkpt>
      <trkpt lat="43.60924" lon="3.72553">
        <ele>174.24974713279</ele>
        <time>2020-09-20T08:45:30.000Z</time>
      </trkpt>
      <trkpt lat="43.6092" lon="3.72562">
        <ele>173.7087343169</ele>
        <time>2020-09-20T08:45:31.000Z</time>
      </trkpt>
      <trkpt lat="43.60916" lon="3.72571">
        <ele>173.12621040702</ele>
        <time>2020-09-20T08:45:32.000Z</time>
      </trkpt>
      <trkpt lat="43.60912" lon="3.72579">
        <ele>172.54368649713</ele>
        <time>2020-09-20T08:45:33.000Z</time>
      </trkpt>
      <trkpt lat="43.60909" lon="3.72586">
        <ele>171.96116258724</ele>
        <time>2020-09-20T08:45:34.000Z</time>
      </trkpt>
      <trkpt lat="43.60905" lon="3.72593">
        <ele>171.37863867735</ele>
        <time>2020-09-20T08:45:35.000Z</time>
      </trkpt>
      <trkpt lat="43.60902" lon="3.72601">
        <ele>170.79611476746</ele>
        <time>2020-09-20T08:45:36.000Z</time>
      </trkpt>
      <trkpt lat="43.60898" lon="3.72609">
        <ele>170.21359085758</ele>
        <time>2020-09-20T08:45:37.000Z</time>
      </trkpt>
      <trkpt lat="43.60894" lon="3.72618">
        <ele>169.63106694769</ele>
        <time>2020-09-20T08:45:38.000Z</time>
      </trkpt>
      <trkpt lat="43.6089" lon="3.72628">
        <ele>169.0485430378</ele>
        <time>2020-09-20T08:45:39.000Z</time>
      </trkpt>
      <trkpt lat="43.60887" lon="3.72638">
        <ele>168.46601912791</ele>
        <time>2020-09-20T08:45:40.000Z</time>
      </trkpt>
      <trkpt lat="43.60884" lon="3.72648">
        <ele>167.87616094982</ele>
        <time>2020-09-20T08:45:41.000Z</time>
      </trkpt>
      <trkpt lat="43.60882" lon="3.72659">
        <ele>167.25696569889</ele>
        <time>2020-09-20T08:45:42.000Z</time>
      </trkpt>
      <trkpt lat="43.60879" lon="3.72668">
        <ele>166.63777044797</ele>
        <time>2020-09-20T08:45:43.000Z</time>
      </trkpt>
      <trkpt lat="43.60877" lon="3.72678">
        <ele>166.01857519705</ele>
        <time>2020-09-20T08:45:44.000Z</time>
      </trkpt>
      <trkpt lat="43.60874" lon="3.72689">
        <ele>165.39937994613</ele>
        <time>2020-09-20T08:45:45.000Z</time>
      </trkpt>
      <trkpt lat="43.60872" lon="3.72699">
        <ele>164.78018469521</ele>
        <time>2020-09-20T08:45:46.000Z</time>
      </trkpt>
      <trkpt lat="43.6087" lon="3.7271">
        <ele>164.16098944429</ele>
        <time>2020-09-20T08:45:47.000Z</time>
      </trkpt>
      <trkpt lat="43.60867" lon="3.7272">
        <ele>163.54179419337</ele>
        <time>2020-09-20T08:45:48.000Z</time>
      </trkpt>
      <trkpt lat="43.60865" lon="3.7273">
        <ele>162.92259894245</ele>
        <time>2020-09-20T08:45:49.000Z</time>
      </trkpt>
      <trkpt lat="43.60863" lon="3.72739">
        <ele>162.30340369153</ele>
        <time>2020-09-20T08:45:50.000Z</time>
      </trkpt>
      <trkpt lat="43.60862" lon="3.72749">
        <ele>161.89799936</ele>
        <time>2020-09-20T08:45:51.000Z</time>
      </trkpt>
      <trkpt lat="43.60861" lon="3.72757">
        <ele>161.69799936</ele>
        <time>2020-09-20T08:45:52.000Z</time>
      </trkpt>
      <trkpt lat="43.6086" lon="3.72766">
        <ele>161.49799936</ele>
        <time>2020-09-20T08:45:53.000Z</time>
      </trkpt>
      <trkpt lat="43.60859" lon="3.72773">
        <ele>161.29799936</ele>
        <time>2020-09-20T08:45:54.000Z</time>
      </trkpt>
      <trkpt lat="43.60858" lon="3.72779">
        <ele>161.09799936</ele>
        <time>2020-09-20T08:45:55.000Z</time>
      </trkpt>
      <trkpt lat="43.60856" lon="3.72784">
        <ele>160.89799936</ele>
        <time>2020-09-20T08:45:56.000Z</time>
      </trkpt>
      <trkpt lat="43.60854" lon="3.72787">
        <ele>160.69799936</ele>
        <time>2020-09-20T08:45:57.000Z</time>
      </trkpt>
      <trkpt lat="43.60851" lon="3.72789">
        <ele>160.49799936</ele>
        <time>2020-09-20T08:45:58.000Z</time>
      </trkpt>
      <trkpt lat="43.60848" lon="3.7279">
        <ele>160.29799936</ele>
        <time>2020-09-20T08:45:59.000Z</time>
      </trkpt>
      <trkpt lat="43.60845" lon="3.7279">
        <ele>160.09799936</ele>
        <time>2020-09-20T08:46:00.000Z</time>
      </trkpt>
      <trkpt lat="43.60842" lon="3.7279">
        <ele>160</ele>
        <time>2020-09-20T08:46:01.000Z</time>
      </trkpt>
      <trkpt lat="43.6084" lon="3.7279">
        <ele>160</ele>
        <time>2020-09-20T08:46:02.000Z</time>
      </trkpt>
      <trkpt lat="43.60837" lon="3.72789">
        <ele>160</ele>
        <time>2020-09-20T08:46:03.000Z</time>
      </trkpt>
      <trkpt lat="43.60834" lon="3.72787">
        <ele>160</ele>
        <time>2020-09-20T08:46:04.000Z</time>
      </trkpt>
      <trkpt lat="43.60832" lon="3.72783">
        <ele>160</ele>
        <time>2020-09-20T08:46:05.000Z</time>
      </trkpt>
      <trkpt lat="43.60831" lon="3.72779">
        <ele>160</ele>
        <time>2020-09-20T08:46:06.000Z</time>
      </trkpt>
      <trkpt lat="43.60831" lon="3.72775">
        <ele>160</ele>
        <time>2020-09-20T08:46:07.000Z</time>
      </trkpt>
      <trkpt lat="43.60831" lon="3.72771">
        <ele>160</ele>
        <time>2020-09-20T08:46:08.000Z</time>
      </trkpt>
      <trkpt lat="43.60831" lon="3.72767">
        <ele>160</ele>
        <time>2020-09-20T08:46:09.000Z</time>
      </trkpt>
      <trkpt lat="43.6083" lon="3.72763">
        <ele>160</ele>
        <time>2020-09-20T08:46:10.000Z</time>
      </trkpt>
      <trkpt lat="43.6083" lon="3.72759">
        <ele>160</ele>
        <time>2020-09-20T08:46:11.000Z</time>
      </trkpt>
      <trkpt lat="43.60829" lon="3.72755">
        <ele>160</ele>
        <time>2020-09-20T08:46:12.000Z</time>
      </trkpt>
      <trkpt lat="43.60828" lon="3.72751">
        <ele>160</ele>
        <time>2020-09-20T08:46:13.000Z</time>
      </trkpt>
      <trkpt lat="43.60827" lon="3.72747">
        <ele>160</ele>
        <time>2020-09-20T08:46:14.000Z</time>
      </trkpt>
      <trkpt lat="43.60826" lon="3.72743">
        <ele>160</ele>
        <time>2020-09-20T08:46:15.000Z</time>
      </trkpt>
      <trkpt lat="43.60826" lon="3.72739">
        <ele>160</ele>
        <time>2020-09-20T08:46:16.000Z</time>
      </trkpt>
      <trkpt lat="43.60825" lon="3.72735">
        <ele>160</ele>
        <time>2020-09-20T08:46:17.000Z</time>
      </trkpt>
      <trkpt lat="43.60824" lon="3.72732">
        <ele>160</ele>
        <time>2020-09-20T08:46:18.000Z</time>
      </trkpt>
      <trkpt lat="43.60823" lon="3.72728">
        <ele>160</ele>
        <time>2020-09-20T08:46:19.000Z</time>
      </trkpt>
      <trkpt lat="43.60822" lon="3.72725">
        <ele>160</ele>
        <time>2020-09-20T08:46:20.000Z</time>
      </trkpt>
      <trkpt lat="43.60821" lon="3.72721">
        <ele>160.04909790724</ele>
        <time>2020-09-20T08:46:21.000Z</time>
      </trkpt>
      <trkpt lat="43.6082" lon="3.72717">
        <ele>160.1492983723</ele>
        <time>2020-09-20T08:46:22.000Z</time>
      </trkpt>
      <trkpt lat="43.60819" lon="3.72713">
        <ele>160.24949883735</ele>
        <time>2020-09-20T08:46:23.000Z</time>
      </trkpt>
      <trkpt lat="43.60819" lon="3.72709">
        <ele>160.34969930241</ele>
        <time>2020-09-20T08:46:24.000Z</time>
      </trkpt>
      <trkpt lat="43.60818" lon="3.72705">
        <ele>160.44989976747</ele>
        <time>2020-09-20T08:46:25.000Z</time>
      </trkpt>
      <trkpt lat="43.60817" lon="3.72701">
        <ele>160.55010023253</ele>
        <time>2020-09-20T08:46:26.000Z</time>
      </trkpt>
      <trkpt lat="43.60817" lon="3.72697">
        <ele>160.65030069759</ele>
        <time>2020-09-20T08:46:27.000Z</time>
      </trkpt>
      <trkpt lat="43.60817" lon="3.72693">
        <ele>160.75050116265</ele>
        <time>2020-09-20T08:46:28.000Z</time>
      </trkpt>
      <trkpt lat="43.60816" lon="3.7269">
        <ele>160.8507016277</ele>
        <time>2020-09-20T08:46:29.000Z</time>
      </trkpt>
      <trkpt lat="43.60816" lon="3.72686">
        <ele>160.95090209276</ele>
        <time>2020-09-20T08:46:30.000Z</time>
      </trkpt>
      <trkpt lat="43.60815" lon="3.72682">
        <ele>161</ele>
        <time>2020-09-20T08:46:31.000Z</time>
      </trkpt>
      <trkpt lat="43.60815" lon="3.72679">
        <ele>161</ele>
        <time>2020-09-20T08:46:32.000Z</time>
      </trkpt>
      <trkpt lat="43.60814" lon="3.72676">
        <ele>161</ele>
        <time>2020-09-20T08:46:33.000Z</time>
      </trkpt>
      <trkpt lat="43.60813" lon="3.72672">
        <ele>161</ele>
        <time>2020-09-20T08:46:34.000Z</time>
      </trkpt>
      <trkpt lat="43.60813" lon="3.72669">
        <ele>161</ele>
        <time>2020-09-20T08:46:35.000Z</time>
      </trkpt>
      <trkpt lat="43.60813" lon="3.72665">
        <ele>161</ele>
        <time>2020-09-20T08:46:36.000Z</time>
      </trkpt>
      <trkpt lat="43.60812" lon="3.72661">
        <ele>161</ele>
        <time>2020-09-20T08:46:37.000Z</time>
      </trkpt>
      <trkpt lat="43.60812" lon="3.72658">
        <ele>161</ele>
        <time>2020-09-20T08:46:38.000Z</time>
      </trkpt>
      <trkpt lat="43.60812" lon="3.72655">
        <ele>161</ele>
        <time>2020-09-20T08:46:39.000Z</time>
      </trkpt>
      <trkpt lat="43.60811" lon="3.72651">
        <ele>161</ele>
        <time>2020-09-20T08:46:40.000Z</time>
      </trkpt>
      <trkpt lat="43.60811" lon="3.72648">
        <ele>161.05100032</ele>
        <time>2020-09-20T08:46:41.000Z</time>
      </trkpt>
      <trkpt lat="43.6081" lon="3.72645">
        <ele>161.15100032</ele>
        <time>2020-09-20T08:46:42.000Z</time>
      </trkpt>
      <trkpt lat="43.6081" lon="3.72642">
        <ele>161.25100032</ele>
        <time>2020-09-20T08:46:43.000Z</time>
      </trkpt>
      <trkpt lat="43.60809" lon="3.72639">
        <ele>161.35100032</ele>
        <time>2020-09-20T08:46:44.000Z</time>
      </trkpt>
      <trkpt lat="43.60809" lon="3.72636">
        <ele>161.45100032</ele>
        <time>2020-09-20T08:46:45.000Z</time>
      </trkpt>
      <trkpt lat="43.60808" lon="3.72633">
        <ele>161.55100032</ele>
        <time>2020-09-20T08:46:46.000Z</time>
      </trkpt>
      <trkpt lat="43.60807" lon="3.7263">
        <ele>161.65100032</ele>
        <time>2020-09-20T08:46:47.000Z</time>
      </trkpt>
      <trkpt lat="43.60807" lon="3.72626">
        <ele>161.75100032</ele>
        <time>2020-09-20T08:46:48.000Z</time>
      </trkpt>
      <trkpt lat="43.60806" lon="3.72623">
        <ele>161.85100032</ele>
        <time>2020-09-20T08:46:49.000Z</time>
      </trkpt>
      <trkpt lat="43.60806" lon="3.72619">
        <ele>161.95100032</ele>
        <time>2020-09-20T08:46:50.000Z</time>
      </trkpt>
      <trkpt lat="43.60805" lon="3.72616">
        <ele>162.05100032</ele>
        <time>2020-09-20T08:46:51.000Z</time>
      </trkpt>
      <trkpt lat="43.60805" lon="3.72612">
        <ele>162.15100032</ele>
        <time>2020-09-20T08:46:52.000Z</time>
      </trkpt>
      <trkpt lat="43.60804" lon="3.72609">
        <ele>162.25100032</ele>
        <time>2020-09-20T08:46:53.000Z</time>
      </trkpt>
      <trkpt lat="43.60803" lon="3.72606">
        <ele>162.35100032</ele>
        <time>2020-09-20T08:46:54.000Z</time>
      </trkpt>
      <trkpt lat="43.60803" lon="3.72603">
        <ele>162.45100032</ele>
        <time>2020-09-20T08:46:55.000Z</time>
      </trkpt>
      <trkpt lat="43.60802" lon="3.726">
        <ele>162.55100032</ele>
        <time>2020-09-20T08:46:56.000Z</time>
      </trkpt>
      <trkpt lat="43.60802" lon="3.72597">
        <ele>162.65100032</ele>
        <time>2020-09-20T08:46:57.000Z</time>
      </trkpt>
      <trkpt lat="43.60802" lon="3.72594">
        <ele>162.75100032</ele>
        <time>2020-09-20T08:46:58.000Z</time>
      </trkpt>
      <trkpt lat="43.60801" lon="3.7259">
        <ele>162.95100032</ele>
        <time>2020-09-20T08:47:00.000Z</time>
      </trkpt>
      <trkpt lat="43.608" lon="3.72587">
        <ele>163.05100032</ele>
        <time>2020-09-20T08:47:01.000Z</time>
      </trkpt>
      <trkpt lat="43.60799" lon="3.72584">
        <ele>163.15100032</ele>
        <time>2020-09-20T08:47:02.000Z</time>
      </trkpt>
      <trkpt lat="43.60798" lon="3.72582">
        <ele>163.25100032</ele>
        <time>2020-09-20T08:47:03.000Z</time>
      </trkpt>
      <trkpt lat="43.60797" lon="3.72579">
        <ele>163.35100032</ele>
        <time>2020-09-20T08:47:04.000Z</time>
      </trkpt>
      <trkpt lat="43.60796" lon="3.72577">
        <ele>163.45100032</ele>
        <time>2020-09-20T08:47:05.000Z</time>
      </trkpt>
      <trkpt lat="43.60795" lon="3.72574">
        <ele>163.55100032</ele>
        <time>2020-09-20T08:47:06.000Z</time>
      </trkpt>
      <trkpt lat="43.60794" lon="3.72572">
        <ele>163.65100032</ele>
        <time>2020-09-20T08:47:07.000Z</time>
      </trkpt>
      <trkpt lat="43.60794" lon="3.72569">
        <ele>163.75100032</ele>
        <time>2020-09-20T08:47:08.000Z</time>
      </trkpt>
      <trkpt lat="43.60793" lon="3.72567">
        <ele>163.85100032</ele>
        <time>2020-09-20T08:47:09.000Z</time>
      </trkpt>
      <trkpt lat="43.60792" lon="3.72564">
        <ele>163.95100032</ele>
        <time>2020-09-20T08:47:10.000Z</time>
      </trkpt>
      <trkpt lat="43.60791" lon="3.72562">
        <ele>164</ele>
        <time>2020-09-20T08:47:11.000Z</time>
      </trkpt>
      <trkpt lat="43.6079" lon="3.72559">
        <ele>164</ele>
        <time>2020-09-20T08:47:12.000Z</time>
      </trkpt>
      <trkpt lat="43.60789" lon="3.72557">
        <ele>164</ele>
        <time>2020-09-20T08:47:13.000Z</time>
      </trkpt>
      <trkpt lat="43.60789" lon="3.72554">
        <ele>164</ele>
        <time>2020-09-20T08:47:14.000Z</time>
      </trkpt>
      <trkpt lat="43.60788" lon="3.72552">
        <ele>164</ele>
        <time>2020-09-20T08:47:15.000Z</time>
      </trkpt>
      <trkpt lat="43.60787" lon="3.7255">
        <ele>164</ele>
        <time>2020-09-20T08:47:16.000Z</time>
      </trkpt>
      <trkpt lat="43.60786" lon="3.72547">
        <ele>164</ele>
        <time>2020-09-20T08:47:17.000Z</time>
      </trkpt>
      <trkpt lat="43.60785" lon="3.72545">
        <ele>164</ele>
        <time>2020-09-20T08:47:18.000Z</time>
      </trkpt>
      <trkpt lat="43.60784" lon="3.72542">
        <ele>164</ele>
        <time>2020-09-20T08:47:19.000Z</time>
      </trkpt>
      <trkpt lat="43.60783" lon="3.72539">
        <ele>164</ele>
        <time>2020-09-20T08:47:20.000Z</time>
      </trkpt>
      <trkpt lat="43.60782" lon="3.72536">
        <ele>164.05100032</ele>
        <time>2020-09-20T08:47:21.000Z</time>
      </trkpt>
      <trkpt lat="43.60781" lon="3.72534">
        <ele>164.15100032</ele>
        <time>2020-09-20T08:47:22.000Z</time>
      </trkpt>
      <trkpt lat="43.6078" lon="3.72531">
        <ele>164.25100032</ele>
        <time>2020-09-20T08:47:23.000Z</time>
      </trkpt>
      <trkpt lat="43.60779" lon="3.72528">
        <ele>164.35100032</ele>
        <time>2020-09-20T08:47:24.000Z</time>
      </trkpt>
      <trkpt lat="43.60778" lon="3.72525">
        <ele>164.45100032</ele>
        <time>2020-09-20T08:47:25.000Z</time>
      </trkpt>
      <trkpt lat="43.60777" lon="3.72522">
        <ele>164.55100032</ele>
        <time>2020-09-20T08:47:26.000Z</time>
      </trkpt>
      <trkpt lat="43.60776" lon="3.72519">
        <ele>164.65100032</ele>
        <time>2020-09-20T08:47:27.000Z</time>
      </trkpt>
      <trkpt lat="43.60776" lon="3.72517">
        <ele>164.75100032</ele>
        <time>2020-09-20T08:47:28.000Z</time>
      </trkpt>
      <trkpt lat="43.60775" lon="3.72514">
        <ele>164.85100032</ele>
        <time>2020-09-20T08:47:29.000Z</time>
      </trkpt>
      <trkpt lat="43.60774" lon="3.72511">
        <ele>164.95100032</ele>
        <time>2020-09-20T08:47:30.000Z</time>
      </trkpt>
      <trkpt lat="43.60774" lon="3.72509">
        <ele>165.05100032</ele>
        <time>2020-09-20T08:47:31.000Z</time>
      </trkpt>
      <trkpt lat="43.60773" lon="3.72506">
        <ele>165.15100032</ele>
        <time>2020-09-20T08:47:32.000Z</time>
      </trkpt>
      <trkpt lat="43.60772" lon="3.72503">
        <ele>165.25100032</ele>
        <time>2020-09-20T08:47:33.000Z</time>
      </trkpt>
      <trkpt lat="43.60771" lon="3.725">
        <ele>165.35100032</ele>
        <time>2020-09-20T08:47:34.000Z</time>
      </trkpt>
      <trkpt lat="43.60771" lon="3.72498">
        <ele>165.45100032</ele>
        <time>2020-09-20T08:47:35.000Z</time>
      </trkpt>
      <trkpt lat="43.6077" lon="3.72495">
        <ele>165.55100032</ele>
        <time>2020-09-20T08:47:36.000Z</time>
      </trkpt>
      <trkpt lat="43.6077" lon="3.72493">
        <ele>165.65100032</ele>
        <time>2020-09-20T08:47:37.000Z</time>
      </trkpt>
      <trkpt lat="43.60769" lon="3.7249">
        <ele>165.75100032</ele>
        <time>2020-09-20T08:47:38.000Z</time>
      </trkpt>
      <trkpt lat="43.60768" lon="3.72488">
        <ele>165.85100032</ele>
        <time>2020-09-20T08:47:39.000Z</time>
      </trkpt>
      <trkpt lat="43.60767" lon="3.72484">
        <ele>166.05089849044</ele>
        <time>2020-09-20T08:47:41.000Z</time>
      </trkpt>
      <trkpt lat="43.60766" lon="3.72481">
        <ele>166.1506988259</ele>
        <time>2020-09-20T08:47:42.000Z</time>
      </trkpt>
      <trkpt lat="43.60765" lon="3.72479">
        <ele>166.25049916136</ele>
        <time>2020-09-20T08:47:43.000Z</time>
      </trkpt>
      <trkpt lat="43.60764" lon="3.72476">
        <ele>166.35029949682</ele>
        <time>2020-09-20T08:47:44.000Z</time>
      </trkpt>
      <trkpt lat="43.60764" lon="3.72474">
        <ele>166.45009983227</ele>
        <time>2020-09-20T08:47:45.000Z</time>
      </trkpt>
      <trkpt lat="43.60763" lon="3.72471">
        <ele>166.54990016773</ele>
        <time>2020-09-20T08:47:46.000Z</time>
      </trkpt>
      <trkpt lat="43.60762" lon="3.72469">
        <ele>166.64970050318</ele>
        <time>2020-09-20T08:47:47.000Z</time>
      </trkpt>
      <trkpt lat="43.60761" lon="3.72466">
        <ele>166.74950083864</ele>
        <time>2020-09-20T08:47:48.000Z</time>
      </trkpt>
      <trkpt lat="43.60761" lon="3.72464">
        <ele>166.8493011741</ele>
        <time>2020-09-20T08:47:49.000Z</time>
      </trkpt>
      <trkpt lat="43.60759" lon="3.72459">
        <ele>167</ele>
        <time>2020-09-20T08:47:51.000Z</time>
      </trkpt>
      <trkpt lat="43.60758" lon="3.72457">
        <ele>167</ele>
        <time>2020-09-20T08:47:52.000Z</time>
      </trkpt>
      <trkpt lat="43.60758" lon="3.72454">
        <ele>167</ele>
        <time>2020-09-20T08:47:53.000Z</time>
      </trkpt>
      <trkpt lat="43.60757" lon="3.72452">
        <ele>167</ele>
        <time>2020-09-20T08:47:54.000Z</time>
      </trkpt>
      <trkpt lat="43.60756" lon="3.72449">
        <ele>167</ele>
        <time>2020-09-20T08:47:55.000Z</time>
      </trkpt>
      <trkpt lat="43.60756" lon="3.72447">
        <ele>167</ele>
        <time>2020-09-20T08:47:56.000Z</time>
      </trkpt>
      <trkpt lat="43.60755" lon="3.72444">
        <ele>167</ele>
        <time>2020-09-20T08:47:57.000Z</time>
      </trkpt>
      <trkpt lat="43.60754" lon="3.72442">
        <ele>167</ele>
        <time>2020-09-20T08:47:58.000Z</time>
      </trkpt>
      <trkpt lat="43.60753" lon="3.72439">
        <ele>167</ele>
        <time>2020-09-20T08:47:59.000Z</time>
      </trkpt>
      <trkpt lat="43.60753" lon="3.72437">
        <ele>167</ele>
        <time>2020-09-20T08:48:00.000Z</time>
      </trkpt>
      <trkpt lat="43.60752" lon="3.72434">
        <ele>167.04531283574</ele>
        <time>2020-09-20T08:48:01.000Z</time>
      </trkpt>
      <trkpt lat="43.60751" lon="3.72432">
        <ele>167.25128626286</ele>
        <time>2020-09-20T08:48:02.000Z</time>
      </trkpt>
      <trkpt lat="43.60751" lon="3.72429">
        <ele>167.45725968998</ele>
        <time>2020-09-20T08:48:03.000Z</time>
      </trkpt>
      <trkpt lat="43.6075" lon="3.72426">
        <ele>167.6632331171</ele>
        <time>2020-09-20T08:48:04.000Z</time>
      </trkpt>
      <trkpt lat="43.60749" lon="3.72424">
        <ele>167.86920654422</ele>
        <time>2020-09-20T08:48:05.000Z</time>
      </trkpt>
      <trkpt lat="43.60748" lon="3.72421">
        <ele>168.07517997134</ele>
        <time>2020-09-20T08:48:06.000Z</time>
      </trkpt>
      <trkpt lat="43.60748" lon="3.72419">
        <ele>168.28115339846</ele>
        <time>2020-09-20T08:48:07.000Z</time>
      </trkpt>
      <trkpt lat="43.60746" lon="3.72415">
        <ele>168.6931002527</ele>
        <time>2020-09-20T08:48:09.000Z</time>
      </trkpt>
      <trkpt lat="43.60745" lon="3.7241">
        <ele>169.05100032</ele>
        <time>2020-09-20T08:48:11.000Z</time>
      </trkpt>
      <trkpt lat="43.60744" lon="3.72408">
        <ele>169.15100032</ele>
        <time>2020-09-20T08:48:12.000Z</time>
      </trkpt>
      <trkpt lat="43.60743" lon="3.72406">
        <ele>169.25100032</ele>
        <time>2020-09-20T08:48:13.000Z</time>
      </trkpt>
      <trkpt lat="43.60741" lon="3.72402">
        <ele>169.45100032</ele>
        <time>2020-09-20T08:48:15.000Z</time>
      </trkpt>
      <trkpt lat="43.6074" lon="3.72398">
        <ele>169.65100032</ele>
        <time>2020-09-20T08:48:17.000Z</time>
      </trkpt>
      <trkpt lat="43.60738" lon="3.72394">
        <ele>169.85100032</ele>
        <time>2020-09-20T08:48:19.000Z</time>
      </trkpt>
      <trkpt lat="43.60736" lon="3.72391">
        <ele>170.10109085466</ele>
        <time>2020-09-20T08:48:21.000Z</time>
      </trkpt>
      <trkpt lat="43.60734" lon="3.72387">
        <ele>170.49752309139</ele>
        <time>2020-09-20T08:48:23.000Z</time>
      </trkpt>
      <trkpt lat="43.60732" lon="3.72384">
        <ele>170.89395532811</ele>
        <time>2020-09-20T08:48:25.000Z</time>
      </trkpt>
      <trkpt lat="43.6073" lon="3.7238">
        <ele>171.29038756484</ele>
        <time>2020-09-20T08:48:27.000Z</time>
      </trkpt>
      <trkpt lat="43.60728" lon="3.72376">
        <ele>171.68681980157</ele>
        <time>2020-09-20T08:48:29.000Z</time>
      </trkpt>
      <trkpt lat="43.60727" lon="3.72372">
        <ele>172.04238206502</ele>
        <time>2020-09-20T08:48:31.000Z</time>
      </trkpt>
      <trkpt lat="43.60725" lon="3.72368">
        <ele>172.24419834698</ele>
        <time>2020-09-20T08:48:33.000Z</time>
      </trkpt>
      <trkpt lat="43.60724" lon="3.72364">
        <ele>172.44601462894</ele>
        <time>2020-09-20T08:48:35.000Z</time>
      </trkpt>
      <trkpt lat="43.60723" lon="3.7236">
        <ele>172.64783091089</ele>
        <time>2020-09-20T08:48:37.000Z</time>
      </trkpt>
      <trkpt lat="43.6072" lon="3.72358">
        <ele>172.84964719285</ele>
        <time>2020-09-20T08:48:39.000Z</time>
      </trkpt>
      <trkpt lat="43.60718" lon="3.72355">
        <ele>173.15300096</ele>
        <time>2020-09-20T08:48:41.000Z</time>
      </trkpt>
      <trkpt lat="43.60717" lon="3.72352">
        <ele>173.75300096</ele>
        <time>2020-09-20T08:48:43.000Z</time>
      </trkpt>
      <trkpt lat="43.60714" lon="3.72352">
        <ele>174.35300096</ele>
        <time>2020-09-20T08:48:45.000Z</time>
      </trkpt>
      <trkpt lat="43.60712" lon="3.72349">
        <ele>174.95300096</ele>
        <time>2020-09-20T08:48:47.000Z</time>
      </trkpt>
      <trkpt lat="43.6071" lon="3.72347">
        <ele>175.55300096</ele>
        <time>2020-09-20T08:48:49.000Z</time>
      </trkpt>
      <trkpt lat="43.60708" lon="3.72345">
        <ele>176.10200064</ele>
        <time>2020-09-20T08:48:51.000Z</time>
      </trkpt>
      <trkpt lat="43.60707" lon="3.7234">
        <ele>176.50200064</ele>
        <time>2020-09-20T08:48:53.000Z</time>
      </trkpt>
      <trkpt lat="43.60706" lon="3.72335">
        <ele>176.90200064</ele>
        <time>2020-09-20T08:48:55.000Z</time>
      </trkpt>
      <trkpt lat="43.60705" lon="3.72333">
        <ele>177.10200064</ele>
        <time>2020-09-20T08:48:56.000Z</time>
      </trkpt>
      <trkpt lat="43.60705" lon="3.72331">
        <ele>177.30200064</ele>
        <time>2020-09-20T08:48:57.000Z</time>
      </trkpt>
      <trkpt lat="43.60703" lon="3.72329">
        <ele>177.50200064</ele>
        <time>2020-09-20T08:48:58.000Z</time>
      </trkpt>
      <trkpt lat="43.60702" lon="3.72326">
        <ele>177.70200064</ele>
        <time>2020-09-20T08:48:59.000Z</time>
      </trkpt>
      <trkpt lat="43.60701" lon="3.72324">
        <ele>177.90200064</ele>
        <time>2020-09-20T08:49:00.000Z</time>
      </trkpt>
      <trkpt lat="43.607" lon="3.72322">
        <ele>178.05100032</ele>
        <time>2020-09-20T08:49:01.000Z</time>
      </trkpt>
      <trkpt lat="43.60699" lon="3.7232">
        <ele>178.15100032</ele>
        <time>2020-09-20T08:49:02.000Z</time>
      </trkpt>
      <trkpt lat="43.60698" lon="3.72317">
        <ele>178.25100032</ele>
        <time>2020-09-20T08:49:03.000Z</time>
      </trkpt>
      <trkpt lat="43.60696" lon="3.72315">
        <ele>178.45100032</ele>
        <time>2020-09-20T08:49:05.000Z</time>
      </trkpt>
      <trkpt lat="43.60694" lon="3.72312">
        <ele>178.65100032</ele>
        <time>2020-09-20T08:49:07.000Z</time>
      </trkpt>
      <trkpt lat="43.60693" lon="3.72309">
        <ele>178.75100032</ele>
        <time>2020-09-20T08:49:08.000Z</time>
      </trkpt>
      <trkpt lat="43.60694" lon="3.72305">
        <ele>178.85100032</ele>
        <time>2020-09-20T08:49:09.000Z</time>
      </trkpt>
      <trkpt lat="43.60694" lon="3.72303">
        <ele>178.95100032</ele>
        <time>2020-09-20T08:49:10.000Z</time>
      </trkpt>
      <trkpt lat="43.60694" lon="3.72301">
        <ele>180</ele>
        <time>2020-09-20T08:49:17.000Z</time>
      </trkpt>
      <trkpt lat="43.60698" lon="3.72294">
        <ele>180</ele>
        <time>2020-09-20T08:50:50.000Z</time>
      </trkpt>
      <trkpt lat="43.60699" lon="3.72292">
        <ele>180</ele>
        <time>2020-09-20T08:50:51.000Z</time>
      </trkpt>
      <trkpt lat="43.60701" lon="3.72289">
        <ele>180</ele>
        <time>2020-09-20T08:50:53.000Z</time>
      </trkpt>
      <trkpt lat="43.60702" lon="3.72286">
        <ele>180</ele>
        <time>2020-09-20T08:50:55.000Z</time>
      </trkpt>
      <trkpt lat="43.60704" lon="3.72285">
        <ele>180</ele>
        <time>2020-09-20T08:50:57.000Z</time>
      </trkpt>
      <trkpt lat="43.60707" lon="3.72283">
        <ele>180</ele>
        <time>2020-09-20T08:50:59.000Z</time>
      </trkpt>
      <trkpt lat="43.60706" lon="3.7228">
        <ele>180</ele>
        <time>2020-09-20T08:51:02.000Z</time>
      </trkpt>
      <trkpt lat="43.60704" lon="3.72283">
        <ele>180</ele>
        <time>2020-09-20T08:51:06.000Z</time>
      </trkpt>
      <trkpt lat="43.60704" lon="3.72287">
        <ele>180</ele>
        <time>2020-09-20T08:51:08.000Z</time>
      </trkpt>
      <trkpt lat="43.60703" lon="3.72291">
        <ele>180</ele>
        <time>2020-09-20T08:51:10.000Z</time>
      </trkpt>
      <trkpt lat="43.60701" lon="3.72294">
        <ele>180</ele>
        <time>2020-09-20T08:51:12.000Z</time>
      </trkpt>
      <trkpt lat="43.60699" lon="3.72296">
        <ele>180</ele>
        <time>2020-09-20T08:51:13.000Z</time>
      </trkpt>
      <trkpt lat="43.60697" lon="3.72297">
        <ele>180</ele>
        <time>2020-09-20T08:51:14.000Z</time>
      </trkpt>
      <trkpt lat="43.60694" lon="3.72296">
        <ele>180</ele>
        <time>2020-09-20T08:51:16.000Z</time>
      </trkpt>
      <trkpt lat="43.60693" lon="3.72294">
        <ele>180</ele>
        <time>2020-09-20T08:51:17.000Z</time>
      </trkpt>
      <trkpt lat="43.60691" lon="3.7229">
        <ele>180</ele>
        <time>2020-09-20T08:51:19.000Z</time>
      </trkpt>
      <trkpt lat="43.6069" lon="3.72287">
        <ele>179.84899968</ele>
        <time>2020-09-20T08:51:21.000Z</time>
      </trkpt>
      <trkpt lat="43.60688" lon="3.72283">
        <ele>179.64899968</ele>
        <time>2020-09-20T08:51:23.000Z</time>
      </trkpt>
      <trkpt lat="43.60687" lon="3.72281">
        <ele>179.44899968</ele>
        <time>2020-09-20T08:51:25.000Z</time>
      </trkpt>
      <trkpt lat="43.60685" lon="3.72279">
        <ele>179.24899968</ele>
        <time>2020-09-20T08:51:27.000Z</time>
      </trkpt>
      <trkpt lat="43.60683" lon="3.72277">
        <ele>179</ele>
        <time>2020-09-20T08:51:30.000Z</time>
      </trkpt>
      <trkpt lat="43.60682" lon="3.72273">
        <ele>179</ele>
        <time>2020-09-20T08:51:32.000Z</time>
      </trkpt>
      <trkpt lat="43.60683" lon="3.7227">
        <ele>179</ele>
        <time>2020-09-20T08:51:33.000Z</time>
      </trkpt>
      <trkpt lat="43.60683" lon="3.72266">
        <ele>179</ele>
        <time>2020-09-20T08:51:34.000Z</time>
      </trkpt>
      <trkpt lat="43.60684" lon="3.72263">
        <ele>179</ele>
        <time>2020-09-20T08:51:35.000Z</time>
      </trkpt>
      <trkpt lat="43.60685" lon="3.72259">
        <ele>179</ele>
        <time>2020-09-20T08:51:36.000Z</time>
      </trkpt>
      <trkpt lat="43.60685" lon="3.72255">
        <ele>179</ele>
        <time>2020-09-20T08:51:37.000Z</time>
      </trkpt>
      <trkpt lat="43.60686" lon="3.7225">
        <ele>179</ele>
        <time>2020-09-20T08:51:38.000Z</time>
      </trkpt>
      <trkpt lat="43.60686" lon="3.72245">
        <ele>179</ele>
        <time>2020-09-20T08:51:39.000Z</time>
      </trkpt>
      <trkpt lat="43.60687" lon="3.7224">
        <ele>178.94899968</ele>
        <time>2020-09-20T08:51:40.000Z</time>
      </trkpt>
      <trkpt lat="43.60687" lon="3.72234">
        <ele>178.84899968</ele>
        <time>2020-09-20T08:51:41.000Z</time>
      </trkpt>
      <trkpt lat="43.60687" lon="3.72229">
        <ele>178.74899968</ele>
        <time>2020-09-20T08:51:42.000Z</time>
      </trkpt>
      <trkpt lat="43.60687" lon="3.72224">
        <ele>178.64899968</ele>
        <time>2020-09-20T08:51:43.000Z</time>
      </trkpt>
      <trkpt lat="43.60686" lon="3.7222">
        <ele>178.54899968</ele>
        <time>2020-09-20T08:51:44.000Z</time>
      </trkpt>
      <trkpt lat="43.60685" lon="3.72216">
        <ele>178.44899968</ele>
        <time>2020-09-20T08:51:45.000Z</time>
      </trkpt>
      <trkpt lat="43.60684" lon="3.72212">
        <ele>178.34899968</ele>
        <time>2020-09-20T08:51:46.000Z</time>
      </trkpt>
      <trkpt lat="43.60683" lon="3.72208">
        <ele>178.24899968</ele>
        <time>2020-09-20T08:51:47.000Z</time>
      </trkpt>
      <trkpt lat="43.6068" lon="3.72204">
        <ele>178.14899968</ele>
        <time>2020-09-20T08:51:48.000Z</time>
      </trkpt>
      <trkpt lat="43.60676" lon="3.72199">
        <ele>178.04899968</ele>
        <time>2020-09-20T08:51:49.000Z</time>
      </trkpt>
      <trkpt lat="43.60674" lon="3.72192">
        <ele>178</ele>
        <time>2020-09-20T08:51:50.000Z</time>
      </trkpt>
      <trkpt lat="43.60672" lon="3.72185">
        <ele>178</ele>
        <time>2020-09-20T08:51:51.000Z</time>
      </trkpt>
      <trkpt lat="43.6067" lon="3.72178">
        <ele>178</ele>
        <time>2020-09-20T08:51:52.000Z</time>
      </trkpt>
      <trkpt lat="43.60668" lon="3.72172">
        <ele>178</ele>
        <time>2020-09-20T08:51:53.000Z</time>
      </trkpt>
      <trkpt lat="43.60666" lon="3.72166">
        <ele>178</ele>
        <time>2020-09-20T08:51:54.000Z</time>
      </trkpt>
      <trkpt lat="43.60665" lon="3.72159">
        <ele>178</ele>
        <time>2020-09-20T08:51:55.000Z</time>
      </trkpt>
      <trkpt lat="43.60664" lon="3.72153">
        <ele>178</ele>
        <time>2020-09-20T08:51:56.000Z</time>
      </trkpt>
      <trkpt lat="43.60662" lon="3.72147">
        <ele>178</ele>
        <time>2020-09-20T08:51:57.000Z</time>
      </trkpt>
      <trkpt lat="43.6066" lon="3.72141">
        <ele>178</ele>
        <time>2020-09-20T08:51:58.000Z</time>
      </trkpt>
      <trkpt lat="43.60656" lon="3.72134">
        <ele>178</ele>
        <time>2020-09-20T08:51:59.000Z</time>
      </trkpt>
      <trkpt lat="43.60653" lon="3.72129">
        <ele>178</ele>
        <time>2020-09-20T08:52:00.000Z</time>
      </trkpt>
      <trkpt lat="43.60649" lon="3.72124">
        <ele>178</ele>
        <time>2020-09-20T08:52:01.000Z</time>
      </trkpt>
      <trkpt lat="43.60645" lon="3.7212">
        <ele>178</ele>
        <time>2020-09-20T08:52:02.000Z</time>
      </trkpt>
      <trkpt lat="43.60642" lon="3.72118">
        <ele>178</ele>
        <time>2020-09-20T08:52:03.000Z</time>
      </trkpt>
      <trkpt lat="43.60638" lon="3.72116">
        <ele>178</ele>
        <time>2020-09-20T08:52:04.000Z</time>
      </trkpt>
      <trkpt lat="43.60634" lon="3.72115">
        <ele>178</ele>
        <time>2020-09-20T08:52:05.000Z</time>
      </trkpt>
      <trkpt lat="43.60629" lon="3.72112">
        <ele>178</ele>
        <time>2020-09-20T08:52:06.000Z</time>
      </trkpt>
      <trkpt lat="43.60625" lon="3.7211">
        <ele>178</ele>
        <time>2020-09-20T08:52:07.000Z</time>
      </trkpt>
      <trkpt lat="43.6062" lon="3.72106">
        <ele>178</ele>
        <time>2020-09-20T08:52:08.000Z</time>
      </trkpt>
      <trkpt lat="43.60615" lon="3.72102">
        <ele>178</ele>
        <time>2020-09-20T08:52:09.000Z</time>
      </trkpt>
      <trkpt lat="43.60611" lon="3.72098">
        <ele>178</ele>
        <time>2020-09-20T08:52:10.000Z</time>
      </trkpt>
      <trkpt lat="43.60608" lon="3.72093">
        <ele>178</ele>
        <time>2020-09-20T08:52:11.000Z</time>
      </trkpt>
      <trkpt lat="43.60605" lon="3.72089">
        <ele>178</ele>
        <time>2020-09-20T08:52:12.000Z</time>
      </trkpt>
      <trkpt lat="43.60602" lon="3.72084">
        <ele>178</ele>
        <time>2020-09-20T08:52:13.000Z</time>
      </trkpt>
      <trkpt lat="43.60599" lon="3.7208">
        <ele>178</ele>
        <time>2020-09-20T08:52:14.000Z</time>
      </trkpt>
      <trkpt lat="43.60596" lon="3.72075">
        <ele>178</ele>
        <time>2020-09-20T08:52:15.000Z</time>
      </trkpt>
      <trkpt lat="43.60593" lon="3.72071">
        <ele>178</ele>
        <time>2020-09-20T08:52:16.000Z</time>
      </trkpt>
      <trkpt lat="43.6059" lon="3.72067">
        <ele>178</ele>
        <time>2020-09-20T08:52:17.000Z</time>
      </trkpt>
      <trkpt lat="43.60581" lon="3.72053">
        <ele>177.94905067823</ele>
        <time>2020-09-20T08:52:20.000Z</time>
      </trkpt>
      <trkpt lat="43.60575" lon="3.72042">
        <ele>177.74925067005</ele>
        <time>2020-09-20T08:52:22.000Z</time>
      </trkpt>
      <trkpt lat="43.60566" lon="3.7203">
        <ele>177.54945066187</ele>
        <time>2020-09-20T08:52:24.000Z</time>
      </trkpt>
      <trkpt lat="43.60557" lon="3.72021">
        <ele>177.34965065368</ele>
        <time>2020-09-20T08:52:26.000Z</time>
      </trkpt>
      <trkpt lat="43.6055" lon="3.7201">
        <ele>177.1498506455</ele>
        <time>2020-09-20T08:52:28.000Z</time>
      </trkpt>
      <trkpt lat="43.60543" lon="3.72001">
        <ele>177</ele>
        <time>2020-09-20T08:52:30.000Z</time>
      </trkpt>
      <trkpt lat="43.60534" lon="3.71992">
        <ele>177</ele>
        <time>2020-09-20T08:52:33.000Z</time>
      </trkpt>
      <trkpt lat="43.60524" lon="3.71993">
        <ele>177</ele>
        <time>2020-09-20T08:52:36.000Z</time>
      </trkpt>
      <trkpt lat="43.60519" lon="3.72004">
        <ele>176.69799936</ele>
        <time>2020-09-20T08:52:41.000Z</time>
      </trkpt>
      <trkpt lat="43.60524" lon="3.72015">
        <ele>176.09799936</ele>
        <time>2020-09-20T08:52:44.000Z</time>
      </trkpt>
      <trkpt lat="43.60528" lon="3.72029">
        <ele>175.49799936</ele>
        <time>2020-09-20T08:52:47.000Z</time>
      </trkpt>
      <trkpt lat="43.60527" lon="3.72042">
        <ele>175.09799936</ele>
        <time>2020-09-20T08:52:49.000Z</time>
      </trkpt>
      <trkpt lat="43.60527" lon="3.72048">
        <ele>174.89799936</ele>
        <time>2020-09-20T08:52:50.000Z</time>
      </trkpt>
      <trkpt lat="43.60529" lon="3.72064">
        <ele>174.29799936</ele>
        <time>2020-09-20T08:52:53.000Z</time>
      </trkpt>
      <trkpt lat="43.60532" lon="3.72069">
        <ele>174.09799936</ele>
        <time>2020-09-20T08:52:54.000Z</time>
      </trkpt>
      <trkpt lat="43.60534" lon="3.72074">
        <ele>173.89799936</ele>
        <time>2020-09-20T08:52:55.000Z</time>
      </trkpt>
      <trkpt lat="43.60543" lon="3.72085">
        <ele>173.29799936</ele>
        <time>2020-09-20T08:52:58.000Z</time>
      </trkpt>
      <trkpt lat="43.60546" lon="3.72089">
        <ele>173.09799936</ele>
        <time>2020-09-20T08:52:59.000Z</time>
      </trkpt>
      <trkpt lat="43.60548" lon="3.72094">
        <ele>172.89799936</ele>
        <time>2020-09-20T08:53:00.000Z</time>
      </trkpt>
      <trkpt lat="43.6055" lon="3.72099">
        <ele>172.69799936</ele>
        <time>2020-09-20T08:53:01.000Z</time>
      </trkpt>
      <trkpt lat="43.60553" lon="3.72105">
        <ele>172.49799936</ele>
        <time>2020-09-20T08:53:02.000Z</time>
      </trkpt>
      <trkpt lat="43.60556" lon="3.7211">
        <ele>172.29799936</ele>
        <time>2020-09-20T08:53:03.000Z</time>
      </trkpt>
      <trkpt lat="43.60559" lon="3.72116">
        <ele>172.09799936</ele>
        <time>2020-09-20T08:53:04.000Z</time>
      </trkpt>
      <trkpt lat="43.60562" lon="3.72122">
        <ele>171.89799936</ele>
        <time>2020-09-20T08:53:05.000Z</time>
      </trkpt>
      <trkpt lat="43.60564" lon="3.72128">
        <ele>171.69799936</ele>
        <time>2020-09-20T08:53:06.000Z</time>
      </trkpt>
      <trkpt lat="43.60565" lon="3.72134">
        <ele>171.49799936</ele>
        <time>2020-09-20T08:53:07.000Z</time>
      </trkpt>
      <trkpt lat="43.60566" lon="3.72141">
        <ele>171.29799936</ele>
        <time>2020-09-20T08:53:08.000Z</time>
      </trkpt>
      <trkpt lat="43.60567" lon="3.72147">
        <ele>171.09799936</ele>
        <time>2020-09-20T08:53:09.000Z</time>
      </trkpt>
      <trkpt lat="43.60568" lon="3.72152">
        <ele>170.94899968</ele>
        <time>2020-09-20T08:53:10.000Z</time>
      </trkpt>
      <trkpt lat="43.60569" lon="3.72158">
        <ele>170.84899968</ele>
        <time>2020-09-20T08:53:11.000Z</time>
      </trkpt>
      <trkpt lat="43.60569" lon="3.72165">
        <ele>170.74899968</ele>
        <time>2020-09-20T08:53:12.000Z</time>
      </trkpt>
      <trkpt lat="43.60568" lon="3.72171">
        <ele>170.64899968</ele>
        <time>2020-09-20T08:53:13.000Z</time>
      </trkpt>
      <trkpt lat="43.60565" lon="3.72175">
        <ele>170.54899968</ele>
        <time>2020-09-20T08:53:14.000Z</time>
      </trkpt>
      <trkpt lat="43.60564" lon="3.72178">
        <ele>170.44899968</ele>
        <time>2020-09-20T08:53:15.000Z</time>
      </trkpt>
      <trkpt lat="43.60562" lon="3.72184">
        <ele>170.34899968</ele>
        <time>2020-09-20T08:53:16.000Z</time>
      </trkpt>
      <trkpt lat="43.60562" lon="3.72189">
        <ele>170.24899968</ele>
        <time>2020-09-20T08:53:17.000Z</time>
      </trkpt>
      <trkpt lat="43.60561" lon="3.72196">
        <ele>170.14899968</ele>
        <time>2020-09-20T08:53:18.000Z</time>
      </trkpt>
      <trkpt lat="43.6056" lon="3.72203">
        <ele>170.04899968</ele>
        <time>2020-09-20T08:53:19.000Z</time>
      </trkpt>
      <trkpt lat="43.60558" lon="3.72211">
        <ele>169.90077758755</ele>
        <time>2020-09-20T08:53:20.000Z</time>
      </trkpt>
      <trkpt lat="43.60557" lon="3.72218">
        <ele>169.70622505837</ele>
        <time>2020-09-20T08:53:21.000Z</time>
      </trkpt>
      <trkpt lat="43.60555" lon="3.72226">
        <ele>169.51167252918</ele>
        <time>2020-09-20T08:53:22.000Z</time>
      </trkpt>
      <trkpt lat="43.60553" lon="3.72232">
        <ele>169.31712</ele>
        <time>2020-09-20T08:53:23.000Z</time>
      </trkpt>
      <trkpt lat="43.6055" lon="3.72238">
        <ele>169.12256747082</ele>
        <time>2020-09-20T08:53:24.000Z</time>
      </trkpt>
      <trkpt lat="43.60548" lon="3.72244">
        <ele>168.92801494163</ele>
        <time>2020-09-20T08:53:25.000Z</time>
      </trkpt>
      <trkpt lat="43.60546" lon="3.72251">
        <ele>168.73346241245</ele>
        <time>2020-09-20T08:53:26.000Z</time>
      </trkpt>
      <trkpt lat="43.60542" lon="3.72258">
        <ele>168.53890988327</ele>
        <time>2020-09-20T08:53:27.000Z</time>
      </trkpt>
      <trkpt lat="43.6054" lon="3.72265">
        <ele>168.34435735409</ele>
        <time>2020-09-20T08:53:28.000Z</time>
      </trkpt>
      <trkpt lat="43.60537" lon="3.72272">
        <ele>168.1498048249</ele>
        <time>2020-09-20T08:53:29.000Z</time>
      </trkpt>
      <trkpt lat="43.60533" lon="3.72279">
        <ele>167.95267423868</ele>
        <time>2020-09-20T08:53:30.000Z</time>
      </trkpt>
      <trkpt lat="43.6053" lon="3.72286">
        <ele>167.74691292181</ele>
        <time>2020-09-20T08:53:31.000Z</time>
      </trkpt>
      <trkpt lat="43.60526" lon="3.72293">
        <ele>167.54115160494</ele>
        <time>2020-09-20T08:53:32.000Z</time>
      </trkpt>
      <trkpt lat="43.60522" lon="3.72299">
        <ele>167.33539028807</ele>
        <time>2020-09-20T08:53:33.000Z</time>
      </trkpt>
      <trkpt lat="43.60519" lon="3.72306">
        <ele>167.12962897119</ele>
        <time>2020-09-20T08:53:34.000Z</time>
      </trkpt>
      <trkpt lat="43.60515" lon="3.72312">
        <ele>166.92386765432</ele>
        <time>2020-09-20T08:53:35.000Z</time>
      </trkpt>
      <trkpt lat="43.60511" lon="3.72317">
        <ele>166.71810633745</ele>
        <time>2020-09-20T08:53:36.000Z</time>
      </trkpt>
      <trkpt lat="43.60507" lon="3.72322">
        <ele>166.51234502058</ele>
        <time>2020-09-20T08:53:37.000Z</time>
      </trkpt>
      <trkpt lat="43.60504" lon="3.72329">
        <ele>166.3065837037</ele>
        <time>2020-09-20T08:53:38.000Z</time>
      </trkpt>
      <trkpt lat="43.60501" lon="3.72336">
        <ele>166.10082238683</ele>
        <time>2020-09-20T08:53:39.000Z</time>
      </trkpt>
      <trkpt lat="43.60498" lon="3.72343">
        <ele>165.95053316763</ele>
        <time>2020-09-20T08:53:40.000Z</time>
      </trkpt>
      <trkpt lat="43.60496" lon="3.7235">
        <ele>165.85353998726</ele>
        <time>2020-09-20T08:53:41.000Z</time>
      </trkpt>
      <trkpt lat="43.60493" lon="3.72357">
        <ele>165.75654680689</ele>
        <time>2020-09-20T08:53:42.000Z</time>
      </trkpt>
      <trkpt lat="43.60491" lon="3.72363">
        <ele>165.65955362652</ele>
        <time>2020-09-20T08:53:43.000Z</time>
      </trkpt>
      <trkpt lat="43.60488" lon="3.7237">
        <ele>165.56256044615</ele>
        <time>2020-09-20T08:53:44.000Z</time>
      </trkpt>
      <trkpt lat="43.60484" lon="3.72376">
        <ele>165.46556726578</ele>
        <time>2020-09-20T08:53:45.000Z</time>
      </trkpt>
      <trkpt lat="43.60481" lon="3.72382">
        <ele>165.36857408541</ele>
        <time>2020-09-20T08:53:46.000Z</time>
      </trkpt>
      <trkpt lat="43.60478" lon="3.72389">
        <ele>165.27158090504</ele>
        <time>2020-09-20T08:53:47.000Z</time>
      </trkpt>
      <trkpt lat="43.60474" lon="3.72395">
        <ele>165.17458772467</ele>
        <time>2020-09-20T08:53:48.000Z</time>
      </trkpt>
      <trkpt lat="43.60471" lon="3.72402">
        <ele>165.0775945443</ele>
        <time>2020-09-20T08:53:49.000Z</time>
      </trkpt>
      <trkpt lat="43.60467" lon="3.72408">
        <ele>164.94076997142</ele>
        <time>2020-09-20T08:53:50.000Z</time>
      </trkpt>
      <trkpt lat="43.60463" lon="3.72414">
        <ele>164.64461982851</ele>
        <time>2020-09-20T08:53:51.000Z</time>
      </trkpt>
      <trkpt lat="43.60461" lon="3.72419">
        <ele>164.3484696856</ele>
        <time>2020-09-20T08:53:52.000Z</time>
      </trkpt>
      <trkpt lat="43.6046" lon="3.72425">
        <ele>164.05231954269</ele>
        <time>2020-09-20T08:53:53.000Z</time>
      </trkpt>
      <trkpt lat="43.60458" lon="3.72432">
        <ele>163.75616939978</ele>
        <time>2020-09-20T08:53:54.000Z</time>
      </trkpt>
      <trkpt lat="43.60457" lon="3.72439">
        <ele>163.46001925687</ele>
        <time>2020-09-20T08:53:55.000Z</time>
      </trkpt>
      <trkpt lat="43.60454" lon="3.72444">
        <ele>163.16386911396</ele>
        <time>2020-09-20T08:53:56.000Z</time>
      </trkpt>
      <trkpt lat="43.60451" lon="3.72448">
        <ele>162.86771897105</ele>
        <time>2020-09-20T08:53:57.000Z</time>
      </trkpt>
      <trkpt lat="43.60447" lon="3.72451">
        <ele>162.57156882814</ele>
        <time>2020-09-20T08:53:58.000Z</time>
      </trkpt>
      <trkpt lat="43.60444" lon="3.72456">
        <ele>162.27541868523</ele>
        <time>2020-09-20T08:53:59.000Z</time>
      </trkpt>
      <trkpt lat="43.6044" lon="3.72461">
        <ele>162</ele>
        <time>2020-09-20T08:54:00.000Z</time>
      </trkpt>
      <trkpt lat="43.60435" lon="3.72466">
        <ele>162</ele>
        <time>2020-09-20T08:54:01.000Z</time>
      </trkpt>
      <trkpt lat="43.6043" lon="3.72471">
        <ele>162</ele>
        <time>2020-09-20T08:54:02.000Z</time>
      </trkpt>
      <trkpt lat="43.60426" lon="3.72475">
        <ele>162</ele>
        <time>2020-09-20T08:54:03.000Z</time>
      </trkpt>
      <trkpt lat="43.60421" lon="3.72478">
        <ele>162</ele>
        <time>2020-09-20T08:54:04.000Z</time>
      </trkpt>
      <trkpt lat="43.60416" lon="3.7248">
        <ele>162</ele>
        <time>2020-09-20T08:54:05.000Z</time>
      </trkpt>
      <trkpt lat="43.60411" lon="3.72483">
        <ele>162</ele>
        <time>2020-09-20T08:54:06.000Z</time>
      </trkpt>
      <trkpt lat="43.60405" lon="3.72486">
        <ele>162</ele>
        <time>2020-09-20T08:54:07.000Z</time>
      </trkpt>
      <trkpt lat="43.604" lon="3.72489">
        <ele>162</ele>
        <time>2020-09-20T08:54:08.000Z</time>
      </trkpt>
      <trkpt lat="43.60394" lon="3.72492">
        <ele>162</ele>
        <time>2020-09-20T08:54:09.000Z</time>
      </trkpt>
      <trkpt lat="43.60389" lon="3.72495">
        <ele>161.95043699139</ele>
        <time>2020-09-20T08:54:10.000Z</time>
      </trkpt>
      <trkpt lat="43.60384" lon="3.72497">
        <ele>161.85325523133</ele>
        <time>2020-09-20T08:54:11.000Z</time>
      </trkpt>
      <trkpt lat="43.60379" lon="3.725">
        <ele>161.75607347128</ele>
        <time>2020-09-20T08:54:12.000Z</time>
      </trkpt>
      <trkpt lat="43.60375" lon="3.72503">
        <ele>161.65889171122</ele>
        <time>2020-09-20T08:54:13.000Z</time>
      </trkpt>
      <trkpt lat="43.6037" lon="3.72506">
        <ele>161.56170995116</ele>
        <time>2020-09-20T08:54:14.000Z</time>
      </trkpt>
      <trkpt lat="43.60365" lon="3.72509">
        <ele>161.46452819111</ele>
        <time>2020-09-20T08:54:15.000Z</time>
      </trkpt>
      <trkpt lat="43.6036" lon="3.72512">
        <ele>161.36734643105</ele>
        <time>2020-09-20T08:54:16.000Z</time>
      </trkpt>
      <trkpt lat="43.60356" lon="3.72515">
        <ele>161.27016467099</ele>
        <time>2020-09-20T08:54:17.000Z</time>
      </trkpt>
      <trkpt lat="43.60351" lon="3.72518">
        <ele>161.17298291094</ele>
        <time>2020-09-20T08:54:18.000Z</time>
      </trkpt>
      <trkpt lat="43.60346" lon="3.72521">
        <ele>161.07580115088</ele>
        <time>2020-09-20T08:54:19.000Z</time>
      </trkpt>
      <trkpt lat="43.60341" lon="3.72524">
        <ele>160.93202688131</ele>
        <time>2020-09-20T08:54:20.000Z</time>
      </trkpt>
      <trkpt lat="43.60336" lon="3.72527">
        <ele>160.62306714791</ele>
        <time>2020-09-20T08:54:21.000Z</time>
      </trkpt>
      <trkpt lat="43.60332" lon="3.7253">
        <ele>160.31410741451</ele>
        <time>2020-09-20T08:54:22.000Z</time>
      </trkpt>
      <trkpt lat="43.60327" lon="3.72534">
        <ele>160.00514768111</ele>
        <time>2020-09-20T08:54:23.000Z</time>
      </trkpt>
      <trkpt lat="43.60323" lon="3.72537">
        <ele>159.6961879477</ele>
        <time>2020-09-20T08:54:24.000Z</time>
      </trkpt>
      <trkpt lat="43.60319" lon="3.7254">
        <ele>159.3872282143</ele>
        <time>2020-09-20T08:54:25.000Z</time>
      </trkpt>
      <trkpt lat="43.60315" lon="3.72543">
        <ele>159.0782684809</ele>
        <time>2020-09-20T08:54:26.000Z</time>
      </trkpt>
      <trkpt lat="43.60311" lon="3.72546">
        <ele>158.7693087475</ele>
        <time>2020-09-20T08:54:27.000Z</time>
      </trkpt>
      <trkpt lat="43.60306" lon="3.7255">
        <ele>158.4603490141</ele>
        <time>2020-09-20T08:54:28.000Z</time>
      </trkpt>
      <trkpt lat="43.60301" lon="3.72554">
        <ele>158.1513892807</ele>
        <time>2020-09-20T08:54:29.000Z</time>
      </trkpt>
      <trkpt lat="43.60296" lon="3.72557">
        <ele>157.79599872</ele>
        <time>2020-09-20T08:54:30.000Z</time>
      </trkpt>
      <trkpt lat="43.60291" lon="3.7256">
        <ele>157.39599872</ele>
        <time>2020-09-20T08:54:31.000Z</time>
      </trkpt>
      <trkpt lat="43.60285" lon="3.72563">
        <ele>156.99599872</ele>
        <time>2020-09-20T08:54:32.000Z</time>
      </trkpt>
      <trkpt lat="43.60279" lon="3.72565">
        <ele>156.59599872</ele>
        <time>2020-09-20T08:54:33.000Z</time>
      </trkpt>
      <trkpt lat="43.60273" lon="3.72568">
        <ele>156.19599872</ele>
        <time>2020-09-20T08:54:34.000Z</time>
      </trkpt>
      <trkpt lat="43.60268" lon="3.72573">
        <ele>155.79599872</ele>
        <time>2020-09-20T08:54:35.000Z</time>
      </trkpt>
      <trkpt lat="43.60263" lon="3.72577">
        <ele>155.39599872</ele>
        <time>2020-09-20T08:54:36.000Z</time>
      </trkpt>
      <trkpt lat="43.60257" lon="3.72582">
        <ele>154.99599872</ele>
        <time>2020-09-20T08:54:37.000Z</time>
      </trkpt>
      <trkpt lat="43.60252" lon="3.72586">
        <ele>154.59599872</ele>
        <time>2020-09-20T08:54:38.000Z</time>
      </trkpt>
      <trkpt lat="43.60247" lon="3.7259">
        <ele>154.19599872</ele>
        <time>2020-09-20T08:54:39.000Z</time>
      </trkpt>
      <trkpt lat="43.60241" lon="3.72594">
        <ele>153.79599872</ele>
        <time>2020-09-20T08:54:40.000Z</time>
      </trkpt>
      <trkpt lat="43.60236" lon="3.72598">
        <ele>153.39599872</ele>
        <time>2020-09-20T08:54:41.000Z</time>
      </trkpt>
      <trkpt lat="43.60231" lon="3.72603">
        <ele>152.99599872</ele>
        <time>2020-09-20T08:54:42.000Z</time>
      </trkpt>
      <trkpt lat="43.60225" lon="3.72607">
        <ele>152.59599872</ele>
        <time>2020-09-20T08:54:43.000Z</time>
      </trkpt>
      <trkpt lat="43.6022" lon="3.72611">
        <ele>152.19599872</ele>
        <time>2020-09-20T08:54:44.000Z</time>
      </trkpt>
      <trkpt lat="43.60214" lon="3.72615">
        <ele>151.79599872</ele>
        <time>2020-09-20T08:54:45.000Z</time>
      </trkpt>
      <trkpt lat="43.60209" lon="3.7262">
        <ele>151.39599872</ele>
        <time>2020-09-20T08:54:46.000Z</time>
      </trkpt>
      <trkpt lat="43.60205" lon="3.72626">
        <ele>150.99599872</ele>
        <time>2020-09-20T08:54:47.000Z</time>
      </trkpt>
      <trkpt lat="43.60199" lon="3.72631">
        <ele>150.59599872</ele>
        <time>2020-09-20T08:54:48.000Z</time>
      </trkpt>
      <trkpt lat="43.60194" lon="3.72635">
        <ele>150.19599872</ele>
        <time>2020-09-20T08:54:49.000Z</time>
      </trkpt>
      <trkpt lat="43.60189" lon="3.7264">
        <ele>149.84699904</ele>
        <time>2020-09-20T08:54:50.000Z</time>
      </trkpt>
      <trkpt lat="43.60184" lon="3.72644">
        <ele>149.54699904</ele>
        <time>2020-09-20T08:54:51.000Z</time>
      </trkpt>
      <trkpt lat="43.6018" lon="3.72649">
        <ele>149.24699904</ele>
        <time>2020-09-20T08:54:52.000Z</time>
      </trkpt>
      <trkpt lat="43.60175" lon="3.72653">
        <ele>148.94699904</ele>
        <time>2020-09-20T08:54:53.000Z</time>
      </trkpt>
      <trkpt lat="43.60171" lon="3.72658">
        <ele>148.64699904</ele>
        <time>2020-09-20T08:54:54.000Z</time>
      </trkpt>
      <trkpt lat="43.60166" lon="3.72663">
        <ele>148.34699904</ele>
        <time>2020-09-20T08:54:55.000Z</time>
      </trkpt>
      <trkpt lat="43.60162" lon="3.72668">
        <ele>148.04699904</ele>
        <time>2020-09-20T08:54:56.000Z</time>
      </trkpt>
      <trkpt lat="43.60158" lon="3.72672">
        <ele>147.74699904</ele>
        <time>2020-09-20T08:54:57.000Z</time>
      </trkpt>
      <trkpt lat="43.60154" lon="3.72677">
        <ele>147.44699904</ele>
        <time>2020-09-20T08:54:58.000Z</time>
      </trkpt>
      <trkpt lat="43.60151" lon="3.72682">
        <ele>147.14699904</ele>
        <time>2020-09-20T08:54:59.000Z</time>
      </trkpt>
      <trkpt lat="43.60148" lon="3.72687">
        <ele>146.89799936</ele>
        <time>2020-09-20T08:55:00.000Z</time>
      </trkpt>
      <trkpt lat="43.60145" lon="3.72692">
        <ele>146.69799936</ele>
        <time>2020-09-20T08:55:01.000Z</time>
      </trkpt>
      <trkpt lat="43.60143" lon="3.72697">
        <ele>146.49799936</ele>
        <time>2020-09-20T08:55:02.000Z</time>
      </trkpt>
      <trkpt lat="43.6014" lon="3.72702">
        <ele>146.29799936</ele>
        <time>2020-09-20T08:55:03.000Z</time>
      </trkpt>
      <trkpt lat="43.60136" lon="3.72707">
        <ele>146.09799936</ele>
        <time>2020-09-20T08:55:04.000Z</time>
      </trkpt>
      <trkpt lat="43.60133" lon="3.72712">
        <ele>145.89799936</ele>
        <time>2020-09-20T08:55:05.000Z</time>
      </trkpt>
      <trkpt lat="43.60129" lon="3.72716">
        <ele>145.69799936</ele>
        <time>2020-09-20T08:55:06.000Z</time>
      </trkpt>
      <trkpt lat="43.60126" lon="3.7272">
        <ele>145.49799936</ele>
        <time>2020-09-20T08:55:07.000Z</time>
      </trkpt>
      <trkpt lat="43.60122" lon="3.72724">
        <ele>145.29799936</ele>
        <time>2020-09-20T08:55:08.000Z</time>
      </trkpt>
      <trkpt lat="43.60118" lon="3.72729">
        <ele>145.09799936</ele>
        <time>2020-09-20T08:55:09.000Z</time>
      </trkpt>
      <trkpt lat="43.60115" lon="3.72734">
        <ele>144.84699904</ele>
        <time>2020-09-20T08:55:10.000Z</time>
      </trkpt>
      <trkpt lat="43.60111" lon="3.72738">
        <ele>144.54699904</ele>
        <time>2020-09-20T08:55:11.000Z</time>
      </trkpt>
      <trkpt lat="43.60107" lon="3.72743">
        <ele>144.24699904</ele>
        <time>2020-09-20T08:55:12.000Z</time>
      </trkpt>
      <trkpt lat="43.60102" lon="3.72747">
        <ele>143.94699904</ele>
        <time>2020-09-20T08:55:13.000Z</time>
      </trkpt>
      <trkpt lat="43.60097" lon="3.72751">
        <ele>143.64699904</ele>
        <time>2020-09-20T08:55:14.000Z</time>
      </trkpt>
      <trkpt lat="43.60092" lon="3.72754">
        <ele>143.34699904</ele>
        <time>2020-09-20T08:55:15.000Z</time>
      </trkpt>
      <trkpt lat="43.60087" lon="3.72758">
        <ele>143.04699904</ele>
        <time>2020-09-20T08:55:16.000Z</time>
      </trkpt>
      <trkpt lat="43.60083" lon="3.72761">
        <ele>142.74699904</ele>
        <time>2020-09-20T08:55:17.000Z</time>
      </trkpt>
      <trkpt lat="43.60078" lon="3.72765">
        <ele>142.44699904</ele>
        <time>2020-09-20T08:55:18.000Z</time>
      </trkpt>
      <trkpt lat="43.60074" lon="3.72767">
        <ele>142.14699904</ele>
        <time>2020-09-20T08:55:19.000Z</time>
      </trkpt>
      <trkpt lat="43.6007" lon="3.72769">
        <ele>141.951612629</ele>
        <time>2020-09-20T08:55:20.000Z</time>
      </trkpt>
      <trkpt lat="43.60066" lon="3.72771">
        <ele>141.85673602627</ele>
        <time>2020-09-20T08:55:21.000Z</time>
      </trkpt>
      <trkpt lat="43.60062" lon="3.72774">
        <ele>141.76185942354</ele>
        <time>2020-09-20T08:55:22.000Z</time>
      </trkpt>
      <trkpt lat="43.60058" lon="3.72774">
        <ele>141.66698282081</ele>
        <time>2020-09-20T08:55:23.000Z</time>
      </trkpt>
      <trkpt lat="43.60055" lon="3.72771">
        <ele>141.57210621808</ele>
        <time>2020-09-20T08:55:24.000Z</time>
      </trkpt>
      <trkpt lat="43.60054" lon="3.72767">
        <ele>141.47722961534</ele>
        <time>2020-09-20T08:55:25.000Z</time>
      </trkpt>
      <trkpt lat="43.60052" lon="3.72763">
        <ele>141.38235301261</ele>
        <time>2020-09-20T08:55:26.000Z</time>
      </trkpt>
      <trkpt lat="43.60051" lon="3.72759">
        <ele>141.28747640988</ele>
        <time>2020-09-20T08:55:27.000Z</time>
      </trkpt>
      <trkpt lat="43.60049" lon="3.72755">
        <ele>141.19259980715</ele>
        <time>2020-09-20T08:55:28.000Z</time>
      </trkpt>
      <trkpt lat="43.60046" lon="3.72751">
        <ele>141.09772320442</ele>
        <time>2020-09-20T08:55:29.000Z</time>
      </trkpt>
      <trkpt lat="43.60044" lon="3.72747">
        <ele>141.00284660169</ele>
        <time>2020-09-20T08:55:30.000Z</time>
      </trkpt>
      <trkpt lat="43.60042" lon="3.72744">
        <ele>140.89746327101</ele>
        <time>2020-09-20T08:55:31.000Z</time>
      </trkpt>
      <trkpt lat="43.6004" lon="3.72741">
        <ele>140.79175495425</ele>
        <time>2020-09-20T08:55:32.000Z</time>
      </trkpt>
      <trkpt lat="43.60039" lon="3.72738">
        <ele>140.68604663749</ele>
        <time>2020-09-20T08:55:33.000Z</time>
      </trkpt>
      <trkpt lat="43.60038" lon="3.72736">
        <ele>140.58033832074</ele>
        <time>2020-09-20T08:55:34.000Z</time>
      </trkpt>
      <trkpt lat="43.60036" lon="3.72734">
        <ele>140.47463000398</ele>
        <time>2020-09-20T08:55:35.000Z</time>
      </trkpt>
      <trkpt lat="43.60035" lon="3.72733">
        <ele>140.36892168722</ele>
        <time>2020-09-20T08:55:36.000Z</time>
      </trkpt>
      <trkpt lat="43.60034" lon="3.7273">
        <ele>140.26321337046</ele>
        <time>2020-09-20T08:55:37.000Z</time>
      </trkpt>
      <trkpt lat="43.60033" lon="3.72728">
        <ele>140.1575050537</ele>
        <time>2020-09-20T08:55:38.000Z</time>
      </trkpt>
      <trkpt lat="43.60031" lon="3.72725">
        <ele>140.05179673694</ele>
        <time>2020-09-20T08:55:39.000Z</time>
      </trkpt>
      <trkpt lat="43.60029" lon="3.72721">
        <ele>140</ele>
        <time>2020-09-20T08:55:40.000Z</time>
      </trkpt>
      <trkpt lat="43.60027" lon="3.72718">
        <ele>140</ele>
        <time>2020-09-20T08:55:41.000Z</time>
      </trkpt>
      <trkpt lat="43.60024" lon="3.72715">
        <ele>140</ele>
        <time>2020-09-20T08:55:42.000Z</time>
      </trkpt>
      <trkpt lat="43.6002" lon="3.72713">
        <ele>140</ele>
        <time>2020-09-20T08:55:43.000Z</time>
      </trkpt>
      <trkpt lat="43.60016" lon="3.72713">
        <ele>140</ele>
        <time>2020-09-20T08:55:44.000Z</time>
      </trkpt>
      <trkpt lat="43.60012" lon="3.72713">
        <ele>140</ele>
        <time>2020-09-20T08:55:45.000Z</time>
      </trkpt>
      <trkpt lat="43.60008" lon="3.72714">
        <ele>140</ele>
        <time>2020-09-20T08:55:46.000Z</time>
      </trkpt>
      <trkpt lat="43.60004" lon="3.72715">
        <ele>140</ele>
        <time>2020-09-20T08:55:47.000Z</time>
      </trkpt>
      <trkpt lat="43.6" lon="3.72716">
        <ele>140</ele>
        <time>2020-09-20T08:55:48.000Z</time>
      </trkpt>
      <trkpt lat="43.59996" lon="3.72717">
        <ele>140</ele>
        <time>2020-09-20T08:55:49.000Z</time>
      </trkpt>
      <trkpt lat="43.59992" lon="3.72718">
        <ele>139.95043699139</ele>
        <time>2020-09-20T08:55:50.000Z</time>
      </trkpt>
      <trkpt lat="43.59988" lon="3.72719">
        <ele>139.85325523133</ele>
        <time>2020-09-20T08:55:51.000Z</time>
      </trkpt>
      <trkpt lat="43.59984" lon="3.72719">
        <ele>139.75607347128</ele>
        <time>2020-09-20T08:55:52.000Z</time>
      </trkpt>
      <trkpt lat="43.59981" lon="3.72718">
        <ele>139.65889171122</ele>
        <time>2020-09-20T08:55:53.000Z</time>
      </trkpt>
      <trkpt lat="43.59978" lon="3.72717">
        <ele>139.56170995116</ele>
        <time>2020-09-20T08:55:54.000Z</time>
      </trkpt>
      <trkpt lat="43.59975" lon="3.72716">
        <ele>139.46452819111</ele>
        <time>2020-09-20T08:55:55.000Z</time>
      </trkpt>
      <trkpt lat="43.59973" lon="3.72715">
        <ele>139.36734643105</ele>
        <time>2020-09-20T08:55:56.000Z</time>
      </trkpt>
      <trkpt lat="43.5997" lon="3.72714">
        <ele>139.27016467099</ele>
        <time>2020-09-20T08:55:57.000Z</time>
      </trkpt>
      <trkpt lat="43.59968" lon="3.72713">
        <ele>139.17298291094</ele>
        <time>2020-09-20T08:55:58.000Z</time>
      </trkpt>
      <trkpt lat="43.59967" lon="3.72711">
        <ele>139.07580115088</ele>
        <time>2020-09-20T08:55:59.000Z</time>
      </trkpt>
      <trkpt lat="43.59965" lon="3.7271">
        <ele>139.02265770623</ele>
        <time>2020-09-20T08:56:00.000Z</time>
      </trkpt>
      <trkpt lat="43.59962" lon="3.72709">
        <ele>139.12564428403</ele>
        <time>2020-09-20T08:56:01.000Z</time>
      </trkpt>
      <trkpt lat="43.5996" lon="3.72707">
        <ele>139.22863086183</ele>
        <time>2020-09-20T08:56:02.000Z</time>
      </trkpt>
      <trkpt lat="43.59958" lon="3.72705">
        <ele>139.33161743963</ele>
        <time>2020-09-20T08:56:03.000Z</time>
      </trkpt>
      <trkpt lat="43.59956" lon="3.72703">
        <ele>139.43460401743</ele>
        <time>2020-09-20T08:56:04.000Z</time>
      </trkpt>
      <trkpt lat="43.59955" lon="3.72702">
        <ele>139.53759059523</ele>
        <time>2020-09-20T08:56:05.000Z</time>
      </trkpt>
      <trkpt lat="43.59953" lon="3.72699">
        <ele>139.64057717303</ele>
        <time>2020-09-20T08:56:06.000Z</time>
      </trkpt>
      <trkpt lat="43.59952" lon="3.72697">
        <ele>139.74356375083</ele>
        <time>2020-09-20T08:56:07.000Z</time>
      </trkpt>
      <trkpt lat="43.59951" lon="3.72694">
        <ele>139.84655032863</ele>
        <time>2020-09-20T08:56:08.000Z</time>
      </trkpt>
      <trkpt lat="43.59951" lon="3.72691">
        <ele>139.94953690643</ele>
        <time>2020-09-20T08:56:09.000Z</time>
      </trkpt>
      <trkpt lat="43.5995" lon="3.72689">
        <ele>140</ele>
        <time>2020-09-20T08:56:10.000Z</time>
      </trkpt>
      <trkpt lat="43.59949" lon="3.72686">
        <ele>140</ele>
        <time>2020-09-20T08:56:11.000Z</time>
      </trkpt>
      <trkpt lat="43.59947" lon="3.72683">
        <ele>140</ele>
        <time>2020-09-20T08:56:12.000Z</time>
      </trkpt>
      <trkpt lat="43.59946" lon="3.72681">
        <ele>140</ele>
        <time>2020-09-20T08:56:13.000Z</time>
      </trkpt>
      <trkpt lat="43.59944" lon="3.72679">
        <ele>140</ele>
        <time>2020-09-20T08:56:14.000Z</time>
      </trkpt>
      <trkpt lat="43.59942" lon="3.72677">
        <ele>140</ele>
        <time>2020-09-20T08:56:15.000Z</time>
      </trkpt>
      <trkpt lat="43.5994" lon="3.72675">
        <ele>140</ele>
        <time>2020-09-20T08:56:16.000Z</time>
      </trkpt>
      <trkpt lat="43.59937" lon="3.72672">
        <ele>140</ele>
        <time>2020-09-20T08:56:17.000Z</time>
      </trkpt>
      <trkpt lat="43.59935" lon="3.7267">
        <ele>140</ele>
        <time>2020-09-20T08:56:18.000Z</time>
      </trkpt>
      <trkpt lat="43.59932" lon="3.72667">
        <ele>140</ele>
        <time>2020-09-20T08:56:19.000Z</time>
      </trkpt>
      <trkpt lat="43.59929" lon="3.72664">
        <ele>139.94899968</ele>
        <time>2020-09-20T08:56:20.000Z</time>
      </trkpt>
      <trkpt lat="43.59926" lon="3.7266">
        <ele>139.84899968</ele>
        <time>2020-09-20T08:56:21.000Z</time>
      </trkpt>
      <trkpt lat="43.59923" lon="3.72657">
        <ele>139.74899968</ele>
        <time>2020-09-20T08:56:22.000Z</time>
      </trkpt>
      <trkpt lat="43.5992" lon="3.72653">
        <ele>139.64899968</ele>
        <time>2020-09-20T08:56:23.000Z</time>
      </trkpt>
      <trkpt lat="43.59917" lon="3.72649">
        <ele>139.54899968</ele>
        <time>2020-09-20T08:56:24.000Z</time>
      </trkpt>
      <trkpt lat="43.59913" lon="3.72645">
        <ele>139.44899968</ele>
        <time>2020-09-20T08:56:25.000Z</time>
      </trkpt>
      <trkpt lat="43.5991" lon="3.72642">
        <ele>139.34899968</ele>
        <time>2020-09-20T08:56:26.000Z</time>
      </trkpt>
      <trkpt lat="43.59906" lon="3.72639">
        <ele>139.24899968</ele>
        <time>2020-09-20T08:56:27.000Z</time>
      </trkpt>
      <trkpt lat="43.59903" lon="3.72636">
        <ele>139.14899968</ele>
        <time>2020-09-20T08:56:28.000Z</time>
      </trkpt>
      <trkpt lat="43.599" lon="3.72634">
        <ele>139.04899968</ele>
        <time>2020-09-20T08:56:29.000Z</time>
      </trkpt>
      <trkpt lat="43.59896" lon="3.72631">
        <ele>139</ele>
        <time>2020-09-20T08:56:30.000Z</time>
      </trkpt>
      <trkpt lat="43.59893" lon="3.72628">
        <ele>139</ele>
        <time>2020-09-20T08:56:31.000Z</time>
      </trkpt>
      <trkpt lat="43.59891" lon="3.72625">
        <ele>139</ele>
        <time>2020-09-20T08:56:32.000Z</time>
      </trkpt>
      <trkpt lat="43.59888" lon="3.72621">
        <ele>139</ele>
        <time>2020-09-20T08:56:33.000Z</time>
      </trkpt>
      <trkpt lat="43.59886" lon="3.72618">
        <ele>139</ele>
        <time>2020-09-20T08:56:34.000Z</time>
      </trkpt>
      <trkpt lat="43.59883" lon="3.72615">
        <ele>139</ele>
        <time>2020-09-20T08:56:35.000Z</time>
      </trkpt>
      <trkpt lat="43.5988" lon="3.72612">
        <ele>139</ele>
        <time>2020-09-20T08:56:36.000Z</time>
      </trkpt>
      <trkpt lat="43.59876" lon="3.72608">
        <ele>139</ele>
        <time>2020-09-20T08:56:37.000Z</time>
      </trkpt>
      <trkpt lat="43.59873" lon="3.72604">
        <ele>139</ele>
        <time>2020-09-20T08:56:38.000Z</time>
      </trkpt>
      <trkpt lat="43.5987" lon="3.72599">
        <ele>139</ele>
        <time>2020-09-20T08:56:39.000Z</time>
      </trkpt>
      <trkpt lat="43.59868" lon="3.72594">
        <ele>139.04692080644</ele>
        <time>2020-09-20T08:56:40.000Z</time>
      </trkpt>
      <trkpt lat="43.59866" lon="3.7259">
        <ele>139.14467248651</ele>
        <time>2020-09-20T08:56:41.000Z</time>
      </trkpt>
      <trkpt lat="43.59865" lon="3.72587">
        <ele>139.24242416659</ele>
        <time>2020-09-20T08:56:42.000Z</time>
      </trkpt>
      <trkpt lat="43.59863" lon="3.72584">
        <ele>139.34017584667</ele>
        <time>2020-09-20T08:56:43.000Z</time>
      </trkpt>
      <trkpt lat="43.59861" lon="3.7258">
        <ele>139.43792752675</ele>
        <time>2020-09-20T08:56:44.000Z</time>
      </trkpt>
      <trkpt lat="43.5986" lon="3.72576">
        <ele>139.53567920683</ele>
        <time>2020-09-20T08:56:45.000Z</time>
      </trkpt>
      <trkpt lat="43.59858" lon="3.72572">
        <ele>139.6334308869</ele>
        <time>2020-09-20T08:56:46.000Z</time>
      </trkpt>
      <trkpt lat="43.59856" lon="3.72568">
        <ele>139.73118256698</ele>
        <time>2020-09-20T08:56:47.000Z</time>
      </trkpt>
      <trkpt lat="43.59854" lon="3.72565">
        <ele>139.82893424706</ele>
        <time>2020-09-20T08:56:48.000Z</time>
      </trkpt>
      <trkpt lat="43.59852" lon="3.72561">
        <ele>139.92668592714</ele>
        <time>2020-09-20T08:56:49.000Z</time>
      </trkpt>
      <trkpt lat="43.5985" lon="3.72558">
        <ele>140.02566703945</ele>
        <time>2020-09-20T08:56:50.000Z</time>
      </trkpt>
      <trkpt lat="43.59848" lon="3.72555">
        <ele>140.12833651143</ele>
        <time>2020-09-20T08:56:51.000Z</time>
      </trkpt>
      <trkpt lat="43.59847" lon="3.72552">
        <ele>140.23100598341</ele>
        <time>2020-09-20T08:56:52.000Z</time>
      </trkpt>
      <trkpt lat="43.59845" lon="3.72549">
        <ele>140.33367545539</ele>
        <time>2020-09-20T08:56:53.000Z</time>
      </trkpt>
      <trkpt lat="43.59844" lon="3.72546">
        <ele>140.43634492737</ele>
        <time>2020-09-20T08:56:54.000Z</time>
      </trkpt>
      <trkpt lat="43.59842" lon="3.72543">
        <ele>140.53901439935</ele>
        <time>2020-09-20T08:56:55.000Z</time>
      </trkpt>
      <trkpt lat="43.59841" lon="3.72541">
        <ele>140.64168387133</ele>
        <time>2020-09-20T08:56:56.000Z</time>
      </trkpt>
      <trkpt lat="43.5984" lon="3.72538">
        <ele>140.74435334331</ele>
        <time>2020-09-20T08:56:57.000Z</time>
      </trkpt>
      <trkpt lat="43.59839" lon="3.72536">
        <ele>140.84702281529</ele>
        <time>2020-09-20T08:56:58.000Z</time>
      </trkpt>
      <trkpt lat="43.59838" lon="3.72534">
        <ele>140.94969228727</ele>
        <time>2020-09-20T08:56:59.000Z</time>
      </trkpt>
      <trkpt lat="43.59837" lon="3.72532">
        <ele>141.05100032</ele>
        <time>2020-09-20T08:57:00.000Z</time>
      </trkpt>
      <trkpt lat="43.59835" lon="3.72529">
        <ele>141.15100032</ele>
        <time>2020-09-20T08:57:01.000Z</time>
      </trkpt>
      <trkpt lat="43.59834" lon="3.72527">
        <ele>141.25100032</ele>
        <time>2020-09-20T08:57:02.000Z</time>
      </trkpt>
      <trkpt lat="43.59833" lon="3.72524">
        <ele>141.35100032</ele>
        <time>2020-09-20T08:57:03.000Z</time>
      </trkpt>
      <trkpt lat="43.59831" lon="3.72522">
        <ele>141.45100032</ele>
        <time>2020-09-20T08:57:04.000Z</time>
      </trkpt>
      <trkpt lat="43.5983" lon="3.72519">
        <ele>141.55100032</ele>
        <time>2020-09-20T08:57:05.000Z</time>
      </trkpt>
      <trkpt lat="43.59829" lon="3.72517">
        <ele>141.65100032</ele>
        <time>2020-09-20T08:57:06.000Z</time>
      </trkpt>
      <trkpt lat="43.59828" lon="3.72515">
        <ele>141.75100032</ele>
        <time>2020-09-20T08:57:07.000Z</time>
      </trkpt>
      <trkpt lat="43.59826" lon="3.72512">
        <ele>141.85100032</ele>
        <time>2020-09-20T08:57:08.000Z</time>
      </trkpt>
      <trkpt lat="43.59825" lon="3.7251">
        <ele>141.95100032</ele>
        <time>2020-09-20T08:57:09.000Z</time>
      </trkpt>
      <trkpt lat="43.59823" lon="3.72508">
        <ele>142.05089849044</ele>
        <time>2020-09-20T08:57:10.000Z</time>
      </trkpt>
      <trkpt lat="43.59822" lon="3.72505">
        <ele>142.1506988259</ele>
        <time>2020-09-20T08:57:11.000Z</time>
      </trkpt>
      <trkpt lat="43.59821" lon="3.72503">
        <ele>142.25049916136</ele>
        <time>2020-09-20T08:57:12.000Z</time>
      </trkpt>
      <trkpt lat="43.5982" lon="3.72501">
        <ele>142.35029949682</ele>
        <time>2020-09-20T08:57:13.000Z</time>
      </trkpt>
      <trkpt lat="43.59819" lon="3.72499">
        <ele>142.45009983227</ele>
        <time>2020-09-20T08:57:14.000Z</time>
      </trkpt>
      <trkpt lat="43.59817" lon="3.72497">
        <ele>142.54990016773</ele>
        <time>2020-09-20T08:57:15.000Z</time>
      </trkpt>
      <trkpt lat="43.59816" lon="3.72495">
        <ele>142.64970050318</ele>
        <time>2020-09-20T08:57:16.000Z</time>
      </trkpt>
      <trkpt lat="43.59815" lon="3.72494">
        <ele>142.74950083864</ele>
        <time>2020-09-20T08:57:17.000Z</time>
      </trkpt>
      <trkpt lat="43.59813" lon="3.72492">
        <ele>142.8493011741</ele>
        <time>2020-09-20T08:57:18.000Z</time>
      </trkpt>
      <trkpt lat="43.59812" lon="3.7249">
        <ele>142.94910150956</ele>
        <time>2020-09-20T08:57:19.000Z</time>
      </trkpt>
      <trkpt lat="43.5981" lon="3.72488">
        <ele>143.04761875145</ele>
        <time>2020-09-20T08:57:20.000Z</time>
      </trkpt>
      <trkpt lat="43.59809" lon="3.72486">
        <ele>143.1448005115</ele>
        <time>2020-09-20T08:57:21.000Z</time>
      </trkpt>
      <trkpt lat="43.59807" lon="3.72484">
        <ele>143.24198227156</ele>
        <time>2020-09-20T08:57:22.000Z</time>
      </trkpt>
      <trkpt lat="43.59806" lon="3.72482">
        <ele>143.33916403162</ele>
        <time>2020-09-20T08:57:23.000Z</time>
      </trkpt>
      <trkpt lat="43.59803" lon="3.72479">
        <ele>143.53352755173</ele>
        <time>2020-09-20T08:57:25.000Z</time>
      </trkpt>
      <trkpt lat="43.59802" lon="3.72478">
        <ele>143.63070931179</ele>
        <time>2020-09-20T08:57:26.000Z</time>
      </trkpt>
      <trkpt lat="43.59799" lon="3.72475">
        <ele>143.8250728319</ele>
        <time>2020-09-20T08:57:28.000Z</time>
      </trkpt>
      <trkpt lat="43.59797" lon="3.72472">
        <ele>144.0412796834</ele>
        <time>2020-09-20T08:57:30.000Z</time>
      </trkpt>
      <trkpt lat="43.59795" lon="3.72469">
        <ele>144.45407651734</ele>
        <time>2020-09-20T08:57:32.000Z</time>
      </trkpt>
      <trkpt lat="43.59792" lon="3.72467">
        <ele>144.86687335129</ele>
        <time>2020-09-20T08:57:34.000Z</time>
      </trkpt>
      <trkpt lat="43.59791" lon="3.72465">
        <ele>145.07327176826</ele>
        <time>2020-09-20T08:57:35.000Z</time>
      </trkpt>
      <trkpt lat="43.59789" lon="3.72464">
        <ele>145.27967018524</ele>
        <time>2020-09-20T08:57:36.000Z</time>
      </trkpt>
      <trkpt lat="43.59786" lon="3.72461">
        <ele>145.69246701918</ele>
        <time>2020-09-20T08:57:38.000Z</time>
      </trkpt>
      <trkpt lat="43.59784" lon="3.72458">
        <ele>146.05100032</ele>
        <time>2020-09-20T08:57:40.000Z</time>
      </trkpt>
      <trkpt lat="43.59782" lon="3.72456">
        <ele>146.15100032</ele>
        <time>2020-09-20T08:57:41.000Z</time>
      </trkpt>
      <trkpt lat="43.59781" lon="3.72454">
        <ele>146.25100032</ele>
        <time>2020-09-20T08:57:42.000Z</time>
      </trkpt>
      <trkpt lat="43.59779" lon="3.72453">
        <ele>146.35100032</ele>
        <time>2020-09-20T08:57:43.000Z</time>
      </trkpt>
      <trkpt lat="43.59777" lon="3.7245">
        <ele>146.55100032</ele>
        <time>2020-09-20T08:57:45.000Z</time>
      </trkpt>
      <trkpt lat="43.59774" lon="3.72448">
        <ele>146.75100032</ele>
        <time>2020-09-20T08:57:47.000Z</time>
      </trkpt>
      <trkpt lat="43.59772" lon="3.72446">
        <ele>146.95100032</ele>
        <time>2020-09-20T08:57:49.000Z</time>
      </trkpt>
      <trkpt lat="43.5977" lon="3.72444">
        <ele>147.15100032</ele>
        <time>2020-09-20T08:57:51.000Z</time>
      </trkpt>
      <trkpt lat="43.59768" lon="3.72443">
        <ele>147.35100032</ele>
        <time>2020-09-20T08:57:53.000Z</time>
      </trkpt>
      <trkpt lat="43.59766" lon="3.7244">
        <ele>147.55100032</ele>
        <time>2020-09-20T08:57:55.000Z</time>
      </trkpt>
      <trkpt lat="43.59765" lon="3.72438">
        <ele>147.75100032</ele>
        <time>2020-09-20T08:57:57.000Z</time>
      </trkpt>
      <trkpt lat="43.59763" lon="3.72436">
        <ele>147.95100032</ele>
        <time>2020-09-20T08:57:59.000Z</time>
      </trkpt>
      <trkpt lat="43.59761" lon="3.72433">
        <ele>148.15100032</ele>
        <time>2020-09-20T08:58:01.000Z</time>
      </trkpt>
      <trkpt lat="43.59759" lon="3.72431">
        <ele>148.35100032</ele>
        <time>2020-09-20T08:58:03.000Z</time>
      </trkpt>
      <trkpt lat="43.59757" lon="3.72428">
        <ele>148.55100032</ele>
        <time>2020-09-20T08:58:05.000Z</time>
      </trkpt>
      <trkpt lat="43.59755" lon="3.72425">
        <ele>148.75100032</ele>
        <time>2020-09-20T08:58:07.000Z</time>
      </trkpt>
      <trkpt lat="43.59754" lon="3.72422">
        <ele>148.95100032</ele>
        <time>2020-09-20T08:58:09.000Z</time>
      </trkpt>
      <trkpt lat="43.59752" lon="3.72419">
        <ele>149.30200064</ele>
        <time>2020-09-20T08:58:11.000Z</time>
      </trkpt>
      <trkpt lat="43.59751" lon="3.72415">
        <ele>149.70200064</ele>
        <time>2020-09-20T08:58:13.000Z</time>
      </trkpt>
      <trkpt lat="43.59749" lon="3.72411">
        <ele>150.10200064</ele>
        <time>2020-09-20T08:58:15.000Z</time>
      </trkpt>
      <trkpt lat="43.59748" lon="3.72408">
        <ele>150.50200064</ele>
        <time>2020-09-20T08:58:17.000Z</time>
      </trkpt>
      <trkpt lat="43.59747" lon="3.72404">
        <ele>150.90200064</ele>
        <time>2020-09-20T08:58:19.000Z</time>
      </trkpt>
      <trkpt lat="43.59746" lon="3.724">
        <ele>151</ele>
        <time>2020-09-20T08:58:21.000Z</time>
      </trkpt>
      <trkpt lat="43.59745" lon="3.72396">
        <ele>151</ele>
        <time>2020-09-20T08:58:23.000Z</time>
      </trkpt>
      <trkpt lat="43.59743" lon="3.72393">
        <ele>151</ele>
        <time>2020-09-20T08:58:25.000Z</time>
      </trkpt>
      <trkpt lat="43.59743" lon="3.72388">
        <ele>151</ele>
        <time>2020-09-20T08:58:27.000Z</time>
      </trkpt>
      <trkpt lat="43.59742" lon="3.72384">
        <ele>151</ele>
        <time>2020-09-20T08:58:29.000Z</time>
      </trkpt>
      <trkpt lat="43.59741" lon="3.72382">
        <ele>150.90753643175</ele>
        <time>2020-09-20T08:58:30.000Z</time>
      </trkpt>
      <trkpt lat="43.59739" lon="3.72379">
        <ele>150.50552651078</ele>
        <time>2020-09-20T08:58:32.000Z</time>
      </trkpt>
      <trkpt lat="43.59735" lon="3.72381">
        <ele>150.10351658982</ele>
        <time>2020-09-20T08:58:34.000Z</time>
      </trkpt>
      <trkpt lat="43.59733" lon="3.72384">
        <ele>149.90251162934</ele>
        <time>2020-09-20T08:58:35.000Z</time>
      </trkpt>
      <trkpt lat="43.5973" lon="3.72388">
        <ele>149.70150666886</ele>
        <time>2020-09-20T08:58:36.000Z</time>
      </trkpt>
      <trkpt lat="43.59728" lon="3.72394">
        <ele>149.50050170838</ele>
        <time>2020-09-20T08:58:37.000Z</time>
      </trkpt>
      <trkpt lat="43.59726" lon="3.72401">
        <ele>149.2994967479</ele>
        <time>2020-09-20T08:58:38.000Z</time>
      </trkpt>
      <trkpt lat="43.59723" lon="3.72409">
        <ele>149.09849178742</ele>
        <time>2020-09-20T08:58:39.000Z</time>
      </trkpt>
      <trkpt lat="43.5972" lon="3.72416">
        <ele>148.94899968</ele>
        <time>2020-09-20T08:58:40.000Z</time>
      </trkpt>
      <trkpt lat="43.59717" lon="3.72421">
        <ele>148.84899968</ele>
        <time>2020-09-20T08:58:41.000Z</time>
      </trkpt>
      <trkpt lat="43.59715" lon="3.72426">
        <ele>148.74899968</ele>
        <time>2020-09-20T08:58:42.000Z</time>
      </trkpt>
      <trkpt lat="43.59715" lon="3.7243">
        <ele>148.64899968</ele>
        <time>2020-09-20T08:58:43.000Z</time>
      </trkpt>
      <trkpt lat="43.59715" lon="3.72435">
        <ele>148.54899968</ele>
        <time>2020-09-20T08:58:44.000Z</time>
      </trkpt>
      <trkpt lat="43.59715" lon="3.72441">
        <ele>148.44899968</ele>
        <time>2020-09-20T08:58:45.000Z</time>
      </trkpt>
      <trkpt lat="43.59714" lon="3.72447">
        <ele>148.34899968</ele>
        <time>2020-09-20T08:58:46.000Z</time>
      </trkpt>
      <trkpt lat="43.59713" lon="3.72454">
        <ele>148.24899968</ele>
        <time>2020-09-20T08:58:47.000Z</time>
      </trkpt>
      <trkpt lat="43.59711" lon="3.7246">
        <ele>148.14899968</ele>
        <time>2020-09-20T08:58:48.000Z</time>
      </trkpt>
      <trkpt lat="43.5971" lon="3.72467">
        <ele>148.04899968</ele>
        <time>2020-09-20T08:58:49.000Z</time>
      </trkpt>
      <trkpt lat="43.59708" lon="3.72474">
        <ele>147.89799936</ele>
        <time>2020-09-20T08:58:50.000Z</time>
      </trkpt>
      <trkpt lat="43.59707" lon="3.72479">
        <ele>147.69799936</ele>
        <time>2020-09-20T08:58:51.000Z</time>
      </trkpt>
      <trkpt lat="43.59706" lon="3.72485">
        <ele>147.49799936</ele>
        <time>2020-09-20T08:58:52.000Z</time>
      </trkpt>
      <trkpt lat="43.59704" lon="3.72489">
        <ele>147.29799936</ele>
        <time>2020-09-20T08:58:53.000Z</time>
      </trkpt>
      <trkpt lat="43.59701" lon="3.72493">
        <ele>147.09799936</ele>
        <time>2020-09-20T08:58:54.000Z</time>
      </trkpt>
      <trkpt lat="43.59699" lon="3.72497">
        <ele>146.89799936</ele>
        <time>2020-09-20T08:58:55.000Z</time>
      </trkpt>
      <trkpt lat="43.59699" lon="3.72502">
        <ele>146.69799936</ele>
        <time>2020-09-20T08:58:56.000Z</time>
      </trkpt>
      <trkpt lat="43.59699" lon="3.72507">
        <ele>146.49799936</ele>
        <time>2020-09-20T08:58:57.000Z</time>
      </trkpt>
      <trkpt lat="43.59698" lon="3.72513">
        <ele>146.29799936</ele>
        <time>2020-09-20T08:58:58.000Z</time>
      </trkpt>
      <trkpt lat="43.59695" lon="3.72519">
        <ele>146.09799936</ele>
        <time>2020-09-20T08:58:59.000Z</time>
      </trkpt>
      <trkpt lat="43.59692" lon="3.72524">
        <ele>145.94899968</ele>
        <time>2020-09-20T08:59:00.000Z</time>
      </trkpt>
      <trkpt lat="43.5969" lon="3.7253">
        <ele>145.84899968</ele>
        <time>2020-09-20T08:59:01.000Z</time>
      </trkpt>
      <trkpt lat="43.59688" lon="3.72537">
        <ele>145.74899968</ele>
        <time>2020-09-20T08:59:02.000Z</time>
      </trkpt>
      <trkpt lat="43.59685" lon="3.72543">
        <ele>145.64899968</ele>
        <time>2020-09-20T08:59:03.000Z</time>
      </trkpt>
      <trkpt lat="43.59682" lon="3.72548">
        <ele>145.54899968</ele>
        <time>2020-09-20T08:59:04.000Z</time>
      </trkpt>
      <trkpt lat="43.59679" lon="3.72554">
        <ele>145.44899968</ele>
        <time>2020-09-20T08:59:05.000Z</time>
      </trkpt>
      <trkpt lat="43.59676" lon="3.72561">
        <ele>145.34899968</ele>
        <time>2020-09-20T08:59:06.000Z</time>
      </trkpt>
      <trkpt lat="43.59674" lon="3.72567">
        <ele>145.24899968</ele>
        <time>2020-09-20T08:59:07.000Z</time>
      </trkpt>
      <trkpt lat="43.59673" lon="3.72574">
        <ele>145.14899968</ele>
        <time>2020-09-20T08:59:08.000Z</time>
      </trkpt>
      <trkpt lat="43.59673" lon="3.7258">
        <ele>145.04899968</ele>
        <time>2020-09-20T08:59:09.000Z</time>
      </trkpt>
      <trkpt lat="43.59673" lon="3.72587">
        <ele>144.94899968</ele>
        <time>2020-09-20T08:59:10.000Z</time>
      </trkpt>
      <trkpt lat="43.59674" lon="3.72594">
        <ele>144.84899968</ele>
        <time>2020-09-20T08:59:11.000Z</time>
      </trkpt>
      <trkpt lat="43.59676" lon="3.726">
        <ele>144.74899968</ele>
        <time>2020-09-20T08:59:12.000Z</time>
      </trkpt>
      <trkpt lat="43.59678" lon="3.72607">
        <ele>144.64899968</ele>
        <time>2020-09-20T08:59:13.000Z</time>
      </trkpt>
      <trkpt lat="43.5968" lon="3.72614">
        <ele>144.54899968</ele>
        <time>2020-09-20T08:59:14.000Z</time>
      </trkpt>
      <trkpt lat="43.5968" lon="3.72622">
        <ele>144.44899968</ele>
        <time>2020-09-20T08:59:15.000Z</time>
      </trkpt>
      <trkpt lat="43.5968" lon="3.72629">
        <ele>144.34899968</ele>
        <time>2020-09-20T08:59:16.000Z</time>
      </trkpt>
      <trkpt lat="43.5968" lon="3.72636">
        <ele>144.24899968</ele>
        <time>2020-09-20T08:59:17.000Z</time>
      </trkpt>
      <trkpt lat="43.5968" lon="3.72643">
        <ele>144.14899968</ele>
        <time>2020-09-20T08:59:18.000Z</time>
      </trkpt>
      <trkpt lat="43.5968" lon="3.7265">
        <ele>144.04899968</ele>
        <time>2020-09-20T08:59:19.000Z</time>
      </trkpt>
      <trkpt lat="43.59679" lon="3.72656">
        <ele>144</ele>
        <time>2020-09-20T08:59:20.000Z</time>
      </trkpt>
      <trkpt lat="43.59679" lon="3.72662">
        <ele>144</ele>
        <time>2020-09-20T08:59:21.000Z</time>
      </trkpt>
      <trkpt lat="43.59678" lon="3.72668">
        <ele>144</ele>
        <time>2020-09-20T08:59:22.000Z</time>
      </trkpt>
      <trkpt lat="43.59677" lon="3.72672">
        <ele>144</ele>
        <time>2020-09-20T08:59:23.000Z</time>
      </trkpt>
      <trkpt lat="43.59677" lon="3.72676">
        <ele>144</ele>
        <time>2020-09-20T08:59:24.000Z</time>
      </trkpt>
      <trkpt lat="43.59677" lon="3.72679">
        <ele>144</ele>
        <time>2020-09-20T08:59:25.000Z</time>
      </trkpt>
      <trkpt lat="43.59677" lon="3.72683">
        <ele>144</ele>
        <time>2020-09-20T08:59:26.000Z</time>
      </trkpt>
      <trkpt lat="43.59676" lon="3.72688">
        <ele>144</ele>
        <time>2020-09-20T08:59:27.000Z</time>
      </trkpt>
      <trkpt lat="43.59676" lon="3.72694">
        <ele>144</ele>
        <time>2020-09-20T08:59:28.000Z</time>
      </trkpt>
      <trkpt lat="43.59676" lon="3.727">
        <ele>144</ele>
        <time>2020-09-20T08:59:29.000Z</time>
      </trkpt>
      <trkpt lat="43.59676" lon="3.72707">
        <ele>143.95043699139</ele>
        <time>2020-09-20T08:59:30.000Z</time>
      </trkpt>
      <trkpt lat="43.59675" lon="3.72713">
        <ele>143.85325523133</ele>
        <time>2020-09-20T08:59:31.000Z</time>
      </trkpt>
      <trkpt lat="43.59674" lon="3.72718">
        <ele>143.75607347128</ele>
        <time>2020-09-20T08:59:32.000Z</time>
      </trkpt>
      <trkpt lat="43.59671" lon="3.72722">
        <ele>143.65889171122</ele>
        <time>2020-09-20T08:59:33.000Z</time>
      </trkpt>
      <trkpt lat="43.59668" lon="3.72727">
        <ele>143.56170995116</ele>
        <time>2020-09-20T08:59:34.000Z</time>
      </trkpt>
      <trkpt lat="43.59666" lon="3.72731">
        <ele>143.46452819111</ele>
        <time>2020-09-20T08:59:35.000Z</time>
      </trkpt>
      <trkpt lat="43.59662" lon="3.72735">
        <ele>143.36734643105</ele>
        <time>2020-09-20T08:59:36.000Z</time>
      </trkpt>
      <trkpt lat="43.59659" lon="3.7274">
        <ele>143.27016467099</ele>
        <time>2020-09-20T08:59:37.000Z</time>
      </trkpt>
      <trkpt lat="43.59657" lon="3.72745">
        <ele>143.17298291094</ele>
        <time>2020-09-20T08:59:38.000Z</time>
      </trkpt>
      <trkpt lat="43.59654" lon="3.7275">
        <ele>143.07580115088</ele>
        <time>2020-09-20T08:59:39.000Z</time>
      </trkpt>
      <trkpt lat="43.59652" lon="3.72755">
        <ele>142.95468458754</ele>
        <time>2020-09-20T08:59:40.000Z</time>
      </trkpt>
      <trkpt lat="43.5965" lon="3.72758">
        <ele>142.74871143194</ele>
        <time>2020-09-20T08:59:41.000Z</time>
      </trkpt>
      <trkpt lat="43.59649" lon="3.7276">
        <ele>142.54273827634</ele>
        <time>2020-09-20T08:59:42.000Z</time>
      </trkpt>
      <trkpt lat="43.59647" lon="3.72762">
        <ele>142.33676512074</ele>
        <time>2020-09-20T08:59:43.000Z</time>
      </trkpt>
      <trkpt lat="43.59645" lon="3.72763">
        <ele>142.13079196514</ele>
        <time>2020-09-20T08:59:44.000Z</time>
      </trkpt>
      <trkpt lat="43.59642" lon="3.72763">
        <ele>141.92481880953</ele>
        <time>2020-09-20T08:59:45.000Z</time>
      </trkpt>
      <trkpt lat="43.59638" lon="3.72763">
        <ele>141.71884565393</ele>
        <time>2020-09-20T08:59:46.000Z</time>
      </trkpt>
      <trkpt lat="43.59633" lon="3.72761">
        <ele>141.51287249833</ele>
        <time>2020-09-20T08:59:47.000Z</time>
      </trkpt>
      <trkpt lat="43.59628" lon="3.72759">
        <ele>141.30689934273</ele>
        <time>2020-09-20T08:59:48.000Z</time>
      </trkpt>
      <trkpt lat="43.59622" lon="3.72759">
        <ele>141.10092618713</ele>
        <time>2020-09-20T08:59:49.000Z</time>
      </trkpt>
      <trkpt lat="43.59617" lon="3.72759">
        <ele>140.79599872</ele>
        <time>2020-09-20T08:59:50.000Z</time>
      </trkpt>
      <trkpt lat="43.59611" lon="3.72759">
        <ele>140.39599872</ele>
        <time>2020-09-20T08:59:51.000Z</time>
      </trkpt>
      <trkpt lat="43.59604" lon="3.7276">
        <ele>139.99599872</ele>
        <time>2020-09-20T08:59:52.000Z</time>
      </trkpt>
      <trkpt lat="43.59598" lon="3.72761">
        <ele>139.59599872</ele>
        <time>2020-09-20T08:59:53.000Z</time>
      </trkpt>
      <trkpt lat="43.59591" lon="3.72762">
        <ele>139.19599872</ele>
        <time>2020-09-20T08:59:54.000Z</time>
      </trkpt>
      <trkpt lat="43.59584" lon="3.72763">
        <ele>138.79599872</ele>
        <time>2020-09-20T08:59:55.000Z</time>
      </trkpt>
      <trkpt lat="43.59578" lon="3.72765">
        <ele>138.39599872</ele>
        <time>2020-09-20T08:59:56.000Z</time>
      </trkpt>
      <trkpt lat="43.59571" lon="3.72768">
        <ele>137.99599872</ele>
        <time>2020-09-20T08:59:57.000Z</time>
      </trkpt>
      <trkpt lat="43.59564" lon="3.72773">
        <ele>137.59599872</ele>
        <time>2020-09-20T08:59:58.000Z</time>
      </trkpt>
      <trkpt lat="43.59557" lon="3.72776">
        <ele>137.19599872</ele>
        <time>2020-09-20T08:59:59.000Z</time>
      </trkpt>
      <trkpt lat="43.59551" lon="3.72779">
        <ele>136.89820301911</ele>
        <time>2020-09-20T09:00:00.000Z</time>
      </trkpt>
      <trkpt lat="43.59545" lon="3.72783">
        <ele>136.6986023482</ele>
        <time>2020-09-20T09:00:01.000Z</time>
      </trkpt>
      <trkpt lat="43.5954" lon="3.72786">
        <ele>136.49900167728</ele>
        <time>2020-09-20T09:00:02.000Z</time>
      </trkpt>
      <trkpt lat="43.59534" lon="3.72789">
        <ele>136.29940100637</ele>
        <time>2020-09-20T09:00:03.000Z</time>
      </trkpt>
      <trkpt lat="43.59529" lon="3.72791">
        <ele>136.09980033546</ele>
        <time>2020-09-20T09:00:04.000Z</time>
      </trkpt>
      <trkpt lat="43.59523" lon="3.72793">
        <ele>135.90019966454</ele>
        <time>2020-09-20T09:00:05.000Z</time>
      </trkpt>
      <trkpt lat="43.59518" lon="3.72793">
        <ele>135.70059899363</ele>
        <time>2020-09-20T09:00:06.000Z</time>
      </trkpt>
      <trkpt lat="43.59515" lon="3.72793">
        <ele>135.50099832272</ele>
        <time>2020-09-20T09:00:07.000Z</time>
      </trkpt>
      <trkpt lat="43.59511" lon="3.72794">
        <ele>135.3013976518</ele>
        <time>2020-09-20T09:00:08.000Z</time>
      </trkpt>
      <trkpt lat="43.59509" lon="3.72797">
        <ele>135.10179698089</ele>
        <time>2020-09-20T09:00:09.000Z</time>
      </trkpt>
      <trkpt lat="43.59507" lon="3.728">
        <ele>135.04909790724</ele>
        <time>2020-09-20T09:00:10.000Z</time>
      </trkpt>
      <trkpt lat="43.59505" lon="3.72804">
        <ele>135.1492983723</ele>
        <time>2020-09-20T09:00:11.000Z</time>
      </trkpt>
      <trkpt lat="43.59503" lon="3.72808">
        <ele>135.24949883735</ele>
        <time>2020-09-20T09:00:12.000Z</time>
      </trkpt>
      <trkpt lat="43.595" lon="3.7281">
        <ele>135.34969930241</ele>
        <time>2020-09-20T09:00:13.000Z</time>
      </trkpt>
      <trkpt lat="43.59497" lon="3.72812">
        <ele>135.44989976747</ele>
        <time>2020-09-20T09:00:14.000Z</time>
      </trkpt>
      <trkpt lat="43.59494" lon="3.72815">
        <ele>135.55010023253</ele>
        <time>2020-09-20T09:00:15.000Z</time>
      </trkpt>
      <trkpt lat="43.59492" lon="3.72818">
        <ele>135.65030069759</ele>
        <time>2020-09-20T09:00:16.000Z</time>
      </trkpt>
      <trkpt lat="43.5949" lon="3.72822">
        <ele>135.75050116265</ele>
        <time>2020-09-20T09:00:17.000Z</time>
      </trkpt>
      <trkpt lat="43.59488" lon="3.72826">
        <ele>135.8507016277</ele>
        <time>2020-09-20T09:00:18.000Z</time>
      </trkpt>
      <trkpt lat="43.59487" lon="3.7283">
        <ele>135.95090209276</ele>
        <time>2020-09-20T09:00:19.000Z</time>
      </trkpt>
      <trkpt lat="43.59486" lon="3.72834">
        <ele>136</ele>
        <time>2020-09-20T09:00:20.000Z</time>
      </trkpt>
      <trkpt lat="43.59485" lon="3.72837">
        <ele>136</ele>
        <time>2020-09-20T09:00:21.000Z</time>
      </trkpt>
      <trkpt lat="43.59484" lon="3.7284">
        <ele>136</ele>
        <time>2020-09-20T09:00:22.000Z</time>
      </trkpt>
      <trkpt lat="43.59483" lon="3.72844">
        <ele>136</ele>
        <time>2020-09-20T09:00:23.000Z</time>
      </trkpt>
      <trkpt lat="43.59483" lon="3.72847">
        <ele>136</ele>
        <time>2020-09-20T09:00:24.000Z</time>
      </trkpt>
      <trkpt lat="43.59482" lon="3.7285">
        <ele>136</ele>
        <time>2020-09-20T09:00:25.000Z</time>
      </trkpt>
      <trkpt lat="43.59481" lon="3.72853">
        <ele>136</ele>
        <time>2020-09-20T09:00:26.000Z</time>
      </trkpt>
      <trkpt lat="43.5948" lon="3.72856">
        <ele>136</ele>
        <time>2020-09-20T09:00:27.000Z</time>
      </trkpt>
      <trkpt lat="43.59479" lon="3.7286">
        <ele>136</ele>
        <time>2020-09-20T09:00:28.000Z</time>
      </trkpt>
      <trkpt lat="43.59478" lon="3.72862">
        <ele>136</ele>
        <time>2020-09-20T09:00:29.000Z</time>
      </trkpt>
      <trkpt lat="43.59477" lon="3.72865">
        <ele>136.05100032</ele>
        <time>2020-09-20T09:00:30.000Z</time>
      </trkpt>
      <trkpt lat="43.59476" lon="3.72868">
        <ele>136.15100032</ele>
        <time>2020-09-20T09:00:31.000Z</time>
      </trkpt>
      <trkpt lat="43.59475" lon="3.72871">
        <ele>136.25100032</ele>
        <time>2020-09-20T09:00:32.000Z</time>
      </trkpt>
      <trkpt lat="43.59474" lon="3.72875">
        <ele>136.35100032</ele>
        <time>2020-09-20T09:00:33.000Z</time>
      </trkpt>
      <trkpt lat="43.59473" lon="3.72878">
        <ele>136.45100032</ele>
        <time>2020-09-20T09:00:34.000Z</time>
      </trkpt>
      <trkpt lat="43.59471" lon="3.72882">
        <ele>136.55100032</ele>
        <time>2020-09-20T09:00:35.000Z</time>
      </trkpt>
      <trkpt lat="43.5947" lon="3.72885">
        <ele>136.65100032</ele>
        <time>2020-09-20T09:00:36.000Z</time>
      </trkpt>
      <trkpt lat="43.59468" lon="3.72889">
        <ele>136.75100032</ele>
        <time>2020-09-20T09:00:37.000Z</time>
      </trkpt>
      <trkpt lat="43.59467" lon="3.72893">
        <ele>136.85100032</ele>
        <time>2020-09-20T09:00:38.000Z</time>
      </trkpt>
      <trkpt lat="43.59466" lon="3.72897">
        <ele>136.95100032</ele>
        <time>2020-09-20T09:00:39.000Z</time>
      </trkpt>
      <trkpt lat="43.59464" lon="3.72901">
        <ele>137.05100032</ele>
        <time>2020-09-20T09:00:40.000Z</time>
      </trkpt>
      <trkpt lat="43.59463" lon="3.72905">
        <ele>137.15100032</ele>
        <time>2020-09-20T09:00:41.000Z</time>
      </trkpt>
      <trkpt lat="43.59461" lon="3.72909">
        <ele>137.25100032</ele>
        <time>2020-09-20T09:00:42.000Z</time>
      </trkpt>
      <trkpt lat="43.59459" lon="3.72913">
        <ele>137.35100032</ele>
        <time>2020-09-20T09:00:43.000Z</time>
      </trkpt>
      <trkpt lat="43.59458" lon="3.72917">
        <ele>137.45100032</ele>
        <time>2020-09-20T09:00:44.000Z</time>
      </trkpt>
      <trkpt lat="43.59457" lon="3.72922">
        <ele>137.55100032</ele>
        <time>2020-09-20T09:00:45.000Z</time>
      </trkpt>
      <trkpt lat="43.59457" lon="3.72926">
        <ele>137.65100032</ele>
        <time>2020-09-20T09:00:46.000Z</time>
      </trkpt>
      <trkpt lat="43.59456" lon="3.7293">
        <ele>137.75100032</ele>
        <time>2020-09-20T09:00:47.000Z</time>
      </trkpt>
      <trkpt lat="43.59456" lon="3.72934">
        <ele>137.85100032</ele>
        <time>2020-09-20T09:00:48.000Z</time>
      </trkpt>
      <trkpt lat="43.59456" lon="3.72938">
        <ele>137.95100032</ele>
        <time>2020-09-20T09:00:49.000Z</time>
      </trkpt>
      <trkpt lat="43.59456" lon="3.72941">
        <ele>138.05100032</ele>
        <time>2020-09-20T09:00:50.000Z</time>
      </trkpt>
      <trkpt lat="43.59456" lon="3.72945">
        <ele>138.15100032</ele>
        <time>2020-09-20T09:00:51.000Z</time>
      </trkpt>
      <trkpt lat="43.59456" lon="3.72948">
        <ele>138.25100032</ele>
        <time>2020-09-20T09:00:52.000Z</time>
      </trkpt>
      <trkpt lat="43.59456" lon="3.72952">
        <ele>138.35100032</ele>
        <time>2020-09-20T09:00:53.000Z</time>
      </trkpt>
      <trkpt lat="43.59456" lon="3.72955">
        <ele>138.45100032</ele>
        <time>2020-09-20T09:00:54.000Z</time>
      </trkpt>
      <trkpt lat="43.59456" lon="3.72958">
        <ele>138.55100032</ele>
        <time>2020-09-20T09:00:55.000Z</time>
      </trkpt>
      <trkpt lat="43.59455" lon="3.72961">
        <ele>138.65100032</ele>
        <time>2020-09-20T09:00:56.000Z</time>
      </trkpt>
      <trkpt lat="43.59455" lon="3.72964">
        <ele>138.75100032</ele>
        <time>2020-09-20T09:00:57.000Z</time>
      </trkpt>
      <trkpt lat="43.59455" lon="3.72967">
        <ele>138.85100032</ele>
        <time>2020-09-20T09:00:58.000Z</time>
      </trkpt>
      <trkpt lat="43.59455" lon="3.7297">
        <ele>138.95100032</ele>
        <time>2020-09-20T09:00:59.000Z</time>
      </trkpt>
      <trkpt lat="43.59455" lon="3.72973">
        <ele>139.05100032</ele>
        <time>2020-09-20T09:01:00.000Z</time>
      </trkpt>
      <trkpt lat="43.59456" lon="3.72976">
        <ele>139.15100032</ele>
        <time>2020-09-20T09:01:01.000Z</time>
      </trkpt>
      <trkpt lat="43.59456" lon="3.72979">
        <ele>139.25100032</ele>
        <time>2020-09-20T09:01:02.000Z</time>
      </trkpt>
      <trkpt lat="43.59456" lon="3.72981">
        <ele>139.35100032</ele>
        <time>2020-09-20T09:01:03.000Z</time>
      </trkpt>
      <trkpt lat="43.59456" lon="3.72984">
        <ele>139.45100032</ele>
        <time>2020-09-20T09:01:04.000Z</time>
      </trkpt>
      <trkpt lat="43.59457" lon="3.72989">
        <ele>139.65100032</ele>
        <time>2020-09-20T09:01:06.000Z</time>
      </trkpt>
      <trkpt lat="43.59457" lon="3.72991">
        <ele>139.75100032</ele>
        <time>2020-09-20T09:01:07.000Z</time>
      </trkpt>
      <trkpt lat="43.59458" lon="3.72993">
        <ele>139.85100032</ele>
        <time>2020-09-20T09:01:08.000Z</time>
      </trkpt>
      <trkpt lat="43.5946" lon="3.72995">
        <ele>139.95100032</ele>
        <time>2020-09-20T09:01:09.000Z</time>
      </trkpt>
      <trkpt lat="43.59462" lon="3.72996">
        <ele>140.10200064</ele>
        <time>2020-09-20T09:01:10.000Z</time>
      </trkpt>
      <trkpt lat="43.59464" lon="3.72996">
        <ele>140.30200064</ele>
        <time>2020-09-20T09:01:11.000Z</time>
      </trkpt>
      <trkpt lat="43.59466" lon="3.72997">
        <ele>140.50200064</ele>
        <time>2020-09-20T09:01:12.000Z</time>
      </trkpt>
      <trkpt lat="43.59468" lon="3.72998">
        <ele>140.70200064</ele>
        <time>2020-09-20T09:01:13.000Z</time>
      </trkpt>
      <trkpt lat="43.5947" lon="3.72999">
        <ele>140.90200064</ele>
        <time>2020-09-20T09:01:14.000Z</time>
      </trkpt>
      <trkpt lat="43.59473" lon="3.72999">
        <ele>141.10200064</ele>
        <time>2020-09-20T09:01:15.000Z</time>
      </trkpt>
      <trkpt lat="43.59475" lon="3.73">
        <ele>141.30200064</ele>
        <time>2020-09-20T09:01:16.000Z</time>
      </trkpt>
      <trkpt lat="43.59477" lon="3.73001">
        <ele>141.50200064</ele>
        <time>2020-09-20T09:01:17.000Z</time>
      </trkpt>
      <trkpt lat="43.59479" lon="3.73001">
        <ele>141.70200064</ele>
        <time>2020-09-20T09:01:18.000Z</time>
      </trkpt>
      <trkpt lat="43.59482" lon="3.73002">
        <ele>141.90200064</ele>
        <time>2020-09-20T09:01:19.000Z</time>
      </trkpt>
      <trkpt lat="43.59484" lon="3.73002">
        <ele>142.05100032</ele>
        <time>2020-09-20T09:01:20.000Z</time>
      </trkpt>
      <trkpt lat="43.59486" lon="3.73002">
        <ele>142.15100032</ele>
        <time>2020-09-20T09:01:21.000Z</time>
      </trkpt>
      <trkpt lat="43.59488" lon="3.73003">
        <ele>142.25100032</ele>
        <time>2020-09-20T09:01:22.000Z</time>
      </trkpt>
      <trkpt lat="43.5949" lon="3.73004">
        <ele>142.35100032</ele>
        <time>2020-09-20T09:01:23.000Z</time>
      </trkpt>
      <trkpt lat="43.59492" lon="3.73004">
        <ele>142.45100032</ele>
        <time>2020-09-20T09:01:24.000Z</time>
      </trkpt>
      <trkpt lat="43.59494" lon="3.73005">
        <ele>142.55100032</ele>
        <time>2020-09-20T09:01:25.000Z</time>
      </trkpt>
      <trkpt lat="43.59496" lon="3.73006">
        <ele>142.65100032</ele>
        <time>2020-09-20T09:01:26.000Z</time>
      </trkpt>
      <trkpt lat="43.59499" lon="3.73006">
        <ele>142.75100032</ele>
        <time>2020-09-20T09:01:27.000Z</time>
      </trkpt>
      <trkpt lat="43.59501" lon="3.73007">
        <ele>142.85100032</ele>
        <time>2020-09-20T09:01:28.000Z</time>
      </trkpt>
      <trkpt lat="43.59503" lon="3.73008">
        <ele>142.95100032</ele>
        <time>2020-09-20T09:01:29.000Z</time>
      </trkpt>
      <trkpt lat="43.59505" lon="3.73009">
        <ele>143.05100032</ele>
        <time>2020-09-20T09:01:30.000Z</time>
      </trkpt>
      <trkpt lat="43.59507" lon="3.73009">
        <ele>143.15100032</ele>
        <time>2020-09-20T09:01:31.000Z</time>
      </trkpt>
      <trkpt lat="43.59509" lon="3.7301">
        <ele>143.25100032</ele>
        <time>2020-09-20T09:01:32.000Z</time>
      </trkpt>
      <trkpt lat="43.59511" lon="3.73011">
        <ele>143.35100032</ele>
        <time>2020-09-20T09:01:33.000Z</time>
      </trkpt>
      <trkpt lat="43.59513" lon="3.73012">
        <ele>143.45100032</ele>
        <time>2020-09-20T09:01:34.000Z</time>
      </trkpt>
      <trkpt lat="43.59515" lon="3.73012">
        <ele>143.55100032</ele>
        <time>2020-09-20T09:01:35.000Z</time>
      </trkpt>
      <trkpt lat="43.59517" lon="3.73013">
        <ele>143.65100032</ele>
        <time>2020-09-20T09:01:36.000Z</time>
      </trkpt>
      <trkpt lat="43.59519" lon="3.73014">
        <ele>143.75100032</ele>
        <time>2020-09-20T09:01:37.000Z</time>
      </trkpt>
      <trkpt lat="43.59521" lon="3.73015">
        <ele>143.85100032</ele>
        <time>2020-09-20T09:01:38.000Z</time>
      </trkpt>
      <trkpt lat="43.59523" lon="3.73016">
        <ele>143.95100032</ele>
        <time>2020-09-20T09:01:39.000Z</time>
      </trkpt>
      <trkpt lat="43.59525" lon="3.73017">
        <ele>144.05100032</ele>
        <time>2020-09-20T09:01:40.000Z</time>
      </trkpt>
      <trkpt lat="43.59527" lon="3.73018">
        <ele>144.15100032</ele>
        <time>2020-09-20T09:01:41.000Z</time>
      </trkpt>
      <trkpt lat="43.59529" lon="3.73019">
        <ele>144.25100032</ele>
        <time>2020-09-20T09:01:42.000Z</time>
      </trkpt>
      <trkpt lat="43.59531" lon="3.7302">
        <ele>144.35100032</ele>
        <time>2020-09-20T09:01:43.000Z</time>
      </trkpt>
      <trkpt lat="43.59533" lon="3.73021">
        <ele>144.45100032</ele>
        <time>2020-09-20T09:01:44.000Z</time>
      </trkpt>
      <trkpt lat="43.59534" lon="3.73022">
        <ele>144.55100032</ele>
        <time>2020-09-20T09:01:45.000Z</time>
      </trkpt>
      <trkpt lat="43.59536" lon="3.73025">
        <ele>144.65100032</ele>
        <time>2020-09-20T09:01:46.000Z</time>
      </trkpt>
      <trkpt lat="43.59536" lon="3.73028">
        <ele>144.75100032</ele>
        <time>2020-09-20T09:01:47.000Z</time>
      </trkpt>
      <trkpt lat="43.59536" lon="3.73031">
        <ele>144.85100032</ele>
        <time>2020-09-20T09:01:48.000Z</time>
      </trkpt>
      <trkpt lat="43.59536" lon="3.73033">
        <ele>144.95100032</ele>
        <time>2020-09-20T09:01:49.000Z</time>
      </trkpt>
      <trkpt lat="43.59535" lon="3.73036">
        <ele>145.05100032</ele>
        <time>2020-09-20T09:01:50.000Z</time>
      </trkpt>
      <trkpt lat="43.59534" lon="3.73038">
        <ele>145.15100032</ele>
        <time>2020-09-20T09:01:51.000Z</time>
      </trkpt>
      <trkpt lat="43.59533" lon="3.7304">
        <ele>145.25100032</ele>
        <time>2020-09-20T09:01:52.000Z</time>
      </trkpt>
      <trkpt lat="43.59531" lon="3.73042">
        <ele>145.35100032</ele>
        <time>2020-09-20T09:01:53.000Z</time>
      </trkpt>
      <trkpt lat="43.59529" lon="3.73044">
        <ele>145.45100032</ele>
        <time>2020-09-20T09:01:54.000Z</time>
      </trkpt>
      <trkpt lat="43.59527" lon="3.73045">
        <ele>145.55100032</ele>
        <time>2020-09-20T09:01:55.000Z</time>
      </trkpt>
      <trkpt lat="43.59525" lon="3.73047">
        <ele>145.65100032</ele>
        <time>2020-09-20T09:01:56.000Z</time>
      </trkpt>
      <trkpt lat="43.59523" lon="3.73048">
        <ele>145.75100032</ele>
        <time>2020-09-20T09:01:57.000Z</time>
      </trkpt>
      <trkpt lat="43.59521" lon="3.7305">
        <ele>145.85100032</ele>
        <time>2020-09-20T09:01:58.000Z</time>
      </trkpt>
      <trkpt lat="43.59518" lon="3.73051">
        <ele>145.95100032</ele>
        <time>2020-09-20T09:01:59.000Z</time>
      </trkpt>
      <trkpt lat="43.59516" lon="3.73052">
        <ele>146</ele>
        <time>2020-09-20T09:02:00.000Z</time>
      </trkpt>
      <trkpt lat="43.59513" lon="3.73054">
        <ele>146</ele>
        <time>2020-09-20T09:02:01.000Z</time>
      </trkpt>
      <trkpt lat="43.59512" lon="3.73055">
        <ele>146</ele>
        <time>2020-09-20T09:02:02.000Z</time>
      </trkpt>
      <trkpt lat="43.59509" lon="3.73057">
        <ele>146</ele>
        <time>2020-09-20T09:02:03.000Z</time>
      </trkpt>
      <trkpt lat="43.59507" lon="3.73059">
        <ele>146</ele>
        <time>2020-09-20T09:02:04.000Z</time>
      </trkpt>
      <trkpt lat="43.59505" lon="3.73061">
        <ele>146</ele>
        <time>2020-09-20T09:02:05.000Z</time>
      </trkpt>
      <trkpt lat="43.59502" lon="3.73063">
        <ele>146</ele>
        <time>2020-09-20T09:02:06.000Z</time>
      </trkpt>
      <trkpt lat="43.595" lon="3.73065">
        <ele>146</ele>
        <time>2020-09-20T09:02:07.000Z</time>
      </trkpt>
      <trkpt lat="43.59498" lon="3.73066">
        <ele>146</ele>
        <time>2020-09-20T09:02:08.000Z</time>
      </trkpt>
      <trkpt lat="43.59495" lon="3.73068">
        <ele>146</ele>
        <time>2020-09-20T09:02:09.000Z</time>
      </trkpt>
      <trkpt lat="43.59493" lon="3.7307">
        <ele>146.05074660322</ele>
        <time>2020-09-20T09:02:10.000Z</time>
      </trkpt>
      <trkpt lat="43.5949" lon="3.73071">
        <ele>146.15024912247</ele>
        <time>2020-09-20T09:02:11.000Z</time>
      </trkpt>
      <trkpt lat="43.59488" lon="3.73072">
        <ele>146.24975164171</ele>
        <time>2020-09-20T09:02:12.000Z</time>
      </trkpt>
      <trkpt lat="43.59486" lon="3.73073">
        <ele>146.34925416096</ele>
        <time>2020-09-20T09:02:13.000Z</time>
      </trkpt>
      <trkpt lat="43.59483" lon="3.73075">
        <ele>146.4487566802</ele>
        <time>2020-09-20T09:02:14.000Z</time>
      </trkpt>
      <trkpt lat="43.59481" lon="3.73076">
        <ele>146.54825919945</ele>
        <time>2020-09-20T09:02:15.000Z</time>
      </trkpt>
      <trkpt lat="43.59478" lon="3.73077">
        <ele>146.64776171869</ele>
        <time>2020-09-20T09:02:16.000Z</time>
      </trkpt>
      <trkpt lat="43.59475" lon="3.73079">
        <ele>146.74726423794</ele>
        <time>2020-09-20T09:02:17.000Z</time>
      </trkpt>
      <trkpt lat="43.59473" lon="3.7308">
        <ele>146.84676675718</ele>
        <time>2020-09-20T09:02:18.000Z</time>
      </trkpt>
      <trkpt lat="43.5947" lon="3.73082">
        <ele>146.94626927642</ele>
        <time>2020-09-20T09:02:19.000Z</time>
      </trkpt>
      <trkpt lat="43.59467" lon="3.73083">
        <ele>147.04623178413</ele>
        <time>2020-09-20T09:02:20.000Z</time>
      </trkpt>
      <trkpt lat="43.59465" lon="3.73085">
        <ele>147.14673426437</ele>
        <time>2020-09-20T09:02:21.000Z</time>
      </trkpt>
      <trkpt lat="43.59462" lon="3.73086">
        <ele>147.24723674461</ele>
        <time>2020-09-20T09:02:22.000Z</time>
      </trkpt>
      <trkpt lat="43.59459" lon="3.73088">
        <ele>147.34773922485</ele>
        <time>2020-09-20T09:02:23.000Z</time>
      </trkpt>
      <trkpt lat="43.59456" lon="3.7309">
        <ele>147.44824170509</ele>
        <time>2020-09-20T09:02:24.000Z</time>
      </trkpt>
      <trkpt lat="43.59454" lon="3.73091">
        <ele>147.54874418533</ele>
        <time>2020-09-20T09:02:25.000Z</time>
      </trkpt>
      <trkpt lat="43.59451" lon="3.73092">
        <ele>147.64924666557</ele>
        <time>2020-09-20T09:02:26.000Z</time>
      </trkpt>
      <trkpt lat="43.59448" lon="3.73093">
        <ele>147.74974914581</ele>
        <time>2020-09-20T09:02:27.000Z</time>
      </trkpt>
      <trkpt lat="43.59445" lon="3.73094">
        <ele>147.85025162605</ele>
        <time>2020-09-20T09:02:28.000Z</time>
      </trkpt>
      <trkpt lat="43.59443" lon="3.73096">
        <ele>147.95075410629</ele>
        <time>2020-09-20T09:02:29.000Z</time>
      </trkpt>
      <trkpt lat="43.5944" lon="3.73097">
        <ele>148</ele>
        <time>2020-09-20T09:02:30.000Z</time>
      </trkpt>
      <trkpt lat="43.59437" lon="3.73098">
        <ele>148</ele>
        <time>2020-09-20T09:02:31.000Z</time>
      </trkpt>
      <trkpt lat="43.59435" lon="3.73099">
        <ele>148</ele>
        <time>2020-09-20T09:02:32.000Z</time>
      </trkpt>
      <trkpt lat="43.59432" lon="3.73101">
        <ele>148</ele>
        <time>2020-09-20T09:02:33.000Z</time>
      </trkpt>
      <trkpt lat="43.59429" lon="3.73102">
        <ele>148</ele>
        <time>2020-09-20T09:02:34.000Z</time>
      </trkpt>
      <trkpt lat="43.59425" lon="3.73104">
        <ele>148</ele>
        <time>2020-09-20T09:02:35.000Z</time>
      </trkpt>
      <trkpt lat="43.59422" lon="3.73105">
        <ele>148</ele>
        <time>2020-09-20T09:02:36.000Z</time>
      </trkpt>
      <trkpt lat="43.59419" lon="3.73107">
        <ele>148</ele>
        <time>2020-09-20T09:02:37.000Z</time>
      </trkpt>
      <trkpt lat="43.59415" lon="3.73108">
        <ele>148</ele>
        <time>2020-09-20T09:02:38.000Z</time>
      </trkpt>
      <trkpt lat="43.59412" lon="3.7311">
        <ele>148</ele>
        <time>2020-09-20T09:02:39.000Z</time>
      </trkpt>
      <trkpt lat="43.59408" lon="3.73111">
        <ele>148</ele>
        <time>2020-09-20T09:02:40.000Z</time>
      </trkpt>
      <trkpt lat="43.59404" lon="3.73113">
        <ele>148</ele>
        <time>2020-09-20T09:02:41.000Z</time>
      </trkpt>
      <trkpt lat="43.594" lon="3.73115">
        <ele>148</ele>
        <time>2020-09-20T09:02:42.000Z</time>
      </trkpt>
      <trkpt lat="43.59397" lon="3.73116">
        <ele>148</ele>
        <time>2020-09-20T09:02:43.000Z</time>
      </trkpt>
      <trkpt lat="43.59393" lon="3.73118">
        <ele>148</ele>
        <time>2020-09-20T09:02:44.000Z</time>
      </trkpt>
      <trkpt lat="43.59389" lon="3.7312">
        <ele>148</ele>
        <time>2020-09-20T09:02:45.000Z</time>
      </trkpt>
      <trkpt lat="43.59385" lon="3.73121">
        <ele>148</ele>
        <time>2020-09-20T09:02:46.000Z</time>
      </trkpt>
      <trkpt lat="43.59381" lon="3.73123">
        <ele>148</ele>
        <time>2020-09-20T09:02:47.000Z</time>
      </trkpt>
      <trkpt lat="43.59377" lon="3.73124">
        <ele>148</ele>
        <time>2020-09-20T09:02:48.000Z</time>
      </trkpt>
      <trkpt lat="43.59373" lon="3.73125">
        <ele>148</ele>
        <time>2020-09-20T09:02:49.000Z</time>
      </trkpt>
      <trkpt lat="43.59369" lon="3.73127">
        <ele>148</ele>
        <time>2020-09-20T09:02:50.000Z</time>
      </trkpt>
      <trkpt lat="43.59365" lon="3.73128">
        <ele>148</ele>
        <time>2020-09-20T09:02:51.000Z</time>
      </trkpt>
      <trkpt lat="43.59362" lon="3.73129">
        <ele>148</ele>
        <time>2020-09-20T09:02:52.000Z</time>
      </trkpt>
      <trkpt lat="43.59358" lon="3.73129">
        <ele>148</ele>
        <time>2020-09-20T09:02:53.000Z</time>
      </trkpt>
      <trkpt lat="43.59355" lon="3.7313">
        <ele>148</ele>
        <time>2020-09-20T09:02:54.000Z</time>
      </trkpt>
      <trkpt lat="43.59352" lon="3.73131">
        <ele>148</ele>
        <time>2020-09-20T09:02:55.000Z</time>
      </trkpt>
      <trkpt lat="43.59349" lon="3.73132">
        <ele>148</ele>
        <time>2020-09-20T09:02:56.000Z</time>
      </trkpt>
      <trkpt lat="43.59346" lon="3.73132">
        <ele>148</ele>
        <time>2020-09-20T09:02:57.000Z</time>
      </trkpt>
      <trkpt lat="43.59343" lon="3.73133">
        <ele>148</ele>
        <time>2020-09-20T09:02:58.000Z</time>
      </trkpt>
      <trkpt lat="43.5934" lon="3.73134">
        <ele>148</ele>
        <time>2020-09-20T09:02:59.000Z</time>
      </trkpt>
      <trkpt lat="43.59338" lon="3.73134">
        <ele>148.04814444875</ele>
        <time>2020-09-20T09:03:00.000Z</time>
      </trkpt>
      <trkpt lat="43.59335" lon="3.73135">
        <ele>148.14844538365</ele>
        <time>2020-09-20T09:03:01.000Z</time>
      </trkpt>
      <trkpt lat="43.59332" lon="3.73136">
        <ele>148.24874631855</ele>
        <time>2020-09-20T09:03:02.000Z</time>
      </trkpt>
      <trkpt lat="43.59329" lon="3.73136">
        <ele>148.34904725346</ele>
        <time>2020-09-20T09:03:03.000Z</time>
      </trkpt>
      <trkpt lat="43.59326" lon="3.73137">
        <ele>148.44934818836</ele>
        <time>2020-09-20T09:03:04.000Z</time>
      </trkpt>
      <trkpt lat="43.59323" lon="3.73138">
        <ele>148.54964912326</ele>
        <time>2020-09-20T09:03:05.000Z</time>
      </trkpt>
      <trkpt lat="43.59321" lon="3.73138">
        <ele>148.64995005816</ele>
        <time>2020-09-20T09:03:06.000Z</time>
      </trkpt>
      <trkpt lat="43.59318" lon="3.73138">
        <ele>148.75025099306</ele>
        <time>2020-09-20T09:03:07.000Z</time>
      </trkpt>
      <trkpt lat="43.59315" lon="3.73139">
        <ele>148.85055192796</ele>
        <time>2020-09-20T09:03:08.000Z</time>
      </trkpt>
      <trkpt lat="43.59313" lon="3.73139">
        <ele>148.95085286286</ele>
        <time>2020-09-20T09:03:09.000Z</time>
      </trkpt>
      <trkpt lat="43.5931" lon="3.73139">
        <ele>149.05100032</ele>
        <time>2020-09-20T09:03:10.000Z</time>
      </trkpt>
      <trkpt lat="43.59308" lon="3.73139">
        <ele>149.15100032</ele>
        <time>2020-09-20T09:03:11.000Z</time>
      </trkpt>
      <trkpt lat="43.59306" lon="3.7314">
        <ele>149.25100032</ele>
        <time>2020-09-20T09:03:12.000Z</time>
      </trkpt>
      <trkpt lat="43.59303" lon="3.73141">
        <ele>149.35100032</ele>
        <time>2020-09-20T09:03:13.000Z</time>
      </trkpt>
      <trkpt lat="43.59301" lon="3.73143">
        <ele>149.45100032</ele>
        <time>2020-09-20T09:03:14.000Z</time>
      </trkpt>
      <trkpt lat="43.59299" lon="3.73146">
        <ele>149.55100032</ele>
        <time>2020-09-20T09:03:15.000Z</time>
      </trkpt>
      <trkpt lat="43.59298" lon="3.7315">
        <ele>149.65100032</ele>
        <time>2020-09-20T09:03:16.000Z</time>
      </trkpt>
      <trkpt lat="43.59296" lon="3.73153">
        <ele>149.75100032</ele>
        <time>2020-09-20T09:03:17.000Z</time>
      </trkpt>
      <trkpt lat="43.59295" lon="3.73157">
        <ele>149.85100032</ele>
        <time>2020-09-20T09:03:18.000Z</time>
      </trkpt>
      <trkpt lat="43.59294" lon="3.73161">
        <ele>149.95100032</ele>
        <time>2020-09-20T09:03:19.000Z</time>
      </trkpt>
      <trkpt lat="43.59293" lon="3.73165">
        <ele>150</ele>
        <time>2020-09-20T09:03:20.000Z</time>
      </trkpt>
      <trkpt lat="43.59292" lon="3.73168">
        <ele>150</ele>
        <time>2020-09-20T09:03:21.000Z</time>
      </trkpt>
      <trkpt lat="43.59291" lon="3.73172">
        <ele>150</ele>
        <time>2020-09-20T09:03:22.000Z</time>
      </trkpt>
      <trkpt lat="43.59289" lon="3.73175">
        <ele>150</ele>
        <time>2020-09-20T09:03:23.000Z</time>
      </trkpt>
      <trkpt lat="43.59288" lon="3.73178">
        <ele>150</ele>
        <time>2020-09-20T09:03:24.000Z</time>
      </trkpt>
      <trkpt lat="43.59287" lon="3.73181">
        <ele>150</ele>
        <time>2020-09-20T09:03:25.000Z</time>
      </trkpt>
      <trkpt lat="43.59285" lon="3.73184">
        <ele>150</ele>
        <time>2020-09-20T09:03:26.000Z</time>
      </trkpt>
      <trkpt lat="43.59284" lon="3.73187">
        <ele>150</ele>
        <time>2020-09-20T09:03:27.000Z</time>
      </trkpt>
      <trkpt lat="43.59282" lon="3.7319">
        <ele>150</ele>
        <time>2020-09-20T09:03:28.000Z</time>
      </trkpt>
      <trkpt lat="43.59281" lon="3.73194">
        <ele>150</ele>
        <time>2020-09-20T09:03:29.000Z</time>
      </trkpt>
      <trkpt lat="43.59279" lon="3.73197">
        <ele>149.94899968</ele>
        <time>2020-09-20T09:03:30.000Z</time>
      </trkpt>
      <trkpt lat="43.59277" lon="3.73201">
        <ele>149.84899968</ele>
        <time>2020-09-20T09:03:31.000Z</time>
      </trkpt>
      <trkpt lat="43.59275" lon="3.73205">
        <ele>149.74899968</ele>
        <time>2020-09-20T09:03:32.000Z</time>
      </trkpt>
      <trkpt lat="43.59273" lon="3.73209">
        <ele>149.64899968</ele>
        <time>2020-09-20T09:03:33.000Z</time>
      </trkpt>
      <trkpt lat="43.59272" lon="3.73214">
        <ele>149.54899968</ele>
        <time>2020-09-20T09:03:34.000Z</time>
      </trkpt>
      <trkpt lat="43.5927" lon="3.73219">
        <ele>149.44899968</ele>
        <time>2020-09-20T09:03:35.000Z</time>
      </trkpt>
      <trkpt lat="43.59267" lon="3.73224">
        <ele>149.34899968</ele>
        <time>2020-09-20T09:03:36.000Z</time>
      </trkpt>
      <trkpt lat="43.59265" lon="3.73229">
        <ele>149.24899968</ele>
        <time>2020-09-20T09:03:37.000Z</time>
      </trkpt>
      <trkpt lat="43.59263" lon="3.73234">
        <ele>149.14899968</ele>
        <time>2020-09-20T09:03:38.000Z</time>
      </trkpt>
      <trkpt lat="43.59261" lon="3.7324">
        <ele>149.04899968</ele>
        <time>2020-09-20T09:03:39.000Z</time>
      </trkpt>
      <trkpt lat="43.59258" lon="3.73245">
        <ele>149</ele>
        <time>2020-09-20T09:03:40.000Z</time>
      </trkpt>
      <trkpt lat="43.59256" lon="3.73249">
        <ele>149</ele>
        <time>2020-09-20T09:03:41.000Z</time>
      </trkpt>
      <trkpt lat="43.59253" lon="3.73253">
        <ele>149</ele>
        <time>2020-09-20T09:03:42.000Z</time>
      </trkpt>
      <trkpt lat="43.5925" lon="3.73258">
        <ele>149</ele>
        <time>2020-09-20T09:03:43.000Z</time>
      </trkpt>
      <trkpt lat="43.59248" lon="3.73262">
        <ele>149</ele>
        <time>2020-09-20T09:03:44.000Z</time>
      </trkpt>
      <trkpt lat="43.59246" lon="3.73265">
        <ele>149</ele>
        <time>2020-09-20T09:03:45.000Z</time>
      </trkpt>
      <trkpt lat="43.59244" lon="3.73268">
        <ele>149</ele>
        <time>2020-09-20T09:03:46.000Z</time>
      </trkpt>
      <trkpt lat="43.59242" lon="3.73273">
        <ele>149</ele>
        <time>2020-09-20T09:03:47.000Z</time>
      </trkpt>
      <trkpt lat="43.5924" lon="3.73278">
        <ele>149</ele>
        <time>2020-09-20T09:03:48.000Z</time>
      </trkpt>
      <trkpt lat="43.59238" lon="3.73282">
        <ele>149</ele>
        <time>2020-09-20T09:03:49.000Z</time>
      </trkpt>
      <trkpt lat="43.59237" lon="3.73286">
        <ele>148.97633711934</ele>
        <time>2020-09-20T09:03:50.000Z</time>
      </trkpt>
      <trkpt lat="43.59234" lon="3.73289">
        <ele>148.87345646091</ele>
        <time>2020-09-20T09:03:51.000Z</time>
      </trkpt>
      <trkpt lat="43.59231" lon="3.73293">
        <ele>148.77057580247</ele>
        <time>2020-09-20T09:03:52.000Z</time>
      </trkpt>
      <trkpt lat="43.59229" lon="3.73296">
        <ele>148.66769514403</ele>
        <time>2020-09-20T09:03:53.000Z</time>
      </trkpt>
      <trkpt lat="43.59227" lon="3.73298">
        <ele>148.5648144856</ele>
        <time>2020-09-20T09:03:54.000Z</time>
      </trkpt>
      <trkpt lat="43.59225" lon="3.73301">
        <ele>148.46193382716</ele>
        <time>2020-09-20T09:03:55.000Z</time>
      </trkpt>
      <trkpt lat="43.59224" lon="3.73305">
        <ele>148.35905316872</ele>
        <time>2020-09-20T09:03:56.000Z</time>
      </trkpt>
      <trkpt lat="43.59225" lon="3.73311">
        <ele>148.15329185185</ele>
        <time>2020-09-20T09:03:58.000Z</time>
      </trkpt>
      <trkpt lat="43.59228" lon="3.73317">
        <ele>148</ele>
        <time>2020-09-20T09:04:00.000Z</time>
      </trkpt>
      <trkpt lat="43.59231" lon="3.73321">
        <ele>148</ele>
        <time>2020-09-20T09:04:01.000Z</time>
      </trkpt>
      <trkpt lat="43.59234" lon="3.73325">
        <ele>148</ele>
        <time>2020-09-20T09:04:02.000Z</time>
      </trkpt>
      <trkpt lat="43.59238" lon="3.73328">
        <ele>148</ele>
        <time>2020-09-20T09:04:03.000Z</time>
      </trkpt>
      <trkpt lat="43.5924" lon="3.73331">
        <ele>148</ele>
        <time>2020-09-20T09:04:04.000Z</time>
      </trkpt>
      <trkpt lat="43.59242" lon="3.73333">
        <ele>148</ele>
        <time>2020-09-20T09:04:05.000Z</time>
      </trkpt>
      <trkpt lat="43.59246" lon="3.73333">
        <ele>148</ele>
        <time>2020-09-20T09:04:07.000Z</time>
      </trkpt>
      <trkpt lat="43.59248" lon="3.73333">
        <ele>148</ele>
        <time>2020-09-20T09:04:08.000Z</time>
      </trkpt>
      <trkpt lat="43.59251" lon="3.73334">
        <ele>148</ele>
        <time>2020-09-20T09:04:09.000Z</time>
      </trkpt>
      <trkpt lat="43.59253" lon="3.73336">
        <ele>148</ele>
        <time>2020-09-20T09:04:10.000Z</time>
      </trkpt>
      <trkpt lat="43.59257" lon="3.73338">
        <ele>148</ele>
        <time>2020-09-20T09:04:11.000Z</time>
      </trkpt>
      <trkpt lat="43.59261" lon="3.73341">
        <ele>148</ele>
        <time>2020-09-20T09:04:12.000Z</time>
      </trkpt>
      <trkpt lat="43.59264" lon="3.73343">
        <ele>148</ele>
        <time>2020-09-20T09:04:13.000Z</time>
      </trkpt>
      <trkpt lat="43.59267" lon="3.73344">
        <ele>148</ele>
        <time>2020-09-20T09:04:14.000Z</time>
      </trkpt>
      <trkpt lat="43.59271" lon="3.73344">
        <ele>148</ele>
        <time>2020-09-20T09:04:15.000Z</time>
      </trkpt>
      <trkpt lat="43.59274" lon="3.73344">
        <ele>148</ele>
        <time>2020-09-20T09:04:16.000Z</time>
      </trkpt>
      <trkpt lat="43.59277" lon="3.73345">
        <ele>148</ele>
        <time>2020-09-20T09:04:17.000Z</time>
      </trkpt>
      <trkpt lat="43.59281" lon="3.73346">
        <ele>148</ele>
        <time>2020-09-20T09:04:18.000Z</time>
      </trkpt>
      <trkpt lat="43.59284" lon="3.73347">
        <ele>148</ele>
        <time>2020-09-20T09:04:19.000Z</time>
      </trkpt>
      <trkpt lat="43.59287" lon="3.73347">
        <ele>148</ele>
        <time>2020-09-20T09:04:20.000Z</time>
      </trkpt>
      <trkpt lat="43.5929" lon="3.73348">
        <ele>148</ele>
        <time>2020-09-20T09:04:21.000Z</time>
      </trkpt>
      <trkpt lat="43.59293" lon="3.73348">
        <ele>148</ele>
        <time>2020-09-20T09:04:22.000Z</time>
      </trkpt>
      <trkpt lat="43.59296" lon="3.73349">
        <ele>148</ele>
        <time>2020-09-20T09:04:23.000Z</time>
      </trkpt>
      <trkpt lat="43.59299" lon="3.73351">
        <ele>148</ele>
        <time>2020-09-20T09:04:24.000Z</time>
      </trkpt>
      <trkpt lat="43.59302" lon="3.73353">
        <ele>148</ele>
        <time>2020-09-20T09:04:25.000Z</time>
      </trkpt>
      <trkpt lat="43.59305" lon="3.73354">
        <ele>148</ele>
        <time>2020-09-20T09:04:26.000Z</time>
      </trkpt>
      <trkpt lat="43.59308" lon="3.73356">
        <ele>148</ele>
        <time>2020-09-20T09:04:27.000Z</time>
      </trkpt>
      <trkpt lat="43.59311" lon="3.73357">
        <ele>148</ele>
        <time>2020-09-20T09:04:28.000Z</time>
      </trkpt>
      <trkpt lat="43.59313" lon="3.73358">
        <ele>148</ele>
        <time>2020-09-20T09:04:29.000Z</time>
      </trkpt>
      <trkpt lat="43.59315" lon="3.73358">
        <ele>148.02265770623</ele>
        <time>2020-09-20T09:04:30.000Z</time>
      </trkpt>
      <trkpt lat="43.59318" lon="3.73359">
        <ele>148.12564428403</ele>
        <time>2020-09-20T09:04:31.000Z</time>
      </trkpt>
      <trkpt lat="43.5932" lon="3.7336">
        <ele>148.22863086183</ele>
        <time>2020-09-20T09:04:32.000Z</time>
      </trkpt>
      <trkpt lat="43.59322" lon="3.73362">
        <ele>148.33161743963</ele>
        <time>2020-09-20T09:04:33.000Z</time>
      </trkpt>
      <trkpt lat="43.59325" lon="3.73363">
        <ele>148.43460401743</ele>
        <time>2020-09-20T09:04:34.000Z</time>
      </trkpt>
      <trkpt lat="43.59327" lon="3.73363">
        <ele>148.53759059523</ele>
        <time>2020-09-20T09:04:35.000Z</time>
      </trkpt>
      <trkpt lat="43.5933" lon="3.73364">
        <ele>148.64057717303</ele>
        <time>2020-09-20T09:04:36.000Z</time>
      </trkpt>
      <trkpt lat="43.59332" lon="3.73366">
        <ele>148.74356375083</ele>
        <time>2020-09-20T09:04:37.000Z</time>
      </trkpt>
      <trkpt lat="43.59334" lon="3.73368">
        <ele>148.84655032863</ele>
        <time>2020-09-20T09:04:38.000Z</time>
      </trkpt>
      <trkpt lat="43.59335" lon="3.73372">
        <ele>148.94953690643</ele>
        <time>2020-09-20T09:04:39.000Z</time>
      </trkpt>
      <trkpt lat="43.59336" lon="3.73375">
        <ele>149</ele>
        <time>2020-09-20T09:04:40.000Z</time>
      </trkpt>
      <trkpt lat="43.59335" lon="3.73379">
        <ele>149</ele>
        <time>2020-09-20T09:04:41.000Z</time>
      </trkpt>
      <trkpt lat="43.59333" lon="3.73383">
        <ele>149</ele>
        <time>2020-09-20T09:04:42.000Z</time>
      </trkpt>
      <trkpt lat="43.59331" lon="3.73386">
        <ele>149</ele>
        <time>2020-09-20T09:04:43.000Z</time>
      </trkpt>
      <trkpt lat="43.59328" lon="3.73389">
        <ele>149</ele>
        <time>2020-09-20T09:04:44.000Z</time>
      </trkpt>
      <trkpt lat="43.59326" lon="3.73393">
        <ele>149</ele>
        <time>2020-09-20T09:04:45.000Z</time>
      </trkpt>
      <trkpt lat="43.59324" lon="3.73395">
        <ele>149</ele>
        <time>2020-09-20T09:04:46.000Z</time>
      </trkpt>
      <trkpt lat="43.59322" lon="3.73398">
        <ele>149</ele>
        <time>2020-09-20T09:04:47.000Z</time>
      </trkpt>
      <trkpt lat="43.59321" lon="3.73401">
        <ele>149</ele>
        <time>2020-09-20T09:04:48.000Z</time>
      </trkpt>
      <trkpt lat="43.59319" lon="3.73404">
        <ele>149</ele>
        <time>2020-09-20T09:04:49.000Z</time>
      </trkpt>
      <trkpt lat="43.59317" lon="3.73406">
        <ele>149.05100032</ele>
        <time>2020-09-20T09:04:50.000Z</time>
      </trkpt>
      <trkpt lat="43.59315" lon="3.73408">
        <ele>149.15100032</ele>
        <time>2020-09-20T09:04:51.000Z</time>
      </trkpt>
      <trkpt lat="43.59312" lon="3.73409">
        <ele>149.25100032</ele>
        <time>2020-09-20T09:04:52.000Z</time>
      </trkpt>
      <trkpt lat="43.5931" lon="3.7341">
        <ele>149.35100032</ele>
        <time>2020-09-20T09:04:53.000Z</time>
      </trkpt>
      <trkpt lat="43.59308" lon="3.7341">
        <ele>149.45100032</ele>
        <time>2020-09-20T09:04:54.000Z</time>
      </trkpt>
      <trkpt lat="43.59304" lon="3.7341">
        <ele>149.65100032</ele>
        <time>2020-09-20T09:04:56.000Z</time>
      </trkpt>
      <trkpt lat="43.59302" lon="3.73408">
        <ele>149.75100032</ele>
        <time>2020-09-20T09:04:57.000Z</time>
      </trkpt>
      <trkpt lat="43.59301" lon="3.73407">
        <ele>149.85100032</ele>
        <time>2020-09-20T09:04:58.000Z</time>
      </trkpt>
      <trkpt lat="43.59297" lon="3.73406">
        <ele>150</ele>
        <time>2020-09-20T09:05:00.000Z</time>
      </trkpt>
      <trkpt lat="43.59294" lon="3.73404">
        <ele>150</ele>
        <time>2020-09-20T09:05:01.000Z</time>
      </trkpt>
      <trkpt lat="43.59291" lon="3.73402">
        <ele>150</ele>
        <time>2020-09-20T09:05:02.000Z</time>
      </trkpt>
      <trkpt lat="43.59287" lon="3.73401">
        <ele>150</ele>
        <time>2020-09-20T09:05:03.000Z</time>
      </trkpt>
      <trkpt lat="43.59283" lon="3.73399">
        <ele>150</ele>
        <time>2020-09-20T09:05:04.000Z</time>
      </trkpt>
      <trkpt lat="43.59279" lon="3.73398">
        <ele>150</ele>
        <time>2020-09-20T09:05:05.000Z</time>
      </trkpt>
      <trkpt lat="43.59275" lon="3.73396">
        <ele>150</ele>
        <time>2020-09-20T09:05:06.000Z</time>
      </trkpt>
      <trkpt lat="43.59272" lon="3.73394">
        <ele>150</ele>
        <time>2020-09-20T09:05:07.000Z</time>
      </trkpt>
      <trkpt lat="43.59269" lon="3.73393">
        <ele>150</ele>
        <time>2020-09-20T09:05:08.000Z</time>
      </trkpt>
      <trkpt lat="43.59265" lon="3.73391">
        <ele>150</ele>
        <time>2020-09-20T09:05:09.000Z</time>
      </trkpt>
      <trkpt lat="43.59262" lon="3.7339">
        <ele>149.94899968</ele>
        <time>2020-09-20T09:05:10.000Z</time>
      </trkpt>
      <trkpt lat="43.59258" lon="3.73389">
        <ele>149.84899968</ele>
        <time>2020-09-20T09:05:11.000Z</time>
      </trkpt>
      <trkpt lat="43.59248" lon="3.73382">
        <ele>149.64899968</ele>
        <time>2020-09-20T09:05:13.000Z</time>
      </trkpt>
      <trkpt lat="43.59238" lon="3.73372">
        <ele>149.44899968</ele>
        <time>2020-09-20T09:05:15.000Z</time>
      </trkpt>
      <trkpt lat="43.59226" lon="3.73369">
        <ele>149.24899968</ele>
        <time>2020-09-20T09:05:17.000Z</time>
      </trkpt>
      <trkpt lat="43.59215" lon="3.73368">
        <ele>149.04899968</ele>
        <time>2020-09-20T09:05:19.000Z</time>
      </trkpt>
      <trkpt lat="43.59204" lon="3.73365">
        <ele>148.84899968</ele>
        <time>2020-09-20T09:05:21.000Z</time>
      </trkpt>
      <trkpt lat="43.59194" lon="3.73362">
        <ele>148.64899968</ele>
        <time>2020-09-20T09:05:23.000Z</time>
      </trkpt>
      <trkpt lat="43.59185" lon="3.73359">
        <ele>148.44899968</ele>
        <time>2020-09-20T09:05:25.000Z</time>
      </trkpt>
      <trkpt lat="43.59179" lon="3.7336">
        <ele>148.24899968</ele>
        <time>2020-09-20T09:05:27.000Z</time>
      </trkpt>
      <trkpt lat="43.59171" lon="3.73365">
        <ele>147.94899968</ele>
        <time>2020-09-20T09:05:30.000Z</time>
      </trkpt>
      <trkpt lat="43.59168" lon="3.73367">
        <ele>147.84899968</ele>
        <time>2020-09-20T09:05:31.000Z</time>
      </trkpt>
      <trkpt lat="43.59164" lon="3.7337">
        <ele>147.74899968</ele>
        <time>2020-09-20T09:05:32.000Z</time>
      </trkpt>
      <trkpt lat="43.59161" lon="3.73372">
        <ele>147.64899968</ele>
        <time>2020-09-20T09:05:33.000Z</time>
      </trkpt>
      <trkpt lat="43.59159" lon="3.73373">
        <ele>147.54899968</ele>
        <time>2020-09-20T09:05:34.000Z</time>
      </trkpt>
      <trkpt lat="43.59156" lon="3.73375">
        <ele>147.44899968</ele>
        <time>2020-09-20T09:05:35.000Z</time>
      </trkpt>
      <trkpt lat="43.59145" lon="3.73382">
        <ele>147.14899968</ele>
        <time>2020-09-20T09:05:38.000Z</time>
      </trkpt>
      <trkpt lat="43.59132" lon="3.73389">
        <ele>146.69799936</ele>
        <time>2020-09-20T09:05:41.000Z</time>
      </trkpt>
      <trkpt lat="43.59122" lon="3.73396">
        <ele>146.29799936</ele>
        <time>2020-09-20T09:05:43.000Z</time>
      </trkpt>
      <trkpt lat="43.59118" lon="3.73397">
        <ele>146.09799936</ele>
        <time>2020-09-20T09:05:44.000Z</time>
      </trkpt>
      <trkpt lat="43.59107" lon="3.73403">
        <ele>145.49799936</ele>
        <time>2020-09-20T09:05:47.000Z</time>
      </trkpt>
      <trkpt lat="43.59095" lon="3.73408">
        <ele>144.79599872</ele>
        <time>2020-09-20T09:05:50.000Z</time>
      </trkpt>
      <trkpt lat="43.5909" lon="3.73412">
        <ele>144.39599872</ele>
        <time>2020-09-20T09:05:51.000Z</time>
      </trkpt>
      <trkpt lat="43.59086" lon="3.73415">
        <ele>143.99599872</ele>
        <time>2020-09-20T09:05:52.000Z</time>
      </trkpt>
      <trkpt lat="43.59081" lon="3.73418">
        <ele>143.59599872</ele>
        <time>2020-09-20T09:05:53.000Z</time>
      </trkpt>
      <trkpt lat="43.59077" lon="3.73422">
        <ele>143.19599872</ele>
        <time>2020-09-20T09:05:54.000Z</time>
      </trkpt>
      <trkpt lat="43.59073" lon="3.73424">
        <ele>142.79599872</ele>
        <time>2020-09-20T09:05:55.000Z</time>
      </trkpt>
      <trkpt lat="43.59068" lon="3.73426">
        <ele>142.39599872</ele>
        <time>2020-09-20T09:05:56.000Z</time>
      </trkpt>
      <trkpt lat="43.59063" lon="3.73427">
        <ele>141.99599872</ele>
        <time>2020-09-20T09:05:57.000Z</time>
      </trkpt>
      <trkpt lat="43.59057" lon="3.73429">
        <ele>141.59599872</ele>
        <time>2020-09-20T09:05:58.000Z</time>
      </trkpt>
      <trkpt lat="43.59051" lon="3.73431">
        <ele>141.19599872</ele>
        <time>2020-09-20T09:05:59.000Z</time>
      </trkpt>
      <trkpt lat="43.59045" lon="3.73434">
        <ele>140.84699904</ele>
        <time>2020-09-20T09:06:00.000Z</time>
      </trkpt>
      <trkpt lat="43.59038" lon="3.73437">
        <ele>140.54699904</ele>
        <time>2020-09-20T09:06:01.000Z</time>
      </trkpt>
      <trkpt lat="43.59032" lon="3.73439">
        <ele>140.24699904</ele>
        <time>2020-09-20T09:06:02.000Z</time>
      </trkpt>
      <trkpt lat="43.59026" lon="3.73441">
        <ele>139.94699904</ele>
        <time>2020-09-20T09:06:03.000Z</time>
      </trkpt>
      <trkpt lat="43.59019" lon="3.73442">
        <ele>139.64699904</ele>
        <time>2020-09-20T09:06:04.000Z</time>
      </trkpt>
      <trkpt lat="43.59012" lon="3.73441">
        <ele>139.34699904</ele>
        <time>2020-09-20T09:06:05.000Z</time>
      </trkpt>
      <trkpt lat="43.59006" lon="3.7344">
        <ele>139.04699904</ele>
        <time>2020-09-20T09:06:06.000Z</time>
      </trkpt>
      <trkpt lat="43.59" lon="3.73437">
        <ele>138.74699904</ele>
        <time>2020-09-20T09:06:07.000Z</time>
      </trkpt>
      <trkpt lat="43.58994" lon="3.73436">
        <ele>138.44699904</ele>
        <time>2020-09-20T09:06:08.000Z</time>
      </trkpt>
      <trkpt lat="43.58989" lon="3.73436">
        <ele>138.14699904</ele>
        <time>2020-09-20T09:06:09.000Z</time>
      </trkpt>
      <trkpt lat="43.58985" lon="3.73437">
        <ele>137.89799936</ele>
        <time>2020-09-20T09:06:10.000Z</time>
      </trkpt>
      <trkpt lat="43.58977" lon="3.73439">
        <ele>137.49799936</ele>
        <time>2020-09-20T09:06:12.000Z</time>
      </trkpt>
      <trkpt lat="43.58973" lon="3.73441">
        <ele>137.29799936</ele>
        <time>2020-09-20T09:06:13.000Z</time>
      </trkpt>
      <trkpt lat="43.58968" lon="3.73444">
        <ele>137.09799936</ele>
        <time>2020-09-20T09:06:14.000Z</time>
      </trkpt>
      <trkpt lat="43.58964" lon="3.73446">
        <ele>136.89799936</ele>
        <time>2020-09-20T09:06:15.000Z</time>
      </trkpt>
      <trkpt lat="43.5896" lon="3.7345">
        <ele>136.69799936</ele>
        <time>2020-09-20T09:06:16.000Z</time>
      </trkpt>
      <trkpt lat="43.58957" lon="3.73453">
        <ele>136.49799936</ele>
        <time>2020-09-20T09:06:17.000Z</time>
      </trkpt>
      <trkpt lat="43.58954" lon="3.73455">
        <ele>136.29799936</ele>
        <time>2020-09-20T09:06:18.000Z</time>
      </trkpt>
      <trkpt lat="43.58951" lon="3.73458">
        <ele>136.09799936</ele>
        <time>2020-09-20T09:06:19.000Z</time>
      </trkpt>
      <trkpt lat="43.58948" lon="3.73461">
        <ele>135.89910919118</ele>
        <time>2020-09-20T09:06:20.000Z</time>
      </trkpt>
      <trkpt lat="43.58945" lon="3.73465">
        <ele>135.7012853171</ele>
        <time>2020-09-20T09:06:21.000Z</time>
      </trkpt>
      <trkpt lat="43.58943" lon="3.73469">
        <ele>135.50346144302</ele>
        <time>2020-09-20T09:06:22.000Z</time>
      </trkpt>
      <trkpt lat="43.58941" lon="3.73474">
        <ele>135.30563756894</ele>
        <time>2020-09-20T09:06:23.000Z</time>
      </trkpt>
      <trkpt lat="43.58939" lon="3.73478">
        <ele>135.10781369486</ele>
        <time>2020-09-20T09:06:24.000Z</time>
      </trkpt>
      <trkpt lat="43.58936" lon="3.73482">
        <ele>134.90998982077</ele>
        <time>2020-09-20T09:06:25.000Z</time>
      </trkpt>
      <trkpt lat="43.58934" lon="3.73486">
        <ele>134.71216594669</ele>
        <time>2020-09-20T09:06:26.000Z</time>
      </trkpt>
      <trkpt lat="43.58931" lon="3.73491">
        <ele>134.51434207261</ele>
        <time>2020-09-20T09:06:27.000Z</time>
      </trkpt>
      <trkpt lat="43.58928" lon="3.73495">
        <ele>134.31651819853</ele>
        <time>2020-09-20T09:06:28.000Z</time>
      </trkpt>
      <trkpt lat="43.58926" lon="3.73499">
        <ele>134.11869432445</ele>
        <time>2020-09-20T09:06:29.000Z</time>
      </trkpt>
      <trkpt lat="43.58923" lon="3.73504">
        <ele>133.95955509308</ele>
        <time>2020-09-20T09:06:30.000Z</time>
      </trkpt>
      <trkpt lat="43.5892" lon="3.73508">
        <ele>133.85844282579</ele>
        <time>2020-09-20T09:06:31.000Z</time>
      </trkpt>
      <trkpt lat="43.58918" lon="3.73512">
        <ele>133.75733055849</ele>
        <time>2020-09-20T09:06:32.000Z</time>
      </trkpt>
      <trkpt lat="43.58916" lon="3.73517">
        <ele>133.65621829119</ele>
        <time>2020-09-20T09:06:33.000Z</time>
      </trkpt>
      <trkpt lat="43.58913" lon="3.73521">
        <ele>133.5551060239</ele>
        <time>2020-09-20T09:06:34.000Z</time>
      </trkpt>
      <trkpt lat="43.5891" lon="3.73526">
        <ele>133.4539937566</ele>
        <time>2020-09-20T09:06:35.000Z</time>
      </trkpt>
      <trkpt lat="43.58908" lon="3.7353">
        <ele>133.3528814893</ele>
        <time>2020-09-20T09:06:36.000Z</time>
      </trkpt>
      <trkpt lat="43.58905" lon="3.73534">
        <ele>133.25176922201</ele>
        <time>2020-09-20T09:06:37.000Z</time>
      </trkpt>
      <trkpt lat="43.58903" lon="3.73539">
        <ele>133.15065695471</ele>
        <time>2020-09-20T09:06:38.000Z</time>
      </trkpt>
      <trkpt lat="43.58901" lon="3.73543">
        <ele>133.04954468742</ele>
        <time>2020-09-20T09:06:39.000Z</time>
      </trkpt>
      <trkpt lat="43.58898" lon="3.73547">
        <ele>132.94899968</ele>
        <time>2020-09-20T09:06:40.000Z</time>
      </trkpt>
      <trkpt lat="43.58896" lon="3.73551">
        <ele>132.84899968</ele>
        <time>2020-09-20T09:06:41.000Z</time>
      </trkpt>
      <trkpt lat="43.58895" lon="3.73554">
        <ele>132.74899968</ele>
        <time>2020-09-20T09:06:42.000Z</time>
      </trkpt>
      <trkpt lat="43.58893" lon="3.73558">
        <ele>132.64899968</ele>
        <time>2020-09-20T09:06:43.000Z</time>
      </trkpt>
      <trkpt lat="43.58891" lon="3.73561">
        <ele>132.54899968</ele>
        <time>2020-09-20T09:06:44.000Z</time>
      </trkpt>
      <trkpt lat="43.58889" lon="3.73565">
        <ele>132.44899968</ele>
        <time>2020-09-20T09:06:45.000Z</time>
      </trkpt>
      <trkpt lat="43.58887" lon="3.73568">
        <ele>132.34899968</ele>
        <time>2020-09-20T09:06:46.000Z</time>
      </trkpt>
      <trkpt lat="43.58885" lon="3.73572">
        <ele>132.24899968</ele>
        <time>2020-09-20T09:06:47.000Z</time>
      </trkpt>
      <trkpt lat="43.58882" lon="3.73576">
        <ele>132.14899968</ele>
        <time>2020-09-20T09:06:48.000Z</time>
      </trkpt>
      <trkpt lat="43.58879" lon="3.7358">
        <ele>132.04899968</ele>
        <time>2020-09-20T09:06:49.000Z</time>
      </trkpt>
      <trkpt lat="43.58877" lon="3.73585">
        <ele>131.95038879377</ele>
        <time>2020-09-20T09:06:50.000Z</time>
      </trkpt>
      <trkpt lat="43.58875" lon="3.73589">
        <ele>131.85311252918</ele>
        <time>2020-09-20T09:06:51.000Z</time>
      </trkpt>
      <trkpt lat="43.58872" lon="3.73595">
        <ele>131.75583626459</ele>
        <time>2020-09-20T09:06:52.000Z</time>
      </trkpt>
      <trkpt lat="43.58869" lon="3.736">
        <ele>131.65856</ele>
        <time>2020-09-20T09:06:53.000Z</time>
      </trkpt>
      <trkpt lat="43.58866" lon="3.73604">
        <ele>131.56128373541</ele>
        <time>2020-09-20T09:06:54.000Z</time>
      </trkpt>
      <trkpt lat="43.58863" lon="3.73606">
        <ele>131.46400747082</ele>
        <time>2020-09-20T09:06:55.000Z</time>
      </trkpt>
      <trkpt lat="43.58862" lon="3.73608">
        <ele>131.26945494163</ele>
        <time>2020-09-20T09:06:57.000Z</time>
      </trkpt>
      <trkpt lat="43.58861" lon="3.73609">
        <ele>131</ele>
        <time>2020-09-20T09:07:03.000Z</time>
      </trkpt>
      <trkpt lat="43.5886" lon="3.73614">
        <ele>130.0264449838</ele>
        <time>2020-09-20T09:07:34.000Z</time>
      </trkpt>
      <trkpt lat="43.58859" lon="3.73614">
        <ele>130.12438820745</ele>
        <time>2020-09-20T09:07:35.000Z</time>
      </trkpt>
      <trkpt lat="43.58857" lon="3.73616">
        <ele>130.51616110203</ele>
        <time>2020-09-20T09:07:39.000Z</time>
      </trkpt>
      <trkpt lat="43.58855" lon="3.73617">
        <ele>130.80999077296</ele>
        <time>2020-09-20T09:07:42.000Z</time>
      </trkpt>
      <trkpt lat="43.58853" lon="3.7362">
        <ele>130.99390178862</ele>
        <time>2020-09-20T09:07:44.000Z</time>
      </trkpt>
      <trkpt lat="43.58852" lon="3.73622">
        <ele>130.7906497561</ele>
        <time>2020-09-20T09:07:46.000Z</time>
      </trkpt>
      <trkpt lat="43.5885" lon="3.73625">
        <ele>130.58739772358</ele>
        <time>2020-09-20T09:07:48.000Z</time>
      </trkpt>
      <trkpt lat="43.58849" lon="3.73627">
        <ele>130.48577170732</ele>
        <time>2020-09-20T09:07:49.000Z</time>
      </trkpt>
      <trkpt lat="43.58847" lon="3.73629">
        <ele>130.38414569106</ele>
        <time>2020-09-20T09:07:50.000Z</time>
      </trkpt>
      <trkpt lat="43.58846" lon="3.73631">
        <ele>130.2825196748</ele>
        <time>2020-09-20T09:07:51.000Z</time>
      </trkpt>
      <trkpt lat="43.58844" lon="3.73634">
        <ele>130.18089365854</ele>
        <time>2020-09-20T09:07:52.000Z</time>
      </trkpt>
      <trkpt lat="43.58842" lon="3.73636">
        <ele>130.07926764228</ele>
        <time>2020-09-20T09:07:53.000Z</time>
      </trkpt>
      <trkpt lat="43.5884" lon="3.73639">
        <ele>130</ele>
        <time>2020-09-20T09:07:54.000Z</time>
      </trkpt>
      <trkpt lat="43.58839" lon="3.73641">
        <ele>130</ele>
        <time>2020-09-20T09:07:55.000Z</time>
      </trkpt>
      <trkpt lat="43.58839" lon="3.73644">
        <ele>130</ele>
        <time>2020-09-20T09:07:56.000Z</time>
      </trkpt>
      <trkpt lat="43.58839" lon="3.73647">
        <ele>130</ele>
        <time>2020-09-20T09:07:57.000Z</time>
      </trkpt>
      <trkpt lat="43.5884" lon="3.7365">
        <ele>130</ele>
        <time>2020-09-20T09:07:58.000Z</time>
      </trkpt>
      <trkpt lat="43.58841" lon="3.73652">
        <ele>130</ele>
        <time>2020-09-20T09:07:59.000Z</time>
      </trkpt>
      <trkpt lat="43.58842" lon="3.73655">
        <ele>130</ele>
        <time>2020-09-20T09:08:00.000Z</time>
      </trkpt>
      <trkpt lat="43.58842" lon="3.73658">
        <ele>130</ele>
        <time>2020-09-20T09:08:01.000Z</time>
      </trkpt>
      <trkpt lat="43.58842" lon="3.73661">
        <ele>130</ele>
        <time>2020-09-20T09:08:02.000Z</time>
      </trkpt>
      <trkpt lat="43.58842" lon="3.73664">
        <ele>130</ele>
        <time>2020-09-20T09:08:03.000Z</time>
      </trkpt>
      <trkpt lat="43.5884" lon="3.73667">
        <ele>129.94915223955</ele>
        <time>2020-09-20T09:08:04.000Z</time>
      </trkpt>
      <trkpt lat="43.58839" lon="3.73669">
        <ele>129.84945137405</ele>
        <time>2020-09-20T09:08:05.000Z</time>
      </trkpt>
      <trkpt lat="43.58838" lon="3.73672">
        <ele>129.74975050855</ele>
        <time>2020-09-20T09:08:06.000Z</time>
      </trkpt>
      <trkpt lat="43.58838" lon="3.73674">
        <ele>129.65004964306</ele>
        <time>2020-09-20T09:08:07.000Z</time>
      </trkpt>
      <trkpt lat="43.58837" lon="3.73677">
        <ele>129.55034877756</ele>
        <time>2020-09-20T09:08:08.000Z</time>
      </trkpt>
      <trkpt lat="43.58835" lon="3.73679">
        <ele>129.45064791206</ele>
        <time>2020-09-20T09:08:09.000Z</time>
      </trkpt>
      <trkpt lat="43.58834" lon="3.73681">
        <ele>129.25124618106</ele>
        <time>2020-09-20T09:08:11.000Z</time>
      </trkpt>
      <trkpt lat="43.58833" lon="3.73684">
        <ele>129.00229168133</ele>
        <time>2020-09-20T09:08:17.000Z</time>
      </trkpt>
      <trkpt lat="43.58831" lon="3.73691">
        <ele>130</ele>
        <time>2020-09-20T09:08:26.000Z</time>
      </trkpt>
      <trkpt lat="43.58829" lon="3.73693">
        <ele>130</ele>
        <time>2020-09-20T09:08:28.000Z</time>
      </trkpt>
      <trkpt lat="43.58829" lon="3.73694">
        <ele>130.00142811429</ele>
        <time>2020-09-20T09:08:35.000Z</time>
      </trkpt>
      <trkpt lat="43.58825" lon="3.73707">
        <ele>131</ele>
        <time>2020-09-20T09:08:42.000Z</time>
      </trkpt>
      <trkpt lat="43.58825" lon="3.73711">
        <ele>131</ele>
        <time>2020-09-20T09:08:43.000Z</time>
      </trkpt>
      <trkpt lat="43.58826" lon="3.73715">
        <ele>131</ele>
        <time>2020-09-20T09:08:44.000Z</time>
      </trkpt>
      <trkpt lat="43.58828" lon="3.73718">
        <ele>131</ele>
        <time>2020-09-20T09:08:45.000Z</time>
      </trkpt>
      <trkpt lat="43.58829" lon="3.73721">
        <ele>131</ele>
        <time>2020-09-20T09:08:46.000Z</time>
      </trkpt>
      <trkpt lat="43.5883" lon="3.73725">
        <ele>131</ele>
        <time>2020-09-20T09:08:47.000Z</time>
      </trkpt>
      <trkpt lat="43.5883" lon="3.73728">
        <ele>131</ele>
        <time>2020-09-20T09:08:48.000Z</time>
      </trkpt>
      <trkpt lat="43.58829" lon="3.73732">
        <ele>131</ele>
        <time>2020-09-20T09:08:49.000Z</time>
      </trkpt>
      <trkpt lat="43.58829" lon="3.73736">
        <ele>131</ele>
        <time>2020-09-20T09:08:50.000Z</time>
      </trkpt>
      <trkpt lat="43.58828" lon="3.73741">
        <ele>131</ele>
        <time>2020-09-20T09:08:51.000Z</time>
      </trkpt>
      <trkpt lat="43.58828" lon="3.73746">
        <ele>131</ele>
        <time>2020-09-20T09:08:52.000Z</time>
      </trkpt>
      <trkpt lat="43.58827" lon="3.73751">
        <ele>131</ele>
        <time>2020-09-20T09:08:53.000Z</time>
      </trkpt>
      <trkpt lat="43.58826" lon="3.73756">
        <ele>131</ele>
        <time>2020-09-20T09:08:54.000Z</time>
      </trkpt>
      <trkpt lat="43.58826" lon="3.73761">
        <ele>131</ele>
        <time>2020-09-20T09:08:55.000Z</time>
      </trkpt>
      <trkpt lat="43.58826" lon="3.73766">
        <ele>131</ele>
        <time>2020-09-20T09:08:56.000Z</time>
      </trkpt>
      <trkpt lat="43.58827" lon="3.7377">
        <ele>131</ele>
        <time>2020-09-20T09:08:57.000Z</time>
      </trkpt>
      <trkpt lat="43.58826" lon="3.73774">
        <ele>131</ele>
        <time>2020-09-20T09:08:58.000Z</time>
      </trkpt>
      <trkpt lat="43.58823" lon="3.73777">
        <ele>131</ele>
        <time>2020-09-20T09:08:59.000Z</time>
      </trkpt>
      <trkpt lat="43.5882" lon="3.7378">
        <ele>131</ele>
        <time>2020-09-20T09:09:00.000Z</time>
      </trkpt>
      <trkpt lat="43.58817" lon="3.73784">
        <ele>131</ele>
        <time>2020-09-20T09:09:01.000Z</time>
      </trkpt>
      <trkpt lat="43.58814" lon="3.73789">
        <ele>130.89799936</ele>
        <time>2020-09-20T09:09:02.000Z</time>
      </trkpt>
      <trkpt lat="43.58811" lon="3.73794">
        <ele>130.69799936</ele>
        <time>2020-09-20T09:09:03.000Z</time>
      </trkpt>
      <trkpt lat="43.58809" lon="3.73799">
        <ele>130.49799936</ele>
        <time>2020-09-20T09:09:04.000Z</time>
      </trkpt>
      <trkpt lat="43.58806" lon="3.73805">
        <ele>130.29799936</ele>
        <time>2020-09-20T09:09:05.000Z</time>
      </trkpt>
      <trkpt lat="43.58804" lon="3.73812">
        <ele>130.09799936</ele>
        <time>2020-09-20T09:09:06.000Z</time>
      </trkpt>
      <trkpt lat="43.58803" lon="3.7382">
        <ele>129.89799936</ele>
        <time>2020-09-20T09:09:07.000Z</time>
      </trkpt>
      <trkpt lat="43.58803" lon="3.73828">
        <ele>129.69799936</ele>
        <time>2020-09-20T09:09:08.000Z</time>
      </trkpt>
      <trkpt lat="43.58804" lon="3.73835">
        <ele>129.49799936</ele>
        <time>2020-09-20T09:09:09.000Z</time>
      </trkpt>
      <trkpt lat="43.58805" lon="3.73842">
        <ele>129.29799936</ele>
        <time>2020-09-20T09:09:10.000Z</time>
      </trkpt>
      <trkpt lat="43.58805" lon="3.73848">
        <ele>129.09799936</ele>
        <time>2020-09-20T09:09:11.000Z</time>
      </trkpt>
      <trkpt lat="43.58803" lon="3.73854">
        <ele>128.7449984</ele>
        <time>2020-09-20T09:09:12.000Z</time>
      </trkpt>
      <trkpt lat="43.588" lon="3.73859">
        <ele>128.2449984</ele>
        <time>2020-09-20T09:09:13.000Z</time>
      </trkpt>
      <trkpt lat="43.58796" lon="3.73862">
        <ele>127.7449984</ele>
        <time>2020-09-20T09:09:14.000Z</time>
      </trkpt>
      <trkpt lat="43.58791" lon="3.73866">
        <ele>127.2449984</ele>
        <time>2020-09-20T09:09:15.000Z</time>
      </trkpt>
      <trkpt lat="43.58785" lon="3.73869">
        <ele>126.7449984</ele>
        <time>2020-09-20T09:09:16.000Z</time>
      </trkpt>
      <trkpt lat="43.5878" lon="3.73872">
        <ele>126.2449984</ele>
        <time>2020-09-20T09:09:17.000Z</time>
      </trkpt>
      <trkpt lat="43.58774" lon="3.73876">
        <ele>125.7449984</ele>
        <time>2020-09-20T09:09:18.000Z</time>
      </trkpt>
      <trkpt lat="43.58768" lon="3.7388">
        <ele>125.2449984</ele>
        <time>2020-09-20T09:09:19.000Z</time>
      </trkpt>
      <trkpt lat="43.58762" lon="3.73883">
        <ele>124.7449984</ele>
        <time>2020-09-20T09:09:20.000Z</time>
      </trkpt>
      <trkpt lat="43.58756" lon="3.73887">
        <ele>124.2449984</ele>
        <time>2020-09-20T09:09:21.000Z</time>
      </trkpt>
      <trkpt lat="43.58751" lon="3.73891">
        <ele>123.74525339117</ele>
        <time>2020-09-20T09:09:22.000Z</time>
      </trkpt>
      <trkpt lat="43.58745" lon="3.73895">
        <ele>123.24575337071</ele>
        <time>2020-09-20T09:09:23.000Z</time>
      </trkpt>
      <trkpt lat="43.5874" lon="3.73899">
        <ele>122.74625335025</ele>
        <time>2020-09-20T09:09:24.000Z</time>
      </trkpt>
      <trkpt lat="43.58734" lon="3.73903">
        <ele>122.24675332979</ele>
        <time>2020-09-20T09:09:25.000Z</time>
      </trkpt>
      <trkpt lat="43.58729" lon="3.73908">
        <ele>121.74725330933</ele>
        <time>2020-09-20T09:09:26.000Z</time>
      </trkpt>
      <trkpt lat="43.58723" lon="3.73912">
        <ele>121.24775328887</ele>
        <time>2020-09-20T09:09:27.000Z</time>
      </trkpt>
      <trkpt lat="43.58718" lon="3.73916">
        <ele>120.74825326841</ele>
        <time>2020-09-20T09:09:28.000Z</time>
      </trkpt>
      <trkpt lat="43.58713" lon="3.73919">
        <ele>120.24875324795</ele>
        <time>2020-09-20T09:09:29.000Z</time>
      </trkpt>
      <trkpt lat="43.58708" lon="3.73922">
        <ele>119.74925322749</ele>
        <time>2020-09-20T09:09:30.000Z</time>
      </trkpt>
      <trkpt lat="43.58705" lon="3.73924">
        <ele>119.24975320703</ele>
        <time>2020-09-20T09:09:31.000Z</time>
      </trkpt>
      <trkpt lat="43.58702" lon="3.73926">
        <ele>118.74975271248</ele>
        <time>2020-09-20T09:09:32.000Z</time>
      </trkpt>
      <trkpt lat="43.587" lon="3.73927">
        <ele>118.24925173101</ele>
        <time>2020-09-20T09:09:33.000Z</time>
      </trkpt>
      <trkpt lat="43.58699" lon="3.73929">
        <ele>117.74875074955</ele>
        <time>2020-09-20T09:09:34.000Z</time>
      </trkpt>
      <trkpt lat="43.58696" lon="3.73933">
        <ele>116.74774878662</ele>
        <time>2020-09-20T09:09:36.000Z</time>
      </trkpt>
      <trkpt lat="43.58696" lon="3.73936">
        <ele>116.24724780516</ele>
        <time>2020-09-20T09:09:37.000Z</time>
      </trkpt>
      <trkpt lat="43.58694" lon="3.7394">
        <ele>115.7467468237</ele>
        <time>2020-09-20T09:09:38.000Z</time>
      </trkpt>
      <trkpt lat="43.58692" lon="3.73945">
        <ele>115.24624584224</ele>
        <time>2020-09-20T09:09:39.000Z</time>
      </trkpt>
      <trkpt lat="43.58689" lon="3.7395">
        <ele>114.74574486078</ele>
        <time>2020-09-20T09:09:40.000Z</time>
      </trkpt>
      <trkpt lat="43.58685" lon="3.73955">
        <ele>114.24524387931</ele>
        <time>2020-09-20T09:09:41.000Z</time>
      </trkpt>
      <trkpt lat="43.58682" lon="3.7396">
        <ele>113.84970445598</ele>
        <time>2020-09-20T09:09:42.000Z</time>
      </trkpt>
      <trkpt lat="43.58679" lon="3.73965">
        <ele>113.55500915992</ele>
        <time>2020-09-20T09:09:43.000Z</time>
      </trkpt>
      <trkpt lat="43.58677" lon="3.73969">
        <ele>113.26031386385</ele>
        <time>2020-09-20T09:09:44.000Z</time>
      </trkpt>
      <trkpt lat="43.58674" lon="3.73972">
        <ele>112.96561856778</ele>
        <time>2020-09-20T09:09:45.000Z</time>
      </trkpt>
      <trkpt lat="43.58671" lon="3.73975">
        <ele>112.67092327172</ele>
        <time>2020-09-20T09:09:46.000Z</time>
      </trkpt>
      <trkpt lat="43.58667" lon="3.73978">
        <ele>112.37622797565</ele>
        <time>2020-09-20T09:09:47.000Z</time>
      </trkpt>
      <trkpt lat="43.58663" lon="3.73979">
        <ele>112.08153267959</ele>
        <time>2020-09-20T09:09:48.000Z</time>
      </trkpt>
      <trkpt lat="43.58659" lon="3.7398">
        <ele>111.78683738352</ele>
        <time>2020-09-20T09:09:49.000Z</time>
      </trkpt>
      <trkpt lat="43.58654" lon="3.7398">
        <ele>111.49214208745</ele>
        <time>2020-09-20T09:09:50.000Z</time>
      </trkpt>
      <trkpt lat="43.5865" lon="3.73981">
        <ele>111.19744679139</ele>
        <time>2020-09-20T09:09:51.000Z</time>
      </trkpt>
      <trkpt lat="43.58646" lon="3.73981">
        <ele>110.86558166392</ele>
        <time>2020-09-20T09:09:52.000Z</time>
      </trkpt>
      <trkpt lat="43.58642" lon="3.73981">
        <ele>110.45824942289</ele>
        <time>2020-09-20T09:09:53.000Z</time>
      </trkpt>
      <trkpt lat="43.58637" lon="3.73982">
        <ele>110.05091718186</ele>
        <time>2020-09-20T09:09:54.000Z</time>
      </trkpt>
      <trkpt lat="43.58633" lon="3.73983">
        <ele>109.64358494083</ele>
        <time>2020-09-20T09:09:55.000Z</time>
      </trkpt>
      <trkpt lat="43.58629" lon="3.73984">
        <ele>109.2362526998</ele>
        <time>2020-09-20T09:09:56.000Z</time>
      </trkpt>
      <trkpt lat="43.58625" lon="3.73986">
        <ele>108.82892045877</ele>
        <time>2020-09-20T09:09:57.000Z</time>
      </trkpt>
      <trkpt lat="43.58621" lon="3.73988">
        <ele>108.42158821774</ele>
        <time>2020-09-20T09:09:58.000Z</time>
      </trkpt>
      <trkpt lat="43.58616" lon="3.73989">
        <ele>108.01425597671</ele>
        <time>2020-09-20T09:09:59.000Z</time>
      </trkpt>
      <trkpt lat="43.58612" lon="3.7399">
        <ele>107.60692373567</ele>
        <time>2020-09-20T09:10:00.000Z</time>
      </trkpt>
      <trkpt lat="43.58609" lon="3.73991">
        <ele>107.19959149464</ele>
        <time>2020-09-20T09:10:01.000Z</time>
      </trkpt>
      <trkpt lat="43.58606" lon="3.73992">
        <ele>106.79599872</ele>
        <time>2020-09-20T09:10:02.000Z</time>
      </trkpt>
      <trkpt lat="43.58602" lon="3.73993">
        <ele>106.39599872</ele>
        <time>2020-09-20T09:10:03.000Z</time>
      </trkpt>
      <trkpt lat="43.58598" lon="3.73994">
        <ele>105.99599872</ele>
        <time>2020-09-20T09:10:04.000Z</time>
      </trkpt>
      <trkpt lat="43.58593" lon="3.73996">
        <ele>105.59599872</ele>
        <time>2020-09-20T09:10:05.000Z</time>
      </trkpt>
      <trkpt lat="43.58587" lon="3.73998">
        <ele>105.19599872</ele>
        <time>2020-09-20T09:10:06.000Z</time>
      </trkpt>
      <trkpt lat="43.58583" lon="3.74">
        <ele>104.79599872</ele>
        <time>2020-09-20T09:10:07.000Z</time>
      </trkpt>
      <trkpt lat="43.5858" lon="3.74002">
        <ele>104.39599872</ele>
        <time>2020-09-20T09:10:08.000Z</time>
      </trkpt>
      <trkpt lat="43.58577" lon="3.74003">
        <ele>103.99599872</ele>
        <time>2020-09-20T09:10:09.000Z</time>
      </trkpt>
      <trkpt lat="43.58576" lon="3.74005">
        <ele>103.59599872</ele>
        <time>2020-09-20T09:10:10.000Z</time>
      </trkpt>
      <trkpt lat="43.58576" lon="3.74007">
        <ele>103.19599872</ele>
        <time>2020-09-20T09:10:11.000Z</time>
      </trkpt>
      <trkpt lat="43.58576" lon="3.7401">
        <ele>102.94899968</ele>
        <time>2020-09-20T09:10:12.000Z</time>
      </trkpt>
      <trkpt lat="43.58577" lon="3.74012">
        <ele>102.84899968</ele>
        <time>2020-09-20T09:10:13.000Z</time>
      </trkpt>
      <trkpt lat="43.58579" lon="3.74014">
        <ele>102.74899968</ele>
        <time>2020-09-20T09:10:14.000Z</time>
      </trkpt>
      <trkpt lat="43.5858" lon="3.74017">
        <ele>102.64899968</ele>
        <time>2020-09-20T09:10:15.000Z</time>
      </trkpt>
      <trkpt lat="43.58581" lon="3.7402">
        <ele>102.54899968</ele>
        <time>2020-09-20T09:10:16.000Z</time>
      </trkpt>
      <trkpt lat="43.5858" lon="3.74023">
        <ele>102.44899968</ele>
        <time>2020-09-20T09:10:17.000Z</time>
      </trkpt>
      <trkpt lat="43.58579" lon="3.74026">
        <ele>102.34899968</ele>
        <time>2020-09-20T09:10:18.000Z</time>
      </trkpt>
      <trkpt lat="43.58579" lon="3.74029">
        <ele>102.24899968</ele>
        <time>2020-09-20T09:10:19.000Z</time>
      </trkpt>
      <trkpt lat="43.58578" lon="3.74032">
        <ele>102.14899968</ele>
        <time>2020-09-20T09:10:20.000Z</time>
      </trkpt>
      <trkpt lat="43.58578" lon="3.74036">
        <ele>102.04899968</ele>
        <time>2020-09-20T09:10:21.000Z</time>
      </trkpt>
      <trkpt lat="43.58578" lon="3.74038">
        <ele>101.94899968</ele>
        <time>2020-09-20T09:10:22.000Z</time>
      </trkpt>
      <trkpt lat="43.58579" lon="3.74041">
        <ele>101.84899968</ele>
        <time>2020-09-20T09:10:23.000Z</time>
      </trkpt>
      <trkpt lat="43.5858" lon="3.74043">
        <ele>101.74899968</ele>
        <time>2020-09-20T09:10:24.000Z</time>
      </trkpt>
      <trkpt lat="43.5858" lon="3.74047">
        <ele>101.54899968</ele>
        <time>2020-09-20T09:10:26.000Z</time>
      </trkpt>
      <trkpt lat="43.58581" lon="3.74051">
        <ele>101.34899968</ele>
        <time>2020-09-20T09:10:28.000Z</time>
      </trkpt>
      <trkpt lat="43.5858" lon="3.74053">
        <ele>101.14899968</ele>
        <time>2020-09-20T09:10:30.000Z</time>
      </trkpt>
      <trkpt lat="43.5858" lon="3.74053">
        <ele>100.98945556144</ele>
        <time>2020-09-20T09:10:35.000Z</time>
      </trkpt>
      <trkpt lat="43.5858" lon="3.74058">
        <ele>99</ele>
        <time>2020-09-20T09:10:52.000Z</time>
      </trkpt>
      <trkpt lat="43.5858" lon="3.74058">
        <ele>99</ele>
        <time>2020-09-20T09:10:55.000Z</time>
      </trkpt>
      <trkpt lat="43.58577" lon="3.74058">
        <ele>98</ele>
        <time>2020-09-20T09:11:38.000Z</time>
      </trkpt>
      <trkpt lat="43.58578" lon="3.74058">
        <ele>98</ele>
        <time>2020-09-20T09:11:43.000Z</time>
      </trkpt>
      <trkpt lat="43.58573" lon="3.74051">
        <ele>98.999860204161</ele>
        <time>2020-09-20T09:14:06.000Z</time>
      </trkpt>
      <trkpt lat="43.58573" lon="3.74049">
        <ele>99</ele>
        <time>2020-09-20T09:14:07.000Z</time>
      </trkpt>
      <trkpt lat="43.58573" lon="3.74046">
        <ele>99</ele>
        <time>2020-09-20T09:14:08.000Z</time>
      </trkpt>
      <trkpt lat="43.58573" lon="3.74043">
        <ele>99</ele>
        <time>2020-09-20T09:14:09.000Z</time>
      </trkpt>
      <trkpt lat="43.58574" lon="3.7404">
        <ele>99</ele>
        <time>2020-09-20T09:14:10.000Z</time>
      </trkpt>
      <trkpt lat="43.58576" lon="3.74038">
        <ele>99</ele>
        <time>2020-09-20T09:14:11.000Z</time>
      </trkpt>
      <trkpt lat="43.58577" lon="3.74035">
        <ele>99</ele>
        <time>2020-09-20T09:14:12.000Z</time>
      </trkpt>
      <trkpt lat="43.58579" lon="3.74032">
        <ele>99</ele>
        <time>2020-09-20T09:14:13.000Z</time>
      </trkpt>
      <trkpt lat="43.5858" lon="3.7403">
        <ele>99</ele>
        <time>2020-09-20T09:14:14.000Z</time>
      </trkpt>
      <trkpt lat="43.58581" lon="3.74027">
        <ele>99</ele>
        <time>2020-09-20T09:14:15.000Z</time>
      </trkpt>
      <trkpt lat="43.58581" lon="3.74023">
        <ele>98.853255231333</ele>
        <time>2020-09-20T09:14:17.000Z</time>
      </trkpt>
      <trkpt lat="43.58579" lon="3.74021">
        <ele>98.65889171122</ele>
        <time>2020-09-20T09:14:19.000Z</time>
      </trkpt>
      <trkpt lat="43.58577" lon="3.74019">
        <ele>98.561709951163</ele>
        <time>2020-09-20T09:14:20.000Z</time>
      </trkpt>
      <trkpt lat="43.58576" lon="3.74017">
        <ele>98.464528191107</ele>
        <time>2020-09-20T09:14:21.000Z</time>
      </trkpt>
      <trkpt lat="43.58573" lon="3.74014">
        <ele>98.270164670994</ele>
        <time>2020-09-20T09:14:23.000Z</time>
      </trkpt>
      <trkpt lat="43.58571" lon="3.74012">
        <ele>98.172982910937</ele>
        <time>2020-09-20T09:14:24.000Z</time>
      </trkpt>
      <trkpt lat="43.58571" lon="3.74008">
        <ele>98.075801150881</ele>
        <time>2020-09-20T09:14:25.000Z</time>
      </trkpt>
      <trkpt lat="43.58571" lon="3.74005">
        <ele>98</ele>
        <time>2020-09-20T09:14:26.000Z</time>
      </trkpt>
      <trkpt lat="43.5857" lon="3.74002">
        <ele>98</ele>
        <time>2020-09-20T09:14:27.000Z</time>
      </trkpt>
      <trkpt lat="43.58569" lon="3.74">
        <ele>98</ele>
        <time>2020-09-20T09:14:28.000Z</time>
      </trkpt>
      <trkpt lat="43.58567" lon="3.73999">
        <ele>98</ele>
        <time>2020-09-20T09:14:29.000Z</time>
      </trkpt>
      <trkpt lat="43.58564" lon="3.73998">
        <ele>98</ele>
        <time>2020-09-20T09:14:30.000Z</time>
      </trkpt>
      <trkpt lat="43.58562" lon="3.73997">
        <ele>98</ele>
        <time>2020-09-20T09:14:31.000Z</time>
      </trkpt>
      <trkpt lat="43.58559" lon="3.73996">
        <ele>98</ele>
        <time>2020-09-20T09:14:32.000Z</time>
      </trkpt>
      <trkpt lat="43.58557" lon="3.73995">
        <ele>98</ele>
        <time>2020-09-20T09:14:33.000Z</time>
      </trkpt>
      <trkpt lat="43.58555" lon="3.73995">
        <ele>98</ele>
        <time>2020-09-20T09:14:34.000Z</time>
      </trkpt>
      <trkpt lat="43.58552" lon="3.73995">
        <ele>98</ele>
        <time>2020-09-20T09:14:35.000Z</time>
      </trkpt>
      <trkpt lat="43.5855" lon="3.73996">
        <ele>97.94899968</ele>
        <time>2020-09-20T09:14:36.000Z</time>
      </trkpt>
      <trkpt lat="43.58548" lon="3.73998">
        <ele>97.84899968</ele>
        <time>2020-09-20T09:14:37.000Z</time>
      </trkpt>
      <trkpt lat="43.58546" lon="3.74">
        <ele>97.74899968</ele>
        <time>2020-09-20T09:14:38.000Z</time>
      </trkpt>
      <trkpt lat="43.58544" lon="3.74003">
        <ele>97.64899968</ele>
        <time>2020-09-20T09:14:39.000Z</time>
      </trkpt>
      <trkpt lat="43.58542" lon="3.74006">
        <ele>97.54899968</ele>
        <time>2020-09-20T09:14:40.000Z</time>
      </trkpt>
      <trkpt lat="43.5854" lon="3.74008">
        <ele>97.44899968</ele>
        <time>2020-09-20T09:14:41.000Z</time>
      </trkpt>
      <trkpt lat="43.58537" lon="3.74011">
        <ele>97.34899968</ele>
        <time>2020-09-20T09:14:42.000Z</time>
      </trkpt>
      <trkpt lat="43.58535" lon="3.74014">
        <ele>97.24899968</ele>
        <time>2020-09-20T09:14:43.000Z</time>
      </trkpt>
      <trkpt lat="43.58532" lon="3.74016">
        <ele>97.14899968</ele>
        <time>2020-09-20T09:14:44.000Z</time>
      </trkpt>
      <trkpt lat="43.5853" lon="3.74017">
        <ele>97.04899968</ele>
        <time>2020-09-20T09:14:45.000Z</time>
      </trkpt>
      <trkpt lat="43.58527" lon="3.74018">
        <ele>97</ele>
        <time>2020-09-20T09:14:46.000Z</time>
      </trkpt>
      <trkpt lat="43.58525" lon="3.74019">
        <ele>97</ele>
        <time>2020-09-20T09:14:47.000Z</time>
      </trkpt>
      <trkpt lat="43.58523" lon="3.74021">
        <ele>97</ele>
        <time>2020-09-20T09:14:48.000Z</time>
      </trkpt>
      <trkpt lat="43.58521" lon="3.74022">
        <ele>97</ele>
        <time>2020-09-20T09:14:49.000Z</time>
      </trkpt>
      <trkpt lat="43.58521" lon="3.74024">
        <ele>96.994424277891</ele>
        <time>2020-09-20T09:14:55.000Z</time>
      </trkpt>
      <trkpt lat="43.58518" lon="3.7404">
        <ele>95.003185981275</ele>
        <time>2020-09-20T09:15:20.000Z</time>
      </trkpt>
      <trkpt lat="43.58516" lon="3.74046">
        <ele>94.69809220339</ele>
        <time>2020-09-20T09:15:21.000Z</time>
      </trkpt>
      <trkpt lat="43.58514" lon="3.74053">
        <ele>94.38029559322</ele>
        <time>2020-09-20T09:15:22.000Z</time>
      </trkpt>
      <trkpt lat="43.58511" lon="3.7406">
        <ele>94.062498983051</ele>
        <time>2020-09-20T09:15:23.000Z</time>
      </trkpt>
      <trkpt lat="43.58508" lon="3.74067">
        <ele>93.744702372881</ele>
        <time>2020-09-20T09:15:24.000Z</time>
      </trkpt>
      <trkpt lat="43.58503" lon="3.74074">
        <ele>93.426905762712</ele>
        <time>2020-09-20T09:15:25.000Z</time>
      </trkpt>
      <trkpt lat="43.58499" lon="3.74079">
        <ele>93.109109152542</ele>
        <time>2020-09-20T09:15:26.000Z</time>
      </trkpt>
      <trkpt lat="43.58495" lon="3.74082">
        <ele>92.791312542373</ele>
        <time>2020-09-20T09:15:27.000Z</time>
      </trkpt>
      <trkpt lat="43.58494" lon="3.74083">
        <ele>92</ele>
        <time>2020-09-20T09:15:35.000Z</time>
      </trkpt>
      <trkpt lat="43.58502" lon="3.74095">
        <ele>91</ele>
        <time>2020-09-20T09:15:40.000Z</time>
      </trkpt>
      <trkpt lat="43.58503" lon="3.74098">
        <ele>90.791138565401</ele>
        <time>2020-09-20T09:15:41.000Z</time>
      </trkpt>
      <trkpt lat="43.58504" lon="3.74101">
        <ele>90.580168101266</ele>
        <time>2020-09-20T09:15:42.000Z</time>
      </trkpt>
      <trkpt lat="43.58503" lon="3.74104">
        <ele>90.369197637131</ele>
        <time>2020-09-20T09:15:43.000Z</time>
      </trkpt>
      <trkpt lat="43.58501" lon="3.74107">
        <ele>90.158227172996</ele>
        <time>2020-09-20T09:15:44.000Z</time>
      </trkpt>
      <trkpt lat="43.58498" lon="3.7411">
        <ele>89.947256708861</ele>
        <time>2020-09-20T09:15:45.000Z</time>
      </trkpt>
      <trkpt lat="43.58496" lon="3.74114">
        <ele>89.736286244726</ele>
        <time>2020-09-20T09:15:46.000Z</time>
      </trkpt>
      <trkpt lat="43.58495" lon="3.74119">
        <ele>89.525315780591</ele>
        <time>2020-09-20T09:15:47.000Z</time>
      </trkpt>
      <trkpt lat="43.58495" lon="3.74124">
        <ele>89.314345316456</ele>
        <time>2020-09-20T09:15:48.000Z</time>
      </trkpt>
      <trkpt lat="43.58493" lon="3.74127">
        <ele>89.103374852321</ele>
        <time>2020-09-20T09:15:49.000Z</time>
      </trkpt>
      <trkpt lat="43.58491" lon="3.7413">
        <ele>88.900873982779</ele>
        <time>2020-09-20T09:15:50.000Z</time>
      </trkpt>
      <trkpt lat="43.58487" lon="3.74131">
        <ele>88.706510462666</ele>
        <time>2020-09-20T09:15:51.000Z</time>
      </trkpt>
      <trkpt lat="43.58484" lon="3.74133">
        <ele>88.512146942553</ele>
        <time>2020-09-20T09:15:52.000Z</time>
      </trkpt>
      <trkpt lat="43.58481" lon="3.74137">
        <ele>88.31778342244</ele>
        <time>2020-09-20T09:15:53.000Z</time>
      </trkpt>
      <trkpt lat="43.58478" lon="3.7414">
        <ele>88.123419902327</ele>
        <time>2020-09-20T09:15:54.000Z</time>
      </trkpt>
      <trkpt lat="43.58475" lon="3.74143">
        <ele>87.929056382214</ele>
        <time>2020-09-20T09:15:55.000Z</time>
      </trkpt>
      <trkpt lat="43.58472" lon="3.74145">
        <ele>87.734692862101</ele>
        <time>2020-09-20T09:15:56.000Z</time>
      </trkpt>
      <trkpt lat="43.58469" lon="3.74148">
        <ele>87.540329341988</ele>
        <time>2020-09-20T09:15:57.000Z</time>
      </trkpt>
      <trkpt lat="43.58466" lon="3.74151">
        <ele>87.345965821875</ele>
        <time>2020-09-20T09:15:58.000Z</time>
      </trkpt>
      <trkpt lat="43.58463" lon="3.74156">
        <ele>87.151602301762</ele>
        <time>2020-09-20T09:15:59.000Z</time>
      </trkpt>
      <trkpt lat="43.5846" lon="3.7416">
        <ele>86.97734229377</ele>
        <time>2020-09-20T09:16:00.000Z</time>
      </trkpt>
      <trkpt lat="43.58457" lon="3.74164">
        <ele>86.874355715969</ele>
        <time>2020-09-20T09:16:01.000Z</time>
      </trkpt>
      <trkpt lat="43.58456" lon="3.74169">
        <ele>86.771369138169</ele>
        <time>2020-09-20T09:16:02.000Z</time>
      </trkpt>
      <trkpt lat="43.58454" lon="3.74173">
        <ele>86.668382560368</ele>
        <time>2020-09-20T09:16:03.000Z</time>
      </trkpt>
      <trkpt lat="43.58454" lon="3.74177">
        <ele>86.565395982568</ele>
        <time>2020-09-20T09:16:04.000Z</time>
      </trkpt>
      <trkpt lat="43.58454" lon="3.74181">
        <ele>86.462409404767</ele>
        <time>2020-09-20T09:16:05.000Z</time>
      </trkpt>
      <trkpt lat="43.58455" lon="3.74185">
        <ele>86.359422826967</ele>
        <time>2020-09-20T09:16:06.000Z</time>
      </trkpt>
      <trkpt lat="43.58456" lon="3.74189">
        <ele>86.256436249166</ele>
        <time>2020-09-20T09:16:07.000Z</time>
      </trkpt>
      <trkpt lat="43.58457" lon="3.74193">
        <ele>86.153449671366</ele>
        <time>2020-09-20T09:16:08.000Z</time>
      </trkpt>
      <trkpt lat="43.58457" lon="3.74198">
        <ele>86.050463093565</ele>
        <time>2020-09-20T09:16:09.000Z</time>
      </trkpt>
      <trkpt lat="43.58458" lon="3.74202">
        <ele>86.10200064</ele>
        <time>2020-09-20T09:16:10.000Z</time>
      </trkpt>
      <trkpt lat="43.5846" lon="3.74206">
        <ele>86.30200064</ele>
        <time>2020-09-20T09:16:11.000Z</time>
      </trkpt>
      <trkpt lat="43.58461" lon="3.74209">
        <ele>86.50200064</ele>
        <time>2020-09-20T09:16:12.000Z</time>
      </trkpt>
      <trkpt lat="43.58462" lon="3.74212">
        <ele>86.70200064</ele>
        <time>2020-09-20T09:16:13.000Z</time>
      </trkpt>
      <trkpt lat="43.58464" lon="3.74216">
        <ele>86.90200064</ele>
        <time>2020-09-20T09:16:14.000Z</time>
      </trkpt>
      <trkpt lat="43.58465" lon="3.74219">
        <ele>87.10200064</ele>
        <time>2020-09-20T09:16:15.000Z</time>
      </trkpt>
      <trkpt lat="43.58466" lon="3.74222">
        <ele>87.30200064</ele>
        <time>2020-09-20T09:16:16.000Z</time>
      </trkpt>
      <trkpt lat="43.58467" lon="3.74225">
        <ele>87.50200064</ele>
        <time>2020-09-20T09:16:17.000Z</time>
      </trkpt>
      <trkpt lat="43.58468" lon="3.74227">
        <ele>87.70200064</ele>
        <time>2020-09-20T09:16:18.000Z</time>
      </trkpt>
      <trkpt lat="43.58469" lon="3.7423">
        <ele>87.90200064</ele>
        <time>2020-09-20T09:16:19.000Z</time>
      </trkpt>
      <trkpt lat="43.58471" lon="3.74234">
        <ele>88.150849325859</ele>
        <time>2020-09-20T09:16:21.000Z</time>
      </trkpt>
      <trkpt lat="43.58473" lon="3.74237">
        <ele>88.350649334043</ele>
        <time>2020-09-20T09:16:23.000Z</time>
      </trkpt>
      <trkpt lat="43.58476" lon="3.74239">
        <ele>88.550449342226</ele>
        <time>2020-09-20T09:16:25.000Z</time>
      </trkpt>
      <trkpt lat="43.58477" lon="3.74242">
        <ele>88.75024935041</ele>
        <time>2020-09-20T09:16:27.000Z</time>
      </trkpt>
      <trkpt lat="43.58479" lon="3.74245">
        <ele>88.950049358594</ele>
        <time>2020-09-20T09:16:29.000Z</time>
      </trkpt>
      <trkpt lat="43.5848" lon="3.74249">
        <ele>89.29999872</ele>
        <time>2020-09-20T09:16:31.000Z</time>
      </trkpt>
      <trkpt lat="43.58481" lon="3.74253">
        <ele>89.69999872</ele>
        <time>2020-09-20T09:16:33.000Z</time>
      </trkpt>
      <trkpt lat="43.58482" lon="3.74257">
        <ele>90.09999872</ele>
        <time>2020-09-20T09:16:35.000Z</time>
      </trkpt>
      <trkpt lat="43.58482" lon="3.7426">
        <ele>90.49999872</ele>
        <time>2020-09-20T09:16:37.000Z</time>
      </trkpt>
      <trkpt lat="43.58483" lon="3.74264">
        <ele>90.89999872</ele>
        <time>2020-09-20T09:16:39.000Z</time>
      </trkpt>
      <trkpt lat="43.58483" lon="3.74268">
        <ele>91.300299307595</ele>
        <time>2020-09-20T09:16:41.000Z</time>
      </trkpt>
      <trkpt lat="43.58484" lon="3.74272">
        <ele>91.700700092765</ele>
        <time>2020-09-20T09:16:43.000Z</time>
      </trkpt>
      <trkpt lat="43.58486" lon="3.74277">
        <ele>92.101100877935</ele>
        <time>2020-09-20T09:16:45.000Z</time>
      </trkpt>
      <trkpt lat="43.58487" lon="3.74281">
        <ele>92.501501663105</ele>
        <time>2020-09-20T09:16:47.000Z</time>
      </trkpt>
      <trkpt lat="43.58487" lon="3.74285">
        <ele>92.901902448275</ele>
        <time>2020-09-20T09:16:49.000Z</time>
      </trkpt>
      <trkpt lat="43.58489" lon="3.74289">
        <ele>93</ele>
        <time>2020-09-20T09:16:51.000Z</time>
      </trkpt>
      <trkpt lat="43.5849" lon="3.74294">
        <ele>93</ele>
        <time>2020-09-20T09:16:53.000Z</time>
      </trkpt>
      <trkpt lat="43.5849" lon="3.74297">
        <ele>93</ele>
        <time>2020-09-20T09:16:54.000Z</time>
      </trkpt>
      <trkpt lat="43.58489" lon="3.74299">
        <ele>93</ele>
        <time>2020-09-20T09:16:55.000Z</time>
      </trkpt>
      <trkpt lat="43.58489" lon="3.74303">
        <ele>93</ele>
        <time>2020-09-20T09:16:56.000Z</time>
      </trkpt>
      <trkpt lat="43.58489" lon="3.74307">
        <ele>93</ele>
        <time>2020-09-20T09:16:57.000Z</time>
      </trkpt>
      <trkpt lat="43.58489" lon="3.74311">
        <ele>93</ele>
        <time>2020-09-20T09:16:58.000Z</time>
      </trkpt>
      <trkpt lat="43.5849" lon="3.74315">
        <ele>93</ele>
        <time>2020-09-20T09:16:59.000Z</time>
      </trkpt>
      <trkpt lat="43.58491" lon="3.74318">
        <ele>93</ele>
        <time>2020-09-20T09:17:00.000Z</time>
      </trkpt>
      <trkpt lat="43.58491" lon="3.74322">
        <ele>93</ele>
        <time>2020-09-20T09:17:01.000Z</time>
      </trkpt>
      <trkpt lat="43.58492" lon="3.74326">
        <ele>93</ele>
        <time>2020-09-20T09:17:02.000Z</time>
      </trkpt>
      <trkpt lat="43.58492" lon="3.7433">
        <ele>93</ele>
        <time>2020-09-20T09:17:03.000Z</time>
      </trkpt>
      <trkpt lat="43.58493" lon="3.74334">
        <ele>93</ele>
        <time>2020-09-20T09:17:04.000Z</time>
      </trkpt>
      <trkpt lat="43.58493" lon="3.74338">
        <ele>93</ele>
        <time>2020-09-20T09:17:05.000Z</time>
      </trkpt>
      <trkpt lat="43.58494" lon="3.74342">
        <ele>93</ele>
        <time>2020-09-20T09:17:06.000Z</time>
      </trkpt>
      <trkpt lat="43.58496" lon="3.74344">
        <ele>93</ele>
        <time>2020-09-20T09:17:07.000Z</time>
      </trkpt>
      <trkpt lat="43.58497" lon="3.74346">
        <ele>93</ele>
        <time>2020-09-20T09:17:08.000Z</time>
      </trkpt>
      <trkpt lat="43.58499" lon="3.74347">
        <ele>93</ele>
        <time>2020-09-20T09:17:09.000Z</time>
      </trkpt>
      <trkpt lat="43.58502" lon="3.74349">
        <ele>93</ele>
        <time>2020-09-20T09:17:11.000Z</time>
      </trkpt>
      <trkpt lat="43.58504" lon="3.7435">
        <ele>93</ele>
        <time>2020-09-20T09:17:12.000Z</time>
      </trkpt>
      <trkpt lat="43.58506" lon="3.74351">
        <ele>93</ele>
        <time>2020-09-20T09:17:13.000Z</time>
      </trkpt>
      <trkpt lat="43.58508" lon="3.74352">
        <ele>93</ele>
        <time>2020-09-20T09:17:14.000Z</time>
      </trkpt>
      <trkpt lat="43.5851" lon="3.74353">
        <ele>93</ele>
        <time>2020-09-20T09:17:15.000Z</time>
      </trkpt>
      <trkpt lat="43.58512" lon="3.74353">
        <ele>93</ele>
        <time>2020-09-20T09:17:16.000Z</time>
      </trkpt>
      <trkpt lat="43.58514" lon="3.74354">
        <ele>93</ele>
        <time>2020-09-20T09:17:17.000Z</time>
      </trkpt>
      <trkpt lat="43.58516" lon="3.74354">
        <ele>93</ele>
        <time>2020-09-20T09:17:18.000Z</time>
      </trkpt>
      <trkpt lat="43.58519" lon="3.74354">
        <ele>93</ele>
        <time>2020-09-20T09:17:19.000Z</time>
      </trkpt>
      <trkpt lat="43.58521" lon="3.74354">
        <ele>93.101493206446</ele>
        <time>2020-09-20T09:17:20.000Z</time>
      </trkpt>
      <trkpt lat="43.58523" lon="3.74353">
        <ele>93.300498244935</ele>
        <time>2020-09-20T09:17:21.000Z</time>
      </trkpt>
      <trkpt lat="43.58525" lon="3.74353">
        <ele>93.499503283424</ele>
        <time>2020-09-20T09:17:22.000Z</time>
      </trkpt>
      <trkpt lat="43.58527" lon="3.74352">
        <ele>93.698508321913</ele>
        <time>2020-09-20T09:17:23.000Z</time>
      </trkpt>
      <trkpt lat="43.58529" lon="3.74351">
        <ele>93.897513360402</ele>
        <time>2020-09-20T09:17:24.000Z</time>
      </trkpt>
      <trkpt lat="43.58531" lon="3.7435">
        <ele>94.096518398891</ele>
        <time>2020-09-20T09:17:25.000Z</time>
      </trkpt>
      <trkpt lat="43.58532" lon="3.74349">
        <ele>94.295523437381</ele>
        <time>2020-09-20T09:17:26.000Z</time>
      </trkpt>
      <trkpt lat="43.58534" lon="3.74349">
        <ele>94.49452847587</ele>
        <time>2020-09-20T09:17:27.000Z</time>
      </trkpt>
      <trkpt lat="43.58536" lon="3.74348">
        <ele>94.693533514359</ele>
        <time>2020-09-20T09:17:28.000Z</time>
      </trkpt>
      <trkpt lat="43.58538" lon="3.74348">
        <ele>94.892538552848</ele>
        <time>2020-09-20T09:17:29.000Z</time>
      </trkpt>
      <trkpt lat="43.5854" lon="3.74347">
        <ele>95</ele>
        <time>2020-09-20T09:17:30.000Z</time>
      </trkpt>
      <trkpt lat="43.58542" lon="3.74346">
        <ele>95</ele>
        <time>2020-09-20T09:17:31.000Z</time>
      </trkpt>
      <trkpt lat="43.58544" lon="3.74346">
        <ele>95</ele>
        <time>2020-09-20T09:17:32.000Z</time>
      </trkpt>
      <trkpt lat="43.58547" lon="3.74345">
        <ele>95</ele>
        <time>2020-09-20T09:17:33.000Z</time>
      </trkpt>
      <trkpt lat="43.58549" lon="3.74346">
        <ele>95</ele>
        <time>2020-09-20T09:17:34.000Z</time>
      </trkpt>
      <trkpt lat="43.58551" lon="3.74346">
        <ele>95</ele>
        <time>2020-09-20T09:17:35.000Z</time>
      </trkpt>
      <trkpt lat="43.58554" lon="3.74346">
        <ele>95</ele>
        <time>2020-09-20T09:17:36.000Z</time>
      </trkpt>
      <trkpt lat="43.58556" lon="3.74346">
        <ele>95</ele>
        <time>2020-09-20T09:17:37.000Z</time>
      </trkpt>
      <trkpt lat="43.58559" lon="3.74346">
        <ele>95</ele>
        <time>2020-09-20T09:17:38.000Z</time>
      </trkpt>
      <trkpt lat="43.58562" lon="3.74347">
        <ele>95</ele>
        <time>2020-09-20T09:17:39.000Z</time>
      </trkpt>
      <trkpt lat="43.58564" lon="3.74347">
        <ele>95.05100032</ele>
        <time>2020-09-20T09:17:40.000Z</time>
      </trkpt>
      <trkpt lat="43.58567" lon="3.74347">
        <ele>95.15100032</ele>
        <time>2020-09-20T09:17:41.000Z</time>
      </trkpt>
      <trkpt lat="43.58569" lon="3.74347">
        <ele>95.25100032</ele>
        <time>2020-09-20T09:17:42.000Z</time>
      </trkpt>
      <trkpt lat="43.58571" lon="3.74347">
        <ele>95.35100032</ele>
        <time>2020-09-20T09:17:43.000Z</time>
      </trkpt>
      <trkpt lat="43.58573" lon="3.74347">
        <ele>95.45100032</ele>
        <time>2020-09-20T09:17:44.000Z</time>
      </trkpt>
      <trkpt lat="43.58575" lon="3.74348">
        <ele>95.55100032</ele>
        <time>2020-09-20T09:17:45.000Z</time>
      </trkpt>
      <trkpt lat="43.58577" lon="3.74348">
        <ele>95.65100032</ele>
        <time>2020-09-20T09:17:46.000Z</time>
      </trkpt>
      <trkpt lat="43.5858" lon="3.74348">
        <ele>95.75100032</ele>
        <time>2020-09-20T09:17:47.000Z</time>
      </trkpt>
      <trkpt lat="43.58582" lon="3.74348">
        <ele>95.85100032</ele>
        <time>2020-09-20T09:17:48.000Z</time>
      </trkpt>
      <trkpt lat="43.58585" lon="3.74348">
        <ele>95.95100032</ele>
        <time>2020-09-20T09:17:49.000Z</time>
      </trkpt>
      <trkpt lat="43.58587" lon="3.74349">
        <ele>96</ele>
        <time>2020-09-20T09:17:50.000Z</time>
      </trkpt>
      <trkpt lat="43.5859" lon="3.74349">
        <ele>96</ele>
        <time>2020-09-20T09:17:51.000Z</time>
      </trkpt>
      <trkpt lat="43.58593" lon="3.7435">
        <ele>96</ele>
        <time>2020-09-20T09:17:52.000Z</time>
      </trkpt>
      <trkpt lat="43.58595" lon="3.7435">
        <ele>96</ele>
        <time>2020-09-20T09:17:53.000Z</time>
      </trkpt>
      <trkpt lat="43.58598" lon="3.74351">
        <ele>96</ele>
        <time>2020-09-20T09:17:54.000Z</time>
      </trkpt>
      <trkpt lat="43.586" lon="3.74351">
        <ele>96</ele>
        <time>2020-09-20T09:17:55.000Z</time>
      </trkpt>
      <trkpt lat="43.58602" lon="3.74351">
        <ele>96</ele>
        <time>2020-09-20T09:17:56.000Z</time>
      </trkpt>
      <trkpt lat="43.58605" lon="3.74349">
        <ele>96</ele>
        <time>2020-09-20T09:17:58.000Z</time>
      </trkpt>
      <trkpt lat="43.58607" lon="3.74345">
        <ele>96.101796980888</ele>
        <time>2020-09-20T09:18:00.000Z</time>
      </trkpt>
      <trkpt lat="43.58609" lon="3.74343">
        <ele>96.301397651802</ele>
        <time>2020-09-20T09:18:01.000Z</time>
      </trkpt>
      <trkpt lat="43.5861" lon="3.74341">
        <ele>96.500998322716</ele>
        <time>2020-09-20T09:18:02.000Z</time>
      </trkpt>
      <trkpt lat="43.58612" lon="3.74339">
        <ele>96.700598993629</ele>
        <time>2020-09-20T09:18:03.000Z</time>
      </trkpt>
      <trkpt lat="43.58614" lon="3.74338">
        <ele>96.900199664543</ele>
        <time>2020-09-20T09:18:04.000Z</time>
      </trkpt>
      <trkpt lat="43.58615" lon="3.74336">
        <ele>97.099800335457</ele>
        <time>2020-09-20T09:18:05.000Z</time>
      </trkpt>
      <trkpt lat="43.58617" lon="3.74333">
        <ele>97.299401006371</ele>
        <time>2020-09-20T09:18:06.000Z</time>
      </trkpt>
      <trkpt lat="43.58618" lon="3.74331">
        <ele>97.499001677284</ele>
        <time>2020-09-20T09:18:07.000Z</time>
      </trkpt>
      <trkpt lat="43.58619" lon="3.74329">
        <ele>97.698602348198</ele>
        <time>2020-09-20T09:18:08.000Z</time>
      </trkpt>
      <trkpt lat="43.5862" lon="3.74327">
        <ele>97.898203019112</ele>
        <time>2020-09-20T09:18:09.000Z</time>
      </trkpt>
      <trkpt lat="43.58622" lon="3.74322">
        <ele>98.149298372296</ele>
        <time>2020-09-20T09:18:11.000Z</time>
      </trkpt>
      <trkpt lat="43.58622" lon="3.7432">
        <ele>98.249498837354</ele>
        <time>2020-09-20T09:18:12.000Z</time>
      </trkpt>
      <trkpt lat="43.58623" lon="3.74315">
        <ele>98.449899767471</ele>
        <time>2020-09-20T09:18:14.000Z</time>
      </trkpt>
      <trkpt lat="43.58625" lon="3.74311">
        <ele>98.650300697588</ele>
        <time>2020-09-20T09:18:16.000Z</time>
      </trkpt>
      <trkpt lat="43.58626" lon="3.74307">
        <ele>98.850701627704</ele>
        <time>2020-09-20T09:18:18.000Z</time>
      </trkpt>
      <trkpt lat="43.58627" lon="3.74302">
        <ele>99.10200064</ele>
        <time>2020-09-20T09:18:20.000Z</time>
      </trkpt>
      <trkpt lat="43.58628" lon="3.74298">
        <ele>99.50200064</ele>
        <time>2020-09-20T09:18:22.000Z</time>
      </trkpt>
      <trkpt lat="43.58629" lon="3.74294">
        <ele>99.90200064</ele>
        <time>2020-09-20T09:18:24.000Z</time>
      </trkpt>
      <trkpt lat="43.58631" lon="3.74291">
        <ele>100.30200064</ele>
        <time>2020-09-20T09:18:26.000Z</time>
      </trkpt>
      <trkpt lat="43.58634" lon="3.74289">
        <ele>100.70200064</ele>
        <time>2020-09-20T09:18:28.000Z</time>
      </trkpt>
      <trkpt lat="43.58638" lon="3.74289">
        <ele>100.94905067823</ele>
        <time>2020-09-20T09:18:30.000Z</time>
      </trkpt>
      <trkpt lat="43.5864" lon="3.74289">
        <ele>100.84915067414</ele>
        <time>2020-09-20T09:18:31.000Z</time>
      </trkpt>
      <trkpt lat="43.58642" lon="3.7429">
        <ele>100.74925067005</ele>
        <time>2020-09-20T09:18:32.000Z</time>
      </trkpt>
      <trkpt lat="43.58644" lon="3.74291">
        <ele>100.64935066596</ele>
        <time>2020-09-20T09:18:33.000Z</time>
      </trkpt>
      <trkpt lat="43.58647" lon="3.74291">
        <ele>100.54945066186</ele>
        <time>2020-09-20T09:18:34.000Z</time>
      </trkpt>
      <trkpt lat="43.5865" lon="3.74292">
        <ele>100.44955065777</ele>
        <time>2020-09-20T09:18:35.000Z</time>
      </trkpt>
      <trkpt lat="43.58654" lon="3.74293">
        <ele>100.34965065368</ele>
        <time>2020-09-20T09:18:36.000Z</time>
      </trkpt>
      <trkpt lat="43.58657" lon="3.74294">
        <ele>100.24975064959</ele>
        <time>2020-09-20T09:18:37.000Z</time>
      </trkpt>
      <trkpt lat="43.58661" lon="3.74294">
        <ele>100.1498506455</ele>
        <time>2020-09-20T09:18:38.000Z</time>
      </trkpt>
      <trkpt lat="43.58664" lon="3.74295">
        <ele>100.04995064141</ele>
        <time>2020-09-20T09:18:39.000Z</time>
      </trkpt>
      <trkpt lat="43.58668" lon="3.74296">
        <ele>99.949950542495</ele>
        <time>2020-09-20T09:18:40.000Z</time>
      </trkpt>
      <trkpt lat="43.58672" lon="3.74297">
        <ele>99.849850346203</ele>
        <time>2020-09-20T09:18:41.000Z</time>
      </trkpt>
      <trkpt lat="43.58677" lon="3.74298">
        <ele>99.74975014991</ele>
        <time>2020-09-20T09:18:42.000Z</time>
      </trkpt>
      <trkpt lat="43.58681" lon="3.74299">
        <ele>99.649649953618</ele>
        <time>2020-09-20T09:18:43.000Z</time>
      </trkpt>
      <trkpt lat="43.58686" lon="3.74301">
        <ele>99.549549757325</ele>
        <time>2020-09-20T09:18:44.000Z</time>
      </trkpt>
      <trkpt lat="43.58691" lon="3.74302">
        <ele>99.449449561033</ele>
        <time>2020-09-20T09:18:45.000Z</time>
      </trkpt>
      <trkpt lat="43.58695" lon="3.74304">
        <ele>99.34934936474</ele>
        <time>2020-09-20T09:18:46.000Z</time>
      </trkpt>
      <trkpt lat="43.587" lon="3.74305">
        <ele>99.249249168448</ele>
        <time>2020-09-20T09:18:47.000Z</time>
      </trkpt>
      <trkpt lat="43.58705" lon="3.74306">
        <ele>99.149148972155</ele>
        <time>2020-09-20T09:18:48.000Z</time>
      </trkpt>
      <trkpt lat="43.58709" lon="3.74308">
        <ele>99.049048775863</ele>
        <time>2020-09-20T09:18:49.000Z</time>
      </trkpt>
      <trkpt lat="43.58713" lon="3.74308">
        <ele>99</ele>
        <time>2020-09-20T09:18:50.000Z</time>
      </trkpt>
      <trkpt lat="43.58717" lon="3.74309">
        <ele>99</ele>
        <time>2020-09-20T09:18:51.000Z</time>
      </trkpt>
      <trkpt lat="43.5872" lon="3.7431">
        <ele>99</ele>
        <time>2020-09-20T09:18:52.000Z</time>
      </trkpt>
      <trkpt lat="43.58723" lon="3.7431">
        <ele>99</ele>
        <time>2020-09-20T09:18:53.000Z</time>
      </trkpt>
      <trkpt lat="43.58725" lon="3.7431">
        <ele>99</ele>
        <time>2020-09-20T09:18:54.000Z</time>
      </trkpt>
      <trkpt lat="43.58728" lon="3.74311">
        <ele>99</ele>
        <time>2020-09-20T09:18:56.000Z</time>
      </trkpt>
      <trkpt lat="43.58731" lon="3.74311">
        <ele>99</ele>
        <time>2020-09-20T09:18:58.000Z</time>
      </trkpt>
      <trkpt lat="43.58734" lon="3.74311">
        <ele>99.050746603223</ele>
        <time>2020-09-20T09:19:00.000Z</time>
      </trkpt>
      <trkpt lat="43.58736" lon="3.74311">
        <ele>99.249751641712</ele>
        <time>2020-09-20T09:19:02.000Z</time>
      </trkpt>
      <trkpt lat="43.58739" lon="3.74312">
        <ele>99.448756680201</ele>
        <time>2020-09-20T09:19:04.000Z</time>
      </trkpt>
      <trkpt lat="43.58742" lon="3.74313">
        <ele>99.64776171869</ele>
        <time>2020-09-20T09:19:06.000Z</time>
      </trkpt>
      <trkpt lat="43.58745" lon="3.74314">
        <ele>99.846766757179</ele>
        <time>2020-09-20T09:19:08.000Z</time>
      </trkpt>
      <trkpt lat="43.58748" lon="3.74315">
        <ele>100.09246356825</ele>
        <time>2020-09-20T09:19:10.000Z</time>
      </trkpt>
      <trkpt lat="43.5875" lon="3.74316">
        <ele>100.29346852873</ele>
        <time>2020-09-20T09:19:11.000Z</time>
      </trkpt>
      <trkpt lat="43.58753" lon="3.74318">
        <ele>100.6954784497</ele>
        <time>2020-09-20T09:19:13.000Z</time>
      </trkpt>
      <trkpt lat="43.58755" lon="3.74318">
        <ele>100.89648341018</ele>
        <time>2020-09-20T09:19:14.000Z</time>
      </trkpt>
      <trkpt lat="43.58756" lon="3.74319">
        <ele>101.09748837066</ele>
        <time>2020-09-20T09:19:15.000Z</time>
      </trkpt>
      <trkpt lat="43.58758" lon="3.7432">
        <ele>101.29849333114</ele>
        <time>2020-09-20T09:19:16.000Z</time>
      </trkpt>
      <trkpt lat="43.5876" lon="3.74321">
        <ele>101.49949829162</ele>
        <time>2020-09-20T09:19:17.000Z</time>
      </trkpt>
      <trkpt lat="43.58762" lon="3.74321">
        <ele>101.7005032521</ele>
        <time>2020-09-20T09:19:18.000Z</time>
      </trkpt>
      <trkpt lat="43.58764" lon="3.74322">
        <ele>101.90150821258</ele>
        <time>2020-09-20T09:19:19.000Z</time>
      </trkpt>
      <trkpt lat="43.58765" lon="3.74323">
        <ele>102.05089849044</ele>
        <time>2020-09-20T09:19:20.000Z</time>
      </trkpt>
      <trkpt lat="43.58767" lon="3.74324">
        <ele>102.1506988259</ele>
        <time>2020-09-20T09:19:21.000Z</time>
      </trkpt>
      <trkpt lat="43.5877" lon="3.74325">
        <ele>102.35029949681</ele>
        <time>2020-09-20T09:19:23.000Z</time>
      </trkpt>
      <trkpt lat="43.58772" lon="3.74326">
        <ele>102.45009983227</ele>
        <time>2020-09-20T09:19:24.000Z</time>
      </trkpt>
      <trkpt lat="43.58774" lon="3.74327">
        <ele>102.54990016773</ele>
        <time>2020-09-20T09:19:25.000Z</time>
      </trkpt>
      <trkpt lat="43.58776" lon="3.74328">
        <ele>102.64970050319</ele>
        <time>2020-09-20T09:19:26.000Z</time>
      </trkpt>
      <trkpt lat="43.58778" lon="3.74329">
        <ele>102.74950083864</ele>
        <time>2020-09-20T09:19:27.000Z</time>
      </trkpt>
      <trkpt lat="43.58779" lon="3.7433">
        <ele>102.8493011741</ele>
        <time>2020-09-20T09:19:28.000Z</time>
      </trkpt>
      <trkpt lat="43.58781" lon="3.74331">
        <ele>102.94910150956</ele>
        <time>2020-09-20T09:19:29.000Z</time>
      </trkpt>
      <trkpt lat="43.58783" lon="3.74332">
        <ele>103.04909790724</ele>
        <time>2020-09-20T09:19:30.000Z</time>
      </trkpt>
      <trkpt lat="43.58784" lon="3.74333">
        <ele>103.1492983723</ele>
        <time>2020-09-20T09:19:31.000Z</time>
      </trkpt>
      <trkpt lat="43.58786" lon="3.74334">
        <ele>103.24949883735</ele>
        <time>2020-09-20T09:19:32.000Z</time>
      </trkpt>
      <trkpt lat="43.58788" lon="3.74335">
        <ele>103.34969930241</ele>
        <time>2020-09-20T09:19:33.000Z</time>
      </trkpt>
      <trkpt lat="43.5879" lon="3.74336">
        <ele>103.44989976747</ele>
        <time>2020-09-20T09:19:34.000Z</time>
      </trkpt>
      <trkpt lat="43.58791" lon="3.74337">
        <ele>103.55010023253</ele>
        <time>2020-09-20T09:19:35.000Z</time>
      </trkpt>
      <trkpt lat="43.58794" lon="3.74339">
        <ele>103.75050116265</ele>
        <time>2020-09-20T09:19:37.000Z</time>
      </trkpt>
      <trkpt lat="43.58798" lon="3.74341">
        <ele>103.95090209276</ele>
        <time>2020-09-20T09:19:39.000Z</time>
      </trkpt>
      <trkpt lat="43.58801" lon="3.74343">
        <ele>104.15100032</ele>
        <time>2020-09-20T09:19:41.000Z</time>
      </trkpt>
      <trkpt lat="43.58802" lon="3.74345">
        <ele>104.25100032</ele>
        <time>2020-09-20T09:19:42.000Z</time>
      </trkpt>
      <trkpt lat="43.58804" lon="3.74346">
        <ele>104.35100032</ele>
        <time>2020-09-20T09:19:43.000Z</time>
      </trkpt>
      <trkpt lat="43.58807" lon="3.74348">
        <ele>104.55100032</ele>
        <time>2020-09-20T09:19:45.000Z</time>
      </trkpt>
      <trkpt lat="43.58809" lon="3.74349">
        <ele>104.65100032</ele>
        <time>2020-09-20T09:19:46.000Z</time>
      </trkpt>
      <trkpt lat="43.58811" lon="3.7435">
        <ele>104.75100032</ele>
        <time>2020-09-20T09:19:47.000Z</time>
      </trkpt>
      <trkpt lat="43.58812" lon="3.74351">
        <ele>104.85100032</ele>
        <time>2020-09-20T09:19:48.000Z</time>
      </trkpt>
      <trkpt lat="43.58814" lon="3.74352">
        <ele>104.95100032</ele>
        <time>2020-09-20T09:19:49.000Z</time>
      </trkpt>
      <trkpt lat="43.58816" lon="3.74353">
        <ele>105.05094932177</ele>
        <time>2020-09-20T09:19:50.000Z</time>
      </trkpt>
      <trkpt lat="43.58819" lon="3.74355">
        <ele>105.25074932995</ele>
        <time>2020-09-20T09:19:52.000Z</time>
      </trkpt>
      <trkpt lat="43.58821" lon="3.74356">
        <ele>105.35064933404</ele>
        <time>2020-09-20T09:19:53.000Z</time>
      </trkpt>
      <trkpt lat="43.58824" lon="3.74358">
        <ele>105.55044934223</ele>
        <time>2020-09-20T09:19:55.000Z</time>
      </trkpt>
      <trkpt lat="43.58826" lon="3.74359">
        <ele>105.65034934632</ele>
        <time>2020-09-20T09:19:56.000Z</time>
      </trkpt>
      <trkpt lat="43.58828" lon="3.7436">
        <ele>105.75024935041</ele>
        <time>2020-09-20T09:19:57.000Z</time>
      </trkpt>
      <trkpt lat="43.5883" lon="3.74361">
        <ele>105.8501493545</ele>
        <time>2020-09-20T09:19:58.000Z</time>
      </trkpt>
      <trkpt lat="43.58832" lon="3.74362">
        <ele>105.95004935859</ele>
        <time>2020-09-20T09:19:59.000Z</time>
      </trkpt>
      <trkpt lat="43.58834" lon="3.74363">
        <ele>106.0500494575</ele>
        <time>2020-09-20T09:20:00.000Z</time>
      </trkpt>
      <trkpt lat="43.58836" lon="3.74364">
        <ele>106.1501496538</ele>
        <time>2020-09-20T09:20:01.000Z</time>
      </trkpt>
      <trkpt lat="43.58837" lon="3.74365">
        <ele>106.25024985009</ele>
        <time>2020-09-20T09:20:02.000Z</time>
      </trkpt>
      <trkpt lat="43.58839" lon="3.74366">
        <ele>106.35035004638</ele>
        <time>2020-09-20T09:20:03.000Z</time>
      </trkpt>
      <trkpt lat="43.58841" lon="3.74368">
        <ele>106.45045024268</ele>
        <time>2020-09-20T09:20:04.000Z</time>
      </trkpt>
      <trkpt lat="43.58843" lon="3.74369">
        <ele>106.55055043897</ele>
        <time>2020-09-20T09:20:05.000Z</time>
      </trkpt>
      <trkpt lat="43.58845" lon="3.7437">
        <ele>106.65065063526</ele>
        <time>2020-09-20T09:20:06.000Z</time>
      </trkpt>
      <trkpt lat="43.58847" lon="3.74371">
        <ele>106.75075083155</ele>
        <time>2020-09-20T09:20:07.000Z</time>
      </trkpt>
      <trkpt lat="43.58849" lon="3.74372">
        <ele>106.85085102784</ele>
        <time>2020-09-20T09:20:08.000Z</time>
      </trkpt>
      <trkpt lat="43.58851" lon="3.74374">
        <ele>107.05100032</ele>
        <time>2020-09-20T09:20:10.000Z</time>
      </trkpt>
      <trkpt lat="43.58855" lon="3.74376">
        <ele>107.25100032</ele>
        <time>2020-09-20T09:20:12.000Z</time>
      </trkpt>
      <trkpt lat="43.58858" lon="3.74379">
        <ele>107.45100032</ele>
        <time>2020-09-20T09:20:14.000Z</time>
      </trkpt>
      <trkpt lat="43.58861" lon="3.7438">
        <ele>107.65100032</ele>
        <time>2020-09-20T09:20:16.000Z</time>
      </trkpt>
      <trkpt lat="43.58863" lon="3.74383">
        <ele>107.85100032</ele>
        <time>2020-09-20T09:20:18.000Z</time>
      </trkpt>
      <trkpt lat="43.58865" lon="3.74384">
        <ele>108.10200064</ele>
        <time>2020-09-20T09:20:20.000Z</time>
      </trkpt>
      <trkpt lat="43.58868" lon="3.74386">
        <ele>108.50200064</ele>
        <time>2020-09-20T09:20:22.000Z</time>
      </trkpt>
      <trkpt lat="43.5887" lon="3.74388">
        <ele>108.90200064</ele>
        <time>2020-09-20T09:20:24.000Z</time>
      </trkpt>
      <trkpt lat="43.58873" lon="3.7439">
        <ele>109.30200064</ele>
        <time>2020-09-20T09:20:26.000Z</time>
      </trkpt>
      <trkpt lat="43.58876" lon="3.74392">
        <ele>109.70200064</ele>
        <time>2020-09-20T09:20:28.000Z</time>
      </trkpt>
      <trkpt lat="43.58878" lon="3.74394">
        <ele>110.05100032</ele>
        <time>2020-09-20T09:20:30.000Z</time>
      </trkpt>
      <trkpt lat="43.58881" lon="3.74396">
        <ele>110.25100032</ele>
        <time>2020-09-20T09:20:32.000Z</time>
      </trkpt>
      <trkpt lat="43.58884" lon="3.74399">
        <ele>110.45100032</ele>
        <time>2020-09-20T09:20:34.000Z</time>
      </trkpt>
      <trkpt lat="43.58887" lon="3.74401">
        <ele>110.65100032</ele>
        <time>2020-09-20T09:20:36.000Z</time>
      </trkpt>
      <trkpt lat="43.58889" lon="3.74403">
        <ele>110.85100032</ele>
        <time>2020-09-20T09:20:38.000Z</time>
      </trkpt>
      <trkpt lat="43.58892" lon="3.74405">
        <ele>111.10200064</ele>
        <time>2020-09-20T09:20:40.000Z</time>
      </trkpt>
      <trkpt lat="43.58895" lon="3.74407">
        <ele>111.50200064</ele>
        <time>2020-09-20T09:20:42.000Z</time>
      </trkpt>
      <trkpt lat="43.58898" lon="3.74409">
        <ele>111.90200064</ele>
        <time>2020-09-20T09:20:44.000Z</time>
      </trkpt>
      <trkpt lat="43.589" lon="3.74412">
        <ele>112.30200064</ele>
        <time>2020-09-20T09:20:46.000Z</time>
      </trkpt>
      <trkpt lat="43.58903" lon="3.74414">
        <ele>112.70200064</ele>
        <time>2020-09-20T09:20:48.000Z</time>
      </trkpt>
      <trkpt lat="43.58906" lon="3.74416">
        <ele>113.10200064</ele>
        <time>2020-09-20T09:20:50.000Z</time>
      </trkpt>
      <trkpt lat="43.58909" lon="3.74418">
        <ele>113.50200064</ele>
        <time>2020-09-20T09:20:52.000Z</time>
      </trkpt>
      <trkpt lat="43.58912" lon="3.74419">
        <ele>113.90200064</ele>
        <time>2020-09-20T09:20:54.000Z</time>
      </trkpt>
      <trkpt lat="43.58916" lon="3.7442">
        <ele>114.30200064</ele>
        <time>2020-09-20T09:20:56.000Z</time>
      </trkpt>
      <trkpt lat="43.58919" lon="3.74422">
        <ele>114.70200064</ele>
        <time>2020-09-20T09:20:58.000Z</time>
      </trkpt>
      <trkpt lat="43.5892" lon="3.74423">
        <ele>114.90200064</ele>
        <time>2020-09-20T09:20:59.000Z</time>
      </trkpt>
      <trkpt lat="43.58922" lon="3.74424">
        <ele>115</ele>
        <time>2020-09-20T09:21:00.000Z</time>
      </trkpt>
      <trkpt lat="43.58924" lon="3.74425">
        <ele>115</ele>
        <time>2020-09-20T09:21:01.000Z</time>
      </trkpt>
      <trkpt lat="43.58926" lon="3.74426">
        <ele>115</ele>
        <time>2020-09-20T09:21:02.000Z</time>
      </trkpt>
      <trkpt lat="43.58927" lon="3.74427">
        <ele>115</ele>
        <time>2020-09-20T09:21:03.000Z</time>
      </trkpt>
      <trkpt lat="43.58929" lon="3.74427">
        <ele>115</ele>
        <time>2020-09-20T09:21:04.000Z</time>
      </trkpt>
      <trkpt lat="43.58931" lon="3.74428">
        <ele>115</ele>
        <time>2020-09-20T09:21:05.000Z</time>
      </trkpt>
      <trkpt lat="43.58933" lon="3.7443">
        <ele>115</ele>
        <time>2020-09-20T09:21:06.000Z</time>
      </trkpt>
      <trkpt lat="43.58935" lon="3.74431">
        <ele>115</ele>
        <time>2020-09-20T09:21:07.000Z</time>
      </trkpt>
      <trkpt lat="43.58937" lon="3.74432">
        <ele>115</ele>
        <time>2020-09-20T09:21:08.000Z</time>
      </trkpt>
      <trkpt lat="43.58939" lon="3.74433">
        <ele>115</ele>
        <time>2020-09-20T09:21:09.000Z</time>
      </trkpt>
      <trkpt lat="43.58941" lon="3.74434">
        <ele>115.05100032</ele>
        <time>2020-09-20T09:21:10.000Z</time>
      </trkpt>
      <trkpt lat="43.58943" lon="3.74435">
        <ele>115.15100032</ele>
        <time>2020-09-20T09:21:11.000Z</time>
      </trkpt>
      <trkpt lat="43.58946" lon="3.74436">
        <ele>115.25100032</ele>
        <time>2020-09-20T09:21:12.000Z</time>
      </trkpt>
      <trkpt lat="43.58948" lon="3.74437">
        <ele>115.35100032</ele>
        <time>2020-09-20T09:21:13.000Z</time>
      </trkpt>
      <trkpt lat="43.5895" lon="3.74438">
        <ele>115.45100032</ele>
        <time>2020-09-20T09:21:14.000Z</time>
      </trkpt>
      <trkpt lat="43.58952" lon="3.7444">
        <ele>115.55100032</ele>
        <time>2020-09-20T09:21:15.000Z</time>
      </trkpt>
      <trkpt lat="43.58955" lon="3.74441">
        <ele>115.65100032</ele>
        <time>2020-09-20T09:21:16.000Z</time>
      </trkpt>
      <trkpt lat="43.58957" lon="3.74442">
        <ele>115.75100032</ele>
        <time>2020-09-20T09:21:17.000Z</time>
      </trkpt>
      <trkpt lat="43.58959" lon="3.74444">
        <ele>115.85100032</ele>
        <time>2020-09-20T09:21:18.000Z</time>
      </trkpt>
      <trkpt lat="43.58961" lon="3.74446">
        <ele>115.95100032</ele>
        <time>2020-09-20T09:21:19.000Z</time>
      </trkpt>
      <trkpt lat="43.58964" lon="3.74447">
        <ele>116</ele>
        <time>2020-09-20T09:21:20.000Z</time>
      </trkpt>
      <trkpt lat="43.58966" lon="3.74449">
        <ele>116</ele>
        <time>2020-09-20T09:21:21.000Z</time>
      </trkpt>
      <trkpt lat="43.58969" lon="3.74451">
        <ele>116</ele>
        <time>2020-09-20T09:21:22.000Z</time>
      </trkpt>
      <trkpt lat="43.58971" lon="3.74452">
        <ele>116</ele>
        <time>2020-09-20T09:21:23.000Z</time>
      </trkpt>
      <trkpt lat="43.58973" lon="3.74454">
        <ele>116</ele>
        <time>2020-09-20T09:21:24.000Z</time>
      </trkpt>
      <trkpt lat="43.58976" lon="3.74456">
        <ele>116</ele>
        <time>2020-09-20T09:21:25.000Z</time>
      </trkpt>
      <trkpt lat="43.58978" lon="3.74458">
        <ele>116</ele>
        <time>2020-09-20T09:21:26.000Z</time>
      </trkpt>
      <trkpt lat="43.58981" lon="3.7446">
        <ele>116</ele>
        <time>2020-09-20T09:21:27.000Z</time>
      </trkpt>
      <trkpt lat="43.58983" lon="3.74462">
        <ele>116</ele>
        <time>2020-09-20T09:21:28.000Z</time>
      </trkpt>
      <trkpt lat="43.58986" lon="3.74464">
        <ele>116</ele>
        <time>2020-09-20T09:21:29.000Z</time>
      </trkpt>
      <trkpt lat="43.58988" lon="3.74466">
        <ele>116.05100032</ele>
        <time>2020-09-20T09:21:30.000Z</time>
      </trkpt>
      <trkpt lat="43.5899" lon="3.74467">
        <ele>116.15100032</ele>
        <time>2020-09-20T09:21:31.000Z</time>
      </trkpt>
      <trkpt lat="43.58993" lon="3.74468">
        <ele>116.25100032</ele>
        <time>2020-09-20T09:21:32.000Z</time>
      </trkpt>
      <trkpt lat="43.58995" lon="3.74469">
        <ele>116.35100032</ele>
        <time>2020-09-20T09:21:33.000Z</time>
      </trkpt>
      <trkpt lat="43.58997" lon="3.74469">
        <ele>116.45100032</ele>
        <time>2020-09-20T09:21:34.000Z</time>
      </trkpt>
      <trkpt lat="43.59" lon="3.7447">
        <ele>116.55100032</ele>
        <time>2020-09-20T09:21:35.000Z</time>
      </trkpt>
      <trkpt lat="43.59002" lon="3.7447">
        <ele>116.65100032</ele>
        <time>2020-09-20T09:21:36.000Z</time>
      </trkpt>
      <trkpt lat="43.59005" lon="3.7447">
        <ele>116.75100032</ele>
        <time>2020-09-20T09:21:37.000Z</time>
      </trkpt>
      <trkpt lat="43.59007" lon="3.74471">
        <ele>116.85100032</ele>
        <time>2020-09-20T09:21:38.000Z</time>
      </trkpt>
      <trkpt lat="43.5901" lon="3.74471">
        <ele>116.95100032</ele>
        <time>2020-09-20T09:21:39.000Z</time>
      </trkpt>
      <trkpt lat="43.59012" lon="3.74472">
        <ele>116.94899968</ele>
        <time>2020-09-20T09:21:40.000Z</time>
      </trkpt>
      <trkpt lat="43.59015" lon="3.74472">
        <ele>116.84899968</ele>
        <time>2020-09-20T09:21:41.000Z</time>
      </trkpt>
      <trkpt lat="43.59017" lon="3.74473">
        <ele>116.74899968</ele>
        <time>2020-09-20T09:21:42.000Z</time>
      </trkpt>
      <trkpt lat="43.5902" lon="3.74474">
        <ele>116.64899968</ele>
        <time>2020-09-20T09:21:43.000Z</time>
      </trkpt>
      <trkpt lat="43.59022" lon="3.74475">
        <ele>116.54899968</ele>
        <time>2020-09-20T09:21:44.000Z</time>
      </trkpt>
      <trkpt lat="43.59024" lon="3.74476">
        <ele>116.44899968</ele>
        <time>2020-09-20T09:21:45.000Z</time>
      </trkpt>
      <trkpt lat="43.59027" lon="3.74476">
        <ele>116.34899968</ele>
        <time>2020-09-20T09:21:46.000Z</time>
      </trkpt>
      <trkpt lat="43.5903" lon="3.74477">
        <ele>116.24899968</ele>
        <time>2020-09-20T09:21:47.000Z</time>
      </trkpt>
      <trkpt lat="43.59032" lon="3.74478">
        <ele>116.14899968</ele>
        <time>2020-09-20T09:21:48.000Z</time>
      </trkpt>
      <trkpt lat="43.59034" lon="3.74479">
        <ele>116.04899968</ele>
        <time>2020-09-20T09:21:49.000Z</time>
      </trkpt>
      <trkpt lat="43.59037" lon="3.74481">
        <ele>116</ele>
        <time>2020-09-20T09:21:50.000Z</time>
      </trkpt>
      <trkpt lat="43.59039" lon="3.74482">
        <ele>116</ele>
        <time>2020-09-20T09:21:51.000Z</time>
      </trkpt>
      <trkpt lat="43.59041" lon="3.74484">
        <ele>116</ele>
        <time>2020-09-20T09:21:52.000Z</time>
      </trkpt>
      <trkpt lat="43.59043" lon="3.74486">
        <ele>116</ele>
        <time>2020-09-20T09:21:53.000Z</time>
      </trkpt>
      <trkpt lat="43.59045" lon="3.74488">
        <ele>116</ele>
        <time>2020-09-20T09:21:54.000Z</time>
      </trkpt>
      <trkpt lat="43.59047" lon="3.74491">
        <ele>116</ele>
        <time>2020-09-20T09:21:55.000Z</time>
      </trkpt>
      <trkpt lat="43.59049" lon="3.74493">
        <ele>116</ele>
        <time>2020-09-20T09:21:56.000Z</time>
      </trkpt>
      <trkpt lat="43.59052" lon="3.74496">
        <ele>116</ele>
        <time>2020-09-20T09:21:57.000Z</time>
      </trkpt>
      <trkpt lat="43.59054" lon="3.74499">
        <ele>116</ele>
        <time>2020-09-20T09:21:58.000Z</time>
      </trkpt>
      <trkpt lat="43.59055" lon="3.74503">
        <ele>116</ele>
        <time>2020-09-20T09:21:59.000Z</time>
      </trkpt>
      <trkpt lat="43.59056" lon="3.74508">
        <ele>115.95043699139</ele>
        <time>2020-09-20T09:22:00.000Z</time>
      </trkpt>
      <trkpt lat="43.59055" lon="3.74512">
        <ele>115.85325523133</ele>
        <time>2020-09-20T09:22:01.000Z</time>
      </trkpt>
      <trkpt lat="43.59055" lon="3.74517">
        <ele>115.75607347128</ele>
        <time>2020-09-20T09:22:02.000Z</time>
      </trkpt>
      <trkpt lat="43.59054" lon="3.74522">
        <ele>115.65889171122</ele>
        <time>2020-09-20T09:22:03.000Z</time>
      </trkpt>
      <trkpt lat="43.59052" lon="3.74526">
        <ele>115.56170995116</ele>
        <time>2020-09-20T09:22:04.000Z</time>
      </trkpt>
      <trkpt lat="43.59051" lon="3.74531">
        <ele>115.46452819111</ele>
        <time>2020-09-20T09:22:05.000Z</time>
      </trkpt>
      <trkpt lat="43.5905" lon="3.74535">
        <ele>115.36734643105</ele>
        <time>2020-09-20T09:22:06.000Z</time>
      </trkpt>
      <trkpt lat="43.59048" lon="3.74539">
        <ele>115.27016467099</ele>
        <time>2020-09-20T09:22:07.000Z</time>
      </trkpt>
      <trkpt lat="43.59046" lon="3.74543">
        <ele>115.17298291094</ele>
        <time>2020-09-20T09:22:08.000Z</time>
      </trkpt>
      <trkpt lat="43.59045" lon="3.74547">
        <ele>115.07580115088</ele>
        <time>2020-09-20T09:22:09.000Z</time>
      </trkpt>
      <trkpt lat="43.59043" lon="3.74551">
        <ele>114.97799936</ele>
        <time>2020-09-20T09:22:10.000Z</time>
      </trkpt>
      <trkpt lat="43.59042" lon="3.74554">
        <ele>114.87799936</ele>
        <time>2020-09-20T09:22:11.000Z</time>
      </trkpt>
      <trkpt lat="43.5904" lon="3.74558">
        <ele>114.77799936</ele>
        <time>2020-09-20T09:22:12.000Z</time>
      </trkpt>
      <trkpt lat="43.59039" lon="3.74562">
        <ele>114.67799936</ele>
        <time>2020-09-20T09:22:13.000Z</time>
      </trkpt>
      <trkpt lat="43.59038" lon="3.74566">
        <ele>114.57799936</ele>
        <time>2020-09-20T09:22:14.000Z</time>
      </trkpt>
      <trkpt lat="43.59036" lon="3.7457">
        <ele>114.47799936</ele>
        <time>2020-09-20T09:22:15.000Z</time>
      </trkpt>
      <trkpt lat="43.59035" lon="3.74574">
        <ele>114.37799936</ele>
        <time>2020-09-20T09:22:16.000Z</time>
      </trkpt>
      <trkpt lat="43.59034" lon="3.74578">
        <ele>114.27799936</ele>
        <time>2020-09-20T09:22:17.000Z</time>
      </trkpt>
      <trkpt lat="43.59032" lon="3.74582">
        <ele>114.17799936</ele>
        <time>2020-09-20T09:22:18.000Z</time>
      </trkpt>
      <trkpt lat="43.5903" lon="3.74587">
        <ele>114.07799936</ele>
        <time>2020-09-20T09:22:19.000Z</time>
      </trkpt>
      <trkpt lat="43.59029" lon="3.74592">
        <ele>113.95468458754</ele>
        <time>2020-09-20T09:22:20.000Z</time>
      </trkpt>
      <trkpt lat="43.59026" lon="3.74597">
        <ele>113.74871143194</ele>
        <time>2020-09-20T09:22:21.000Z</time>
      </trkpt>
      <trkpt lat="43.59024" lon="3.74603">
        <ele>113.54273827634</ele>
        <time>2020-09-20T09:22:22.000Z</time>
      </trkpt>
      <trkpt lat="43.59022" lon="3.74609">
        <ele>113.33676512074</ele>
        <time>2020-09-20T09:22:23.000Z</time>
      </trkpt>
      <trkpt lat="43.5902" lon="3.74615">
        <ele>113.13079196514</ele>
        <time>2020-09-20T09:22:24.000Z</time>
      </trkpt>
      <trkpt lat="43.59018" lon="3.74619">
        <ele>112.92481880953</ele>
        <time>2020-09-20T09:22:25.000Z</time>
      </trkpt>
      <trkpt lat="43.59015" lon="3.74622">
        <ele>112.71884565393</ele>
        <time>2020-09-20T09:22:26.000Z</time>
      </trkpt>
      <trkpt lat="43.59012" lon="3.74623">
        <ele>112.51287249833</ele>
        <time>2020-09-20T09:22:27.000Z</time>
      </trkpt>
      <trkpt lat="43.59011" lon="3.74624">
        <ele>111.99716504662</ele>
        <time>2020-09-20T09:22:35.000Z</time>
      </trkpt>
      <trkpt lat="43.59003" lon="3.74621">
        <ele>110</ele>
        <time>2020-09-20T09:26:00.000Z</time>
      </trkpt>
      <trkpt lat="43.59001" lon="3.74619">
        <ele>110</ele>
        <time>2020-09-20T09:26:01.000Z</time>
      </trkpt>
      <trkpt lat="43.58997" lon="3.74617">
        <ele>110</ele>
        <time>2020-09-20T09:26:02.000Z</time>
      </trkpt>
      <trkpt lat="43.58994" lon="3.74615">
        <ele>110</ele>
        <time>2020-09-20T09:26:03.000Z</time>
      </trkpt>
      <trkpt lat="43.5899" lon="3.74613">
        <ele>110</ele>
        <time>2020-09-20T09:26:04.000Z</time>
      </trkpt>
      <trkpt lat="43.58986" lon="3.74611">
        <ele>110</ele>
        <time>2020-09-20T09:26:05.000Z</time>
      </trkpt>
      <trkpt lat="43.58982" lon="3.74609">
        <ele>110</ele>
        <time>2020-09-20T09:26:06.000Z</time>
      </trkpt>
      <trkpt lat="43.58979" lon="3.74608">
        <ele>110</ele>
        <time>2020-09-20T09:26:07.000Z</time>
      </trkpt>
      <trkpt lat="43.58975" lon="3.74606">
        <ele>110</ele>
        <time>2020-09-20T09:26:08.000Z</time>
      </trkpt>
      <trkpt lat="43.58971" lon="3.74605">
        <ele>110</ele>
        <time>2020-09-20T09:26:09.000Z</time>
      </trkpt>
      <trkpt lat="43.58967" lon="3.74604">
        <ele>110</ele>
        <time>2020-09-20T09:26:10.000Z</time>
      </trkpt>
      <trkpt lat="43.58963" lon="3.74602">
        <ele>110</ele>
        <time>2020-09-20T09:26:11.000Z</time>
      </trkpt>
      <trkpt lat="43.58959" lon="3.746">
        <ele>110</ele>
        <time>2020-09-20T09:26:12.000Z</time>
      </trkpt>
      <trkpt lat="43.58956" lon="3.74598">
        <ele>110</ele>
        <time>2020-09-20T09:26:13.000Z</time>
      </trkpt>
      <trkpt lat="43.58953" lon="3.74597">
        <ele>110</ele>
        <time>2020-09-20T09:26:14.000Z</time>
      </trkpt>
      <trkpt lat="43.5895" lon="3.74596">
        <ele>110</ele>
        <time>2020-09-20T09:26:15.000Z</time>
      </trkpt>
      <trkpt lat="43.58948" lon="3.74595">
        <ele>110</ele>
        <time>2020-09-20T09:26:16.000Z</time>
      </trkpt>
      <trkpt lat="43.58946" lon="3.74595">
        <ele>110</ele>
        <time>2020-09-20T09:26:17.000Z</time>
      </trkpt>
      <trkpt lat="43.58944" lon="3.74597">
        <ele>110</ele>
        <time>2020-09-20T09:26:18.000Z</time>
      </trkpt>
      <trkpt lat="43.58942" lon="3.746">
        <ele>110</ele>
        <time>2020-09-20T09:26:19.000Z</time>
      </trkpt>
      <trkpt lat="43.58938" lon="3.74604">
        <ele>109.93663362321</ele>
        <time>2020-09-20T09:26:20.000Z</time>
      </trkpt>
      <trkpt lat="43.58934" lon="3.74606">
        <ele>109.73861369576</ele>
        <time>2020-09-20T09:26:21.000Z</time>
      </trkpt>
      <trkpt lat="43.5893" lon="3.74608">
        <ele>109.5405937683</ele>
        <time>2020-09-20T09:26:22.000Z</time>
      </trkpt>
      <trkpt lat="43.58927" lon="3.74611">
        <ele>109.34257384084</ele>
        <time>2020-09-20T09:26:23.000Z</time>
      </trkpt>
      <trkpt lat="43.58926" lon="3.74615">
        <ele>109.14455391338</ele>
        <time>2020-09-20T09:26:24.000Z</time>
      </trkpt>
      <trkpt lat="43.58927" lon="3.7462">
        <ele>108.94653398592</ele>
        <time>2020-09-20T09:26:25.000Z</time>
      </trkpt>
      <trkpt lat="43.58928" lon="3.74625">
        <ele>108.74851405846</ele>
        <time>2020-09-20T09:26:26.000Z</time>
      </trkpt>
      <trkpt lat="43.58929" lon="3.74632">
        <ele>108.55049413101</ele>
        <time>2020-09-20T09:26:27.000Z</time>
      </trkpt>
      <trkpt lat="43.58928" lon="3.74639">
        <ele>108.35247420355</ele>
        <time>2020-09-20T09:26:28.000Z</time>
      </trkpt>
      <trkpt lat="43.58928" lon="3.74645">
        <ele>108.15445427609</ele>
        <time>2020-09-20T09:26:29.000Z</time>
      </trkpt>
      <trkpt lat="43.58928" lon="3.7465">
        <ele>107.95468458754</ele>
        <time>2020-09-20T09:26:30.000Z</time>
      </trkpt>
      <trkpt lat="43.5893" lon="3.74655">
        <ele>107.74871143194</ele>
        <time>2020-09-20T09:26:31.000Z</time>
      </trkpt>
      <trkpt lat="43.58929" lon="3.7466">
        <ele>107.54273827634</ele>
        <time>2020-09-20T09:26:32.000Z</time>
      </trkpt>
      <trkpt lat="43.58926" lon="3.74664">
        <ele>107.33676512074</ele>
        <time>2020-09-20T09:26:33.000Z</time>
      </trkpt>
      <trkpt lat="43.58923" lon="3.74669">
        <ele>107.13079196514</ele>
        <time>2020-09-20T09:26:34.000Z</time>
      </trkpt>
      <trkpt lat="43.58921" lon="3.74673">
        <ele>106.92481880953</ele>
        <time>2020-09-20T09:26:35.000Z</time>
      </trkpt>
      <trkpt lat="43.58919" lon="3.74678">
        <ele>106.71884565393</ele>
        <time>2020-09-20T09:26:36.000Z</time>
      </trkpt>
      <trkpt lat="43.58917" lon="3.74683">
        <ele>106.51287249833</ele>
        <time>2020-09-20T09:26:37.000Z</time>
      </trkpt>
      <trkpt lat="43.58914" lon="3.74688">
        <ele>106.30689934273</ele>
        <time>2020-09-20T09:26:38.000Z</time>
      </trkpt>
      <trkpt lat="43.58912" lon="3.74693">
        <ele>106.10092618713</ele>
        <time>2020-09-20T09:26:39.000Z</time>
      </trkpt>
      <trkpt lat="43.58909" lon="3.747">
        <ele>105.94899968</ele>
        <time>2020-09-20T09:26:40.000Z</time>
      </trkpt>
      <trkpt lat="43.58907" lon="3.74707">
        <ele>105.84899968</ele>
        <time>2020-09-20T09:26:41.000Z</time>
      </trkpt>
      <trkpt lat="43.58906" lon="3.74713">
        <ele>105.74899968</ele>
        <time>2020-09-20T09:26:42.000Z</time>
      </trkpt>
      <trkpt lat="43.58906" lon="3.74718">
        <ele>105.64899968</ele>
        <time>2020-09-20T09:26:43.000Z</time>
      </trkpt>
      <trkpt lat="43.58908" lon="3.7472">
        <ele>104.92173813031</ele>
        <time>2020-09-20T09:26:51.000Z</time>
      </trkpt>
      <trkpt lat="43.58909" lon="3.74719">
        <ele>104.05217210636</ele>
        <time>2020-09-20T09:26:54.000Z</time>
      </trkpt>
      <trkpt lat="43.58909" lon="3.74719">
        <ele>104</ele>
        <time>2020-09-20T09:26:57.000Z</time>
      </trkpt>
      <trkpt lat="43.58918" lon="3.74718">
        <ele>104</ele>
        <time>2020-09-20T09:27:04.000Z</time>
      </trkpt>
      <trkpt lat="43.58921" lon="3.74718">
        <ele>104</ele>
        <time>2020-09-20T09:27:05.000Z</time>
      </trkpt>
      <trkpt lat="43.58924" lon="3.74718">
        <ele>104</ele>
        <time>2020-09-20T09:27:06.000Z</time>
      </trkpt>
      <trkpt lat="43.58927" lon="3.74718">
        <ele>104</ele>
        <time>2020-09-20T09:27:07.000Z</time>
      </trkpt>
      <trkpt lat="43.5893" lon="3.74718">
        <ele>104</ele>
        <time>2020-09-20T09:27:08.000Z</time>
      </trkpt>
      <trkpt lat="43.58933" lon="3.74718">
        <ele>104</ele>
        <time>2020-09-20T09:27:09.000Z</time>
      </trkpt>
      <trkpt lat="43.58936" lon="3.74718">
        <ele>104</ele>
        <time>2020-09-20T09:27:10.000Z</time>
      </trkpt>
      <trkpt lat="43.58939" lon="3.74717">
        <ele>104</ele>
        <time>2020-09-20T09:27:11.000Z</time>
      </trkpt>
      <trkpt lat="43.58943" lon="3.74717">
        <ele>104</ele>
        <time>2020-09-20T09:27:12.000Z</time>
      </trkpt>
      <trkpt lat="43.58946" lon="3.74717">
        <ele>104</ele>
        <time>2020-09-20T09:27:13.000Z</time>
      </trkpt>
      <trkpt lat="43.58949" lon="3.74717">
        <ele>104</ele>
        <time>2020-09-20T09:27:14.000Z</time>
      </trkpt>
      <trkpt lat="43.58952" lon="3.74717">
        <ele>104</ele>
        <time>2020-09-20T09:27:15.000Z</time>
      </trkpt>
      <trkpt lat="43.58954" lon="3.74717">
        <ele>104</ele>
        <time>2020-09-20T09:27:17.000Z</time>
      </trkpt>
      <trkpt lat="43.58954" lon="3.74717">
        <ele>104</ele>
        <time>2020-09-20T09:27:23.000Z</time>
      </trkpt>
      <trkpt lat="43.58965" lon="3.74718">
        <ele>104</ele>
        <time>2020-09-20T09:27:30.000Z</time>
      </trkpt>
      <trkpt lat="43.58968" lon="3.74718">
        <ele>103.89841266401</ele>
        <time>2020-09-20T09:27:31.000Z</time>
      </trkpt>
      <trkpt lat="43.58971" lon="3.74718">
        <ele>103.79259252236</ele>
        <time>2020-09-20T09:27:32.000Z</time>
      </trkpt>
      <trkpt lat="43.58974" lon="3.74717">
        <ele>103.68677238071</ele>
        <time>2020-09-20T09:27:33.000Z</time>
      </trkpt>
      <trkpt lat="43.58978" lon="3.74716">
        <ele>103.58095223905</ele>
        <time>2020-09-20T09:27:34.000Z</time>
      </trkpt>
      <trkpt lat="43.58981" lon="3.74716">
        <ele>103.4751320974</ele>
        <time>2020-09-20T09:27:35.000Z</time>
      </trkpt>
      <trkpt lat="43.58984" lon="3.74716">
        <ele>103.36931195575</ele>
        <time>2020-09-20T09:27:36.000Z</time>
      </trkpt>
      <trkpt lat="43.58988" lon="3.74717">
        <ele>103.26349181409</ele>
        <time>2020-09-20T09:27:37.000Z</time>
      </trkpt>
      <trkpt lat="43.58991" lon="3.74718">
        <ele>103.15767167244</ele>
        <time>2020-09-20T09:27:38.000Z</time>
      </trkpt>
      <trkpt lat="43.58995" lon="3.74719">
        <ele>103.05185153079</ele>
        <time>2020-09-20T09:27:39.000Z</time>
      </trkpt>
      <trkpt lat="43.58998" lon="3.74721">
        <ele>102.95043699139</ele>
        <time>2020-09-20T09:27:40.000Z</time>
      </trkpt>
      <trkpt lat="43.59002" lon="3.74722">
        <ele>102.85325523133</ele>
        <time>2020-09-20T09:27:41.000Z</time>
      </trkpt>
      <trkpt lat="43.59005" lon="3.74724">
        <ele>102.75607347128</ele>
        <time>2020-09-20T09:27:42.000Z</time>
      </trkpt>
      <trkpt lat="43.59008" lon="3.74727">
        <ele>102.65889171122</ele>
        <time>2020-09-20T09:27:43.000Z</time>
      </trkpt>
      <trkpt lat="43.59011" lon="3.74729">
        <ele>102.56170995116</ele>
        <time>2020-09-20T09:27:44.000Z</time>
      </trkpt>
      <trkpt lat="43.59015" lon="3.74732">
        <ele>102.46452819111</ele>
        <time>2020-09-20T09:27:45.000Z</time>
      </trkpt>
      <trkpt lat="43.59018" lon="3.74734">
        <ele>102.36734643105</ele>
        <time>2020-09-20T09:27:46.000Z</time>
      </trkpt>
      <trkpt lat="43.59022" lon="3.74735">
        <ele>102.27016467099</ele>
        <time>2020-09-20T09:27:47.000Z</time>
      </trkpt>
      <trkpt lat="43.59026" lon="3.74737">
        <ele>102.17298291094</ele>
        <time>2020-09-20T09:27:48.000Z</time>
      </trkpt>
      <trkpt lat="43.59031" lon="3.74738">
        <ele>102.07580115088</ele>
        <time>2020-09-20T09:27:49.000Z</time>
      </trkpt>
      <trkpt lat="43.59035" lon="3.7474">
        <ele>101.95468458754</ele>
        <time>2020-09-20T09:27:50.000Z</time>
      </trkpt>
      <trkpt lat="43.5904" lon="3.74741">
        <ele>101.74871143194</ele>
        <time>2020-09-20T09:27:51.000Z</time>
      </trkpt>
      <trkpt lat="43.59044" lon="3.74742">
        <ele>101.54273827634</ele>
        <time>2020-09-20T09:27:52.000Z</time>
      </trkpt>
      <trkpt lat="43.59049" lon="3.74743">
        <ele>101.33676512074</ele>
        <time>2020-09-20T09:27:53.000Z</time>
      </trkpt>
      <trkpt lat="43.59053" lon="3.74743">
        <ele>101.13079196514</ele>
        <time>2020-09-20T09:27:54.000Z</time>
      </trkpt>
      <trkpt lat="43.59056" lon="3.74742">
        <ele>100.92481880953</ele>
        <time>2020-09-20T09:27:55.000Z</time>
      </trkpt>
      <trkpt lat="43.59059" lon="3.74741">
        <ele>100.71884565393</ele>
        <time>2020-09-20T09:27:56.000Z</time>
      </trkpt>
      <trkpt lat="43.59062" lon="3.74739">
        <ele>100.51287249833</ele>
        <time>2020-09-20T09:27:57.000Z</time>
      </trkpt>
      <trkpt lat="43.59065" lon="3.74735">
        <ele>100.30689934273</ele>
        <time>2020-09-20T09:27:58.000Z</time>
      </trkpt>
      <trkpt lat="43.59067" lon="3.74731">
        <ele>100.10092618713</ele>
        <time>2020-09-20T09:27:59.000Z</time>
      </trkpt>
      <trkpt lat="43.5907" lon="3.74726">
        <ele>99.950436991389</ele>
        <time>2020-09-20T09:28:00.000Z</time>
      </trkpt>
      <trkpt lat="43.59072" lon="3.7472">
        <ele>99.853255231333</ele>
        <time>2020-09-20T09:28:01.000Z</time>
      </trkpt>
      <trkpt lat="43.59073" lon="3.74715">
        <ele>99.756073471276</ele>
        <time>2020-09-20T09:28:02.000Z</time>
      </trkpt>
      <trkpt lat="43.59074" lon="3.7471">
        <ele>99.65889171122</ele>
        <time>2020-09-20T09:28:03.000Z</time>
      </trkpt>
      <trkpt lat="43.59075" lon="3.74706">
        <ele>99.561709951163</ele>
        <time>2020-09-20T09:28:04.000Z</time>
      </trkpt>
      <trkpt lat="43.59077" lon="3.74703">
        <ele>99.464528191107</ele>
        <time>2020-09-20T09:28:05.000Z</time>
      </trkpt>
      <trkpt lat="43.59079" lon="3.747">
        <ele>99.36734643105</ele>
        <time>2020-09-20T09:28:06.000Z</time>
      </trkpt>
      <trkpt lat="43.59083" lon="3.74698">
        <ele>99.270164670994</ele>
        <time>2020-09-20T09:28:07.000Z</time>
      </trkpt>
      <trkpt lat="43.59088" lon="3.74697">
        <ele>99.172982910937</ele>
        <time>2020-09-20T09:28:08.000Z</time>
      </trkpt>
      <trkpt lat="43.59094" lon="3.74696">
        <ele>99.075801150881</ele>
        <time>2020-09-20T09:28:09.000Z</time>
      </trkpt>
      <trkpt lat="43.59099" lon="3.74695">
        <ele>98.909462506058</ele>
        <time>2020-09-20T09:28:10.000Z</time>
      </trkpt>
      <trkpt lat="43.59105" lon="3.74695">
        <ele>98.497940414235</ele>
        <time>2020-09-20T09:28:11.000Z</time>
      </trkpt>
      <trkpt lat="43.5911" lon="3.74694">
        <ele>98.086418322412</ele>
        <time>2020-09-20T09:28:12.000Z</time>
      </trkpt>
      <trkpt lat="43.59116" lon="3.74692">
        <ele>97.674896230589</ele>
        <time>2020-09-20T09:28:13.000Z</time>
      </trkpt>
      <trkpt lat="43.59123" lon="3.7469">
        <ele>97.263374138767</ele>
        <time>2020-09-20T09:28:14.000Z</time>
      </trkpt>
      <trkpt lat="43.5913" lon="3.74687">
        <ele>96.851852046944</ele>
        <time>2020-09-20T09:28:15.000Z</time>
      </trkpt>
      <trkpt lat="43.59137" lon="3.74683">
        <ele>96.440329955121</ele>
        <time>2020-09-20T09:28:16.000Z</time>
      </trkpt>
      <trkpt lat="43.59143" lon="3.74678">
        <ele>96.028807863298</ele>
        <time>2020-09-20T09:28:17.000Z</time>
      </trkpt>
      <trkpt lat="43.59149" lon="3.74673">
        <ele>95.617285771475</ele>
        <time>2020-09-20T09:28:18.000Z</time>
      </trkpt>
      <trkpt lat="43.59154" lon="3.74667">
        <ele>95.205763679653</ele>
        <time>2020-09-20T09:28:19.000Z</time>
      </trkpt>
      <trkpt lat="43.5916" lon="3.74661">
        <ele>94.85000192</ele>
        <time>2020-09-20T09:28:20.000Z</time>
      </trkpt>
      <trkpt lat="43.59164" lon="3.74654">
        <ele>94.55000192</ele>
        <time>2020-09-20T09:28:21.000Z</time>
      </trkpt>
      <trkpt lat="43.59169" lon="3.74648">
        <ele>94.25000192</ele>
        <time>2020-09-20T09:28:22.000Z</time>
      </trkpt>
      <trkpt lat="43.59173" lon="3.74642">
        <ele>93.95000192</ele>
        <time>2020-09-20T09:28:23.000Z</time>
      </trkpt>
      <trkpt lat="43.59177" lon="3.74637">
        <ele>93.65000192</ele>
        <time>2020-09-20T09:28:24.000Z</time>
      </trkpt>
      <trkpt lat="43.5918" lon="3.74632">
        <ele>93.35000192</ele>
        <time>2020-09-20T09:28:25.000Z</time>
      </trkpt>
      <trkpt lat="43.59184" lon="3.74628">
        <ele>93.05000192</ele>
        <time>2020-09-20T09:28:26.000Z</time>
      </trkpt>
      <trkpt lat="43.59188" lon="3.74628">
        <ele>92.75000192</ele>
        <time>2020-09-20T09:28:27.000Z</time>
      </trkpt>
      <trkpt lat="43.59192" lon="3.7463">
        <ele>92.45000192</ele>
        <time>2020-09-20T09:28:28.000Z</time>
      </trkpt>
      <trkpt lat="43.59194" lon="3.74635">
        <ele>92.15000192</ele>
        <time>2020-09-20T09:28:29.000Z</time>
      </trkpt>
      <trkpt lat="43.59196" lon="3.74642">
        <ele>91.949950542495</ele>
        <time>2020-09-20T09:28:30.000Z</time>
      </trkpt>
      <trkpt lat="43.59198" lon="3.74648">
        <ele>91.849850346203</ele>
        <time>2020-09-20T09:28:31.000Z</time>
      </trkpt>
      <trkpt lat="43.59199" lon="3.74652">
        <ele>91.74975014991</ele>
        <time>2020-09-20T09:28:32.000Z</time>
      </trkpt>
      <trkpt lat="43.59201" lon="3.74656">
        <ele>91.649649953618</ele>
        <time>2020-09-20T09:28:33.000Z</time>
      </trkpt>
      <trkpt lat="43.59202" lon="3.74661">
        <ele>91.549549757325</ele>
        <time>2020-09-20T09:28:34.000Z</time>
      </trkpt>
      <trkpt lat="43.59203" lon="3.74666">
        <ele>91.449449561033</ele>
        <time>2020-09-20T09:28:35.000Z</time>
      </trkpt>
      <trkpt lat="43.59205" lon="3.74672">
        <ele>91.34934936474</ele>
        <time>2020-09-20T09:28:36.000Z</time>
      </trkpt>
      <trkpt lat="43.59206" lon="3.74677">
        <ele>91.249249168448</ele>
        <time>2020-09-20T09:28:37.000Z</time>
      </trkpt>
      <trkpt lat="43.59207" lon="3.74683">
        <ele>91.149148972155</ele>
        <time>2020-09-20T09:28:38.000Z</time>
      </trkpt>
      <trkpt lat="43.59208" lon="3.74688">
        <ele>91.049048775863</ele>
        <time>2020-09-20T09:28:39.000Z</time>
      </trkpt>
      <trkpt lat="43.59209" lon="3.74693">
        <ele>91</ele>
        <time>2020-09-20T09:28:40.000Z</time>
      </trkpt>
      <trkpt lat="43.59211" lon="3.74698">
        <ele>91</ele>
        <time>2020-09-20T09:28:41.000Z</time>
      </trkpt>
      <trkpt lat="43.59212" lon="3.74703">
        <ele>91</ele>
        <time>2020-09-20T09:28:42.000Z</time>
      </trkpt>
      <trkpt lat="43.59213" lon="3.74708">
        <ele>91</ele>
        <time>2020-09-20T09:28:43.000Z</time>
      </trkpt>
      <trkpt lat="43.59214" lon="3.74713">
        <ele>91</ele>
        <time>2020-09-20T09:28:44.000Z</time>
      </trkpt>
      <trkpt lat="43.59215" lon="3.74718">
        <ele>91</ele>
        <time>2020-09-20T09:28:45.000Z</time>
      </trkpt>
      <trkpt lat="43.59216" lon="3.74723">
        <ele>91</ele>
        <time>2020-09-20T09:28:46.000Z</time>
      </trkpt>
      <trkpt lat="43.59216" lon="3.74728">
        <ele>91</ele>
        <time>2020-09-20T09:28:47.000Z</time>
      </trkpt>
      <trkpt lat="43.59216" lon="3.74733">
        <ele>91</ele>
        <time>2020-09-20T09:28:48.000Z</time>
      </trkpt>
      <trkpt lat="43.59216" lon="3.74738">
        <ele>91</ele>
        <time>2020-09-20T09:28:49.000Z</time>
      </trkpt>
      <trkpt lat="43.59215" lon="3.74744">
        <ele>91</ele>
        <time>2020-09-20T09:28:50.000Z</time>
      </trkpt>
      <trkpt lat="43.59215" lon="3.74749">
        <ele>91</ele>
        <time>2020-09-20T09:28:51.000Z</time>
      </trkpt>
      <trkpt lat="43.59214" lon="3.74754">
        <ele>91</ele>
        <time>2020-09-20T09:28:52.000Z</time>
      </trkpt>
      <trkpt lat="43.59212" lon="3.74758">
        <ele>91</ele>
        <time>2020-09-20T09:28:53.000Z</time>
      </trkpt>
      <trkpt lat="43.59211" lon="3.74762">
        <ele>91</ele>
        <time>2020-09-20T09:28:54.000Z</time>
      </trkpt>
      <trkpt lat="43.59208" lon="3.74766">
        <ele>91</ele>
        <time>2020-09-20T09:28:55.000Z</time>
      </trkpt>
      <trkpt lat="43.59206" lon="3.74769">
        <ele>91</ele>
        <time>2020-09-20T09:28:56.000Z</time>
      </trkpt>
      <trkpt lat="43.59204" lon="3.74772">
        <ele>91</ele>
        <time>2020-09-20T09:28:57.000Z</time>
      </trkpt>
      <trkpt lat="43.59201" lon="3.74775">
        <ele>91</ele>
        <time>2020-09-20T09:28:58.000Z</time>
      </trkpt>
      <trkpt lat="43.59199" lon="3.74778">
        <ele>91</ele>
        <time>2020-09-20T09:28:59.000Z</time>
      </trkpt>
      <trkpt lat="43.59196" lon="3.74781">
        <ele>91.05100032</ele>
        <time>2020-09-20T09:29:00.000Z</time>
      </trkpt>
      <trkpt lat="43.59194" lon="3.74784">
        <ele>91.15100032</ele>
        <time>2020-09-20T09:29:01.000Z</time>
      </trkpt>
      <trkpt lat="43.59193" lon="3.74788">
        <ele>91.25100032</ele>
        <time>2020-09-20T09:29:02.000Z</time>
      </trkpt>
      <trkpt lat="43.59192" lon="3.74792">
        <ele>91.35100032</ele>
        <time>2020-09-20T09:29:03.000Z</time>
      </trkpt>
      <trkpt lat="43.59191" lon="3.74796">
        <ele>91.45100032</ele>
        <time>2020-09-20T09:29:04.000Z</time>
      </trkpt>
      <trkpt lat="43.5919" lon="3.748">
        <ele>91.55100032</ele>
        <time>2020-09-20T09:29:05.000Z</time>
      </trkpt>
      <trkpt lat="43.59189" lon="3.74804">
        <ele>91.65100032</ele>
        <time>2020-09-20T09:29:06.000Z</time>
      </trkpt>
      <trkpt lat="43.59188" lon="3.74808">
        <ele>91.75100032</ele>
        <time>2020-09-20T09:29:07.000Z</time>
      </trkpt>
      <trkpt lat="43.59188" lon="3.74812">
        <ele>91.85100032</ele>
        <time>2020-09-20T09:29:08.000Z</time>
      </trkpt>
      <trkpt lat="43.59187" lon="3.74816">
        <ele>91.95100032</ele>
        <time>2020-09-20T09:29:09.000Z</time>
      </trkpt>
      <trkpt lat="43.59187" lon="3.74821">
        <ele>92.050949321767</ele>
        <time>2020-09-20T09:29:10.000Z</time>
      </trkpt>
      <trkpt lat="43.59186" lon="3.74825">
        <ele>92.150849325859</ele>
        <time>2020-09-20T09:29:11.000Z</time>
      </trkpt>
      <trkpt lat="43.59186" lon="3.7483">
        <ele>92.250749329951</ele>
        <time>2020-09-20T09:29:12.000Z</time>
      </trkpt>
      <trkpt lat="43.59185" lon="3.74834">
        <ele>92.350649334043</ele>
        <time>2020-09-20T09:29:13.000Z</time>
      </trkpt>
      <trkpt lat="43.59185" lon="3.74838">
        <ele>92.450549338134</ele>
        <time>2020-09-20T09:29:14.000Z</time>
      </trkpt>
      <trkpt lat="43.59185" lon="3.74843">
        <ele>92.550449342226</ele>
        <time>2020-09-20T09:29:15.000Z</time>
      </trkpt>
      <trkpt lat="43.59184" lon="3.74847">
        <ele>92.650349346318</ele>
        <time>2020-09-20T09:29:16.000Z</time>
      </trkpt>
      <trkpt lat="43.59184" lon="3.74851">
        <ele>92.75024935041</ele>
        <time>2020-09-20T09:29:17.000Z</time>
      </trkpt>
      <trkpt lat="43.59184" lon="3.74855">
        <ele>92.850149354502</ele>
        <time>2020-09-20T09:29:18.000Z</time>
      </trkpt>
      <trkpt lat="43.59185" lon="3.74859">
        <ele>92.950049358594</ele>
        <time>2020-09-20T09:29:19.000Z</time>
      </trkpt>
      <trkpt lat="43.59185" lon="3.74863">
        <ele>93.10009891501</ele>
        <time>2020-09-20T09:29:20.000Z</time>
      </trkpt>
      <trkpt lat="43.59186" lon="3.74867">
        <ele>93.300299307595</ele>
        <time>2020-09-20T09:29:21.000Z</time>
      </trkpt>
      <trkpt lat="43.59187" lon="3.7487">
        <ele>93.50049970018</ele>
        <time>2020-09-20T09:29:22.000Z</time>
      </trkpt>
      <trkpt lat="43.59188" lon="3.74873">
        <ele>93.700700092765</ele>
        <time>2020-09-20T09:29:23.000Z</time>
      </trkpt>
      <trkpt lat="43.59189" lon="3.74877">
        <ele>93.90090048535</ele>
        <time>2020-09-20T09:29:24.000Z</time>
      </trkpt>
      <trkpt lat="43.59189" lon="3.7488">
        <ele>94.101100877935</ele>
        <time>2020-09-20T09:29:25.000Z</time>
      </trkpt>
      <trkpt lat="43.5919" lon="3.74883">
        <ele>94.30130127052</ele>
        <time>2020-09-20T09:29:26.000Z</time>
      </trkpt>
      <trkpt lat="43.59191" lon="3.74886">
        <ele>94.501501663105</ele>
        <time>2020-09-20T09:29:27.000Z</time>
      </trkpt>
      <trkpt lat="43.59192" lon="3.74889">
        <ele>94.70170205569</ele>
        <time>2020-09-20T09:29:28.000Z</time>
      </trkpt>
      <trkpt lat="43.59193" lon="3.74892">
        <ele>94.901902448275</ele>
        <time>2020-09-20T09:29:29.000Z</time>
      </trkpt>
      <trkpt lat="43.59194" lon="3.74895">
        <ele>95.050949321767</ele>
        <time>2020-09-20T09:29:30.000Z</time>
      </trkpt>
      <trkpt lat="43.59195" lon="3.74897">
        <ele>95.150849325859</ele>
        <time>2020-09-20T09:29:31.000Z</time>
      </trkpt>
      <trkpt lat="43.59195" lon="3.749">
        <ele>95.250749329951</ele>
        <time>2020-09-20T09:29:32.000Z</time>
      </trkpt>
      <trkpt lat="43.59196" lon="3.74903">
        <ele>95.350649334043</ele>
        <time>2020-09-20T09:29:33.000Z</time>
      </trkpt>
      <trkpt lat="43.59196" lon="3.74906">
        <ele>95.450549338134</ele>
        <time>2020-09-20T09:29:34.000Z</time>
      </trkpt>
      <trkpt lat="43.59196" lon="3.74909">
        <ele>95.550449342226</ele>
        <time>2020-09-20T09:29:35.000Z</time>
      </trkpt>
      <trkpt lat="43.59197" lon="3.74912">
        <ele>95.650349346318</ele>
        <time>2020-09-20T09:29:36.000Z</time>
      </trkpt>
      <trkpt lat="43.59197" lon="3.74915">
        <ele>95.75024935041</ele>
        <time>2020-09-20T09:29:37.000Z</time>
      </trkpt>
      <trkpt lat="43.59197" lon="3.74919">
        <ele>95.850149354502</ele>
        <time>2020-09-20T09:29:38.000Z</time>
      </trkpt>
      <trkpt lat="43.59197" lon="3.74922">
        <ele>95.950049358594</ele>
        <time>2020-09-20T09:29:39.000Z</time>
      </trkpt>
      <trkpt lat="43.59197" lon="3.74925">
        <ele>96</ele>
        <time>2020-09-20T09:29:40.000Z</time>
      </trkpt>
      <trkpt lat="43.59197" lon="3.74928">
        <ele>96</ele>
        <time>2020-09-20T09:29:41.000Z</time>
      </trkpt>
      <trkpt lat="43.59197" lon="3.74932">
        <ele>96</ele>
        <time>2020-09-20T09:29:42.000Z</time>
      </trkpt>
      <trkpt lat="43.59197" lon="3.74935">
        <ele>96</ele>
        <time>2020-09-20T09:29:43.000Z</time>
      </trkpt>
      <trkpt lat="43.59196" lon="3.74938">
        <ele>96</ele>
        <time>2020-09-20T09:29:44.000Z</time>
      </trkpt>
      <trkpt lat="43.59196" lon="3.74942">
        <ele>96</ele>
        <time>2020-09-20T09:29:45.000Z</time>
      </trkpt>
      <trkpt lat="43.59196" lon="3.74946">
        <ele>96</ele>
        <time>2020-09-20T09:29:46.000Z</time>
      </trkpt>
      <trkpt lat="43.59196" lon="3.74951">
        <ele>96</ele>
        <time>2020-09-20T09:29:47.000Z</time>
      </trkpt>
      <trkpt lat="43.59195" lon="3.74955">
        <ele>96</ele>
        <time>2020-09-20T09:29:48.000Z</time>
      </trkpt>
      <trkpt lat="43.59195" lon="3.74959">
        <ele>96</ele>
        <time>2020-09-20T09:29:49.000Z</time>
      </trkpt>
      <trkpt lat="43.59195" lon="3.74963">
        <ele>96</ele>
        <time>2020-09-20T09:29:50.000Z</time>
      </trkpt>
      <trkpt lat="43.59195" lon="3.74967">
        <ele>96</ele>
        <time>2020-09-20T09:29:51.000Z</time>
      </trkpt>
      <trkpt lat="43.59195" lon="3.74971">
        <ele>96</ele>
        <time>2020-09-20T09:29:52.000Z</time>
      </trkpt>
      <trkpt lat="43.59195" lon="3.74975">
        <ele>96</ele>
        <time>2020-09-20T09:29:53.000Z</time>
      </trkpt>
      <trkpt lat="43.59195" lon="3.7498">
        <ele>96</ele>
        <time>2020-09-20T09:29:54.000Z</time>
      </trkpt>
      <trkpt lat="43.59196" lon="3.74984">
        <ele>96</ele>
        <time>2020-09-20T09:29:55.000Z</time>
      </trkpt>
      <trkpt lat="43.59196" lon="3.74988">
        <ele>96</ele>
        <time>2020-09-20T09:29:56.000Z</time>
      </trkpt>
      <trkpt lat="43.59197" lon="3.74992">
        <ele>96</ele>
        <time>2020-09-20T09:29:57.000Z</time>
      </trkpt>
      <trkpt lat="43.59198" lon="3.74997">
        <ele>96</ele>
        <time>2020-09-20T09:29:58.000Z</time>
      </trkpt>
      <trkpt lat="43.59199" lon="3.75">
        <ele>96</ele>
        <time>2020-09-20T09:29:59.000Z</time>
      </trkpt>
      <trkpt lat="43.59199" lon="3.75004">
        <ele>95.94899968</ele>
        <time>2020-09-20T09:30:00.000Z</time>
      </trkpt>
      <trkpt lat="43.592" lon="3.75008">
        <ele>95.84899968</ele>
        <time>2020-09-20T09:30:01.000Z</time>
      </trkpt>
      <trkpt lat="43.592" lon="3.75012">
        <ele>95.74899968</ele>
        <time>2020-09-20T09:30:02.000Z</time>
      </trkpt>
      <trkpt lat="43.59201" lon="3.75016">
        <ele>95.64899968</ele>
        <time>2020-09-20T09:30:03.000Z</time>
      </trkpt>
      <trkpt lat="43.59202" lon="3.75021">
        <ele>95.54899968</ele>
        <time>2020-09-20T09:30:04.000Z</time>
      </trkpt>
      <trkpt lat="43.59203" lon="3.75026">
        <ele>95.44899968</ele>
        <time>2020-09-20T09:30:05.000Z</time>
      </trkpt>
      <trkpt lat="43.59204" lon="3.75032">
        <ele>95.34899968</ele>
        <time>2020-09-20T09:30:06.000Z</time>
      </trkpt>
      <trkpt lat="43.59205" lon="3.75038">
        <ele>95.24899968</ele>
        <time>2020-09-20T09:30:07.000Z</time>
      </trkpt>
      <trkpt lat="43.59207" lon="3.75045">
        <ele>95.14899968</ele>
        <time>2020-09-20T09:30:08.000Z</time>
      </trkpt>
      <trkpt lat="43.59208" lon="3.75052">
        <ele>95.04899968</ele>
        <time>2020-09-20T09:30:09.000Z</time>
      </trkpt>
      <trkpt lat="43.5921" lon="3.75059">
        <ele>94.94899968</ele>
        <time>2020-09-20T09:30:10.000Z</time>
      </trkpt>
      <trkpt lat="43.59211" lon="3.75067">
        <ele>94.84899968</ele>
        <time>2020-09-20T09:30:11.000Z</time>
      </trkpt>
      <trkpt lat="43.59212" lon="3.75074">
        <ele>94.74899968</ele>
        <time>2020-09-20T09:30:12.000Z</time>
      </trkpt>
      <trkpt lat="43.59212" lon="3.7508">
        <ele>94.64899968</ele>
        <time>2020-09-20T09:30:13.000Z</time>
      </trkpt>
      <trkpt lat="43.59212" lon="3.75085">
        <ele>94.54899968</ele>
        <time>2020-09-20T09:30:14.000Z</time>
      </trkpt>
      <trkpt lat="43.59211" lon="3.75089">
        <ele>94.44899968</ele>
        <time>2020-09-20T09:30:15.000Z</time>
      </trkpt>
      <trkpt lat="43.5921" lon="3.75092">
        <ele>94.34899968</ele>
        <time>2020-09-20T09:30:16.000Z</time>
      </trkpt>
      <trkpt lat="43.59208" lon="3.75095">
        <ele>94.24899968</ele>
        <time>2020-09-20T09:30:17.000Z</time>
      </trkpt>
      <trkpt lat="43.59205" lon="3.75097">
        <ele>94.14899968</ele>
        <time>2020-09-20T09:30:18.000Z</time>
      </trkpt>
      <trkpt lat="43.59202" lon="3.75099">
        <ele>94.04899968</ele>
        <time>2020-09-20T09:30:19.000Z</time>
      </trkpt>
      <trkpt lat="43.59198" lon="3.75101">
        <ele>94</ele>
        <time>2020-09-20T09:30:20.000Z</time>
      </trkpt>
      <trkpt lat="43.59195" lon="3.75103">
        <ele>94</ele>
        <time>2020-09-20T09:30:21.000Z</time>
      </trkpt>
      <trkpt lat="43.59192" lon="3.75105">
        <ele>94</ele>
        <time>2020-09-20T09:30:22.000Z</time>
      </trkpt>
      <trkpt lat="43.59188" lon="3.75107">
        <ele>94</ele>
        <time>2020-09-20T09:30:23.000Z</time>
      </trkpt>
      <trkpt lat="43.59184" lon="3.75109">
        <ele>94</ele>
        <time>2020-09-20T09:30:24.000Z</time>
      </trkpt>
      <trkpt lat="43.59181" lon="3.75111">
        <ele>94</ele>
        <time>2020-09-20T09:30:25.000Z</time>
      </trkpt>
      <trkpt lat="43.59177" lon="3.75113">
        <ele>94</ele>
        <time>2020-09-20T09:30:26.000Z</time>
      </trkpt>
      <trkpt lat="43.59173" lon="3.75115">
        <ele>94</ele>
        <time>2020-09-20T09:30:27.000Z</time>
      </trkpt>
      <trkpt lat="43.59169" lon="3.75117">
        <ele>94</ele>
        <time>2020-09-20T09:30:28.000Z</time>
      </trkpt>
      <trkpt lat="43.59165" lon="3.75119">
        <ele>94</ele>
        <time>2020-09-20T09:30:29.000Z</time>
      </trkpt>
      <trkpt lat="43.59161" lon="3.75121">
        <ele>94</ele>
        <time>2020-09-20T09:30:30.000Z</time>
      </trkpt>
      <trkpt lat="43.59157" lon="3.75124">
        <ele>94</ele>
        <time>2020-09-20T09:30:31.000Z</time>
      </trkpt>
      <trkpt lat="43.59153" lon="3.75126">
        <ele>94</ele>
        <time>2020-09-20T09:30:32.000Z</time>
      </trkpt>
      <trkpt lat="43.59149" lon="3.75128">
        <ele>94</ele>
        <time>2020-09-20T09:30:33.000Z</time>
      </trkpt>
      <trkpt lat="43.59145" lon="3.7513">
        <ele>94</ele>
        <time>2020-09-20T09:30:34.000Z</time>
      </trkpt>
      <trkpt lat="43.59141" lon="3.75132">
        <ele>94</ele>
        <time>2020-09-20T09:30:35.000Z</time>
      </trkpt>
      <trkpt lat="43.59137" lon="3.75134">
        <ele>94</ele>
        <time>2020-09-20T09:30:36.000Z</time>
      </trkpt>
      <trkpt lat="43.59133" lon="3.75136">
        <ele>94</ele>
        <time>2020-09-20T09:30:37.000Z</time>
      </trkpt>
      <trkpt lat="43.59129" lon="3.75138">
        <ele>94</ele>
        <time>2020-09-20T09:30:38.000Z</time>
      </trkpt>
      <trkpt lat="43.59125" lon="3.7514">
        <ele>94</ele>
        <time>2020-09-20T09:30:39.000Z</time>
      </trkpt>
      <trkpt lat="43.59122" lon="3.75142">
        <ele>94.046738057492</ele>
        <time>2020-09-20T09:30:40.000Z</time>
      </trkpt>
      <trkpt lat="43.59119" lon="3.75145">
        <ele>94.144109010599</ele>
        <time>2020-09-20T09:30:41.000Z</time>
      </trkpt>
      <trkpt lat="43.59115" lon="3.75148">
        <ele>94.241479963706</ele>
        <time>2020-09-20T09:30:42.000Z</time>
      </trkpt>
      <trkpt lat="43.59111" lon="3.7515">
        <ele>94.338850916814</ele>
        <time>2020-09-20T09:30:43.000Z</time>
      </trkpt>
      <trkpt lat="43.59107" lon="3.75153">
        <ele>94.436221869921</ele>
        <time>2020-09-20T09:30:44.000Z</time>
      </trkpt>
      <trkpt lat="43.59104" lon="3.75156">
        <ele>94.533592823028</ele>
        <time>2020-09-20T09:30:45.000Z</time>
      </trkpt>
      <trkpt lat="43.591" lon="3.7516">
        <ele>94.630963776136</ele>
        <time>2020-09-20T09:30:46.000Z</time>
      </trkpt>
      <trkpt lat="43.59097" lon="3.75163">
        <ele>94.728334729243</ele>
        <time>2020-09-20T09:30:47.000Z</time>
      </trkpt>
      <trkpt lat="43.59094" lon="3.75166">
        <ele>94.825705682351</ele>
        <time>2020-09-20T09:30:48.000Z</time>
      </trkpt>
      <trkpt lat="43.59092" lon="3.75169">
        <ele>94.923076635458</ele>
        <time>2020-09-20T09:30:49.000Z</time>
      </trkpt>
      <trkpt lat="43.59089" lon="3.75173">
        <ele>95</ele>
        <time>2020-09-20T09:30:50.000Z</time>
      </trkpt>
      <trkpt lat="43.59086" lon="3.75177">
        <ele>95</ele>
        <time>2020-09-20T09:30:51.000Z</time>
      </trkpt>
      <trkpt lat="43.59084" lon="3.7518">
        <ele>95</ele>
        <time>2020-09-20T09:30:52.000Z</time>
      </trkpt>
      <trkpt lat="43.59081" lon="3.75184">
        <ele>95</ele>
        <time>2020-09-20T09:30:53.000Z</time>
      </trkpt>
      <trkpt lat="43.59078" lon="3.75187">
        <ele>95</ele>
        <time>2020-09-20T09:30:54.000Z</time>
      </trkpt>
      <trkpt lat="43.59075" lon="3.7519">
        <ele>95</ele>
        <time>2020-09-20T09:30:55.000Z</time>
      </trkpt>
      <trkpt lat="43.59073" lon="3.75193">
        <ele>95</ele>
        <time>2020-09-20T09:30:56.000Z</time>
      </trkpt>
      <trkpt lat="43.5907" lon="3.75197">
        <ele>95</ele>
        <time>2020-09-20T09:30:57.000Z</time>
      </trkpt>
      <trkpt lat="43.59067" lon="3.752">
        <ele>95</ele>
        <time>2020-09-20T09:30:58.000Z</time>
      </trkpt>
      <trkpt lat="43.59064" lon="3.75204">
        <ele>95</ele>
        <time>2020-09-20T09:30:59.000Z</time>
      </trkpt>
      <trkpt lat="43.59061" lon="3.75208">
        <ele>95</ele>
        <time>2020-09-20T09:31:00.000Z</time>
      </trkpt>
      <trkpt lat="43.59058" lon="3.75212">
        <ele>95</ele>
        <time>2020-09-20T09:31:01.000Z</time>
      </trkpt>
      <trkpt lat="43.59055" lon="3.75216">
        <ele>95</ele>
        <time>2020-09-20T09:31:02.000Z</time>
      </trkpt>
      <trkpt lat="43.59052" lon="3.7522">
        <ele>95</ele>
        <time>2020-09-20T09:31:03.000Z</time>
      </trkpt>
      <trkpt lat="43.59049" lon="3.75224">
        <ele>95</ele>
        <time>2020-09-20T09:31:04.000Z</time>
      </trkpt>
      <trkpt lat="43.59046" lon="3.75228">
        <ele>95</ele>
        <time>2020-09-20T09:31:05.000Z</time>
      </trkpt>
      <trkpt lat="43.59043" lon="3.75232">
        <ele>95</ele>
        <time>2020-09-20T09:31:06.000Z</time>
      </trkpt>
      <trkpt lat="43.5904" lon="3.75237">
        <ele>95</ele>
        <time>2020-09-20T09:31:07.000Z</time>
      </trkpt>
      <trkpt lat="43.59036" lon="3.75241">
        <ele>95</ele>
        <time>2020-09-20T09:31:08.000Z</time>
      </trkpt>
      <trkpt lat="43.59033" lon="3.75245">
        <ele>95</ele>
        <time>2020-09-20T09:31:09.000Z</time>
      </trkpt>
      <trkpt lat="43.5903" lon="3.75249">
        <ele>95</ele>
        <time>2020-09-20T09:31:10.000Z</time>
      </trkpt>
      <trkpt lat="43.59027" lon="3.75254">
        <ele>95</ele>
        <time>2020-09-20T09:31:11.000Z</time>
      </trkpt>
      <trkpt lat="43.59024" lon="3.75258">
        <ele>95</ele>
        <time>2020-09-20T09:31:12.000Z</time>
      </trkpt>
      <trkpt lat="43.59021" lon="3.75261">
        <ele>95</ele>
        <time>2020-09-20T09:31:13.000Z</time>
      </trkpt>
      <trkpt lat="43.59019" lon="3.75265">
        <ele>95</ele>
        <time>2020-09-20T09:31:14.000Z</time>
      </trkpt>
      <trkpt lat="43.59016" lon="3.7527">
        <ele>95</ele>
        <time>2020-09-20T09:31:15.000Z</time>
      </trkpt>
      <trkpt lat="43.59013" lon="3.75274">
        <ele>95</ele>
        <time>2020-09-20T09:31:16.000Z</time>
      </trkpt>
      <trkpt lat="43.5901" lon="3.75278">
        <ele>95</ele>
        <time>2020-09-20T09:31:17.000Z</time>
      </trkpt>
      <trkpt lat="43.59007" lon="3.75282">
        <ele>95</ele>
        <time>2020-09-20T09:31:18.000Z</time>
      </trkpt>
      <trkpt lat="43.59003" lon="3.75287">
        <ele>95</ele>
        <time>2020-09-20T09:31:19.000Z</time>
      </trkpt>
      <trkpt lat="43.58999" lon="3.75291">
        <ele>94.89799936</ele>
        <time>2020-09-20T09:31:20.000Z</time>
      </trkpt>
      <trkpt lat="43.58996" lon="3.75296">
        <ele>94.69799936</ele>
        <time>2020-09-20T09:31:21.000Z</time>
      </trkpt>
      <trkpt lat="43.58992" lon="3.75302">
        <ele>94.49799936</ele>
        <time>2020-09-20T09:31:22.000Z</time>
      </trkpt>
      <trkpt lat="43.58988" lon="3.75307">
        <ele>94.29799936</ele>
        <time>2020-09-20T09:31:23.000Z</time>
      </trkpt>
      <trkpt lat="43.58983" lon="3.75313">
        <ele>94.09799936</ele>
        <time>2020-09-20T09:31:24.000Z</time>
      </trkpt>
      <trkpt lat="43.58979" lon="3.75318">
        <ele>93.89799936</ele>
        <time>2020-09-20T09:31:25.000Z</time>
      </trkpt>
      <trkpt lat="43.58975" lon="3.75324">
        <ele>93.69799936</ele>
        <time>2020-09-20T09:31:26.000Z</time>
      </trkpt>
      <trkpt lat="43.58971" lon="3.7533">
        <ele>93.49799936</ele>
        <time>2020-09-20T09:31:27.000Z</time>
      </trkpt>
      <trkpt lat="43.58969" lon="3.75337">
        <ele>93.29799936</ele>
        <time>2020-09-20T09:31:28.000Z</time>
      </trkpt>
      <trkpt lat="43.58966" lon="3.75343">
        <ele>93.09799936</ele>
        <time>2020-09-20T09:31:29.000Z</time>
      </trkpt>
      <trkpt lat="43.58962" lon="3.75348">
        <ele>92.898101356466</ele>
        <time>2020-09-20T09:31:30.000Z</time>
      </trkpt>
      <trkpt lat="43.58958" lon="3.75352">
        <ele>92.698301348282</ele>
        <time>2020-09-20T09:31:31.000Z</time>
      </trkpt>
      <trkpt lat="43.58954" lon="3.75357">
        <ele>92.498501340099</ele>
        <time>2020-09-20T09:31:32.000Z</time>
      </trkpt>
      <trkpt lat="43.5895" lon="3.75361">
        <ele>92.298701331915</ele>
        <time>2020-09-20T09:31:33.000Z</time>
      </trkpt>
      <trkpt lat="43.58946" lon="3.75365">
        <ele>92.098901323731</ele>
        <time>2020-09-20T09:31:34.000Z</time>
      </trkpt>
      <trkpt lat="43.58942" lon="3.75369">
        <ele>91.899101315547</ele>
        <time>2020-09-20T09:31:35.000Z</time>
      </trkpt>
      <trkpt lat="43.5894" lon="3.75373">
        <ele>91.699301307363</ele>
        <time>2020-09-20T09:31:36.000Z</time>
      </trkpt>
      <trkpt lat="43.5894" lon="3.7538">
        <ele>91.49950129918</ele>
        <time>2020-09-20T09:31:37.000Z</time>
      </trkpt>
      <trkpt lat="43.58942" lon="3.75385">
        <ele>91.299701290996</ele>
        <time>2020-09-20T09:31:38.000Z</time>
      </trkpt>
      <trkpt lat="43.58947" lon="3.75389">
        <ele>91.099901282812</ele>
        <time>2020-09-20T09:31:39.000Z</time>
      </trkpt>
      <trkpt lat="43.58951" lon="3.75393">
        <ele>91</ele>
        <time>2020-09-20T09:31:40.000Z</time>
      </trkpt>
      <trkpt lat="43.58955" lon="3.75396">
        <ele>91</ele>
        <time>2020-09-20T09:31:41.000Z</time>
      </trkpt>
      <trkpt lat="43.58959" lon="3.75398">
        <ele>91</ele>
        <time>2020-09-20T09:31:42.000Z</time>
      </trkpt>
      <trkpt lat="43.58964" lon="3.754">
        <ele>91</ele>
        <time>2020-09-20T09:31:43.000Z</time>
      </trkpt>
      <trkpt lat="43.58968" lon="3.75402">
        <ele>91</ele>
        <time>2020-09-20T09:31:44.000Z</time>
      </trkpt>
      <trkpt lat="43.58972" lon="3.75404">
        <ele>91</ele>
        <time>2020-09-20T09:31:45.000Z</time>
      </trkpt>
      <trkpt lat="43.58975" lon="3.75406">
        <ele>91</ele>
        <time>2020-09-20T09:31:46.000Z</time>
      </trkpt>
      <trkpt lat="43.58978" lon="3.75408">
        <ele>91</ele>
        <time>2020-09-20T09:31:47.000Z</time>
      </trkpt>
      <trkpt lat="43.5898" lon="3.75411">
        <ele>91</ele>
        <time>2020-09-20T09:31:48.000Z</time>
      </trkpt>
      <trkpt lat="43.58983" lon="3.75413">
        <ele>91</ele>
        <time>2020-09-20T09:31:49.000Z</time>
      </trkpt>
      <trkpt lat="43.58986" lon="3.75416">
        <ele>91.050049457505</ele>
        <time>2020-09-20T09:31:50.000Z</time>
      </trkpt>
      <trkpt lat="43.58989" lon="3.75418">
        <ele>91.150149653797</ele>
        <time>2020-09-20T09:31:51.000Z</time>
      </trkpt>
      <trkpt lat="43.58992" lon="3.75421">
        <ele>91.25024985009</ele>
        <time>2020-09-20T09:31:52.000Z</time>
      </trkpt>
      <trkpt lat="43.58996" lon="3.75423">
        <ele>91.350350046382</ele>
        <time>2020-09-20T09:31:53.000Z</time>
      </trkpt>
      <trkpt lat="43.58999" lon="3.75426">
        <ele>91.450450242675</ele>
        <time>2020-09-20T09:31:54.000Z</time>
      </trkpt>
      <trkpt lat="43.59002" lon="3.75429">
        <ele>91.550550438967</ele>
        <time>2020-09-20T09:31:55.000Z</time>
      </trkpt>
      <trkpt lat="43.59005" lon="3.75432">
        <ele>91.65065063526</ele>
        <time>2020-09-20T09:31:56.000Z</time>
      </trkpt>
      <trkpt lat="43.59008" lon="3.75436">
        <ele>91.750750831552</ele>
        <time>2020-09-20T09:31:57.000Z</time>
      </trkpt>
      <trkpt lat="43.5901" lon="3.75439">
        <ele>91.850851027845</ele>
        <time>2020-09-20T09:31:58.000Z</time>
      </trkpt>
      <trkpt lat="43.59012" lon="3.75443">
        <ele>91.950951224137</ele>
        <time>2020-09-20T09:31:59.000Z</time>
      </trkpt>
      <trkpt lat="43.59014" lon="3.75447">
        <ele>92.05100032</ele>
        <time>2020-09-20T09:32:00.000Z</time>
      </trkpt>
      <trkpt lat="43.59016" lon="3.75452">
        <ele>92.15100032</ele>
        <time>2020-09-20T09:32:01.000Z</time>
      </trkpt>
      <trkpt lat="43.59018" lon="3.75456">
        <ele>92.25100032</ele>
        <time>2020-09-20T09:32:02.000Z</time>
      </trkpt>
      <trkpt lat="43.59021" lon="3.7546">
        <ele>92.35100032</ele>
        <time>2020-09-20T09:32:03.000Z</time>
      </trkpt>
      <trkpt lat="43.59023" lon="3.75464">
        <ele>92.45100032</ele>
        <time>2020-09-20T09:32:04.000Z</time>
      </trkpt>
      <trkpt lat="43.59026" lon="3.75468">
        <ele>92.55100032</ele>
        <time>2020-09-20T09:32:05.000Z</time>
      </trkpt>
      <trkpt lat="43.59028" lon="3.75472">
        <ele>92.65100032</ele>
        <time>2020-09-20T09:32:06.000Z</time>
      </trkpt>
      <trkpt lat="43.5903" lon="3.75476">
        <ele>92.75100032</ele>
        <time>2020-09-20T09:32:07.000Z</time>
      </trkpt>
      <trkpt lat="43.59033" lon="3.7548">
        <ele>92.85100032</ele>
        <time>2020-09-20T09:32:08.000Z</time>
      </trkpt>
      <trkpt lat="43.59035" lon="3.75484">
        <ele>92.95100032</ele>
        <time>2020-09-20T09:32:09.000Z</time>
      </trkpt>
      <trkpt lat="43.59037" lon="3.75488">
        <ele>93.101898643534</ele>
        <time>2020-09-20T09:32:10.000Z</time>
      </trkpt>
      <trkpt lat="43.5904" lon="3.75491">
        <ele>93.301698651718</ele>
        <time>2020-09-20T09:32:11.000Z</time>
      </trkpt>
      <trkpt lat="43.59042" lon="3.75494">
        <ele>93.501498659901</ele>
        <time>2020-09-20T09:32:12.000Z</time>
      </trkpt>
      <trkpt lat="43.59045" lon="3.75498">
        <ele>93.701298668085</ele>
        <time>2020-09-20T09:32:13.000Z</time>
      </trkpt>
      <trkpt lat="43.59047" lon="3.75501">
        <ele>93.901098676269</ele>
        <time>2020-09-20T09:32:14.000Z</time>
      </trkpt>
      <trkpt lat="43.59049" lon="3.75504">
        <ele>94.100898684453</ele>
        <time>2020-09-20T09:32:15.000Z</time>
      </trkpt>
      <trkpt lat="43.59052" lon="3.75508">
        <ele>94.300698692637</ele>
        <time>2020-09-20T09:32:16.000Z</time>
      </trkpt>
      <trkpt lat="43.59054" lon="3.75511">
        <ele>94.50049870082</ele>
        <time>2020-09-20T09:32:17.000Z</time>
      </trkpt>
      <trkpt lat="43.59056" lon="3.75514">
        <ele>94.700298709004</ele>
        <time>2020-09-20T09:32:18.000Z</time>
      </trkpt>
      <trkpt lat="43.59058" lon="3.75517">
        <ele>94.900098717188</ele>
        <time>2020-09-20T09:32:19.000Z</time>
      </trkpt>
      <trkpt lat="43.59059" lon="3.75521">
        <ele>95.050049457505</ele>
        <time>2020-09-20T09:32:20.000Z</time>
      </trkpt>
      <trkpt lat="43.59061" lon="3.75525">
        <ele>95.150149653797</ele>
        <time>2020-09-20T09:32:21.000Z</time>
      </trkpt>
      <trkpt lat="43.59063" lon="3.75528">
        <ele>95.25024985009</ele>
        <time>2020-09-20T09:32:22.000Z</time>
      </trkpt>
      <trkpt lat="43.59064" lon="3.75532">
        <ele>95.350350046382</ele>
        <time>2020-09-20T09:32:23.000Z</time>
      </trkpt>
      <trkpt lat="43.59066" lon="3.75535">
        <ele>95.450450242675</ele>
        <time>2020-09-20T09:32:24.000Z</time>
      </trkpt>
      <trkpt lat="43.59067" lon="3.75539">
        <ele>95.550550438967</ele>
        <time>2020-09-20T09:32:25.000Z</time>
      </trkpt>
      <trkpt lat="43.59069" lon="3.75543">
        <ele>95.65065063526</ele>
        <time>2020-09-20T09:32:26.000Z</time>
      </trkpt>
      <trkpt lat="43.5907" lon="3.75546">
        <ele>95.750750831552</ele>
        <time>2020-09-20T09:32:27.000Z</time>
      </trkpt>
      <trkpt lat="43.59071" lon="3.7555">
        <ele>95.850851027845</ele>
        <time>2020-09-20T09:32:28.000Z</time>
      </trkpt>
      <trkpt lat="43.59073" lon="3.75554">
        <ele>95.950951224137</ele>
        <time>2020-09-20T09:32:29.000Z</time>
      </trkpt>
      <trkpt lat="43.59075" lon="3.75557">
        <ele>96.05100032</ele>
        <time>2020-09-20T09:32:30.000Z</time>
      </trkpt>
      <trkpt lat="43.59077" lon="3.75561">
        <ele>96.15100032</ele>
        <time>2020-09-20T09:32:31.000Z</time>
      </trkpt>
      <trkpt lat="43.59078" lon="3.75564">
        <ele>96.25100032</ele>
        <time>2020-09-20T09:32:32.000Z</time>
      </trkpt>
      <trkpt lat="43.5908" lon="3.75568">
        <ele>96.35100032</ele>
        <time>2020-09-20T09:32:33.000Z</time>
      </trkpt>
      <trkpt lat="43.59081" lon="3.75571">
        <ele>96.45100032</ele>
        <time>2020-09-20T09:32:34.000Z</time>
      </trkpt>
      <trkpt lat="43.59083" lon="3.75575">
        <ele>96.55100032</ele>
        <time>2020-09-20T09:32:35.000Z</time>
      </trkpt>
      <trkpt lat="43.59084" lon="3.75578">
        <ele>96.65100032</ele>
        <time>2020-09-20T09:32:36.000Z</time>
      </trkpt>
      <trkpt lat="43.59086" lon="3.75582">
        <ele>96.75100032</ele>
        <time>2020-09-20T09:32:37.000Z</time>
      </trkpt>
      <trkpt lat="43.59088" lon="3.75585">
        <ele>96.85100032</ele>
        <time>2020-09-20T09:32:38.000Z</time>
      </trkpt>
      <trkpt lat="43.5909" lon="3.75589">
        <ele>96.95100032</ele>
        <time>2020-09-20T09:32:39.000Z</time>
      </trkpt>
      <trkpt lat="43.59092" lon="3.75593">
        <ele>97</ele>
        <time>2020-09-20T09:32:40.000Z</time>
      </trkpt>
      <trkpt lat="43.59094" lon="3.75596">
        <ele>97</ele>
        <time>2020-09-20T09:32:41.000Z</time>
      </trkpt>
      <trkpt lat="43.59096" lon="3.75599">
        <ele>97</ele>
        <time>2020-09-20T09:32:42.000Z</time>
      </trkpt>
      <trkpt lat="43.59098" lon="3.75603">
        <ele>97</ele>
        <time>2020-09-20T09:32:43.000Z</time>
      </trkpt>
      <trkpt lat="43.591" lon="3.75606">
        <ele>97</ele>
        <time>2020-09-20T09:32:44.000Z</time>
      </trkpt>
      <trkpt lat="43.59102" lon="3.7561">
        <ele>97</ele>
        <time>2020-09-20T09:32:45.000Z</time>
      </trkpt>
      <trkpt lat="43.59104" lon="3.75613">
        <ele>97</ele>
        <time>2020-09-20T09:32:46.000Z</time>
      </trkpt>
      <trkpt lat="43.59106" lon="3.75617">
        <ele>97</ele>
        <time>2020-09-20T09:32:47.000Z</time>
      </trkpt>
      <trkpt lat="43.59108" lon="3.7562">
        <ele>97</ele>
        <time>2020-09-20T09:32:48.000Z</time>
      </trkpt>
      <trkpt lat="43.5911" lon="3.75624">
        <ele>97</ele>
        <time>2020-09-20T09:32:49.000Z</time>
      </trkpt>
      <trkpt lat="43.59112" lon="3.75627">
        <ele>97.050746603223</ele>
        <time>2020-09-20T09:32:50.000Z</time>
      </trkpt>
      <trkpt lat="43.59115" lon="3.7563">
        <ele>97.150249122467</ele>
        <time>2020-09-20T09:32:51.000Z</time>
      </trkpt>
      <trkpt lat="43.59117" lon="3.75634">
        <ele>97.249751641712</ele>
        <time>2020-09-20T09:32:52.000Z</time>
      </trkpt>
      <trkpt lat="43.59119" lon="3.75637">
        <ele>97.349254160957</ele>
        <time>2020-09-20T09:32:53.000Z</time>
      </trkpt>
      <trkpt lat="43.59121" lon="3.7564">
        <ele>97.448756680201</ele>
        <time>2020-09-20T09:32:54.000Z</time>
      </trkpt>
      <trkpt lat="43.59123" lon="3.75644">
        <ele>97.548259199446</ele>
        <time>2020-09-20T09:32:55.000Z</time>
      </trkpt>
      <trkpt lat="43.59125" lon="3.75647">
        <ele>97.64776171869</ele>
        <time>2020-09-20T09:32:56.000Z</time>
      </trkpt>
      <trkpt lat="43.59127" lon="3.7565">
        <ele>97.747264237935</ele>
        <time>2020-09-20T09:32:57.000Z</time>
      </trkpt>
      <trkpt lat="43.59129" lon="3.75654">
        <ele>97.846766757179</ele>
        <time>2020-09-20T09:32:58.000Z</time>
      </trkpt>
      <trkpt lat="43.59131" lon="3.75658">
        <ele>97.946269276424</ele>
        <time>2020-09-20T09:32:59.000Z</time>
      </trkpt>
      <trkpt lat="43.59133" lon="3.75661">
        <ele>97.953768215873</ele>
        <time>2020-09-20T09:33:00.000Z</time>
      </trkpt>
      <trkpt lat="43.59135" lon="3.75665">
        <ele>97.853265735633</ele>
        <time>2020-09-20T09:33:01.000Z</time>
      </trkpt>
      <trkpt lat="43.59138" lon="3.75668">
        <ele>97.752763255393</ele>
        <time>2020-09-20T09:33:02.000Z</time>
      </trkpt>
      <trkpt lat="43.5914" lon="3.75671">
        <ele>97.652260775152</ele>
        <time>2020-09-20T09:33:03.000Z</time>
      </trkpt>
      <trkpt lat="43.59143" lon="3.75675">
        <ele>97.551758294912</ele>
        <time>2020-09-20T09:33:04.000Z</time>
      </trkpt>
      <trkpt lat="43.59145" lon="3.75678">
        <ele>97.451255814671</ele>
        <time>2020-09-20T09:33:05.000Z</time>
      </trkpt>
      <trkpt lat="43.59147" lon="3.75682">
        <ele>97.350753334431</ele>
        <time>2020-09-20T09:33:06.000Z</time>
      </trkpt>
      <trkpt lat="43.59149" lon="3.75687">
        <ele>97.250250854191</ele>
        <time>2020-09-20T09:33:07.000Z</time>
      </trkpt>
      <trkpt lat="43.5915" lon="3.75692">
        <ele>97.14974837395</ele>
        <time>2020-09-20T09:33:08.000Z</time>
      </trkpt>
      <trkpt lat="43.59149" lon="3.75697">
        <ele>97.04924589371</ele>
        <time>2020-09-20T09:33:09.000Z</time>
      </trkpt>
      <trkpt lat="43.59149" lon="3.75702">
        <ele>97</ele>
        <time>2020-09-20T09:33:10.000Z</time>
      </trkpt>
      <trkpt lat="43.59147" lon="3.75707">
        <ele>97</ele>
        <time>2020-09-20T09:33:11.000Z</time>
      </trkpt>
      <trkpt lat="43.59145" lon="3.75712">
        <ele>97</ele>
        <time>2020-09-20T09:33:12.000Z</time>
      </trkpt>
      <trkpt lat="43.59144" lon="3.75717">
        <ele>97</ele>
        <time>2020-09-20T09:33:13.000Z</time>
      </trkpt>
      <trkpt lat="43.59142" lon="3.75722">
        <ele>97</ele>
        <time>2020-09-20T09:33:14.000Z</time>
      </trkpt>
      <trkpt lat="43.5914" lon="3.75727">
        <ele>97</ele>
        <time>2020-09-20T09:33:15.000Z</time>
      </trkpt>
      <trkpt lat="43.59139" lon="3.75732">
        <ele>97</ele>
        <time>2020-09-20T09:33:16.000Z</time>
      </trkpt>
      <trkpt lat="43.59137" lon="3.75738">
        <ele>97</ele>
        <time>2020-09-20T09:33:17.000Z</time>
      </trkpt>
      <trkpt lat="43.59135" lon="3.75743">
        <ele>97</ele>
        <time>2020-09-20T09:33:18.000Z</time>
      </trkpt>
      <trkpt lat="43.59133" lon="3.75748">
        <ele>97</ele>
        <time>2020-09-20T09:33:19.000Z</time>
      </trkpt>
      <trkpt lat="43.59131" lon="3.75753">
        <ele>96.94899968</ele>
        <time>2020-09-20T09:33:20.000Z</time>
      </trkpt>
      <trkpt lat="43.59129" lon="3.75758">
        <ele>96.84899968</ele>
        <time>2020-09-20T09:33:21.000Z</time>
      </trkpt>
      <trkpt lat="43.59127" lon="3.75763">
        <ele>96.74899968</ele>
        <time>2020-09-20T09:33:22.000Z</time>
      </trkpt>
      <trkpt lat="43.59125" lon="3.75768">
        <ele>96.64899968</ele>
        <time>2020-09-20T09:33:23.000Z</time>
      </trkpt>
      <trkpt lat="43.59123" lon="3.75772">
        <ele>96.54899968</ele>
        <time>2020-09-20T09:33:24.000Z</time>
      </trkpt>
      <trkpt lat="43.59121" lon="3.75777">
        <ele>96.44899968</ele>
        <time>2020-09-20T09:33:25.000Z</time>
      </trkpt>
      <trkpt lat="43.59119" lon="3.75782">
        <ele>96.34899968</ele>
        <time>2020-09-20T09:33:26.000Z</time>
      </trkpt>
      <trkpt lat="43.59117" lon="3.75786">
        <ele>96.24899968</ele>
        <time>2020-09-20T09:33:27.000Z</time>
      </trkpt>
      <trkpt lat="43.59114" lon="3.75789">
        <ele>96.14899968</ele>
        <time>2020-09-20T09:33:28.000Z</time>
      </trkpt>
      <trkpt lat="43.59111" lon="3.75793">
        <ele>96.04899968</ele>
        <time>2020-09-20T09:33:29.000Z</time>
      </trkpt>
      <trkpt lat="43.59108" lon="3.75796">
        <ele>95.94899968</ele>
        <time>2020-09-20T09:33:30.000Z</time>
      </trkpt>
      <trkpt lat="43.59105" lon="3.75798">
        <ele>95.84899968</ele>
        <time>2020-09-20T09:33:31.000Z</time>
      </trkpt>
      <trkpt lat="43.59101" lon="3.758">
        <ele>95.74899968</ele>
        <time>2020-09-20T09:33:32.000Z</time>
      </trkpt>
      <trkpt lat="43.59098" lon="3.75803">
        <ele>95.64899968</ele>
        <time>2020-09-20T09:33:33.000Z</time>
      </trkpt>
      <trkpt lat="43.59095" lon="3.75805">
        <ele>95.54899968</ele>
        <time>2020-09-20T09:33:34.000Z</time>
      </trkpt>
      <trkpt lat="43.59092" lon="3.75808">
        <ele>95.44899968</ele>
        <time>2020-09-20T09:33:35.000Z</time>
      </trkpt>
      <trkpt lat="43.59089" lon="3.75812">
        <ele>95.34899968</ele>
        <time>2020-09-20T09:33:36.000Z</time>
      </trkpt>
      <trkpt lat="43.59087" lon="3.75816">
        <ele>95.24899968</ele>
        <time>2020-09-20T09:33:37.000Z</time>
      </trkpt>
      <trkpt lat="43.59085" lon="3.7582">
        <ele>95.14899968</ele>
        <time>2020-09-20T09:33:38.000Z</time>
      </trkpt>
      <trkpt lat="43.59083" lon="3.75824">
        <ele>95.04899968</ele>
        <time>2020-09-20T09:33:39.000Z</time>
      </trkpt>
      <trkpt lat="43.59082" lon="3.75828">
        <ele>95</ele>
        <time>2020-09-20T09:33:40.000Z</time>
      </trkpt>
      <trkpt lat="43.5908" lon="3.75832">
        <ele>95</ele>
        <time>2020-09-20T09:33:41.000Z</time>
      </trkpt>
      <trkpt lat="43.59078" lon="3.75836">
        <ele>95</ele>
        <time>2020-09-20T09:33:42.000Z</time>
      </trkpt>
      <trkpt lat="43.59076" lon="3.7584">
        <ele>95</ele>
        <time>2020-09-20T09:33:43.000Z</time>
      </trkpt>
      <trkpt lat="43.59074" lon="3.75843">
        <ele>95</ele>
        <time>2020-09-20T09:33:44.000Z</time>
      </trkpt>
      <trkpt lat="43.59072" lon="3.75848">
        <ele>95</ele>
        <time>2020-09-20T09:33:45.000Z</time>
      </trkpt>
      <trkpt lat="43.5907" lon="3.75852">
        <ele>95</ele>
        <time>2020-09-20T09:33:46.000Z</time>
      </trkpt>
      <trkpt lat="43.59067" lon="3.75856">
        <ele>95</ele>
        <time>2020-09-20T09:33:47.000Z</time>
      </trkpt>
      <trkpt lat="43.59065" lon="3.7586">
        <ele>95</ele>
        <time>2020-09-20T09:33:48.000Z</time>
      </trkpt>
      <trkpt lat="43.59063" lon="3.75864">
        <ele>95</ele>
        <time>2020-09-20T09:33:49.000Z</time>
      </trkpt>
      <trkpt lat="43.59061" lon="3.75868">
        <ele>94.953768215873</ele>
        <time>2020-09-20T09:33:50.000Z</time>
      </trkpt>
      <trkpt lat="43.59059" lon="3.75872">
        <ele>94.853265735633</ele>
        <time>2020-09-20T09:33:51.000Z</time>
      </trkpt>
      <trkpt lat="43.59057" lon="3.75876">
        <ele>94.752763255393</ele>
        <time>2020-09-20T09:33:52.000Z</time>
      </trkpt>
      <trkpt lat="43.59055" lon="3.7588">
        <ele>94.652260775152</ele>
        <time>2020-09-20T09:33:53.000Z</time>
      </trkpt>
      <trkpt lat="43.59053" lon="3.75883">
        <ele>94.551758294912</ele>
        <time>2020-09-20T09:33:54.000Z</time>
      </trkpt>
      <trkpt lat="43.59051" lon="3.75887">
        <ele>94.451255814671</ele>
        <time>2020-09-20T09:33:55.000Z</time>
      </trkpt>
      <trkpt lat="43.59049" lon="3.75891">
        <ele>94.350753334431</ele>
        <time>2020-09-20T09:33:56.000Z</time>
      </trkpt>
      <trkpt lat="43.59047" lon="3.75895">
        <ele>94.250250854191</ele>
        <time>2020-09-20T09:33:57.000Z</time>
      </trkpt>
      <trkpt lat="43.59045" lon="3.75899">
        <ele>94.14974837395</ele>
        <time>2020-09-20T09:33:58.000Z</time>
      </trkpt>
      <trkpt lat="43.59043" lon="3.75902">
        <ele>94.04924589371</ele>
        <time>2020-09-20T09:33:59.000Z</time>
      </trkpt>
      <trkpt lat="43.59041" lon="3.75906">
        <ele>93.950436991389</ele>
        <time>2020-09-20T09:34:00.000Z</time>
      </trkpt>
      <trkpt lat="43.59039" lon="3.7591">
        <ele>93.853255231333</ele>
        <time>2020-09-20T09:34:01.000Z</time>
      </trkpt>
      <trkpt lat="43.59036" lon="3.75914">
        <ele>93.756073471276</ele>
        <time>2020-09-20T09:34:02.000Z</time>
      </trkpt>
      <trkpt lat="43.59034" lon="3.75917">
        <ele>93.65889171122</ele>
        <time>2020-09-20T09:34:03.000Z</time>
      </trkpt>
      <trkpt lat="43.59033" lon="3.75922">
        <ele>93.561709951163</ele>
        <time>2020-09-20T09:34:04.000Z</time>
      </trkpt>
      <trkpt lat="43.59032" lon="3.75926">
        <ele>93.464528191107</ele>
        <time>2020-09-20T09:34:05.000Z</time>
      </trkpt>
      <trkpt lat="43.59033" lon="3.7593">
        <ele>93.36734643105</ele>
        <time>2020-09-20T09:34:06.000Z</time>
      </trkpt>
      <trkpt lat="43.59033" lon="3.75935">
        <ele>93.270164670994</ele>
        <time>2020-09-20T09:34:07.000Z</time>
      </trkpt>
      <trkpt lat="43.59034" lon="3.7594">
        <ele>93.172982910937</ele>
        <time>2020-09-20T09:34:08.000Z</time>
      </trkpt>
      <trkpt lat="43.59034" lon="3.75945">
        <ele>93.075801150881</ele>
        <time>2020-09-20T09:34:09.000Z</time>
      </trkpt>
      <trkpt lat="43.59035" lon="3.75949">
        <ele>92.954731253029</ele>
        <time>2020-09-20T09:34:10.000Z</time>
      </trkpt>
      <trkpt lat="43.59036" lon="3.75952">
        <ele>92.748970207117</ele>
        <time>2020-09-20T09:34:11.000Z</time>
      </trkpt>
      <trkpt lat="43.59038" lon="3.75954">
        <ele>92.543209161206</ele>
        <time>2020-09-20T09:34:12.000Z</time>
      </trkpt>
      <trkpt lat="43.5904" lon="3.75957">
        <ele>92.337448115295</ele>
        <time>2020-09-20T09:34:13.000Z</time>
      </trkpt>
      <trkpt lat="43.59042" lon="3.75961">
        <ele>92.131687069383</ele>
        <time>2020-09-20T09:34:14.000Z</time>
      </trkpt>
      <trkpt lat="43.59044" lon="3.75966">
        <ele>91.925926023472</ele>
        <time>2020-09-20T09:34:15.000Z</time>
      </trkpt>
      <trkpt lat="43.59044" lon="3.75971">
        <ele>91.720164977561</ele>
        <time>2020-09-20T09:34:16.000Z</time>
      </trkpt>
      <trkpt lat="43.59043" lon="3.75977">
        <ele>91.514403931649</ele>
        <time>2020-09-20T09:34:17.000Z</time>
      </trkpt>
      <trkpt lat="43.59041" lon="3.75984">
        <ele>91.308642885738</ele>
        <time>2020-09-20T09:34:18.000Z</time>
      </trkpt>
      <trkpt lat="43.5904" lon="3.75991">
        <ele>91.102881839826</ele>
        <time>2020-09-20T09:34:19.000Z</time>
      </trkpt>
      <trkpt lat="43.59038" lon="3.75998">
        <ele>90.949950542495</ele>
        <time>2020-09-20T09:34:20.000Z</time>
      </trkpt>
      <trkpt lat="43.59037" lon="3.76004">
        <ele>90.849850346203</ele>
        <time>2020-09-20T09:34:21.000Z</time>
      </trkpt>
      <trkpt lat="43.59036" lon="3.76009">
        <ele>90.74975014991</ele>
        <time>2020-09-20T09:34:22.000Z</time>
      </trkpt>
      <trkpt lat="43.59035" lon="3.76014">
        <ele>90.649649953618</ele>
        <time>2020-09-20T09:34:23.000Z</time>
      </trkpt>
      <trkpt lat="43.59034" lon="3.7602">
        <ele>90.549549757325</ele>
        <time>2020-09-20T09:34:24.000Z</time>
      </trkpt>
      <trkpt lat="43.59033" lon="3.76026">
        <ele>90.449449561033</ele>
        <time>2020-09-20T09:34:25.000Z</time>
      </trkpt>
      <trkpt lat="43.59031" lon="3.76033">
        <ele>90.34934936474</ele>
        <time>2020-09-20T09:34:26.000Z</time>
      </trkpt>
      <trkpt lat="43.5903" lon="3.76039">
        <ele>90.249249168448</ele>
        <time>2020-09-20T09:34:27.000Z</time>
      </trkpt>
      <trkpt lat="43.59028" lon="3.76045">
        <ele>90.149148972155</ele>
        <time>2020-09-20T09:34:28.000Z</time>
      </trkpt>
      <trkpt lat="43.59026" lon="3.7605">
        <ele>90.049048775863</ele>
        <time>2020-09-20T09:34:29.000Z</time>
      </trkpt>
      <trkpt lat="43.59025" lon="3.76056">
        <ele>89.89799936</ele>
        <time>2020-09-20T09:34:30.000Z</time>
      </trkpt>
      <trkpt lat="43.59024" lon="3.76062">
        <ele>89.69799936</ele>
        <time>2020-09-20T09:34:31.000Z</time>
      </trkpt>
      <trkpt lat="43.59022" lon="3.76067">
        <ele>89.49799936</ele>
        <time>2020-09-20T09:34:32.000Z</time>
      </trkpt>
      <trkpt lat="43.59021" lon="3.76073">
        <ele>89.29799936</ele>
        <time>2020-09-20T09:34:33.000Z</time>
      </trkpt>
      <trkpt lat="43.5902" lon="3.76079">
        <ele>89.09799936</ele>
        <time>2020-09-20T09:34:34.000Z</time>
      </trkpt>
      <trkpt lat="43.59019" lon="3.76085">
        <ele>88.89799936</ele>
        <time>2020-09-20T09:34:35.000Z</time>
      </trkpt>
      <trkpt lat="43.59017" lon="3.76091">
        <ele>88.69799936</ele>
        <time>2020-09-20T09:34:36.000Z</time>
      </trkpt>
      <trkpt lat="43.59017" lon="3.76096">
        <ele>88.49799936</ele>
        <time>2020-09-20T09:34:37.000Z</time>
      </trkpt>
      <trkpt lat="43.59017" lon="3.76101">
        <ele>88.29799936</ele>
        <time>2020-09-20T09:34:38.000Z</time>
      </trkpt>
      <trkpt lat="43.59018" lon="3.76104">
        <ele>88.09799936</ele>
        <time>2020-09-20T09:34:39.000Z</time>
      </trkpt>
      <trkpt lat="43.5902" lon="3.76106">
        <ele>87.94899968</ele>
        <time>2020-09-20T09:34:40.000Z</time>
      </trkpt>
      <trkpt lat="43.59022" lon="3.76106">
        <ele>87.84899968</ele>
        <time>2020-09-20T09:34:41.000Z</time>
      </trkpt>
      <trkpt lat="43.59025" lon="3.76107">
        <ele>87.74899968</ele>
        <time>2020-09-20T09:34:42.000Z</time>
      </trkpt>
      <trkpt lat="43.59028" lon="3.7611">
        <ele>87.64899968</ele>
        <time>2020-09-20T09:34:43.000Z</time>
      </trkpt>
      <trkpt lat="43.5903" lon="3.76113">
        <ele>87.54899968</ele>
        <time>2020-09-20T09:34:44.000Z</time>
      </trkpt>
      <trkpt lat="43.59032" lon="3.76118">
        <ele>87.44899968</ele>
        <time>2020-09-20T09:34:45.000Z</time>
      </trkpt>
      <trkpt lat="43.59032" lon="3.76123">
        <ele>87.34899968</ele>
        <time>2020-09-20T09:34:46.000Z</time>
      </trkpt>
      <trkpt lat="43.59032" lon="3.76127">
        <ele>87.24899968</ele>
        <time>2020-09-20T09:34:47.000Z</time>
      </trkpt>
      <trkpt lat="43.59033" lon="3.7613">
        <ele>87.14899968</ele>
        <time>2020-09-20T09:34:48.000Z</time>
      </trkpt>
      <trkpt lat="43.59034" lon="3.76134">
        <ele>87.04899968</ele>
        <time>2020-09-20T09:34:49.000Z</time>
      </trkpt>
      <trkpt lat="43.59035" lon="3.76139">
        <ele>86.89799936</ele>
        <time>2020-09-20T09:34:50.000Z</time>
      </trkpt>
      <trkpt lat="43.59036" lon="3.76144">
        <ele>86.69799936</ele>
        <time>2020-09-20T09:34:51.000Z</time>
      </trkpt>
      <trkpt lat="43.59036" lon="3.76149">
        <ele>86.49799936</ele>
        <time>2020-09-20T09:34:52.000Z</time>
      </trkpt>
      <trkpt lat="43.59035" lon="3.76153">
        <ele>86.29799936</ele>
        <time>2020-09-20T09:34:53.000Z</time>
      </trkpt>
      <trkpt lat="43.59036" lon="3.76156">
        <ele>86.09799936</ele>
        <time>2020-09-20T09:34:54.000Z</time>
      </trkpt>
      <trkpt lat="43.59038" lon="3.7616">
        <ele>85.89799936</ele>
        <time>2020-09-20T09:34:55.000Z</time>
      </trkpt>
      <trkpt lat="43.59038" lon="3.76164">
        <ele>85.69799936</ele>
        <time>2020-09-20T09:34:56.000Z</time>
      </trkpt>
      <trkpt lat="43.59038" lon="3.76168">
        <ele>85.49799936</ele>
        <time>2020-09-20T09:34:57.000Z</time>
      </trkpt>
      <trkpt lat="43.59038" lon="3.76172">
        <ele>85.29799936</ele>
        <time>2020-09-20T09:34:58.000Z</time>
      </trkpt>
      <trkpt lat="43.59038" lon="3.76176">
        <ele>85.09799936</ele>
        <time>2020-09-20T09:34:59.000Z</time>
      </trkpt>
      <trkpt lat="43.5904" lon="3.76179">
        <ele>84.94899968</ele>
        <time>2020-09-20T09:35:00.000Z</time>
      </trkpt>
      <trkpt lat="43.59043" lon="3.76182">
        <ele>84.84899968</ele>
        <time>2020-09-20T09:35:01.000Z</time>
      </trkpt>
      <trkpt lat="43.59046" lon="3.76183">
        <ele>84.74899968</ele>
        <time>2020-09-20T09:35:02.000Z</time>
      </trkpt>
      <trkpt lat="43.59049" lon="3.76186">
        <ele>84.64899968</ele>
        <time>2020-09-20T09:35:03.000Z</time>
      </trkpt>
      <trkpt lat="43.59052" lon="3.7619">
        <ele>84.54899968</ele>
        <time>2020-09-20T09:35:04.000Z</time>
      </trkpt>
      <trkpt lat="43.59052" lon="3.76194">
        <ele>84.44899968</ele>
        <time>2020-09-20T09:35:05.000Z</time>
      </trkpt>
      <trkpt lat="43.59052" lon="3.762">
        <ele>84.34899968</ele>
        <time>2020-09-20T09:35:06.000Z</time>
      </trkpt>
      <trkpt lat="43.59051" lon="3.76205">
        <ele>84.24899968</ele>
        <time>2020-09-20T09:35:07.000Z</time>
      </trkpt>
      <trkpt lat="43.59049" lon="3.7621">
        <ele>84.14899968</ele>
        <time>2020-09-20T09:35:08.000Z</time>
      </trkpt>
      <trkpt lat="43.59047" lon="3.76212">
        <ele>84.04899968</ele>
        <time>2020-09-20T09:35:09.000Z</time>
      </trkpt>
      <trkpt lat="43.59045" lon="3.76215">
        <ele>83.94899968</ele>
        <time>2020-09-20T09:35:10.000Z</time>
      </trkpt>
      <trkpt lat="43.59044" lon="3.76219">
        <ele>83.84899968</ele>
        <time>2020-09-20T09:35:11.000Z</time>
      </trkpt>
      <trkpt lat="43.59044" lon="3.76223">
        <ele>83.74899968</ele>
        <time>2020-09-20T09:35:12.000Z</time>
      </trkpt>
      <trkpt lat="43.59044" lon="3.76228">
        <ele>83.64899968</ele>
        <time>2020-09-20T09:35:13.000Z</time>
      </trkpt>
      <trkpt lat="43.59046" lon="3.76232">
        <ele>83.54899968</ele>
        <time>2020-09-20T09:35:14.000Z</time>
      </trkpt>
      <trkpt lat="43.59048" lon="3.76237">
        <ele>83.44899968</ele>
        <time>2020-09-20T09:35:15.000Z</time>
      </trkpt>
      <trkpt lat="43.5905" lon="3.76242">
        <ele>83.34899968</ele>
        <time>2020-09-20T09:35:16.000Z</time>
      </trkpt>
      <trkpt lat="43.59053" lon="3.76246">
        <ele>83.24899968</ele>
        <time>2020-09-20T09:35:17.000Z</time>
      </trkpt>
      <trkpt lat="43.59055" lon="3.76251">
        <ele>83.14899968</ele>
        <time>2020-09-20T09:35:18.000Z</time>
      </trkpt>
      <trkpt lat="43.59057" lon="3.76256">
        <ele>83.04899968</ele>
        <time>2020-09-20T09:35:19.000Z</time>
      </trkpt>
      <trkpt lat="43.59058" lon="3.7626">
        <ele>82.94899968</ele>
        <time>2020-09-20T09:35:20.000Z</time>
      </trkpt>
      <trkpt lat="43.59059" lon="3.76263">
        <ele>82.84899968</ele>
        <time>2020-09-20T09:35:21.000Z</time>
      </trkpt>
      <trkpt lat="43.59062" lon="3.76267">
        <ele>82.74899968</ele>
        <time>2020-09-20T09:35:22.000Z</time>
      </trkpt>
      <trkpt lat="43.59065" lon="3.76272">
        <ele>82.64899968</ele>
        <time>2020-09-20T09:35:23.000Z</time>
      </trkpt>
      <trkpt lat="43.59069" lon="3.76276">
        <ele>82.54899968</ele>
        <time>2020-09-20T09:35:24.000Z</time>
      </trkpt>
      <trkpt lat="43.59072" lon="3.7628">
        <ele>82.44899968</ele>
        <time>2020-09-20T09:35:25.000Z</time>
      </trkpt>
      <trkpt lat="43.59075" lon="3.76284">
        <ele>82.34899968</ele>
        <time>2020-09-20T09:35:26.000Z</time>
      </trkpt>
      <trkpt lat="43.59079" lon="3.76289">
        <ele>82.24899968</ele>
        <time>2020-09-20T09:35:27.000Z</time>
      </trkpt>
      <trkpt lat="43.59081" lon="3.76295">
        <ele>82.14899968</ele>
        <time>2020-09-20T09:35:28.000Z</time>
      </trkpt>
      <trkpt lat="43.59082" lon="3.76301">
        <ele>82.04899968</ele>
        <time>2020-09-20T09:35:29.000Z</time>
      </trkpt>
      <trkpt lat="43.59082" lon="3.76306">
        <ele>81.94899968</ele>
        <time>2020-09-20T09:35:30.000Z</time>
      </trkpt>
      <trkpt lat="43.59083" lon="3.76309">
        <ele>81.84899968</ele>
        <time>2020-09-20T09:35:31.000Z</time>
      </trkpt>
      <trkpt lat="43.59084" lon="3.76312">
        <ele>81.74899968</ele>
        <time>2020-09-20T09:35:32.000Z</time>
      </trkpt>
      <trkpt lat="43.59086" lon="3.76316">
        <ele>81.64899968</ele>
        <time>2020-09-20T09:35:33.000Z</time>
      </trkpt>
      <trkpt lat="43.59087" lon="3.76321">
        <ele>81.54899968</ele>
        <time>2020-09-20T09:35:34.000Z</time>
      </trkpt>
      <trkpt lat="43.59089" lon="3.76327">
        <ele>81.44899968</ele>
        <time>2020-09-20T09:35:35.000Z</time>
      </trkpt>
      <trkpt lat="43.59091" lon="3.76332">
        <ele>81.34899968</ele>
        <time>2020-09-20T09:35:36.000Z</time>
      </trkpt>
      <trkpt lat="43.59093" lon="3.76337">
        <ele>81.24899968</ele>
        <time>2020-09-20T09:35:37.000Z</time>
      </trkpt>
      <trkpt lat="43.59093" lon="3.76342">
        <ele>81.14899968</ele>
        <time>2020-09-20T09:35:38.000Z</time>
      </trkpt>
      <trkpt lat="43.59093" lon="3.76347">
        <ele>81.04899968</ele>
        <time>2020-09-20T09:35:39.000Z</time>
      </trkpt>
      <trkpt lat="43.59095" lon="3.7635">
        <ele>81</ele>
        <time>2020-09-20T09:35:40.000Z</time>
      </trkpt>
      <trkpt lat="43.59097" lon="3.76353">
        <ele>81</ele>
        <time>2020-09-20T09:35:41.000Z</time>
      </trkpt>
      <trkpt lat="43.59097" lon="3.76356">
        <ele>81</ele>
        <time>2020-09-20T09:35:42.000Z</time>
      </trkpt>
      <trkpt lat="43.59096" lon="3.76359">
        <ele>81</ele>
        <time>2020-09-20T09:35:43.000Z</time>
      </trkpt>
      <trkpt lat="43.59096" lon="3.76361">
        <ele>81</ele>
        <time>2020-09-20T09:35:44.000Z</time>
      </trkpt>
      <trkpt lat="43.59097" lon="3.76364">
        <ele>81</ele>
        <time>2020-09-20T09:35:45.000Z</time>
      </trkpt>
      <trkpt lat="43.59098" lon="3.76366">
        <ele>81</ele>
        <time>2020-09-20T09:35:46.000Z</time>
      </trkpt>
      <trkpt lat="43.591" lon="3.7637">
        <ele>81</ele>
        <time>2020-09-20T09:35:48.000Z</time>
      </trkpt>
      <trkpt lat="43.59101" lon="3.76373">
        <ele>81</ele>
        <time>2020-09-20T09:35:49.000Z</time>
      </trkpt>
      <trkpt lat="43.59101" lon="3.76377">
        <ele>80.900873982779</ele>
        <time>2020-09-20T09:35:50.000Z</time>
      </trkpt>
      <trkpt lat="43.59102" lon="3.7638">
        <ele>80.706510462666</ele>
        <time>2020-09-20T09:35:51.000Z</time>
      </trkpt>
      <trkpt lat="43.59102" lon="3.76384">
        <ele>80.512146942553</ele>
        <time>2020-09-20T09:35:52.000Z</time>
      </trkpt>
      <trkpt lat="43.59103" lon="3.76389">
        <ele>80.31778342244</ele>
        <time>2020-09-20T09:35:53.000Z</time>
      </trkpt>
      <trkpt lat="43.59104" lon="3.76394">
        <ele>80.123419902327</ele>
        <time>2020-09-20T09:35:54.000Z</time>
      </trkpt>
      <trkpt lat="43.59106" lon="3.764">
        <ele>79.929056382214</ele>
        <time>2020-09-20T09:35:55.000Z</time>
      </trkpt>
      <trkpt lat="43.59108" lon="3.76405">
        <ele>79.734692862101</ele>
        <time>2020-09-20T09:35:56.000Z</time>
      </trkpt>
      <trkpt lat="43.5911" lon="3.76412">
        <ele>79.540329341988</ele>
        <time>2020-09-20T09:35:57.000Z</time>
      </trkpt>
      <trkpt lat="43.59111" lon="3.7642">
        <ele>79.345965821875</ele>
        <time>2020-09-20T09:35:58.000Z</time>
      </trkpt>
      <trkpt lat="43.5911" lon="3.76429">
        <ele>79.151602301762</ele>
        <time>2020-09-20T09:35:59.000Z</time>
      </trkpt>
      <trkpt lat="43.59108" lon="3.76437">
        <ele>78.909369175079</ele>
        <time>2020-09-20T09:36:00.000Z</time>
      </trkpt>
      <trkpt lat="43.59105" lon="3.76444">
        <ele>78.497422863877</ele>
        <time>2020-09-20T09:36:01.000Z</time>
      </trkpt>
      <trkpt lat="43.59102" lon="3.76451">
        <ele>78.085476552675</ele>
        <time>2020-09-20T09:36:02.000Z</time>
      </trkpt>
      <trkpt lat="43.591" lon="3.76457">
        <ele>77.673530241473</ele>
        <time>2020-09-20T09:36:03.000Z</time>
      </trkpt>
      <trkpt lat="43.59098" lon="3.76463">
        <ele>77.261583930271</ele>
        <time>2020-09-20T09:36:04.000Z</time>
      </trkpt>
      <trkpt lat="43.59097" lon="3.76467">
        <ele>76.849637619069</ele>
        <time>2020-09-20T09:36:05.000Z</time>
      </trkpt>
      <trkpt lat="43.59097" lon="3.76471">
        <ele>76.437691307867</ele>
        <time>2020-09-20T09:36:06.000Z</time>
      </trkpt>
      <trkpt lat="43.59098" lon="3.76475">
        <ele>75.613798685463</ele>
        <time>2020-09-20T09:36:08.000Z</time>
      </trkpt>
      <trkpt lat="43.59101" lon="3.76476">
        <ele>74.84699904</ele>
        <time>2020-09-20T09:36:10.000Z</time>
      </trkpt>
      <trkpt lat="43.59104" lon="3.76476">
        <ele>74.54699904</ele>
        <time>2020-09-20T09:36:11.000Z</time>
      </trkpt>
      <trkpt lat="43.59106" lon="3.76478">
        <ele>74.24699904</ele>
        <time>2020-09-20T09:36:12.000Z</time>
      </trkpt>
      <trkpt lat="43.59108" lon="3.7648">
        <ele>73.94699904</ele>
        <time>2020-09-20T09:36:13.000Z</time>
      </trkpt>
      <trkpt lat="43.5911" lon="3.76482">
        <ele>73.64699904</ele>
        <time>2020-09-20T09:36:14.000Z</time>
      </trkpt>
      <trkpt lat="43.59112" lon="3.76485">
        <ele>73.34699904</ele>
        <time>2020-09-20T09:36:15.000Z</time>
      </trkpt>
      <trkpt lat="43.59114" lon="3.76487">
        <ele>73.04699904</ele>
        <time>2020-09-20T09:36:16.000Z</time>
      </trkpt>
      <trkpt lat="43.59117" lon="3.7649">
        <ele>72.74699904</ele>
        <time>2020-09-20T09:36:17.000Z</time>
      </trkpt>
      <trkpt lat="43.59119" lon="3.76492">
        <ele>72.44699904</ele>
        <time>2020-09-20T09:36:18.000Z</time>
      </trkpt>
      <trkpt lat="43.59121" lon="3.76494">
        <ele>72.14699904</ele>
        <time>2020-09-20T09:36:19.000Z</time>
      </trkpt>
      <trkpt lat="43.59123" lon="3.76496">
        <ele>71.79599872</ele>
        <time>2020-09-20T09:36:20.000Z</time>
      </trkpt>
      <trkpt lat="43.59125" lon="3.76498">
        <ele>71.39599872</ele>
        <time>2020-09-20T09:36:21.000Z</time>
      </trkpt>
      <trkpt lat="43.59127" lon="3.76501">
        <ele>70.99599872</ele>
        <time>2020-09-20T09:36:22.000Z</time>
      </trkpt>
      <trkpt lat="43.5913" lon="3.76505">
        <ele>70.59599872</ele>
        <time>2020-09-20T09:36:23.000Z</time>
      </trkpt>
      <trkpt lat="43.59133" lon="3.76508">
        <ele>70.19599872</ele>
        <time>2020-09-20T09:36:24.000Z</time>
      </trkpt>
      <trkpt lat="43.59137" lon="3.76513">
        <ele>69.79599872</ele>
        <time>2020-09-20T09:36:25.000Z</time>
      </trkpt>
      <trkpt lat="43.59141" lon="3.76517">
        <ele>69.39599872</ele>
        <time>2020-09-20T09:36:26.000Z</time>
      </trkpt>
      <trkpt lat="43.59145" lon="3.76521">
        <ele>68.99599872</ele>
        <time>2020-09-20T09:36:27.000Z</time>
      </trkpt>
      <trkpt lat="43.59149" lon="3.76525">
        <ele>68.59599872</ele>
        <time>2020-09-20T09:36:28.000Z</time>
      </trkpt>
      <trkpt lat="43.59154" lon="3.76529">
        <ele>68.19599872</ele>
        <time>2020-09-20T09:36:29.000Z</time>
      </trkpt>
      <trkpt lat="43.59159" lon="3.76534">
        <ele>67.79599872</ele>
        <time>2020-09-20T09:36:30.000Z</time>
      </trkpt>
      <trkpt lat="43.59164" lon="3.76538">
        <ele>67.39599872</ele>
        <time>2020-09-20T09:36:31.000Z</time>
      </trkpt>
      <trkpt lat="43.59168" lon="3.76543">
        <ele>66.99599872</ele>
        <time>2020-09-20T09:36:32.000Z</time>
      </trkpt>
      <trkpt lat="43.59172" lon="3.76549">
        <ele>66.59599872</ele>
        <time>2020-09-20T09:36:33.000Z</time>
      </trkpt>
      <trkpt lat="43.59175" lon="3.76553">
        <ele>66.19599872</ele>
        <time>2020-09-20T09:36:34.000Z</time>
      </trkpt>
      <trkpt lat="43.59177" lon="3.76555">
        <ele>65.79599872</ele>
        <time>2020-09-20T09:36:35.000Z</time>
      </trkpt>
      <trkpt lat="43.59179" lon="3.76557">
        <ele>65.39599872</ele>
        <time>2020-09-20T09:36:36.000Z</time>
      </trkpt>
      <trkpt lat="43.59181" lon="3.7656">
        <ele>64.59599872</ele>
        <time>2020-09-20T09:36:38.000Z</time>
      </trkpt>
      <trkpt lat="43.5918" lon="3.76561">
        <ele>62</ele>
        <time>2020-09-20T09:36:46.000Z</time>
      </trkpt>
      <trkpt lat="43.5918" lon="3.76568">
        <ele>61</ele>
        <time>2020-09-20T09:36:53.000Z</time>
      </trkpt>
      <trkpt lat="43.5918" lon="3.76567">
        <ele>61</ele>
        <time>2020-09-20T09:36:58.000Z</time>
      </trkpt>
      <trkpt lat="43.59181" lon="3.76564">
        <ele>58</ele>
        <time>2020-09-20T09:39:01.000Z</time>
      </trkpt>
      <trkpt lat="43.59181" lon="3.76568">
        <ele>57.909376</ele>
        <time>2020-09-20T09:39:06.000Z</time>
      </trkpt>
      <trkpt lat="43.59178" lon="3.76579">
        <ele>57</ele>
        <time>2020-09-20T09:39:09.000Z</time>
      </trkpt>
      <trkpt lat="43.59177" lon="3.76582">
        <ele>57</ele>
        <time>2020-09-20T09:39:10.000Z</time>
      </trkpt>
      <trkpt lat="43.59175" lon="3.76585">
        <ele>57</ele>
        <time>2020-09-20T09:39:12.000Z</time>
      </trkpt>
      <trkpt lat="43.59173" lon="3.76587">
        <ele>57</ele>
        <time>2020-09-20T09:39:14.000Z</time>
      </trkpt>
      <trkpt lat="43.59172" lon="3.7659">
        <ele>56.900874106084</ele>
        <time>2020-09-20T09:39:19.000Z</time>
      </trkpt>
      <trkpt lat="43.59171" lon="3.76593">
        <ele>56.512147549406</ele>
        <time>2020-09-20T09:39:21.000Z</time>
      </trkpt>
      <trkpt lat="43.59169" lon="3.76595">
        <ele>55.734694436048</ele>
        <time>2020-09-20T09:39:25.000Z</time>
      </trkpt>
      <trkpt lat="43.59169" lon="3.76596">
        <ele>55</ele>
        <time>2020-09-20T09:39:30.000Z</time>
      </trkpt>
      <trkpt lat="43.59164" lon="3.7661">
        <ele>53.970408489796</ele>
        <time>2020-09-20T09:39:37.000Z</time>
      </trkpt>
      <trkpt lat="43.59163" lon="3.76613">
        <ele>53.868367673469</ele>
        <time>2020-09-20T09:39:38.000Z</time>
      </trkpt>
      <trkpt lat="43.59161" lon="3.76615">
        <ele>53.766326857143</ele>
        <time>2020-09-20T09:39:39.000Z</time>
      </trkpt>
      <trkpt lat="43.59159" lon="3.76618">
        <ele>53.664286040816</ele>
        <time>2020-09-20T09:39:40.000Z</time>
      </trkpt>
      <trkpt lat="43.59157" lon="3.76621">
        <ele>53.56224522449</ele>
        <time>2020-09-20T09:39:41.000Z</time>
      </trkpt>
      <trkpt lat="43.59155" lon="3.76624">
        <ele>53.460204408163</ele>
        <time>2020-09-20T09:39:42.000Z</time>
      </trkpt>
      <trkpt lat="43.59153" lon="3.76625">
        <ele>53.358163591837</ele>
        <time>2020-09-20T09:39:43.000Z</time>
      </trkpt>
      <trkpt lat="43.5915" lon="3.76626">
        <ele>53.154081959184</ele>
        <time>2020-09-20T09:39:45.000Z</time>
      </trkpt>
      <trkpt lat="43.59148" lon="3.76627">
        <ele>53</ele>
        <time>2020-09-20T09:39:47.000Z</time>
      </trkpt>
      <trkpt lat="43.59146" lon="3.76628">
        <ele>53</ele>
        <time>2020-09-20T09:39:49.000Z</time>
      </trkpt>
      <trkpt lat="43.59142" lon="3.7663">
        <ele>53</ele>
        <time>2020-09-20T09:39:51.000Z</time>
      </trkpt>
      <trkpt lat="43.59139" lon="3.76632">
        <ele>53</ele>
        <time>2020-09-20T09:39:53.000Z</time>
      </trkpt>
      <trkpt lat="43.59138" lon="3.76633">
        <ele>53</ele>
        <time>2020-09-20T09:39:54.000Z</time>
      </trkpt>
      <trkpt lat="43.59136" lon="3.76635">
        <ele>53</ele>
        <time>2020-09-20T09:39:55.000Z</time>
      </trkpt>
      <trkpt lat="43.59135" lon="3.76637">
        <ele>53</ele>
        <time>2020-09-20T09:39:56.000Z</time>
      </trkpt>
      <trkpt lat="43.59133" lon="3.76638">
        <ele>53</ele>
        <time>2020-09-20T09:39:57.000Z</time>
      </trkpt>
      <trkpt lat="43.59131" lon="3.7664">
        <ele>53</ele>
        <time>2020-09-20T09:39:58.000Z</time>
      </trkpt>
      <trkpt lat="43.59129" lon="3.76642">
        <ele>53</ele>
        <time>2020-09-20T09:39:59.000Z</time>
      </trkpt>
      <trkpt lat="43.59127" lon="3.76643">
        <ele>53</ele>
        <time>2020-09-20T09:40:00.000Z</time>
      </trkpt>
      <trkpt lat="43.59125" lon="3.76645">
        <ele>53</ele>
        <time>2020-09-20T09:40:01.000Z</time>
      </trkpt>
      <trkpt lat="43.59123" lon="3.76647">
        <ele>53</ele>
        <time>2020-09-20T09:40:02.000Z</time>
      </trkpt>
      <trkpt lat="43.59121" lon="3.76648">
        <ele>53</ele>
        <time>2020-09-20T09:40:03.000Z</time>
      </trkpt>
      <trkpt lat="43.59119" lon="3.7665">
        <ele>53</ele>
        <time>2020-09-20T09:40:04.000Z</time>
      </trkpt>
      <trkpt lat="43.59117" lon="3.76652">
        <ele>53</ele>
        <time>2020-09-20T09:40:05.000Z</time>
      </trkpt>
      <trkpt lat="43.59116" lon="3.76654">
        <ele>53</ele>
        <time>2020-09-20T09:40:06.000Z</time>
      </trkpt>
      <trkpt lat="43.59113" lon="3.76656">
        <ele>52.949949325342</ele>
        <time>2020-09-20T09:40:07.000Z</time>
      </trkpt>
      <trkpt lat="43.59111" lon="3.76658">
        <ele>52.849849257306</ele>
        <time>2020-09-20T09:40:08.000Z</time>
      </trkpt>
      <trkpt lat="43.5911" lon="3.76659">
        <ele>52.74974918927</ele>
        <time>2020-09-20T09:40:09.000Z</time>
      </trkpt>
      <trkpt lat="43.59108" lon="3.76661">
        <ele>52.649649121234</ele>
        <time>2020-09-20T09:40:10.000Z</time>
      </trkpt>
      <trkpt lat="43.59106" lon="3.76663">
        <ele>52.549549053198</ele>
        <time>2020-09-20T09:40:11.000Z</time>
      </trkpt>
      <trkpt lat="43.59104" lon="3.76665">
        <ele>52.449448985162</ele>
        <time>2020-09-20T09:40:12.000Z</time>
      </trkpt>
      <trkpt lat="43.59102" lon="3.76667">
        <ele>52.349348917126</ele>
        <time>2020-09-20T09:40:13.000Z</time>
      </trkpt>
      <trkpt lat="43.591" lon="3.76668">
        <ele>52.249248849089</ele>
        <time>2020-09-20T09:40:14.000Z</time>
      </trkpt>
      <trkpt lat="43.59097" lon="3.7667">
        <ele>52.149148781053</ele>
        <time>2020-09-20T09:40:15.000Z</time>
      </trkpt>
      <trkpt lat="43.59095" lon="3.76672">
        <ele>52.049048713017</ele>
        <time>2020-09-20T09:40:16.000Z</time>
      </trkpt>
      <trkpt lat="43.59093" lon="3.76674">
        <ele>52</ele>
        <time>2020-09-20T09:40:17.000Z</time>
      </trkpt>
      <trkpt lat="43.5909" lon="3.76675">
        <ele>52</ele>
        <time>2020-09-20T09:40:18.000Z</time>
      </trkpt>
      <trkpt lat="43.59088" lon="3.76677">
        <ele>52</ele>
        <time>2020-09-20T09:40:19.000Z</time>
      </trkpt>
      <trkpt lat="43.59086" lon="3.76678">
        <ele>52</ele>
        <time>2020-09-20T09:40:20.000Z</time>
      </trkpt>
      <trkpt lat="43.59084" lon="3.7668">
        <ele>52</ele>
        <time>2020-09-20T09:40:21.000Z</time>
      </trkpt>
      <trkpt lat="43.59081" lon="3.76682">
        <ele>52</ele>
        <time>2020-09-20T09:40:22.000Z</time>
      </trkpt>
      <trkpt lat="43.59079" lon="3.76683">
        <ele>52</ele>
        <time>2020-09-20T09:40:23.000Z</time>
      </trkpt>
      <trkpt lat="43.59076" lon="3.76684">
        <ele>52</ele>
        <time>2020-09-20T09:40:24.000Z</time>
      </trkpt>
      <trkpt lat="43.59074" lon="3.76685">
        <ele>52</ele>
        <time>2020-09-20T09:40:25.000Z</time>
      </trkpt>
      <trkpt lat="43.59071" lon="3.76686">
        <ele>52</ele>
        <time>2020-09-20T09:40:26.000Z</time>
      </trkpt>
      <trkpt lat="43.59069" lon="3.76688">
        <ele>52</ele>
        <time>2020-09-20T09:40:27.000Z</time>
      </trkpt>
      <trkpt lat="43.59066" lon="3.76689">
        <ele>52</ele>
        <time>2020-09-20T09:40:28.000Z</time>
      </trkpt>
      <trkpt lat="43.59064" lon="3.76691">
        <ele>52</ele>
        <time>2020-09-20T09:40:29.000Z</time>
      </trkpt>
      <trkpt lat="43.59061" lon="3.76692">
        <ele>52</ele>
        <time>2020-09-20T09:40:30.000Z</time>
      </trkpt>
      <trkpt lat="43.59059" lon="3.76693">
        <ele>52</ele>
        <time>2020-09-20T09:40:31.000Z</time>
      </trkpt>
      <trkpt lat="43.59056" lon="3.76693">
        <ele>52</ele>
        <time>2020-09-20T09:40:32.000Z</time>
      </trkpt>
      <trkpt lat="43.59054" lon="3.76693">
        <ele>52</ele>
        <time>2020-09-20T09:40:33.000Z</time>
      </trkpt>
      <trkpt lat="43.59052" lon="3.76693">
        <ele>52</ele>
        <time>2020-09-20T09:40:34.000Z</time>
      </trkpt>
      <trkpt lat="43.5905" lon="3.76696">
        <ele>52</ele>
        <time>2020-09-20T09:40:36.000Z</time>
      </trkpt>
      <trkpt lat="43.59052" lon="3.767">
        <ele>52</ele>
        <time>2020-09-20T09:40:38.000Z</time>
      </trkpt>
      <trkpt lat="43.59053" lon="3.76703">
        <ele>52</ele>
        <time>2020-09-20T09:40:39.000Z</time>
      </trkpt>
      <trkpt lat="43.59054" lon="3.76706">
        <ele>52</ele>
        <time>2020-09-20T09:40:40.000Z</time>
      </trkpt>
      <trkpt lat="43.59056" lon="3.76709">
        <ele>52</ele>
        <time>2020-09-20T09:40:41.000Z</time>
      </trkpt>
      <trkpt lat="43.59057" lon="3.76712">
        <ele>52</ele>
        <time>2020-09-20T09:40:42.000Z</time>
      </trkpt>
      <trkpt lat="43.59059" lon="3.76714">
        <ele>52</ele>
        <time>2020-09-20T09:40:43.000Z</time>
      </trkpt>
      <trkpt lat="43.5906" lon="3.76716">
        <ele>52</ele>
        <time>2020-09-20T09:40:44.000Z</time>
      </trkpt>
      <trkpt lat="43.59062" lon="3.76719">
        <ele>52</ele>
        <time>2020-09-20T09:40:45.000Z</time>
      </trkpt>
      <trkpt lat="43.59064" lon="3.76721">
        <ele>52</ele>
        <time>2020-09-20T09:40:46.000Z</time>
      </trkpt>
      <trkpt lat="43.59066" lon="3.76723">
        <ele>52</ele>
        <time>2020-09-20T09:40:47.000Z</time>
      </trkpt>
      <trkpt lat="43.59068" lon="3.76724">
        <ele>52</ele>
        <time>2020-09-20T09:40:48.000Z</time>
      </trkpt>
      <trkpt lat="43.5907" lon="3.76725">
        <ele>52</ele>
        <time>2020-09-20T09:40:49.000Z</time>
      </trkpt>
      <trkpt lat="43.59073" lon="3.76726">
        <ele>52</ele>
        <time>2020-09-20T09:40:50.000Z</time>
      </trkpt>
      <trkpt lat="43.59075" lon="3.76727">
        <ele>52</ele>
        <time>2020-09-20T09:40:51.000Z</time>
      </trkpt>
      <trkpt lat="43.59078" lon="3.76728">
        <ele>52</ele>
        <time>2020-09-20T09:40:52.000Z</time>
      </trkpt>
      <trkpt lat="43.5908" lon="3.76729">
        <ele>52</ele>
        <time>2020-09-20T09:40:53.000Z</time>
      </trkpt>
      <trkpt lat="43.59083" lon="3.7673">
        <ele>52</ele>
        <time>2020-09-20T09:40:54.000Z</time>
      </trkpt>
      <trkpt lat="43.59085" lon="3.76731">
        <ele>52</ele>
        <time>2020-09-20T09:40:55.000Z</time>
      </trkpt>
      <trkpt lat="43.59087" lon="3.76732">
        <ele>52</ele>
        <time>2020-09-20T09:40:56.000Z</time>
      </trkpt>
      <trkpt lat="43.59089" lon="3.76732">
        <ele>52.05100032</ele>
        <time>2020-09-20T09:40:57.000Z</time>
      </trkpt>
      <trkpt lat="43.59091" lon="3.76733">
        <ele>52.15100032</ele>
        <time>2020-09-20T09:40:58.000Z</time>
      </trkpt>
      <trkpt lat="43.59094" lon="3.76734">
        <ele>52.25100032</ele>
        <time>2020-09-20T09:40:59.000Z</time>
      </trkpt>
      <trkpt lat="43.59096" lon="3.76734">
        <ele>52.35100032</ele>
        <time>2020-09-20T09:41:00.000Z</time>
      </trkpt>
      <trkpt lat="43.59098" lon="3.76734">
        <ele>52.45100032</ele>
        <time>2020-09-20T09:41:01.000Z</time>
      </trkpt>
      <trkpt lat="43.591" lon="3.76735">
        <ele>52.55100032</ele>
        <time>2020-09-20T09:41:02.000Z</time>
      </trkpt>
      <trkpt lat="43.59102" lon="3.76735">
        <ele>52.65100032</ele>
        <time>2020-09-20T09:41:03.000Z</time>
      </trkpt>
      <trkpt lat="43.59104" lon="3.76736">
        <ele>52.75100032</ele>
        <time>2020-09-20T09:41:04.000Z</time>
      </trkpt>
      <trkpt lat="43.59106" lon="3.76737">
        <ele>52.85100032</ele>
        <time>2020-09-20T09:41:05.000Z</time>
      </trkpt>
      <trkpt lat="43.59108" lon="3.76738">
        <ele>52.95100032</ele>
        <time>2020-09-20T09:41:06.000Z</time>
      </trkpt>
      <trkpt lat="43.5911" lon="3.76739">
        <ele>53.050949386917</ele>
        <time>2020-09-20T09:41:07.000Z</time>
      </trkpt>
      <trkpt lat="43.59112" lon="3.7674">
        <ele>53.150849518753</ele>
        <time>2020-09-20T09:41:08.000Z</time>
      </trkpt>
      <trkpt lat="43.59114" lon="3.7674">
        <ele>53.250749650589</ele>
        <time>2020-09-20T09:41:09.000Z</time>
      </trkpt>
      <trkpt lat="43.59116" lon="3.76741">
        <ele>53.350649782425</ele>
        <time>2020-09-20T09:41:10.000Z</time>
      </trkpt>
      <trkpt lat="43.59118" lon="3.76742">
        <ele>53.450549914262</ele>
        <time>2020-09-20T09:41:11.000Z</time>
      </trkpt>
      <trkpt lat="43.5912" lon="3.76743">
        <ele>53.550450046098</ele>
        <time>2020-09-20T09:41:12.000Z</time>
      </trkpt>
      <trkpt lat="43.59122" lon="3.76743">
        <ele>53.650350177934</ele>
        <time>2020-09-20T09:41:13.000Z</time>
      </trkpt>
      <trkpt lat="43.59124" lon="3.76743">
        <ele>53.75025030977</ele>
        <time>2020-09-20T09:41:14.000Z</time>
      </trkpt>
      <trkpt lat="43.59126" lon="3.76744">
        <ele>53.850150441607</ele>
        <time>2020-09-20T09:41:15.000Z</time>
      </trkpt>
      <trkpt lat="43.5913" lon="3.76746">
        <ele>54.050050674658</ele>
        <time>2020-09-20T09:41:17.000Z</time>
      </trkpt>
      <trkpt lat="43.59131" lon="3.76747">
        <ele>54.150150742694</ele>
        <time>2020-09-20T09:41:18.000Z</time>
      </trkpt>
      <trkpt lat="43.59133" lon="3.76748">
        <ele>54.25025081073</ele>
        <time>2020-09-20T09:41:19.000Z</time>
      </trkpt>
      <trkpt lat="43.59135" lon="3.7675">
        <ele>54.350350878766</ele>
        <time>2020-09-20T09:41:20.000Z</time>
      </trkpt>
      <trkpt lat="43.59137" lon="3.76751">
        <ele>54.450450946802</ele>
        <time>2020-09-20T09:41:21.000Z</time>
      </trkpt>
      <trkpt lat="43.59139" lon="3.76752">
        <ele>54.550551014838</ele>
        <time>2020-09-20T09:41:22.000Z</time>
      </trkpt>
      <trkpt lat="43.5914" lon="3.76754">
        <ele>54.650651082874</ele>
        <time>2020-09-20T09:41:23.000Z</time>
      </trkpt>
      <trkpt lat="43.59142" lon="3.76755">
        <ele>54.750751150911</ele>
        <time>2020-09-20T09:41:24.000Z</time>
      </trkpt>
      <trkpt lat="43.59144" lon="3.76756">
        <ele>54.850851218947</ele>
        <time>2020-09-20T09:41:25.000Z</time>
      </trkpt>
      <trkpt lat="43.59146" lon="3.76758">
        <ele>54.950951286983</ele>
        <time>2020-09-20T09:41:26.000Z</time>
      </trkpt>
      <trkpt lat="43.59148" lon="3.7676">
        <ele>55.150849518753</ele>
        <time>2020-09-20T09:41:28.000Z</time>
      </trkpt>
      <trkpt lat="43.5915" lon="3.76761">
        <ele>55.250749650589</ele>
        <time>2020-09-20T09:41:29.000Z</time>
      </trkpt>
      <trkpt lat="43.59152" lon="3.76763">
        <ele>55.350649782425</ele>
        <time>2020-09-20T09:41:30.000Z</time>
      </trkpt>
      <trkpt lat="43.59153" lon="3.76764">
        <ele>55.450549914262</ele>
        <time>2020-09-20T09:41:31.000Z</time>
      </trkpt>
      <trkpt lat="43.59155" lon="3.76766">
        <ele>55.550450046098</ele>
        <time>2020-09-20T09:41:32.000Z</time>
      </trkpt>
      <trkpt lat="43.59156" lon="3.76768">
        <ele>55.650350177934</ele>
        <time>2020-09-20T09:41:33.000Z</time>
      </trkpt>
      <trkpt lat="43.59158" lon="3.76769">
        <ele>55.75025030977</ele>
        <time>2020-09-20T09:41:34.000Z</time>
      </trkpt>
      <trkpt lat="43.59159" lon="3.76771">
        <ele>55.850150441607</ele>
        <time>2020-09-20T09:41:35.000Z</time>
      </trkpt>
      <trkpt lat="43.5916" lon="3.76773">
        <ele>55.950050573443</ele>
        <time>2020-09-20T09:41:36.000Z</time>
      </trkpt>
      <trkpt lat="43.59162" lon="3.76775">
        <ele>56.100101349317</ele>
        <time>2020-09-20T09:41:37.000Z</time>
      </trkpt>
      <trkpt lat="43.59163" lon="3.76777">
        <ele>56.300301485389</ele>
        <time>2020-09-20T09:41:38.000Z</time>
      </trkpt>
      <trkpt lat="43.59164" lon="3.76779">
        <ele>56.500501621461</ele>
        <time>2020-09-20T09:41:39.000Z</time>
      </trkpt>
      <trkpt lat="43.59166" lon="3.76781">
        <ele>56.700701757533</ele>
        <time>2020-09-20T09:41:40.000Z</time>
      </trkpt>
      <trkpt lat="43.59167" lon="3.76783">
        <ele>56.900901893605</ele>
        <time>2020-09-20T09:41:41.000Z</time>
      </trkpt>
      <trkpt lat="43.59168" lon="3.76785">
        <ele>57.101102029677</ele>
        <time>2020-09-20T09:41:42.000Z</time>
      </trkpt>
      <trkpt lat="43.59169" lon="3.76788">
        <ele>57.301302165749</ele>
        <time>2020-09-20T09:41:43.000Z</time>
      </trkpt>
      <trkpt lat="43.5917" lon="3.7679">
        <ele>57.501502301821</ele>
        <time>2020-09-20T09:41:44.000Z</time>
      </trkpt>
      <trkpt lat="43.59172" lon="3.76793">
        <ele>57.901902573965</ele>
        <time>2020-09-20T09:41:46.000Z</time>
      </trkpt>
      <trkpt lat="43.59174" lon="3.76797">
        <ele>58.15100032</ele>
        <time>2020-09-20T09:41:48.000Z</time>
      </trkpt>
      <trkpt lat="43.59176" lon="3.768">
        <ele>58.35100032</ele>
        <time>2020-09-20T09:41:50.000Z</time>
      </trkpt>
      <trkpt lat="43.59178" lon="3.76804">
        <ele>58.55100032</ele>
        <time>2020-09-20T09:41:52.000Z</time>
      </trkpt>
      <trkpt lat="43.5918" lon="3.76808">
        <ele>58.75100032</ele>
        <time>2020-09-20T09:41:54.000Z</time>
      </trkpt>
      <trkpt lat="43.59181" lon="3.76811">
        <ele>58.95100032</ele>
        <time>2020-09-20T09:41:56.000Z</time>
      </trkpt>
      <trkpt lat="43.59182" lon="3.76815">
        <ele>59.26787663364</ele>
        <time>2020-09-20T09:41:59.000Z</time>
      </trkpt>
      <trkpt lat="43.59182" lon="3.76817">
        <ele>59.48132387836</ele>
        <time>2020-09-20T09:42:01.000Z</time>
      </trkpt>
      <trkpt lat="43.59182" lon="3.76817">
        <ele>59.995740803898</ele>
        <time>2020-09-20T09:42:06.000Z</time>
      </trkpt>
      <trkpt lat="43.59184" lon="3.76825">
        <ele>59.001893043353</ele>
        <time>2020-09-20T09:42:27.000Z</time>
      </trkpt>
      <trkpt lat="43.59185" lon="3.76827">
        <ele>59.100635932203</ele>
        <time>2020-09-20T09:42:28.000Z</time>
      </trkpt>
      <trkpt lat="43.59186" lon="3.7683">
        <ele>59.206568135593</ele>
        <time>2020-09-20T09:42:29.000Z</time>
      </trkpt>
      <trkpt lat="43.59187" lon="3.76832">
        <ele>59.312500338983</ele>
        <time>2020-09-20T09:42:30.000Z</time>
      </trkpt>
      <trkpt lat="43.59188" lon="3.76835">
        <ele>59.418432542373</ele>
        <time>2020-09-20T09:42:31.000Z</time>
      </trkpt>
      <trkpt lat="43.5919" lon="3.76838">
        <ele>59.524364745763</ele>
        <time>2020-09-20T09:42:32.000Z</time>
      </trkpt>
      <trkpt lat="43.59191" lon="3.76842">
        <ele>59.630296949153</ele>
        <time>2020-09-20T09:42:33.000Z</time>
      </trkpt>
      <trkpt lat="43.59192" lon="3.76845">
        <ele>59.736229152542</ele>
        <time>2020-09-20T09:42:34.000Z</time>
      </trkpt>
      <trkpt lat="43.59193" lon="3.76848">
        <ele>59.842161355932</ele>
        <time>2020-09-20T09:42:35.000Z</time>
      </trkpt>
      <trkpt lat="43.59195" lon="3.76852">
        <ele>59.948093559322</ele>
        <time>2020-09-20T09:42:36.000Z</time>
      </trkpt>
      <trkpt lat="43.59196" lon="3.76855">
        <ele>60.049562946958</ele>
        <time>2020-09-20T09:42:37.000Z</time>
      </trkpt>
      <trkpt lat="43.59198" lon="3.76858">
        <ele>60.146744586127</ele>
        <time>2020-09-20T09:42:38.000Z</time>
      </trkpt>
      <trkpt lat="43.592" lon="3.76861">
        <ele>60.243926225297</ele>
        <time>2020-09-20T09:42:39.000Z</time>
      </trkpt>
      <trkpt lat="43.59202" lon="3.76864">
        <ele>60.341107864467</ele>
        <time>2020-09-20T09:42:40.000Z</time>
      </trkpt>
      <trkpt lat="43.59204" lon="3.76866">
        <ele>60.438289503637</ele>
        <time>2020-09-20T09:42:41.000Z</time>
      </trkpt>
      <trkpt lat="43.59206" lon="3.76868">
        <ele>60.535471142806</ele>
        <time>2020-09-20T09:42:42.000Z</time>
      </trkpt>
      <trkpt lat="43.59209" lon="3.7687">
        <ele>60.632652781976</ele>
        <time>2020-09-20T09:42:43.000Z</time>
      </trkpt>
      <trkpt lat="43.59211" lon="3.76872">
        <ele>60.729834421146</ele>
        <time>2020-09-20T09:42:44.000Z</time>
      </trkpt>
      <trkpt lat="43.59213" lon="3.76874">
        <ele>60.827016060315</ele>
        <time>2020-09-20T09:42:45.000Z</time>
      </trkpt>
      <trkpt lat="43.59215" lon="3.76875">
        <ele>60.924197699485</ele>
        <time>2020-09-20T09:42:46.000Z</time>
      </trkpt>
      <trkpt lat="43.59218" lon="3.76877">
        <ele>61.022656417868</ele>
        <time>2020-09-20T09:42:47.000Z</time>
      </trkpt>
      <trkpt lat="43.5922" lon="3.76878">
        <ele>61.125643131429</ele>
        <time>2020-09-20T09:42:48.000Z</time>
      </trkpt>
      <trkpt lat="43.59223" lon="3.76879">
        <ele>61.228629844989</ele>
        <time>2020-09-20T09:42:49.000Z</time>
      </trkpt>
      <trkpt lat="43.59226" lon="3.7688">
        <ele>61.33161655855</ele>
        <time>2020-09-20T09:42:50.000Z</time>
      </trkpt>
      <trkpt lat="43.59228" lon="3.76881">
        <ele>61.43460327211</ele>
        <time>2020-09-20T09:42:51.000Z</time>
      </trkpt>
      <trkpt lat="43.59231" lon="3.76882">
        <ele>61.537589985671</ele>
        <time>2020-09-20T09:42:52.000Z</time>
      </trkpt>
      <trkpt lat="43.59234" lon="3.76883">
        <ele>61.640576699231</ele>
        <time>2020-09-20T09:42:53.000Z</time>
      </trkpt>
      <trkpt lat="43.59237" lon="3.76884">
        <ele>61.743563412792</ele>
        <time>2020-09-20T09:42:54.000Z</time>
      </trkpt>
      <trkpt lat="43.59239" lon="3.76885">
        <ele>61.846550126352</ele>
        <time>2020-09-20T09:42:55.000Z</time>
      </trkpt>
      <trkpt lat="43.59242" lon="3.76886">
        <ele>61.949536839913</ele>
        <time>2020-09-20T09:42:56.000Z</time>
      </trkpt>
      <trkpt lat="43.59244" lon="3.76888">
        <ele>62.05100032</ele>
        <time>2020-09-20T09:42:57.000Z</time>
      </trkpt>
      <trkpt lat="43.59247" lon="3.76889">
        <ele>62.15100032</ele>
        <time>2020-09-20T09:42:58.000Z</time>
      </trkpt>
      <trkpt lat="43.59249" lon="3.76891">
        <ele>62.25100032</ele>
        <time>2020-09-20T09:42:59.000Z</time>
      </trkpt>
      <trkpt lat="43.59252" lon="3.76893">
        <ele>62.35100032</ele>
        <time>2020-09-20T09:43:00.000Z</time>
      </trkpt>
      <trkpt lat="43.59255" lon="3.76894">
        <ele>62.45100032</ele>
        <time>2020-09-20T09:43:01.000Z</time>
      </trkpt>
      <trkpt lat="43.59257" lon="3.76896">
        <ele>62.55100032</ele>
        <time>2020-09-20T09:43:02.000Z</time>
      </trkpt>
      <trkpt lat="43.5926" lon="3.76898">
        <ele>62.65100032</ele>
        <time>2020-09-20T09:43:03.000Z</time>
      </trkpt>
      <trkpt lat="43.59262" lon="3.76899">
        <ele>62.75100032</ele>
        <time>2020-09-20T09:43:04.000Z</time>
      </trkpt>
      <trkpt lat="43.59265" lon="3.76901">
        <ele>62.85100032</ele>
        <time>2020-09-20T09:43:05.000Z</time>
      </trkpt>
      <trkpt lat="43.59267" lon="3.76902">
        <ele>62.95100032</ele>
        <time>2020-09-20T09:43:06.000Z</time>
      </trkpt>
      <trkpt lat="43.5927" lon="3.76904">
        <ele>63.05100032</ele>
        <time>2020-09-20T09:43:07.000Z</time>
      </trkpt>
      <trkpt lat="43.59272" lon="3.76905">
        <ele>63.15100032</ele>
        <time>2020-09-20T09:43:08.000Z</time>
      </trkpt>
      <trkpt lat="43.59275" lon="3.76906">
        <ele>63.25100032</ele>
        <time>2020-09-20T09:43:09.000Z</time>
      </trkpt>
      <trkpt lat="43.59277" lon="3.76907">
        <ele>63.35100032</ele>
        <time>2020-09-20T09:43:10.000Z</time>
      </trkpt>
      <trkpt lat="43.5928" lon="3.76908">
        <ele>63.45100032</ele>
        <time>2020-09-20T09:43:11.000Z</time>
      </trkpt>
      <trkpt lat="43.59282" lon="3.76909">
        <ele>63.55100032</ele>
        <time>2020-09-20T09:43:12.000Z</time>
      </trkpt>
      <trkpt lat="43.59285" lon="3.7691">
        <ele>63.65100032</ele>
        <time>2020-09-20T09:43:13.000Z</time>
      </trkpt>
      <trkpt lat="43.59287" lon="3.7691">
        <ele>63.75100032</ele>
        <time>2020-09-20T09:43:14.000Z</time>
      </trkpt>
      <trkpt lat="43.5929" lon="3.76911">
        <ele>63.85100032</ele>
        <time>2020-09-20T09:43:15.000Z</time>
      </trkpt>
      <trkpt lat="43.59293" lon="3.76912">
        <ele>63.95100032</ele>
        <time>2020-09-20T09:43:16.000Z</time>
      </trkpt>
      <trkpt lat="43.59295" lon="3.76913">
        <ele>64.050898490444</ele>
        <time>2020-09-20T09:43:17.000Z</time>
      </trkpt>
      <trkpt lat="43.59298" lon="3.76914">
        <ele>64.150698825901</ele>
        <time>2020-09-20T09:43:18.000Z</time>
      </trkpt>
      <trkpt lat="43.59301" lon="3.76915">
        <ele>64.250499161358</ele>
        <time>2020-09-20T09:43:19.000Z</time>
      </trkpt>
      <trkpt lat="43.59303" lon="3.76916">
        <ele>64.350299496815</ele>
        <time>2020-09-20T09:43:20.000Z</time>
      </trkpt>
      <trkpt lat="43.59306" lon="3.76917">
        <ele>64.450099832272</ele>
        <time>2020-09-20T09:43:21.000Z</time>
      </trkpt>
      <trkpt lat="43.59308" lon="3.76918">
        <ele>64.549900167728</ele>
        <time>2020-09-20T09:43:22.000Z</time>
      </trkpt>
      <trkpt lat="43.5931" lon="3.7692">
        <ele>64.649700503185</ele>
        <time>2020-09-20T09:43:23.000Z</time>
      </trkpt>
      <trkpt lat="43.59313" lon="3.76921">
        <ele>64.749500838642</ele>
        <time>2020-09-20T09:43:24.000Z</time>
      </trkpt>
      <trkpt lat="43.59315" lon="3.76922">
        <ele>64.849301174099</ele>
        <time>2020-09-20T09:43:25.000Z</time>
      </trkpt>
      <trkpt lat="43.59317" lon="3.76924">
        <ele>64.949101509556</ele>
        <time>2020-09-20T09:43:26.000Z</time>
      </trkpt>
      <trkpt lat="43.59319" lon="3.76925">
        <ele>65.049048775863</ele>
        <time>2020-09-20T09:43:27.000Z</time>
      </trkpt>
      <trkpt lat="43.59322" lon="3.76927">
        <ele>65.149148972155</ele>
        <time>2020-09-20T09:43:28.000Z</time>
      </trkpt>
      <trkpt lat="43.59324" lon="3.76929">
        <ele>65.249249168448</ele>
        <time>2020-09-20T09:43:29.000Z</time>
      </trkpt>
      <trkpt lat="43.59326" lon="3.76931">
        <ele>65.34934936474</ele>
        <time>2020-09-20T09:43:30.000Z</time>
      </trkpt>
      <trkpt lat="43.59328" lon="3.76933">
        <ele>65.449449561033</ele>
        <time>2020-09-20T09:43:31.000Z</time>
      </trkpt>
      <trkpt lat="43.5933" lon="3.76936">
        <ele>65.549549757325</ele>
        <time>2020-09-20T09:43:32.000Z</time>
      </trkpt>
      <trkpt lat="43.59331" lon="3.76937">
        <ele>65.649649953618</ele>
        <time>2020-09-20T09:43:33.000Z</time>
      </trkpt>
      <trkpt lat="43.59333" lon="3.76939">
        <ele>65.74975014991</ele>
        <time>2020-09-20T09:43:34.000Z</time>
      </trkpt>
      <trkpt lat="43.59335" lon="3.76941">
        <ele>65.849850346203</ele>
        <time>2020-09-20T09:43:35.000Z</time>
      </trkpt>
      <trkpt lat="43.59337" lon="3.76944">
        <ele>65.949950542495</ele>
        <time>2020-09-20T09:43:36.000Z</time>
      </trkpt>
      <trkpt lat="43.59339" lon="3.76946">
        <ele>66.09852339751</ele>
        <time>2020-09-20T09:43:37.000Z</time>
      </trkpt>
      <trkpt lat="43.59341" lon="3.76948">
        <ele>66.295567670363</ele>
        <time>2020-09-20T09:43:38.000Z</time>
      </trkpt>
      <trkpt lat="43.59343" lon="3.7695">
        <ele>66.492611943216</ele>
        <time>2020-09-20T09:43:39.000Z</time>
      </trkpt>
      <trkpt lat="43.59345" lon="3.76952">
        <ele>66.689656216069</ele>
        <time>2020-09-20T09:43:40.000Z</time>
      </trkpt>
      <trkpt lat="43.59347" lon="3.76954">
        <ele>66.886700488922</ele>
        <time>2020-09-20T09:43:41.000Z</time>
      </trkpt>
      <trkpt lat="43.59349" lon="3.76955">
        <ele>67.083744761775</ele>
        <time>2020-09-20T09:43:42.000Z</time>
      </trkpt>
      <trkpt lat="43.59351" lon="3.76958">
        <ele>67.280789034628</ele>
        <time>2020-09-20T09:43:43.000Z</time>
      </trkpt>
      <trkpt lat="43.59353" lon="3.7696">
        <ele>67.477833307481</ele>
        <time>2020-09-20T09:43:44.000Z</time>
      </trkpt>
      <trkpt lat="43.59355" lon="3.76962">
        <ele>67.674877580334</ele>
        <time>2020-09-20T09:43:45.000Z</time>
      </trkpt>
      <trkpt lat="43.59357" lon="3.76964">
        <ele>67.871921853187</ele>
        <time>2020-09-20T09:43:46.000Z</time>
      </trkpt>
      <trkpt lat="43.59359" lon="3.76966">
        <ele>68.035569430894</ele>
        <time>2020-09-20T09:43:47.000Z</time>
      </trkpt>
      <trkpt lat="43.59361" lon="3.76968">
        <ele>68.137195447154</ele>
        <time>2020-09-20T09:43:48.000Z</time>
      </trkpt>
      <trkpt lat="43.59363" lon="3.7697">
        <ele>68.238821463415</ele>
        <time>2020-09-20T09:43:49.000Z</time>
      </trkpt>
      <trkpt lat="43.59366" lon="3.76972">
        <ele>68.340447479675</ele>
        <time>2020-09-20T09:43:50.000Z</time>
      </trkpt>
      <trkpt lat="43.59368" lon="3.76974">
        <ele>68.442073495935</ele>
        <time>2020-09-20T09:43:51.000Z</time>
      </trkpt>
      <trkpt lat="43.59371" lon="3.76975">
        <ele>68.543699512195</ele>
        <time>2020-09-20T09:43:52.000Z</time>
      </trkpt>
      <trkpt lat="43.59373" lon="3.76977">
        <ele>68.645325528455</ele>
        <time>2020-09-20T09:43:53.000Z</time>
      </trkpt>
      <trkpt lat="43.59376" lon="3.76979">
        <ele>68.746951544715</ele>
        <time>2020-09-20T09:43:54.000Z</time>
      </trkpt>
      <trkpt lat="43.59379" lon="3.7698">
        <ele>68.848577560976</ele>
        <time>2020-09-20T09:43:55.000Z</time>
      </trkpt>
      <trkpt lat="43.59381" lon="3.76982">
        <ele>68.950203577236</ele>
        <time>2020-09-20T09:43:56.000Z</time>
      </trkpt>
      <trkpt lat="43.59384" lon="3.76984">
        <ele>69</ele>
        <time>2020-09-20T09:43:57.000Z</time>
      </trkpt>
      <trkpt lat="43.59387" lon="3.76985">
        <ele>69</ele>
        <time>2020-09-20T09:43:58.000Z</time>
      </trkpt>
      <trkpt lat="43.59389" lon="3.76987">
        <ele>69</ele>
        <time>2020-09-20T09:43:59.000Z</time>
      </trkpt>
      <trkpt lat="43.59392" lon="3.76988">
        <ele>69</ele>
        <time>2020-09-20T09:44:00.000Z</time>
      </trkpt>
      <trkpt lat="43.59395" lon="3.76989">
        <ele>69</ele>
        <time>2020-09-20T09:44:01.000Z</time>
      </trkpt>
      <trkpt lat="43.59398" lon="3.76991">
        <ele>69</ele>
        <time>2020-09-20T09:44:02.000Z</time>
      </trkpt>
      <trkpt lat="43.59401" lon="3.76992">
        <ele>69</ele>
        <time>2020-09-20T09:44:03.000Z</time>
      </trkpt>
      <trkpt lat="43.59404" lon="3.76993">
        <ele>69</ele>
        <time>2020-09-20T09:44:04.000Z</time>
      </trkpt>
      <trkpt lat="43.59406" lon="3.76995">
        <ele>69</ele>
        <time>2020-09-20T09:44:05.000Z</time>
      </trkpt>
      <trkpt lat="43.59409" lon="3.76996">
        <ele>69</ele>
        <time>2020-09-20T09:44:06.000Z</time>
      </trkpt>
      <trkpt lat="43.59412" lon="3.76997">
        <ele>69.05100032</ele>
        <time>2020-09-20T09:44:07.000Z</time>
      </trkpt>
      <trkpt lat="43.59414" lon="3.76999">
        <ele>69.15100032</ele>
        <time>2020-09-20T09:44:08.000Z</time>
      </trkpt>
      <trkpt lat="43.59417" lon="3.77">
        <ele>69.25100032</ele>
        <time>2020-09-20T09:44:09.000Z</time>
      </trkpt>
      <trkpt lat="43.5942" lon="3.77001">
        <ele>69.35100032</ele>
        <time>2020-09-20T09:44:10.000Z</time>
      </trkpt>
      <trkpt lat="43.59423" lon="3.77002">
        <ele>69.45100032</ele>
        <time>2020-09-20T09:44:11.000Z</time>
      </trkpt>
      <trkpt lat="43.59425" lon="3.77003">
        <ele>69.55100032</ele>
        <time>2020-09-20T09:44:12.000Z</time>
      </trkpt>
      <trkpt lat="43.59428" lon="3.77004">
        <ele>69.65100032</ele>
        <time>2020-09-20T09:44:13.000Z</time>
      </trkpt>
      <trkpt lat="43.59431" lon="3.77006">
        <ele>69.75100032</ele>
        <time>2020-09-20T09:44:14.000Z</time>
      </trkpt>
      <trkpt lat="43.59433" lon="3.77007">
        <ele>69.85100032</ele>
        <time>2020-09-20T09:44:15.000Z</time>
      </trkpt>
      <trkpt lat="43.59436" lon="3.77008">
        <ele>69.95100032</ele>
        <time>2020-09-20T09:44:16.000Z</time>
      </trkpt>
      <trkpt lat="43.59439" lon="3.7701">
        <ele>69.94899968</ele>
        <time>2020-09-20T09:44:17.000Z</time>
      </trkpt>
      <trkpt lat="43.59442" lon="3.77011">
        <ele>69.84899968</ele>
        <time>2020-09-20T09:44:18.000Z</time>
      </trkpt>
      <trkpt lat="43.59445" lon="3.77013">
        <ele>69.74899968</ele>
        <time>2020-09-20T09:44:19.000Z</time>
      </trkpt>
      <trkpt lat="43.59448" lon="3.77015">
        <ele>69.64899968</ele>
        <time>2020-09-20T09:44:20.000Z</time>
      </trkpt>
      <trkpt lat="43.5945" lon="3.77017">
        <ele>69.54899968</ele>
        <time>2020-09-20T09:44:21.000Z</time>
      </trkpt>
      <trkpt lat="43.59453" lon="3.77019">
        <ele>69.44899968</ele>
        <time>2020-09-20T09:44:22.000Z</time>
      </trkpt>
      <trkpt lat="43.59456" lon="3.77021">
        <ele>69.34899968</ele>
        <time>2020-09-20T09:44:23.000Z</time>
      </trkpt>
      <trkpt lat="43.59459" lon="3.77023">
        <ele>69.24899968</ele>
        <time>2020-09-20T09:44:24.000Z</time>
      </trkpt>
      <trkpt lat="43.59462" lon="3.77026">
        <ele>69.14899968</ele>
        <time>2020-09-20T09:44:25.000Z</time>
      </trkpt>
      <trkpt lat="43.59466" lon="3.77028">
        <ele>69.04899968</ele>
        <time>2020-09-20T09:44:26.000Z</time>
      </trkpt>
      <trkpt lat="43.59469" lon="3.77031">
        <ele>69</ele>
        <time>2020-09-20T09:44:27.000Z</time>
      </trkpt>
      <trkpt lat="43.59472" lon="3.77033">
        <ele>69</ele>
        <time>2020-09-20T09:44:28.000Z</time>
      </trkpt>
      <trkpt lat="43.59475" lon="3.77035">
        <ele>69</ele>
        <time>2020-09-20T09:44:29.000Z</time>
      </trkpt>
      <trkpt lat="43.59477" lon="3.77038">
        <ele>69</ele>
        <time>2020-09-20T09:44:30.000Z</time>
      </trkpt>
      <trkpt lat="43.59481" lon="3.7704">
        <ele>69</ele>
        <time>2020-09-20T09:44:31.000Z</time>
      </trkpt>
      <trkpt lat="43.59484" lon="3.77042">
        <ele>69</ele>
        <time>2020-09-20T09:44:32.000Z</time>
      </trkpt>
      <trkpt lat="43.59487" lon="3.77044">
        <ele>69</ele>
        <time>2020-09-20T09:44:33.000Z</time>
      </trkpt>
      <trkpt lat="43.59491" lon="3.77045">
        <ele>69</ele>
        <time>2020-09-20T09:44:34.000Z</time>
      </trkpt>
      <trkpt lat="43.59495" lon="3.77047">
        <ele>69</ele>
        <time>2020-09-20T09:44:35.000Z</time>
      </trkpt>
      <trkpt lat="43.59499" lon="3.77049">
        <ele>69</ele>
        <time>2020-09-20T09:44:36.000Z</time>
      </trkpt>
      <trkpt lat="43.59502" lon="3.7705">
        <ele>68.89799936</ele>
        <time>2020-09-20T09:44:37.000Z</time>
      </trkpt>
      <trkpt lat="43.59506" lon="3.77051">
        <ele>68.69799936</ele>
        <time>2020-09-20T09:44:38.000Z</time>
      </trkpt>
      <trkpt lat="43.5951" lon="3.77053">
        <ele>68.49799936</ele>
        <time>2020-09-20T09:44:39.000Z</time>
      </trkpt>
      <trkpt lat="43.59514" lon="3.77055">
        <ele>68.29799936</ele>
        <time>2020-09-20T09:44:40.000Z</time>
      </trkpt>
      <trkpt lat="43.59519" lon="3.77057">
        <ele>68.09799936</ele>
        <time>2020-09-20T09:44:41.000Z</time>
      </trkpt>
      <trkpt lat="43.59524" lon="3.77059">
        <ele>67.89799936</ele>
        <time>2020-09-20T09:44:42.000Z</time>
      </trkpt>
      <trkpt lat="43.59529" lon="3.77061">
        <ele>67.69799936</ele>
        <time>2020-09-20T09:44:43.000Z</time>
      </trkpt>
      <trkpt lat="43.59534" lon="3.77063">
        <ele>67.49799936</ele>
        <time>2020-09-20T09:44:44.000Z</time>
      </trkpt>
      <trkpt lat="43.59539" lon="3.77066">
        <ele>67.29799936</ele>
        <time>2020-09-20T09:44:45.000Z</time>
      </trkpt>
      <trkpt lat="43.59544" lon="3.77068">
        <ele>67.09799936</ele>
        <time>2020-09-20T09:44:46.000Z</time>
      </trkpt>
      <trkpt lat="43.59549" lon="3.77071">
        <ele>66.89799936</ele>
        <time>2020-09-20T09:44:47.000Z</time>
      </trkpt>
      <trkpt lat="43.59554" lon="3.77073">
        <ele>66.69799936</ele>
        <time>2020-09-20T09:44:48.000Z</time>
      </trkpt>
      <trkpt lat="43.59558" lon="3.77075">
        <ele>66.49799936</ele>
        <time>2020-09-20T09:44:49.000Z</time>
      </trkpt>
      <trkpt lat="43.59563" lon="3.77077">
        <ele>66.29799936</ele>
        <time>2020-09-20T09:44:50.000Z</time>
      </trkpt>
      <trkpt lat="43.59567" lon="3.77079">
        <ele>66.09799936</ele>
        <time>2020-09-20T09:44:51.000Z</time>
      </trkpt>
      <trkpt lat="43.59571" lon="3.77082">
        <ele>65.89799936</ele>
        <time>2020-09-20T09:44:52.000Z</time>
      </trkpt>
      <trkpt lat="43.59575" lon="3.77084">
        <ele>65.69799936</ele>
        <time>2020-09-20T09:44:53.000Z</time>
      </trkpt>
      <trkpt lat="43.59579" lon="3.77086">
        <ele>65.49799936</ele>
        <time>2020-09-20T09:44:54.000Z</time>
      </trkpt>
      <trkpt lat="43.59583" lon="3.77088">
        <ele>65.29799936</ele>
        <time>2020-09-20T09:44:55.000Z</time>
      </trkpt>
      <trkpt lat="43.59587" lon="3.77091">
        <ele>65.09799936</ele>
        <time>2020-09-20T09:44:56.000Z</time>
      </trkpt>
      <trkpt lat="43.59591" lon="3.77093">
        <ele>65</ele>
        <time>2020-09-20T09:44:57.000Z</time>
      </trkpt>
      <trkpt lat="43.59595" lon="3.77095">
        <ele>65</ele>
        <time>2020-09-20T09:44:58.000Z</time>
      </trkpt>
      <trkpt lat="43.59599" lon="3.77097">
        <ele>65</ele>
        <time>2020-09-20T09:44:59.000Z</time>
      </trkpt>
      <trkpt lat="43.59604" lon="3.77099">
        <ele>65</ele>
        <time>2020-09-20T09:45:00.000Z</time>
      </trkpt>
      <trkpt lat="43.59608" lon="3.77101">
        <ele>65</ele>
        <time>2020-09-20T09:45:01.000Z</time>
      </trkpt>
      <trkpt lat="43.59612" lon="3.77104">
        <ele>65</ele>
        <time>2020-09-20T09:45:02.000Z</time>
      </trkpt>
      <trkpt lat="43.59617" lon="3.77106">
        <ele>65</ele>
        <time>2020-09-20T09:45:03.000Z</time>
      </trkpt>
      <trkpt lat="43.59621" lon="3.77108">
        <ele>65</ele>
        <time>2020-09-20T09:45:04.000Z</time>
      </trkpt>
      <trkpt lat="43.59626" lon="3.77111">
        <ele>65</ele>
        <time>2020-09-20T09:45:05.000Z</time>
      </trkpt>
      <trkpt lat="43.5963" lon="3.77113">
        <ele>65</ele>
        <time>2020-09-20T09:45:06.000Z</time>
      </trkpt>
      <trkpt lat="43.59634" lon="3.77116">
        <ele>64.94899968</ele>
        <time>2020-09-20T09:45:07.000Z</time>
      </trkpt>
      <trkpt lat="43.59639" lon="3.77118">
        <ele>64.84899968</ele>
        <time>2020-09-20T09:45:08.000Z</time>
      </trkpt>
      <trkpt lat="43.59643" lon="3.77121">
        <ele>64.74899968</ele>
        <time>2020-09-20T09:45:09.000Z</time>
      </trkpt>
      <trkpt lat="43.59648" lon="3.77123">
        <ele>64.64899968</ele>
        <time>2020-09-20T09:45:10.000Z</time>
      </trkpt>
      <trkpt lat="43.59652" lon="3.77126">
        <ele>64.54899968</ele>
        <time>2020-09-20T09:45:11.000Z</time>
      </trkpt>
      <trkpt lat="43.59656" lon="3.77129">
        <ele>64.44899968</ele>
        <time>2020-09-20T09:45:12.000Z</time>
      </trkpt>
      <trkpt lat="43.59661" lon="3.77131">
        <ele>64.34899968</ele>
        <time>2020-09-20T09:45:13.000Z</time>
      </trkpt>
      <trkpt lat="43.59665" lon="3.77134">
        <ele>64.24899968</ele>
        <time>2020-09-20T09:45:14.000Z</time>
      </trkpt>
      <trkpt lat="43.5967" lon="3.77137">
        <ele>64.14899968</ele>
        <time>2020-09-20T09:45:15.000Z</time>
      </trkpt>
      <trkpt lat="43.59674" lon="3.77139">
        <ele>64.04899968</ele>
        <time>2020-09-20T09:45:16.000Z</time>
      </trkpt>
      <trkpt lat="43.59678" lon="3.77141">
        <ele>64</ele>
        <time>2020-09-20T09:45:17.000Z</time>
      </trkpt>
      <trkpt lat="43.59682" lon="3.77143">
        <ele>64</ele>
        <time>2020-09-20T09:45:18.000Z</time>
      </trkpt>
      <trkpt lat="43.59686" lon="3.77146">
        <ele>64</ele>
        <time>2020-09-20T09:45:19.000Z</time>
      </trkpt>
      <trkpt lat="43.5969" lon="3.77148">
        <ele>64</ele>
        <time>2020-09-20T09:45:20.000Z</time>
      </trkpt>
      <trkpt lat="43.59695" lon="3.77151">
        <ele>64</ele>
        <time>2020-09-20T09:45:21.000Z</time>
      </trkpt>
      <trkpt lat="43.59699" lon="3.77153">
        <ele>64</ele>
        <time>2020-09-20T09:45:22.000Z</time>
      </trkpt>
      <trkpt lat="43.59703" lon="3.77156">
        <ele>64</ele>
        <time>2020-09-20T09:45:23.000Z</time>
      </trkpt>
      <trkpt lat="43.59708" lon="3.77158">
        <ele>64</ele>
        <time>2020-09-20T09:45:24.000Z</time>
      </trkpt>
      <trkpt lat="43.59712" lon="3.77161">
        <ele>64</ele>
        <time>2020-09-20T09:45:25.000Z</time>
      </trkpt>
      <trkpt lat="43.59716" lon="3.77164">
        <ele>64</ele>
        <time>2020-09-20T09:45:26.000Z</time>
      </trkpt>
      <trkpt lat="43.59719" lon="3.77167">
        <ele>64</ele>
        <time>2020-09-20T09:45:27.000Z</time>
      </trkpt>
      <trkpt lat="43.59723" lon="3.77171">
        <ele>64</ele>
        <time>2020-09-20T09:45:28.000Z</time>
      </trkpt>
      <trkpt lat="43.59726" lon="3.77174">
        <ele>64</ele>
        <time>2020-09-20T09:45:29.000Z</time>
      </trkpt>
      <trkpt lat="43.59729" lon="3.77178">
        <ele>64</ele>
        <time>2020-09-20T09:45:30.000Z</time>
      </trkpt>
      <trkpt lat="43.59732" lon="3.77182">
        <ele>64</ele>
        <time>2020-09-20T09:45:31.000Z</time>
      </trkpt>
      <trkpt lat="43.59736" lon="3.77186">
        <ele>64</ele>
        <time>2020-09-20T09:45:32.000Z</time>
      </trkpt>
      <trkpt lat="43.5974" lon="3.77189">
        <ele>64</ele>
        <time>2020-09-20T09:45:33.000Z</time>
      </trkpt>
      <trkpt lat="43.59743" lon="3.77193">
        <ele>64</ele>
        <time>2020-09-20T09:45:34.000Z</time>
      </trkpt>
      <trkpt lat="43.59747" lon="3.77196">
        <ele>64</ele>
        <time>2020-09-20T09:45:35.000Z</time>
      </trkpt>
      <trkpt lat="43.5975" lon="3.77199">
        <ele>64</ele>
        <time>2020-09-20T09:45:36.000Z</time>
      </trkpt>
      <trkpt lat="43.59754" lon="3.77203">
        <ele>64</ele>
        <time>2020-09-20T09:45:37.000Z</time>
      </trkpt>
      <trkpt lat="43.59758" lon="3.77207">
        <ele>64</ele>
        <time>2020-09-20T09:45:38.000Z</time>
      </trkpt>
      <trkpt lat="43.59761" lon="3.7721">
        <ele>64</ele>
        <time>2020-09-20T09:45:39.000Z</time>
      </trkpt>
      <trkpt lat="43.59765" lon="3.77214">
        <ele>64</ele>
        <time>2020-09-20T09:45:40.000Z</time>
      </trkpt>
      <trkpt lat="43.59769" lon="3.77218">
        <ele>64</ele>
        <time>2020-09-20T09:45:41.000Z</time>
      </trkpt>
      <trkpt lat="43.59772" lon="3.77222">
        <ele>64</ele>
        <time>2020-09-20T09:45:42.000Z</time>
      </trkpt>
      <trkpt lat="43.59775" lon="3.77226">
        <ele>64</ele>
        <time>2020-09-20T09:45:43.000Z</time>
      </trkpt>
      <trkpt lat="43.59779" lon="3.77229">
        <ele>64</ele>
        <time>2020-09-20T09:45:44.000Z</time>
      </trkpt>
      <trkpt lat="43.59782" lon="3.77233">
        <ele>64</ele>
        <time>2020-09-20T09:45:45.000Z</time>
      </trkpt>
      <trkpt lat="43.59786" lon="3.77236">
        <ele>64</ele>
        <time>2020-09-20T09:45:46.000Z</time>
      </trkpt>
      <trkpt lat="43.59789" lon="3.77239">
        <ele>64.049562946958</ele>
        <time>2020-09-20T09:45:47.000Z</time>
      </trkpt>
      <trkpt lat="43.59793" lon="3.77242">
        <ele>64.146744586127</ele>
        <time>2020-09-20T09:45:48.000Z</time>
      </trkpt>
      <trkpt lat="43.59796" lon="3.77245">
        <ele>64.243926225297</ele>
        <time>2020-09-20T09:45:49.000Z</time>
      </trkpt>
      <trkpt lat="43.598" lon="3.77248">
        <ele>64.341107864467</ele>
        <time>2020-09-20T09:45:50.000Z</time>
      </trkpt>
      <trkpt lat="43.59803" lon="3.77251">
        <ele>64.438289503637</ele>
        <time>2020-09-20T09:45:51.000Z</time>
      </trkpt>
      <trkpt lat="43.59807" lon="3.77254">
        <ele>64.535471142806</ele>
        <time>2020-09-20T09:45:52.000Z</time>
      </trkpt>
      <trkpt lat="43.5981" lon="3.77256">
        <ele>64.632652781976</ele>
        <time>2020-09-20T09:45:53.000Z</time>
      </trkpt>
      <trkpt lat="43.59813" lon="3.77259">
        <ele>64.729834421146</ele>
        <time>2020-09-20T09:45:54.000Z</time>
      </trkpt>
      <trkpt lat="43.59816" lon="3.77262">
        <ele>64.827016060315</ele>
        <time>2020-09-20T09:45:55.000Z</time>
      </trkpt>
      <trkpt lat="43.59819" lon="3.77264">
        <ele>64.924197699485</ele>
        <time>2020-09-20T09:45:56.000Z</time>
      </trkpt>
      <trkpt lat="43.59823" lon="3.77267">
        <ele>65</ele>
        <time>2020-09-20T09:45:57.000Z</time>
      </trkpt>
      <trkpt lat="43.59826" lon="3.77269">
        <ele>65</ele>
        <time>2020-09-20T09:45:58.000Z</time>
      </trkpt>
      <trkpt lat="43.59829" lon="3.77272">
        <ele>65</ele>
        <time>2020-09-20T09:45:59.000Z</time>
      </trkpt>
      <trkpt lat="43.59832" lon="3.77274">
        <ele>65</ele>
        <time>2020-09-20T09:46:00.000Z</time>
      </trkpt>
      <trkpt lat="43.59835" lon="3.77277">
        <ele>65</ele>
        <time>2020-09-20T09:46:01.000Z</time>
      </trkpt>
      <trkpt lat="43.59838" lon="3.77279">
        <ele>65</ele>
        <time>2020-09-20T09:46:02.000Z</time>
      </trkpt>
      <trkpt lat="43.59841" lon="3.77281">
        <ele>65</ele>
        <time>2020-09-20T09:46:03.000Z</time>
      </trkpt>
      <trkpt lat="43.59844" lon="3.77283">
        <ele>65</ele>
        <time>2020-09-20T09:46:04.000Z</time>
      </trkpt>
      <trkpt lat="43.59847" lon="3.77285">
        <ele>65</ele>
        <time>2020-09-20T09:46:05.000Z</time>
      </trkpt>
      <trkpt lat="43.5985" lon="3.77287">
        <ele>65</ele>
        <time>2020-09-20T09:46:06.000Z</time>
      </trkpt>
      <trkpt lat="43.59853" lon="3.77289">
        <ele>65.05100032</ele>
        <time>2020-09-20T09:46:07.000Z</time>
      </trkpt>
      <trkpt lat="43.59855" lon="3.77292">
        <ele>65.15100032</ele>
        <time>2020-09-20T09:46:08.000Z</time>
      </trkpt>
      <trkpt lat="43.59857" lon="3.77295">
        <ele>65.25100032</ele>
        <time>2020-09-20T09:46:09.000Z</time>
      </trkpt>
      <trkpt lat="43.5986" lon="3.77298">
        <ele>65.35100032</ele>
        <time>2020-09-20T09:46:10.000Z</time>
      </trkpt>
      <trkpt lat="43.59862" lon="3.77301">
        <ele>65.45100032</ele>
        <time>2020-09-20T09:46:11.000Z</time>
      </trkpt>
      <trkpt lat="43.59864" lon="3.77304">
        <ele>65.55100032</ele>
        <time>2020-09-20T09:46:12.000Z</time>
      </trkpt>
      <trkpt lat="43.59866" lon="3.77308">
        <ele>65.65100032</ele>
        <time>2020-09-20T09:46:13.000Z</time>
      </trkpt>
      <trkpt lat="43.59868" lon="3.77311">
        <ele>65.75100032</ele>
        <time>2020-09-20T09:46:14.000Z</time>
      </trkpt>
      <trkpt lat="43.5987" lon="3.77314">
        <ele>65.85100032</ele>
        <time>2020-09-20T09:46:15.000Z</time>
      </trkpt>
      <trkpt lat="43.59872" lon="3.77317">
        <ele>65.95100032</ele>
        <time>2020-09-20T09:46:16.000Z</time>
      </trkpt>
      <trkpt lat="43.59874" lon="3.7732">
        <ele>66</ele>
        <time>2020-09-20T09:46:17.000Z</time>
      </trkpt>
      <trkpt lat="43.59876" lon="3.77322">
        <ele>66</ele>
        <time>2020-09-20T09:46:18.000Z</time>
      </trkpt>
      <trkpt lat="43.59878" lon="3.77325">
        <ele>66</ele>
        <time>2020-09-20T09:46:19.000Z</time>
      </trkpt>
      <trkpt lat="43.5988" lon="3.77328">
        <ele>66</ele>
        <time>2020-09-20T09:46:20.000Z</time>
      </trkpt>
      <trkpt lat="43.59882" lon="3.7733">
        <ele>66</ele>
        <time>2020-09-20T09:46:21.000Z</time>
      </trkpt>
      <trkpt lat="43.59884" lon="3.77333">
        <ele>66</ele>
        <time>2020-09-20T09:46:22.000Z</time>
      </trkpt>
      <trkpt lat="43.59886" lon="3.77335">
        <ele>66</ele>
        <time>2020-09-20T09:46:23.000Z</time>
      </trkpt>
      <trkpt lat="43.59888" lon="3.77338">
        <ele>66</ele>
        <time>2020-09-20T09:46:24.000Z</time>
      </trkpt>
      <trkpt lat="43.5989" lon="3.7734">
        <ele>66</ele>
        <time>2020-09-20T09:46:25.000Z</time>
      </trkpt>
      <trkpt lat="43.59892" lon="3.77343">
        <ele>66</ele>
        <time>2020-09-20T09:46:26.000Z</time>
      </trkpt>
      <trkpt lat="43.59894" lon="3.77346">
        <ele>65.94899968</ele>
        <time>2020-09-20T09:46:27.000Z</time>
      </trkpt>
      <trkpt lat="43.59896" lon="3.77348">
        <ele>65.84899968</ele>
        <time>2020-09-20T09:46:28.000Z</time>
      </trkpt>
      <trkpt lat="43.59898" lon="3.77351">
        <ele>65.74899968</ele>
        <time>2020-09-20T09:46:29.000Z</time>
      </trkpt>
      <trkpt lat="43.599" lon="3.77354">
        <ele>65.64899968</ele>
        <time>2020-09-20T09:46:30.000Z</time>
      </trkpt>
      <trkpt lat="43.59902" lon="3.77357">
        <ele>65.54899968</ele>
        <time>2020-09-20T09:46:31.000Z</time>
      </trkpt>
      <trkpt lat="43.59904" lon="3.7736">
        <ele>65.44899968</ele>
        <time>2020-09-20T09:46:32.000Z</time>
      </trkpt>
      <trkpt lat="43.59906" lon="3.77363">
        <ele>65.34899968</ele>
        <time>2020-09-20T09:46:33.000Z</time>
      </trkpt>
      <trkpt lat="43.59909" lon="3.77366">
        <ele>65.24899968</ele>
        <time>2020-09-20T09:46:34.000Z</time>
      </trkpt>
      <trkpt lat="43.59911" lon="3.77369">
        <ele>65.14899968</ele>
        <time>2020-09-20T09:46:35.000Z</time>
      </trkpt>
      <trkpt lat="43.59913" lon="3.77372">
        <ele>65.04899968</ele>
        <time>2020-09-20T09:46:36.000Z</time>
      </trkpt>
      <trkpt lat="43.59915" lon="3.77375">
        <ele>65</ele>
        <time>2020-09-20T09:46:37.000Z</time>
      </trkpt>
      <trkpt lat="43.59918" lon="3.77379">
        <ele>65</ele>
        <time>2020-09-20T09:46:38.000Z</time>
      </trkpt>
      <trkpt lat="43.5992" lon="3.77382">
        <ele>65</ele>
        <time>2020-09-20T09:46:39.000Z</time>
      </trkpt>
      <trkpt lat="43.59922" lon="3.77385">
        <ele>65</ele>
        <time>2020-09-20T09:46:40.000Z</time>
      </trkpt>
      <trkpt lat="43.59924" lon="3.77388">
        <ele>65</ele>
        <time>2020-09-20T09:46:41.000Z</time>
      </trkpt>
      <trkpt lat="43.59927" lon="3.77391">
        <ele>65</ele>
        <time>2020-09-20T09:46:42.000Z</time>
      </trkpt>
      <trkpt lat="43.59929" lon="3.77394">
        <ele>65</ele>
        <time>2020-09-20T09:46:43.000Z</time>
      </trkpt>
      <trkpt lat="43.59931" lon="3.77396">
        <ele>65</ele>
        <time>2020-09-20T09:46:44.000Z</time>
      </trkpt>
      <trkpt lat="43.59933" lon="3.77399">
        <ele>65</ele>
        <time>2020-09-20T09:46:45.000Z</time>
      </trkpt>
      <trkpt lat="43.59935" lon="3.77401">
        <ele>65</ele>
        <time>2020-09-20T09:46:46.000Z</time>
      </trkpt>
      <trkpt lat="43.59938" lon="3.77404">
        <ele>65.050050674658</ele>
        <time>2020-09-20T09:46:47.000Z</time>
      </trkpt>
      <trkpt lat="43.5994" lon="3.77406">
        <ele>65.150150742694</ele>
        <time>2020-09-20T09:46:48.000Z</time>
      </trkpt>
      <trkpt lat="43.59942" lon="3.77409">
        <ele>65.250250810731</ele>
        <time>2020-09-20T09:46:49.000Z</time>
      </trkpt>
      <trkpt lat="43.59944" lon="3.77411">
        <ele>65.350350878767</ele>
        <time>2020-09-20T09:46:50.000Z</time>
      </trkpt>
      <trkpt lat="43.59946" lon="3.77413">
        <ele>65.450450946803</ele>
        <time>2020-09-20T09:46:51.000Z</time>
      </trkpt>
      <trkpt lat="43.59948" lon="3.77415">
        <ele>65.550551014839</ele>
        <time>2020-09-20T09:46:52.000Z</time>
      </trkpt>
      <trkpt lat="43.59951" lon="3.77417">
        <ele>65.650651082875</ele>
        <time>2020-09-20T09:46:53.000Z</time>
      </trkpt>
      <trkpt lat="43.59953" lon="3.77419">
        <ele>65.750751150911</ele>
        <time>2020-09-20T09:46:54.000Z</time>
      </trkpt>
      <trkpt lat="43.59956" lon="3.77422">
        <ele>65.850851218947</ele>
        <time>2020-09-20T09:46:55.000Z</time>
      </trkpt>
      <trkpt lat="43.59958" lon="3.77424">
        <ele>65.950951286983</ele>
        <time>2020-09-20T09:46:56.000Z</time>
      </trkpt>
      <trkpt lat="43.5996" lon="3.77426">
        <ele>66.05100032</ele>
        <time>2020-09-20T09:46:57.000Z</time>
      </trkpt>
      <trkpt lat="43.59963" lon="3.77428">
        <ele>66.15100032</ele>
        <time>2020-09-20T09:46:58.000Z</time>
      </trkpt>
      <trkpt lat="43.59966" lon="3.77429">
        <ele>66.25100032</ele>
        <time>2020-09-20T09:46:59.000Z</time>
      </trkpt>
      <trkpt lat="43.59968" lon="3.77431">
        <ele>66.35100032</ele>
        <time>2020-09-20T09:47:00.000Z</time>
      </trkpt>
      <trkpt lat="43.59971" lon="3.77433">
        <ele>66.45100032</ele>
        <time>2020-09-20T09:47:01.000Z</time>
      </trkpt>
      <trkpt lat="43.59975" lon="3.77435">
        <ele>66.55100032</ele>
        <time>2020-09-20T09:47:02.000Z</time>
      </trkpt>
      <trkpt lat="43.59978" lon="3.77438">
        <ele>66.65100032</ele>
        <time>2020-09-20T09:47:03.000Z</time>
      </trkpt>
      <trkpt lat="43.59982" lon="3.77442">
        <ele>66.75100032</ele>
        <time>2020-09-20T09:47:04.000Z</time>
      </trkpt>
      <trkpt lat="43.59986" lon="3.77445">
        <ele>66.85100032</ele>
        <time>2020-09-20T09:47:05.000Z</time>
      </trkpt>
      <trkpt lat="43.5999" lon="3.77448">
        <ele>66.95100032</ele>
        <time>2020-09-20T09:47:06.000Z</time>
      </trkpt>
      <trkpt lat="43.59993" lon="3.77452">
        <ele>66.89799936</ele>
        <time>2020-09-20T09:47:07.000Z</time>
      </trkpt>
      <trkpt lat="43.59997" lon="3.77457">
        <ele>66.69799936</ele>
        <time>2020-09-20T09:47:08.000Z</time>
      </trkpt>
      <trkpt lat="43.60001" lon="3.77461">
        <ele>66.49799936</ele>
        <time>2020-09-20T09:47:09.000Z</time>
      </trkpt>
      <trkpt lat="43.60005" lon="3.77465">
        <ele>66.29799936</ele>
        <time>2020-09-20T09:47:10.000Z</time>
      </trkpt>
      <trkpt lat="43.6001" lon="3.7747">
        <ele>66.09799936</ele>
        <time>2020-09-20T09:47:11.000Z</time>
      </trkpt>
      <trkpt lat="43.60014" lon="3.77474">
        <ele>65.89799936</ele>
        <time>2020-09-20T09:47:12.000Z</time>
      </trkpt>
      <trkpt lat="43.60019" lon="3.77478">
        <ele>65.69799936</ele>
        <time>2020-09-20T09:47:13.000Z</time>
      </trkpt>
      <trkpt lat="43.60024" lon="3.77483">
        <ele>65.49799936</ele>
        <time>2020-09-20T09:47:14.000Z</time>
      </trkpt>
      <trkpt lat="43.60029" lon="3.77487">
        <ele>65.29799936</ele>
        <time>2020-09-20T09:47:15.000Z</time>
      </trkpt>
      <trkpt lat="43.60034" lon="3.7749">
        <ele>65.09799936</ele>
        <time>2020-09-20T09:47:16.000Z</time>
      </trkpt>
      <trkpt lat="43.60038" lon="3.77494">
        <ele>64.89799936</ele>
        <time>2020-09-20T09:47:17.000Z</time>
      </trkpt>
      <trkpt lat="43.60043" lon="3.77497">
        <ele>64.69799936</ele>
        <time>2020-09-20T09:47:18.000Z</time>
      </trkpt>
      <trkpt lat="43.60048" lon="3.775">
        <ele>64.49799936</ele>
        <time>2020-09-20T09:47:19.000Z</time>
      </trkpt>
      <trkpt lat="43.60052" lon="3.77503">
        <ele>64.29799936</ele>
        <time>2020-09-20T09:47:20.000Z</time>
      </trkpt>
      <trkpt lat="43.60057" lon="3.77505">
        <ele>64.09799936</ele>
        <time>2020-09-20T09:47:21.000Z</time>
      </trkpt>
      <trkpt lat="43.60062" lon="3.77509">
        <ele>63.89799936</ele>
        <time>2020-09-20T09:47:22.000Z</time>
      </trkpt>
      <trkpt lat="43.60065" lon="3.77513">
        <ele>63.69799936</ele>
        <time>2020-09-20T09:47:23.000Z</time>
      </trkpt>
      <trkpt lat="43.60068" lon="3.77517">
        <ele>63.49799936</ele>
        <time>2020-09-20T09:47:24.000Z</time>
      </trkpt>
      <trkpt lat="43.60071" lon="3.77522">
        <ele>63.29799936</ele>
        <time>2020-09-20T09:47:25.000Z</time>
      </trkpt>
      <trkpt lat="43.60074" lon="3.77527">
        <ele>63.09799936</ele>
        <time>2020-09-20T09:47:26.000Z</time>
      </trkpt>
      <trkpt lat="43.60076" lon="3.77532">
        <ele>62.847304528668</ele>
        <time>2020-09-20T09:47:27.000Z</time>
      </trkpt>
      <trkpt lat="43.60078" lon="3.77537">
        <ele>62.547903522297</ele>
        <time>2020-09-20T09:47:28.000Z</time>
      </trkpt>
      <trkpt lat="43.6008" lon="3.77544">
        <ele>62.248502515927</ele>
        <time>2020-09-20T09:47:29.000Z</time>
      </trkpt>
      <trkpt lat="43.60083" lon="3.77551">
        <ele>61.949101509556</ele>
        <time>2020-09-20T09:47:30.000Z</time>
      </trkpt>
      <trkpt lat="43.60086" lon="3.77559">
        <ele>61.649700503185</ele>
        <time>2020-09-20T09:47:31.000Z</time>
      </trkpt>
      <trkpt lat="43.60091" lon="3.77567">
        <ele>61.350299496815</ele>
        <time>2020-09-20T09:47:32.000Z</time>
      </trkpt>
      <trkpt lat="43.60096" lon="3.77574">
        <ele>61.050898490444</ele>
        <time>2020-09-20T09:47:33.000Z</time>
      </trkpt>
      <trkpt lat="43.60101" lon="3.77581">
        <ele>60.751497484073</ele>
        <time>2020-09-20T09:47:34.000Z</time>
      </trkpt>
      <trkpt lat="43.60107" lon="3.77588">
        <ele>60.452096477703</ele>
        <time>2020-09-20T09:47:35.000Z</time>
      </trkpt>
      <trkpt lat="43.60113" lon="3.77595">
        <ele>60.152695471332</ele>
        <time>2020-09-20T09:47:36.000Z</time>
      </trkpt>
      <trkpt lat="43.60119" lon="3.77602">
        <ele>59.809524994216</ele>
        <time>2020-09-20T09:47:37.000Z</time>
      </trkpt>
      <trkpt lat="43.60125" lon="3.77609">
        <ele>59.42079795399</ele>
        <time>2020-09-20T09:47:38.000Z</time>
      </trkpt>
      <trkpt lat="43.60131" lon="3.77616">
        <ele>59.032070913763</ele>
        <time>2020-09-20T09:47:39.000Z</time>
      </trkpt>
      <trkpt lat="43.60137" lon="3.77622">
        <ele>58.643343873538</ele>
        <time>2020-09-20T09:47:40.000Z</time>
      </trkpt>
      <trkpt lat="43.60143" lon="3.77629">
        <ele>58.254616833311</ele>
        <time>2020-09-20T09:47:41.000Z</time>
      </trkpt>
      <trkpt lat="43.6015" lon="3.77635">
        <ele>57.865889793085</ele>
        <time>2020-09-20T09:47:42.000Z</time>
      </trkpt>
      <trkpt lat="43.60156" lon="3.77641">
        <ele>57.477162752859</ele>
        <time>2020-09-20T09:47:43.000Z</time>
      </trkpt>
      <trkpt lat="43.60163" lon="3.77646">
        <ele>57.088435712633</ele>
        <time>2020-09-20T09:47:44.000Z</time>
      </trkpt>
      <trkpt lat="43.60171" lon="3.77651">
        <ele>56.699708672407</ele>
        <time>2020-09-20T09:47:45.000Z</time>
      </trkpt>
      <trkpt lat="43.60178" lon="3.77655">
        <ele>56.310981632181</ele>
        <time>2020-09-20T09:47:46.000Z</time>
      </trkpt>
      <trkpt lat="43.60185" lon="3.77659">
        <ele>55.979360158303</ele>
        <time>2020-09-20T09:47:47.000Z</time>
      </trkpt>
      <trkpt lat="43.60192" lon="3.77663">
        <ele>55.876160949816</ele>
        <time>2020-09-20T09:47:48.000Z</time>
      </trkpt>
      <trkpt lat="43.60198" lon="3.77667">
        <ele>55.772961741329</ele>
        <time>2020-09-20T09:47:49.000Z</time>
      </trkpt>
      <trkpt lat="43.60205" lon="3.77672">
        <ele>55.669762532842</ele>
        <time>2020-09-20T09:47:50.000Z</time>
      </trkpt>
      <trkpt lat="43.60212" lon="3.77676">
        <ele>55.566563324355</ele>
        <time>2020-09-20T09:47:51.000Z</time>
      </trkpt>
      <trkpt lat="43.60219" lon="3.7768">
        <ele>55.463364115868</ele>
        <time>2020-09-20T09:47:52.000Z</time>
      </trkpt>
      <trkpt lat="43.60226" lon="3.77685">
        <ele>55.360164907382</ele>
        <time>2020-09-20T09:47:53.000Z</time>
      </trkpt>
      <trkpt lat="43.60233" lon="3.77689">
        <ele>55.256965698895</ele>
        <time>2020-09-20T09:47:54.000Z</time>
      </trkpt>
      <trkpt lat="43.6024" lon="3.77693">
        <ele>55.153766490408</ele>
        <time>2020-09-20T09:47:55.000Z</time>
      </trkpt>
      <trkpt lat="43.60247" lon="3.77697">
        <ele>55.050567281921</ele>
        <time>2020-09-20T09:47:56.000Z</time>
      </trkpt>
      <trkpt lat="43.60254" lon="3.777">
        <ele>54.951977128752</ele>
        <time>2020-09-20T09:47:57.000Z</time>
      </trkpt>
      <trkpt lat="43.60262" lon="3.77704">
        <ele>54.857815226929</ele>
        <time>2020-09-20T09:47:58.000Z</time>
      </trkpt>
      <trkpt lat="43.60269" lon="3.77708">
        <ele>54.763653325105</ele>
        <time>2020-09-20T09:47:59.000Z</time>
      </trkpt>
      <trkpt lat="43.60277" lon="3.77711">
        <ele>54.669491423282</ele>
        <time>2020-09-20T09:48:00.000Z</time>
      </trkpt>
      <trkpt lat="43.60284" lon="3.77715">
        <ele>54.575329521459</ele>
        <time>2020-09-20T09:48:01.000Z</time>
      </trkpt>
      <trkpt lat="43.60292" lon="3.77718">
        <ele>54.481167619635</ele>
        <time>2020-09-20T09:48:02.000Z</time>
      </trkpt>
      <trkpt lat="43.603" lon="3.77721">
        <ele>54.387005717812</ele>
        <time>2020-09-20T09:48:03.000Z</time>
      </trkpt>
      <trkpt lat="43.60307" lon="3.77725">
        <ele>54.292843815989</ele>
        <time>2020-09-20T09:48:04.000Z</time>
      </trkpt>
      <trkpt lat="43.60315" lon="3.77728">
        <ele>54.198681914165</ele>
        <time>2020-09-20T09:48:05.000Z</time>
      </trkpt>
      <trkpt lat="43.60323" lon="3.77732">
        <ele>54.104520012342</ele>
        <time>2020-09-20T09:48:06.000Z</time>
      </trkpt>
      <trkpt lat="43.6033" lon="3.77736">
        <ele>54.010358110519</ele>
        <time>2020-09-20T09:48:07.000Z</time>
      </trkpt>
      <trkpt lat="43.60338" lon="3.7774">
        <ele>53.905117547202</ele>
        <time>2020-09-20T09:48:08.000Z</time>
      </trkpt>
      <trkpt lat="43.60346" lon="3.77744">
        <ele>53.798507666359</ele>
        <time>2020-09-20T09:48:09.000Z</time>
      </trkpt>
      <trkpt lat="43.60354" lon="3.77748">
        <ele>53.691897785517</ele>
        <time>2020-09-20T09:48:10.000Z</time>
      </trkpt>
      <trkpt lat="43.60362" lon="3.77749">
        <ele>53.585287904674</ele>
        <time>2020-09-20T09:48:11.000Z</time>
      </trkpt>
      <trkpt lat="43.6037" lon="3.7775">
        <ele>53.478678023831</ele>
        <time>2020-09-20T09:48:12.000Z</time>
      </trkpt>
      <trkpt lat="43.60377" lon="3.77752">
        <ele>53.372068142989</ele>
        <time>2020-09-20T09:48:13.000Z</time>
      </trkpt>
      <trkpt lat="43.60383" lon="3.77755">
        <ele>53.265458262146</ele>
        <time>2020-09-20T09:48:14.000Z</time>
      </trkpt>
      <trkpt lat="43.60388" lon="3.7776">
        <ele>53.158848381304</ele>
        <time>2020-09-20T09:48:15.000Z</time>
      </trkpt>
      <trkpt lat="43.60392" lon="3.77766">
        <ele>53.052238500461</ele>
        <time>2020-09-20T09:48:16.000Z</time>
      </trkpt>
      <trkpt lat="43.60396" lon="3.77771">
        <ele>53.15300096</ele>
        <time>2020-09-20T09:48:17.000Z</time>
      </trkpt>
      <trkpt lat="43.60401" lon="3.77777">
        <ele>53.45300096</ele>
        <time>2020-09-20T09:48:18.000Z</time>
      </trkpt>
      <trkpt lat="43.60405" lon="3.77782">
        <ele>53.75300096</ele>
        <time>2020-09-20T09:48:19.000Z</time>
      </trkpt>
      <trkpt lat="43.60409" lon="3.77788">
        <ele>54.05300096</ele>
        <time>2020-09-20T09:48:20.000Z</time>
      </trkpt>
      <trkpt lat="43.60414" lon="3.77793">
        <ele>54.35300096</ele>
        <time>2020-09-20T09:48:21.000Z</time>
      </trkpt>
      <trkpt lat="43.60418" lon="3.77799">
        <ele>54.65300096</ele>
        <time>2020-09-20T09:48:22.000Z</time>
      </trkpt>
      <trkpt lat="43.60422" lon="3.77804">
        <ele>54.95300096</ele>
        <time>2020-09-20T09:48:23.000Z</time>
      </trkpt>
      <trkpt lat="43.60426" lon="3.77809">
        <ele>55.25300096</ele>
        <time>2020-09-20T09:48:24.000Z</time>
      </trkpt>
      <trkpt lat="43.6043" lon="3.77815">
        <ele>55.55300096</ele>
        <time>2020-09-20T09:48:25.000Z</time>
      </trkpt>
      <trkpt lat="43.60434" lon="3.7782">
        <ele>55.85300096</ele>
        <time>2020-09-20T09:48:26.000Z</time>
      </trkpt>
      <trkpt lat="43.60437" lon="3.77825">
        <ele>56.10200064</ele>
        <time>2020-09-20T09:48:27.000Z</time>
      </trkpt>
      <trkpt lat="43.6044" lon="3.77831">
        <ele>56.30200064</ele>
        <time>2020-09-20T09:48:28.000Z</time>
      </trkpt>
      <trkpt lat="43.60444" lon="3.77835">
        <ele>56.50200064</ele>
        <time>2020-09-20T09:48:29.000Z</time>
      </trkpt>
      <trkpt lat="43.60446" lon="3.7784">
        <ele>56.70200064</ele>
        <time>2020-09-20T09:48:30.000Z</time>
      </trkpt>
      <trkpt lat="43.60449" lon="3.77844">
        <ele>56.90200064</ele>
        <time>2020-09-20T09:48:31.000Z</time>
      </trkpt>
      <trkpt lat="43.60451" lon="3.77849">
        <ele>57.10200064</ele>
        <time>2020-09-20T09:48:32.000Z</time>
      </trkpt>
      <trkpt lat="43.60453" lon="3.77853">
        <ele>57.30200064</ele>
        <time>2020-09-20T09:48:33.000Z</time>
      </trkpt>
      <trkpt lat="43.60456" lon="3.77857">
        <ele>57.50200064</ele>
        <time>2020-09-20T09:48:34.000Z</time>
      </trkpt>
      <trkpt lat="43.60459" lon="3.77861">
        <ele>57.70200064</ele>
        <time>2020-09-20T09:48:35.000Z</time>
      </trkpt>
      <trkpt lat="43.60462" lon="3.77866">
        <ele>57.90200064</ele>
        <time>2020-09-20T09:48:36.000Z</time>
      </trkpt>
      <trkpt lat="43.60464" lon="3.7787">
        <ele>58.05100032</ele>
        <time>2020-09-20T09:48:37.000Z</time>
      </trkpt>
      <trkpt lat="43.60467" lon="3.77875">
        <ele>58.15100032</ele>
        <time>2020-09-20T09:48:38.000Z</time>
      </trkpt>
      <trkpt lat="43.6047" lon="3.77879">
        <ele>58.25100032</ele>
        <time>2020-09-20T09:48:39.000Z</time>
      </trkpt>
      <trkpt lat="43.60473" lon="3.77884">
        <ele>58.35100032</ele>
        <time>2020-09-20T09:48:40.000Z</time>
      </trkpt>
      <trkpt lat="43.60475" lon="3.77888">
        <ele>58.45100032</ele>
        <time>2020-09-20T09:48:41.000Z</time>
      </trkpt>
      <trkpt lat="43.60477" lon="3.77891">
        <ele>58.55100032</ele>
        <time>2020-09-20T09:48:42.000Z</time>
      </trkpt>
      <trkpt lat="43.60479" lon="3.77894">
        <ele>58.65100032</ele>
        <time>2020-09-20T09:48:43.000Z</time>
      </trkpt>
      <trkpt lat="43.60481" lon="3.77897">
        <ele>58.75100032</ele>
        <time>2020-09-20T09:48:44.000Z</time>
      </trkpt>
      <trkpt lat="43.60483" lon="3.77901">
        <ele>58.85100032</ele>
        <time>2020-09-20T09:48:45.000Z</time>
      </trkpt>
      <trkpt lat="43.60485" lon="3.77904">
        <ele>58.95100032</ele>
        <time>2020-09-20T09:48:46.000Z</time>
      </trkpt>
      <trkpt lat="43.60487" lon="3.77908">
        <ele>59</ele>
        <time>2020-09-20T09:48:47.000Z</time>
      </trkpt>
      <trkpt lat="43.60489" lon="3.77912">
        <ele>59</ele>
        <time>2020-09-20T09:48:48.000Z</time>
      </trkpt>
      <trkpt lat="43.60491" lon="3.77916">
        <ele>59</ele>
        <time>2020-09-20T09:48:49.000Z</time>
      </trkpt>
      <trkpt lat="43.60493" lon="3.7792">
        <ele>59</ele>
        <time>2020-09-20T09:48:50.000Z</time>
      </trkpt>
      <trkpt lat="43.60496" lon="3.77923">
        <ele>59</ele>
        <time>2020-09-20T09:48:51.000Z</time>
      </trkpt>
      <trkpt lat="43.60498" lon="3.77926">
        <ele>59</ele>
        <time>2020-09-20T09:48:52.000Z</time>
      </trkpt>
      <trkpt lat="43.60501" lon="3.77929">
        <ele>59</ele>
        <time>2020-09-20T09:48:53.000Z</time>
      </trkpt>
      <trkpt lat="43.60504" lon="3.77933">
        <ele>59</ele>
        <time>2020-09-20T09:48:54.000Z</time>
      </trkpt>
      <trkpt lat="43.60507" lon="3.77936">
        <ele>59</ele>
        <time>2020-09-20T09:48:55.000Z</time>
      </trkpt>
      <trkpt lat="43.6051" lon="3.7794">
        <ele>59</ele>
        <time>2020-09-20T09:48:56.000Z</time>
      </trkpt>
      <trkpt lat="43.60512" lon="3.77943">
        <ele>59</ele>
        <time>2020-09-20T09:48:57.000Z</time>
      </trkpt>
      <trkpt lat="43.60515" lon="3.77947">
        <ele>59</ele>
        <time>2020-09-20T09:48:58.000Z</time>
      </trkpt>
      <trkpt lat="43.60518" lon="3.7795">
        <ele>59</ele>
        <time>2020-09-20T09:48:59.000Z</time>
      </trkpt>
      <trkpt lat="43.60521" lon="3.77954">
        <ele>59</ele>
        <time>2020-09-20T09:49:00.000Z</time>
      </trkpt>
      <trkpt lat="43.60524" lon="3.77957">
        <ele>59</ele>
        <time>2020-09-20T09:49:01.000Z</time>
      </trkpt>
      <trkpt lat="43.60527" lon="3.77961">
        <ele>59</ele>
        <time>2020-09-20T09:49:02.000Z</time>
      </trkpt>
      <trkpt lat="43.6053" lon="3.77964">
        <ele>59</ele>
        <time>2020-09-20T09:49:03.000Z</time>
      </trkpt>
      <trkpt lat="43.60533" lon="3.77968">
        <ele>59</ele>
        <time>2020-09-20T09:49:04.000Z</time>
      </trkpt>
      <trkpt lat="43.60536" lon="3.77971">
        <ele>59</ele>
        <time>2020-09-20T09:49:05.000Z</time>
      </trkpt>
      <trkpt lat="43.60539" lon="3.77975">
        <ele>59</ele>
        <time>2020-09-20T09:49:06.000Z</time>
      </trkpt>
      <trkpt lat="43.60541" lon="3.77978">
        <ele>59</ele>
        <time>2020-09-20T09:49:07.000Z</time>
      </trkpt>
      <trkpt lat="43.60544" lon="3.77981">
        <ele>59</ele>
        <time>2020-09-20T09:49:08.000Z</time>
      </trkpt>
      <trkpt lat="43.60547" lon="3.77983">
        <ele>59</ele>
        <time>2020-09-20T09:49:09.000Z</time>
      </trkpt>
      <trkpt lat="43.6055" lon="3.77986">
        <ele>59</ele>
        <time>2020-09-20T09:49:10.000Z</time>
      </trkpt>
      <trkpt lat="43.60552" lon="3.77989">
        <ele>59</ele>
        <time>2020-09-20T09:49:11.000Z</time>
      </trkpt>
      <trkpt lat="43.60555" lon="3.77992">
        <ele>59</ele>
        <time>2020-09-20T09:49:12.000Z</time>
      </trkpt>
      <trkpt lat="43.60557" lon="3.77994">
        <ele>59</ele>
        <time>2020-09-20T09:49:13.000Z</time>
      </trkpt>
      <trkpt lat="43.6056" lon="3.77997">
        <ele>59</ele>
        <time>2020-09-20T09:49:14.000Z</time>
      </trkpt>
      <trkpt lat="43.60562" lon="3.78">
        <ele>59</ele>
        <time>2020-09-20T09:49:15.000Z</time>
      </trkpt>
      <trkpt lat="43.60564" lon="3.78002">
        <ele>59</ele>
        <time>2020-09-20T09:49:16.000Z</time>
      </trkpt>
      <trkpt lat="43.60566" lon="3.78005">
        <ele>59</ele>
        <time>2020-09-20T09:49:17.000Z</time>
      </trkpt>
      <trkpt lat="43.60567" lon="3.78009">
        <ele>59</ele>
        <time>2020-09-20T09:49:18.000Z</time>
      </trkpt>
      <trkpt lat="43.60567" lon="3.78013">
        <ele>59</ele>
        <time>2020-09-20T09:49:19.000Z</time>
      </trkpt>
      <trkpt lat="43.60566" lon="3.78017">
        <ele>59</ele>
        <time>2020-09-20T09:49:20.000Z</time>
      </trkpt>
      <trkpt lat="43.60563" lon="3.78021">
        <ele>59</ele>
        <time>2020-09-20T09:49:21.000Z</time>
      </trkpt>
      <trkpt lat="43.60563" lon="3.78026">
        <ele>59</ele>
        <time>2020-09-20T09:49:22.000Z</time>
      </trkpt>
      <trkpt lat="43.60562" lon="3.78031">
        <ele>59</ele>
        <time>2020-09-20T09:49:23.000Z</time>
      </trkpt>
      <trkpt lat="43.60561" lon="3.78036">
        <ele>59</ele>
        <time>2020-09-20T09:49:24.000Z</time>
      </trkpt>
      <trkpt lat="43.6056" lon="3.78041">
        <ele>59</ele>
        <time>2020-09-20T09:49:25.000Z</time>
      </trkpt>
      <trkpt lat="43.6056" lon="3.78046">
        <ele>59</ele>
        <time>2020-09-20T09:49:26.000Z</time>
      </trkpt>
      <trkpt lat="43.6056" lon="3.78051">
        <ele>58.94899968</ele>
        <time>2020-09-20T09:49:27.000Z</time>
      </trkpt>
      <trkpt lat="43.60561" lon="3.78056">
        <ele>58.84899968</ele>
        <time>2020-09-20T09:49:28.000Z</time>
      </trkpt>
      <trkpt lat="43.60563" lon="3.78061">
        <ele>58.74899968</ele>
        <time>2020-09-20T09:49:29.000Z</time>
      </trkpt>
      <trkpt lat="43.60565" lon="3.78065">
        <ele>58.64899968</ele>
        <time>2020-09-20T09:49:30.000Z</time>
      </trkpt>
      <trkpt lat="43.60566" lon="3.7807">
        <ele>58.54899968</ele>
        <time>2020-09-20T09:49:31.000Z</time>
      </trkpt>
      <trkpt lat="43.60567" lon="3.78076">
        <ele>58.44899968</ele>
        <time>2020-09-20T09:49:32.000Z</time>
      </trkpt>
      <trkpt lat="43.60568" lon="3.78081">
        <ele>58.34899968</ele>
        <time>2020-09-20T09:49:33.000Z</time>
      </trkpt>
      <trkpt lat="43.60569" lon="3.78087">
        <ele>58.24899968</ele>
        <time>2020-09-20T09:49:34.000Z</time>
      </trkpt>
      <trkpt lat="43.6057" lon="3.78094">
        <ele>58.14899968</ele>
        <time>2020-09-20T09:49:35.000Z</time>
      </trkpt>
      <trkpt lat="43.60571" lon="3.781">
        <ele>58.04899968</ele>
        <time>2020-09-20T09:49:36.000Z</time>
      </trkpt>
      <trkpt lat="43.60572" lon="3.78106">
        <ele>58</ele>
        <time>2020-09-20T09:49:37.000Z</time>
      </trkpt>
      <trkpt lat="43.60573" lon="3.78112">
        <ele>58</ele>
        <time>2020-09-20T09:49:38.000Z</time>
      </trkpt>
      <trkpt lat="43.60574" lon="3.78118">
        <ele>58</ele>
        <time>2020-09-20T09:49:39.000Z</time>
      </trkpt>
      <trkpt lat="43.60576" lon="3.78124">
        <ele>58</ele>
        <time>2020-09-20T09:49:40.000Z</time>
      </trkpt>
      <trkpt lat="43.60577" lon="3.7813">
        <ele>58</ele>
        <time>2020-09-20T09:49:41.000Z</time>
      </trkpt>
      <trkpt lat="43.60578" lon="3.78137">
        <ele>58</ele>
        <time>2020-09-20T09:49:42.000Z</time>
      </trkpt>
      <trkpt lat="43.6058" lon="3.78143">
        <ele>58</ele>
        <time>2020-09-20T09:49:43.000Z</time>
      </trkpt>
      <trkpt lat="43.60581" lon="3.78149">
        <ele>58</ele>
        <time>2020-09-20T09:49:44.000Z</time>
      </trkpt>
      <trkpt lat="43.60582" lon="3.78154">
        <ele>58</ele>
        <time>2020-09-20T09:49:45.000Z</time>
      </trkpt>
      <trkpt lat="43.60584" lon="3.7816">
        <ele>58</ele>
        <time>2020-09-20T09:49:46.000Z</time>
      </trkpt>
      <trkpt lat="43.60585" lon="3.78166">
        <ele>58</ele>
        <time>2020-09-20T09:49:47.000Z</time>
      </trkpt>
      <trkpt lat="43.60586" lon="3.78171">
        <ele>58</ele>
        <time>2020-09-20T09:49:48.000Z</time>
      </trkpt>
      <trkpt lat="43.60588" lon="3.78177">
        <ele>58</ele>
        <time>2020-09-20T09:49:49.000Z</time>
      </trkpt>
      <trkpt lat="43.6059" lon="3.78182">
        <ele>58</ele>
        <time>2020-09-20T09:49:50.000Z</time>
      </trkpt>
      <trkpt lat="43.60591" lon="3.78187">
        <ele>58</ele>
        <time>2020-09-20T09:49:51.000Z</time>
      </trkpt>
      <trkpt lat="43.60592" lon="3.78193">
        <ele>58</ele>
        <time>2020-09-20T09:49:52.000Z</time>
      </trkpt>
      <trkpt lat="43.60594" lon="3.78198">
        <ele>58</ele>
        <time>2020-09-20T09:49:53.000Z</time>
      </trkpt>
      <trkpt lat="43.60595" lon="3.78203">
        <ele>58</ele>
        <time>2020-09-20T09:49:54.000Z</time>
      </trkpt>
      <trkpt lat="43.60597" lon="3.78208">
        <ele>58</ele>
        <time>2020-09-20T09:49:55.000Z</time>
      </trkpt>
      <trkpt lat="43.60599" lon="3.78213">
        <ele>58</ele>
        <time>2020-09-20T09:49:56.000Z</time>
      </trkpt>
      <trkpt lat="43.606" lon="3.78219">
        <ele>58</ele>
        <time>2020-09-20T09:49:57.000Z</time>
      </trkpt>
      <trkpt lat="43.60602" lon="3.78224">
        <ele>58</ele>
        <time>2020-09-20T09:49:58.000Z</time>
      </trkpt>
      <trkpt lat="43.60603" lon="3.78229">
        <ele>58</ele>
        <time>2020-09-20T09:49:59.000Z</time>
      </trkpt>
      <trkpt lat="43.60605" lon="3.78233">
        <ele>58</ele>
        <time>2020-09-20T09:50:00.000Z</time>
      </trkpt>
      <trkpt lat="43.60607" lon="3.78238">
        <ele>58</ele>
        <time>2020-09-20T09:50:01.000Z</time>
      </trkpt>
      <trkpt lat="43.60609" lon="3.78243">
        <ele>58</ele>
        <time>2020-09-20T09:50:02.000Z</time>
      </trkpt>
      <trkpt lat="43.6061" lon="3.78247">
        <ele>58</ele>
        <time>2020-09-20T09:50:03.000Z</time>
      </trkpt>
      <trkpt lat="43.60611" lon="3.78251">
        <ele>58</ele>
        <time>2020-09-20T09:50:04.000Z</time>
      </trkpt>
      <trkpt lat="43.60612" lon="3.78256">
        <ele>58</ele>
        <time>2020-09-20T09:50:05.000Z</time>
      </trkpt>
      <trkpt lat="43.60614" lon="3.7826">
        <ele>58</ele>
        <time>2020-09-20T09:50:06.000Z</time>
      </trkpt>
      <trkpt lat="43.60616" lon="3.78264">
        <ele>58.050050674658</ele>
        <time>2020-09-20T09:50:07.000Z</time>
      </trkpt>
      <trkpt lat="43.60618" lon="3.78268">
        <ele>58.150150742694</ele>
        <time>2020-09-20T09:50:08.000Z</time>
      </trkpt>
      <trkpt lat="43.60619" lon="3.78273">
        <ele>58.25025081073</ele>
        <time>2020-09-20T09:50:09.000Z</time>
      </trkpt>
      <trkpt lat="43.60621" lon="3.78277">
        <ele>58.350350878766</ele>
        <time>2020-09-20T09:50:10.000Z</time>
      </trkpt>
      <trkpt lat="43.60623" lon="3.78282">
        <ele>58.450450946802</ele>
        <time>2020-09-20T09:50:11.000Z</time>
      </trkpt>
      <trkpt lat="43.60626" lon="3.78287">
        <ele>58.550551014838</ele>
        <time>2020-09-20T09:50:12.000Z</time>
      </trkpt>
      <trkpt lat="43.60628" lon="3.78292">
        <ele>58.650651082874</ele>
        <time>2020-09-20T09:50:13.000Z</time>
      </trkpt>
      <trkpt lat="43.60631" lon="3.78297">
        <ele>58.750751150911</ele>
        <time>2020-09-20T09:50:14.000Z</time>
      </trkpt>
      <trkpt lat="43.60633" lon="3.78301">
        <ele>58.850851218947</ele>
        <time>2020-09-20T09:50:15.000Z</time>
      </trkpt>
      <trkpt lat="43.60636" lon="3.78306">
        <ele>58.950951286983</ele>
        <time>2020-09-20T09:50:16.000Z</time>
      </trkpt>
      <trkpt lat="43.60639" lon="3.78311">
        <ele>59.049323296357</ele>
        <time>2020-09-20T09:50:17.000Z</time>
      </trkpt>
      <trkpt lat="43.60641" lon="3.78316">
        <ele>59.146035035336</ele>
        <time>2020-09-20T09:50:18.000Z</time>
      </trkpt>
      <trkpt lat="43.60644" lon="3.78321">
        <ele>59.242746774315</ele>
        <time>2020-09-20T09:50:19.000Z</time>
      </trkpt>
      <trkpt lat="43.60647" lon="3.78325">
        <ele>59.339458513295</ele>
        <time>2020-09-20T09:50:20.000Z</time>
      </trkpt>
      <trkpt lat="43.60649" lon="3.7833">
        <ele>59.436170252274</ele>
        <time>2020-09-20T09:50:21.000Z</time>
      </trkpt>
      <trkpt lat="43.60652" lon="3.78335">
        <ele>59.532881991253</ele>
        <time>2020-09-20T09:50:22.000Z</time>
      </trkpt>
      <trkpt lat="43.60654" lon="3.7834">
        <ele>59.629593730232</ele>
        <time>2020-09-20T09:50:23.000Z</time>
      </trkpt>
      <trkpt lat="43.60656" lon="3.78345">
        <ele>59.726305469211</ele>
        <time>2020-09-20T09:50:24.000Z</time>
      </trkpt>
      <trkpt lat="43.60658" lon="3.7835">
        <ele>59.82301720819</ele>
        <time>2020-09-20T09:50:25.000Z</time>
      </trkpt>
      <trkpt lat="43.6066" lon="3.78355">
        <ele>59.91972894717</ele>
        <time>2020-09-20T09:50:26.000Z</time>
      </trkpt>
      <trkpt lat="43.6066" lon="3.7836">
        <ele>60.017598024082</ele>
        <time>2020-09-20T09:50:27.000Z</time>
      </trkpt>
      <trkpt lat="43.60659" lon="3.78365">
        <ele>60.121117761403</ele>
        <time>2020-09-20T09:50:28.000Z</time>
      </trkpt>
      <trkpt lat="43.60658" lon="3.7837">
        <ele>60.224637498725</ele>
        <time>2020-09-20T09:50:29.000Z</time>
      </trkpt>
      <trkpt lat="43.60657" lon="3.78375">
        <ele>60.328157236046</ele>
        <time>2020-09-20T09:50:30.000Z</time>
      </trkpt>
      <trkpt lat="43.60658" lon="3.7838">
        <ele>60.431676973368</ele>
        <time>2020-09-20T09:50:31.000Z</time>
      </trkpt>
      <trkpt lat="43.6066" lon="3.78384">
        <ele>60.535196710689</ele>
        <time>2020-09-20T09:50:32.000Z</time>
      </trkpt>
      <trkpt lat="43.60662" lon="3.78389">
        <ele>60.638716448011</ele>
        <time>2020-09-20T09:50:33.000Z</time>
      </trkpt>
      <trkpt lat="43.60665" lon="3.78392">
        <ele>60.742236185333</ele>
        <time>2020-09-20T09:50:34.000Z</time>
      </trkpt>
      <trkpt lat="43.60668" lon="3.78396">
        <ele>60.845755922654</ele>
        <time>2020-09-20T09:50:35.000Z</time>
      </trkpt>
      <trkpt lat="43.60671" lon="3.78399">
        <ele>60.949275659976</ele>
        <time>2020-09-20T09:50:36.000Z</time>
      </trkpt>
      <trkpt lat="43.60674" lon="3.78402">
        <ele>61</ele>
        <time>2020-09-20T09:50:37.000Z</time>
      </trkpt>
      <trkpt lat="43.60677" lon="3.78406">
        <ele>61</ele>
        <time>2020-09-20T09:50:38.000Z</time>
      </trkpt>
      <trkpt lat="43.6068" lon="3.78409">
        <ele>61</ele>
        <time>2020-09-20T09:50:39.000Z</time>
      </trkpt>
      <trkpt lat="43.60682" lon="3.78413">
        <ele>61</ele>
        <time>2020-09-20T09:50:40.000Z</time>
      </trkpt>
      <trkpt lat="43.60684" lon="3.78416">
        <ele>61</ele>
        <time>2020-09-20T09:50:41.000Z</time>
      </trkpt>
      <trkpt lat="43.60686" lon="3.7842">
        <ele>61</ele>
        <time>2020-09-20T09:50:42.000Z</time>
      </trkpt>
      <trkpt lat="43.60688" lon="3.78424">
        <ele>61</ele>
        <time>2020-09-20T09:50:43.000Z</time>
      </trkpt>
      <trkpt lat="43.6069" lon="3.78428">
        <ele>61</ele>
        <time>2020-09-20T09:50:44.000Z</time>
      </trkpt>
      <trkpt lat="43.60692" lon="3.78432">
        <ele>61</ele>
        <time>2020-09-20T09:50:45.000Z</time>
      </trkpt>
      <trkpt lat="43.60694" lon="3.78436">
        <ele>61</ele>
        <time>2020-09-20T09:50:46.000Z</time>
      </trkpt>
      <trkpt lat="43.60696" lon="3.7844">
        <ele>61.050949386917</ele>
        <time>2020-09-20T09:50:47.000Z</time>
      </trkpt>
      <trkpt lat="43.60698" lon="3.78445">
        <ele>61.150849518753</ele>
        <time>2020-09-20T09:50:48.000Z</time>
      </trkpt>
      <trkpt lat="43.607" lon="3.78449">
        <ele>61.250749650589</ele>
        <time>2020-09-20T09:50:49.000Z</time>
      </trkpt>
      <trkpt lat="43.60702" lon="3.78452">
        <ele>61.350649782425</ele>
        <time>2020-09-20T09:50:50.000Z</time>
      </trkpt>
      <trkpt lat="43.60704" lon="3.78456">
        <ele>61.450549914262</ele>
        <time>2020-09-20T09:50:51.000Z</time>
      </trkpt>
      <trkpt lat="43.60706" lon="3.7846">
        <ele>61.550450046098</ele>
        <time>2020-09-20T09:50:52.000Z</time>
      </trkpt>
      <trkpt lat="43.60708" lon="3.78463">
        <ele>61.650350177934</ele>
        <time>2020-09-20T09:50:53.000Z</time>
      </trkpt>
      <trkpt lat="43.6071" lon="3.78466">
        <ele>61.75025030977</ele>
        <time>2020-09-20T09:50:54.000Z</time>
      </trkpt>
      <trkpt lat="43.60712" lon="3.7847">
        <ele>61.850150441607</ele>
        <time>2020-09-20T09:50:55.000Z</time>
      </trkpt>
      <trkpt lat="43.60714" lon="3.78474">
        <ele>61.950050573443</ele>
        <time>2020-09-20T09:50:56.000Z</time>
      </trkpt>
      <trkpt lat="43.60715" lon="3.78478">
        <ele>62.050050674658</ele>
        <time>2020-09-20T09:50:57.000Z</time>
      </trkpt>
      <trkpt lat="43.60717" lon="3.78481">
        <ele>62.150150742694</ele>
        <time>2020-09-20T09:50:58.000Z</time>
      </trkpt>
      <trkpt lat="43.60719" lon="3.78485">
        <ele>62.25025081073</ele>
        <time>2020-09-20T09:50:59.000Z</time>
      </trkpt>
      <trkpt lat="43.60721" lon="3.78489">
        <ele>62.350350878766</ele>
        <time>2020-09-20T09:51:00.000Z</time>
      </trkpt>
      <trkpt lat="43.60723" lon="3.78493">
        <ele>62.450450946802</ele>
        <time>2020-09-20T09:51:01.000Z</time>
      </trkpt>
      <trkpt lat="43.60725" lon="3.78498">
        <ele>62.550551014838</ele>
        <time>2020-09-20T09:51:02.000Z</time>
      </trkpt>
      <trkpt lat="43.60726" lon="3.78502">
        <ele>62.650651082874</ele>
        <time>2020-09-20T09:51:03.000Z</time>
      </trkpt>
      <trkpt lat="43.60728" lon="3.78506">
        <ele>62.750751150911</ele>
        <time>2020-09-20T09:51:04.000Z</time>
      </trkpt>
      <trkpt lat="43.60729" lon="3.78511">
        <ele>62.850851218947</ele>
        <time>2020-09-20T09:51:05.000Z</time>
      </trkpt>
      <trkpt lat="43.60731" lon="3.78515">
        <ele>62.950951286983</ele>
        <time>2020-09-20T09:51:06.000Z</time>
      </trkpt>
      <trkpt lat="43.60733" lon="3.78519">
        <ele>63.05100032</ele>
        <time>2020-09-20T09:51:07.000Z</time>
      </trkpt>
      <trkpt lat="43.60735" lon="3.78523">
        <ele>63.15100032</ele>
        <time>2020-09-20T09:51:08.000Z</time>
      </trkpt>
      <trkpt lat="43.60737" lon="3.78527">
        <ele>63.25100032</ele>
        <time>2020-09-20T09:51:09.000Z</time>
      </trkpt>
      <trkpt lat="43.60738" lon="3.78531">
        <ele>63.35100032</ele>
        <time>2020-09-20T09:51:10.000Z</time>
      </trkpt>
      <trkpt lat="43.6074" lon="3.78536">
        <ele>63.45100032</ele>
        <time>2020-09-20T09:51:11.000Z</time>
      </trkpt>
      <trkpt lat="43.60742" lon="3.7854">
        <ele>63.55100032</ele>
        <time>2020-09-20T09:51:12.000Z</time>
      </trkpt>
      <trkpt lat="43.60743" lon="3.78544">
        <ele>63.65100032</ele>
        <time>2020-09-20T09:51:13.000Z</time>
      </trkpt>
      <trkpt lat="43.60745" lon="3.78548">
        <ele>63.75100032</ele>
        <time>2020-09-20T09:51:14.000Z</time>
      </trkpt>
      <trkpt lat="43.60747" lon="3.78552">
        <ele>63.85100032</ele>
        <time>2020-09-20T09:51:15.000Z</time>
      </trkpt>
      <trkpt lat="43.60749" lon="3.78556">
        <ele>63.95100032</ele>
        <time>2020-09-20T09:51:16.000Z</time>
      </trkpt>
      <trkpt lat="43.60751" lon="3.78561">
        <ele>64</ele>
        <time>2020-09-20T09:51:17.000Z</time>
      </trkpt>
      <trkpt lat="43.60753" lon="3.78565">
        <ele>64</ele>
        <time>2020-09-20T09:51:18.000Z</time>
      </trkpt>
      <trkpt lat="43.60755" lon="3.78569">
        <ele>64</ele>
        <time>2020-09-20T09:51:19.000Z</time>
      </trkpt>
      <trkpt lat="43.60757" lon="3.78573">
        <ele>64</ele>
        <time>2020-09-20T09:51:20.000Z</time>
      </trkpt>
      <trkpt lat="43.60759" lon="3.78577">
        <ele>64</ele>
        <time>2020-09-20T09:51:21.000Z</time>
      </trkpt>
      <trkpt lat="43.60761" lon="3.78582">
        <ele>64</ele>
        <time>2020-09-20T09:51:22.000Z</time>
      </trkpt>
      <trkpt lat="43.60763" lon="3.78586">
        <ele>64</ele>
        <time>2020-09-20T09:51:23.000Z</time>
      </trkpt>
      <trkpt lat="43.60765" lon="3.7859">
        <ele>64</ele>
        <time>2020-09-20T09:51:24.000Z</time>
      </trkpt>
      <trkpt lat="43.60768" lon="3.78594">
        <ele>64</ele>
        <time>2020-09-20T09:51:25.000Z</time>
      </trkpt>
      <trkpt lat="43.6077" lon="3.78598">
        <ele>64</ele>
        <time>2020-09-20T09:51:26.000Z</time>
      </trkpt>
      <trkpt lat="43.60771" lon="3.78603">
        <ele>64</ele>
        <time>2020-09-20T09:51:27.000Z</time>
      </trkpt>
      <trkpt lat="43.60773" lon="3.78607">
        <ele>64</ele>
        <time>2020-09-20T09:51:28.000Z</time>
      </trkpt>
      <trkpt lat="43.60775" lon="3.78611">
        <ele>64</ele>
        <time>2020-09-20T09:51:29.000Z</time>
      </trkpt>
      <trkpt lat="43.60777" lon="3.78615">
        <ele>64</ele>
        <time>2020-09-20T09:51:30.000Z</time>
      </trkpt>
      <trkpt lat="43.6078" lon="3.78619">
        <ele>64</ele>
        <time>2020-09-20T09:51:31.000Z</time>
      </trkpt>
      <trkpt lat="43.60782" lon="3.78623">
        <ele>64</ele>
        <time>2020-09-20T09:51:32.000Z</time>
      </trkpt>
      <trkpt lat="43.60785" lon="3.78626">
        <ele>64</ele>
        <time>2020-09-20T09:51:33.000Z</time>
      </trkpt>
      <trkpt lat="43.60788" lon="3.7863">
        <ele>64</ele>
        <time>2020-09-20T09:51:34.000Z</time>
      </trkpt>
      <trkpt lat="43.6079" lon="3.78633">
        <ele>64</ele>
        <time>2020-09-20T09:51:35.000Z</time>
      </trkpt>
      <trkpt lat="43.60792" lon="3.78637">
        <ele>64</ele>
        <time>2020-09-20T09:51:36.000Z</time>
      </trkpt>
      <trkpt lat="43.60794" lon="3.78641">
        <ele>64</ele>
        <time>2020-09-20T09:51:37.000Z</time>
      </trkpt>
      <trkpt lat="43.60795" lon="3.78645">
        <ele>64</ele>
        <time>2020-09-20T09:51:38.000Z</time>
      </trkpt>
      <trkpt lat="43.60797" lon="3.78648">
        <ele>64</ele>
        <time>2020-09-20T09:51:39.000Z</time>
      </trkpt>
      <trkpt lat="43.60798" lon="3.78652">
        <ele>64</ele>
        <time>2020-09-20T09:51:40.000Z</time>
      </trkpt>
      <trkpt lat="43.608" lon="3.78656">
        <ele>64</ele>
        <time>2020-09-20T09:51:41.000Z</time>
      </trkpt>
      <trkpt lat="43.60801" lon="3.78659">
        <ele>64</ele>
        <time>2020-09-20T09:51:42.000Z</time>
      </trkpt>
      <trkpt lat="43.60803" lon="3.78662">
        <ele>64</ele>
        <time>2020-09-20T09:51:43.000Z</time>
      </trkpt>
      <trkpt lat="43.60804" lon="3.78665">
        <ele>64</ele>
        <time>2020-09-20T09:51:44.000Z</time>
      </trkpt>
      <trkpt lat="43.60805" lon="3.78668">
        <ele>64</ele>
        <time>2020-09-20T09:51:45.000Z</time>
      </trkpt>
      <trkpt lat="43.60806" lon="3.78671">
        <ele>64</ele>
        <time>2020-09-20T09:51:46.000Z</time>
      </trkpt>
      <trkpt lat="43.60808" lon="3.78676">
        <ele>64</ele>
        <time>2020-09-20T09:51:47.000Z</time>
      </trkpt>
      <trkpt lat="43.6081" lon="3.78679">
        <ele>64</ele>
        <time>2020-09-20T09:51:48.000Z</time>
      </trkpt>
      <trkpt lat="43.60812" lon="3.78683">
        <ele>64</ele>
        <time>2020-09-20T09:51:49.000Z</time>
      </trkpt>
      <trkpt lat="43.60813" lon="3.78686">
        <ele>64</ele>
        <time>2020-09-20T09:51:50.000Z</time>
      </trkpt>
      <trkpt lat="43.60815" lon="3.78689">
        <ele>64</ele>
        <time>2020-09-20T09:51:51.000Z</time>
      </trkpt>
      <trkpt lat="43.60816" lon="3.78693">
        <ele>64</ele>
        <time>2020-09-20T09:51:52.000Z</time>
      </trkpt>
      <trkpt lat="43.60817" lon="3.78697">
        <ele>64</ele>
        <time>2020-09-20T09:51:53.000Z</time>
      </trkpt>
      <trkpt lat="43.60818" lon="3.787">
        <ele>64</ele>
        <time>2020-09-20T09:51:54.000Z</time>
      </trkpt>
      <trkpt lat="43.60819" lon="3.78703">
        <ele>64</ele>
        <time>2020-09-20T09:51:55.000Z</time>
      </trkpt>
      <trkpt lat="43.60821" lon="3.78705">
        <ele>64</ele>
        <time>2020-09-20T09:51:56.000Z</time>
      </trkpt>
      <trkpt lat="43.60822" lon="3.78708">
        <ele>64.05100032</ele>
        <time>2020-09-20T09:51:57.000Z</time>
      </trkpt>
      <trkpt lat="43.60823" lon="3.78712">
        <ele>64.15100032</ele>
        <time>2020-09-20T09:51:58.000Z</time>
      </trkpt>
      <trkpt lat="43.60825" lon="3.78716">
        <ele>64.25100032</ele>
        <time>2020-09-20T09:51:59.000Z</time>
      </trkpt>
      <trkpt lat="43.60827" lon="3.7872">
        <ele>64.35100032</ele>
        <time>2020-09-20T09:52:00.000Z</time>
      </trkpt>
      <trkpt lat="43.60828" lon="3.78724">
        <ele>64.45100032</ele>
        <time>2020-09-20T09:52:01.000Z</time>
      </trkpt>
      <trkpt lat="43.6083" lon="3.78727">
        <ele>64.55100032</ele>
        <time>2020-09-20T09:52:02.000Z</time>
      </trkpt>
      <trkpt lat="43.60831" lon="3.78731">
        <ele>64.65100032</ele>
        <time>2020-09-20T09:52:03.000Z</time>
      </trkpt>
      <trkpt lat="43.60833" lon="3.78734">
        <ele>64.75100032</ele>
        <time>2020-09-20T09:52:04.000Z</time>
      </trkpt>
      <trkpt lat="43.60834" lon="3.78737">
        <ele>64.85100032</ele>
        <time>2020-09-20T09:52:05.000Z</time>
      </trkpt>
      <trkpt lat="43.60835" lon="3.78741">
        <ele>64.95100032</ele>
        <time>2020-09-20T09:52:06.000Z</time>
      </trkpt>
      <trkpt lat="43.60836" lon="3.78744">
        <ele>65</ele>
        <time>2020-09-20T09:52:07.000Z</time>
      </trkpt>
      <trkpt lat="43.60837" lon="3.78747">
        <ele>65</ele>
        <time>2020-09-20T09:52:08.000Z</time>
      </trkpt>
      <trkpt lat="43.60839" lon="3.78751">
        <ele>65</ele>
        <time>2020-09-20T09:52:09.000Z</time>
      </trkpt>
      <trkpt lat="43.6084" lon="3.78754">
        <ele>65</ele>
        <time>2020-09-20T09:52:10.000Z</time>
      </trkpt>
      <trkpt lat="43.60841" lon="3.78757">
        <ele>65</ele>
        <time>2020-09-20T09:52:11.000Z</time>
      </trkpt>
      <trkpt lat="43.60842" lon="3.7876">
        <ele>65</ele>
        <time>2020-09-20T09:52:12.000Z</time>
      </trkpt>
      <trkpt lat="43.60843" lon="3.78763">
        <ele>65</ele>
        <time>2020-09-20T09:52:13.000Z</time>
      </trkpt>
      <trkpt lat="43.60845" lon="3.78766">
        <ele>65</ele>
        <time>2020-09-20T09:52:14.000Z</time>
      </trkpt>
      <trkpt lat="43.60846" lon="3.78768">
        <ele>65</ele>
        <time>2020-09-20T09:52:15.000Z</time>
      </trkpt>
      <trkpt lat="43.60848" lon="3.78772">
        <ele>65</ele>
        <time>2020-09-20T09:52:16.000Z</time>
      </trkpt>
      <trkpt lat="43.60849" lon="3.78775">
        <ele>65.022586626751</ele>
        <time>2020-09-20T09:52:17.000Z</time>
      </trkpt>
      <trkpt lat="43.6085" lon="3.78778">
        <ele>65.125256098731</ele>
        <time>2020-09-20T09:52:18.000Z</time>
      </trkpt>
      <trkpt lat="43.60851" lon="3.7878">
        <ele>65.227925570711</ele>
        <time>2020-09-20T09:52:19.000Z</time>
      </trkpt>
      <trkpt lat="43.60852" lon="3.78782">
        <ele>65.330595042691</ele>
        <time>2020-09-20T09:52:20.000Z</time>
      </trkpt>
      <trkpt lat="43.60853" lon="3.78785">
        <ele>65.433264514671</ele>
        <time>2020-09-20T09:52:21.000Z</time>
      </trkpt>
      <trkpt lat="43.60855" lon="3.78787">
        <ele>65.535933986651</ele>
        <time>2020-09-20T09:52:22.000Z</time>
      </trkpt>
      <trkpt lat="43.60856" lon="3.7879">
        <ele>65.638603458631</ele>
        <time>2020-09-20T09:52:23.000Z</time>
      </trkpt>
      <trkpt lat="43.60857" lon="3.78792">
        <ele>65.741272930611</ele>
        <time>2020-09-20T09:52:24.000Z</time>
      </trkpt>
      <trkpt lat="43.60858" lon="3.78795">
        <ele>65.84394240259</ele>
        <time>2020-09-20T09:52:25.000Z</time>
      </trkpt>
      <trkpt lat="43.60859" lon="3.78797">
        <ele>65.94661187457</ele>
        <time>2020-09-20T09:52:26.000Z</time>
      </trkpt>
      <trkpt lat="43.6086" lon="3.788">
        <ele>66.094488188976</ele>
        <time>2020-09-20T09:52:27.000Z</time>
      </trkpt>
      <trkpt lat="43.60861" lon="3.78803">
        <ele>66.291338582677</ele>
        <time>2020-09-20T09:52:28.000Z</time>
      </trkpt>
      <trkpt lat="43.60862" lon="3.78805">
        <ele>66.488188976378</ele>
        <time>2020-09-20T09:52:29.000Z</time>
      </trkpt>
      <trkpt lat="43.60863" lon="3.78808">
        <ele>66.685039370079</ele>
        <time>2020-09-20T09:52:30.000Z</time>
      </trkpt>
      <trkpt lat="43.60865" lon="3.7881">
        <ele>66.881889763779</ele>
        <time>2020-09-20T09:52:31.000Z</time>
      </trkpt>
      <trkpt lat="43.60866" lon="3.78813">
        <ele>67.07874015748</ele>
        <time>2020-09-20T09:52:32.000Z</time>
      </trkpt>
      <trkpt lat="43.60867" lon="3.78815">
        <ele>67.275590551181</ele>
        <time>2020-09-20T09:52:33.000Z</time>
      </trkpt>
      <trkpt lat="43.60868" lon="3.78817">
        <ele>67.472440944882</ele>
        <time>2020-09-20T09:52:34.000Z</time>
      </trkpt>
      <trkpt lat="43.60869" lon="3.7882">
        <ele>67.669291338583</ele>
        <time>2020-09-20T09:52:35.000Z</time>
      </trkpt>
      <trkpt lat="43.6087" lon="3.78822">
        <ele>67.866141732283</ele>
        <time>2020-09-20T09:52:36.000Z</time>
      </trkpt>
      <trkpt lat="43.60872" lon="3.78824">
        <ele>68.065239572759</ele>
        <time>2020-09-20T09:52:37.000Z</time>
      </trkpt>
      <trkpt lat="43.60873" lon="3.78826">
        <ele>68.269113237631</ele>
        <time>2020-09-20T09:52:38.000Z</time>
      </trkpt>
      <trkpt lat="43.60874" lon="3.78829">
        <ele>68.472986902503</ele>
        <time>2020-09-20T09:52:39.000Z</time>
      </trkpt>
      <trkpt lat="43.60875" lon="3.78831">
        <ele>68.676860567375</ele>
        <time>2020-09-20T09:52:40.000Z</time>
      </trkpt>
      <trkpt lat="43.60875" lon="3.78834">
        <ele>68.880734232248</ele>
        <time>2020-09-20T09:52:41.000Z</time>
      </trkpt>
      <trkpt lat="43.60877" lon="3.78837">
        <ele>69.08460789712</ele>
        <time>2020-09-20T09:52:42.000Z</time>
      </trkpt>
      <trkpt lat="43.60877" lon="3.7884">
        <ele>69.288481561992</ele>
        <time>2020-09-20T09:52:43.000Z</time>
      </trkpt>
      <trkpt lat="43.60878" lon="3.78844">
        <ele>69.492355226864</ele>
        <time>2020-09-20T09:52:44.000Z</time>
      </trkpt>
      <trkpt lat="43.60878" lon="3.78847">
        <ele>69.696228891736</ele>
        <time>2020-09-20T09:52:45.000Z</time>
      </trkpt>
      <trkpt lat="43.60879" lon="3.7885">
        <ele>69.900102556608</ele>
        <time>2020-09-20T09:52:46.000Z</time>
      </trkpt>
      <trkpt lat="43.6088" lon="3.78854">
        <ele>70.15300096</ele>
        <time>2020-09-20T09:52:47.000Z</time>
      </trkpt>
      <trkpt lat="43.60881" lon="3.78857">
        <ele>70.45300096</ele>
        <time>2020-09-20T09:52:48.000Z</time>
      </trkpt>
      <trkpt lat="43.60881" lon="3.78861">
        <ele>70.75300096</ele>
        <time>2020-09-20T09:52:49.000Z</time>
      </trkpt>
      <trkpt lat="43.60882" lon="3.78865">
        <ele>71.05300096</ele>
        <time>2020-09-20T09:52:50.000Z</time>
      </trkpt>
      <trkpt lat="43.60883" lon="3.78868">
        <ele>71.35300096</ele>
        <time>2020-09-20T09:52:51.000Z</time>
      </trkpt>
      <trkpt lat="43.60883" lon="3.78871">
        <ele>71.65300096</ele>
        <time>2020-09-20T09:52:52.000Z</time>
      </trkpt>
      <trkpt lat="43.60884" lon="3.78874">
        <ele>71.95300096</ele>
        <time>2020-09-20T09:52:53.000Z</time>
      </trkpt>
      <trkpt lat="43.60885" lon="3.78878">
        <ele>72.25300096</ele>
        <time>2020-09-20T09:52:54.000Z</time>
      </trkpt>
      <trkpt lat="43.60885" lon="3.78881">
        <ele>72.55300096</ele>
        <time>2020-09-20T09:52:55.000Z</time>
      </trkpt>
      <trkpt lat="43.60886" lon="3.78884">
        <ele>72.85300096</ele>
        <time>2020-09-20T09:52:56.000Z</time>
      </trkpt>
      <trkpt lat="43.60886" lon="3.78887">
        <ele>73.101898773834</ele>
        <time>2020-09-20T09:52:57.000Z</time>
      </trkpt>
      <trkpt lat="43.60886" lon="3.78891">
        <ele>73.301699037506</ele>
        <time>2020-09-20T09:52:58.000Z</time>
      </trkpt>
      <trkpt lat="43.60886" lon="3.78894">
        <ele>73.501499301179</ele>
        <time>2020-09-20T09:52:59.000Z</time>
      </trkpt>
      <trkpt lat="43.60886" lon="3.78898">
        <ele>73.701299564851</ele>
        <time>2020-09-20T09:53:00.000Z</time>
      </trkpt>
      <trkpt lat="43.60886" lon="3.78901">
        <ele>73.901099828523</ele>
        <time>2020-09-20T09:53:01.000Z</time>
      </trkpt>
      <trkpt lat="43.60886" lon="3.78905">
        <ele>74.100900092196</ele>
        <time>2020-09-20T09:53:02.000Z</time>
      </trkpt>
      <trkpt lat="43.60886" lon="3.78909">
        <ele>74.300700355868</ele>
        <time>2020-09-20T09:53:03.000Z</time>
      </trkpt>
      <trkpt lat="43.60886" lon="3.78913">
        <ele>74.500500619541</ele>
        <time>2020-09-20T09:53:04.000Z</time>
      </trkpt>
      <trkpt lat="43.60886" lon="3.78917">
        <ele>74.700300883213</ele>
        <time>2020-09-20T09:53:05.000Z</time>
      </trkpt>
      <trkpt lat="43.60886" lon="3.78921">
        <ele>74.900101146886</ele>
        <time>2020-09-20T09:53:06.000Z</time>
      </trkpt>
      <trkpt lat="43.60886" lon="3.78925">
        <ele>75.100101349317</ele>
        <time>2020-09-20T09:53:07.000Z</time>
      </trkpt>
      <trkpt lat="43.60885" lon="3.78929">
        <ele>75.300301485389</ele>
        <time>2020-09-20T09:53:08.000Z</time>
      </trkpt>
      <trkpt lat="43.60884" lon="3.78933">
        <ele>75.500501621461</ele>
        <time>2020-09-20T09:53:09.000Z</time>
      </trkpt>
      <trkpt lat="43.60882" lon="3.78937">
        <ele>75.700701757533</ele>
        <time>2020-09-20T09:53:10.000Z</time>
      </trkpt>
      <trkpt lat="43.60881" lon="3.78941">
        <ele>75.900901893605</ele>
        <time>2020-09-20T09:53:11.000Z</time>
      </trkpt>
      <trkpt lat="43.6088" lon="3.78945">
        <ele>76.101102029677</ele>
        <time>2020-09-20T09:53:12.000Z</time>
      </trkpt>
      <trkpt lat="43.60879" lon="3.7895">
        <ele>76.301302165749</ele>
        <time>2020-09-20T09:53:13.000Z</time>
      </trkpt>
      <trkpt lat="43.60879" lon="3.78954">
        <ele>76.501502301821</ele>
        <time>2020-09-20T09:53:14.000Z</time>
      </trkpt>
      <trkpt lat="43.60878" lon="3.78959">
        <ele>76.701702437893</ele>
        <time>2020-09-20T09:53:15.000Z</time>
      </trkpt>
      <trkpt lat="43.60876" lon="3.78963">
        <ele>76.901902573965</ele>
        <time>2020-09-20T09:53:16.000Z</time>
      </trkpt>
      <trkpt lat="43.60875" lon="3.78967">
        <ele>77.049562946958</ele>
        <time>2020-09-20T09:53:17.000Z</time>
      </trkpt>
      <trkpt lat="43.60874" lon="3.78971">
        <ele>77.146744586127</ele>
        <time>2020-09-20T09:53:18.000Z</time>
      </trkpt>
      <trkpt lat="43.60873" lon="3.78975">
        <ele>77.243926225297</ele>
        <time>2020-09-20T09:53:19.000Z</time>
      </trkpt>
      <trkpt lat="43.60872" lon="3.78979">
        <ele>77.341107864467</ele>
        <time>2020-09-20T09:53:20.000Z</time>
      </trkpt>
      <trkpt lat="43.60871" lon="3.78983">
        <ele>77.438289503637</ele>
        <time>2020-09-20T09:53:21.000Z</time>
      </trkpt>
      <trkpt lat="43.6087" lon="3.78988">
        <ele>77.535471142806</ele>
        <time>2020-09-20T09:53:22.000Z</time>
      </trkpt>
      <trkpt lat="43.60869" lon="3.78992">
        <ele>77.632652781976</ele>
        <time>2020-09-20T09:53:23.000Z</time>
      </trkpt>
      <trkpt lat="43.60869" lon="3.78996">
        <ele>77.729834421146</ele>
        <time>2020-09-20T09:53:24.000Z</time>
      </trkpt>
      <trkpt lat="43.60868" lon="3.79">
        <ele>77.827016060315</ele>
        <time>2020-09-20T09:53:25.000Z</time>
      </trkpt>
      <trkpt lat="43.60867" lon="3.79005">
        <ele>77.924197699485</ele>
        <time>2020-09-20T09:53:26.000Z</time>
      </trkpt>
      <trkpt lat="43.60866" lon="3.79009">
        <ele>78</ele>
        <time>2020-09-20T09:53:27.000Z</time>
      </trkpt>
      <trkpt lat="43.60865" lon="3.79015">
        <ele>78</ele>
        <time>2020-09-20T09:53:28.000Z</time>
      </trkpt>
      <trkpt lat="43.60864" lon="3.7902">
        <ele>78</ele>
        <time>2020-09-20T09:53:29.000Z</time>
      </trkpt>
      <trkpt lat="43.60863" lon="3.79026">
        <ele>78</ele>
        <time>2020-09-20T09:53:30.000Z</time>
      </trkpt>
      <trkpt lat="43.60862" lon="3.79033">
        <ele>78</ele>
        <time>2020-09-20T09:53:31.000Z</time>
      </trkpt>
      <trkpt lat="43.60861" lon="3.79039">
        <ele>78</ele>
        <time>2020-09-20T09:53:32.000Z</time>
      </trkpt>
      <trkpt lat="43.6086" lon="3.79046">
        <ele>78</ele>
        <time>2020-09-20T09:53:33.000Z</time>
      </trkpt>
      <trkpt lat="43.60859" lon="3.79053">
        <ele>78</ele>
        <time>2020-09-20T09:53:34.000Z</time>
      </trkpt>
      <trkpt lat="43.60858" lon="3.7906">
        <ele>78</ele>
        <time>2020-09-20T09:53:35.000Z</time>
      </trkpt>
      <trkpt lat="43.60857" lon="3.79067">
        <ele>78</ele>
        <time>2020-09-20T09:53:36.000Z</time>
      </trkpt>
      <trkpt lat="43.60855" lon="3.79075">
        <ele>77.89799936</ele>
        <time>2020-09-20T09:53:37.000Z</time>
      </trkpt>
      <trkpt lat="43.60854" lon="3.79083">
        <ele>77.69799936</ele>
        <time>2020-09-20T09:53:38.000Z</time>
      </trkpt>
      <trkpt lat="43.60852" lon="3.79091">
        <ele>77.49799936</ele>
        <time>2020-09-20T09:53:39.000Z</time>
      </trkpt>
      <trkpt lat="43.60851" lon="3.79099">
        <ele>77.29799936</ele>
        <time>2020-09-20T09:53:40.000Z</time>
      </trkpt>
      <trkpt lat="43.6085" lon="3.79108">
        <ele>77.09799936</ele>
        <time>2020-09-20T09:53:41.000Z</time>
      </trkpt>
      <trkpt lat="43.60849" lon="3.79117">
        <ele>76.89799936</ele>
        <time>2020-09-20T09:53:42.000Z</time>
      </trkpt>
      <trkpt lat="43.60847" lon="3.79126">
        <ele>76.69799936</ele>
        <time>2020-09-20T09:53:43.000Z</time>
      </trkpt>
      <trkpt lat="43.60847" lon="3.79135">
        <ele>76.49799936</ele>
        <time>2020-09-20T09:53:44.000Z</time>
      </trkpt>
      <trkpt lat="43.60846" lon="3.79144">
        <ele>76.29799936</ele>
        <time>2020-09-20T09:53:45.000Z</time>
      </trkpt>
      <trkpt lat="43.60846" lon="3.79154">
        <ele>76.09799936</ele>
        <time>2020-09-20T09:53:46.000Z</time>
      </trkpt>
      <trkpt lat="43.60845" lon="3.79165">
        <ele>75.7449984</ele>
        <time>2020-09-20T09:53:47.000Z</time>
      </trkpt>
      <trkpt lat="43.60844" lon="3.79176">
        <ele>75.2449984</ele>
        <time>2020-09-20T09:53:48.000Z</time>
      </trkpt>
      <trkpt lat="43.60843" lon="3.79187">
        <ele>74.7449984</ele>
        <time>2020-09-20T09:53:49.000Z</time>
      </trkpt>
      <trkpt lat="43.60842" lon="3.79198">
        <ele>74.2449984</ele>
        <time>2020-09-20T09:53:50.000Z</time>
      </trkpt>
      <trkpt lat="43.60841" lon="3.7921">
        <ele>73.7449984</ele>
        <time>2020-09-20T09:53:51.000Z</time>
      </trkpt>
      <trkpt lat="43.6084" lon="3.79221">
        <ele>73.2449984</ele>
        <time>2020-09-20T09:53:52.000Z</time>
      </trkpt>
      <trkpt lat="43.60839" lon="3.79233">
        <ele>72.7449984</ele>
        <time>2020-09-20T09:53:53.000Z</time>
      </trkpt>
      <trkpt lat="43.60838" lon="3.79244">
        <ele>72.2449984</ele>
        <time>2020-09-20T09:53:54.000Z</time>
      </trkpt>
      <trkpt lat="43.60838" lon="3.79256">
        <ele>71.7449984</ele>
        <time>2020-09-20T09:53:55.000Z</time>
      </trkpt>
      <trkpt lat="43.60837" lon="3.79267">
        <ele>71.2449984</ele>
        <time>2020-09-20T09:53:56.000Z</time>
      </trkpt>
      <trkpt lat="43.60837" lon="3.79279">
        <ele>70.7449984</ele>
        <time>2020-09-20T09:53:57.000Z</time>
      </trkpt>
      <trkpt lat="43.60837" lon="3.7929">
        <ele>70.2449984</ele>
        <time>2020-09-20T09:53:58.000Z</time>
      </trkpt>
      <trkpt lat="43.60837" lon="3.79302">
        <ele>69.7449984</ele>
        <time>2020-09-20T09:53:59.000Z</time>
      </trkpt>
      <trkpt lat="43.60837" lon="3.79313">
        <ele>69.2449984</ele>
        <time>2020-09-20T09:54:00.000Z</time>
      </trkpt>
      <trkpt lat="43.60838" lon="3.79324">
        <ele>68.7449984</ele>
        <time>2020-09-20T09:54:01.000Z</time>
      </trkpt>
      <trkpt lat="43.60838" lon="3.79336">
        <ele>68.2449984</ele>
        <time>2020-09-20T09:54:02.000Z</time>
      </trkpt>
      <trkpt lat="43.60838" lon="3.79347">
        <ele>67.7449984</ele>
        <time>2020-09-20T09:54:03.000Z</time>
      </trkpt>
      <trkpt lat="43.60839" lon="3.79357">
        <ele>67.2449984</ele>
        <time>2020-09-20T09:54:04.000Z</time>
      </trkpt>
      <trkpt lat="43.6084" lon="3.79368">
        <ele>66.7449984</ele>
        <time>2020-09-20T09:54:05.000Z</time>
      </trkpt>
      <trkpt lat="43.60841" lon="3.79379">
        <ele>66.2449984</ele>
        <time>2020-09-20T09:54:06.000Z</time>
      </trkpt>
      <trkpt lat="43.60842" lon="3.7939">
        <ele>65.851599502898</ele>
        <time>2020-09-20T09:54:07.000Z</time>
      </trkpt>
      <trkpt lat="43.60842" lon="3.79401">
        <ele>65.560619961786</ele>
        <time>2020-09-20T09:54:08.000Z</time>
      </trkpt>
      <trkpt lat="43.60843" lon="3.79411">
        <ele>65.269640420674</ele>
        <time>2020-09-20T09:54:09.000Z</time>
      </trkpt>
      <trkpt lat="43.60844" lon="3.79422">
        <ele>64.978660879562</ele>
        <time>2020-09-20T09:54:10.000Z</time>
      </trkpt>
      <trkpt lat="43.60845" lon="3.79433">
        <ele>64.68768133845</ele>
        <time>2020-09-20T09:54:11.000Z</time>
      </trkpt>
      <trkpt lat="43.60846" lon="3.79444">
        <ele>64.396701797338</ele>
        <time>2020-09-20T09:54:12.000Z</time>
      </trkpt>
      <trkpt lat="43.60847" lon="3.79454">
        <ele>64.105722256226</ele>
        <time>2020-09-20T09:54:13.000Z</time>
      </trkpt>
      <trkpt lat="43.60849" lon="3.79465">
        <ele>63.814742715114</ele>
        <time>2020-09-20T09:54:14.000Z</time>
      </trkpt>
      <trkpt lat="43.6085" lon="3.79476">
        <ele>63.523763174002</ele>
        <time>2020-09-20T09:54:15.000Z</time>
      </trkpt>
      <trkpt lat="43.60852" lon="3.79486">
        <ele>63.23278363289</ele>
        <time>2020-09-20T09:54:16.000Z</time>
      </trkpt>
      <trkpt lat="43.60853" lon="3.79497">
        <ele>62.938080474908</ele>
        <time>2020-09-20T09:54:17.000Z</time>
      </trkpt>
      <trkpt lat="43.60855" lon="3.79507">
        <ele>62.628482849447</ele>
        <time>2020-09-20T09:54:18.000Z</time>
      </trkpt>
      <trkpt lat="43.60856" lon="3.79518">
        <ele>62.318885223987</ele>
        <time>2020-09-20T09:54:19.000Z</time>
      </trkpt>
      <trkpt lat="43.60858" lon="3.79528">
        <ele>62.009287598526</ele>
        <time>2020-09-20T09:54:20.000Z</time>
      </trkpt>
      <trkpt lat="43.6086" lon="3.79538">
        <ele>61.699689973066</ele>
        <time>2020-09-20T09:54:21.000Z</time>
      </trkpt>
      <trkpt lat="43.60861" lon="3.79548">
        <ele>61.390092347605</ele>
        <time>2020-09-20T09:54:22.000Z</time>
      </trkpt>
      <trkpt lat="43.60863" lon="3.79558">
        <ele>61.080494722145</ele>
        <time>2020-09-20T09:54:23.000Z</time>
      </trkpt>
      <trkpt lat="43.60865" lon="3.79568">
        <ele>60.770897096684</ele>
        <time>2020-09-20T09:54:24.000Z</time>
      </trkpt>
      <trkpt lat="43.60867" lon="3.79578">
        <ele>60.461299471224</ele>
        <time>2020-09-20T09:54:25.000Z</time>
      </trkpt>
      <trkpt lat="43.60868" lon="3.79588">
        <ele>60.151701845763</ele>
        <time>2020-09-20T09:54:26.000Z</time>
      </trkpt>
      <trkpt lat="43.6087" lon="3.79597">
        <ele>59.847760384229</ele>
        <time>2020-09-20T09:54:27.000Z</time>
      </trkpt>
      <trkpt lat="43.60872" lon="3.79607">
        <ele>59.549253206684</ele>
        <time>2020-09-20T09:54:28.000Z</time>
      </trkpt>
      <trkpt lat="43.60874" lon="3.79616">
        <ele>59.250746029138</ele>
        <time>2020-09-20T09:54:29.000Z</time>
      </trkpt>
      <trkpt lat="43.60877" lon="3.79626">
        <ele>58.952238851593</ele>
        <time>2020-09-20T09:54:30.000Z</time>
      </trkpt>
      <trkpt lat="43.60879" lon="3.79636">
        <ele>58.653731674047</ele>
        <time>2020-09-20T09:54:31.000Z</time>
      </trkpt>
      <trkpt lat="43.60881" lon="3.79646">
        <ele>58.355224496502</ele>
        <time>2020-09-20T09:54:32.000Z</time>
      </trkpt>
      <trkpt lat="43.60883" lon="3.79655">
        <ele>58.056717318957</ele>
        <time>2020-09-20T09:54:33.000Z</time>
      </trkpt>
      <trkpt lat="43.60886" lon="3.79665">
        <ele>57.758210141411</ele>
        <time>2020-09-20T09:54:34.000Z</time>
      </trkpt>
      <trkpt lat="43.60888" lon="3.79675">
        <ele>57.459702963866</ele>
        <time>2020-09-20T09:54:35.000Z</time>
      </trkpt>
      <trkpt lat="43.6089" lon="3.79686">
        <ele>57.16119578632</ele>
        <time>2020-09-20T09:54:36.000Z</time>
      </trkpt>
      <trkpt lat="43.60891" lon="3.79696">
        <ele>56.861308328499</ele>
        <time>2020-09-20T09:54:37.000Z</time>
      </trkpt>
      <trkpt lat="43.60893" lon="3.79706">
        <ele>56.559800499908</ele>
        <time>2020-09-20T09:54:38.000Z</time>
      </trkpt>
      <trkpt lat="43.60895" lon="3.79716">
        <ele>56.258292671318</ele>
        <time>2020-09-20T09:54:39.000Z</time>
      </trkpt>
      <trkpt lat="43.60897" lon="3.79726">
        <ele>55.956784842727</ele>
        <time>2020-09-20T09:54:40.000Z</time>
      </trkpt>
      <trkpt lat="43.609" lon="3.79736">
        <ele>55.655277014137</ele>
        <time>2020-09-20T09:54:41.000Z</time>
      </trkpt>
      <trkpt lat="43.60903" lon="3.79745">
        <ele>55.353769185546</ele>
        <time>2020-09-20T09:54:42.000Z</time>
      </trkpt>
      <trkpt lat="43.60906" lon="3.79755">
        <ele>55.052261356956</ele>
        <time>2020-09-20T09:54:43.000Z</time>
      </trkpt>
      <trkpt lat="43.60909" lon="3.79765">
        <ele>54.750753528365</ele>
        <time>2020-09-20T09:54:44.000Z</time>
      </trkpt>
      <trkpt lat="43.60911" lon="3.79774">
        <ele>54.449245699775</ele>
        <time>2020-09-20T09:54:45.000Z</time>
      </trkpt>
      <trkpt lat="43.60913" lon="3.79784">
        <ele>54.147737871184</ele>
        <time>2020-09-20T09:54:46.000Z</time>
      </trkpt>
      <trkpt lat="43.60915" lon="3.79794">
        <ele>53.847151839249</ele>
        <time>2020-09-20T09:54:47.000Z</time>
      </trkpt>
      <trkpt lat="43.60917" lon="3.79804">
        <ele>53.547451443741</ele>
        <time>2020-09-20T09:54:48.000Z</time>
      </trkpt>
      <trkpt lat="43.60919" lon="3.79813">
        <ele>53.247751048232</ele>
        <time>2020-09-20T09:54:49.000Z</time>
      </trkpt>
      <trkpt lat="43.60921" lon="3.79822">
        <ele>52.948050652724</ele>
        <time>2020-09-20T09:54:50.000Z</time>
      </trkpt>
      <trkpt lat="43.60922" lon="3.79831">
        <ele>52.648350257215</ele>
        <time>2020-09-20T09:54:51.000Z</time>
      </trkpt>
      <trkpt lat="43.60924" lon="3.7984">
        <ele>52.348649861706</ele>
        <time>2020-09-20T09:54:52.000Z</time>
      </trkpt>
      <trkpt lat="43.60926" lon="3.79849">
        <ele>52.048949466198</ele>
        <time>2020-09-20T09:54:53.000Z</time>
      </trkpt>
      <trkpt lat="43.60928" lon="3.79859">
        <ele>51.749249070689</ele>
        <time>2020-09-20T09:54:54.000Z</time>
      </trkpt>
      <trkpt lat="43.6093" lon="3.79868">
        <ele>51.44954867518</ele>
        <time>2020-09-20T09:54:55.000Z</time>
      </trkpt>
      <trkpt lat="43.60932" lon="3.79877">
        <ele>51.149848279672</ele>
        <time>2020-09-20T09:54:56.000Z</time>
      </trkpt>
      <trkpt lat="43.60934" lon="3.79886">
        <ele>50.899898650683</ele>
        <time>2020-09-20T09:54:57.000Z</time>
      </trkpt>
      <trkpt lat="43.60937" lon="3.79894">
        <ele>50.699698514611</ele>
        <time>2020-09-20T09:54:58.000Z</time>
      </trkpt>
      <trkpt lat="43.6094" lon="3.79903">
        <ele>50.499498378539</ele>
        <time>2020-09-20T09:54:59.000Z</time>
      </trkpt>
      <trkpt lat="43.60943" lon="3.79911">
        <ele>50.299298242467</ele>
        <time>2020-09-20T09:55:00.000Z</time>
      </trkpt>
      <trkpt lat="43.60945" lon="3.79919">
        <ele>50.099098106395</ele>
        <time>2020-09-20T09:55:01.000Z</time>
      </trkpt>
      <trkpt lat="43.60947" lon="3.79928">
        <ele>49.898897970323</ele>
        <time>2020-09-20T09:55:02.000Z</time>
      </trkpt>
      <trkpt lat="43.60948" lon="3.79936">
        <ele>49.698697834251</ele>
        <time>2020-09-20T09:55:03.000Z</time>
      </trkpt>
      <trkpt lat="43.6095" lon="3.79945">
        <ele>49.498497698179</ele>
        <time>2020-09-20T09:55:04.000Z</time>
      </trkpt>
      <trkpt lat="43.60952" lon="3.79953">
        <ele>49.298297562107</ele>
        <time>2020-09-20T09:55:05.000Z</time>
      </trkpt>
      <trkpt lat="43.60953" lon="3.79962">
        <ele>49.098097426035</ele>
        <time>2020-09-20T09:55:06.000Z</time>
      </trkpt>
      <trkpt lat="43.60955" lon="3.79971">
        <ele>48.94899968</ele>
        <time>2020-09-20T09:55:07.000Z</time>
      </trkpt>
      <trkpt lat="43.60956" lon="3.79979">
        <ele>48.84899968</ele>
        <time>2020-09-20T09:55:08.000Z</time>
      </trkpt>
      <trkpt lat="43.60958" lon="3.79988">
        <ele>48.74899968</ele>
        <time>2020-09-20T09:55:09.000Z</time>
      </trkpt>
      <trkpt lat="43.6096" lon="3.79997">
        <ele>48.64899968</ele>
        <time>2020-09-20T09:55:10.000Z</time>
      </trkpt>
      <trkpt lat="43.60961" lon="3.80005">
        <ele>48.54899968</ele>
        <time>2020-09-20T09:55:11.000Z</time>
      </trkpt>
      <trkpt lat="43.60963" lon="3.80014">
        <ele>48.44899968</ele>
        <time>2020-09-20T09:55:12.000Z</time>
      </trkpt>
      <trkpt lat="43.60964" lon="3.80023">
        <ele>48.34899968</ele>
        <time>2020-09-20T09:55:13.000Z</time>
      </trkpt>
      <trkpt lat="43.60966" lon="3.80031">
        <ele>48.24899968</ele>
        <time>2020-09-20T09:55:14.000Z</time>
      </trkpt>
      <trkpt lat="43.60967" lon="3.8004">
        <ele>48.14899968</ele>
        <time>2020-09-20T09:55:15.000Z</time>
      </trkpt>
      <trkpt lat="43.60968" lon="3.80049">
        <ele>48.04899968</ele>
        <time>2020-09-20T09:55:16.000Z</time>
      </trkpt>
      <trkpt lat="43.6097" lon="3.80057">
        <ele>48</ele>
        <time>2020-09-20T09:55:17.000Z</time>
      </trkpt>
      <trkpt lat="43.60971" lon="3.80065">
        <ele>48</ele>
        <time>2020-09-20T09:55:18.000Z</time>
      </trkpt>
      <trkpt lat="43.60973" lon="3.80072">
        <ele>48</ele>
        <time>2020-09-20T09:55:19.000Z</time>
      </trkpt>
      <trkpt lat="43.60975" lon="3.80079">
        <ele>48</ele>
        <time>2020-09-20T09:55:20.000Z</time>
      </trkpt>
      <trkpt lat="43.60976" lon="3.80086">
        <ele>48</ele>
        <time>2020-09-20T09:55:21.000Z</time>
      </trkpt>
      <trkpt lat="43.60978" lon="3.80092">
        <ele>48</ele>
        <time>2020-09-20T09:55:22.000Z</time>
      </trkpt>
      <trkpt lat="43.6098" lon="3.80099">
        <ele>48</ele>
        <time>2020-09-20T09:55:23.000Z</time>
      </trkpt>
      <trkpt lat="43.60982" lon="3.80105">
        <ele>48</ele>
        <time>2020-09-20T09:55:24.000Z</time>
      </trkpt>
      <trkpt lat="43.60983" lon="3.80112">
        <ele>48</ele>
        <time>2020-09-20T09:55:25.000Z</time>
      </trkpt>
      <trkpt lat="43.60984" lon="3.80118">
        <ele>48</ele>
        <time>2020-09-20T09:55:26.000Z</time>
      </trkpt>
      <trkpt lat="43.60986" lon="3.80125">
        <ele>48</ele>
        <time>2020-09-20T09:55:27.000Z</time>
      </trkpt>
      <trkpt lat="43.60987" lon="3.80131">
        <ele>48.096500836818</ele>
        <time>2020-09-20T09:55:28.000Z</time>
      </trkpt>
      <trkpt lat="43.60988" lon="3.80137">
        <ele>48.202545339539</ele>
        <time>2020-09-20T09:55:29.000Z</time>
      </trkpt>
      <trkpt lat="43.60989" lon="3.80143">
        <ele>48.30858984226</ele>
        <time>2020-09-20T09:55:30.000Z</time>
      </trkpt>
      <trkpt lat="43.6099" lon="3.80148">
        <ele>48.414634344981</ele>
        <time>2020-09-20T09:55:31.000Z</time>
      </trkpt>
      <trkpt lat="43.60992" lon="3.80154">
        <ele>48.520678847702</ele>
        <time>2020-09-20T09:55:32.000Z</time>
      </trkpt>
      <trkpt lat="43.60993" lon="3.80159">
        <ele>48.626723350423</ele>
        <time>2020-09-20T09:55:33.000Z</time>
      </trkpt>
      <trkpt lat="43.60994" lon="3.80165">
        <ele>48.732767853143</ele>
        <time>2020-09-20T09:55:34.000Z</time>
      </trkpt>
      <trkpt lat="43.60995" lon="3.80171">
        <ele>48.838812355864</ele>
        <time>2020-09-20T09:55:35.000Z</time>
      </trkpt>
      <trkpt lat="43.60996" lon="3.80176">
        <ele>48.944856858585</ele>
        <time>2020-09-20T09:55:36.000Z</time>
      </trkpt>
      <trkpt lat="43.60998" lon="3.80182">
        <ele>49</ele>
        <time>2020-09-20T09:55:37.000Z</time>
      </trkpt>
      <trkpt lat="43.60999" lon="3.80188">
        <ele>49</ele>
        <time>2020-09-20T09:55:38.000Z</time>
      </trkpt>
      <trkpt lat="43.61" lon="3.80193">
        <ele>49</ele>
        <time>2020-09-20T09:55:39.000Z</time>
      </trkpt>
      <trkpt lat="43.61001" lon="3.80199">
        <ele>49</ele>
        <time>2020-09-20T09:55:40.000Z</time>
      </trkpt>
      <trkpt lat="43.61002" lon="3.80205">
        <ele>49</ele>
        <time>2020-09-20T09:55:41.000Z</time>
      </trkpt>
      <trkpt lat="43.61003" lon="3.8021">
        <ele>49</ele>
        <time>2020-09-20T09:55:42.000Z</time>
      </trkpt>
      <trkpt lat="43.61004" lon="3.80216">
        <ele>49</ele>
        <time>2020-09-20T09:55:43.000Z</time>
      </trkpt>
      <trkpt lat="43.61005" lon="3.80222">
        <ele>49</ele>
        <time>2020-09-20T09:55:44.000Z</time>
      </trkpt>
      <trkpt lat="43.61006" lon="3.80228">
        <ele>49</ele>
        <time>2020-09-20T09:55:45.000Z</time>
      </trkpt>
      <trkpt lat="43.61007" lon="3.80233">
        <ele>49</ele>
        <time>2020-09-20T09:55:46.000Z</time>
      </trkpt>
      <trkpt lat="43.61009" lon="3.80239">
        <ele>49</ele>
        <time>2020-09-20T09:55:47.000Z</time>
      </trkpt>
      <trkpt lat="43.6101" lon="3.80245">
        <ele>49</ele>
        <time>2020-09-20T09:55:48.000Z</time>
      </trkpt>
      <trkpt lat="43.61011" lon="3.80251">
        <ele>49</ele>
        <time>2020-09-20T09:55:49.000Z</time>
      </trkpt>
      <trkpt lat="43.61013" lon="3.80257">
        <ele>49</ele>
        <time>2020-09-20T09:55:50.000Z</time>
      </trkpt>
      <trkpt lat="43.61014" lon="3.80264">
        <ele>49</ele>
        <time>2020-09-20T09:55:51.000Z</time>
      </trkpt>
      <trkpt lat="43.61015" lon="3.8027">
        <ele>49</ele>
        <time>2020-09-20T09:55:52.000Z</time>
      </trkpt>
      <trkpt lat="43.61017" lon="3.80276">
        <ele>49</ele>
        <time>2020-09-20T09:55:53.000Z</time>
      </trkpt>
      <trkpt lat="43.61018" lon="3.80282">
        <ele>49</ele>
        <time>2020-09-20T09:55:54.000Z</time>
      </trkpt>
      <trkpt lat="43.6102" lon="3.80288">
        <ele>49</ele>
        <time>2020-09-20T09:55:55.000Z</time>
      </trkpt>
      <trkpt lat="43.61021" lon="3.80294">
        <ele>49</ele>
        <time>2020-09-20T09:55:56.000Z</time>
      </trkpt>
      <trkpt lat="43.61022" lon="3.80299">
        <ele>49.05100032</ele>
        <time>2020-09-20T09:55:57.000Z</time>
      </trkpt>
      <trkpt lat="43.61023" lon="3.80305">
        <ele>49.15100032</ele>
        <time>2020-09-20T09:55:58.000Z</time>
      </trkpt>
      <trkpt lat="43.61024" lon="3.80311">
        <ele>49.25100032</ele>
        <time>2020-09-20T09:55:59.000Z</time>
      </trkpt>
      <trkpt lat="43.61026" lon="3.80317">
        <ele>49.35100032</ele>
        <time>2020-09-20T09:56:00.000Z</time>
      </trkpt>
      <trkpt lat="43.61027" lon="3.80322">
        <ele>49.45100032</ele>
        <time>2020-09-20T09:56:01.000Z</time>
      </trkpt>
      <trkpt lat="43.61029" lon="3.80327">
        <ele>49.55100032</ele>
        <time>2020-09-20T09:56:02.000Z</time>
      </trkpt>
      <trkpt lat="43.61031" lon="3.80333">
        <ele>49.65100032</ele>
        <time>2020-09-20T09:56:03.000Z</time>
      </trkpt>
      <trkpt lat="43.61032" lon="3.80338">
        <ele>49.75100032</ele>
        <time>2020-09-20T09:56:04.000Z</time>
      </trkpt>
      <trkpt lat="43.61034" lon="3.80344">
        <ele>49.85100032</ele>
        <time>2020-09-20T09:56:05.000Z</time>
      </trkpt>
      <trkpt lat="43.61036" lon="3.80349">
        <ele>49.95100032</ele>
        <time>2020-09-20T09:56:06.000Z</time>
      </trkpt>
      <trkpt lat="43.61037" lon="3.80354">
        <ele>50</ele>
        <time>2020-09-20T09:56:07.000Z</time>
      </trkpt>
      <trkpt lat="43.61039" lon="3.80359">
        <ele>50</ele>
        <time>2020-09-20T09:56:08.000Z</time>
      </trkpt>
      <trkpt lat="43.61041" lon="3.80364">
        <ele>50</ele>
        <time>2020-09-20T09:56:09.000Z</time>
      </trkpt>
      <trkpt lat="43.61043" lon="3.8037">
        <ele>50</ele>
        <time>2020-09-20T09:56:10.000Z</time>
      </trkpt>
      <trkpt lat="43.61044" lon="3.80375">
        <ele>50</ele>
        <time>2020-09-20T09:56:11.000Z</time>
      </trkpt>
      <trkpt lat="43.61046" lon="3.8038">
        <ele>50</ele>
        <time>2020-09-20T09:56:12.000Z</time>
      </trkpt>
      <trkpt lat="43.61048" lon="3.80386">
        <ele>50</ele>
        <time>2020-09-20T09:56:13.000Z</time>
      </trkpt>
      <trkpt lat="43.6105" lon="3.80391">
        <ele>50</ele>
        <time>2020-09-20T09:56:14.000Z</time>
      </trkpt>
      <trkpt lat="43.61052" lon="3.80397">
        <ele>50</ele>
        <time>2020-09-20T09:56:15.000Z</time>
      </trkpt>
      <trkpt lat="43.61055" lon="3.80402">
        <ele>50</ele>
        <time>2020-09-20T09:56:16.000Z</time>
      </trkpt>
      <trkpt lat="43.61057" lon="3.80407">
        <ele>50</ele>
        <time>2020-09-20T09:56:17.000Z</time>
      </trkpt>
      <trkpt lat="43.61059" lon="3.80413">
        <ele>50</ele>
        <time>2020-09-20T09:56:18.000Z</time>
      </trkpt>
      <trkpt lat="43.61061" lon="3.80418">
        <ele>50</ele>
        <time>2020-09-20T09:56:19.000Z</time>
      </trkpt>
      <trkpt lat="43.61064" lon="3.80423">
        <ele>50</ele>
        <time>2020-09-20T09:56:20.000Z</time>
      </trkpt>
      <trkpt lat="43.61066" lon="3.80428">
        <ele>50</ele>
        <time>2020-09-20T09:56:21.000Z</time>
      </trkpt>
      <trkpt lat="43.61069" lon="3.80433">
        <ele>50</ele>
        <time>2020-09-20T09:56:22.000Z</time>
      </trkpt>
      <trkpt lat="43.61071" lon="3.80438">
        <ele>50</ele>
        <time>2020-09-20T09:56:23.000Z</time>
      </trkpt>
      <trkpt lat="43.61073" lon="3.80444">
        <ele>50</ele>
        <time>2020-09-20T09:56:24.000Z</time>
      </trkpt>
      <trkpt lat="43.61076" lon="3.80449">
        <ele>50</ele>
        <time>2020-09-20T09:56:25.000Z</time>
      </trkpt>
      <trkpt lat="43.61079" lon="3.80454">
        <ele>50</ele>
        <time>2020-09-20T09:56:26.000Z</time>
      </trkpt>
      <trkpt lat="43.61081" lon="3.8046">
        <ele>50.05100032</ele>
        <time>2020-09-20T09:56:27.000Z</time>
      </trkpt>
      <trkpt lat="43.61083" lon="3.80465">
        <ele>50.15100032</ele>
        <time>2020-09-20T09:56:28.000Z</time>
      </trkpt>
      <trkpt lat="43.61086" lon="3.80471">
        <ele>50.25100032</ele>
        <time>2020-09-20T09:56:29.000Z</time>
      </trkpt>
      <trkpt lat="43.61089" lon="3.80476">
        <ele>50.35100032</ele>
        <time>2020-09-20T09:56:30.000Z</time>
      </trkpt>
      <trkpt lat="43.61091" lon="3.80482">
        <ele>50.45100032</ele>
        <time>2020-09-20T09:56:31.000Z</time>
      </trkpt>
      <trkpt lat="43.61094" lon="3.80488">
        <ele>50.55100032</ele>
        <time>2020-09-20T09:56:32.000Z</time>
      </trkpt>
      <trkpt lat="43.61096" lon="3.80493">
        <ele>50.65100032</ele>
        <time>2020-09-20T09:56:33.000Z</time>
      </trkpt>
      <trkpt lat="43.61099" lon="3.80499">
        <ele>50.75100032</ele>
        <time>2020-09-20T09:56:34.000Z</time>
      </trkpt>
      <trkpt lat="43.61103" lon="3.80505">
        <ele>50.85100032</ele>
        <time>2020-09-20T09:56:35.000Z</time>
      </trkpt>
      <trkpt lat="43.61106" lon="3.8051">
        <ele>50.95100032</ele>
        <time>2020-09-20T09:56:36.000Z</time>
      </trkpt>
      <trkpt lat="43.61108" lon="3.80516">
        <ele>51</ele>
        <time>2020-09-20T09:56:37.000Z</time>
      </trkpt>
      <trkpt lat="43.61111" lon="3.80522">
        <ele>51</ele>
        <time>2020-09-20T09:56:38.000Z</time>
      </trkpt>
      <trkpt lat="43.61113" lon="3.80528">
        <ele>51</ele>
        <time>2020-09-20T09:56:39.000Z</time>
      </trkpt>
      <trkpt lat="43.61115" lon="3.80533">
        <ele>51</ele>
        <time>2020-09-20T09:56:40.000Z</time>
      </trkpt>
      <trkpt lat="43.61117" lon="3.80539">
        <ele>51</ele>
        <time>2020-09-20T09:56:41.000Z</time>
      </trkpt>
      <trkpt lat="43.6112" lon="3.80544">
        <ele>51</ele>
        <time>2020-09-20T09:56:42.000Z</time>
      </trkpt>
      <trkpt lat="43.61123" lon="3.80549">
        <ele>51</ele>
        <time>2020-09-20T09:56:43.000Z</time>
      </trkpt>
      <trkpt lat="43.61126" lon="3.80553">
        <ele>51</ele>
        <time>2020-09-20T09:56:44.000Z</time>
      </trkpt>
      <trkpt lat="43.61129" lon="3.80557">
        <ele>51</ele>
        <time>2020-09-20T09:56:45.000Z</time>
      </trkpt>
      <trkpt lat="43.61132" lon="3.80561">
        <ele>51</ele>
        <time>2020-09-20T09:56:46.000Z</time>
      </trkpt>
      <trkpt lat="43.61134" lon="3.80567">
        <ele>51</ele>
        <time>2020-09-20T09:56:47.000Z</time>
      </trkpt>
      <trkpt lat="43.61136" lon="3.80572">
        <ele>51</ele>
        <time>2020-09-20T09:56:48.000Z</time>
      </trkpt>
      <trkpt lat="43.61138" lon="3.80578">
        <ele>51</ele>
        <time>2020-09-20T09:56:49.000Z</time>
      </trkpt>
      <trkpt lat="43.6114" lon="3.80584">
        <ele>51</ele>
        <time>2020-09-20T09:56:50.000Z</time>
      </trkpt>
      <trkpt lat="43.61143" lon="3.8059">
        <ele>51</ele>
        <time>2020-09-20T09:56:51.000Z</time>
      </trkpt>
      <trkpt lat="43.61146" lon="3.80596">
        <ele>51</ele>
        <time>2020-09-20T09:56:52.000Z</time>
      </trkpt>
      <trkpt lat="43.61149" lon="3.80601">
        <ele>51</ele>
        <time>2020-09-20T09:56:53.000Z</time>
      </trkpt>
      <trkpt lat="43.61152" lon="3.80607">
        <ele>51</ele>
        <time>2020-09-20T09:56:54.000Z</time>
      </trkpt>
      <trkpt lat="43.61155" lon="3.80613">
        <ele>51</ele>
        <time>2020-09-20T09:56:55.000Z</time>
      </trkpt>
      <trkpt lat="43.61157" lon="3.8062">
        <ele>51</ele>
        <time>2020-09-20T09:56:56.000Z</time>
      </trkpt>
      <trkpt lat="43.6116" lon="3.80626">
        <ele>51</ele>
        <time>2020-09-20T09:56:57.000Z</time>
      </trkpt>
      <trkpt lat="43.61163" lon="3.80632">
        <ele>51</ele>
        <time>2020-09-20T09:56:58.000Z</time>
      </trkpt>
      <trkpt lat="43.61166" lon="3.80638">
        <ele>51</ele>
        <time>2020-09-20T09:56:59.000Z</time>
      </trkpt>
      <trkpt lat="43.61169" lon="3.80644">
        <ele>51</ele>
        <time>2020-09-20T09:57:00.000Z</time>
      </trkpt>
      <trkpt lat="43.61172" lon="3.8065">
        <ele>51</ele>
        <time>2020-09-20T09:57:01.000Z</time>
      </trkpt>
      <trkpt lat="43.61175" lon="3.80656">
        <ele>51</ele>
        <time>2020-09-20T09:57:02.000Z</time>
      </trkpt>
      <trkpt lat="43.61178" lon="3.80662">
        <ele>51</ele>
        <time>2020-09-20T09:57:03.000Z</time>
      </trkpt>
      <trkpt lat="43.61181" lon="3.80668">
        <ele>51</ele>
        <time>2020-09-20T09:57:04.000Z</time>
      </trkpt>
      <trkpt lat="43.61184" lon="3.80674">
        <ele>51</ele>
        <time>2020-09-20T09:57:05.000Z</time>
      </trkpt>
      <trkpt lat="43.61187" lon="3.8068">
        <ele>51</ele>
        <time>2020-09-20T09:57:06.000Z</time>
      </trkpt>
      <trkpt lat="43.6119" lon="3.80685">
        <ele>51</ele>
        <time>2020-09-20T09:57:07.000Z</time>
      </trkpt>
      <trkpt lat="43.61192" lon="3.80691">
        <ele>51</ele>
        <time>2020-09-20T09:57:08.000Z</time>
      </trkpt>
      <trkpt lat="43.61195" lon="3.80696">
        <ele>51</ele>
        <time>2020-09-20T09:57:09.000Z</time>
      </trkpt>
      <trkpt lat="43.61197" lon="3.80701">
        <ele>51</ele>
        <time>2020-09-20T09:57:10.000Z</time>
      </trkpt>
      <trkpt lat="43.612" lon="3.80707">
        <ele>51</ele>
        <time>2020-09-20T09:57:11.000Z</time>
      </trkpt>
      <trkpt lat="43.61202" lon="3.80712">
        <ele>51</ele>
        <time>2020-09-20T09:57:12.000Z</time>
      </trkpt>
      <trkpt lat="43.61205" lon="3.80718">
        <ele>51</ele>
        <time>2020-09-20T09:57:13.000Z</time>
      </trkpt>
      <trkpt lat="43.61207" lon="3.80723">
        <ele>51</ele>
        <time>2020-09-20T09:57:14.000Z</time>
      </trkpt>
      <trkpt lat="43.6121" lon="3.80729">
        <ele>51</ele>
        <time>2020-09-20T09:57:15.000Z</time>
      </trkpt>
      <trkpt lat="43.61212" lon="3.80734">
        <ele>51</ele>
        <time>2020-09-20T09:57:16.000Z</time>
      </trkpt>
      <trkpt lat="43.61215" lon="3.8074">
        <ele>51</ele>
        <time>2020-09-20T09:57:17.000Z</time>
      </trkpt>
      <trkpt lat="43.61217" lon="3.80745">
        <ele>51</ele>
        <time>2020-09-20T09:57:18.000Z</time>
      </trkpt>
      <trkpt lat="43.61219" lon="3.8075">
        <ele>51</ele>
        <time>2020-09-20T09:57:19.000Z</time>
      </trkpt>
      <trkpt lat="43.61222" lon="3.80756">
        <ele>51</ele>
        <time>2020-09-20T09:57:20.000Z</time>
      </trkpt>
      <trkpt lat="43.61224" lon="3.80761">
        <ele>51</ele>
        <time>2020-09-20T09:57:21.000Z</time>
      </trkpt>
      <trkpt lat="43.61226" lon="3.80766">
        <ele>51</ele>
        <time>2020-09-20T09:57:22.000Z</time>
      </trkpt>
      <trkpt lat="43.61229" lon="3.80772">
        <ele>51</ele>
        <time>2020-09-20T09:57:23.000Z</time>
      </trkpt>
      <trkpt lat="43.61231" lon="3.80776">
        <ele>51</ele>
        <time>2020-09-20T09:57:24.000Z</time>
      </trkpt>
      <trkpt lat="43.61233" lon="3.8078">
        <ele>51</ele>
        <time>2020-09-20T09:57:25.000Z</time>
      </trkpt>
      <trkpt lat="43.61234" lon="3.80783">
        <ele>51</ele>
        <time>2020-09-20T09:57:26.000Z</time>
      </trkpt>
      <trkpt lat="43.61233" lon="3.80787">
        <ele>50.94899968</ele>
        <time>2020-09-20T09:57:27.000Z</time>
      </trkpt>
      <trkpt lat="43.61231" lon="3.80791">
        <ele>50.84899968</ele>
        <time>2020-09-20T09:57:28.000Z</time>
      </trkpt>
      <trkpt lat="43.61228" lon="3.80795">
        <ele>50.74899968</ele>
        <time>2020-09-20T09:57:29.000Z</time>
      </trkpt>
      <trkpt lat="43.61225" lon="3.80799">
        <ele>50.64899968</ele>
        <time>2020-09-20T09:57:30.000Z</time>
      </trkpt>
      <trkpt lat="43.61223" lon="3.80803">
        <ele>50.54899968</ele>
        <time>2020-09-20T09:57:31.000Z</time>
      </trkpt>
      <trkpt lat="43.61222" lon="3.80806">
        <ele>50.44899968</ele>
        <time>2020-09-20T09:57:32.000Z</time>
      </trkpt>
      <trkpt lat="43.61221" lon="3.8081">
        <ele>50.24899968</ele>
        <time>2020-09-20T09:57:34.000Z</time>
      </trkpt>
      <trkpt lat="43.61222" lon="3.80813">
        <ele>50.04899968</ele>
        <time>2020-09-20T09:57:36.000Z</time>
      </trkpt>
      <trkpt lat="43.61225" lon="3.80814">
        <ele>50</ele>
        <time>2020-09-20T09:57:38.000Z</time>
      </trkpt>
      <trkpt lat="43.61226" lon="3.80812">
        <ele>50</ele>
        <time>2020-09-20T09:57:39.000Z</time>
      </trkpt>
      <trkpt lat="43.61227" lon="3.8081">
        <ele>50</ele>
        <time>2020-09-20T09:57:40.000Z</time>
      </trkpt>
      <trkpt lat="43.6123" lon="3.80808">
        <ele>50</ele>
        <time>2020-09-20T09:57:41.000Z</time>
      </trkpt>
      <trkpt lat="43.61233" lon="3.80807">
        <ele>50</ele>
        <time>2020-09-20T09:57:42.000Z</time>
      </trkpt>
      <trkpt lat="43.61236" lon="3.80809">
        <ele>50</ele>
        <time>2020-09-20T09:57:43.000Z</time>
      </trkpt>
      <trkpt lat="43.61239" lon="3.80812">
        <ele>50</ele>
        <time>2020-09-20T09:57:44.000Z</time>
      </trkpt>
      <trkpt lat="43.61241" lon="3.80815">
        <ele>50</ele>
        <time>2020-09-20T09:57:45.000Z</time>
      </trkpt>
      <trkpt lat="43.61244" lon="3.80819">
        <ele>50</ele>
        <time>2020-09-20T09:57:46.000Z</time>
      </trkpt>
      <trkpt lat="43.61246" lon="3.80823">
        <ele>50</ele>
        <time>2020-09-20T09:57:47.000Z</time>
      </trkpt>
      <trkpt lat="43.61249" lon="3.80827">
        <ele>50</ele>
        <time>2020-09-20T09:57:48.000Z</time>
      </trkpt>
      <trkpt lat="43.61252" lon="3.80832">
        <ele>50</ele>
        <time>2020-09-20T09:57:49.000Z</time>
      </trkpt>
      <trkpt lat="43.61255" lon="3.80837">
        <ele>50</ele>
        <time>2020-09-20T09:57:50.000Z</time>
      </trkpt>
      <trkpt lat="43.61258" lon="3.80842">
        <ele>50</ele>
        <time>2020-09-20T09:57:51.000Z</time>
      </trkpt>
      <trkpt lat="43.61261" lon="3.80847">
        <ele>50</ele>
        <time>2020-09-20T09:57:52.000Z</time>
      </trkpt>
      <trkpt lat="43.61264" lon="3.80853">
        <ele>50</ele>
        <time>2020-09-20T09:57:53.000Z</time>
      </trkpt>
      <trkpt lat="43.61266" lon="3.80859">
        <ele>50</ele>
        <time>2020-09-20T09:57:54.000Z</time>
      </trkpt>
      <trkpt lat="43.61269" lon="3.80866">
        <ele>50</ele>
        <time>2020-09-20T09:57:55.000Z</time>
      </trkpt>
      <trkpt lat="43.61271" lon="3.80872">
        <ele>50</ele>
        <time>2020-09-20T09:57:56.000Z</time>
      </trkpt>
      <trkpt lat="43.61274" lon="3.80879">
        <ele>49.949050613083</ele>
        <time>2020-09-20T09:57:57.000Z</time>
      </trkpt>
      <trkpt lat="43.61277" lon="3.80886">
        <ele>49.849150481247</ele>
        <time>2020-09-20T09:57:58.000Z</time>
      </trkpt>
      <trkpt lat="43.6128" lon="3.80894">
        <ele>49.749250349411</ele>
        <time>2020-09-20T09:57:59.000Z</time>
      </trkpt>
      <trkpt lat="43.61282" lon="3.80902">
        <ele>49.649350217575</ele>
        <time>2020-09-20T09:58:00.000Z</time>
      </trkpt>
      <trkpt lat="43.61285" lon="3.8091">
        <ele>49.549450085738</ele>
        <time>2020-09-20T09:58:01.000Z</time>
      </trkpt>
      <trkpt lat="43.61287" lon="3.80919">
        <ele>49.449549953902</ele>
        <time>2020-09-20T09:58:02.000Z</time>
      </trkpt>
      <trkpt lat="43.6129" lon="3.80927">
        <ele>49.349649822066</ele>
        <time>2020-09-20T09:58:03.000Z</time>
      </trkpt>
      <trkpt lat="43.61292" lon="3.80936">
        <ele>49.24974969023</ele>
        <time>2020-09-20T09:58:04.000Z</time>
      </trkpt>
      <trkpt lat="43.61294" lon="3.80944">
        <ele>49.149849558393</ele>
        <time>2020-09-20T09:58:05.000Z</time>
      </trkpt>
      <trkpt lat="43.61296" lon="3.80953">
        <ele>49.049949426557</ele>
        <time>2020-09-20T09:58:06.000Z</time>
      </trkpt>
      <trkpt lat="43.61298" lon="3.80962">
        <ele>48.949949325342</ele>
        <time>2020-09-20T09:58:07.000Z</time>
      </trkpt>
      <trkpt lat="43.613" lon="3.80971">
        <ele>48.849849257306</ele>
        <time>2020-09-20T09:58:08.000Z</time>
      </trkpt>
      <trkpt lat="43.61302" lon="3.8098">
        <ele>48.74974918927</ele>
        <time>2020-09-20T09:58:09.000Z</time>
      </trkpt>
      <trkpt lat="43.61304" lon="3.80989">
        <ele>48.649649121234</ele>
        <time>2020-09-20T09:58:10.000Z</time>
      </trkpt>
      <trkpt lat="43.61305" lon="3.80999">
        <ele>48.549549053198</ele>
        <time>2020-09-20T09:58:11.000Z</time>
      </trkpt>
      <trkpt lat="43.61307" lon="3.81008">
        <ele>48.449448985162</ele>
        <time>2020-09-20T09:58:12.000Z</time>
      </trkpt>
      <trkpt lat="43.61309" lon="3.81017">
        <ele>48.349348917126</ele>
        <time>2020-09-20T09:58:13.000Z</time>
      </trkpt>
      <trkpt lat="43.61311" lon="3.81026">
        <ele>48.249248849089</ele>
        <time>2020-09-20T09:58:14.000Z</time>
      </trkpt>
      <trkpt lat="43.61313" lon="3.81035">
        <ele>48.149148781053</ele>
        <time>2020-09-20T09:58:15.000Z</time>
      </trkpt>
      <trkpt lat="43.61315" lon="3.81044">
        <ele>48.049048713017</ele>
        <time>2020-09-20T09:58:16.000Z</time>
      </trkpt>
      <trkpt lat="43.61317" lon="3.81053">
        <ele>47.94899968</ele>
        <time>2020-09-20T09:58:17.000Z</time>
      </trkpt>
      <trkpt lat="43.61319" lon="3.81062">
        <ele>47.84899968</ele>
        <time>2020-09-20T09:58:18.000Z</time>
      </trkpt>
      <trkpt lat="43.6132" lon="3.81071">
        <ele>47.74899968</ele>
        <time>2020-09-20T09:58:19.000Z</time>
      </trkpt>
      <trkpt lat="43.61322" lon="3.8108">
        <ele>47.64899968</ele>
        <time>2020-09-20T09:58:20.000Z</time>
      </trkpt>
      <trkpt lat="43.61324" lon="3.81089">
        <ele>47.54899968</ele>
        <time>2020-09-20T09:58:21.000Z</time>
      </trkpt>
      <trkpt lat="43.61326" lon="3.81098">
        <ele>47.44899968</ele>
        <time>2020-09-20T09:58:22.000Z</time>
      </trkpt>
      <trkpt lat="43.61328" lon="3.81106">
        <ele>47.34899968</ele>
        <time>2020-09-20T09:58:23.000Z</time>
      </trkpt>
      <trkpt lat="43.6133" lon="3.81114">
        <ele>47.24899968</ele>
        <time>2020-09-20T09:58:24.000Z</time>
      </trkpt>
      <trkpt lat="43.61333" lon="3.81122">
        <ele>47.14899968</ele>
        <time>2020-09-20T09:58:25.000Z</time>
      </trkpt>
      <trkpt lat="43.61336" lon="3.8113">
        <ele>47.04899968</ele>
        <time>2020-09-20T09:58:26.000Z</time>
      </trkpt>
      <trkpt lat="43.61339" lon="3.81138">
        <ele>46.951841072154</ele>
        <time>2020-09-20T09:58:27.000Z</time>
      </trkpt>
      <trkpt lat="43.61341" lon="3.81146">
        <ele>46.857412394361</ele>
        <time>2020-09-20T09:58:28.000Z</time>
      </trkpt>
      <trkpt lat="43.61344" lon="3.81154">
        <ele>46.762983716568</ele>
        <time>2020-09-20T09:58:29.000Z</time>
      </trkpt>
      <trkpt lat="43.61346" lon="3.81162">
        <ele>46.668555038775</ele>
        <time>2020-09-20T09:58:30.000Z</time>
      </trkpt>
      <trkpt lat="43.61349" lon="3.8117">
        <ele>46.574126360982</ele>
        <time>2020-09-20T09:58:31.000Z</time>
      </trkpt>
      <trkpt lat="43.61352" lon="3.81178">
        <ele>46.479697683189</ele>
        <time>2020-09-20T09:58:32.000Z</time>
      </trkpt>
      <trkpt lat="43.61355" lon="3.81186">
        <ele>46.385269005396</ele>
        <time>2020-09-20T09:58:33.000Z</time>
      </trkpt>
      <trkpt lat="43.61358" lon="3.81194">
        <ele>46.290840327603</ele>
        <time>2020-09-20T09:58:34.000Z</time>
      </trkpt>
      <trkpt lat="43.61361" lon="3.81202">
        <ele>46.196411649809</ele>
        <time>2020-09-20T09:58:35.000Z</time>
      </trkpt>
      <trkpt lat="43.61364" lon="3.8121">
        <ele>46.101982972017</ele>
        <time>2020-09-20T09:58:36.000Z</time>
      </trkpt>
      <trkpt lat="43.61367" lon="3.81218">
        <ele>46.007554294223</ele>
        <time>2020-09-20T09:58:37.000Z</time>
      </trkpt>
      <trkpt lat="43.6137" lon="3.81226">
        <ele>45.905349794239</ele>
        <time>2020-09-20T09:58:38.000Z</time>
      </trkpt>
      <trkpt lat="43.61372" lon="3.81234">
        <ele>45.802469135802</ele>
        <time>2020-09-20T09:58:39.000Z</time>
      </trkpt>
      <trkpt lat="43.61375" lon="3.81242">
        <ele>45.699588477366</ele>
        <time>2020-09-20T09:58:40.000Z</time>
      </trkpt>
      <trkpt lat="43.61378" lon="3.81249">
        <ele>45.59670781893</ele>
        <time>2020-09-20T09:58:41.000Z</time>
      </trkpt>
      <trkpt lat="43.61381" lon="3.81255">
        <ele>45.493827160494</ele>
        <time>2020-09-20T09:58:42.000Z</time>
      </trkpt>
      <trkpt lat="43.61384" lon="3.81262">
        <ele>45.390946502058</ele>
        <time>2020-09-20T09:58:43.000Z</time>
      </trkpt>
      <trkpt lat="43.61386" lon="3.81269">
        <ele>45.288065843621</ele>
        <time>2020-09-20T09:58:44.000Z</time>
      </trkpt>
      <trkpt lat="43.61389" lon="3.81275">
        <ele>45.185185185185</ele>
        <time>2020-09-20T09:58:45.000Z</time>
      </trkpt>
      <trkpt lat="43.61391" lon="3.81282">
        <ele>45.082304526749</ele>
        <time>2020-09-20T09:58:46.000Z</time>
      </trkpt>
      <trkpt lat="43.61393" lon="3.81288">
        <ele>44.979979986393</ele>
        <time>2020-09-20T09:58:47.000Z</time>
      </trkpt>
      <trkpt lat="43.61395" lon="3.81294">
        <ele>44.879879918357</ele>
        <time>2020-09-20T09:58:48.000Z</time>
      </trkpt>
      <trkpt lat="43.61397" lon="3.813">
        <ele>44.779779850321</ele>
        <time>2020-09-20T09:58:49.000Z</time>
      </trkpt>
      <trkpt lat="43.614" lon="3.81307">
        <ele>44.679679782285</ele>
        <time>2020-09-20T09:58:50.000Z</time>
      </trkpt>
      <trkpt lat="43.61402" lon="3.81314">
        <ele>44.579579714249</ele>
        <time>2020-09-20T09:58:51.000Z</time>
      </trkpt>
      <trkpt lat="43.61403" lon="3.81321">
        <ele>44.479479646213</ele>
        <time>2020-09-20T09:58:52.000Z</time>
      </trkpt>
      <trkpt lat="43.61403" lon="3.81329">
        <ele>44.379379578177</ele>
        <time>2020-09-20T09:58:53.000Z</time>
      </trkpt>
      <trkpt lat="43.61404" lon="3.81337">
        <ele>44.279279510141</ele>
        <time>2020-09-20T09:58:54.000Z</time>
      </trkpt>
      <trkpt lat="43.61405" lon="3.81345">
        <ele>44.179179442105</ele>
        <time>2020-09-20T09:58:55.000Z</time>
      </trkpt>
      <trkpt lat="43.61405" lon="3.81352">
        <ele>44.079079374069</ele>
        <time>2020-09-20T09:58:56.000Z</time>
      </trkpt>
      <trkpt lat="43.61406" lon="3.8136">
        <ele>43.978395390947</ele>
        <time>2020-09-20T09:58:57.000Z</time>
      </trkpt>
      <trkpt lat="43.61407" lon="3.81368">
        <ele>43.87551473251</ele>
        <time>2020-09-20T09:58:58.000Z</time>
      </trkpt>
      <trkpt lat="43.61407" lon="3.81377">
        <ele>43.772634074074</ele>
        <time>2020-09-20T09:58:59.000Z</time>
      </trkpt>
      <trkpt lat="43.61409" lon="3.81385">
        <ele>43.669753415638</ele>
        <time>2020-09-20T09:59:00.000Z</time>
      </trkpt>
      <trkpt lat="43.61409" lon="3.81393">
        <ele>43.566872757202</ele>
        <time>2020-09-20T09:59:01.000Z</time>
      </trkpt>
      <trkpt lat="43.6141" lon="3.81401">
        <ele>43.463992098765</ele>
        <time>2020-09-20T09:59:02.000Z</time>
      </trkpt>
      <trkpt lat="43.61411" lon="3.81409">
        <ele>43.361111440329</ele>
        <time>2020-09-20T09:59:03.000Z</time>
      </trkpt>
      <trkpt lat="43.61411" lon="3.81417">
        <ele>43.258230781893</ele>
        <time>2020-09-20T09:59:04.000Z</time>
      </trkpt>
      <trkpt lat="43.61411" lon="3.81425">
        <ele>43.155350123457</ele>
        <time>2020-09-20T09:59:05.000Z</time>
      </trkpt>
      <trkpt lat="43.61412" lon="3.81433">
        <ele>43.052469465021</ele>
        <time>2020-09-20T09:59:06.000Z</time>
      </trkpt>
      <trkpt lat="43.61412" lon="3.81442">
        <ele>42.901804185526</ele>
        <time>2020-09-20T09:59:07.000Z</time>
      </trkpt>
      <trkpt lat="43.61412" lon="3.8145">
        <ele>42.701403255409</ele>
        <time>2020-09-20T09:59:08.000Z</time>
      </trkpt>
      <trkpt lat="43.61413" lon="3.81458">
        <ele>42.501002325292</ele>
        <time>2020-09-20T09:59:09.000Z</time>
      </trkpt>
      <trkpt lat="43.61413" lon="3.81466">
        <ele>42.300601395175</ele>
        <time>2020-09-20T09:59:10.000Z</time>
      </trkpt>
      <trkpt lat="43.61413" lon="3.81474">
        <ele>42.100200465058</ele>
        <time>2020-09-20T09:59:11.000Z</time>
      </trkpt>
      <trkpt lat="43.61413" lon="3.81482">
        <ele>41.899799534942</ele>
        <time>2020-09-20T09:59:12.000Z</time>
      </trkpt>
      <trkpt lat="43.61414" lon="3.8149">
        <ele>41.699398604825</ele>
        <time>2020-09-20T09:59:13.000Z</time>
      </trkpt>
      <trkpt lat="43.61414" lon="3.81498">
        <ele>41.498997674708</ele>
        <time>2020-09-20T09:59:14.000Z</time>
      </trkpt>
      <trkpt lat="43.61414" lon="3.81507">
        <ele>41.298596744591</ele>
        <time>2020-09-20T09:59:15.000Z</time>
      </trkpt>
      <trkpt lat="43.61415" lon="3.81515">
        <ele>41.098195814474</ele>
        <time>2020-09-20T09:59:16.000Z</time>
      </trkpt>
      <trkpt lat="43.61415" lon="3.81523">
        <ele>40.94899968</ele>
        <time>2020-09-20T09:59:17.000Z</time>
      </trkpt>
      <trkpt lat="43.61415" lon="3.81531">
        <ele>40.84899968</ele>
        <time>2020-09-20T09:59:18.000Z</time>
      </trkpt>
      <trkpt lat="43.61415" lon="3.81539">
        <ele>40.74899968</ele>
        <time>2020-09-20T09:59:19.000Z</time>
      </trkpt>
      <trkpt lat="43.61415" lon="3.81546">
        <ele>40.64899968</ele>
        <time>2020-09-20T09:59:20.000Z</time>
      </trkpt>
      <trkpt lat="43.61415" lon="3.81551">
        <ele>40.54899968</ele>
        <time>2020-09-20T09:59:21.000Z</time>
      </trkpt>
      <trkpt lat="43.61415" lon="3.81554">
        <ele>40.44899968</ele>
        <time>2020-09-20T09:59:22.000Z</time>
      </trkpt>
      <trkpt lat="43.61415" lon="3.81557">
        <ele>40.34899968</ele>
        <time>2020-09-20T09:59:23.000Z</time>
      </trkpt>
      <trkpt lat="43.61416" lon="3.81561">
        <ele>40.14899968</ele>
        <time>2020-09-20T09:59:25.000Z</time>
      </trkpt>
      <trkpt lat="43.61417" lon="3.81563">
        <ele>40.04899968</ele>
        <time>2020-09-20T09:59:26.000Z</time>
      </trkpt>
      <trkpt lat="43.6142" lon="3.81565">
        <ele>40</ele>
        <time>2020-09-20T09:59:27.000Z</time>
      </trkpt>
      <trkpt lat="43.61423" lon="3.81565">
        <ele>40</ele>
        <time>2020-09-20T09:59:28.000Z</time>
      </trkpt>
      <trkpt lat="43.61426" lon="3.81564">
        <ele>40</ele>
        <time>2020-09-20T09:59:29.000Z</time>
      </trkpt>
      <trkpt lat="43.6143" lon="3.81562">
        <ele>40</ele>
        <time>2020-09-20T09:59:30.000Z</time>
      </trkpt>
      <trkpt lat="43.61434" lon="3.81561">
        <ele>40</ele>
        <time>2020-09-20T09:59:31.000Z</time>
      </trkpt>
      <trkpt lat="43.61437" lon="3.81559">
        <ele>40</ele>
        <time>2020-09-20T09:59:32.000Z</time>
      </trkpt>
      <trkpt lat="43.61441" lon="3.81558">
        <ele>40</ele>
        <time>2020-09-20T09:59:33.000Z</time>
      </trkpt>
      <trkpt lat="43.61444" lon="3.81558">
        <ele>40</ele>
        <time>2020-09-20T09:59:34.000Z</time>
      </trkpt>
      <trkpt lat="43.61448" lon="3.81557">
        <ele>40</ele>
        <time>2020-09-20T09:59:35.000Z</time>
      </trkpt>
      <trkpt lat="43.61451" lon="3.81555">
        <ele>40</ele>
        <time>2020-09-20T09:59:36.000Z</time>
      </trkpt>
      <trkpt lat="43.61454" lon="3.81554">
        <ele>39.963451764776</ele>
        <time>2020-09-20T09:59:37.000Z</time>
      </trkpt>
      <trkpt lat="43.61456" lon="3.81553">
        <ele>39.861928889155</ele>
        <time>2020-09-20T09:59:38.000Z</time>
      </trkpt>
      <trkpt lat="43.61459" lon="3.81552">
        <ele>39.760406013533</ele>
        <time>2020-09-20T09:59:39.000Z</time>
      </trkpt>
      <trkpt lat="43.61461" lon="3.81552">
        <ele>39.658883137911</ele>
        <time>2020-09-20T09:59:40.000Z</time>
      </trkpt>
      <trkpt lat="43.61463" lon="3.81552">
        <ele>39.55736026229</ele>
        <time>2020-09-20T09:59:41.000Z</time>
      </trkpt>
      <trkpt lat="43.61465" lon="3.81552">
        <ele>39.455837386668</ele>
        <time>2020-09-20T09:59:42.000Z</time>
      </trkpt>
      <trkpt lat="43.61467" lon="3.81554">
        <ele>39.354314511046</ele>
        <time>2020-09-20T09:59:43.000Z</time>
      </trkpt>
      <trkpt lat="43.61468" lon="3.81556">
        <ele>39.252791635425</ele>
        <time>2020-09-20T09:59:44.000Z</time>
      </trkpt>
      <trkpt lat="43.6147" lon="3.81558">
        <ele>39.151268759803</ele>
        <time>2020-09-20T09:59:45.000Z</time>
      </trkpt>
      <trkpt lat="43.61472" lon="3.81562">
        <ele>39.049745884181</ele>
        <time>2020-09-20T09:59:46.000Z</time>
      </trkpt>
      <trkpt lat="43.61474" lon="3.81567">
        <ele>38.94899968</ele>
        <time>2020-09-20T09:59:47.000Z</time>
      </trkpt>
      <trkpt lat="43.61475" lon="3.81573">
        <ele>38.84899968</ele>
        <time>2020-09-20T09:59:48.000Z</time>
      </trkpt>
      <trkpt lat="43.61477" lon="3.81579">
        <ele>38.74899968</ele>
        <time>2020-09-20T09:59:49.000Z</time>
      </trkpt>
      <trkpt lat="43.61478" lon="3.81585">
        <ele>38.64899968</ele>
        <time>2020-09-20T09:59:50.000Z</time>
      </trkpt>
      <trkpt lat="43.6148" lon="3.81592">
        <ele>38.54899968</ele>
        <time>2020-09-20T09:59:51.000Z</time>
      </trkpt>
      <trkpt lat="43.61482" lon="3.81598">
        <ele>38.44899968</ele>
        <time>2020-09-20T09:59:52.000Z</time>
      </trkpt>
      <trkpt lat="43.61483" lon="3.81604">
        <ele>38.34899968</ele>
        <time>2020-09-20T09:59:53.000Z</time>
      </trkpt>
      <trkpt lat="43.61485" lon="3.81611">
        <ele>38.24899968</ele>
        <time>2020-09-20T09:59:54.000Z</time>
      </trkpt>
      <trkpt lat="43.61487" lon="3.81618">
        <ele>38.14899968</ele>
        <time>2020-09-20T09:59:55.000Z</time>
      </trkpt>
      <trkpt lat="43.61488" lon="3.81625">
        <ele>38.04899968</ele>
        <time>2020-09-20T09:59:56.000Z</time>
      </trkpt>
      <trkpt lat="43.6149" lon="3.81633">
        <ele>38.05100032</ele>
        <time>2020-09-20T09:59:57.000Z</time>
      </trkpt>
      <trkpt lat="43.61492" lon="3.8164">
        <ele>38.15100032</ele>
        <time>2020-09-20T09:59:58.000Z</time>
      </trkpt>
      <trkpt lat="43.61494" lon="3.81647">
        <ele>38.25100032</ele>
        <time>2020-09-20T09:59:59.000Z</time>
      </trkpt>
      <trkpt lat="43.61496" lon="3.81654">
        <ele>38.35100032</ele>
        <time>2020-09-20T10:00:00.000Z</time>
      </trkpt>
      <trkpt lat="43.61498" lon="3.81661">
        <ele>38.45100032</ele>
        <time>2020-09-20T10:00:01.000Z</time>
      </trkpt>
      <trkpt lat="43.615" lon="3.81668">
        <ele>38.55100032</ele>
        <time>2020-09-20T10:00:02.000Z</time>
      </trkpt>
      <trkpt lat="43.61502" lon="3.81674">
        <ele>38.65100032</ele>
        <time>2020-09-20T10:00:03.000Z</time>
      </trkpt>
      <trkpt lat="43.61503" lon="3.8168">
        <ele>38.75100032</ele>
        <time>2020-09-20T10:00:04.000Z</time>
      </trkpt>
      <trkpt lat="43.61505" lon="3.81685">
        <ele>38.85100032</ele>
        <time>2020-09-20T10:00:05.000Z</time>
      </trkpt>
      <trkpt lat="43.61507" lon="3.81691">
        <ele>38.95100032</ele>
        <time>2020-09-20T10:00:06.000Z</time>
      </trkpt>
      <trkpt lat="43.61509" lon="3.81697">
        <ele>39</ele>
        <time>2020-09-20T10:00:07.000Z</time>
      </trkpt>
      <trkpt lat="43.61511" lon="3.81703">
        <ele>39</ele>
        <time>2020-09-20T10:00:08.000Z</time>
      </trkpt>
      <trkpt lat="43.61513" lon="3.81709">
        <ele>39</ele>
        <time>2020-09-20T10:00:09.000Z</time>
      </trkpt>
      <trkpt lat="43.61514" lon="3.81715">
        <ele>39</ele>
        <time>2020-09-20T10:00:10.000Z</time>
      </trkpt>
      <trkpt lat="43.61516" lon="3.81721">
        <ele>39</ele>
        <time>2020-09-20T10:00:11.000Z</time>
      </trkpt>
      <trkpt lat="43.61518" lon="3.81727">
        <ele>39</ele>
        <time>2020-09-20T10:00:12.000Z</time>
      </trkpt>
      <trkpt lat="43.61519" lon="3.81734">
        <ele>39</ele>
        <time>2020-09-20T10:00:13.000Z</time>
      </trkpt>
      <trkpt lat="43.61521" lon="3.81741">
        <ele>39</ele>
        <time>2020-09-20T10:00:14.000Z</time>
      </trkpt>
      <trkpt lat="43.61523" lon="3.81748">
        <ele>39</ele>
        <time>2020-09-20T10:00:15.000Z</time>
      </trkpt>
      <trkpt lat="43.61525" lon="3.81754">
        <ele>39</ele>
        <time>2020-09-20T10:00:16.000Z</time>
      </trkpt>
      <trkpt lat="43.61526" lon="3.81761">
        <ele>39</ele>
        <time>2020-09-20T10:00:17.000Z</time>
      </trkpt>
      <trkpt lat="43.61528" lon="3.81768">
        <ele>39</ele>
        <time>2020-09-20T10:00:18.000Z</time>
      </trkpt>
      <trkpt lat="43.6153" lon="3.81774">
        <ele>39</ele>
        <time>2020-09-20T10:00:19.000Z</time>
      </trkpt>
      <trkpt lat="43.61531" lon="3.8178">
        <ele>39</ele>
        <time>2020-09-20T10:00:20.000Z</time>
      </trkpt>
      <trkpt lat="43.61533" lon="3.81785">
        <ele>39</ele>
        <time>2020-09-20T10:00:21.000Z</time>
      </trkpt>
      <trkpt lat="43.61534" lon="3.8179">
        <ele>39</ele>
        <time>2020-09-20T10:00:22.000Z</time>
      </trkpt>
      <trkpt lat="43.61535" lon="3.81796">
        <ele>39</ele>
        <time>2020-09-20T10:00:23.000Z</time>
      </trkpt>
      <trkpt lat="43.61537" lon="3.81802">
        <ele>39</ele>
        <time>2020-09-20T10:00:24.000Z</time>
      </trkpt>
      <trkpt lat="43.61539" lon="3.81809">
        <ele>39</ele>
        <time>2020-09-20T10:00:25.000Z</time>
      </trkpt>
      <trkpt lat="43.61541" lon="3.81815">
        <ele>39</ele>
        <time>2020-09-20T10:00:26.000Z</time>
      </trkpt>
      <trkpt lat="43.61542" lon="3.81822">
        <ele>38.94899968</ele>
        <time>2020-09-20T10:00:27.000Z</time>
      </trkpt>
      <trkpt lat="43.61544" lon="3.81828">
        <ele>38.84899968</ele>
        <time>2020-09-20T10:00:28.000Z</time>
      </trkpt>
      <trkpt lat="43.61545" lon="3.81834">
        <ele>38.74899968</ele>
        <time>2020-09-20T10:00:29.000Z</time>
      </trkpt>
      <trkpt lat="43.61547" lon="3.81839">
        <ele>38.64899968</ele>
        <time>2020-09-20T10:00:30.000Z</time>
      </trkpt>
      <trkpt lat="43.61549" lon="3.81843">
        <ele>38.54899968</ele>
        <time>2020-09-20T10:00:31.000Z</time>
      </trkpt>
      <trkpt lat="43.6155" lon="3.81849">
        <ele>38.44899968</ele>
        <time>2020-09-20T10:00:32.000Z</time>
      </trkpt>
      <trkpt lat="43.61551" lon="3.81855">
        <ele>38.34899968</ele>
        <time>2020-09-20T10:00:33.000Z</time>
      </trkpt>
      <trkpt lat="43.61553" lon="3.81861">
        <ele>38.24899968</ele>
        <time>2020-09-20T10:00:34.000Z</time>
      </trkpt>
      <trkpt lat="43.61554" lon="3.81867">
        <ele>38.14899968</ele>
        <time>2020-09-20T10:00:35.000Z</time>
      </trkpt>
      <trkpt lat="43.61555" lon="3.81873">
        <ele>38.04899968</ele>
        <time>2020-09-20T10:00:36.000Z</time>
      </trkpt>
      <trkpt lat="43.61556" lon="3.8188">
        <ele>38</ele>
        <time>2020-09-20T10:00:37.000Z</time>
      </trkpt>
      <trkpt lat="43.61556" lon="3.81886">
        <ele>38</ele>
        <time>2020-09-20T10:00:38.000Z</time>
      </trkpt>
      <trkpt lat="43.61556" lon="3.81892">
        <ele>38</ele>
        <time>2020-09-20T10:00:39.000Z</time>
      </trkpt>
      <trkpt lat="43.61556" lon="3.81899">
        <ele>38</ele>
        <time>2020-09-20T10:00:40.000Z</time>
      </trkpt>
      <trkpt lat="43.61555" lon="3.81905">
        <ele>38</ele>
        <time>2020-09-20T10:00:41.000Z</time>
      </trkpt>
      <trkpt lat="43.61554" lon="3.81911">
        <ele>38</ele>
        <time>2020-09-20T10:00:42.000Z</time>
      </trkpt>
      <trkpt lat="43.61554" lon="3.81918">
        <ele>38</ele>
        <time>2020-09-20T10:00:43.000Z</time>
      </trkpt>
      <trkpt lat="43.61553" lon="3.81924">
        <ele>38</ele>
        <time>2020-09-20T10:00:44.000Z</time>
      </trkpt>
      <trkpt lat="43.61553" lon="3.8193">
        <ele>38</ele>
        <time>2020-09-20T10:00:45.000Z</time>
      </trkpt>
      <trkpt lat="43.61552" lon="3.81937">
        <ele>38</ele>
        <time>2020-09-20T10:00:46.000Z</time>
      </trkpt>
      <trkpt lat="43.61551" lon="3.81943">
        <ele>38.05100032</ele>
        <time>2020-09-20T10:00:47.000Z</time>
      </trkpt>
      <trkpt lat="43.6155" lon="3.81949">
        <ele>38.15100032</ele>
        <time>2020-09-20T10:00:48.000Z</time>
      </trkpt>
      <trkpt lat="43.61548" lon="3.81955">
        <ele>38.25100032</ele>
        <time>2020-09-20T10:00:49.000Z</time>
      </trkpt>
      <trkpt lat="43.61546" lon="3.8196">
        <ele>38.35100032</ele>
        <time>2020-09-20T10:00:50.000Z</time>
      </trkpt>
      <trkpt lat="43.61545" lon="3.81966">
        <ele>38.45100032</ele>
        <time>2020-09-20T10:00:51.000Z</time>
      </trkpt>
      <trkpt lat="43.61543" lon="3.81971">
        <ele>38.55100032</ele>
        <time>2020-09-20T10:00:52.000Z</time>
      </trkpt>
      <trkpt lat="43.61542" lon="3.81977">
        <ele>38.65100032</ele>
        <time>2020-09-20T10:00:53.000Z</time>
      </trkpt>
      <trkpt lat="43.61541" lon="3.81982">
        <ele>38.75100032</ele>
        <time>2020-09-20T10:00:54.000Z</time>
      </trkpt>
      <trkpt lat="43.6154" lon="3.81988">
        <ele>38.85100032</ele>
        <time>2020-09-20T10:00:55.000Z</time>
      </trkpt>
      <trkpt lat="43.61539" lon="3.81993">
        <ele>38.95100032</ele>
        <time>2020-09-20T10:00:56.000Z</time>
      </trkpt>
      <trkpt lat="43.61538" lon="3.81998">
        <ele>39</ele>
        <time>2020-09-20T10:00:57.000Z</time>
      </trkpt>
      <trkpt lat="43.61537" lon="3.82004">
        <ele>39</ele>
        <time>2020-09-20T10:00:58.000Z</time>
      </trkpt>
      <trkpt lat="43.61536" lon="3.82009">
        <ele>39</ele>
        <time>2020-09-20T10:00:59.000Z</time>
      </trkpt>
      <trkpt lat="43.61535" lon="3.82014">
        <ele>39</ele>
        <time>2020-09-20T10:01:00.000Z</time>
      </trkpt>
      <trkpt lat="43.61533" lon="3.82018">
        <ele>39</ele>
        <time>2020-09-20T10:01:01.000Z</time>
      </trkpt>
      <trkpt lat="43.61532" lon="3.82022">
        <ele>39</ele>
        <time>2020-09-20T10:01:02.000Z</time>
      </trkpt>
      <trkpt lat="43.61532" lon="3.82025">
        <ele>39</ele>
        <time>2020-09-20T10:01:03.000Z</time>
      </trkpt>
      <trkpt lat="43.61531" lon="3.82028">
        <ele>39</ele>
        <time>2020-09-20T10:01:04.000Z</time>
      </trkpt>
      <trkpt lat="43.61531" lon="3.82033">
        <ele>39</ele>
        <time>2020-09-20T10:01:05.000Z</time>
      </trkpt>
      <trkpt lat="43.61531" lon="3.82037">
        <ele>39</ele>
        <time>2020-09-20T10:01:06.000Z</time>
      </trkpt>
      <trkpt lat="43.6153" lon="3.82042">
        <ele>39.028629875586</ele>
        <time>2020-09-20T10:01:07.000Z</time>
      </trkpt>
      <trkpt lat="43.6153" lon="3.82047">
        <ele>39.13087943125</ele>
        <time>2020-09-20T10:01:08.000Z</time>
      </trkpt>
      <trkpt lat="43.61529" lon="3.82052">
        <ele>39.233128986915</ele>
        <time>2020-09-20T10:01:09.000Z</time>
      </trkpt>
      <trkpt lat="43.61529" lon="3.82057">
        <ele>39.335378542579</ele>
        <time>2020-09-20T10:01:10.000Z</time>
      </trkpt>
      <trkpt lat="43.61528" lon="3.82062">
        <ele>39.437628098243</ele>
        <time>2020-09-20T10:01:11.000Z</time>
      </trkpt>
      <trkpt lat="43.61528" lon="3.82067">
        <ele>39.539877653908</ele>
        <time>2020-09-20T10:01:12.000Z</time>
      </trkpt>
      <trkpt lat="43.61527" lon="3.82071">
        <ele>39.642127209572</ele>
        <time>2020-09-20T10:01:13.000Z</time>
      </trkpt>
      <trkpt lat="43.61527" lon="3.82076">
        <ele>39.744376765236</ele>
        <time>2020-09-20T10:01:14.000Z</time>
      </trkpt>
      <trkpt lat="43.61527" lon="3.8208">
        <ele>39.846626320901</ele>
        <time>2020-09-20T10:01:15.000Z</time>
      </trkpt>
      <trkpt lat="43.61526" lon="3.82085">
        <ele>39.948875876565</ele>
        <time>2020-09-20T10:01:16.000Z</time>
      </trkpt>
      <trkpt lat="43.61526" lon="3.82089">
        <ele>40</ele>
        <time>2020-09-20T10:01:17.000Z</time>
      </trkpt>
      <trkpt lat="43.61525" lon="3.82093">
        <ele>40</ele>
        <time>2020-09-20T10:01:18.000Z</time>
      </trkpt>
      <trkpt lat="43.61525" lon="3.82097">
        <ele>40</ele>
        <time>2020-09-20T10:01:19.000Z</time>
      </trkpt>
      <trkpt lat="43.61525" lon="3.82101">
        <ele>40</ele>
        <time>2020-09-20T10:01:20.000Z</time>
      </trkpt>
      <trkpt lat="43.61525" lon="3.82105">
        <ele>40</ele>
        <time>2020-09-20T10:01:21.000Z</time>
      </trkpt>
      <trkpt lat="43.61524" lon="3.82109">
        <ele>40</ele>
        <time>2020-09-20T10:01:22.000Z</time>
      </trkpt>
      <trkpt lat="43.61524" lon="3.82112">
        <ele>40</ele>
        <time>2020-09-20T10:01:23.000Z</time>
      </trkpt>
      <trkpt lat="43.61524" lon="3.82116">
        <ele>40</ele>
        <time>2020-09-20T10:01:24.000Z</time>
      </trkpt>
      <trkpt lat="43.61524" lon="3.8212">
        <ele>40</ele>
        <time>2020-09-20T10:01:25.000Z</time>
      </trkpt>
      <trkpt lat="43.61524" lon="3.82123">
        <ele>40</ele>
        <time>2020-09-20T10:01:26.000Z</time>
      </trkpt>
      <trkpt lat="43.61523" lon="3.82126">
        <ele>40.049048775863</ele>
        <time>2020-09-20T10:01:27.000Z</time>
      </trkpt>
      <trkpt lat="43.61522" lon="3.82132">
        <ele>40.149148972155</ele>
        <time>2020-09-20T10:01:28.000Z</time>
      </trkpt>
      <trkpt lat="43.61521" lon="3.82137">
        <ele>40.249249168448</ele>
        <time>2020-09-20T10:01:29.000Z</time>
      </trkpt>
      <trkpt lat="43.6152" lon="3.82142">
        <ele>40.34934936474</ele>
        <time>2020-09-20T10:01:30.000Z</time>
      </trkpt>
      <trkpt lat="43.61519" lon="3.82147">
        <ele>40.449449561033</ele>
        <time>2020-09-20T10:01:31.000Z</time>
      </trkpt>
      <trkpt lat="43.61518" lon="3.82152">
        <ele>40.549549757325</ele>
        <time>2020-09-20T10:01:32.000Z</time>
      </trkpt>
      <trkpt lat="43.61518" lon="3.82156">
        <ele>40.649649953618</ele>
        <time>2020-09-20T10:01:33.000Z</time>
      </trkpt>
      <trkpt lat="43.61517" lon="3.82161">
        <ele>40.74975014991</ele>
        <time>2020-09-20T10:01:34.000Z</time>
      </trkpt>
      <trkpt lat="43.61516" lon="3.82165">
        <ele>40.849850346203</ele>
        <time>2020-09-20T10:01:35.000Z</time>
      </trkpt>
      <trkpt lat="43.61516" lon="3.82169">
        <ele>40.949950542495</ele>
        <time>2020-09-20T10:01:36.000Z</time>
      </trkpt>
      <trkpt lat="43.61515" lon="3.82174">
        <ele>41.097277388604</ele>
        <time>2020-09-20T10:01:37.000Z</time>
      </trkpt>
      <trkpt lat="43.61515" lon="3.82178">
        <ele>41.291829675543</ele>
        <time>2020-09-20T10:01:38.000Z</time>
      </trkpt>
      <trkpt lat="43.61515" lon="3.82182">
        <ele>41.486381962482</ele>
        <time>2020-09-20T10:01:39.000Z</time>
      </trkpt>
      <trkpt lat="43.61515" lon="3.82186">
        <ele>41.68093424942</ele>
        <time>2020-09-20T10:01:40.000Z</time>
      </trkpt>
      <trkpt lat="43.61515" lon="3.8219">
        <ele>41.875486536359</ele>
        <time>2020-09-20T10:01:41.000Z</time>
      </trkpt>
      <trkpt lat="43.61514" lon="3.82194">
        <ele>42.070038823298</ele>
        <time>2020-09-20T10:01:42.000Z</time>
      </trkpt>
      <trkpt lat="43.61513" lon="3.82198">
        <ele>42.264591110237</ele>
        <time>2020-09-20T10:01:43.000Z</time>
      </trkpt>
      <trkpt lat="43.61513" lon="3.82202">
        <ele>42.459143397176</ele>
        <time>2020-09-20T10:01:44.000Z</time>
      </trkpt>
      <trkpt lat="43.61511" lon="3.82206">
        <ele>42.653695684114</ele>
        <time>2020-09-20T10:01:45.000Z</time>
      </trkpt>
      <trkpt lat="43.6151" lon="3.8221">
        <ele>42.848247971053</ele>
        <time>2020-09-20T10:01:46.000Z</time>
      </trkpt>
      <trkpt lat="43.61511" lon="3.82215">
        <ele>43.022656417868</ele>
        <time>2020-09-20T10:01:47.000Z</time>
      </trkpt>
      <trkpt lat="43.61511" lon="3.82219">
        <ele>43.125643131429</ele>
        <time>2020-09-20T10:01:48.000Z</time>
      </trkpt>
      <trkpt lat="43.61512" lon="3.82223">
        <ele>43.228629844989</ele>
        <time>2020-09-20T10:01:49.000Z</time>
      </trkpt>
      <trkpt lat="43.61513" lon="3.82228">
        <ele>43.33161655855</ele>
        <time>2020-09-20T10:01:50.000Z</time>
      </trkpt>
      <trkpt lat="43.61513" lon="3.82232">
        <ele>43.43460327211</ele>
        <time>2020-09-20T10:01:51.000Z</time>
      </trkpt>
      <trkpt lat="43.61512" lon="3.82237">
        <ele>43.537589985671</ele>
        <time>2020-09-20T10:01:52.000Z</time>
      </trkpt>
      <trkpt lat="43.61512" lon="3.82241">
        <ele>43.640576699231</ele>
        <time>2020-09-20T10:01:53.000Z</time>
      </trkpt>
      <trkpt lat="43.61512" lon="3.82246">
        <ele>43.743563412792</ele>
        <time>2020-09-20T10:01:54.000Z</time>
      </trkpt>
      <trkpt lat="43.61511" lon="3.8225">
        <ele>43.846550126352</ele>
        <time>2020-09-20T10:01:55.000Z</time>
      </trkpt>
      <trkpt lat="43.61511" lon="3.82254">
        <ele>43.949536839913</ele>
        <time>2020-09-20T10:01:56.000Z</time>
      </trkpt>
      <trkpt lat="43.61511" lon="3.82259">
        <ele>44.10200064</ele>
        <time>2020-09-20T10:01:57.000Z</time>
      </trkpt>
      <trkpt lat="43.6151" lon="3.82263">
        <ele>44.30200064</ele>
        <time>2020-09-20T10:01:58.000Z</time>
      </trkpt>
      <trkpt lat="43.6151" lon="3.82268">
        <ele>44.50200064</ele>
        <time>2020-09-20T10:01:59.000Z</time>
      </trkpt>
      <trkpt lat="43.61509" lon="3.82272">
        <ele>44.70200064</ele>
        <time>2020-09-20T10:02:00.000Z</time>
      </trkpt>
      <trkpt lat="43.61509" lon="3.82276">
        <ele>44.90200064</ele>
        <time>2020-09-20T10:02:01.000Z</time>
      </trkpt>
      <trkpt lat="43.61508" lon="3.82281">
        <ele>45.10200064</ele>
        <time>2020-09-20T10:02:02.000Z</time>
      </trkpt>
      <trkpt lat="43.61507" lon="3.82285">
        <ele>45.30200064</ele>
        <time>2020-09-20T10:02:03.000Z</time>
      </trkpt>
      <trkpt lat="43.61507" lon="3.8229">
        <ele>45.50200064</ele>
        <time>2020-09-20T10:02:04.000Z</time>
      </trkpt>
      <trkpt lat="43.61507" lon="3.82294">
        <ele>45.70200064</ele>
        <time>2020-09-20T10:02:05.000Z</time>
      </trkpt>
      <trkpt lat="43.61506" lon="3.82299">
        <ele>45.90200064</ele>
        <time>2020-09-20T10:02:06.000Z</time>
      </trkpt>
      <trkpt lat="43.61506" lon="3.82303">
        <ele>46.05100032</ele>
        <time>2020-09-20T10:02:07.000Z</time>
      </trkpt>
      <trkpt lat="43.61505" lon="3.82307">
        <ele>46.15100032</ele>
        <time>2020-09-20T10:02:08.000Z</time>
      </trkpt>
      <trkpt lat="43.61504" lon="3.82312">
        <ele>46.25100032</ele>
        <time>2020-09-20T10:02:09.000Z</time>
      </trkpt>
      <trkpt lat="43.61504" lon="3.82316">
        <ele>46.35100032</ele>
        <time>2020-09-20T10:02:10.000Z</time>
      </trkpt>
      <trkpt lat="43.61503" lon="3.8232">
        <ele>46.45100032</ele>
        <time>2020-09-20T10:02:11.000Z</time>
      </trkpt>
      <trkpt lat="43.61503" lon="3.82324">
        <ele>46.55100032</ele>
        <time>2020-09-20T10:02:12.000Z</time>
      </trkpt>
      <trkpt lat="43.61502" lon="3.82329">
        <ele>46.65100032</ele>
        <time>2020-09-20T10:02:13.000Z</time>
      </trkpt>
      <trkpt lat="43.61502" lon="3.82333">
        <ele>46.75100032</ele>
        <time>2020-09-20T10:02:14.000Z</time>
      </trkpt>
      <trkpt lat="43.61501" lon="3.82337">
        <ele>46.85100032</ele>
        <time>2020-09-20T10:02:15.000Z</time>
      </trkpt>
      <trkpt lat="43.61501" lon="3.82341">
        <ele>46.95100032</ele>
        <time>2020-09-20T10:02:16.000Z</time>
      </trkpt>
      <trkpt lat="43.615" lon="3.82346">
        <ele>47.101796980888</ele>
        <time>2020-09-20T10:02:17.000Z</time>
      </trkpt>
      <trkpt lat="43.615" lon="3.8235">
        <ele>47.301397651802</ele>
        <time>2020-09-20T10:02:18.000Z</time>
      </trkpt>
      <trkpt lat="43.61499" lon="3.82355">
        <ele>47.500998322716</ele>
        <time>2020-09-20T10:02:19.000Z</time>
      </trkpt>
      <trkpt lat="43.61499" lon="3.82359">
        <ele>47.700598993629</ele>
        <time>2020-09-20T10:02:20.000Z</time>
      </trkpt>
      <trkpt lat="43.61498" lon="3.82363">
        <ele>47.900199664543</ele>
        <time>2020-09-20T10:02:21.000Z</time>
      </trkpt>
      <trkpt lat="43.61498" lon="3.82367">
        <ele>48.099800335457</ele>
        <time>2020-09-20T10:02:22.000Z</time>
      </trkpt>
      <trkpt lat="43.61497" lon="3.82371">
        <ele>48.299401006371</ele>
        <time>2020-09-20T10:02:23.000Z</time>
      </trkpt>
      <trkpt lat="43.61497" lon="3.82375">
        <ele>48.499001677284</ele>
        <time>2020-09-20T10:02:24.000Z</time>
      </trkpt>
      <trkpt lat="43.61496" lon="3.82379">
        <ele>48.698602348198</ele>
        <time>2020-09-20T10:02:25.000Z</time>
      </trkpt>
      <trkpt lat="43.61495" lon="3.82383">
        <ele>48.898203019112</ele>
        <time>2020-09-20T10:02:26.000Z</time>
      </trkpt>
      <trkpt lat="43.61494" lon="3.82386">
        <ele>49.098195814474</ele>
        <time>2020-09-20T10:02:27.000Z</time>
      </trkpt>
      <trkpt lat="43.61493" lon="3.8239">
        <ele>49.298596744591</ele>
        <time>2020-09-20T10:02:28.000Z</time>
      </trkpt>
      <trkpt lat="43.61492" lon="3.82395">
        <ele>49.498997674708</ele>
        <time>2020-09-20T10:02:29.000Z</time>
      </trkpt>
      <trkpt lat="43.61492" lon="3.82399">
        <ele>49.699398604825</ele>
        <time>2020-09-20T10:02:30.000Z</time>
      </trkpt>
      <trkpt lat="43.61492" lon="3.82403">
        <ele>49.899799534942</ele>
        <time>2020-09-20T10:02:31.000Z</time>
      </trkpt>
      <trkpt lat="43.61492" lon="3.82407">
        <ele>50.100200465058</ele>
        <time>2020-09-20T10:02:32.000Z</time>
      </trkpt>
      <trkpt lat="43.61491" lon="3.82411">
        <ele>50.300601395175</ele>
        <time>2020-09-20T10:02:33.000Z</time>
      </trkpt>
      <trkpt lat="43.61491" lon="3.82415">
        <ele>50.501002325292</ele>
        <time>2020-09-20T10:02:34.000Z</time>
      </trkpt>
      <trkpt lat="43.61491" lon="3.82418">
        <ele>50.701403255409</ele>
        <time>2020-09-20T10:02:35.000Z</time>
      </trkpt>
      <trkpt lat="43.61491" lon="3.82422">
        <ele>50.901804185526</ele>
        <time>2020-09-20T10:02:36.000Z</time>
      </trkpt>
      <trkpt lat="43.61491" lon="3.82426">
        <ele>51.10200064</ele>
        <time>2020-09-20T10:02:37.000Z</time>
      </trkpt>
      <trkpt lat="43.61491" lon="3.8243">
        <ele>51.30200064</ele>
        <time>2020-09-20T10:02:38.000Z</time>
      </trkpt>
      <trkpt lat="43.61491" lon="3.82434">
        <ele>51.50200064</ele>
        <time>2020-09-20T10:02:39.000Z</time>
      </trkpt>
      <trkpt lat="43.61491" lon="3.82437">
        <ele>51.70200064</ele>
        <time>2020-09-20T10:02:40.000Z</time>
      </trkpt>
      <trkpt lat="43.61491" lon="3.82441">
        <ele>51.90200064</ele>
        <time>2020-09-20T10:02:41.000Z</time>
      </trkpt>
      <trkpt lat="43.6149" lon="3.82445">
        <ele>52.10200064</ele>
        <time>2020-09-20T10:02:42.000Z</time>
      </trkpt>
      <trkpt lat="43.6149" lon="3.82448">
        <ele>52.30200064</ele>
        <time>2020-09-20T10:02:43.000Z</time>
      </trkpt>
      <trkpt lat="43.6149" lon="3.82452">
        <ele>52.50200064</ele>
        <time>2020-09-20T10:02:44.000Z</time>
      </trkpt>
      <trkpt lat="43.6149" lon="3.82456">
        <ele>52.70200064</ele>
        <time>2020-09-20T10:02:45.000Z</time>
      </trkpt>
      <trkpt lat="43.61489" lon="3.82459">
        <ele>52.90200064</ele>
        <time>2020-09-20T10:02:46.000Z</time>
      </trkpt>
      <trkpt lat="43.61489" lon="3.82463">
        <ele>53.05100032</ele>
        <time>2020-09-20T10:02:47.000Z</time>
      </trkpt>
      <trkpt lat="43.61489" lon="3.82467">
        <ele>53.15100032</ele>
        <time>2020-09-20T10:02:48.000Z</time>
      </trkpt>
      <trkpt lat="43.61488" lon="3.8247">
        <ele>53.25100032</ele>
        <time>2020-09-20T10:02:49.000Z</time>
      </trkpt>
      <trkpt lat="43.61488" lon="3.82474">
        <ele>53.35100032</ele>
        <time>2020-09-20T10:02:50.000Z</time>
      </trkpt>
      <trkpt lat="43.61487" lon="3.82478">
        <ele>53.45100032</ele>
        <time>2020-09-20T10:02:51.000Z</time>
      </trkpt>
      <trkpt lat="43.61487" lon="3.82482">
        <ele>53.55100032</ele>
        <time>2020-09-20T10:02:52.000Z</time>
      </trkpt>
      <trkpt lat="43.61487" lon="3.82486">
        <ele>53.65100032</ele>
        <time>2020-09-20T10:02:53.000Z</time>
      </trkpt>
      <trkpt lat="43.61487" lon="3.8249">
        <ele>53.75100032</ele>
        <time>2020-09-20T10:02:54.000Z</time>
      </trkpt>
      <trkpt lat="43.61487" lon="3.82494">
        <ele>53.85100032</ele>
        <time>2020-09-20T10:02:55.000Z</time>
      </trkpt>
      <trkpt lat="43.61487" lon="3.82497">
        <ele>53.95100032</ele>
        <time>2020-09-20T10:02:56.000Z</time>
      </trkpt>
      <trkpt lat="43.61487" lon="3.82501">
        <ele>54.05100032</ele>
        <time>2020-09-20T10:02:57.000Z</time>
      </trkpt>
      <trkpt lat="43.61487" lon="3.82505">
        <ele>54.15100032</ele>
        <time>2020-09-20T10:02:58.000Z</time>
      </trkpt>
      <trkpt lat="43.61487" lon="3.82509">
        <ele>54.25100032</ele>
        <time>2020-09-20T10:02:59.000Z</time>
      </trkpt>
      <trkpt lat="43.61487" lon="3.82513">
        <ele>54.35100032</ele>
        <time>2020-09-20T10:03:00.000Z</time>
      </trkpt>
      <trkpt lat="43.61487" lon="3.82517">
        <ele>54.45100032</ele>
        <time>2020-09-20T10:03:01.000Z</time>
      </trkpt>
      <trkpt lat="43.61487" lon="3.82521">
        <ele>54.55100032</ele>
        <time>2020-09-20T10:03:02.000Z</time>
      </trkpt>
      <trkpt lat="43.61487" lon="3.82524">
        <ele>54.65100032</ele>
        <time>2020-09-20T10:03:03.000Z</time>
      </trkpt>
      <trkpt lat="43.61487" lon="3.82528">
        <ele>54.75100032</ele>
        <time>2020-09-20T10:03:04.000Z</time>
      </trkpt>
      <trkpt lat="43.61486" lon="3.82532">
        <ele>54.85100032</ele>
        <time>2020-09-20T10:03:05.000Z</time>
      </trkpt>
      <trkpt lat="43.61486" lon="3.82535">
        <ele>54.95100032</ele>
        <time>2020-09-20T10:03:06.000Z</time>
      </trkpt>
      <trkpt lat="43.61486" lon="3.82539">
        <ele>55.10200064</ele>
        <time>2020-09-20T10:03:07.000Z</time>
      </trkpt>
      <trkpt lat="43.61486" lon="3.82543">
        <ele>55.30200064</ele>
        <time>2020-09-20T10:03:08.000Z</time>
      </trkpt>
      <trkpt lat="43.61486" lon="3.82546">
        <ele>55.50200064</ele>
        <time>2020-09-20T10:03:09.000Z</time>
      </trkpt>
      <trkpt lat="43.61486" lon="3.82549">
        <ele>55.70200064</ele>
        <time>2020-09-20T10:03:10.000Z</time>
      </trkpt>
      <trkpt lat="43.61487" lon="3.82552">
        <ele>55.90200064</ele>
        <time>2020-09-20T10:03:11.000Z</time>
      </trkpt>
      <trkpt lat="43.61487" lon="3.82556">
        <ele>56.10200064</ele>
        <time>2020-09-20T10:03:12.000Z</time>
      </trkpt>
      <trkpt lat="43.61486" lon="3.82559">
        <ele>56.30200064</ele>
        <time>2020-09-20T10:03:13.000Z</time>
      </trkpt>
      <trkpt lat="43.61487" lon="3.82562">
        <ele>56.50200064</ele>
        <time>2020-09-20T10:03:14.000Z</time>
      </trkpt>
      <trkpt lat="43.61487" lon="3.82566">
        <ele>56.70200064</ele>
        <time>2020-09-20T10:03:15.000Z</time>
      </trkpt>
      <trkpt lat="43.61488" lon="3.82569">
        <ele>56.90200064</ele>
        <time>2020-09-20T10:03:16.000Z</time>
      </trkpt>
      <trkpt lat="43.61488" lon="3.82572">
        <ele>57.04975642529</ele>
        <time>2020-09-20T10:03:17.000Z</time>
      </trkpt>
      <trkpt lat="43.61488" lon="3.82575">
        <ele>57.147317431358</ele>
        <time>2020-09-20T10:03:18.000Z</time>
      </trkpt>
      <trkpt lat="43.61488" lon="3.82578">
        <ele>57.244878437425</ele>
        <time>2020-09-20T10:03:19.000Z</time>
      </trkpt>
      <trkpt lat="43.61488" lon="3.82581">
        <ele>57.342439443493</ele>
        <time>2020-09-20T10:03:20.000Z</time>
      </trkpt>
      <trkpt lat="43.61488" lon="3.82585">
        <ele>57.440000449561</ele>
        <time>2020-09-20T10:03:21.000Z</time>
      </trkpt>
      <trkpt lat="43.61487" lon="3.82587">
        <ele>57.537561455629</ele>
        <time>2020-09-20T10:03:22.000Z</time>
      </trkpt>
      <trkpt lat="43.61486" lon="3.8259">
        <ele>57.635122461697</ele>
        <time>2020-09-20T10:03:23.000Z</time>
      </trkpt>
      <trkpt lat="43.61485" lon="3.82593">
        <ele>57.732683467765</ele>
        <time>2020-09-20T10:03:24.000Z</time>
      </trkpt>
      <trkpt lat="43.61485" lon="3.82597">
        <ele>57.830244473832</ele>
        <time>2020-09-20T10:03:25.000Z</time>
      </trkpt>
      <trkpt lat="43.61485" lon="3.82601">
        <ele>58.053334628649</ele>
        <time>2020-09-20T10:03:27.000Z</time>
      </trkpt>
      <trkpt lat="43.61487" lon="3.82602">
        <ele>58.258462766453</ele>
        <time>2020-09-20T10:03:28.000Z</time>
      </trkpt>
      <trkpt lat="43.61489" lon="3.82603">
        <ele>58.463590904257</ele>
        <time>2020-09-20T10:03:29.000Z</time>
      </trkpt>
      <trkpt lat="43.61491" lon="3.82606">
        <ele>58.668719042061</ele>
        <time>2020-09-20T10:03:30.000Z</time>
      </trkpt>
      <trkpt lat="43.61492" lon="3.82609">
        <ele>58.873847179865</ele>
        <time>2020-09-20T10:03:31.000Z</time>
      </trkpt>
      <trkpt lat="43.61492" lon="3.82613">
        <ele>59.07897531767</ele>
        <time>2020-09-20T10:03:32.000Z</time>
      </trkpt>
      <trkpt lat="43.61492" lon="3.82617">
        <ele>59.284103455474</ele>
        <time>2020-09-20T10:03:33.000Z</time>
      </trkpt>
      <trkpt lat="43.61492" lon="3.82622">
        <ele>59.489231593278</ele>
        <time>2020-09-20T10:03:34.000Z</time>
      </trkpt>
      <trkpt lat="43.61492" lon="3.82627">
        <ele>59.694359731082</ele>
        <time>2020-09-20T10:03:35.000Z</time>
      </trkpt>
      <trkpt lat="43.61492" lon="3.82632">
        <ele>59.899487868886</ele>
        <time>2020-09-20T10:03:36.000Z</time>
      </trkpt>
      <trkpt lat="43.61491" lon="3.82637">
        <ele>60.05100032</ele>
        <time>2020-09-20T10:03:37.000Z</time>
      </trkpt>
      <trkpt lat="43.61491" lon="3.82642">
        <ele>60.15100032</ele>
        <time>2020-09-20T10:03:38.000Z</time>
      </trkpt>
      <trkpt lat="43.61491" lon="3.82647">
        <ele>60.25100032</ele>
        <time>2020-09-20T10:03:39.000Z</time>
      </trkpt>
      <trkpt lat="43.6149" lon="3.82652">
        <ele>60.35100032</ele>
        <time>2020-09-20T10:03:40.000Z</time>
      </trkpt>
      <trkpt lat="43.6149" lon="3.82657">
        <ele>60.45100032</ele>
        <time>2020-09-20T10:03:41.000Z</time>
      </trkpt>
      <trkpt lat="43.61489" lon="3.82661">
        <ele>60.55100032</ele>
        <time>2020-09-20T10:03:42.000Z</time>
      </trkpt>
      <trkpt lat="43.61489" lon="3.82666">
        <ele>60.65100032</ele>
        <time>2020-09-20T10:03:43.000Z</time>
      </trkpt>
      <trkpt lat="43.61488" lon="3.82671">
        <ele>60.75100032</ele>
        <time>2020-09-20T10:03:44.000Z</time>
      </trkpt>
      <trkpt lat="43.61488" lon="3.82676">
        <ele>60.85100032</ele>
        <time>2020-09-20T10:03:45.000Z</time>
      </trkpt>
      <trkpt lat="43.61487" lon="3.82681">
        <ele>60.95100032</ele>
        <time>2020-09-20T10:03:46.000Z</time>
      </trkpt>
      <trkpt lat="43.61486" lon="3.82685">
        <ele>61.05100032</ele>
        <time>2020-09-20T10:03:47.000Z</time>
      </trkpt>
      <trkpt lat="43.61486" lon="3.8269">
        <ele>61.15100032</ele>
        <time>2020-09-20T10:03:48.000Z</time>
      </trkpt>
      <trkpt lat="43.61486" lon="3.82695">
        <ele>61.25100032</ele>
        <time>2020-09-20T10:03:49.000Z</time>
      </trkpt>
      <trkpt lat="43.61485" lon="3.827">
        <ele>61.35100032</ele>
        <time>2020-09-20T10:03:50.000Z</time>
      </trkpt>
      <trkpt lat="43.61484" lon="3.82704">
        <ele>61.45100032</ele>
        <time>2020-09-20T10:03:51.000Z</time>
      </trkpt>
      <trkpt lat="43.61483" lon="3.82709">
        <ele>61.55100032</ele>
        <time>2020-09-20T10:03:52.000Z</time>
      </trkpt>
      <trkpt lat="43.61482" lon="3.82714">
        <ele>61.65100032</ele>
        <time>2020-09-20T10:03:53.000Z</time>
      </trkpt>
      <trkpt lat="43.61481" lon="3.82718">
        <ele>61.75100032</ele>
        <time>2020-09-20T10:03:54.000Z</time>
      </trkpt>
      <trkpt lat="43.61481" lon="3.82723">
        <ele>61.85100032</ele>
        <time>2020-09-20T10:03:55.000Z</time>
      </trkpt>
      <trkpt lat="43.6148" lon="3.82727">
        <ele>61.95100032</ele>
        <time>2020-09-20T10:03:56.000Z</time>
      </trkpt>
      <trkpt lat="43.61479" lon="3.8273">
        <ele>62.10200064</ele>
        <time>2020-09-20T10:03:57.000Z</time>
      </trkpt>
      <trkpt lat="43.61478" lon="3.82733">
        <ele>62.30200064</ele>
        <time>2020-09-20T10:03:58.000Z</time>
      </trkpt>
      <trkpt lat="43.61476" lon="3.82737">
        <ele>62.50200064</ele>
        <time>2020-09-20T10:03:59.000Z</time>
      </trkpt>
      <trkpt lat="43.61476" lon="3.8274">
        <ele>62.70200064</ele>
        <time>2020-09-20T10:04:00.000Z</time>
      </trkpt>
      <trkpt lat="43.61476" lon="3.82743">
        <ele>62.90200064</ele>
        <time>2020-09-20T10:04:01.000Z</time>
      </trkpt>
      <trkpt lat="43.61476" lon="3.82746">
        <ele>63.10200064</ele>
        <time>2020-09-20T10:04:02.000Z</time>
      </trkpt>
      <trkpt lat="43.61475" lon="3.82749">
        <ele>63.30200064</ele>
        <time>2020-09-20T10:04:03.000Z</time>
      </trkpt>
      <trkpt lat="43.61475" lon="3.82753">
        <ele>63.50200064</ele>
        <time>2020-09-20T10:04:04.000Z</time>
      </trkpt>
      <trkpt lat="43.61475" lon="3.82756">
        <ele>63.70200064</ele>
        <time>2020-09-20T10:04:05.000Z</time>
      </trkpt>
      <trkpt lat="43.61474" lon="3.8276">
        <ele>63.90200064</ele>
        <time>2020-09-20T10:04:06.000Z</time>
      </trkpt>
      <trkpt lat="43.61473" lon="3.82765">
        <ele>64.05100032</ele>
        <time>2020-09-20T10:04:07.000Z</time>
      </trkpt>
      <trkpt lat="43.61472" lon="3.82769">
        <ele>64.15100032</ele>
        <time>2020-09-20T10:04:08.000Z</time>
      </trkpt>
      <trkpt lat="43.61471" lon="3.82773">
        <ele>64.25100032</ele>
        <time>2020-09-20T10:04:09.000Z</time>
      </trkpt>
      <trkpt lat="43.6147" lon="3.82777">
        <ele>64.35100032</ele>
        <time>2020-09-20T10:04:10.000Z</time>
      </trkpt>
      <trkpt lat="43.61469" lon="3.82781">
        <ele>64.45100032</ele>
        <time>2020-09-20T10:04:11.000Z</time>
      </trkpt>
      <trkpt lat="43.61468" lon="3.82785">
        <ele>64.55100032</ele>
        <time>2020-09-20T10:04:12.000Z</time>
      </trkpt>
      <trkpt lat="43.61468" lon="3.82789">
        <ele>64.65100032</ele>
        <time>2020-09-20T10:04:13.000Z</time>
      </trkpt>
      <trkpt lat="43.61467" lon="3.82792">
        <ele>64.75100032</ele>
        <time>2020-09-20T10:04:14.000Z</time>
      </trkpt>
      <trkpt lat="43.61466" lon="3.82796">
        <ele>64.85100032</ele>
        <time>2020-09-20T10:04:15.000Z</time>
      </trkpt>
      <trkpt lat="43.61466" lon="3.828">
        <ele>64.95100032</ele>
        <time>2020-09-20T10:04:16.000Z</time>
      </trkpt>
      <trkpt lat="43.61465" lon="3.82804">
        <ele>65</ele>
        <time>2020-09-20T10:04:17.000Z</time>
      </trkpt>
      <trkpt lat="43.61465" lon="3.82809">
        <ele>65</ele>
        <time>2020-09-20T10:04:18.000Z</time>
      </trkpt>
      <trkpt lat="43.61464" lon="3.82813">
        <ele>65</ele>
        <time>2020-09-20T10:04:19.000Z</time>
      </trkpt>
      <trkpt lat="43.61463" lon="3.82818">
        <ele>65</ele>
        <time>2020-09-20T10:04:20.000Z</time>
      </trkpt>
      <trkpt lat="43.61463" lon="3.82823">
        <ele>65</ele>
        <time>2020-09-20T10:04:21.000Z</time>
      </trkpt>
      <trkpt lat="43.61462" lon="3.82828">
        <ele>65</ele>
        <time>2020-09-20T10:04:22.000Z</time>
      </trkpt>
      <trkpt lat="43.61462" lon="3.82834">
        <ele>65</ele>
        <time>2020-09-20T10:04:23.000Z</time>
      </trkpt>
      <trkpt lat="43.61461" lon="3.82839">
        <ele>65</ele>
        <time>2020-09-20T10:04:24.000Z</time>
      </trkpt>
      <trkpt lat="43.61461" lon="3.82844">
        <ele>65</ele>
        <time>2020-09-20T10:04:25.000Z</time>
      </trkpt>
      <trkpt lat="43.6146" lon="3.82849">
        <ele>65</ele>
        <time>2020-09-20T10:04:26.000Z</time>
      </trkpt>
      <trkpt lat="43.61459" lon="3.82854">
        <ele>65</ele>
        <time>2020-09-20T10:04:27.000Z</time>
      </trkpt>
      <trkpt lat="43.61457" lon="3.82859">
        <ele>65</ele>
        <time>2020-09-20T10:04:28.000Z</time>
      </trkpt>
      <trkpt lat="43.61456" lon="3.82863">
        <ele>65</ele>
        <time>2020-09-20T10:04:29.000Z</time>
      </trkpt>
      <trkpt lat="43.61455" lon="3.82866">
        <ele>65</ele>
        <time>2020-09-20T10:04:30.000Z</time>
      </trkpt>
      <trkpt lat="43.61455" lon="3.82868">
        <ele>65</ele>
        <time>2020-09-20T10:04:31.000Z</time>
      </trkpt>
      <trkpt lat="43.61454" lon="3.8287">
        <ele>65</ele>
        <time>2020-09-20T10:04:33.000Z</time>
      </trkpt>
      <trkpt lat="43.61454" lon="3.8287">
        <ele>65</ele>
        <time>2020-09-20T10:04:38.000Z</time>
      </trkpt>
      <trkpt lat="43.61455" lon="3.82878">
        <ele>65</ele>
        <time>2020-09-20T10:05:53.000Z</time>
      </trkpt>
      <trkpt lat="43.61456" lon="3.82882">
        <ele>65.105374113509</ele>
        <time>2020-09-20T10:05:54.000Z</time>
      </trkpt>
      <trkpt lat="43.61457" lon="3.82886">
        <ele>65.210748227017</ele>
        <time>2020-09-20T10:05:55.000Z</time>
      </trkpt>
      <trkpt lat="43.61458" lon="3.8289">
        <ele>65.316122340526</ele>
        <time>2020-09-20T10:05:56.000Z</time>
      </trkpt>
      <trkpt lat="43.61458" lon="3.82895">
        <ele>65.421496454035</ele>
        <time>2020-09-20T10:05:57.000Z</time>
      </trkpt>
      <trkpt lat="43.61459" lon="3.829">
        <ele>65.526870567543</ele>
        <time>2020-09-20T10:05:58.000Z</time>
      </trkpt>
      <trkpt lat="43.61459" lon="3.82905">
        <ele>65.632244681052</ele>
        <time>2020-09-20T10:05:59.000Z</time>
      </trkpt>
      <trkpt lat="43.6146" lon="3.8291">
        <ele>65.737618794561</ele>
        <time>2020-09-20T10:06:00.000Z</time>
      </trkpt>
      <trkpt lat="43.61461" lon="3.82916">
        <ele>65.842992908069</ele>
        <time>2020-09-20T10:06:01.000Z</time>
      </trkpt>
      <trkpt lat="43.61462" lon="3.82921">
        <ele>65.948367021578</ele>
        <time>2020-09-20T10:06:02.000Z</time>
      </trkpt>
      <trkpt lat="43.61462" lon="3.82927">
        <ele>66.049562946958</ele>
        <time>2020-09-20T10:06:03.000Z</time>
      </trkpt>
      <trkpt lat="43.61463" lon="3.82933">
        <ele>66.146744586127</ele>
        <time>2020-09-20T10:06:04.000Z</time>
      </trkpt>
      <trkpt lat="43.61464" lon="3.82939">
        <ele>66.243926225297</ele>
        <time>2020-09-20T10:06:05.000Z</time>
      </trkpt>
      <trkpt lat="43.61465" lon="3.82945">
        <ele>66.341107864467</ele>
        <time>2020-09-20T10:06:06.000Z</time>
      </trkpt>
      <trkpt lat="43.61466" lon="3.82951">
        <ele>66.438289503637</ele>
        <time>2020-09-20T10:06:07.000Z</time>
      </trkpt>
      <trkpt lat="43.61466" lon="3.82957">
        <ele>66.535471142806</ele>
        <time>2020-09-20T10:06:08.000Z</time>
      </trkpt>
      <trkpt lat="43.61467" lon="3.82963">
        <ele>66.632652781976</ele>
        <time>2020-09-20T10:06:09.000Z</time>
      </trkpt>
      <trkpt lat="43.61467" lon="3.82969">
        <ele>66.729834421146</ele>
        <time>2020-09-20T10:06:10.000Z</time>
      </trkpt>
      <trkpt lat="43.61468" lon="3.82974">
        <ele>66.827016060315</ele>
        <time>2020-09-20T10:06:11.000Z</time>
      </trkpt>
      <trkpt lat="43.61469" lon="3.8298">
        <ele>66.924197699485</ele>
        <time>2020-09-20T10:06:12.000Z</time>
      </trkpt>
      <trkpt lat="43.6147" lon="3.82986">
        <ele>67</ele>
        <time>2020-09-20T10:06:13.000Z</time>
      </trkpt>
      <trkpt lat="43.61471" lon="3.82991">
        <ele>67</ele>
        <time>2020-09-20T10:06:14.000Z</time>
      </trkpt>
      <trkpt lat="43.61472" lon="3.82997">
        <ele>67</ele>
        <time>2020-09-20T10:06:15.000Z</time>
      </trkpt>
      <trkpt lat="43.61472" lon="3.83003">
        <ele>67</ele>
        <time>2020-09-20T10:06:16.000Z</time>
      </trkpt>
      <trkpt lat="43.61472" lon="3.83008">
        <ele>67</ele>
        <time>2020-09-20T10:06:17.000Z</time>
      </trkpt>
      <trkpt lat="43.61472" lon="3.83014">
        <ele>67</ele>
        <time>2020-09-20T10:06:18.000Z</time>
      </trkpt>
      <trkpt lat="43.61472" lon="3.83019">
        <ele>67</ele>
        <time>2020-09-20T10:06:19.000Z</time>
      </trkpt>
      <trkpt lat="43.61472" lon="3.83023">
        <ele>67</ele>
        <time>2020-09-20T10:06:20.000Z</time>
      </trkpt>
      <trkpt lat="43.61472" lon="3.83028">
        <ele>67</ele>
        <time>2020-09-20T10:06:21.000Z</time>
      </trkpt>
      <trkpt lat="43.61472" lon="3.83033">
        <ele>67</ele>
        <time>2020-09-20T10:06:22.000Z</time>
      </trkpt>
      <trkpt lat="43.61472" lon="3.83038">
        <ele>66.94899968</ele>
        <time>2020-09-20T10:06:23.000Z</time>
      </trkpt>
      <trkpt lat="43.61472" lon="3.83043">
        <ele>66.84899968</ele>
        <time>2020-09-20T10:06:24.000Z</time>
      </trkpt>
      <trkpt lat="43.61473" lon="3.83048">
        <ele>66.74899968</ele>
        <time>2020-09-20T10:06:25.000Z</time>
      </trkpt>
      <trkpt lat="43.61474" lon="3.83053">
        <ele>66.64899968</ele>
        <time>2020-09-20T10:06:26.000Z</time>
      </trkpt>
      <trkpt lat="43.61474" lon="3.83058">
        <ele>66.54899968</ele>
        <time>2020-09-20T10:06:27.000Z</time>
      </trkpt>
      <trkpt lat="43.61475" lon="3.83063">
        <ele>66.44899968</ele>
        <time>2020-09-20T10:06:28.000Z</time>
      </trkpt>
      <trkpt lat="43.61475" lon="3.83068">
        <ele>66.34899968</ele>
        <time>2020-09-20T10:06:29.000Z</time>
      </trkpt>
      <trkpt lat="43.61475" lon="3.83072">
        <ele>66.24899968</ele>
        <time>2020-09-20T10:06:30.000Z</time>
      </trkpt>
      <trkpt lat="43.61475" lon="3.83076">
        <ele>66.14899968</ele>
        <time>2020-09-20T10:06:31.000Z</time>
      </trkpt>
      <trkpt lat="43.61475" lon="3.83079">
        <ele>66.04899968</ele>
        <time>2020-09-20T10:06:32.000Z</time>
      </trkpt>
      <trkpt lat="43.61476" lon="3.83083">
        <ele>66.05100032</ele>
        <time>2020-09-20T10:06:33.000Z</time>
      </trkpt>
      <trkpt lat="43.61477" lon="3.83086">
        <ele>66.15100032</ele>
        <time>2020-09-20T10:06:34.000Z</time>
      </trkpt>
      <trkpt lat="43.61477" lon="3.8309">
        <ele>66.25100032</ele>
        <time>2020-09-20T10:06:35.000Z</time>
      </trkpt>
      <trkpt lat="43.61477" lon="3.83095">
        <ele>66.35100032</ele>
        <time>2020-09-20T10:06:36.000Z</time>
      </trkpt>
      <trkpt lat="43.61477" lon="3.831">
        <ele>66.45100032</ele>
        <time>2020-09-20T10:06:37.000Z</time>
      </trkpt>
      <trkpt lat="43.61477" lon="3.83104">
        <ele>66.55100032</ele>
        <time>2020-09-20T10:06:38.000Z</time>
      </trkpt>
      <trkpt lat="43.61477" lon="3.8311">
        <ele>66.65100032</ele>
        <time>2020-09-20T10:06:39.000Z</time>
      </trkpt>
      <trkpt lat="43.61477" lon="3.83115">
        <ele>66.75100032</ele>
        <time>2020-09-20T10:06:40.000Z</time>
      </trkpt>
      <trkpt lat="43.61477" lon="3.8312">
        <ele>66.85100032</ele>
        <time>2020-09-20T10:06:41.000Z</time>
      </trkpt>
      <trkpt lat="43.61477" lon="3.83125">
        <ele>66.95100032</ele>
        <time>2020-09-20T10:06:42.000Z</time>
      </trkpt>
      <trkpt lat="43.61477" lon="3.83131">
        <ele>67</ele>
        <time>2020-09-20T10:06:43.000Z</time>
      </trkpt>
      <trkpt lat="43.61477" lon="3.83136">
        <ele>67</ele>
        <time>2020-09-20T10:06:44.000Z</time>
      </trkpt>
      <trkpt lat="43.61476" lon="3.83142">
        <ele>67</ele>
        <time>2020-09-20T10:06:45.000Z</time>
      </trkpt>
      <trkpt lat="43.61475" lon="3.83147">
        <ele>67</ele>
        <time>2020-09-20T10:06:46.000Z</time>
      </trkpt>
      <trkpt lat="43.61475" lon="3.83153">
        <ele>67</ele>
        <time>2020-09-20T10:06:47.000Z</time>
      </trkpt>
      <trkpt lat="43.61475" lon="3.83159">
        <ele>67</ele>
        <time>2020-09-20T10:06:48.000Z</time>
      </trkpt>
      <trkpt lat="43.61475" lon="3.83164">
        <ele>67</ele>
        <time>2020-09-20T10:06:49.000Z</time>
      </trkpt>
      <trkpt lat="43.61475" lon="3.8317">
        <ele>67</ele>
        <time>2020-09-20T10:06:50.000Z</time>
      </trkpt>
      <trkpt lat="43.61474" lon="3.83175">
        <ele>67</ele>
        <time>2020-09-20T10:06:51.000Z</time>
      </trkpt>
      <trkpt lat="43.61474" lon="3.8318">
        <ele>67</ele>
        <time>2020-09-20T10:06:52.000Z</time>
      </trkpt>
      <trkpt lat="43.61473" lon="3.83185">
        <ele>67.033604584019</ele>
        <time>2020-09-20T10:06:53.000Z</time>
      </trkpt>
      <trkpt lat="43.61473" lon="3.83189">
        <ele>67.135437644277</ele>
        <time>2020-09-20T10:06:54.000Z</time>
      </trkpt>
      <trkpt lat="43.61473" lon="3.83193">
        <ele>67.237270704535</ele>
        <time>2020-09-20T10:06:55.000Z</time>
      </trkpt>
      <trkpt lat="43.61474" lon="3.83197">
        <ele>67.339103764793</ele>
        <time>2020-09-20T10:06:56.000Z</time>
      </trkpt>
      <trkpt lat="43.61473" lon="3.83202">
        <ele>67.44093682505</ele>
        <time>2020-09-20T10:06:57.000Z</time>
      </trkpt>
      <trkpt lat="43.61473" lon="3.83207">
        <ele>67.542769885308</ele>
        <time>2020-09-20T10:06:58.000Z</time>
      </trkpt>
      <trkpt lat="43.61472" lon="3.83212">
        <ele>67.644602945566</ele>
        <time>2020-09-20T10:06:59.000Z</time>
      </trkpt>
      <trkpt lat="43.61472" lon="3.83217">
        <ele>67.746436005824</ele>
        <time>2020-09-20T10:07:00.000Z</time>
      </trkpt>
      <trkpt lat="43.61472" lon="3.83221">
        <ele>67.848269066082</ele>
        <time>2020-09-20T10:07:01.000Z</time>
      </trkpt>
      <trkpt lat="43.61472" lon="3.83226">
        <ele>67.95010212634</ele>
        <time>2020-09-20T10:07:02.000Z</time>
      </trkpt>
      <trkpt lat="43.61472" lon="3.83232">
        <ele>68.05100032</ele>
        <time>2020-09-20T10:07:03.000Z</time>
      </trkpt>
      <trkpt lat="43.61472" lon="3.83237">
        <ele>68.15100032</ele>
        <time>2020-09-20T10:07:04.000Z</time>
      </trkpt>
      <trkpt lat="43.61472" lon="3.83242">
        <ele>68.25100032</ele>
        <time>2020-09-20T10:07:05.000Z</time>
      </trkpt>
      <trkpt lat="43.61472" lon="3.83248">
        <ele>68.35100032</ele>
        <time>2020-09-20T10:07:06.000Z</time>
      </trkpt>
      <trkpt lat="43.61472" lon="3.83254">
        <ele>68.45100032</ele>
        <time>2020-09-20T10:07:07.000Z</time>
      </trkpt>
      <trkpt lat="43.61472" lon="3.83259">
        <ele>68.55100032</ele>
        <time>2020-09-20T10:07:08.000Z</time>
      </trkpt>
      <trkpt lat="43.61472" lon="3.83265">
        <ele>68.65100032</ele>
        <time>2020-09-20T10:07:09.000Z</time>
      </trkpt>
      <trkpt lat="43.61472" lon="3.8327">
        <ele>68.75100032</ele>
        <time>2020-09-20T10:07:10.000Z</time>
      </trkpt>
      <trkpt lat="43.61471" lon="3.83276">
        <ele>68.85100032</ele>
        <time>2020-09-20T10:07:11.000Z</time>
      </trkpt>
      <trkpt lat="43.61471" lon="3.83281">
        <ele>68.95100032</ele>
        <time>2020-09-20T10:07:12.000Z</time>
      </trkpt>
      <trkpt lat="43.61471" lon="3.83286">
        <ele>69.047932631579</ele>
        <time>2020-09-20T10:07:13.000Z</time>
      </trkpt>
      <trkpt lat="43.61471" lon="3.83291">
        <ele>69.141917593985</ele>
        <time>2020-09-20T10:07:14.000Z</time>
      </trkpt>
      <trkpt lat="43.61471" lon="3.83297">
        <ele>69.235902556391</ele>
        <time>2020-09-20T10:07:15.000Z</time>
      </trkpt>
      <trkpt lat="43.61471" lon="3.83302">
        <ele>69.329887518797</ele>
        <time>2020-09-20T10:07:16.000Z</time>
      </trkpt>
      <trkpt lat="43.61471" lon="3.83308">
        <ele>69.423872481203</ele>
        <time>2020-09-20T10:07:17.000Z</time>
      </trkpt>
      <trkpt lat="43.61471" lon="3.83314">
        <ele>69.517857443609</ele>
        <time>2020-09-20T10:07:18.000Z</time>
      </trkpt>
      <trkpt lat="43.61471" lon="3.8332">
        <ele>69.611842406015</ele>
        <time>2020-09-20T10:07:19.000Z</time>
      </trkpt>
      <trkpt lat="43.61472" lon="3.83326">
        <ele>69.705827368421</ele>
        <time>2020-09-20T10:07:20.000Z</time>
      </trkpt>
      <trkpt lat="43.61471" lon="3.83333">
        <ele>69.799812330827</ele>
        <time>2020-09-20T10:07:21.000Z</time>
      </trkpt>
      <trkpt lat="43.61471" lon="3.83339">
        <ele>69.893797293233</ele>
        <time>2020-09-20T10:07:22.000Z</time>
      </trkpt>
      <trkpt lat="43.61471" lon="3.83345">
        <ele>69.987782255639</ele>
        <time>2020-09-20T10:07:23.000Z</time>
      </trkpt>
      <trkpt lat="43.61471" lon="3.83351">
        <ele>69.907050940171</ele>
        <time>2020-09-20T10:07:24.000Z</time>
      </trkpt>
      <trkpt lat="43.61471" lon="3.83357">
        <ele>69.800213333333</ele>
        <time>2020-09-20T10:07:25.000Z</time>
      </trkpt>
      <trkpt lat="43.61471" lon="3.83363">
        <ele>69.693375726496</ele>
        <time>2020-09-20T10:07:26.000Z</time>
      </trkpt>
      <trkpt lat="43.61471" lon="3.8337">
        <ele>69.586538119658</ele>
        <time>2020-09-20T10:07:27.000Z</time>
      </trkpt>
      <trkpt lat="43.61471" lon="3.83376">
        <ele>69.479700512821</ele>
        <time>2020-09-20T10:07:28.000Z</time>
      </trkpt>
      <trkpt lat="43.61471" lon="3.83382">
        <ele>69.372862905983</ele>
        <time>2020-09-20T10:07:29.000Z</time>
      </trkpt>
      <trkpt lat="43.61471" lon="3.83388">
        <ele>69.266025299145</ele>
        <time>2020-09-20T10:07:30.000Z</time>
      </trkpt>
      <trkpt lat="43.61471" lon="3.83393">
        <ele>69.159187692308</ele>
        <time>2020-09-20T10:07:31.000Z</time>
      </trkpt>
      <trkpt lat="43.61471" lon="3.83399">
        <ele>69.05235008547</ele>
        <time>2020-09-20T10:07:32.000Z</time>
      </trkpt>
      <trkpt lat="43.61471" lon="3.83404">
        <ele>69</ele>
        <time>2020-09-20T10:07:33.000Z</time>
      </trkpt>
      <trkpt lat="43.61471" lon="3.8341">
        <ele>69</ele>
        <time>2020-09-20T10:07:34.000Z</time>
      </trkpt>
      <trkpt lat="43.61471" lon="3.83415">
        <ele>69</ele>
        <time>2020-09-20T10:07:35.000Z</time>
      </trkpt>
      <trkpt lat="43.61471" lon="3.8342">
        <ele>69</ele>
        <time>2020-09-20T10:07:36.000Z</time>
      </trkpt>
      <trkpt lat="43.61471" lon="3.83426">
        <ele>69</ele>
        <time>2020-09-20T10:07:37.000Z</time>
      </trkpt>
      <trkpt lat="43.61471" lon="3.83432">
        <ele>69</ele>
        <time>2020-09-20T10:07:38.000Z</time>
      </trkpt>
      <trkpt lat="43.61471" lon="3.83437">
        <ele>69</ele>
        <time>2020-09-20T10:07:39.000Z</time>
      </trkpt>
      <trkpt lat="43.61471" lon="3.83443">
        <ele>69</ele>
        <time>2020-09-20T10:07:40.000Z</time>
      </trkpt>
      <trkpt lat="43.6147" lon="3.8345">
        <ele>69</ele>
        <time>2020-09-20T10:07:41.000Z</time>
      </trkpt>
      <trkpt lat="43.6147" lon="3.83456">
        <ele>69</ele>
        <time>2020-09-20T10:07:42.000Z</time>
      </trkpt>
      <trkpt lat="43.61468" lon="3.83462">
        <ele>68.89799936</ele>
        <time>2020-09-20T10:07:43.000Z</time>
      </trkpt>
      <trkpt lat="43.61466" lon="3.83469">
        <ele>68.69799936</ele>
        <time>2020-09-20T10:07:44.000Z</time>
      </trkpt>
      <trkpt lat="43.61465" lon="3.83475">
        <ele>68.49799936</ele>
        <time>2020-09-20T10:07:45.000Z</time>
      </trkpt>
      <trkpt lat="43.61464" lon="3.83481">
        <ele>68.29799936</ele>
        <time>2020-09-20T10:07:46.000Z</time>
      </trkpt>
      <trkpt lat="43.61463" lon="3.83487">
        <ele>68.09799936</ele>
        <time>2020-09-20T10:07:47.000Z</time>
      </trkpt>
      <trkpt lat="43.61463" lon="3.83493">
        <ele>67.89799936</ele>
        <time>2020-09-20T10:07:48.000Z</time>
      </trkpt>
      <trkpt lat="43.61462" lon="3.83499">
        <ele>67.69799936</ele>
        <time>2020-09-20T10:07:49.000Z</time>
      </trkpt>
      <trkpt lat="43.61461" lon="3.83505">
        <ele>67.49799936</ele>
        <time>2020-09-20T10:07:50.000Z</time>
      </trkpt>
      <trkpt lat="43.61461" lon="3.83511">
        <ele>67.29799936</ele>
        <time>2020-09-20T10:07:51.000Z</time>
      </trkpt>
      <trkpt lat="43.6146" lon="3.83517">
        <ele>67.09799936</ele>
        <time>2020-09-20T10:07:52.000Z</time>
      </trkpt>
      <trkpt lat="43.61459" lon="3.83523">
        <ele>67</ele>
        <time>2020-09-20T10:07:53.000Z</time>
      </trkpt>
      <trkpt lat="43.61458" lon="3.83528">
        <ele>67</ele>
        <time>2020-09-20T10:07:54.000Z</time>
      </trkpt>
      <trkpt lat="43.61457" lon="3.83534">
        <ele>67</ele>
        <time>2020-09-20T10:07:55.000Z</time>
      </trkpt>
      <trkpt lat="43.61456" lon="3.8354">
        <ele>67</ele>
        <time>2020-09-20T10:07:56.000Z</time>
      </trkpt>
      <trkpt lat="43.61455" lon="3.83546">
        <ele>67</ele>
        <time>2020-09-20T10:07:57.000Z</time>
      </trkpt>
      <trkpt lat="43.61454" lon="3.83552">
        <ele>67</ele>
        <time>2020-09-20T10:07:58.000Z</time>
      </trkpt>
      <trkpt lat="43.61453" lon="3.83558">
        <ele>67</ele>
        <time>2020-09-20T10:07:59.000Z</time>
      </trkpt>
      <trkpt lat="43.61452" lon="3.83564">
        <ele>67</ele>
        <time>2020-09-20T10:08:00.000Z</time>
      </trkpt>
      <trkpt lat="43.61451" lon="3.8357">
        <ele>67</ele>
        <time>2020-09-20T10:08:01.000Z</time>
      </trkpt>
      <trkpt lat="43.6145" lon="3.83576">
        <ele>67</ele>
        <time>2020-09-20T10:08:02.000Z</time>
      </trkpt>
      <trkpt lat="43.61448" lon="3.83582">
        <ele>67.049611206226</ele>
        <time>2020-09-20T10:08:03.000Z</time>
      </trkpt>
      <trkpt lat="43.61447" lon="3.83588">
        <ele>67.146887470817</ele>
        <time>2020-09-20T10:08:04.000Z</time>
      </trkpt>
      <trkpt lat="43.61446" lon="3.83594">
        <ele>67.244163735409</ele>
        <time>2020-09-20T10:08:05.000Z</time>
      </trkpt>
      <trkpt lat="43.61445" lon="3.836">
        <ele>67.34144</ele>
        <time>2020-09-20T10:08:06.000Z</time>
      </trkpt>
      <trkpt lat="43.61444" lon="3.83605">
        <ele>67.438716264591</ele>
        <time>2020-09-20T10:08:07.000Z</time>
      </trkpt>
      <trkpt lat="43.61443" lon="3.83611">
        <ele>67.535992529183</ele>
        <time>2020-09-20T10:08:08.000Z</time>
      </trkpt>
      <trkpt lat="43.61442" lon="3.83616">
        <ele>67.633268793774</ele>
        <time>2020-09-20T10:08:09.000Z</time>
      </trkpt>
      <trkpt lat="43.6144" lon="3.83621">
        <ele>67.730545058366</ele>
        <time>2020-09-20T10:08:10.000Z</time>
      </trkpt>
      <trkpt lat="43.61439" lon="3.83626">
        <ele>67.827821322957</ele>
        <time>2020-09-20T10:08:11.000Z</time>
      </trkpt>
      <trkpt lat="43.61437" lon="3.83632">
        <ele>67.925097587549</ele>
        <time>2020-09-20T10:08:12.000Z</time>
      </trkpt>
      <trkpt lat="43.61437" lon="3.83637">
        <ele>68</ele>
        <time>2020-09-20T10:08:13.000Z</time>
      </trkpt>
      <trkpt lat="43.61436" lon="3.83642">
        <ele>68</ele>
        <time>2020-09-20T10:08:14.000Z</time>
      </trkpt>
      <trkpt lat="43.61436" lon="3.83648">
        <ele>68</ele>
        <time>2020-09-20T10:08:15.000Z</time>
      </trkpt>
      <trkpt lat="43.61435" lon="3.83654">
        <ele>68</ele>
        <time>2020-09-20T10:08:16.000Z</time>
      </trkpt>
      <trkpt lat="43.61435" lon="3.8366">
        <ele>68</ele>
        <time>2020-09-20T10:08:17.000Z</time>
      </trkpt>
      <trkpt lat="43.61433" lon="3.83665">
        <ele>68</ele>
        <time>2020-09-20T10:08:18.000Z</time>
      </trkpt>
      <trkpt lat="43.61432" lon="3.83671">
        <ele>68</ele>
        <time>2020-09-20T10:08:19.000Z</time>
      </trkpt>
      <trkpt lat="43.61431" lon="3.83677">
        <ele>68</ele>
        <time>2020-09-20T10:08:20.000Z</time>
      </trkpt>
      <trkpt lat="43.6143" lon="3.83682">
        <ele>68</ele>
        <time>2020-09-20T10:08:21.000Z</time>
      </trkpt>
      <trkpt lat="43.61429" lon="3.83688">
        <ele>68</ele>
        <time>2020-09-20T10:08:22.000Z</time>
      </trkpt>
      <trkpt lat="43.61428" lon="3.83694">
        <ele>68.048433308171</ele>
        <time>2020-09-20T10:08:23.000Z</time>
      </trkpt>
      <trkpt lat="43.61428" lon="3.83699">
        <ele>68.143399983225</ele>
        <time>2020-09-20T10:08:24.000Z</time>
      </trkpt>
      <trkpt lat="43.61427" lon="3.83705">
        <ele>68.238366658279</ele>
        <time>2020-09-20T10:08:25.000Z</time>
      </trkpt>
      <trkpt lat="43.61426" lon="3.83711">
        <ele>68.333333333333</ele>
        <time>2020-09-20T10:08:26.000Z</time>
      </trkpt>
      <trkpt lat="43.61424" lon="3.83717">
        <ele>68.428300008387</ele>
        <time>2020-09-20T10:08:27.000Z</time>
      </trkpt>
      <trkpt lat="43.61423" lon="3.83724">
        <ele>68.523266683442</ele>
        <time>2020-09-20T10:08:28.000Z</time>
      </trkpt>
      <trkpt lat="43.61422" lon="3.8373">
        <ele>68.618233358496</ele>
        <time>2020-09-20T10:08:29.000Z</time>
      </trkpt>
      <trkpt lat="43.61421" lon="3.83735">
        <ele>68.71320003355</ele>
        <time>2020-09-20T10:08:30.000Z</time>
      </trkpt>
      <trkpt lat="43.6142" lon="3.83741">
        <ele>68.808166708604</ele>
        <time>2020-09-20T10:08:31.000Z</time>
      </trkpt>
      <trkpt lat="43.61418" lon="3.83747">
        <ele>68.903133383658</ele>
        <time>2020-09-20T10:08:32.000Z</time>
      </trkpt>
      <trkpt lat="43.61416" lon="3.83753">
        <ele>68.998100058712</ele>
        <time>2020-09-20T10:08:33.000Z</time>
      </trkpt>
      <trkpt lat="43.61415" lon="3.83758">
        <ele>69.103484117576</ele>
        <time>2020-09-20T10:08:34.000Z</time>
      </trkpt>
      <trkpt lat="43.61413" lon="3.83764">
        <ele>69.209080845531</ele>
        <time>2020-09-20T10:08:35.000Z</time>
      </trkpt>
      <trkpt lat="43.61411" lon="3.8377">
        <ele>69.314677573485</ele>
        <time>2020-09-20T10:08:36.000Z</time>
      </trkpt>
      <trkpt lat="43.6141" lon="3.83775">
        <ele>69.42027430144</ele>
        <time>2020-09-20T10:08:37.000Z</time>
      </trkpt>
      <trkpt lat="43.61408" lon="3.83781">
        <ele>69.525871029394</ele>
        <time>2020-09-20T10:08:38.000Z</time>
      </trkpt>
      <trkpt lat="43.61406" lon="3.83786">
        <ele>69.631467757349</ele>
        <time>2020-09-20T10:08:39.000Z</time>
      </trkpt>
      <trkpt lat="43.61404" lon="3.83792">
        <ele>69.737064485303</ele>
        <time>2020-09-20T10:08:40.000Z</time>
      </trkpt>
      <trkpt lat="43.61403" lon="3.83797">
        <ele>69.842661213257</ele>
        <time>2020-09-20T10:08:41.000Z</time>
      </trkpt>
      <trkpt lat="43.61401" lon="3.83802">
        <ele>69.948257941212</ele>
        <time>2020-09-20T10:08:42.000Z</time>
      </trkpt>
      <trkpt lat="43.61399" lon="3.83808">
        <ele>70</ele>
        <time>2020-09-20T10:08:43.000Z</time>
      </trkpt>
      <trkpt lat="43.61398" lon="3.83813">
        <ele>70</ele>
        <time>2020-09-20T10:08:44.000Z</time>
      </trkpt>
      <trkpt lat="43.61396" lon="3.83817">
        <ele>70</ele>
        <time>2020-09-20T10:08:45.000Z</time>
      </trkpt>
      <trkpt lat="43.61395" lon="3.83821">
        <ele>70</ele>
        <time>2020-09-20T10:08:46.000Z</time>
      </trkpt>
      <trkpt lat="43.61393" lon="3.83825">
        <ele>70</ele>
        <time>2020-09-20T10:08:47.000Z</time>
      </trkpt>
      <trkpt lat="43.61392" lon="3.83828">
        <ele>70</ele>
        <time>2020-09-20T10:08:48.000Z</time>
      </trkpt>
      <trkpt lat="43.61391" lon="3.83831">
        <ele>70</ele>
        <time>2020-09-20T10:08:49.000Z</time>
      </trkpt>
      <trkpt lat="43.6139" lon="3.83834">
        <ele>70</ele>
        <time>2020-09-20T10:08:50.000Z</time>
      </trkpt>
      <trkpt lat="43.61389" lon="3.83837">
        <ele>70</ele>
        <time>2020-09-20T10:08:51.000Z</time>
      </trkpt>
      <trkpt lat="43.61388" lon="3.83841">
        <ele>70</ele>
        <time>2020-09-20T10:08:52.000Z</time>
      </trkpt>
      <trkpt lat="43.61387" lon="3.83845">
        <ele>70</ele>
        <time>2020-09-20T10:08:53.000Z</time>
      </trkpt>
      <trkpt lat="43.61387" lon="3.83849">
        <ele>70</ele>
        <time>2020-09-20T10:08:54.000Z</time>
      </trkpt>
      <trkpt lat="43.61386" lon="3.83853">
        <ele>70</ele>
        <time>2020-09-20T10:08:55.000Z</time>
      </trkpt>
      <trkpt lat="43.61385" lon="3.83856">
        <ele>70</ele>
        <time>2020-09-20T10:08:56.000Z</time>
      </trkpt>
      <trkpt lat="43.61383" lon="3.83859">
        <ele>70</ele>
        <time>2020-09-20T10:08:57.000Z</time>
      </trkpt>
      <trkpt lat="43.61382" lon="3.83862">
        <ele>70</ele>
        <time>2020-09-20T10:08:58.000Z</time>
      </trkpt>
      <trkpt lat="43.6138" lon="3.83865">
        <ele>70</ele>
        <time>2020-09-20T10:08:59.000Z</time>
      </trkpt>
      <trkpt lat="43.61379" lon="3.83869">
        <ele>70</ele>
        <time>2020-09-20T10:09:00.000Z</time>
      </trkpt>
      <trkpt lat="43.61378" lon="3.83871">
        <ele>70</ele>
        <time>2020-09-20T10:09:01.000Z</time>
      </trkpt>
      <trkpt lat="43.61377" lon="3.83872">
        <ele>70</ele>
        <time>2020-09-20T10:09:08.000Z</time>
      </trkpt>
      <trkpt lat="43.6137" lon="3.83885">
        <ele>69.997902034972</ele>
        <time>2020-09-20T10:09:25.000Z</time>
      </trkpt>
      <trkpt lat="43.61368" lon="3.83888">
        <ele>69.788038375837</ele>
        <time>2020-09-20T10:09:26.000Z</time>
      </trkpt>
      <trkpt lat="43.61365" lon="3.83891">
        <ele>69.578174716701</ele>
        <time>2020-09-20T10:09:27.000Z</time>
      </trkpt>
      <trkpt lat="43.61362" lon="3.83893">
        <ele>69.368311057565</ele>
        <time>2020-09-20T10:09:28.000Z</time>
      </trkpt>
      <trkpt lat="43.6136" lon="3.83896">
        <ele>69.158447398429</ele>
        <time>2020-09-20T10:09:29.000Z</time>
      </trkpt>
      <trkpt lat="43.61358" lon="3.83898">
        <ele>68.948583739294</ele>
        <time>2020-09-20T10:09:30.000Z</time>
      </trkpt>
      <trkpt lat="43.61356" lon="3.83901">
        <ele>68.738720080158</ele>
        <time>2020-09-20T10:09:31.000Z</time>
      </trkpt>
      <trkpt lat="43.61354" lon="3.83904">
        <ele>68.528856421022</ele>
        <time>2020-09-20T10:09:32.000Z</time>
      </trkpt>
      <trkpt lat="43.61352" lon="3.83906">
        <ele>68.318992761886</ele>
        <time>2020-09-20T10:09:33.000Z</time>
      </trkpt>
      <trkpt lat="43.61352" lon="3.83908">
        <ele>68</ele>
        <time>2020-09-20T10:09:36.000Z</time>
      </trkpt>
      <trkpt lat="43.6135" lon="3.83911">
        <ele>68</ele>
        <time>2020-09-20T10:09:41.000Z</time>
      </trkpt>
      <trkpt lat="43.61348" lon="3.83917">
        <ele>68</ele>
        <time>2020-09-20T10:09:43.000Z</time>
      </trkpt>
      <trkpt lat="43.61347" lon="3.83922">
        <ele>68</ele>
        <time>2020-09-20T10:09:44.000Z</time>
      </trkpt>
      <trkpt lat="43.61346" lon="3.83927">
        <ele>68</ele>
        <time>2020-09-20T10:09:45.000Z</time>
      </trkpt>
      <trkpt lat="43.61345" lon="3.83931">
        <ele>68</ele>
        <time>2020-09-20T10:09:46.000Z</time>
      </trkpt>
      <trkpt lat="43.61345" lon="3.83936">
        <ele>68</ele>
        <time>2020-09-20T10:09:47.000Z</time>
      </trkpt>
      <trkpt lat="43.61344" lon="3.83942">
        <ele>68</ele>
        <time>2020-09-20T10:09:48.000Z</time>
      </trkpt>
      <trkpt lat="43.61344" lon="3.83947">
        <ele>68</ele>
        <time>2020-09-20T10:09:49.000Z</time>
      </trkpt>
      <trkpt lat="43.61344" lon="3.83952">
        <ele>68</ele>
        <time>2020-09-20T10:09:50.000Z</time>
      </trkpt>
      <trkpt lat="43.61344" lon="3.83958">
        <ele>68</ele>
        <time>2020-09-20T10:09:51.000Z</time>
      </trkpt>
      <trkpt lat="43.61344" lon="3.83964">
        <ele>68</ele>
        <time>2020-09-20T10:09:52.000Z</time>
      </trkpt>
      <trkpt lat="43.61344" lon="3.8397">
        <ele>68</ele>
        <time>2020-09-20T10:09:53.000Z</time>
      </trkpt>
      <trkpt lat="43.61344" lon="3.83977">
        <ele>68</ele>
        <time>2020-09-20T10:09:54.000Z</time>
      </trkpt>
      <trkpt lat="43.61344" lon="3.83983">
        <ele>67.963451764776</ele>
        <time>2020-09-20T10:09:55.000Z</time>
      </trkpt>
      <trkpt lat="43.61344" lon="3.8399">
        <ele>67.861928889155</ele>
        <time>2020-09-20T10:09:56.000Z</time>
      </trkpt>
      <trkpt lat="43.61344" lon="3.83997">
        <ele>67.760406013533</ele>
        <time>2020-09-20T10:09:57.000Z</time>
      </trkpt>
      <trkpt lat="43.61344" lon="3.84004">
        <ele>67.658883137911</ele>
        <time>2020-09-20T10:09:58.000Z</time>
      </trkpt>
      <trkpt lat="43.61345" lon="3.84011">
        <ele>67.55736026229</ele>
        <time>2020-09-20T10:09:59.000Z</time>
      </trkpt>
      <trkpt lat="43.61345" lon="3.84018">
        <ele>67.455837386668</ele>
        <time>2020-09-20T10:10:00.000Z</time>
      </trkpt>
      <trkpt lat="43.61345" lon="3.84026">
        <ele>67.354314511046</ele>
        <time>2020-09-20T10:10:01.000Z</time>
      </trkpt>
      <trkpt lat="43.61345" lon="3.84033">
        <ele>67.252791635425</ele>
        <time>2020-09-20T10:10:02.000Z</time>
      </trkpt>
      <trkpt lat="43.61344" lon="3.84041">
        <ele>67.151268759803</ele>
        <time>2020-09-20T10:10:03.000Z</time>
      </trkpt>
      <trkpt lat="43.61343" lon="3.84048">
        <ele>67.049745884181</ele>
        <time>2020-09-20T10:10:04.000Z</time>
      </trkpt>
      <trkpt lat="43.61343" lon="3.84056">
        <ele>67</ele>
        <time>2020-09-20T10:10:05.000Z</time>
      </trkpt>
      <trkpt lat="43.61342" lon="3.84064">
        <ele>67</ele>
        <time>2020-09-20T10:10:06.000Z</time>
      </trkpt>
      <trkpt lat="43.61341" lon="3.84071">
        <ele>67</ele>
        <time>2020-09-20T10:10:07.000Z</time>
      </trkpt>
      <trkpt lat="43.61339" lon="3.84079">
        <ele>67</ele>
        <time>2020-09-20T10:10:08.000Z</time>
      </trkpt>
      <trkpt lat="43.61338" lon="3.84086">
        <ele>67</ele>
        <time>2020-09-20T10:10:09.000Z</time>
      </trkpt>
      <trkpt lat="43.61337" lon="3.84093">
        <ele>67</ele>
        <time>2020-09-20T10:10:10.000Z</time>
      </trkpt>
      <trkpt lat="43.61336" lon="3.84101">
        <ele>67</ele>
        <time>2020-09-20T10:10:11.000Z</time>
      </trkpt>
      <trkpt lat="43.61335" lon="3.84108">
        <ele>67</ele>
        <time>2020-09-20T10:10:12.000Z</time>
      </trkpt>
      <trkpt lat="43.61334" lon="3.84115">
        <ele>67</ele>
        <time>2020-09-20T10:10:13.000Z</time>
      </trkpt>
      <trkpt lat="43.61333" lon="3.84122">
        <ele>67</ele>
        <time>2020-09-20T10:10:14.000Z</time>
      </trkpt>
      <trkpt lat="43.61332" lon="3.84129">
        <ele>67</ele>
        <time>2020-09-20T10:10:15.000Z</time>
      </trkpt>
      <trkpt lat="43.6133" lon="3.84136">
        <ele>67</ele>
        <time>2020-09-20T10:10:16.000Z</time>
      </trkpt>
      <trkpt lat="43.61329" lon="3.84143">
        <ele>67</ele>
        <time>2020-09-20T10:10:17.000Z</time>
      </trkpt>
      <trkpt lat="43.61328" lon="3.8415">
        <ele>67</ele>
        <time>2020-09-20T10:10:18.000Z</time>
      </trkpt>
      <trkpt lat="43.61327" lon="3.84156">
        <ele>67</ele>
        <time>2020-09-20T10:10:19.000Z</time>
      </trkpt>
      <trkpt lat="43.61327" lon="3.84163">
        <ele>67</ele>
        <time>2020-09-20T10:10:20.000Z</time>
      </trkpt>
      <trkpt lat="43.61326" lon="3.8417">
        <ele>67</ele>
        <time>2020-09-20T10:10:21.000Z</time>
      </trkpt>
      <trkpt lat="43.61325" lon="3.84177">
        <ele>67</ele>
        <time>2020-09-20T10:10:22.000Z</time>
      </trkpt>
      <trkpt lat="43.61324" lon="3.84184">
        <ele>67</ele>
        <time>2020-09-20T10:10:23.000Z</time>
      </trkpt>
      <trkpt lat="43.61323" lon="3.84191">
        <ele>67</ele>
        <time>2020-09-20T10:10:24.000Z</time>
      </trkpt>
      <trkpt lat="43.61322" lon="3.84198">
        <ele>67</ele>
        <time>2020-09-20T10:10:25.000Z</time>
      </trkpt>
      <trkpt lat="43.6132" lon="3.84206">
        <ele>67</ele>
        <time>2020-09-20T10:10:26.000Z</time>
      </trkpt>
      <trkpt lat="43.61319" lon="3.84213">
        <ele>67</ele>
        <time>2020-09-20T10:10:27.000Z</time>
      </trkpt>
      <trkpt lat="43.61318" lon="3.8422">
        <ele>67</ele>
        <time>2020-09-20T10:10:28.000Z</time>
      </trkpt>
      <trkpt lat="43.61317" lon="3.84228">
        <ele>67</ele>
        <time>2020-09-20T10:10:29.000Z</time>
      </trkpt>
      <trkpt lat="43.61316" lon="3.84235">
        <ele>67</ele>
        <time>2020-09-20T10:10:30.000Z</time>
      </trkpt>
      <trkpt lat="43.61315" lon="3.84243">
        <ele>67</ele>
        <time>2020-09-20T10:10:31.000Z</time>
      </trkpt>
      <trkpt lat="43.61314" lon="3.8425">
        <ele>67</ele>
        <time>2020-09-20T10:10:32.000Z</time>
      </trkpt>
      <trkpt lat="43.61313" lon="3.84257">
        <ele>67</ele>
        <time>2020-09-20T10:10:33.000Z</time>
      </trkpt>
      <trkpt lat="43.61312" lon="3.84265">
        <ele>67</ele>
        <time>2020-09-20T10:10:34.000Z</time>
      </trkpt>
      <trkpt lat="43.61311" lon="3.84272">
        <ele>66.949949325342</ele>
        <time>2020-09-20T10:10:35.000Z</time>
      </trkpt>
      <trkpt lat="43.6131" lon="3.8428">
        <ele>66.849849257306</ele>
        <time>2020-09-20T10:10:36.000Z</time>
      </trkpt>
      <trkpt lat="43.61308" lon="3.84287">
        <ele>66.749749189269</ele>
        <time>2020-09-20T10:10:37.000Z</time>
      </trkpt>
      <trkpt lat="43.61307" lon="3.84294">
        <ele>66.649649121233</ele>
        <time>2020-09-20T10:10:38.000Z</time>
      </trkpt>
      <trkpt lat="43.61305" lon="3.84301">
        <ele>66.549549053197</ele>
        <time>2020-09-20T10:10:39.000Z</time>
      </trkpt>
      <trkpt lat="43.61303" lon="3.84308">
        <ele>66.449448985161</ele>
        <time>2020-09-20T10:10:40.000Z</time>
      </trkpt>
      <trkpt lat="43.61301" lon="3.84315">
        <ele>66.349348917125</ele>
        <time>2020-09-20T10:10:41.000Z</time>
      </trkpt>
      <trkpt lat="43.613" lon="3.84322">
        <ele>66.249248849089</ele>
        <time>2020-09-20T10:10:42.000Z</time>
      </trkpt>
      <trkpt lat="43.61298" lon="3.84329">
        <ele>66.149148781053</ele>
        <time>2020-09-20T10:10:43.000Z</time>
      </trkpt>
      <trkpt lat="43.61296" lon="3.84336">
        <ele>66.049048713017</ele>
        <time>2020-09-20T10:10:44.000Z</time>
      </trkpt>
      <trkpt lat="43.61294" lon="3.84342">
        <ele>66</ele>
        <time>2020-09-20T10:10:45.000Z</time>
      </trkpt>
      <trkpt lat="43.61292" lon="3.84349">
        <ele>66</ele>
        <time>2020-09-20T10:10:46.000Z</time>
      </trkpt>
      <trkpt lat="43.6129" lon="3.84356">
        <ele>66</ele>
        <time>2020-09-20T10:10:47.000Z</time>
      </trkpt>
      <trkpt lat="43.61288" lon="3.84362">
        <ele>66</ele>
        <time>2020-09-20T10:10:48.000Z</time>
      </trkpt>
      <trkpt lat="43.61287" lon="3.84368">
        <ele>66</ele>
        <time>2020-09-20T10:10:49.000Z</time>
      </trkpt>
      <trkpt lat="43.61285" lon="3.84375">
        <ele>66</ele>
        <time>2020-09-20T10:10:50.000Z</time>
      </trkpt>
      <trkpt lat="43.61283" lon="3.84381">
        <ele>66</ele>
        <time>2020-09-20T10:10:51.000Z</time>
      </trkpt>
      <trkpt lat="43.61281" lon="3.84387">
        <ele>66</ele>
        <time>2020-09-20T10:10:52.000Z</time>
      </trkpt>
      <trkpt lat="43.61279" lon="3.84393">
        <ele>66</ele>
        <time>2020-09-20T10:10:53.000Z</time>
      </trkpt>
      <trkpt lat="43.61278" lon="3.84399">
        <ele>66</ele>
        <time>2020-09-20T10:10:54.000Z</time>
      </trkpt>
      <trkpt lat="43.61276" lon="3.84405">
        <ele>66.050949386917</ele>
        <time>2020-09-20T10:10:55.000Z</time>
      </trkpt>
      <trkpt lat="43.61274" lon="3.84411">
        <ele>66.150849518753</ele>
        <time>2020-09-20T10:10:56.000Z</time>
      </trkpt>
      <trkpt lat="43.61272" lon="3.84417">
        <ele>66.250749650589</ele>
        <time>2020-09-20T10:10:57.000Z</time>
      </trkpt>
      <trkpt lat="43.6127" lon="3.84423">
        <ele>66.350649782426</ele>
        <time>2020-09-20T10:10:58.000Z</time>
      </trkpt>
      <trkpt lat="43.61269" lon="3.84429">
        <ele>66.450549914262</ele>
        <time>2020-09-20T10:10:59.000Z</time>
      </trkpt>
      <trkpt lat="43.61267" lon="3.84436">
        <ele>66.550450046098</ele>
        <time>2020-09-20T10:11:00.000Z</time>
      </trkpt>
      <trkpt lat="43.61265" lon="3.84442">
        <ele>66.650350177934</ele>
        <time>2020-09-20T10:11:01.000Z</time>
      </trkpt>
      <trkpt lat="43.61262" lon="3.84448">
        <ele>66.75025030977</ele>
        <time>2020-09-20T10:11:02.000Z</time>
      </trkpt>
      <trkpt lat="43.6126" lon="3.84453">
        <ele>66.850150441607</ele>
        <time>2020-09-20T10:11:03.000Z</time>
      </trkpt>
      <trkpt lat="43.61258" lon="3.84459">
        <ele>66.950050573443</ele>
        <time>2020-09-20T10:11:04.000Z</time>
      </trkpt>
      <trkpt lat="43.61256" lon="3.84465">
        <ele>67</ele>
        <time>2020-09-20T10:11:05.000Z</time>
      </trkpt>
      <trkpt lat="43.61253" lon="3.84471">
        <ele>67</ele>
        <time>2020-09-20T10:11:06.000Z</time>
      </trkpt>
      <trkpt lat="43.61251" lon="3.84477">
        <ele>67</ele>
        <time>2020-09-20T10:11:07.000Z</time>
      </trkpt>
      <trkpt lat="43.61248" lon="3.84482">
        <ele>67</ele>
        <time>2020-09-20T10:11:08.000Z</time>
      </trkpt>
      <trkpt lat="43.61246" lon="3.84488">
        <ele>67</ele>
        <time>2020-09-20T10:11:09.000Z</time>
      </trkpt>
      <trkpt lat="43.61243" lon="3.84493">
        <ele>67</ele>
        <time>2020-09-20T10:11:10.000Z</time>
      </trkpt>
      <trkpt lat="43.61241" lon="3.84499">
        <ele>67</ele>
        <time>2020-09-20T10:11:11.000Z</time>
      </trkpt>
      <trkpt lat="43.61238" lon="3.84504">
        <ele>67</ele>
        <time>2020-09-20T10:11:12.000Z</time>
      </trkpt>
      <trkpt lat="43.61236" lon="3.84509">
        <ele>67</ele>
        <time>2020-09-20T10:11:13.000Z</time>
      </trkpt>
      <trkpt lat="43.61233" lon="3.84514">
        <ele>67</ele>
        <time>2020-09-20T10:11:14.000Z</time>
      </trkpt>
      <trkpt lat="43.61231" lon="3.84519">
        <ele>67.05100032</ele>
        <time>2020-09-20T10:11:15.000Z</time>
      </trkpt>
      <trkpt lat="43.61228" lon="3.84524">
        <ele>67.15100032</ele>
        <time>2020-09-20T10:11:16.000Z</time>
      </trkpt>
      <trkpt lat="43.61226" lon="3.84529">
        <ele>67.25100032</ele>
        <time>2020-09-20T10:11:17.000Z</time>
      </trkpt>
      <trkpt lat="43.61224" lon="3.84533">
        <ele>67.35100032</ele>
        <time>2020-09-20T10:11:18.000Z</time>
      </trkpt>
      <trkpt lat="43.61222" lon="3.84538">
        <ele>67.45100032</ele>
        <time>2020-09-20T10:11:19.000Z</time>
      </trkpt>
      <trkpt lat="43.61219" lon="3.84543">
        <ele>67.55100032</ele>
        <time>2020-09-20T10:11:20.000Z</time>
      </trkpt>
      <trkpt lat="43.61217" lon="3.84547">
        <ele>67.65100032</ele>
        <time>2020-09-20T10:11:21.000Z</time>
      </trkpt>
      <trkpt lat="43.61214" lon="3.84551">
        <ele>67.75100032</ele>
        <time>2020-09-20T10:11:22.000Z</time>
      </trkpt>
      <trkpt lat="43.61212" lon="3.84555">
        <ele>67.85100032</ele>
        <time>2020-09-20T10:11:23.000Z</time>
      </trkpt>
      <trkpt lat="43.6121" lon="3.8456">
        <ele>67.95100032</ele>
        <time>2020-09-20T10:11:24.000Z</time>
      </trkpt>
      <trkpt lat="43.61207" lon="3.84564">
        <ele>68</ele>
        <time>2020-09-20T10:11:25.000Z</time>
      </trkpt>
      <trkpt lat="43.61204" lon="3.84569">
        <ele>68</ele>
        <time>2020-09-20T10:11:26.000Z</time>
      </trkpt>
      <trkpt lat="43.61202" lon="3.84573">
        <ele>68</ele>
        <time>2020-09-20T10:11:27.000Z</time>
      </trkpt>
      <trkpt lat="43.61199" lon="3.84577">
        <ele>68</ele>
        <time>2020-09-20T10:11:28.000Z</time>
      </trkpt>
      <trkpt lat="43.61196" lon="3.84581">
        <ele>68</ele>
        <time>2020-09-20T10:11:29.000Z</time>
      </trkpt>
      <trkpt lat="43.61193" lon="3.84585">
        <ele>68</ele>
        <time>2020-09-20T10:11:30.000Z</time>
      </trkpt>
      <trkpt lat="43.61191" lon="3.84589">
        <ele>68</ele>
        <time>2020-09-20T10:11:31.000Z</time>
      </trkpt>
      <trkpt lat="43.61188" lon="3.84593">
        <ele>68</ele>
        <time>2020-09-20T10:11:32.000Z</time>
      </trkpt>
      <trkpt lat="43.61185" lon="3.84596">
        <ele>68</ele>
        <time>2020-09-20T10:11:33.000Z</time>
      </trkpt>
      <trkpt lat="43.61182" lon="3.846">
        <ele>68</ele>
        <time>2020-09-20T10:11:34.000Z</time>
      </trkpt>
      <trkpt lat="43.61178" lon="3.84605">
        <ele>68</ele>
        <time>2020-09-20T10:11:35.000Z</time>
      </trkpt>
      <trkpt lat="43.61175" lon="3.84609">
        <ele>68</ele>
        <time>2020-09-20T10:11:36.000Z</time>
      </trkpt>
      <trkpt lat="43.61171" lon="3.84613">
        <ele>68</ele>
        <time>2020-09-20T10:11:37.000Z</time>
      </trkpt>
      <trkpt lat="43.61168" lon="3.84617">
        <ele>68</ele>
        <time>2020-09-20T10:11:38.000Z</time>
      </trkpt>
      <trkpt lat="43.61165" lon="3.84622">
        <ele>68</ele>
        <time>2020-09-20T10:11:39.000Z</time>
      </trkpt>
      <trkpt lat="43.61162" lon="3.84626">
        <ele>68</ele>
        <time>2020-09-20T10:11:40.000Z</time>
      </trkpt>
      <trkpt lat="43.61159" lon="3.8463">
        <ele>68</ele>
        <time>2020-09-20T10:11:41.000Z</time>
      </trkpt>
      <trkpt lat="43.61155" lon="3.84634">
        <ele>68</ele>
        <time>2020-09-20T10:11:42.000Z</time>
      </trkpt>
      <trkpt lat="43.61152" lon="3.84638">
        <ele>68</ele>
        <time>2020-09-20T10:11:43.000Z</time>
      </trkpt>
      <trkpt lat="43.61149" lon="3.84642">
        <ele>68</ele>
        <time>2020-09-20T10:11:44.000Z</time>
      </trkpt>
      <trkpt lat="43.61146" lon="3.84647">
        <ele>68.020639841697</ele>
        <time>2020-09-20T10:11:45.000Z</time>
      </trkpt>
      <trkpt lat="43.61143" lon="3.84652">
        <ele>68.123839050184</ele>
        <time>2020-09-20T10:11:46.000Z</time>
      </trkpt>
      <trkpt lat="43.6114" lon="3.84657">
        <ele>68.227038258671</ele>
        <time>2020-09-20T10:11:47.000Z</time>
      </trkpt>
      <trkpt lat="43.61137" lon="3.84662">
        <ele>68.330237467158</ele>
        <time>2020-09-20T10:11:48.000Z</time>
      </trkpt>
      <trkpt lat="43.61134" lon="3.84668">
        <ele>68.433436675645</ele>
        <time>2020-09-20T10:11:49.000Z</time>
      </trkpt>
      <trkpt lat="43.61131" lon="3.84673">
        <ele>68.536635884132</ele>
        <time>2020-09-20T10:11:50.000Z</time>
      </trkpt>
      <trkpt lat="43.61129" lon="3.84679">
        <ele>68.639835092618</ele>
        <time>2020-09-20T10:11:51.000Z</time>
      </trkpt>
      <trkpt lat="43.61127" lon="3.84684">
        <ele>68.743034301105</ele>
        <time>2020-09-20T10:11:52.000Z</time>
      </trkpt>
      <trkpt lat="43.61124" lon="3.84689">
        <ele>68.846233509592</ele>
        <time>2020-09-20T10:11:53.000Z</time>
      </trkpt>
      <trkpt lat="43.61121" lon="3.84695">
        <ele>68.949432718079</ele>
        <time>2020-09-20T10:11:54.000Z</time>
      </trkpt>
      <trkpt lat="43.61118" lon="3.84701">
        <ele>69.05100032</ele>
        <time>2020-09-20T10:11:55.000Z</time>
      </trkpt>
      <trkpt lat="43.61115" lon="3.84707">
        <ele>69.15100032</ele>
        <time>2020-09-20T10:11:56.000Z</time>
      </trkpt>
      <trkpt lat="43.61112" lon="3.84713">
        <ele>69.25100032</ele>
        <time>2020-09-20T10:11:57.000Z</time>
      </trkpt>
      <trkpt lat="43.6111" lon="3.84719">
        <ele>69.35100032</ele>
        <time>2020-09-20T10:11:58.000Z</time>
      </trkpt>
      <trkpt lat="43.61109" lon="3.84725">
        <ele>69.45100032</ele>
        <time>2020-09-20T10:11:59.000Z</time>
      </trkpt>
      <trkpt lat="43.61107" lon="3.84732">
        <ele>69.55100032</ele>
        <time>2020-09-20T10:12:00.000Z</time>
      </trkpt>
      <trkpt lat="43.61105" lon="3.84738">
        <ele>69.65100032</ele>
        <time>2020-09-20T10:12:01.000Z</time>
      </trkpt>
      <trkpt lat="43.61104" lon="3.84745">
        <ele>69.75100032</ele>
        <time>2020-09-20T10:12:02.000Z</time>
      </trkpt>
      <trkpt lat="43.61103" lon="3.84752">
        <ele>69.85100032</ele>
        <time>2020-09-20T10:12:03.000Z</time>
      </trkpt>
      <trkpt lat="43.61101" lon="3.84759">
        <ele>69.95100032</ele>
        <time>2020-09-20T10:12:04.000Z</time>
      </trkpt>
      <trkpt lat="43.61099" lon="3.84766">
        <ele>69.950533167633</ele>
        <time>2020-09-20T10:12:05.000Z</time>
      </trkpt>
      <trkpt lat="43.61098" lon="3.84773">
        <ele>69.853539987262</ele>
        <time>2020-09-20T10:12:06.000Z</time>
      </trkpt>
      <trkpt lat="43.61096" lon="3.8478">
        <ele>69.756546806891</ele>
        <time>2020-09-20T10:12:07.000Z</time>
      </trkpt>
      <trkpt lat="43.61094" lon="3.84787">
        <ele>69.659553626521</ele>
        <time>2020-09-20T10:12:08.000Z</time>
      </trkpt>
      <trkpt lat="43.61093" lon="3.84794">
        <ele>69.56256044615</ele>
        <time>2020-09-20T10:12:09.000Z</time>
      </trkpt>
      <trkpt lat="43.61091" lon="3.84801">
        <ele>69.465567265779</ele>
        <time>2020-09-20T10:12:10.000Z</time>
      </trkpt>
      <trkpt lat="43.6109" lon="3.84808">
        <ele>69.368574085409</ele>
        <time>2020-09-20T10:12:11.000Z</time>
      </trkpt>
      <trkpt lat="43.61088" lon="3.84815">
        <ele>69.271580905038</ele>
        <time>2020-09-20T10:12:12.000Z</time>
      </trkpt>
      <trkpt lat="43.61087" lon="3.84822">
        <ele>69.174587724667</ele>
        <time>2020-09-20T10:12:13.000Z</time>
      </trkpt>
      <trkpt lat="43.61085" lon="3.84829">
        <ele>69.077594544297</ele>
        <time>2020-09-20T10:12:14.000Z</time>
      </trkpt>
      <trkpt lat="43.61083" lon="3.84836">
        <ele>68.979360158303</ele>
        <time>2020-09-20T10:12:15.000Z</time>
      </trkpt>
      <trkpt lat="43.61081" lon="3.84843">
        <ele>68.876160949816</ele>
        <time>2020-09-20T10:12:16.000Z</time>
      </trkpt>
      <trkpt lat="43.6108" lon="3.84849">
        <ele>68.772961741329</ele>
        <time>2020-09-20T10:12:17.000Z</time>
      </trkpt>
      <trkpt lat="43.61078" lon="3.84855">
        <ele>68.669762532842</ele>
        <time>2020-09-20T10:12:18.000Z</time>
      </trkpt>
      <trkpt lat="43.61077" lon="3.84861">
        <ele>68.566563324355</ele>
        <time>2020-09-20T10:12:19.000Z</time>
      </trkpt>
      <trkpt lat="43.61075" lon="3.84867">
        <ele>68.463364115868</ele>
        <time>2020-09-20T10:12:20.000Z</time>
      </trkpt>
      <trkpt lat="43.61074" lon="3.84873">
        <ele>68.360164907382</ele>
        <time>2020-09-20T10:12:21.000Z</time>
      </trkpt>
      <trkpt lat="43.61072" lon="3.84878">
        <ele>68.256965698895</ele>
        <time>2020-09-20T10:12:22.000Z</time>
      </trkpt>
      <trkpt lat="43.61071" lon="3.84884">
        <ele>68.153766490408</ele>
        <time>2020-09-20T10:12:23.000Z</time>
      </trkpt>
      <trkpt lat="43.6107" lon="3.8489">
        <ele>68.050567281921</ele>
        <time>2020-09-20T10:12:24.000Z</time>
      </trkpt>
      <trkpt lat="43.61069" lon="3.84896">
        <ele>68.05100032</ele>
        <time>2020-09-20T10:12:25.000Z</time>
      </trkpt>
      <trkpt lat="43.61067" lon="3.84902">
        <ele>68.15100032</ele>
        <time>2020-09-20T10:12:26.000Z</time>
      </trkpt>
      <trkpt lat="43.61065" lon="3.84908">
        <ele>68.25100032</ele>
        <time>2020-09-20T10:12:27.000Z</time>
      </trkpt>
      <trkpt lat="43.61063" lon="3.84914">
        <ele>68.35100032</ele>
        <time>2020-09-20T10:12:28.000Z</time>
      </trkpt>
      <trkpt lat="43.61062" lon="3.8492">
        <ele>68.45100032</ele>
        <time>2020-09-20T10:12:29.000Z</time>
      </trkpt>
      <trkpt lat="43.61061" lon="3.84927">
        <ele>68.55100032</ele>
        <time>2020-09-20T10:12:30.000Z</time>
      </trkpt>
      <trkpt lat="43.61059" lon="3.84934">
        <ele>68.65100032</ele>
        <time>2020-09-20T10:12:31.000Z</time>
      </trkpt>
      <trkpt lat="43.61057" lon="3.84941">
        <ele>68.75100032</ele>
        <time>2020-09-20T10:12:32.000Z</time>
      </trkpt>
      <trkpt lat="43.61056" lon="3.84948">
        <ele>68.85100032</ele>
        <time>2020-09-20T10:12:33.000Z</time>
      </trkpt>
      <trkpt lat="43.61054" lon="3.84955">
        <ele>68.95100032</ele>
        <time>2020-09-20T10:12:34.000Z</time>
      </trkpt>
      <trkpt lat="43.61052" lon="3.84962">
        <ele>68.950533167633</ele>
        <time>2020-09-20T10:12:35.000Z</time>
      </trkpt>
      <trkpt lat="43.6105" lon="3.84969">
        <ele>68.853539987262</ele>
        <time>2020-09-20T10:12:36.000Z</time>
      </trkpt>
      <trkpt lat="43.61048" lon="3.84976">
        <ele>68.756546806891</ele>
        <time>2020-09-20T10:12:37.000Z</time>
      </trkpt>
      <trkpt lat="43.61046" lon="3.84984">
        <ele>68.659553626521</ele>
        <time>2020-09-20T10:12:38.000Z</time>
      </trkpt>
      <trkpt lat="43.61045" lon="3.84991">
        <ele>68.56256044615</ele>
        <time>2020-09-20T10:12:39.000Z</time>
      </trkpt>
      <trkpt lat="43.61043" lon="3.84999">
        <ele>68.465567265779</ele>
        <time>2020-09-20T10:12:40.000Z</time>
      </trkpt>
      <trkpt lat="43.61041" lon="3.85007">
        <ele>68.368574085409</ele>
        <time>2020-09-20T10:12:41.000Z</time>
      </trkpt>
      <trkpt lat="43.6104" lon="3.85015">
        <ele>68.271580905038</ele>
        <time>2020-09-20T10:12:42.000Z</time>
      </trkpt>
      <trkpt lat="43.61038" lon="3.85023">
        <ele>68.174587724667</ele>
        <time>2020-09-20T10:12:43.000Z</time>
      </trkpt>
      <trkpt lat="43.61037" lon="3.85031">
        <ele>68.077594544297</ele>
        <time>2020-09-20T10:12:44.000Z</time>
      </trkpt>
      <trkpt lat="43.61036" lon="3.85039">
        <ele>68</ele>
        <time>2020-09-20T10:12:45.000Z</time>
      </trkpt>
      <trkpt lat="43.61036" lon="3.85046">
        <ele>68</ele>
        <time>2020-09-20T10:12:46.000Z</time>
      </trkpt>
      <trkpt lat="43.61035" lon="3.85054">
        <ele>68</ele>
        <time>2020-09-20T10:12:47.000Z</time>
      </trkpt>
      <trkpt lat="43.61034" lon="3.85061">
        <ele>68</ele>
        <time>2020-09-20T10:12:48.000Z</time>
      </trkpt>
      <trkpt lat="43.61033" lon="3.85068">
        <ele>68</ele>
        <time>2020-09-20T10:12:49.000Z</time>
      </trkpt>
      <trkpt lat="43.61032" lon="3.85074">
        <ele>68</ele>
        <time>2020-09-20T10:12:50.000Z</time>
      </trkpt>
      <trkpt lat="43.61031" lon="3.85081">
        <ele>68</ele>
        <time>2020-09-20T10:12:51.000Z</time>
      </trkpt>
      <trkpt lat="43.61029" lon="3.85087">
        <ele>68</ele>
        <time>2020-09-20T10:12:52.000Z</time>
      </trkpt>
      <trkpt lat="43.61028" lon="3.85093">
        <ele>68</ele>
        <time>2020-09-20T10:12:53.000Z</time>
      </trkpt>
      <trkpt lat="43.61027" lon="3.85098">
        <ele>68</ele>
        <time>2020-09-20T10:12:54.000Z</time>
      </trkpt>
      <trkpt lat="43.61028" lon="3.85101">
        <ele>68</ele>
        <time>2020-09-20T10:12:55.000Z</time>
      </trkpt>
      <trkpt lat="43.61028" lon="3.85105">
        <ele>68</ele>
        <time>2020-09-20T10:12:56.000Z</time>
      </trkpt>
      <trkpt lat="43.61027" lon="3.8511">
        <ele>68</ele>
        <time>2020-09-20T10:12:57.000Z</time>
      </trkpt>
      <trkpt lat="43.61026" lon="3.85115">
        <ele>68</ele>
        <time>2020-09-20T10:12:58.000Z</time>
      </trkpt>
      <trkpt lat="43.61026" lon="3.8512">
        <ele>68</ele>
        <time>2020-09-20T10:12:59.000Z</time>
      </trkpt>
      <trkpt lat="43.61025" lon="3.85126">
        <ele>68</ele>
        <time>2020-09-20T10:13:00.000Z</time>
      </trkpt>
      <trkpt lat="43.61024" lon="3.85132">
        <ele>68</ele>
        <time>2020-09-20T10:13:01.000Z</time>
      </trkpt>
      <trkpt lat="43.61024" lon="3.85138">
        <ele>68</ele>
        <time>2020-09-20T10:13:02.000Z</time>
      </trkpt>
      <trkpt lat="43.61023" lon="3.85145">
        <ele>68</ele>
        <time>2020-09-20T10:13:03.000Z</time>
      </trkpt>
      <trkpt lat="43.61022" lon="3.85151">
        <ele>68</ele>
        <time>2020-09-20T10:13:04.000Z</time>
      </trkpt>
      <trkpt lat="43.61021" lon="3.85158">
        <ele>68</ele>
        <time>2020-09-20T10:13:05.000Z</time>
      </trkpt>
      <trkpt lat="43.6102" lon="3.85164">
        <ele>68</ele>
        <time>2020-09-20T10:13:06.000Z</time>
      </trkpt>
      <trkpt lat="43.6102" lon="3.85171">
        <ele>68</ele>
        <time>2020-09-20T10:13:07.000Z</time>
      </trkpt>
      <trkpt lat="43.61019" lon="3.85178">
        <ele>68</ele>
        <time>2020-09-20T10:13:08.000Z</time>
      </trkpt>
      <trkpt lat="43.61018" lon="3.85185">
        <ele>68</ele>
        <time>2020-09-20T10:13:09.000Z</time>
      </trkpt>
      <trkpt lat="43.61018" lon="3.85191">
        <ele>68</ele>
        <time>2020-09-20T10:13:10.000Z</time>
      </trkpt>
      <trkpt lat="43.61018" lon="3.85198">
        <ele>68</ele>
        <time>2020-09-20T10:13:11.000Z</time>
      </trkpt>
      <trkpt lat="43.61018" lon="3.85205">
        <ele>68</ele>
        <time>2020-09-20T10:13:12.000Z</time>
      </trkpt>
      <trkpt lat="43.61018" lon="3.85212">
        <ele>68</ele>
        <time>2020-09-20T10:13:13.000Z</time>
      </trkpt>
      <trkpt lat="43.61018" lon="3.85219">
        <ele>68</ele>
        <time>2020-09-20T10:13:14.000Z</time>
      </trkpt>
      <trkpt lat="43.61017" lon="3.85226">
        <ele>68</ele>
        <time>2020-09-20T10:13:15.000Z</time>
      </trkpt>
      <trkpt lat="43.61017" lon="3.85234">
        <ele>68</ele>
        <time>2020-09-20T10:13:16.000Z</time>
      </trkpt>
      <trkpt lat="43.61017" lon="3.85241">
        <ele>68</ele>
        <time>2020-09-20T10:13:17.000Z</time>
      </trkpt>
      <trkpt lat="43.61016" lon="3.85248">
        <ele>68</ele>
        <time>2020-09-20T10:13:18.000Z</time>
      </trkpt>
      <trkpt lat="43.61016" lon="3.85255">
        <ele>68</ele>
        <time>2020-09-20T10:13:19.000Z</time>
      </trkpt>
      <trkpt lat="43.61016" lon="3.85263">
        <ele>68</ele>
        <time>2020-09-20T10:13:20.000Z</time>
      </trkpt>
      <trkpt lat="43.61016" lon="3.8527">
        <ele>68</ele>
        <time>2020-09-20T10:13:21.000Z</time>
      </trkpt>
      <trkpt lat="43.61016" lon="3.85278">
        <ele>68</ele>
        <time>2020-09-20T10:13:22.000Z</time>
      </trkpt>
      <trkpt lat="43.61016" lon="3.85285">
        <ele>68</ele>
        <time>2020-09-20T10:13:23.000Z</time>
      </trkpt>
      <trkpt lat="43.61016" lon="3.85293">
        <ele>68</ele>
        <time>2020-09-20T10:13:24.000Z</time>
      </trkpt>
      <trkpt lat="43.61016" lon="3.853">
        <ele>67.94899968</ele>
        <time>2020-09-20T10:13:25.000Z</time>
      </trkpt>
      <trkpt lat="43.61016" lon="3.85307">
        <ele>67.84899968</ele>
        <time>2020-09-20T10:13:26.000Z</time>
      </trkpt>
      <trkpt lat="43.61015" lon="3.85313">
        <ele>67.74899968</ele>
        <time>2020-09-20T10:13:27.000Z</time>
      </trkpt>
      <trkpt lat="43.61015" lon="3.8532">
        <ele>67.64899968</ele>
        <time>2020-09-20T10:13:28.000Z</time>
      </trkpt>
      <trkpt lat="43.61014" lon="3.85326">
        <ele>67.54899968</ele>
        <time>2020-09-20T10:13:29.000Z</time>
      </trkpt>
      <trkpt lat="43.61014" lon="3.85332">
        <ele>67.44899968</ele>
        <time>2020-09-20T10:13:30.000Z</time>
      </trkpt>
      <trkpt lat="43.61013" lon="3.85338">
        <ele>67.34899968</ele>
        <time>2020-09-20T10:13:31.000Z</time>
      </trkpt>
      <trkpt lat="43.61013" lon="3.85345">
        <ele>67.24899968</ele>
        <time>2020-09-20T10:13:32.000Z</time>
      </trkpt>
      <trkpt lat="43.61013" lon="3.85353">
        <ele>67.14899968</ele>
        <time>2020-09-20T10:13:33.000Z</time>
      </trkpt>
      <trkpt lat="43.61013" lon="3.8536">
        <ele>67.04899968</ele>
        <time>2020-09-20T10:13:34.000Z</time>
      </trkpt>
      <trkpt lat="43.61012" lon="3.85368">
        <ele>67</ele>
        <time>2020-09-20T10:13:35.000Z</time>
      </trkpt>
      <trkpt lat="43.61012" lon="3.85375">
        <ele>67</ele>
        <time>2020-09-20T10:13:36.000Z</time>
      </trkpt>
      <trkpt lat="43.61012" lon="3.85383">
        <ele>67</ele>
        <time>2020-09-20T10:13:37.000Z</time>
      </trkpt>
      <trkpt lat="43.61012" lon="3.85391">
        <ele>67</ele>
        <time>2020-09-20T10:13:38.000Z</time>
      </trkpt>
      <trkpt lat="43.61013" lon="3.85399">
        <ele>67</ele>
        <time>2020-09-20T10:13:39.000Z</time>
      </trkpt>
      <trkpt lat="43.61013" lon="3.85407">
        <ele>67</ele>
        <time>2020-09-20T10:13:40.000Z</time>
      </trkpt>
      <trkpt lat="43.61013" lon="3.85415">
        <ele>67</ele>
        <time>2020-09-20T10:13:41.000Z</time>
      </trkpt>
      <trkpt lat="43.61014" lon="3.85423">
        <ele>67</ele>
        <time>2020-09-20T10:13:42.000Z</time>
      </trkpt>
      <trkpt lat="43.61014" lon="3.85431">
        <ele>67</ele>
        <time>2020-09-20T10:13:43.000Z</time>
      </trkpt>
      <trkpt lat="43.61015" lon="3.85439">
        <ele>67</ele>
        <time>2020-09-20T10:13:44.000Z</time>
      </trkpt>
      <trkpt lat="43.61016" lon="3.85447">
        <ele>67</ele>
        <time>2020-09-20T10:13:45.000Z</time>
      </trkpt>
      <trkpt lat="43.61017" lon="3.85455">
        <ele>66.8955692827</ele>
        <time>2020-09-20T10:13:46.000Z</time>
      </trkpt>
      <trkpt lat="43.61018" lon="3.85462">
        <ele>66.790084050633</ele>
        <time>2020-09-20T10:13:47.000Z</time>
      </trkpt>
      <trkpt lat="43.6102" lon="3.8547">
        <ele>66.684598818565</ele>
        <time>2020-09-20T10:13:48.000Z</time>
      </trkpt>
      <trkpt lat="43.6102" lon="3.85477">
        <ele>66.579113586498</ele>
        <time>2020-09-20T10:13:49.000Z</time>
      </trkpt>
      <trkpt lat="43.61021" lon="3.85484">
        <ele>66.47362835443</ele>
        <time>2020-09-20T10:13:50.000Z</time>
      </trkpt>
      <trkpt lat="43.61022" lon="3.85492">
        <ele>66.368143122363</ele>
        <time>2020-09-20T10:13:51.000Z</time>
      </trkpt>
      <trkpt lat="43.61022" lon="3.85499">
        <ele>66.262657890295</ele>
        <time>2020-09-20T10:13:52.000Z</time>
      </trkpt>
      <trkpt lat="43.61023" lon="3.85506">
        <ele>66.157172658228</ele>
        <time>2020-09-20T10:13:53.000Z</time>
      </trkpt>
      <trkpt lat="43.61024" lon="3.85514">
        <ele>66.05168742616</ele>
        <time>2020-09-20T10:13:54.000Z</time>
      </trkpt>
      <trkpt lat="43.61025" lon="3.85521">
        <ele>65.949050613083</ele>
        <time>2020-09-20T10:13:55.000Z</time>
      </trkpt>
      <trkpt lat="43.61026" lon="3.85528">
        <ele>65.849150481247</ele>
        <time>2020-09-20T10:13:56.000Z</time>
      </trkpt>
      <trkpt lat="43.61027" lon="3.85535">
        <ele>65.749250349411</ele>
        <time>2020-09-20T10:13:57.000Z</time>
      </trkpt>
      <trkpt lat="43.61028" lon="3.85543">
        <ele>65.649350217574</ele>
        <time>2020-09-20T10:13:58.000Z</time>
      </trkpt>
      <trkpt lat="43.61028" lon="3.8555">
        <ele>65.549450085738</ele>
        <time>2020-09-20T10:13:59.000Z</time>
      </trkpt>
      <trkpt lat="43.61028" lon="3.85557">
        <ele>65.449549953902</ele>
        <time>2020-09-20T10:14:00.000Z</time>
      </trkpt>
      <trkpt lat="43.61029" lon="3.85564">
        <ele>65.349649822066</ele>
        <time>2020-09-20T10:14:01.000Z</time>
      </trkpt>
      <trkpt lat="43.6103" lon="3.85572">
        <ele>65.24974969023</ele>
        <time>2020-09-20T10:14:02.000Z</time>
      </trkpt>
      <trkpt lat="43.6103" lon="3.8558">
        <ele>65.149849558393</ele>
        <time>2020-09-20T10:14:03.000Z</time>
      </trkpt>
      <trkpt lat="43.61031" lon="3.85587">
        <ele>65.049949426557</ele>
        <time>2020-09-20T10:14:04.000Z</time>
      </trkpt>
      <trkpt lat="43.61032" lon="3.85594">
        <ele>64.949949325342</ele>
        <time>2020-09-20T10:14:05.000Z</time>
      </trkpt>
      <trkpt lat="43.61033" lon="3.85601">
        <ele>64.849849257306</ele>
        <time>2020-09-20T10:14:06.000Z</time>
      </trkpt>
      <trkpt lat="43.61035" lon="3.85607">
        <ele>64.749749189269</ele>
        <time>2020-09-20T10:14:07.000Z</time>
      </trkpt>
      <trkpt lat="43.61037" lon="3.85614">
        <ele>64.649649121233</ele>
        <time>2020-09-20T10:14:08.000Z</time>
      </trkpt>
      <trkpt lat="43.61039" lon="3.8562">
        <ele>64.549549053197</ele>
        <time>2020-09-20T10:14:09.000Z</time>
      </trkpt>
      <trkpt lat="43.61041" lon="3.85626">
        <ele>64.449448985161</ele>
        <time>2020-09-20T10:14:10.000Z</time>
      </trkpt>
      <trkpt lat="43.61044" lon="3.85632">
        <ele>64.349348917125</ele>
        <time>2020-09-20T10:14:11.000Z</time>
      </trkpt>
      <trkpt lat="43.61047" lon="3.85638">
        <ele>64.249248849089</ele>
        <time>2020-09-20T10:14:12.000Z</time>
      </trkpt>
      <trkpt lat="43.61051" lon="3.85644">
        <ele>64.149148781053</ele>
        <time>2020-09-20T10:14:13.000Z</time>
      </trkpt>
      <trkpt lat="43.61055" lon="3.8565">
        <ele>64.049048713017</ele>
        <time>2020-09-20T10:14:14.000Z</time>
      </trkpt>
      <trkpt lat="43.61058" lon="3.85655">
        <ele>63.89799936</ele>
        <time>2020-09-20T10:14:15.000Z</time>
      </trkpt>
      <trkpt lat="43.61062" lon="3.85661">
        <ele>63.69799936</ele>
        <time>2020-09-20T10:14:16.000Z</time>
      </trkpt>
      <trkpt lat="43.61066" lon="3.85667">
        <ele>63.49799936</ele>
        <time>2020-09-20T10:14:17.000Z</time>
      </trkpt>
      <trkpt lat="43.6107" lon="3.85673">
        <ele>63.29799936</ele>
        <time>2020-09-20T10:14:18.000Z</time>
      </trkpt>
      <trkpt lat="43.61075" lon="3.85679">
        <ele>63.09799936</ele>
        <time>2020-09-20T10:14:19.000Z</time>
      </trkpt>
      <trkpt lat="43.6108" lon="3.85685">
        <ele>62.89799936</ele>
        <time>2020-09-20T10:14:20.000Z</time>
      </trkpt>
      <trkpt lat="43.61084" lon="3.85692">
        <ele>62.69799936</ele>
        <time>2020-09-20T10:14:21.000Z</time>
      </trkpt>
      <trkpt lat="43.61089" lon="3.85699">
        <ele>62.49799936</ele>
        <time>2020-09-20T10:14:22.000Z</time>
      </trkpt>
      <trkpt lat="43.61094" lon="3.85706">
        <ele>62.29799936</ele>
        <time>2020-09-20T10:14:23.000Z</time>
      </trkpt>
      <trkpt lat="43.61099" lon="3.85714">
        <ele>62.09799936</ele>
        <time>2020-09-20T10:14:24.000Z</time>
      </trkpt>
      <trkpt lat="43.61104" lon="3.85721">
        <ele>61.89799936</ele>
        <time>2020-09-20T10:14:25.000Z</time>
      </trkpt>
      <trkpt lat="43.61109" lon="3.8573">
        <ele>61.69799936</ele>
        <time>2020-09-20T10:14:26.000Z</time>
      </trkpt>
      <trkpt lat="43.61114" lon="3.85739">
        <ele>61.49799936</ele>
        <time>2020-09-20T10:14:27.000Z</time>
      </trkpt>
      <trkpt lat="43.61118" lon="3.85749">
        <ele>61.29799936</ele>
        <time>2020-09-20T10:14:28.000Z</time>
      </trkpt>
      <trkpt lat="43.61122" lon="3.85759">
        <ele>61.09799936</ele>
        <time>2020-09-20T10:14:29.000Z</time>
      </trkpt>
      <trkpt lat="43.61124" lon="3.85771">
        <ele>60.89799936</ele>
        <time>2020-09-20T10:14:30.000Z</time>
      </trkpt>
      <trkpt lat="43.61127" lon="3.85782">
        <ele>60.69799936</ele>
        <time>2020-09-20T10:14:31.000Z</time>
      </trkpt>
      <trkpt lat="43.61129" lon="3.85793">
        <ele>60.49799936</ele>
        <time>2020-09-20T10:14:32.000Z</time>
      </trkpt>
      <trkpt lat="43.61131" lon="3.85805">
        <ele>60.29799936</ele>
        <time>2020-09-20T10:14:33.000Z</time>
      </trkpt>
      <trkpt lat="43.61133" lon="3.85816">
        <ele>60.09799936</ele>
        <time>2020-09-20T10:14:34.000Z</time>
      </trkpt>
      <trkpt lat="43.61136" lon="3.85827">
        <ele>59.694303678499</ele>
        <time>2020-09-20T10:14:35.000Z</time>
      </trkpt>
      <trkpt lat="43.61139" lon="3.85839">
        <ele>59.094902887481</ele>
        <time>2020-09-20T10:14:36.000Z</time>
      </trkpt>
      <trkpt lat="43.61141" lon="3.8585">
        <ele>58.495502096464</ele>
        <time>2020-09-20T10:14:37.000Z</time>
      </trkpt>
      <trkpt lat="43.61144" lon="3.85861">
        <ele>57.896101305447</ele>
        <time>2020-09-20T10:14:38.000Z</time>
      </trkpt>
      <trkpt lat="43.61146" lon="3.85872">
        <ele>57.29670051443</ele>
        <time>2020-09-20T10:14:39.000Z</time>
      </trkpt>
      <trkpt lat="43.61148" lon="3.85884">
        <ele>56.697299723412</ele>
        <time>2020-09-20T10:14:40.000Z</time>
      </trkpt>
      <trkpt lat="43.61149" lon="3.85896">
        <ele>56.097898932395</ele>
        <time>2020-09-20T10:14:41.000Z</time>
      </trkpt>
      <trkpt lat="43.61151" lon="3.85908">
        <ele>55.498498141378</ele>
        <time>2020-09-20T10:14:42.000Z</time>
      </trkpt>
      <trkpt lat="43.61153" lon="3.85919">
        <ele>54.899097350361</ele>
        <time>2020-09-20T10:14:43.000Z</time>
      </trkpt>
      <trkpt lat="43.61154" lon="3.85931">
        <ele>54.299696559344</ele>
        <time>2020-09-20T10:14:44.000Z</time>
      </trkpt>
      <trkpt lat="43.61156" lon="3.85943">
        <ele>53.84999808</ele>
        <time>2020-09-20T10:14:45.000Z</time>
      </trkpt>
      <trkpt lat="43.61157" lon="3.85954">
        <ele>53.54999808</ele>
        <time>2020-09-20T10:14:46.000Z</time>
      </trkpt>
      <trkpt lat="43.61159" lon="3.85965">
        <ele>53.24999808</ele>
        <time>2020-09-20T10:14:47.000Z</time>
      </trkpt>
      <trkpt lat="43.61161" lon="3.85976">
        <ele>52.94999808</ele>
        <time>2020-09-20T10:14:48.000Z</time>
      </trkpt>
      <trkpt lat="43.61161" lon="3.85988">
        <ele>52.64999808</ele>
        <time>2020-09-20T10:14:49.000Z</time>
      </trkpt>
      <trkpt lat="43.61162" lon="3.85999">
        <ele>52.34999808</ele>
        <time>2020-09-20T10:14:50.000Z</time>
      </trkpt>
      <trkpt lat="43.61164" lon="3.8601">
        <ele>52.04999808</ele>
        <time>2020-09-20T10:14:51.000Z</time>
      </trkpt>
      <trkpt lat="43.61165" lon="3.8602">
        <ele>51.74999808</ele>
        <time>2020-09-20T10:14:52.000Z</time>
      </trkpt>
      <trkpt lat="43.61166" lon="3.86031">
        <ele>51.44999808</ele>
        <time>2020-09-20T10:14:53.000Z</time>
      </trkpt>
      <trkpt lat="43.61168" lon="3.86042">
        <ele>51.14999808</ele>
        <time>2020-09-20T10:14:54.000Z</time>
      </trkpt>
      <trkpt lat="43.61169" lon="3.86053">
        <ele>50.799797301366</ele>
        <time>2020-09-20T10:14:55.000Z</time>
      </trkpt>
      <trkpt lat="43.6117" lon="3.86063">
        <ele>50.399397029222</ele>
        <time>2020-09-20T10:14:56.000Z</time>
      </trkpt>
      <trkpt lat="43.61171" lon="3.86074">
        <ele>49.998996757078</ele>
        <time>2020-09-20T10:14:57.000Z</time>
      </trkpt>
      <trkpt lat="43.61172" lon="3.86084">
        <ele>49.598596484934</ele>
        <time>2020-09-20T10:14:58.000Z</time>
      </trkpt>
      <trkpt lat="43.61172" lon="3.86094">
        <ele>49.19819621279</ele>
        <time>2020-09-20T10:14:59.000Z</time>
      </trkpt>
      <trkpt lat="43.61169" lon="3.86103">
        <ele>48.797795940646</ele>
        <time>2020-09-20T10:15:00.000Z</time>
      </trkpt>
      <trkpt lat="43.61165" lon="3.86109">
        <ele>48.397395668502</ele>
        <time>2020-09-20T10:15:01.000Z</time>
      </trkpt>
      <trkpt lat="43.6116" lon="3.86115">
        <ele>47.996995396358</ele>
        <time>2020-09-20T10:15:02.000Z</time>
      </trkpt>
      <trkpt lat="43.61157" lon="3.86121">
        <ele>47.596595124214</ele>
        <time>2020-09-20T10:15:03.000Z</time>
      </trkpt>
      <trkpt lat="43.61155" lon="3.86128">
        <ele>47.19619485207</ele>
        <time>2020-09-20T10:15:04.000Z</time>
      </trkpt>
      <trkpt lat="43.61156" lon="3.86135">
        <ele>47.049466832367</ele>
        <time>2020-09-20T10:15:05.000Z</time>
      </trkpt>
      <trkpt lat="43.61158" lon="3.86142">
        <ele>47.146460012738</ele>
        <time>2020-09-20T10:15:06.000Z</time>
      </trkpt>
      <trkpt lat="43.6116" lon="3.8615">
        <ele>47.243453193109</ele>
        <time>2020-09-20T10:15:07.000Z</time>
      </trkpt>
      <trkpt lat="43.61161" lon="3.86157">
        <ele>47.340446373479</ele>
        <time>2020-09-20T10:15:08.000Z</time>
      </trkpt>
      <trkpt lat="43.61163" lon="3.86165">
        <ele>47.43743955385</ele>
        <time>2020-09-20T10:15:09.000Z</time>
      </trkpt>
      <trkpt lat="43.61165" lon="3.86173">
        <ele>47.534432734221</ele>
        <time>2020-09-20T10:15:10.000Z</time>
      </trkpt>
      <trkpt lat="43.61168" lon="3.86181">
        <ele>47.631425914591</ele>
        <time>2020-09-20T10:15:11.000Z</time>
      </trkpt>
      <trkpt lat="43.6117" lon="3.86188">
        <ele>47.728419094962</ele>
        <time>2020-09-20T10:15:12.000Z</time>
      </trkpt>
      <trkpt lat="43.61172" lon="3.86195">
        <ele>47.825412275333</ele>
        <time>2020-09-20T10:15:13.000Z</time>
      </trkpt>
      <trkpt lat="43.61174" lon="3.86203">
        <ele>47.922405455703</ele>
        <time>2020-09-20T10:15:14.000Z</time>
      </trkpt>
      <trkpt lat="43.61176" lon="3.86211">
        <ele>47.979360158303</ele>
        <time>2020-09-20T10:15:15.000Z</time>
      </trkpt>
      <trkpt lat="43.61177" lon="3.86219">
        <ele>47.876160949816</ele>
        <time>2020-09-20T10:15:16.000Z</time>
      </trkpt>
      <trkpt lat="43.61177" lon="3.86227">
        <ele>47.772961741329</ele>
        <time>2020-09-20T10:15:17.000Z</time>
      </trkpt>
      <trkpt lat="43.61177" lon="3.86235">
        <ele>47.669762532842</ele>
        <time>2020-09-20T10:15:18.000Z</time>
      </trkpt>
      <trkpt lat="43.61176" lon="3.86242">
        <ele>47.566563324355</ele>
        <time>2020-09-20T10:15:19.000Z</time>
      </trkpt>
      <trkpt lat="43.61175" lon="3.8625">
        <ele>47.463364115868</ele>
        <time>2020-09-20T10:15:20.000Z</time>
      </trkpt>
      <trkpt lat="43.61174" lon="3.86257">
        <ele>47.360164907382</ele>
        <time>2020-09-20T10:15:21.000Z</time>
      </trkpt>
      <trkpt lat="43.61174" lon="3.86264">
        <ele>47.256965698895</ele>
        <time>2020-09-20T10:15:22.000Z</time>
      </trkpt>
      <trkpt lat="43.61173" lon="3.86271">
        <ele>47.153766490408</ele>
        <time>2020-09-20T10:15:23.000Z</time>
      </trkpt>
      <trkpt lat="43.61173" lon="3.86279">
        <ele>47.050567281921</ele>
        <time>2020-09-20T10:15:24.000Z</time>
      </trkpt>
      <trkpt lat="43.61172" lon="3.86286">
        <ele>46.901448687475</ele>
        <time>2020-09-20T10:15:25.000Z</time>
      </trkpt>
      <trkpt lat="43.61172" lon="3.86293">
        <ele>46.708212032244</ele>
        <time>2020-09-20T10:15:26.000Z</time>
      </trkpt>
      <trkpt lat="43.61171" lon="3.863">
        <ele>46.514975377012</ele>
        <time>2020-09-20T10:15:27.000Z</time>
      </trkpt>
      <trkpt lat="43.6117" lon="3.86307">
        <ele>46.321738721781</ele>
        <time>2020-09-20T10:15:28.000Z</time>
      </trkpt>
      <trkpt lat="43.6117" lon="3.86315">
        <ele>46.12850206655</ele>
        <time>2020-09-20T10:15:29.000Z</time>
      </trkpt>
      <trkpt lat="43.61169" lon="3.86322">
        <ele>45.935265411319</ele>
        <time>2020-09-20T10:15:30.000Z</time>
      </trkpt>
      <trkpt lat="43.61169" lon="3.86329">
        <ele>45.742028756088</ele>
        <time>2020-09-20T10:15:31.000Z</time>
      </trkpt>
      <trkpt lat="43.61168" lon="3.86337">
        <ele>45.548792100857</ele>
        <time>2020-09-20T10:15:32.000Z</time>
      </trkpt>
      <trkpt lat="43.61168" lon="3.86345">
        <ele>45.355555445625</ele>
        <time>2020-09-20T10:15:33.000Z</time>
      </trkpt>
      <trkpt lat="43.61168" lon="3.86352">
        <ele>45.162318790394</ele>
        <time>2020-09-20T10:15:34.000Z</time>
      </trkpt>
      <trkpt lat="43.61168" lon="3.8636">
        <ele>45.016580316379</ele>
        <time>2020-09-20T10:15:35.000Z</time>
      </trkpt>
      <trkpt lat="43.61168" lon="3.86368">
        <ele>45.120207293747</ele>
        <time>2020-09-20T10:15:36.000Z</time>
      </trkpt>
      <trkpt lat="43.61168" lon="3.86376">
        <ele>45.223834271116</ele>
        <time>2020-09-20T10:15:37.000Z</time>
      </trkpt>
      <trkpt lat="43.61167" lon="3.86383">
        <ele>45.327461248485</ele>
        <time>2020-09-20T10:15:38.000Z</time>
      </trkpt>
      <trkpt lat="43.61166" lon="3.86391">
        <ele>45.431088225853</ele>
        <time>2020-09-20T10:15:39.000Z</time>
      </trkpt>
      <trkpt lat="43.61165" lon="3.86399">
        <ele>45.534715203222</ele>
        <time>2020-09-20T10:15:40.000Z</time>
      </trkpt>
      <trkpt lat="43.61165" lon="3.86407">
        <ele>45.63834218059</ele>
        <time>2020-09-20T10:15:41.000Z</time>
      </trkpt>
      <trkpt lat="43.61164" lon="3.86415">
        <ele>45.741969157959</ele>
        <time>2020-09-20T10:15:42.000Z</time>
      </trkpt>
      <trkpt lat="43.61164" lon="3.86423">
        <ele>45.845596135327</ele>
        <time>2020-09-20T10:15:43.000Z</time>
      </trkpt>
      <trkpt lat="43.61163" lon="3.86431">
        <ele>45.949223112696</ele>
        <time>2020-09-20T10:15:44.000Z</time>
      </trkpt>
      <trkpt lat="43.61163" lon="3.86438">
        <ele>45.94899968</ele>
        <time>2020-09-20T10:15:45.000Z</time>
      </trkpt>
      <trkpt lat="43.61162" lon="3.86446">
        <ele>45.84899968</ele>
        <time>2020-09-20T10:15:46.000Z</time>
      </trkpt>
      <trkpt lat="43.61161" lon="3.86454">
        <ele>45.74899968</ele>
        <time>2020-09-20T10:15:47.000Z</time>
      </trkpt>
      <trkpt lat="43.61161" lon="3.86462">
        <ele>45.64899968</ele>
        <time>2020-09-20T10:15:48.000Z</time>
      </trkpt>
      <trkpt lat="43.6116" lon="3.8647">
        <ele>45.54899968</ele>
        <time>2020-09-20T10:15:49.000Z</time>
      </trkpt>
      <trkpt lat="43.61159" lon="3.86478">
        <ele>45.44899968</ele>
        <time>2020-09-20T10:15:50.000Z</time>
      </trkpt>
      <trkpt lat="43.61158" lon="3.86486">
        <ele>45.34899968</ele>
        <time>2020-09-20T10:15:51.000Z</time>
      </trkpt>
      <trkpt lat="43.61158" lon="3.86494">
        <ele>45.24899968</ele>
        <time>2020-09-20T10:15:52.000Z</time>
      </trkpt>
      <trkpt lat="43.61157" lon="3.86502">
        <ele>45.14899968</ele>
        <time>2020-09-20T10:15:53.000Z</time>
      </trkpt>
      <trkpt lat="43.61157" lon="3.8651">
        <ele>45.04899968</ele>
        <time>2020-09-20T10:15:54.000Z</time>
      </trkpt>
      <trkpt lat="43.61156" lon="3.86518">
        <ele>45</ele>
        <time>2020-09-20T10:15:55.000Z</time>
      </trkpt>
      <trkpt lat="43.61155" lon="3.86526">
        <ele>45</ele>
        <time>2020-09-20T10:15:56.000Z</time>
      </trkpt>
      <trkpt lat="43.61155" lon="3.86534">
        <ele>45</ele>
        <time>2020-09-20T10:15:57.000Z</time>
      </trkpt>
      <trkpt lat="43.61154" lon="3.86541">
        <ele>45</ele>
        <time>2020-09-20T10:15:58.000Z</time>
      </trkpt>
      <trkpt lat="43.61154" lon="3.86549">
        <ele>45</ele>
        <time>2020-09-20T10:15:59.000Z</time>
      </trkpt>
      <trkpt lat="43.61153" lon="3.86556">
        <ele>45</ele>
        <time>2020-09-20T10:16:00.000Z</time>
      </trkpt>
      <trkpt lat="43.61152" lon="3.86564">
        <ele>45</ele>
        <time>2020-09-20T10:16:01.000Z</time>
      </trkpt>
      <trkpt lat="43.61152" lon="3.8657">
        <ele>45</ele>
        <time>2020-09-20T10:16:02.000Z</time>
      </trkpt>
      <trkpt lat="43.61152" lon="3.86577">
        <ele>45</ele>
        <time>2020-09-20T10:16:03.000Z</time>
      </trkpt>
      <trkpt lat="43.61155" lon="3.86581">
        <ele>45</ele>
        <time>2020-09-20T10:16:04.000Z</time>
      </trkpt>
      <trkpt lat="43.61158" lon="3.86584">
        <ele>45</ele>
        <time>2020-09-20T10:16:05.000Z</time>
      </trkpt>
      <trkpt lat="43.61162" lon="3.86585">
        <ele>45</ele>
        <time>2020-09-20T10:16:06.000Z</time>
      </trkpt>
      <trkpt lat="43.61165" lon="3.86586">
        <ele>45</ele>
        <time>2020-09-20T10:16:07.000Z</time>
      </trkpt>
      <trkpt lat="43.61168" lon="3.86587">
        <ele>45</ele>
        <time>2020-09-20T10:16:08.000Z</time>
      </trkpt>
      <trkpt lat="43.61171" lon="3.86588">
        <ele>45</ele>
        <time>2020-09-20T10:16:09.000Z</time>
      </trkpt>
      <trkpt lat="43.61174" lon="3.86591">
        <ele>45</ele>
        <time>2020-09-20T10:16:10.000Z</time>
      </trkpt>
      <trkpt lat="43.61175" lon="3.86597">
        <ele>45</ele>
        <time>2020-09-20T10:16:11.000Z</time>
      </trkpt>
      <trkpt lat="43.61175" lon="3.86603">
        <ele>45</ele>
        <time>2020-09-20T10:16:12.000Z</time>
      </trkpt>
      <trkpt lat="43.61176" lon="3.8661">
        <ele>45</ele>
        <time>2020-09-20T10:16:13.000Z</time>
      </trkpt>
      <trkpt lat="43.61176" lon="3.86617">
        <ele>45</ele>
        <time>2020-09-20T10:16:14.000Z</time>
      </trkpt>
      <trkpt lat="43.61175" lon="3.86624">
        <ele>44.94899968</ele>
        <time>2020-09-20T10:16:15.000Z</time>
      </trkpt>
      <trkpt lat="43.61175" lon="3.86632">
        <ele>44.84899968</ele>
        <time>2020-09-20T10:16:16.000Z</time>
      </trkpt>
      <trkpt lat="43.61175" lon="3.86639">
        <ele>44.74899968</ele>
        <time>2020-09-20T10:16:17.000Z</time>
      </trkpt>
      <trkpt lat="43.61174" lon="3.86647">
        <ele>44.64899968</ele>
        <time>2020-09-20T10:16:18.000Z</time>
      </trkpt>
      <trkpt lat="43.61175" lon="3.86654">
        <ele>44.54899968</ele>
        <time>2020-09-20T10:16:19.000Z</time>
      </trkpt>
      <trkpt lat="43.61177" lon="3.8666">
        <ele>44.44899968</ele>
        <time>2020-09-20T10:16:20.000Z</time>
      </trkpt>
      <trkpt lat="43.6118" lon="3.86664">
        <ele>44.34899968</ele>
        <time>2020-09-20T10:16:21.000Z</time>
      </trkpt>
      <trkpt lat="43.61184" lon="3.86667">
        <ele>44.24899968</ele>
        <time>2020-09-20T10:16:22.000Z</time>
      </trkpt>
      <trkpt lat="43.61188" lon="3.86668">
        <ele>44.14899968</ele>
        <time>2020-09-20T10:16:23.000Z</time>
      </trkpt>
      <trkpt lat="43.61193" lon="3.8667">
        <ele>44.04899968</ele>
        <time>2020-09-20T10:16:24.000Z</time>
      </trkpt>
      <trkpt lat="43.61198" lon="3.86671">
        <ele>44</ele>
        <time>2020-09-20T10:16:25.000Z</time>
      </trkpt>
      <trkpt lat="43.61202" lon="3.86672">
        <ele>44</ele>
        <time>2020-09-20T10:16:26.000Z</time>
      </trkpt>
      <trkpt lat="43.61207" lon="3.86673">
        <ele>44</ele>
        <time>2020-09-20T10:16:27.000Z</time>
      </trkpt>
      <trkpt lat="43.61211" lon="3.86676">
        <ele>44</ele>
        <time>2020-09-20T10:16:28.000Z</time>
      </trkpt>
      <trkpt lat="43.61215" lon="3.8668">
        <ele>44</ele>
        <time>2020-09-20T10:16:29.000Z</time>
      </trkpt>
      <trkpt lat="43.61219" lon="3.86684">
        <ele>44</ele>
        <time>2020-09-20T10:16:30.000Z</time>
      </trkpt>
      <trkpt lat="43.61223" lon="3.86688">
        <ele>44</ele>
        <time>2020-09-20T10:16:31.000Z</time>
      </trkpt>
      <trkpt lat="43.61227" lon="3.86692">
        <ele>44</ele>
        <time>2020-09-20T10:16:32.000Z</time>
      </trkpt>
      <trkpt lat="43.61231" lon="3.86696">
        <ele>44</ele>
        <time>2020-09-20T10:16:33.000Z</time>
      </trkpt>
      <trkpt lat="43.61236" lon="3.86701">
        <ele>44</ele>
        <time>2020-09-20T10:16:34.000Z</time>
      </trkpt>
      <trkpt lat="43.6124" lon="3.86705">
        <ele>44.05100032</ele>
        <time>2020-09-20T10:16:35.000Z</time>
      </trkpt>
      <trkpt lat="43.61244" lon="3.86709">
        <ele>44.15100032</ele>
        <time>2020-09-20T10:16:36.000Z</time>
      </trkpt>
      <trkpt lat="43.61248" lon="3.86713">
        <ele>44.25100032</ele>
        <time>2020-09-20T10:16:37.000Z</time>
      </trkpt>
      <trkpt lat="43.61252" lon="3.86717">
        <ele>44.35100032</ele>
        <time>2020-09-20T10:16:38.000Z</time>
      </trkpt>
      <trkpt lat="43.61256" lon="3.86721">
        <ele>44.45100032</ele>
        <time>2020-09-20T10:16:39.000Z</time>
      </trkpt>
      <trkpt lat="43.6126" lon="3.86725">
        <ele>44.55100032</ele>
        <time>2020-09-20T10:16:40.000Z</time>
      </trkpt>
      <trkpt lat="43.61263" lon="3.86728">
        <ele>44.65100032</ele>
        <time>2020-09-20T10:16:41.000Z</time>
      </trkpt>
      <trkpt lat="43.61267" lon="3.86731">
        <ele>44.75100032</ele>
        <time>2020-09-20T10:16:42.000Z</time>
      </trkpt>
      <trkpt lat="43.6127" lon="3.86735">
        <ele>44.85100032</ele>
        <time>2020-09-20T10:16:43.000Z</time>
      </trkpt>
      <trkpt lat="43.61273" lon="3.86737">
        <ele>44.95100032</ele>
        <time>2020-09-20T10:16:44.000Z</time>
      </trkpt>
      <trkpt lat="43.61275" lon="3.86739">
        <ele>45.050949386917</ele>
        <time>2020-09-20T10:16:45.000Z</time>
      </trkpt>
      <trkpt lat="43.61276" lon="3.86741">
        <ele>45.150849518753</ele>
        <time>2020-09-20T10:16:46.000Z</time>
      </trkpt>
      <trkpt lat="43.61278" lon="3.86742">
        <ele>45.250749650589</ele>
        <time>2020-09-20T10:16:47.000Z</time>
      </trkpt>
      <trkpt lat="43.6128" lon="3.86744">
        <ele>45.350649782425</ele>
        <time>2020-09-20T10:16:48.000Z</time>
      </trkpt>
      <trkpt lat="43.61282" lon="3.86746">
        <ele>45.450549914262</ele>
        <time>2020-09-20T10:16:49.000Z</time>
      </trkpt>
      <trkpt lat="43.61285" lon="3.86748">
        <ele>45.550450046098</ele>
        <time>2020-09-20T10:16:50.000Z</time>
      </trkpt>
      <trkpt lat="43.61288" lon="3.86751">
        <ele>45.650350177934</ele>
        <time>2020-09-20T10:16:51.000Z</time>
      </trkpt>
      <trkpt lat="43.61291" lon="3.86753">
        <ele>45.75025030977</ele>
        <time>2020-09-20T10:16:52.000Z</time>
      </trkpt>
      <trkpt lat="43.61294" lon="3.86756">
        <ele>45.850150441607</ele>
        <time>2020-09-20T10:16:53.000Z</time>
      </trkpt>
      <trkpt lat="43.61298" lon="3.86759">
        <ele>45.950050573443</ele>
        <time>2020-09-20T10:16:54.000Z</time>
      </trkpt>
      <trkpt lat="43.61301" lon="3.86762">
        <ele>46</ele>
        <time>2020-09-20T10:16:55.000Z</time>
      </trkpt>
      <trkpt lat="43.61305" lon="3.86766">
        <ele>46</ele>
        <time>2020-09-20T10:16:56.000Z</time>
      </trkpt>
      <trkpt lat="43.61308" lon="3.86769">
        <ele>46</ele>
        <time>2020-09-20T10:16:57.000Z</time>
      </trkpt>
      <trkpt lat="43.61312" lon="3.86772">
        <ele>46</ele>
        <time>2020-09-20T10:16:58.000Z</time>
      </trkpt>
      <trkpt lat="43.61315" lon="3.86776">
        <ele>46</ele>
        <time>2020-09-20T10:16:59.000Z</time>
      </trkpt>
      <trkpt lat="43.61319" lon="3.8678">
        <ele>46</ele>
        <time>2020-09-20T10:17:00.000Z</time>
      </trkpt>
      <trkpt lat="43.61322" lon="3.86785">
        <ele>46</ele>
        <time>2020-09-20T10:17:01.000Z</time>
      </trkpt>
      <trkpt lat="43.61325" lon="3.8679">
        <ele>46</ele>
        <time>2020-09-20T10:17:02.000Z</time>
      </trkpt>
      <trkpt lat="43.61325" lon="3.86796">
        <ele>46</ele>
        <time>2020-09-20T10:17:03.000Z</time>
      </trkpt>
      <trkpt lat="43.61325" lon="3.86802">
        <ele>46</ele>
        <time>2020-09-20T10:17:04.000Z</time>
      </trkpt>
      <trkpt lat="43.61324" lon="3.86807">
        <ele>45.90200064</ele>
        <time>2020-09-20T10:17:05.000Z</time>
      </trkpt>
      <trkpt lat="43.61324" lon="3.86812">
        <ele>45.70200064</ele>
        <time>2020-09-20T10:17:06.000Z</time>
      </trkpt>
      <trkpt lat="43.61323" lon="3.86817">
        <ele>45.50200064</ele>
        <time>2020-09-20T10:17:07.000Z</time>
      </trkpt>
      <trkpt lat="43.61322" lon="3.86822">
        <ele>45.30200064</ele>
        <time>2020-09-20T10:17:08.000Z</time>
      </trkpt>
      <trkpt lat="43.61321" lon="3.86827">
        <ele>45.10200064</ele>
        <time>2020-09-20T10:17:09.000Z</time>
      </trkpt>
      <trkpt lat="43.6132" lon="3.86832">
        <ele>44.90200064</ele>
        <time>2020-09-20T10:17:10.000Z</time>
      </trkpt>
      <trkpt lat="43.61319" lon="3.86837">
        <ele>44.70200064</ele>
        <time>2020-09-20T10:17:11.000Z</time>
      </trkpt>
      <trkpt lat="43.61318" lon="3.86842">
        <ele>44.50200064</ele>
        <time>2020-09-20T10:17:12.000Z</time>
      </trkpt>
      <trkpt lat="43.61317" lon="3.86846">
        <ele>44.30200064</ele>
        <time>2020-09-20T10:17:13.000Z</time>
      </trkpt>
      <trkpt lat="43.61316" lon="3.86851">
        <ele>44.10200064</ele>
        <time>2020-09-20T10:17:14.000Z</time>
      </trkpt>
      <trkpt lat="43.61316" lon="3.86855">
        <ele>43.950902092763</ele>
        <time>2020-09-20T10:17:15.000Z</time>
      </trkpt>
      <trkpt lat="43.61315" lon="3.8686">
        <ele>43.850701627705</ele>
        <time>2020-09-20T10:17:16.000Z</time>
      </trkpt>
      <trkpt lat="43.61314" lon="3.86864">
        <ele>43.750501162646</ele>
        <time>2020-09-20T10:17:17.000Z</time>
      </trkpt>
      <trkpt lat="43.61314" lon="3.86869">
        <ele>43.650300697588</ele>
        <time>2020-09-20T10:17:18.000Z</time>
      </trkpt>
      <trkpt lat="43.61313" lon="3.86873">
        <ele>43.550100232529</ele>
        <time>2020-09-20T10:17:19.000Z</time>
      </trkpt>
      <trkpt lat="43.61312" lon="3.86877">
        <ele>43.449899767471</ele>
        <time>2020-09-20T10:17:20.000Z</time>
      </trkpt>
      <trkpt lat="43.61312" lon="3.86881">
        <ele>43.349699302412</ele>
        <time>2020-09-20T10:17:21.000Z</time>
      </trkpt>
      <trkpt lat="43.61312" lon="3.86884">
        <ele>43.249498837354</ele>
        <time>2020-09-20T10:17:22.000Z</time>
      </trkpt>
      <trkpt lat="43.61311" lon="3.86888">
        <ele>43.149298372295</ele>
        <time>2020-09-20T10:17:23.000Z</time>
      </trkpt>
      <trkpt lat="43.61311" lon="3.86892">
        <ele>43.049097907237</ele>
        <time>2020-09-20T10:17:24.000Z</time>
      </trkpt>
      <trkpt lat="43.6131" lon="3.86895">
        <ele>42.94899968</ele>
        <time>2020-09-20T10:17:25.000Z</time>
      </trkpt>
      <trkpt lat="43.6131" lon="3.86899">
        <ele>42.84899968</ele>
        <time>2020-09-20T10:17:26.000Z</time>
      </trkpt>
      <trkpt lat="43.61309" lon="3.86903">
        <ele>42.74899968</ele>
        <time>2020-09-20T10:17:27.000Z</time>
      </trkpt>
      <trkpt lat="43.61309" lon="3.86907">
        <ele>42.64899968</ele>
        <time>2020-09-20T10:17:28.000Z</time>
      </trkpt>
      <trkpt lat="43.61308" lon="3.8691">
        <ele>42.54899968</ele>
        <time>2020-09-20T10:17:29.000Z</time>
      </trkpt>
      <trkpt lat="43.61308" lon="3.86914">
        <ele>42.44899968</ele>
        <time>2020-09-20T10:17:30.000Z</time>
      </trkpt>
      <trkpt lat="43.61307" lon="3.86917">
        <ele>42.34899968</ele>
        <time>2020-09-20T10:17:31.000Z</time>
      </trkpt>
      <trkpt lat="43.61307" lon="3.8692">
        <ele>42.24899968</ele>
        <time>2020-09-20T10:17:32.000Z</time>
      </trkpt>
      <trkpt lat="43.61307" lon="3.86924">
        <ele>42.14899968</ele>
        <time>2020-09-20T10:17:33.000Z</time>
      </trkpt>
      <trkpt lat="43.61306" lon="3.86927">
        <ele>42.04899968</ele>
        <time>2020-09-20T10:17:34.000Z</time>
      </trkpt>
      <trkpt lat="43.61306" lon="3.86931">
        <ele>42</ele>
        <time>2020-09-20T10:17:35.000Z</time>
      </trkpt>
      <trkpt lat="43.61305" lon="3.86934">
        <ele>42</ele>
        <time>2020-09-20T10:17:36.000Z</time>
      </trkpt>
      <trkpt lat="43.61304" lon="3.86937">
        <ele>42</ele>
        <time>2020-09-20T10:17:37.000Z</time>
      </trkpt>
      <trkpt lat="43.61304" lon="3.86942">
        <ele>42</ele>
        <time>2020-09-20T10:17:38.000Z</time>
      </trkpt>
      <trkpt lat="43.61305" lon="3.86947">
        <ele>42</ele>
        <time>2020-09-20T10:17:39.000Z</time>
      </trkpt>
      <trkpt lat="43.61306" lon="3.86951">
        <ele>42</ele>
        <time>2020-09-20T10:17:40.000Z</time>
      </trkpt>
      <trkpt lat="43.61306" lon="3.86955">
        <ele>42</ele>
        <time>2020-09-20T10:17:41.000Z</time>
      </trkpt>
      <trkpt lat="43.61306" lon="3.86959">
        <ele>42</ele>
        <time>2020-09-20T10:17:42.000Z</time>
      </trkpt>
      <trkpt lat="43.61306" lon="3.86962">
        <ele>42</ele>
        <time>2020-09-20T10:17:43.000Z</time>
      </trkpt>
      <trkpt lat="43.61306" lon="3.86966">
        <ele>42</ele>
        <time>2020-09-20T10:17:44.000Z</time>
      </trkpt>
      <trkpt lat="43.61305" lon="3.8697">
        <ele>42.05100032</ele>
        <time>2020-09-20T10:17:45.000Z</time>
      </trkpt>
      <trkpt lat="43.61304" lon="3.86974">
        <ele>42.15100032</ele>
        <time>2020-09-20T10:17:46.000Z</time>
      </trkpt>
      <trkpt lat="43.61303" lon="3.86978">
        <ele>42.25100032</ele>
        <time>2020-09-20T10:17:47.000Z</time>
      </trkpt>
      <trkpt lat="43.61302" lon="3.86981">
        <ele>42.35100032</ele>
        <time>2020-09-20T10:17:48.000Z</time>
      </trkpt>
      <trkpt lat="43.61302" lon="3.86985">
        <ele>42.45100032</ele>
        <time>2020-09-20T10:17:49.000Z</time>
      </trkpt>
      <trkpt lat="43.61301" lon="3.86988">
        <ele>42.55100032</ele>
        <time>2020-09-20T10:17:50.000Z</time>
      </trkpt>
      <trkpt lat="43.61301" lon="3.86991">
        <ele>42.65100032</ele>
        <time>2020-09-20T10:17:51.000Z</time>
      </trkpt>
      <trkpt lat="43.613" lon="3.86995">
        <ele>42.75100032</ele>
        <time>2020-09-20T10:17:52.000Z</time>
      </trkpt>
      <trkpt lat="43.613" lon="3.86998">
        <ele>42.85100032</ele>
        <time>2020-09-20T10:17:53.000Z</time>
      </trkpt>
      <trkpt lat="43.61299" lon="3.87002">
        <ele>42.95100032</ele>
        <time>2020-09-20T10:17:54.000Z</time>
      </trkpt>
      <trkpt lat="43.61299" lon="3.87005">
        <ele>43.05100032</ele>
        <time>2020-09-20T10:17:55.000Z</time>
      </trkpt>
      <trkpt lat="43.61298" lon="3.87009">
        <ele>43.15100032</ele>
        <time>2020-09-20T10:17:56.000Z</time>
      </trkpt>
      <trkpt lat="43.61298" lon="3.87012">
        <ele>43.25100032</ele>
        <time>2020-09-20T10:17:57.000Z</time>
      </trkpt>
      <trkpt lat="43.61297" lon="3.87015">
        <ele>43.35100032</ele>
        <time>2020-09-20T10:17:58.000Z</time>
      </trkpt>
      <trkpt lat="43.61296" lon="3.87018">
        <ele>43.45100032</ele>
        <time>2020-09-20T10:17:59.000Z</time>
      </trkpt>
      <trkpt lat="43.61295" lon="3.87021">
        <ele>43.55100032</ele>
        <time>2020-09-20T10:18:00.000Z</time>
      </trkpt>
      <trkpt lat="43.61294" lon="3.87024">
        <ele>43.65100032</ele>
        <time>2020-09-20T10:18:01.000Z</time>
      </trkpt>
      <trkpt lat="43.61293" lon="3.87027">
        <ele>43.75100032</ele>
        <time>2020-09-20T10:18:02.000Z</time>
      </trkpt>
      <trkpt lat="43.61292" lon="3.8703">
        <ele>43.85100032</ele>
        <time>2020-09-20T10:18:03.000Z</time>
      </trkpt>
      <trkpt lat="43.61291" lon="3.87033">
        <ele>43.95100032</ele>
        <time>2020-09-20T10:18:04.000Z</time>
      </trkpt>
      <trkpt lat="43.61291" lon="3.87037">
        <ele>44</ele>
        <time>2020-09-20T10:18:05.000Z</time>
      </trkpt>
      <trkpt lat="43.61291" lon="3.8704">
        <ele>44</ele>
        <time>2020-09-20T10:18:06.000Z</time>
      </trkpt>
      <trkpt lat="43.6129" lon="3.87044">
        <ele>44</ele>
        <time>2020-09-20T10:18:07.000Z</time>
      </trkpt>
      <trkpt lat="43.61288" lon="3.87048">
        <ele>44</ele>
        <time>2020-09-20T10:18:08.000Z</time>
      </trkpt>
      <trkpt lat="43.61286" lon="3.87052">
        <ele>44</ele>
        <time>2020-09-20T10:18:09.000Z</time>
      </trkpt>
      <trkpt lat="43.61285" lon="3.87057">
        <ele>44</ele>
        <time>2020-09-20T10:18:10.000Z</time>
      </trkpt>
      <trkpt lat="43.61284" lon="3.87061">
        <ele>44</ele>
        <time>2020-09-20T10:18:11.000Z</time>
      </trkpt>
      <trkpt lat="43.61283" lon="3.87065">
        <ele>44</ele>
        <time>2020-09-20T10:18:12.000Z</time>
      </trkpt>
      <trkpt lat="43.61282" lon="3.87069">
        <ele>44</ele>
        <time>2020-09-20T10:18:13.000Z</time>
      </trkpt>
      <trkpt lat="43.61282" lon="3.87074">
        <ele>44</ele>
        <time>2020-09-20T10:18:14.000Z</time>
      </trkpt>
      <trkpt lat="43.61281" lon="3.87078">
        <ele>44</ele>
        <time>2020-09-20T10:18:15.000Z</time>
      </trkpt>
      <trkpt lat="43.6128" lon="3.87082">
        <ele>44</ele>
        <time>2020-09-20T10:18:16.000Z</time>
      </trkpt>
      <trkpt lat="43.61278" lon="3.87086">
        <ele>44</ele>
        <time>2020-09-20T10:18:17.000Z</time>
      </trkpt>
      <trkpt lat="43.61277" lon="3.87091">
        <ele>44</ele>
        <time>2020-09-20T10:18:18.000Z</time>
      </trkpt>
      <trkpt lat="43.61275" lon="3.87095">
        <ele>44</ele>
        <time>2020-09-20T10:18:19.000Z</time>
      </trkpt>
      <trkpt lat="43.61274" lon="3.871">
        <ele>44</ele>
        <time>2020-09-20T10:18:20.000Z</time>
      </trkpt>
      <trkpt lat="43.61273" lon="3.87104">
        <ele>44</ele>
        <time>2020-09-20T10:18:21.000Z</time>
      </trkpt>
      <trkpt lat="43.61272" lon="3.87109">
        <ele>44</ele>
        <time>2020-09-20T10:18:22.000Z</time>
      </trkpt>
      <trkpt lat="43.61272" lon="3.87113">
        <ele>44</ele>
        <time>2020-09-20T10:18:23.000Z</time>
      </trkpt>
      <trkpt lat="43.61271" lon="3.87118">
        <ele>44</ele>
        <time>2020-09-20T10:18:24.000Z</time>
      </trkpt>
      <trkpt lat="43.6127" lon="3.87122">
        <ele>44</ele>
        <time>2020-09-20T10:18:25.000Z</time>
      </trkpt>
      <trkpt lat="43.61269" lon="3.87127">
        <ele>44</ele>
        <time>2020-09-20T10:18:26.000Z</time>
      </trkpt>
      <trkpt lat="43.61268" lon="3.87132">
        <ele>44</ele>
        <time>2020-09-20T10:18:27.000Z</time>
      </trkpt>
      <trkpt lat="43.61267" lon="3.87136">
        <ele>44</ele>
        <time>2020-09-20T10:18:28.000Z</time>
      </trkpt>
      <trkpt lat="43.61266" lon="3.87141">
        <ele>44</ele>
        <time>2020-09-20T10:18:29.000Z</time>
      </trkpt>
      <trkpt lat="43.61264" lon="3.87145">
        <ele>44</ele>
        <time>2020-09-20T10:18:30.000Z</time>
      </trkpt>
      <trkpt lat="43.61264" lon="3.87149">
        <ele>44</ele>
        <time>2020-09-20T10:18:31.000Z</time>
      </trkpt>
      <trkpt lat="43.61263" lon="3.87154">
        <ele>44</ele>
        <time>2020-09-20T10:18:32.000Z</time>
      </trkpt>
      <trkpt lat="43.61262" lon="3.87158">
        <ele>44</ele>
        <time>2020-09-20T10:18:33.000Z</time>
      </trkpt>
      <trkpt lat="43.61261" lon="3.87162">
        <ele>44</ele>
        <time>2020-09-20T10:18:34.000Z</time>
      </trkpt>
      <trkpt lat="43.6126" lon="3.87167">
        <ele>44</ele>
        <time>2020-09-20T10:18:35.000Z</time>
      </trkpt>
      <trkpt lat="43.6126" lon="3.87171">
        <ele>44</ele>
        <time>2020-09-20T10:18:36.000Z</time>
      </trkpt>
      <trkpt lat="43.61259" lon="3.87175">
        <ele>44</ele>
        <time>2020-09-20T10:18:37.000Z</time>
      </trkpt>
      <trkpt lat="43.61258" lon="3.87178">
        <ele>44</ele>
        <time>2020-09-20T10:18:38.000Z</time>
      </trkpt>
      <trkpt lat="43.61257" lon="3.87182">
        <ele>44</ele>
        <time>2020-09-20T10:18:40.000Z</time>
      </trkpt>
      <trkpt lat="43.61256" lon="3.87185">
        <ele>44</ele>
        <time>2020-09-20T10:18:42.000Z</time>
      </trkpt>
      <trkpt lat="43.61255" lon="3.87189">
        <ele>44</ele>
        <time>2020-09-20T10:18:44.000Z</time>
      </trkpt>
      <trkpt lat="43.61256" lon="3.87192">
        <ele>44</ele>
        <time>2020-09-20T10:18:45.000Z</time>
      </trkpt>
      <trkpt lat="43.61256" lon="3.87195">
        <ele>44</ele>
        <time>2020-09-20T10:18:46.000Z</time>
      </trkpt>
      <trkpt lat="43.61256" lon="3.87198">
        <ele>44</ele>
        <time>2020-09-20T10:18:47.000Z</time>
      </trkpt>
      <trkpt lat="43.61255" lon="3.87201">
        <ele>44</ele>
        <time>2020-09-20T10:18:48.000Z</time>
      </trkpt>
      <trkpt lat="43.61255" lon="3.87204">
        <ele>44</ele>
        <time>2020-09-20T10:18:49.000Z</time>
      </trkpt>
      <trkpt lat="43.61254" lon="3.87206">
        <ele>44</ele>
        <time>2020-09-20T10:18:50.000Z</time>
      </trkpt>
      <trkpt lat="43.61252" lon="3.8721">
        <ele>44</ele>
        <time>2020-09-20T10:18:52.000Z</time>
      </trkpt>
      <trkpt lat="43.61251" lon="3.87213">
        <ele>44</ele>
        <time>2020-09-20T10:18:54.000Z</time>
      </trkpt>
      <trkpt lat="43.6125" lon="3.87216">
        <ele>44.120602976289</ele>
        <time>2020-09-20T10:18:56.000Z</time>
      </trkpt>
      <trkpt lat="43.6125" lon="3.8722">
        <ele>44.321607936769</ele>
        <time>2020-09-20T10:18:58.000Z</time>
      </trkpt>
      <trkpt lat="43.6125" lon="3.87224">
        <ele>44.52261289725</ele>
        <time>2020-09-20T10:19:00.000Z</time>
      </trkpt>
      <trkpt lat="43.61251" lon="3.87229">
        <ele>44.723617857731</ele>
        <time>2020-09-20T10:19:02.000Z</time>
      </trkpt>
      <trkpt lat="43.61251" lon="3.87231">
        <ele>44.824120337971</ele>
        <time>2020-09-20T10:19:03.000Z</time>
      </trkpt>
      <trkpt lat="43.61252" lon="3.87234">
        <ele>44.924622818212</ele>
        <time>2020-09-20T10:19:04.000Z</time>
      </trkpt>
      <trkpt lat="43.61252" lon="3.87237">
        <ele>45</ele>
        <time>2020-09-20T10:19:05.000Z</time>
      </trkpt>
      <trkpt lat="43.61253" lon="3.8724">
        <ele>45</ele>
        <time>2020-09-20T10:19:06.000Z</time>
      </trkpt>
      <trkpt lat="43.61254" lon="3.87243">
        <ele>45</ele>
        <time>2020-09-20T10:19:07.000Z</time>
      </trkpt>
      <trkpt lat="43.61254" lon="3.87246">
        <ele>45</ele>
        <time>2020-09-20T10:19:08.000Z</time>
      </trkpt>
      <trkpt lat="43.61255" lon="3.87249">
        <ele>45</ele>
        <time>2020-09-20T10:19:09.000Z</time>
      </trkpt>
      <trkpt lat="43.61257" lon="3.87253">
        <ele>45</ele>
        <time>2020-09-20T10:19:10.000Z</time>
      </trkpt>
      <trkpt lat="43.61258" lon="3.87256">
        <ele>45</ele>
        <time>2020-09-20T10:19:11.000Z</time>
      </trkpt>
      <trkpt lat="43.6126" lon="3.8726">
        <ele>45</ele>
        <time>2020-09-20T10:19:12.000Z</time>
      </trkpt>
      <trkpt lat="43.6126" lon="3.87264">
        <ele>45</ele>
        <time>2020-09-20T10:19:13.000Z</time>
      </trkpt>
      <trkpt lat="43.61259" lon="3.87267">
        <ele>45</ele>
        <time>2020-09-20T10:19:14.000Z</time>
      </trkpt>
      <trkpt lat="43.61258" lon="3.8727">
        <ele>45.067969253605</ele>
        <time>2020-09-20T10:19:15.000Z</time>
      </trkpt>
      <trkpt lat="43.61257" lon="3.87272">
        <ele>45.376929394286</ele>
        <time>2020-09-20T10:19:16.000Z</time>
      </trkpt>
      <trkpt lat="43.61256" lon="3.87274">
        <ele>45.685889534968</ele>
        <time>2020-09-20T10:19:17.000Z</time>
      </trkpt>
      <trkpt lat="43.61253" lon="3.87277">
        <ele>46.303809816331</ele>
        <time>2020-09-20T10:19:19.000Z</time>
      </trkpt>
      <trkpt lat="43.61252" lon="3.87279">
        <ele>46.612769957013</ele>
        <time>2020-09-20T10:19:20.000Z</time>
      </trkpt>
      <trkpt lat="43.6125" lon="3.87281">
        <ele>46.921730097694</ele>
        <time>2020-09-20T10:19:21.000Z</time>
      </trkpt>
      <trkpt lat="43.61248" lon="3.87284">
        <ele>47.539650379057</ele>
        <time>2020-09-20T10:19:23.000Z</time>
      </trkpt>
      <trkpt lat="43.61247" lon="3.87286">
        <ele>47.848610519739</ele>
        <time>2020-09-20T10:19:24.000Z</time>
      </trkpt>
      <trkpt lat="43.61245" lon="3.87287">
        <ele>48.15300096</ele>
        <time>2020-09-20T10:19:25.000Z</time>
      </trkpt>
      <trkpt lat="43.61244" lon="3.87289">
        <ele>48.45300096</ele>
        <time>2020-09-20T10:19:26.000Z</time>
      </trkpt>
      <trkpt lat="43.61242" lon="3.8729">
        <ele>48.75300096</ele>
        <time>2020-09-20T10:19:27.000Z</time>
      </trkpt>
      <trkpt lat="43.61239" lon="3.87293">
        <ele>49.35300096</ele>
        <time>2020-09-20T10:19:29.000Z</time>
      </trkpt>
      <trkpt lat="43.61238" lon="3.87295">
        <ele>49.65300096</ele>
        <time>2020-09-20T10:19:30.000Z</time>
      </trkpt>
      <trkpt lat="43.61236" lon="3.87296">
        <ele>49.95300096</ele>
        <time>2020-09-20T10:19:31.000Z</time>
      </trkpt>
      <trkpt lat="43.61234" lon="3.87298">
        <ele>50.55300096</ele>
        <time>2020-09-20T10:19:33.000Z</time>
      </trkpt>
      <trkpt lat="43.61232" lon="3.87302">
        <ele>51.05100032</ele>
        <time>2020-09-20T10:19:35.000Z</time>
      </trkpt>
      <trkpt lat="43.61231" lon="3.87306">
        <ele>51.25100032</ele>
        <time>2020-09-20T10:19:37.000Z</time>
      </trkpt>
      <trkpt lat="43.6123" lon="3.87308">
        <ele>51.35100032</ele>
        <time>2020-09-20T10:19:38.000Z</time>
      </trkpt>
      <trkpt lat="43.61228" lon="3.87313">
        <ele>51.55100032</ele>
        <time>2020-09-20T10:19:40.000Z</time>
      </trkpt>
      <trkpt lat="43.61223" lon="3.87321">
        <ele>51.85100032</ele>
        <time>2020-09-20T10:19:43.000Z</time>
      </trkpt>
      <trkpt lat="43.61215" lon="3.8733">
        <ele>52.344455554244</ele>
        <time>2020-09-20T10:19:48.000Z</time>
      </trkpt>
      <trkpt lat="43.61212" lon="3.87335">
        <ele>52.540726346386</ele>
        <time>2020-09-20T10:19:50.000Z</time>
      </trkpt>
      <trkpt lat="43.61208" lon="3.87338">
        <ele>52.736997138529</ele>
        <time>2020-09-20T10:19:52.000Z</time>
      </trkpt>
      <trkpt lat="43.61206" lon="3.87339">
        <ele>52.8351325346</ele>
        <time>2020-09-20T10:19:53.000Z</time>
      </trkpt>
      <trkpt lat="43.61205" lon="3.87341">
        <ele>52.933267930671</ele>
        <time>2020-09-20T10:19:54.000Z</time>
      </trkpt>
      <trkpt lat="43.61203" lon="3.87343">
        <ele>53.065173158565</ele>
        <time>2020-09-20T10:19:55.000Z</time>
      </trkpt>
      <trkpt lat="43.61202" lon="3.87345">
        <ele>53.268839279081</ele>
        <time>2020-09-20T10:19:56.000Z</time>
      </trkpt>
      <trkpt lat="43.612" lon="3.87347">
        <ele>53.472505399596</ele>
        <time>2020-09-20T10:19:57.000Z</time>
      </trkpt>
      <trkpt lat="43.61199" lon="3.87349">
        <ele>53.676171520112</ele>
        <time>2020-09-20T10:19:58.000Z</time>
      </trkpt>
      <trkpt lat="43.61198" lon="3.87352">
        <ele>53.879837640627</ele>
        <time>2020-09-20T10:19:59.000Z</time>
      </trkpt>
      <trkpt lat="43.61197" lon="3.87356">
        <ele>54.083503761143</ele>
        <time>2020-09-20T10:20:00.000Z</time>
      </trkpt>
      <trkpt lat="43.61191" lon="3.87365">
        <ele>55.100101349317</ele>
        <time>2020-09-20T10:20:05.000Z</time>
      </trkpt>
      <trkpt lat="43.6119" lon="3.87372">
        <ele>55.500501621461</ele>
        <time>2020-09-20T10:20:07.000Z</time>
      </trkpt>
      <trkpt lat="43.61189" lon="3.87375">
        <ele>55.700701757533</ele>
        <time>2020-09-20T10:20:08.000Z</time>
      </trkpt>
      <trkpt lat="43.61188" lon="3.87377">
        <ele>55.900901893605</ele>
        <time>2020-09-20T10:20:09.000Z</time>
      </trkpt>
      <trkpt lat="43.61187" lon="3.87379">
        <ele>56.101102029677</ele>
        <time>2020-09-20T10:20:10.000Z</time>
      </trkpt>
      <trkpt lat="43.61185" lon="3.87381">
        <ele>56.301302165749</ele>
        <time>2020-09-20T10:20:11.000Z</time>
      </trkpt>
      <trkpt lat="43.61184" lon="3.87383">
        <ele>56.501502301821</ele>
        <time>2020-09-20T10:20:12.000Z</time>
      </trkpt>
      <trkpt lat="43.61183" lon="3.87386">
        <ele>56.701702437893</ele>
        <time>2020-09-20T10:20:13.000Z</time>
      </trkpt>
      <trkpt lat="43.61182" lon="3.87388">
        <ele>56.901902573965</ele>
        <time>2020-09-20T10:20:14.000Z</time>
      </trkpt>
      <trkpt lat="43.61182" lon="3.87391">
        <ele>57.05100032</ele>
        <time>2020-09-20T10:20:15.000Z</time>
      </trkpt>
      <trkpt lat="43.6118" lon="3.87394">
        <ele>57.15100032</ele>
        <time>2020-09-20T10:20:16.000Z</time>
      </trkpt>
      <trkpt lat="43.61179" lon="3.87397">
        <ele>57.25100032</ele>
        <time>2020-09-20T10:20:17.000Z</time>
      </trkpt>
      <trkpt lat="43.61178" lon="3.87401">
        <ele>57.35100032</ele>
        <time>2020-09-20T10:20:18.000Z</time>
      </trkpt>
      <trkpt lat="43.61176" lon="3.87404">
        <ele>57.45100032</ele>
        <time>2020-09-20T10:20:19.000Z</time>
      </trkpt>
      <trkpt lat="43.61176" lon="3.87408">
        <ele>57.55100032</ele>
        <time>2020-09-20T10:20:20.000Z</time>
      </trkpt>
      <trkpt lat="43.61175" lon="3.87412">
        <ele>57.65100032</ele>
        <time>2020-09-20T10:20:21.000Z</time>
      </trkpt>
      <trkpt lat="43.61174" lon="3.87415">
        <ele>57.75100032</ele>
        <time>2020-09-20T10:20:22.000Z</time>
      </trkpt>
      <trkpt lat="43.61173" lon="3.87418">
        <ele>57.85100032</ele>
        <time>2020-09-20T10:20:23.000Z</time>
      </trkpt>
      <trkpt lat="43.61172" lon="3.87421">
        <ele>57.95100032</ele>
        <time>2020-09-20T10:20:24.000Z</time>
      </trkpt>
      <trkpt lat="43.61171" lon="3.87424">
        <ele>58</ele>
        <time>2020-09-20T10:20:25.000Z</time>
      </trkpt>
      <trkpt lat="43.6117" lon="3.87426">
        <ele>58</ele>
        <time>2020-09-20T10:20:26.000Z</time>
      </trkpt>
      <trkpt lat="43.61167" lon="3.87426">
        <ele>58</ele>
        <time>2020-09-20T10:20:28.000Z</time>
      </trkpt>
      <trkpt lat="43.61165" lon="3.87425">
        <ele>58</ele>
        <time>2020-09-20T10:20:29.000Z</time>
      </trkpt>
      <trkpt lat="43.61164" lon="3.87423">
        <ele>58</ele>
        <time>2020-09-20T10:20:30.000Z</time>
      </trkpt>
      <trkpt lat="43.6116" lon="3.8742">
        <ele>58</ele>
        <time>2020-09-20T10:20:32.000Z</time>
      </trkpt>
      <trkpt lat="43.61158" lon="3.87417">
        <ele>58</ele>
        <time>2020-09-20T10:20:33.000Z</time>
      </trkpt>
      <trkpt lat="43.61155" lon="3.87416">
        <ele>58</ele>
        <time>2020-09-20T10:20:34.000Z</time>
      </trkpt>
      <trkpt lat="43.61153" lon="3.87416">
        <ele>58.049164791349</ele>
        <time>2020-09-20T10:20:35.000Z</time>
      </trkpt>
      <trkpt lat="43.6115" lon="3.87419">
        <ele>58.147493115444</ele>
        <time>2020-09-20T10:20:36.000Z</time>
      </trkpt>
      <trkpt lat="43.61149" lon="3.87422">
        <ele>58.245821439539</ele>
        <time>2020-09-20T10:20:37.000Z</time>
      </trkpt>
      <trkpt lat="43.61148" lon="3.87426">
        <ele>58.344149763634</ele>
        <time>2020-09-20T10:20:38.000Z</time>
      </trkpt>
      <trkpt lat="43.61148" lon="3.8743">
        <ele>58.44247808773</ele>
        <time>2020-09-20T10:20:39.000Z</time>
      </trkpt>
      <trkpt lat="43.61148" lon="3.87433">
        <ele>58.540806411825</ele>
        <time>2020-09-20T10:20:40.000Z</time>
      </trkpt>
      <trkpt lat="43.61147" lon="3.87436">
        <ele>58.63913473592</ele>
        <time>2020-09-20T10:20:41.000Z</time>
      </trkpt>
      <trkpt lat="43.61146" lon="3.87439">
        <ele>58.737463060015</ele>
        <time>2020-09-20T10:20:42.000Z</time>
      </trkpt>
      <trkpt lat="43.61146" lon="3.87442">
        <ele>58.83579138411</ele>
        <time>2020-09-20T10:20:43.000Z</time>
      </trkpt>
      <trkpt lat="43.61145" lon="3.87446">
        <ele>58.934119708206</ele>
        <time>2020-09-20T10:20:44.000Z</time>
      </trkpt>
      <trkpt lat="43.61144" lon="3.8745">
        <ele>58.966395415981</ele>
        <time>2020-09-20T10:20:45.000Z</time>
      </trkpt>
      <trkpt lat="43.61144" lon="3.87454">
        <ele>58.864562355723</ele>
        <time>2020-09-20T10:20:46.000Z</time>
      </trkpt>
      <trkpt lat="43.61143" lon="3.87457">
        <ele>58.762729295465</ele>
        <time>2020-09-20T10:20:47.000Z</time>
      </trkpt>
      <trkpt lat="43.61142" lon="3.87461">
        <ele>58.660896235207</ele>
        <time>2020-09-20T10:20:48.000Z</time>
      </trkpt>
      <trkpt lat="43.61141" lon="3.87465">
        <ele>58.55906317495</ele>
        <time>2020-09-20T10:20:49.000Z</time>
      </trkpt>
      <trkpt lat="43.61141" lon="3.8747">
        <ele>58.457230114692</ele>
        <time>2020-09-20T10:20:50.000Z</time>
      </trkpt>
      <trkpt lat="43.6114" lon="3.87474">
        <ele>58.355397054434</ele>
        <time>2020-09-20T10:20:51.000Z</time>
      </trkpt>
      <trkpt lat="43.6114" lon="3.87479">
        <ele>58.253563994176</ele>
        <time>2020-09-20T10:20:52.000Z</time>
      </trkpt>
      <trkpt lat="43.61139" lon="3.87483">
        <ele>58.151730933918</ele>
        <time>2020-09-20T10:20:53.000Z</time>
      </trkpt>
      <trkpt lat="43.6114" lon="3.87487">
        <ele>58.04989787366</ele>
        <time>2020-09-20T10:20:54.000Z</time>
      </trkpt>
      <trkpt lat="43.61141" lon="3.8749">
        <ele>58</ele>
        <time>2020-09-20T10:20:55.000Z</time>
      </trkpt>
      <trkpt lat="43.61141" lon="3.87494">
        <ele>58</ele>
        <time>2020-09-20T10:20:56.000Z</time>
      </trkpt>
      <trkpt lat="43.61141" lon="3.87498">
        <ele>58</ele>
        <time>2020-09-20T10:20:57.000Z</time>
      </trkpt>
      <trkpt lat="43.6114" lon="3.87503">
        <ele>58</ele>
        <time>2020-09-20T10:20:58.000Z</time>
      </trkpt>
      <trkpt lat="43.61138" lon="3.87507">
        <ele>58</ele>
        <time>2020-09-20T10:20:59.000Z</time>
      </trkpt>
      <trkpt lat="43.61137" lon="3.87511">
        <ele>58</ele>
        <time>2020-09-20T10:21:00.000Z</time>
      </trkpt>
      <trkpt lat="43.61135" lon="3.87516">
        <ele>58</ele>
        <time>2020-09-20T10:21:01.000Z</time>
      </trkpt>
      <trkpt lat="43.61134" lon="3.8752">
        <ele>58</ele>
        <time>2020-09-20T10:21:02.000Z</time>
      </trkpt>
      <trkpt lat="43.6113" lon="3.87532">
        <ele>58</ele>
        <time>2020-09-20T10:21:06.000Z</time>
      </trkpt>
      <trkpt lat="43.61132" lon="3.87547">
        <ele>58</ele>
        <time>2020-09-20T10:21:10.000Z</time>
      </trkpt>
      <trkpt lat="43.61137" lon="3.87559">
        <ele>58</ele>
        <time>2020-09-20T10:21:12.000Z</time>
      </trkpt>
      <trkpt lat="43.61141" lon="3.8757">
        <ele>58.05100032</ele>
        <time>2020-09-20T10:21:15.000Z</time>
      </trkpt>
      <trkpt lat="43.61146" lon="3.87581">
        <ele>58.35100032</ele>
        <time>2020-09-20T10:21:18.000Z</time>
      </trkpt>
      <trkpt lat="43.61142" lon="3.87593">
        <ele>58.65100032</ele>
        <time>2020-09-20T10:21:21.000Z</time>
      </trkpt>
      <trkpt lat="43.61136" lon="3.87605">
        <ele>59.101695520895</ele>
        <time>2020-09-20T10:21:25.000Z</time>
      </trkpt>
      <trkpt lat="43.61136" lon="3.87609">
        <ele>59.301097251893</ele>
        <time>2020-09-20T10:21:26.000Z</time>
      </trkpt>
      <trkpt lat="43.61135" lon="3.87613">
        <ele>59.500498982892</ele>
        <time>2020-09-20T10:21:27.000Z</time>
      </trkpt>
      <trkpt lat="43.61133" lon="3.87618">
        <ele>59.69990071389</ele>
        <time>2020-09-20T10:21:28.000Z</time>
      </trkpt>
      <trkpt lat="43.61129" lon="3.87626">
        <ele>60.098704175887</ele>
        <time>2020-09-20T10:21:30.000Z</time>
      </trkpt>
      <trkpt lat="43.61125" lon="3.87629">
        <ele>60.298105906886</ele>
        <time>2020-09-20T10:21:31.000Z</time>
      </trkpt>
      <trkpt lat="43.61121" lon="3.87632">
        <ele>60.497507637884</ele>
        <time>2020-09-20T10:21:32.000Z</time>
      </trkpt>
      <trkpt lat="43.61117" lon="3.87633">
        <ele>60.696909368882</ele>
        <time>2020-09-20T10:21:33.000Z</time>
      </trkpt>
      <trkpt lat="43.61113" lon="3.87634">
        <ele>60.896311099881</ele>
        <time>2020-09-20T10:21:34.000Z</time>
      </trkpt>
      <trkpt lat="43.61109" lon="3.87634">
        <ele>60.952802345031</ele>
        <time>2020-09-20T10:21:35.000Z</time>
      </trkpt>
      <trkpt lat="43.61105" lon="3.87635">
        <ele>60.85447389718</ele>
        <time>2020-09-20T10:21:36.000Z</time>
      </trkpt>
      <trkpt lat="43.61102" lon="3.87636">
        <ele>60.756145449328</ele>
        <time>2020-09-20T10:21:37.000Z</time>
      </trkpt>
      <trkpt lat="43.61099" lon="3.87638">
        <ele>60.657817001476</ele>
        <time>2020-09-20T10:21:38.000Z</time>
      </trkpt>
      <trkpt lat="43.61097" lon="3.87642">
        <ele>60.559488553625</ele>
        <time>2020-09-20T10:21:39.000Z</time>
      </trkpt>
      <trkpt lat="43.61096" lon="3.87645">
        <ele>60.461160105773</ele>
        <time>2020-09-20T10:21:40.000Z</time>
      </trkpt>
      <trkpt lat="43.61096" lon="3.8765">
        <ele>60.362831657921</ele>
        <time>2020-09-20T10:21:41.000Z</time>
      </trkpt>
      <trkpt lat="43.61096" lon="3.87654">
        <ele>60.26450321007</ele>
        <time>2020-09-20T10:21:42.000Z</time>
      </trkpt>
      <trkpt lat="43.61095" lon="3.87659">
        <ele>60.166174762218</ele>
        <time>2020-09-20T10:21:43.000Z</time>
      </trkpt>
      <trkpt lat="43.61095" lon="3.87664">
        <ele>60.067846314367</ele>
        <time>2020-09-20T10:21:44.000Z</time>
      </trkpt>
      <trkpt lat="43.61094" lon="3.87669">
        <ele>59.905197767241</ele>
        <time>2020-09-20T10:21:45.000Z</time>
      </trkpt>
      <trkpt lat="43.61094" lon="3.87673">
        <ele>59.599387269933</ele>
        <time>2020-09-20T10:21:46.000Z</time>
      </trkpt>
      <trkpt lat="43.61094" lon="3.87678">
        <ele>59.293576772624</ele>
        <time>2020-09-20T10:21:47.000Z</time>
      </trkpt>
      <trkpt lat="43.61093" lon="3.87683">
        <ele>58.987766275316</ele>
        <time>2020-09-20T10:21:48.000Z</time>
      </trkpt>
      <trkpt lat="43.61093" lon="3.87687">
        <ele>58.681955778008</ele>
        <time>2020-09-20T10:21:49.000Z</time>
      </trkpt>
      <trkpt lat="43.61093" lon="3.87691">
        <ele>58.3761452807</ele>
        <time>2020-09-20T10:21:50.000Z</time>
      </trkpt>
      <trkpt lat="43.61093" lon="3.87695">
        <ele>58.070334783392</ele>
        <time>2020-09-20T10:21:51.000Z</time>
      </trkpt>
      <trkpt lat="43.61092" lon="3.87699">
        <ele>57.764524286083</ele>
        <time>2020-09-20T10:21:52.000Z</time>
      </trkpt>
      <trkpt lat="43.61091" lon="3.87702">
        <ele>57.458713788775</ele>
        <time>2020-09-20T10:21:53.000Z</time>
      </trkpt>
      <trkpt lat="43.61092" lon="3.87706">
        <ele>57.152903291467</ele>
        <time>2020-09-20T10:21:54.000Z</time>
      </trkpt>
      <trkpt lat="43.61093" lon="3.87708">
        <ele>57.050050674658</ele>
        <time>2020-09-20T10:21:55.000Z</time>
      </trkpt>
      <trkpt lat="43.61095" lon="3.8771">
        <ele>57.150150742694</ele>
        <time>2020-09-20T10:21:56.000Z</time>
      </trkpt>
      <trkpt lat="43.61098" lon="3.87712">
        <ele>57.25025081073</ele>
        <time>2020-09-20T10:21:57.000Z</time>
      </trkpt>
      <trkpt lat="43.611" lon="3.87713">
        <ele>57.350350878766</ele>
        <time>2020-09-20T10:21:58.000Z</time>
      </trkpt>
      <trkpt lat="43.61102" lon="3.87714">
        <ele>57.450450946802</ele>
        <time>2020-09-20T10:21:59.000Z</time>
      </trkpt>
      <trkpt lat="43.61104" lon="3.87715">
        <ele>57.550551014838</ele>
        <time>2020-09-20T10:22:00.000Z</time>
      </trkpt>
      <trkpt lat="43.61106" lon="3.87715">
        <ele>57.650651082874</ele>
        <time>2020-09-20T10:22:01.000Z</time>
      </trkpt>
      <trkpt lat="43.61109" lon="3.87716">
        <ele>57.750751150911</ele>
        <time>2020-09-20T10:22:02.000Z</time>
      </trkpt>
      <trkpt lat="43.61111" lon="3.87717">
        <ele>57.850851218947</ele>
        <time>2020-09-20T10:22:03.000Z</time>
      </trkpt>
      <trkpt lat="43.61113" lon="3.87719">
        <ele>57.950951286983</ele>
        <time>2020-09-20T10:22:04.000Z</time>
      </trkpt>
      <trkpt lat="43.61114" lon="3.87722">
        <ele>57.94899968</ele>
        <time>2020-09-20T10:22:05.000Z</time>
      </trkpt>
      <trkpt lat="43.61115" lon="3.87726">
        <ele>57.84899968</ele>
        <time>2020-09-20T10:22:06.000Z</time>
      </trkpt>
      <trkpt lat="43.61115" lon="3.8773">
        <ele>57.74899968</ele>
        <time>2020-09-20T10:22:07.000Z</time>
      </trkpt>
      <trkpt lat="43.61115" lon="3.87734">
        <ele>57.64899968</ele>
        <time>2020-09-20T10:22:08.000Z</time>
      </trkpt>
      <trkpt lat="43.61115" lon="3.87738">
        <ele>57.54899968</ele>
        <time>2020-09-20T10:22:09.000Z</time>
      </trkpt>
      <trkpt lat="43.61115" lon="3.87743">
        <ele>57.44899968</ele>
        <time>2020-09-20T10:22:10.000Z</time>
      </trkpt>
      <trkpt lat="43.61116" lon="3.87747">
        <ele>57.34899968</ele>
        <time>2020-09-20T10:22:11.000Z</time>
      </trkpt>
      <trkpt lat="43.61116" lon="3.87752">
        <ele>57.24899968</ele>
        <time>2020-09-20T10:22:12.000Z</time>
      </trkpt>
      <trkpt lat="43.61116" lon="3.87756">
        <ele>57.14899968</ele>
        <time>2020-09-20T10:22:13.000Z</time>
      </trkpt>
      <trkpt lat="43.61116" lon="3.87759">
        <ele>57.04899968</ele>
        <time>2020-09-20T10:22:14.000Z</time>
      </trkpt>
      <trkpt lat="43.61117" lon="3.87762">
        <ele>56.950437053042</ele>
        <time>2020-09-20T10:22:15.000Z</time>
      </trkpt>
      <trkpt lat="43.61118" lon="3.87764">
        <ele>56.853255413873</ele>
        <time>2020-09-20T10:22:16.000Z</time>
      </trkpt>
      <trkpt lat="43.6112" lon="3.87764">
        <ele>56.756073774703</ele>
        <time>2020-09-20T10:22:17.000Z</time>
      </trkpt>
      <trkpt lat="43.61122" lon="3.87762">
        <ele>56.658892135533</ele>
        <time>2020-09-20T10:22:18.000Z</time>
      </trkpt>
      <trkpt lat="43.61123" lon="3.87759">
        <ele>56.561710496363</ele>
        <time>2020-09-20T10:22:19.000Z</time>
      </trkpt>
      <trkpt lat="43.61123" lon="3.87756">
        <ele>56.464528857194</ele>
        <time>2020-09-20T10:22:20.000Z</time>
      </trkpt>
      <trkpt lat="43.61124" lon="3.87753">
        <ele>56.367347218024</ele>
        <time>2020-09-20T10:22:21.000Z</time>
      </trkpt>
      <trkpt lat="43.61126" lon="3.87751">
        <ele>56.270165578854</ele>
        <time>2020-09-20T10:22:22.000Z</time>
      </trkpt>
      <trkpt lat="43.61128" lon="3.8775">
        <ele>56.172983939685</ele>
        <time>2020-09-20T10:22:23.000Z</time>
      </trkpt>
      <trkpt lat="43.6113" lon="3.87749">
        <ele>56.075802300515</ele>
        <time>2020-09-20T10:22:24.000Z</time>
      </trkpt>
      <trkpt lat="43.61133" lon="3.87749">
        <ele>55.977343582132</ele>
        <time>2020-09-20T10:22:25.000Z</time>
      </trkpt>
      <trkpt lat="43.61136" lon="3.8775">
        <ele>55.874356868571</ele>
        <time>2020-09-20T10:22:26.000Z</time>
      </trkpt>
      <trkpt lat="43.61139" lon="3.87751">
        <ele>55.771370155011</ele>
        <time>2020-09-20T10:22:27.000Z</time>
      </trkpt>
      <trkpt lat="43.61142" lon="3.87751">
        <ele>55.66838344145</ele>
        <time>2020-09-20T10:22:28.000Z</time>
      </trkpt>
      <trkpt lat="43.61144" lon="3.87751">
        <ele>55.56539672789</ele>
        <time>2020-09-20T10:22:29.000Z</time>
      </trkpt>
      <trkpt lat="43.61147" lon="3.87751">
        <ele>55.462410014329</ele>
        <time>2020-09-20T10:22:30.000Z</time>
      </trkpt>
      <trkpt lat="43.61149" lon="3.87751">
        <ele>55.359423300769</ele>
        <time>2020-09-20T10:22:31.000Z</time>
      </trkpt>
      <trkpt lat="43.61151" lon="3.8775">
        <ele>55.256436587208</ele>
        <time>2020-09-20T10:22:32.000Z</time>
      </trkpt>
      <trkpt lat="43.61155" lon="3.87749">
        <ele>55.050463160087</ele>
        <time>2020-09-20T10:22:34.000Z</time>
      </trkpt>
      <trkpt lat="43.61158" lon="3.87748">
        <ele>55</ele>
        <time>2020-09-20T10:22:36.000Z</time>
      </trkpt>
      <trkpt lat="43.6116" lon="3.87746">
        <ele>55</ele>
        <time>2020-09-20T10:22:38.000Z</time>
      </trkpt>
      <trkpt lat="43.6116" lon="3.87745">
        <ele>55</ele>
        <time>2020-09-20T10:22:45.000Z</time>
      </trkpt>
    </trkseg>
  </trk>
</gpx>